<?xml version='1.0' encoding='UTF-8'?><gpx version="1.1" creator="JPX - https://github.com/jenetics/jpx" xmlns="http://www.topografix.com/GPX/1/1"><trk><trkseg><trkpt lat="45.08148651713023" lon="7.505994478761667"><ele>360.0</ele><time>2026-04-18T07:41:50Z</time></trkpt><trkpt lat="45.081537723551236" lon="7.505903742763808"><ele>360.0</ele><time>2026-04-18T07:42:07Z</time></trkpt><trkpt lat="45.08154846259445" lon="7.505812593412113"><ele>360.0</ele><time>2026-04-18T07:42:09Z</time></trkpt><trkpt lat="45.0815124966885" lon="7.505657075837782"><ele>360.0</ele><time>2026-04-18T07:42:11Z</time></trkpt><trkpt lat="45.08145879908708" lon="7.505518614264902"><ele>360.0</ele><time>2026-04-18T07:42:13Z</time></trkpt><trkpt lat="45.08138343217889" lon="7.505380986113439"><ele>360.1666666666667</ele><time>2026-04-18T07:42:15Z</time></trkpt><trkpt lat="45.08134808675597" lon="7.505303946630214"><ele>360.3333333333333</ele><time>2026-04-18T07:42:16Z</time></trkpt><trkpt lat="45.08133387972372" lon="7.505211471276008"><ele>360.5</ele><time>2026-04-18T07:42:17Z</time></trkpt><trkpt lat="45.08132898037224" lon="7.505106132850807"><ele>360.66666666666663</ele><time>2026-04-18T07:42:18Z</time></trkpt><trkpt lat="45.08139119139116" lon="7.50499791320646"><ele>360.8333333333333</ele><time>2026-04-18T07:42:19Z</time></trkpt><trkpt lat="45.08142203796186" lon="7.504887218124993"><ele>361.0</ele><time>2026-04-18T07:42:20Z</time></trkpt><trkpt lat="45.08146020324205" lon="7.504784046548998"><ele>361.0</ele><time>2026-04-18T07:42:21Z</time></trkpt><trkpt lat="45.08147794316914" lon="7.50465402775513"><ele>361.0</ele><time>2026-04-18T07:42:22Z</time></trkpt><trkpt lat="45.081516041743875" lon="7.50454431468688"><ele>361.0</ele><time>2026-04-18T07:42:23Z</time></trkpt><trkpt lat="45.08156611216602" lon="7.504424694713091"><ele>361.0</ele><time>2026-04-18T07:42:24Z</time></trkpt><trkpt lat="45.081608456557845" lon="7.504289786067483"><ele>361.0</ele><time>2026-04-18T07:42:25Z</time></trkpt><trkpt lat="45.08164457280583" lon="7.50415300420777"><ele>360.75</ele><time>2026-04-18T07:42:26Z</time></trkpt><trkpt lat="45.08169053164768" lon="7.5040258459244"><ele>360.5</ele><time>2026-04-18T07:42:27Z</time></trkpt><trkpt lat="45.081781399151886" lon="7.503927398450793"><ele>360.25</ele><time>2026-04-18T07:42:28Z</time></trkpt><trkpt lat="45.08183291305498" lon="7.503789952465349"><ele>360.0</ele><time>2026-04-18T07:42:29Z</time></trkpt><trkpt lat="45.08190275187493" lon="7.503603475132976"><ele>360.0</ele><time>2026-04-18T07:42:30Z</time></trkpt><trkpt lat="45.081976304048936" lon="7.503410262230041"><ele>360.0</ele><time>2026-04-18T07:42:31Z</time></trkpt><trkpt lat="45.0820460460347" lon="7.50322646516535"><ele>360.0</ele><time>2026-04-18T07:42:32Z</time></trkpt><trkpt lat="45.08210719981193" lon="7.503061040525966"><ele>360.0</ele><time>2026-04-18T07:42:33Z</time></trkpt><trkpt lat="45.082168252514485" lon="7.502900549452592"><ele>360.25</ele><time>2026-04-18T07:42:34Z</time></trkpt><trkpt lat="45.08223841732907" lon="7.50271178053981"><ele>360.5</ele><time>2026-04-18T07:42:35Z</time></trkpt><trkpt lat="45.082301084544376" lon="7.502542223272054"><ele>360.75</ele><time>2026-04-18T07:42:36Z</time></trkpt><trkpt lat="45.082365346300165" lon="7.502368351687052"><ele>361.0</ele><time>2026-04-18T07:42:37Z</time></trkpt><trkpt lat="45.082453204464144" lon="7.5021893675814475"><ele>360.6</ele><time>2026-04-18T07:42:38Z</time></trkpt><trkpt lat="45.08249855547747" lon="7.502037302265837"><ele>360.20000000000005</ele><time>2026-04-18T07:42:39Z</time></trkpt><trkpt lat="45.082541907417685" lon="7.501899808849131"><ele>359.79999999999995</ele><time>2026-04-18T07:42:40Z</time></trkpt><trkpt lat="45.082572313255895" lon="7.501812654726882"><ele>359.4</ele><time>2026-04-18T07:42:41Z</time></trkpt><trkpt lat="45.08260941234353" lon="7.501727982158942"><ele>359.0</ele><time>2026-04-18T07:42:42Z</time></trkpt><trkpt lat="45.082659599948364" lon="7.5016002760560445"><ele>359.0</ele><time>2026-04-18T07:42:44Z</time></trkpt><trkpt lat="45.082726479519415" lon="7.501566751357441"><ele>359.0</ele><time>2026-04-18T07:42:45Z</time></trkpt><trkpt lat="45.08278579991432" lon="7.501420662048058"><ele>359.0</ele><time>2026-04-18T07:42:47Z</time></trkpt><trkpt lat="45.08280761742586" lon="7.5013066067630145"><ele>359.0</ele><time>2026-04-18T07:42:48Z</time></trkpt><trkpt lat="45.0828431395555" lon="7.501184223925487"><ele>359.0</ele><time>2026-04-18T07:42:49Z</time></trkpt><trkpt lat="45.082881636579025" lon="7.501040345204878"><ele>359.0</ele><time>2026-04-18T07:42:50Z</time></trkpt><trkpt lat="45.082940342170225" lon="7.500890153653529"><ele>359.0</ele><time>2026-04-18T07:42:51Z</time></trkpt><trkpt lat="45.08299669143695" lon="7.500716867544049"><ele>359.0</ele><time>2026-04-18T07:42:52Z</time></trkpt><trkpt lat="45.0830474243764" lon="7.500513525741553"><ele>359.0</ele><time>2026-04-18T07:42:53Z</time></trkpt><trkpt lat="45.08313807697806" lon="7.500303626115196"><ele>359.33333333333337</ele><time>2026-04-18T07:42:54Z</time></trkpt><trkpt lat="45.08321958690038" lon="7.500088218444067"><ele>359.6666666666667</ele><time>2026-04-18T07:42:55Z</time></trkpt><trkpt lat="45.083297076114555" lon="7.499883436369184"><ele>360.0</ele><time>2026-04-18T07:42:56Z</time></trkpt><trkpt lat="45.08337177885735" lon="7.499686018158789"><ele>359.6666666666667</ele><time>2026-04-18T07:42:57Z</time></trkpt><trkpt lat="45.08346299715812" lon="7.499466935427246"><ele>359.33333333333337</ele><time>2026-04-18T07:42:58Z</time></trkpt><trkpt lat="45.0835280758532" lon="7.4992611429073746"><ele>359.0</ele><time>2026-04-18T07:42:59Z</time></trkpt><trkpt lat="45.08360195954189" lon="7.499068398789316"><ele>359.0</ele><time>2026-04-18T07:43:00Z</time></trkpt><trkpt lat="45.08367677392001" lon="7.49886647783651"><ele>359.0</ele><time>2026-04-18T07:43:01Z</time></trkpt><trkpt lat="45.083756440971996" lon="7.498645784147156"><ele>359.0</ele><time>2026-04-18T07:43:02Z</time></trkpt><trkpt lat="45.08384192868217" lon="7.498431032392478"><ele>361.0</ele><time>2026-04-18T07:43:02.999Z</time></trkpt><trkpt lat="45.0839200816789" lon="7.498216037347803"><ele>363.0</ele><time>2026-04-18T07:43:03.999Z</time></trkpt><trkpt lat="45.084007390369266" lon="7.497999111823079"><ele>365.0</ele><time>2026-04-18T07:43:04.999Z</time></trkpt><trkpt lat="45.08409030232257" lon="7.4977713841699165"><ele>362.6666666666667</ele><time>2026-04-18T07:43:05.999Z</time></trkpt><trkpt lat="45.084169607689205" lon="7.497538356328163"><ele>360.3333333333333</ele><time>2026-04-18T07:43:06.999Z</time></trkpt><trkpt lat="45.0842557920146" lon="7.497311701595042"><ele>358.0</ele><time>2026-04-18T07:43:07.999Z</time></trkpt><trkpt lat="45.08433557377605" lon="7.49708843643905"><ele>358.66666666666663</ele><time>2026-04-18T07:43:08.999Z</time></trkpt><trkpt lat="45.08437539299578" lon="7.496859879126422"><ele>359.3333333333333</ele><time>2026-04-18T07:43:09.999Z</time></trkpt><trkpt lat="45.084401351296904" lon="7.4966481978042"><ele>360.0</ele><time>2026-04-18T07:43:10.999Z</time></trkpt><trkpt lat="45.08443095958133" lon="7.496383700693421"><ele>359.0</ele><time>2026-04-18T07:43:11.999Z</time></trkpt><trkpt lat="45.08444570903411" lon="7.496119519371398"><ele>358.0</ele><time>2026-04-18T07:43:12.999Z</time></trkpt><trkpt lat="45.08446578749953" lon="7.495868993811418"><ele>357.0</ele><time>2026-04-18T07:43:13.999Z</time></trkpt><trkpt lat="45.08448012490972" lon="7.495596866647372"><ele>355.3333333333333</ele><time>2026-04-18T07:43:14.999Z</time></trkpt><trkpt lat="45.08448948702705" lon="7.495351305169872"><ele>353.66666666666663</ele><time>2026-04-18T07:43:15.999Z</time></trkpt><trkpt lat="45.084464371059205" lon="7.495076036301189"><ele>352.0</ele><time>2026-04-18T07:43:16.999Z</time></trkpt><trkpt lat="45.08442531562911" lon="7.494818824799213"><ele>350.0</ele><time>2026-04-18T07:43:17.999Z</time></trkpt><trkpt lat="45.084357967864705" lon="7.494566075121815"><ele>348.0</ele><time>2026-04-18T07:43:18.999Z</time></trkpt><trkpt lat="45.08429109803076" lon="7.494316687422703"><ele>346.0</ele><time>2026-04-18T07:43:19.999Z</time></trkpt><trkpt lat="45.08425413635676" lon="7.494082745899308"><ele>346.0</ele><time>2026-04-18T07:43:20.999Z</time></trkpt><trkpt lat="45.08422100510472" lon="7.49384405400828"><ele>346.0</ele><time>2026-04-18T07:43:21.999Z</time></trkpt><trkpt lat="45.08419880372544" lon="7.493591107125604"><ele>346.0</ele><time>2026-04-18T07:43:22.999Z</time></trkpt><trkpt lat="45.08422689378081" lon="7.493344897822816"><ele>344.3333333333333</ele><time>2026-04-18T07:43:23.999Z</time></trkpt><trkpt lat="45.08427913148009" lon="7.493107589975028"><ele>342.6666666666667</ele><time>2026-04-18T07:43:24.999Z</time></trkpt><trkpt lat="45.08433129085638" lon="7.492864347579754"><ele>341.0</ele><time>2026-04-18T07:43:25.999Z</time></trkpt><trkpt lat="45.084418143154835" lon="7.492620901551489"><ele>340.6666666666667</ele><time>2026-04-18T07:43:26.999Z</time></trkpt><trkpt lat="45.08451930795709" lon="7.492380146486056"><ele>340.3333333333333</ele><time>2026-04-18T07:43:27.999Z</time></trkpt><trkpt lat="45.08462148096694" lon="7.492158743548246"><ele>340.0</ele><time>2026-04-18T07:43:28.999Z</time></trkpt><trkpt lat="45.08471259169031" lon="7.491919279757808"><ele>340.0</ele><time>2026-04-18T07:43:29.999Z</time></trkpt><trkpt lat="45.08480786141122" lon="7.491671096559843"><ele>340.0</ele><time>2026-04-18T07:43:30.999Z</time></trkpt><trkpt lat="45.084913875234946" lon="7.49140985944077"><ele>340.0</ele><time>2026-04-18T07:43:31.999Z</time></trkpt><trkpt lat="45.085005597671646" lon="7.491150813181431"><ele>339.66666666666663</ele><time>2026-04-18T07:43:32.999Z</time></trkpt><trkpt lat="45.085041352890094" lon="7.4908525750998844"><ele>339.3333333333333</ele><time>2026-04-18T07:43:33.999Z</time></trkpt><trkpt lat="45.085101941800346" lon="7.4905709437694465"><ele>339.0</ele><time>2026-04-18T07:43:34.999Z</time></trkpt><trkpt lat="45.08509073041263" lon="7.490248843335713"><ele>339.0</ele><time>2026-04-18T07:43:35.999Z</time></trkpt><trkpt lat="45.08507231684326" lon="7.489943737271476"><ele>339.0</ele><time>2026-04-18T07:43:36.999Z</time></trkpt><trkpt lat="45.08507014311242" lon="7.489631886355389"><ele>339.0</ele><time>2026-04-18T07:43:37.999Z</time></trkpt><trkpt lat="45.085045369427384" lon="7.489302427765707"><ele>339.0</ele><time>2026-04-18T07:43:39Z</time></trkpt><trkpt lat="45.08504364221964" lon="7.488972902819649"><ele>339.0</ele><time>2026-04-18T07:43:40Z</time></trkpt><trkpt lat="45.085021606661485" lon="7.488625719503006"><ele>338.6666666666667</ele><time>2026-04-18T07:43:41Z</time></trkpt><trkpt lat="45.08500816311289" lon="7.488309471916871"><ele>338.33333333333337</ele><time>2026-04-18T07:43:42Z</time></trkpt><trkpt lat="45.08498232136963" lon="7.488011123363277"><ele>338.0</ele><time>2026-04-18T07:43:43Z</time></trkpt><trkpt lat="45.0849810506761" lon="7.48774165930818"><ele>337.33333333333337</ele><time>2026-04-18T07:43:44Z</time></trkpt><trkpt lat="45.0849892355552" lon="7.487489297061186"><ele>336.6666666666667</ele><time>2026-04-18T07:43:45Z</time></trkpt><trkpt lat="45.08498196649019" lon="7.487238576457775"><ele>336.0</ele><time>2026-04-18T07:43:46Z</time></trkpt><trkpt lat="45.0849767827124" lon="7.48700046031002"><ele>336.0</ele><time>2026-04-18T07:43:47Z</time></trkpt><trkpt lat="45.08497279292573" lon="7.486776075375079"><ele>336.0</ele><time>2026-04-18T07:43:48Z</time></trkpt><trkpt lat="45.084970901312424" lon="7.486563614461841"><ele>336.0</ele><time>2026-04-18T07:43:49Z</time></trkpt><trkpt lat="45.08496516416326" lon="7.4863532718911046"><ele>335.5</ele><time>2026-04-18T07:43:50Z</time></trkpt><trkpt lat="45.084966821188345" lon="7.486147595095559"><ele>335.0</ele><time>2026-04-18T07:43:51Z</time></trkpt><trkpt lat="45.0849612004593" lon="7.48595938444438"><ele>334.5</ele><time>2026-04-18T07:43:52Z</time></trkpt><trkpt lat="45.084958335376484" lon="7.4857812395754815"><ele>334.0</ele><time>2026-04-18T07:43:53Z</time></trkpt><trkpt lat="45.0849153882909" lon="7.4856099724324086"><ele>334.2</ele><time>2026-04-18T07:43:54Z</time></trkpt><trkpt lat="45.08492241295261" lon="7.4854512536074935"><ele>334.4</ele><time>2026-04-18T07:43:55Z</time></trkpt><trkpt lat="45.08491536658676" lon="7.485293895485564"><ele>334.6</ele><time>2026-04-18T07:43:56Z</time></trkpt><trkpt lat="45.08491434917761" lon="7.485150887297375"><ele>334.8</ele><time>2026-04-18T07:43:57Z</time></trkpt><trkpt lat="45.08491588768271" lon="7.484997505749516"><ele>335.0</ele><time>2026-04-18T07:43:58Z</time></trkpt><trkpt lat="45.08491140888884" lon="7.48487283049073"><ele>335.0</ele><time>2026-04-18T07:43:59Z</time></trkpt><trkpt lat="45.08490954208703" lon="7.4847213429777115"><ele>335.0</ele><time>2026-04-18T07:44:00Z</time></trkpt><trkpt lat="45.08490450468202" lon="7.4845768239153285"><ele>335.0</ele><time>2026-04-18T07:44:01Z</time></trkpt><trkpt lat="45.0848979060271" lon="7.4844382067486155"><ele>335.0</ele><time>2026-04-18T07:44:02Z</time></trkpt><trkpt lat="45.084886077732065" lon="7.484312180478008"><ele>335.0</ele><time>2026-04-18T07:44:03Z</time></trkpt><trkpt lat="45.08487178266296" lon="7.484185073659154"><ele>334.83333333333337</ele><time>2026-04-18T07:44:04Z</time></trkpt><trkpt lat="45.08488267020739" lon="7.484053244382543"><ele>334.6666666666667</ele><time>2026-04-18T07:44:05Z</time></trkpt><trkpt lat="45.08487696692648" lon="7.483938310883021"><ele>334.5</ele><time>2026-04-18T07:44:06Z</time></trkpt><trkpt lat="45.084870278445685" lon="7.483821665609635"><ele>334.3333333333333</ele><time>2026-04-18T07:44:07Z</time></trkpt><trkpt lat="45.084865898150355" lon="7.4836947955885424"><ele>334.16666666666663</ele><time>2026-04-18T07:44:08Z</time></trkpt><trkpt lat="45.084863163215196" lon="7.48355534355503"><ele>334.0</ele><time>2026-04-18T07:44:09Z</time></trkpt><trkpt lat="45.084859380174464" lon="7.483423187513948"><ele>333.4</ele><time>2026-04-18T07:44:10Z</time></trkpt><trkpt lat="45.08486510666159" lon="7.483294283031821"><ele>332.79999999999995</ele><time>2026-04-18T07:44:11Z</time></trkpt><trkpt lat="45.08485095894449" lon="7.483167414255386"><ele>332.20000000000005</ele><time>2026-04-18T07:44:12Z</time></trkpt><trkpt lat="45.08485301412864" lon="7.483029852000426"><ele>331.6</ele><time>2026-04-18T07:44:13Z</time></trkpt><trkpt lat="45.08484884264036" lon="7.482879746160602"><ele>331.0</ele><time>2026-04-18T07:44:14Z</time></trkpt><trkpt lat="45.08486534391001" lon="7.482730523984159"><ele>330.8333333333333</ele><time>2026-04-18T07:44:15Z</time></trkpt><trkpt lat="45.08487481391725" lon="7.482599058217904"><ele>330.66666666666663</ele><time>2026-04-18T07:44:16Z</time></trkpt><trkpt lat="45.08489347284765" lon="7.482493610459095"><ele>330.5</ele><time>2026-04-18T07:44:17Z</time></trkpt><trkpt lat="45.08490226546275" lon="7.482379253358922"><ele>330.3333333333333</ele><time>2026-04-18T07:44:18Z</time></trkpt><trkpt lat="45.08491959334637" lon="7.482278496440149"><ele>330.1666666666667</ele><time>2026-04-18T07:44:19Z</time></trkpt><trkpt lat="45.084951183073784" lon="7.482176177977501"><ele>330.0</ele><time>2026-04-18T07:44:20Z</time></trkpt><trkpt lat="45.08498462321" lon="7.482064733396468"><ele>330.0</ele><time>2026-04-18T07:44:21Z</time></trkpt><trkpt lat="45.085013233222675" lon="7.481945811834226"><ele>330.0</ele><time>2026-04-18T07:44:22Z</time></trkpt><trkpt lat="45.08503310571147" lon="7.481817851599233"><ele>330.0</ele><time>2026-04-18T07:44:23Z</time></trkpt><trkpt lat="45.08500583096929" lon="7.481640246049865"><ele>330.0</ele><time>2026-04-18T07:44:24Z</time></trkpt><trkpt lat="45.0849326583083" lon="7.481411328762604"><ele>330.75</ele><time>2026-04-18T07:44:25Z</time></trkpt><trkpt lat="45.08488097507189" lon="7.481234682496897"><ele>331.5</ele><time>2026-04-18T07:44:26Z</time></trkpt><trkpt lat="45.084856767991994" lon="7.481036837179754"><ele>332.25</ele><time>2026-04-18T07:44:27Z</time></trkpt><trkpt lat="45.08484470881086" lon="7.4808212658991575"><ele>333.0</ele><time>2026-04-18T07:44:28Z</time></trkpt><trkpt lat="45.08482628391901" lon="7.4805807265379265"><ele>333.0</ele><time>2026-04-18T07:44:29Z</time></trkpt><trkpt lat="45.08481605391481" lon="7.48033971528091"><ele>333.0</ele><time>2026-04-18T07:44:30Z</time></trkpt><trkpt lat="45.08481520823773" lon="7.480075704761194"><ele>333.0</ele><time>2026-04-18T07:44:31Z</time></trkpt><trkpt lat="45.084819396180315" lon="7.479819220737477"><ele>333.3333333333333</ele><time>2026-04-18T07:44:32Z</time></trkpt><trkpt lat="45.08481714576516" lon="7.479557913650154"><ele>333.66666666666663</ele><time>2026-04-18T07:44:33Z</time></trkpt><trkpt lat="45.08481547547396" lon="7.479282589770218"><ele>334.0</ele><time>2026-04-18T07:44:34Z</time></trkpt><trkpt lat="45.08480231213136" lon="7.479007716106768"><ele>333.66666666666663</ele><time>2026-04-18T07:44:35Z</time></trkpt><trkpt lat="45.08477828107733" lon="7.478714414921764"><ele>333.3333333333333</ele><time>2026-04-18T07:44:36Z</time></trkpt><trkpt lat="45.084782616018344" lon="7.478425110552715"><ele>333.0</ele><time>2026-04-18T07:44:37Z</time></trkpt><trkpt lat="45.08477868223558" lon="7.478143828050768"><ele>332.6666666666667</ele><time>2026-04-18T07:44:38Z</time></trkpt><trkpt lat="45.08477815630684" lon="7.477831758541325"><ele>332.33333333333337</ele><time>2026-04-18T07:44:39Z</time></trkpt><trkpt lat="45.08478224666614" lon="7.4775401988014245"><ele>332.0</ele><time>2026-04-18T07:44:40Z</time></trkpt><trkpt lat="45.08478084866525" lon="7.477253947794247"><ele>332.33333333333337</ele><time>2026-04-18T07:44:41Z</time></trkpt><trkpt lat="45.08477054452711" lon="7.476960999369217"><ele>332.6666666666667</ele><time>2026-04-18T07:44:42Z</time></trkpt><trkpt lat="45.084742550919536" lon="7.476636053991721"><ele>333.0</ele><time>2026-04-18T07:44:43Z</time></trkpt><trkpt lat="45.08473965296388" lon="7.476275838369053"><ele>332.0</ele><time>2026-04-18T07:44:44Z</time></trkpt><trkpt lat="45.08474794307518" lon="7.475878322227301"><ele>331.0</ele><time>2026-04-18T07:44:45Z</time></trkpt><trkpt lat="45.084738164616844" lon="7.475484933778278"><ele>330.5</ele><time>2026-04-18T07:44:46Z</time></trkpt><trkpt lat="45.08471796965467" lon="7.475140700598222"><ele>330.0</ele><time>2026-04-18T07:44:47Z</time></trkpt><trkpt lat="45.08471014761496" lon="7.474827976021205"><ele>330.3333333333333</ele><time>2026-04-18T07:44:48Z</time></trkpt><trkpt lat="45.08469300097623" lon="7.474538916724547"><ele>330.66666666666663</ele><time>2026-04-18T07:44:49Z</time></trkpt><trkpt lat="45.084679270401715" lon="7.474280213996273"><ele>331.0</ele><time>2026-04-18T07:44:50Z</time></trkpt><trkpt lat="45.084647683923016" lon="7.474055390860081"><ele>331.0</ele><time>2026-04-18T07:44:51Z</time></trkpt><trkpt lat="45.08461497882972" lon="7.473832792793003"><ele>331.0</ele><time>2026-04-18T07:44:52Z</time></trkpt><trkpt lat="45.08462232014424" lon="7.473617506475282"><ele>331.0</ele><time>2026-04-18T07:44:53Z</time></trkpt><trkpt lat="45.084627485138284" lon="7.473413528402756"><ele>331.0</ele><time>2026-04-18T07:44:54Z</time></trkpt><trkpt lat="45.08462534392044" lon="7.473201272924605"><ele>331.0</ele><time>2026-04-18T07:44:55Z</time></trkpt><trkpt lat="45.08462914224135" lon="7.473026574373561"><ele>331.0</ele><time>2026-04-18T07:44:56Z</time></trkpt><trkpt lat="45.08460961480201" lon="7.472815108278174"><ele>331.0</ele><time>2026-04-18T07:44:57Z</time></trkpt><trkpt lat="45.084575767701686" lon="7.472609969872713"><ele>331.0</ele><time>2026-04-18T07:44:58Z</time></trkpt><trkpt lat="45.08453066595169" lon="7.47239744492867"><ele>331.0</ele><time>2026-04-18T07:44:59Z</time></trkpt><trkpt lat="45.08455667821324" lon="7.472217278490536"><ele>331.0</ele><time>2026-04-18T07:45:00Z</time></trkpt><trkpt lat="45.084552670073826" lon="7.472065772023429"><ele>331.0</ele><time>2026-04-18T07:45:01Z</time></trkpt><trkpt lat="45.08454850434803" lon="7.471910054098169"><ele>330.8</ele><time>2026-04-18T07:45:02Z</time></trkpt><trkpt lat="45.0845443138247" lon="7.471758004032148"><ele>330.6</ele><time>2026-04-18T07:45:03Z</time></trkpt><trkpt lat="45.08454000605595" lon="7.471601699901523"><ele>330.4</ele><time>2026-04-18T07:45:04Z</time></trkpt><trkpt lat="45.08452969300804" lon="7.471448538769543"><ele>330.2</ele><time>2026-04-18T07:45:05Z</time></trkpt><trkpt lat="45.084525373974046" lon="7.471291657351065"><ele>330.0</ele><time>2026-04-18T07:45:06Z</time></trkpt><trkpt lat="45.084526286093585" lon="7.4711317077250765"><ele>329.75</ele><time>2026-04-18T07:45:07Z</time></trkpt><trkpt lat="45.084529791197944" lon="7.470942599693332"><ele>329.5</ele><time>2026-04-18T07:45:08Z</time></trkpt><trkpt lat="45.08452369325655" lon="7.4707610481481685"><ele>329.25</ele><time>2026-04-18T07:45:08.999Z</time></trkpt><trkpt lat="45.08452555729514" lon="7.470576586179614"><ele>329.0</ele><time>2026-04-18T07:45:09.999Z</time></trkpt><trkpt lat="45.08453724583105" lon="7.470390708013091"><ele>328.75</ele><time>2026-04-18T07:45:10.999Z</time></trkpt><trkpt lat="45.08451537268969" lon="7.470181534945507"><ele>328.5</ele><time>2026-04-18T07:45:11.999Z</time></trkpt><trkpt lat="45.08452263763646" lon="7.469982142134593"><ele>328.25</ele><time>2026-04-18T07:45:12.999Z</time></trkpt><trkpt lat="45.084519683504325" lon="7.469774605411555"><ele>328.0</ele><time>2026-04-18T07:45:13.999Z</time></trkpt><trkpt lat="45.08452046825979" lon="7.4695488902663545"><ele>329.3333333333333</ele><time>2026-04-18T07:45:14.999Z</time></trkpt><trkpt lat="45.08452302203508" lon="7.469307260545845"><ele>330.6666666666667</ele><time>2026-04-18T07:45:15.999Z</time></trkpt><trkpt lat="45.08451638452002" lon="7.469039647440276"><ele>332.0</ele><time>2026-04-18T07:45:16.999Z</time></trkpt><trkpt lat="45.08451504787348" lon="7.468728230859835"><ele>332.0</ele><time>2026-04-18T07:45:17.999Z</time></trkpt><trkpt lat="45.08450171316467" lon="7.4684194558836445"><ele>332.0</ele><time>2026-04-18T07:45:18.999Z</time></trkpt><trkpt lat="45.084485871976774" lon="7.4680837780585625"><ele>332.0</ele><time>2026-04-18T07:45:19.999Z</time></trkpt><trkpt lat="45.08447227641446" lon="7.467750724825626"><ele>332.0</ele><time>2026-04-18T07:45:20.999Z</time></trkpt><trkpt lat="45.084494420957405" lon="7.467365313024277"><ele>331.5</ele><time>2026-04-18T07:45:21.999Z</time></trkpt><trkpt lat="45.084446635439214" lon="7.467037818462929"><ele>331.0</ele><time>2026-04-18T07:45:22.999Z</time></trkpt><trkpt lat="45.08443476546936" lon="7.46670664999792"><ele>331.0</ele><time>2026-04-18T07:45:23.999Z</time></trkpt><trkpt lat="45.08443202422283" lon="7.466394705418192"><ele>331.0</ele><time>2026-04-18T07:45:24.999Z</time></trkpt><trkpt lat="45.08443947664606" lon="7.4660745898943155"><ele>331.0</ele><time>2026-04-18T07:45:25.999Z</time></trkpt><trkpt lat="45.084426059252344" lon="7.465745158553088"><ele>331.66666666666663</ele><time>2026-04-18T07:45:26.999Z</time></trkpt><trkpt lat="45.084421740062446" lon="7.465444566624672"><ele>332.3333333333333</ele><time>2026-04-18T07:45:27.999Z</time></trkpt><trkpt lat="45.08440166598949" lon="7.465147813542479"><ele>333.0</ele><time>2026-04-18T07:45:28.999Z</time></trkpt><trkpt lat="45.08439528095391" lon="7.464858309202432"><ele>332.6666666666667</ele><time>2026-04-18T07:45:29.999Z</time></trkpt><trkpt lat="45.0843824564045" lon="7.4645668203809405"><ele>332.33333333333337</ele><time>2026-04-18T07:45:30.999Z</time></trkpt><trkpt lat="45.08437932847424" lon="7.464310349971019"><ele>332.0</ele><time>2026-04-18T07:45:31.999Z</time></trkpt><trkpt lat="45.084356977216714" lon="7.464074157719608"><ele>332.0</ele><time>2026-04-18T07:45:32.999Z</time></trkpt><trkpt lat="45.0843483631464" lon="7.463845155261192"><ele>332.0</ele><time>2026-04-18T07:45:33.999Z</time></trkpt><trkpt lat="45.084359087604554" lon="7.463643015650693"><ele>332.0</ele><time>2026-04-18T07:45:34.999Z</time></trkpt><trkpt lat="45.08436192982825" lon="7.463427467348278"><ele>331.5</ele><time>2026-04-18T07:45:35.999Z</time></trkpt><trkpt lat="45.084362188373746" lon="7.463226532985516"><ele>331.0</ele><time>2026-04-18T07:45:36.999Z</time></trkpt><trkpt lat="45.08440460267162" lon="7.463062711744104"><ele>330.5</ele><time>2026-04-18T07:45:38Z</time></trkpt><trkpt lat="45.084416685754114" lon="7.462878886282679"><ele>330.0</ele><time>2026-04-18T07:45:39Z</time></trkpt><trkpt lat="45.084454318805655" lon="7.462708430192155"><ele>329.75</ele><time>2026-04-18T07:45:40Z</time></trkpt><trkpt lat="45.08447178917061" lon="7.462549898254263"><ele>329.5</ele><time>2026-04-18T07:45:41Z</time></trkpt><trkpt lat="45.08445663021771" lon="7.462396887588564"><ele>329.25</ele><time>2026-04-18T07:45:42Z</time></trkpt><trkpt lat="45.084422363155554" lon="7.462242492759714"><ele>329.0</ele><time>2026-04-18T07:45:43Z</time></trkpt><trkpt lat="45.0843600705989" lon="7.462056434912109"><ele>328.6666666666667</ele><time>2026-04-18T07:45:44Z</time></trkpt><trkpt lat="45.084305941618396" lon="7.461862175365777"><ele>328.3333333333333</ele><time>2026-04-18T07:45:45Z</time></trkpt><trkpt lat="45.08428978612497" lon="7.4616611302421285"><ele>328.0</ele><time>2026-04-18T07:45:46Z</time></trkpt><trkpt lat="45.08427736114408" lon="7.4613934672702795"><ele>327.5</ele><time>2026-04-18T07:45:47Z</time></trkpt><trkpt lat="45.08427746495781" lon="7.461075029936306"><ele>327.0</ele><time>2026-04-18T07:45:48Z</time></trkpt><trkpt lat="45.08427690263739" lon="7.460741183166679"><ele>327.0</ele><time>2026-04-18T07:45:49Z</time></trkpt><trkpt lat="45.084282268576835" lon="7.460363368333285"><ele>327.0</ele><time>2026-04-18T07:45:50Z</time></trkpt><trkpt lat="45.084273089115754" lon="7.4599854031946675"><ele>327.0</ele><time>2026-04-18T07:45:51Z</time></trkpt><trkpt lat="45.084265139444355" lon="7.459621163188879"><ele>327.0</ele><time>2026-04-18T07:45:52Z</time></trkpt><trkpt lat="45.084250037070184" lon="7.4592358474214455"><ele>327.0</ele><time>2026-04-18T07:45:53Z</time></trkpt><trkpt lat="45.08424144466688" lon="7.45885912062417"><ele>327.0</ele><time>2026-04-18T07:45:54Z</time></trkpt><trkpt lat="45.08424020584946" lon="7.458478443216591"><ele>327.5</ele><time>2026-04-18T07:45:55Z</time></trkpt><trkpt lat="45.08422892013155" lon="7.458066132316454"><ele>328.0</ele><time>2026-04-18T07:45:56Z</time></trkpt><trkpt lat="45.08420634490177" lon="7.457618170019142"><ele>328.5</ele><time>2026-04-18T07:45:57Z</time></trkpt><trkpt lat="45.084195102467056" lon="7.457180813081864"><ele>329.0</ele><time>2026-04-18T07:45:58Z</time></trkpt><trkpt lat="45.08417774527377" lon="7.45672917326572"><ele>330.0</ele><time>2026-04-18T07:45:59Z</time></trkpt><trkpt lat="45.08417617752965" lon="7.456300486703754"><ele>331.0</ele><time>2026-04-18T07:46:00Z</time></trkpt><trkpt lat="45.08416813155814" lon="7.455880252307262"><ele>332.5</ele><time>2026-04-18T07:46:01Z</time></trkpt><trkpt lat="45.08416016459983" lon="7.4554772880091935"><ele>334.0</ele><time>2026-04-18T07:46:02Z</time></trkpt><trkpt lat="45.08414926328748" lon="7.455099305040992"><ele>334.0</ele><time>2026-04-18T07:46:03Z</time></trkpt><trkpt lat="45.08413605637299" lon="7.454709203871756"><ele>334.0</ele><time>2026-04-18T07:46:04Z</time></trkpt><trkpt lat="45.0841293798822" lon="7.45432570088893"><ele>333.5</ele><time>2026-04-18T07:46:05Z</time></trkpt><trkpt lat="45.084113118214205" lon="7.453967418371332"><ele>333.0</ele><time>2026-04-18T07:46:06Z</time></trkpt><trkpt lat="45.08410379577231" lon="7.453608525920563"><ele>333.5</ele><time>2026-04-18T07:46:07Z</time></trkpt><trkpt lat="45.08409785828452" lon="7.4532510685870985"><ele>334.0</ele><time>2026-04-18T07:46:08Z</time></trkpt><trkpt lat="45.08408571181368" lon="7.452895478261782"><ele>334.0</ele><time>2026-04-18T07:46:09Z</time></trkpt><trkpt lat="45.084068844816414" lon="7.452540596645691"><ele>334.0</ele><time>2026-04-18T07:46:10Z</time></trkpt><trkpt lat="45.084053046943424" lon="7.4521808820732085"><ele>334.0</ele><time>2026-04-18T07:46:11Z</time></trkpt><trkpt lat="45.084048947582616" lon="7.451813027783552"><ele>334.0</ele><time>2026-04-18T07:46:12Z</time></trkpt><trkpt lat="45.084052411142686" lon="7.451459219112234"><ele>334.0</ele><time>2026-04-18T07:46:13Z</time></trkpt><trkpt lat="45.08404913214802" lon="7.4511167832764285"><ele>334.0</ele><time>2026-04-18T07:46:14Z</time></trkpt><trkpt lat="45.08405340542718" lon="7.450808484344764"><ele>334.0</ele><time>2026-04-18T07:46:15Z</time></trkpt><trkpt lat="45.084073103880286" lon="7.4505166716471"><ele>334.0</ele><time>2026-04-18T07:46:16Z</time></trkpt><trkpt lat="45.084064725386575" lon="7.4502603896487525"><ele>334.0</ele><time>2026-04-18T07:46:17Z</time></trkpt><trkpt lat="45.0840609212047" lon="7.450005581061577"><ele>334.3333333333333</ele><time>2026-04-18T07:46:18Z</time></trkpt><trkpt lat="45.08404699999042" lon="7.449763245165223"><ele>334.6666666666667</ele><time>2026-04-18T07:46:19Z</time></trkpt><trkpt lat="45.0840398418586" lon="7.449536872044282"><ele>335.0</ele><time>2026-04-18T07:46:20Z</time></trkpt><trkpt lat="45.08402111864941" lon="7.449348846938758"><ele>335.25</ele><time>2026-04-18T07:46:21Z</time></trkpt><trkpt lat="45.08402837511332" lon="7.449163809797912"><ele>335.5</ele><time>2026-04-18T07:46:22Z</time></trkpt><trkpt lat="45.084052575750206" lon="7.449017453260917"><ele>335.75</ele><time>2026-04-18T07:46:23Z</time></trkpt><trkpt lat="45.084066485915194" lon="7.448869136772597"><ele>336.0</ele><time>2026-04-18T07:46:24Z</time></trkpt><trkpt lat="45.08408264339281" lon="7.448710783700703"><ele>336.5</ele><time>2026-04-18T07:46:25Z</time></trkpt><trkpt lat="45.0840915597697" lon="7.44856887005437"><ele>337.0</ele><time>2026-04-18T07:46:26Z</time></trkpt><trkpt lat="45.08407739928036" lon="7.448401950416312"><ele>337.5</ele><time>2026-04-18T07:46:27Z</time></trkpt><trkpt lat="45.084036074564395" lon="7.448185755135196"><ele>338.0</ele><time>2026-04-18T07:46:28Z</time></trkpt><trkpt lat="45.08399472347701" lon="7.4479714679390465"><ele>336.6666666666667</ele><time>2026-04-18T07:46:29Z</time></trkpt><trkpt lat="45.0839808387298" lon="7.447734435626188"><ele>335.3333333333333</ele><time>2026-04-18T07:46:30Z</time></trkpt><trkpt lat="45.08396096117603" lon="7.447399659483199"><ele>334.0</ele><time>2026-04-18T07:46:31Z</time></trkpt><trkpt lat="45.08391337933006" lon="7.447069341309852"><ele>333.5</ele><time>2026-04-18T07:46:32Z</time></trkpt><trkpt lat="45.083885066303125" lon="7.446754154282332"><ele>333.0</ele><time>2026-04-18T07:46:33Z</time></trkpt><trkpt lat="45.083873200243715" lon="7.446421058417198"><ele>333.5</ele><time>2026-04-18T07:46:34Z</time></trkpt><trkpt lat="45.08385448575867" lon="7.446033827582421"><ele>334.0</ele><time>2026-04-18T07:46:35Z</time></trkpt><trkpt lat="45.08383748196192" lon="7.445631225873994"><ele>333.5</ele><time>2026-04-18T07:46:36Z</time></trkpt><trkpt lat="45.08380726290575" lon="7.445206658747397"><ele>333.0</ele><time>2026-04-18T07:46:37Z</time></trkpt><trkpt lat="45.08378762578413" lon="7.444733518017834"><ele>332.5</ele><time>2026-04-18T07:46:38Z</time></trkpt><trkpt lat="45.08376497566064" lon="7.444262352275498"><ele>332.0</ele><time>2026-04-18T07:46:39Z</time></trkpt><trkpt lat="45.08374469615079" lon="7.443787266745614"><ele>333.0</ele><time>2026-04-18T07:46:40Z</time></trkpt><trkpt lat="45.0837310693935" lon="7.443311867401901"><ele>334.0</ele><time>2026-04-18T07:46:41Z</time></trkpt><trkpt lat="45.08371896594935" lon="7.44284580448687"><ele>334.5</ele><time>2026-04-18T07:46:42Z</time></trkpt><trkpt lat="45.08369288323945" lon="7.442397267899576"><ele>335.0</ele><time>2026-04-18T07:46:43Z</time></trkpt><trkpt lat="45.083677614135816" lon="7.441940111968002"><ele>335.0</ele><time>2026-04-18T07:46:44Z</time></trkpt><trkpt lat="45.08367092244532" lon="7.44150084084609"><ele>335.0</ele><time>2026-04-18T07:46:45Z</time></trkpt><trkpt lat="45.08365796668221" lon="7.441070270208051"><ele>335.0</ele><time>2026-04-18T07:46:46Z</time></trkpt><trkpt lat="45.083650563021195" lon="7.440652805825323"><ele>335.0</ele><time>2026-04-18T07:46:47Z</time></trkpt><trkpt lat="45.083643606361676" lon="7.440249829820002"><ele>335.5</ele><time>2026-04-18T07:46:48Z</time></trkpt><trkpt lat="45.083619481949626" lon="7.439854183424208"><ele>336.0</ele><time>2026-04-18T07:46:49Z</time></trkpt><trkpt lat="45.08361369801034" lon="7.439487267740333"><ele>336.0</ele><time>2026-04-18T07:46:50Z</time></trkpt><trkpt lat="45.08361942334741" lon="7.439121773667962"><ele>336.0</ele><time>2026-04-18T07:46:51Z</time></trkpt><trkpt lat="45.083619122123295" lon="7.4387638076937925"><ele>336.0</ele><time>2026-04-18T07:46:52Z</time></trkpt><trkpt lat="45.083603185124986" lon="7.438418620084335"><ele>336.0</ele><time>2026-04-18T07:46:53Z</time></trkpt><trkpt lat="45.08360988761807" lon="7.438110962085452"><ele>336.0</ele><time>2026-04-18T07:46:54Z</time></trkpt><trkpt lat="45.08359434898673" lon="7.437793824961017"><ele>336.0</ele><time>2026-04-18T07:46:55Z</time></trkpt><trkpt lat="45.0835766067981" lon="7.437490519688038"><ele>336.0</ele><time>2026-04-18T07:46:56Z</time></trkpt><trkpt lat="45.0835786013173" lon="7.437201678147524"><ele>336.3333333333333</ele><time>2026-04-18T07:46:57Z</time></trkpt><trkpt lat="45.08357337510301" lon="7.436921798112824"><ele>336.66666666666663</ele><time>2026-04-18T07:46:58Z</time></trkpt><trkpt lat="45.08357916071597" lon="7.4366868533013974"><ele>337.0</ele><time>2026-04-18T07:46:59Z</time></trkpt><trkpt lat="45.083575106875244" lon="7.436480545031168"><ele>337.0</ele><time>2026-04-18T07:47:00Z</time></trkpt><trkpt lat="45.08356625078929" lon="7.436314989342856"><ele>337.0</ele><time>2026-04-18T07:47:01Z</time></trkpt><trkpt lat="45.08356303659114" lon="7.436191102602918"><ele>337.0</ele><time>2026-04-18T07:47:02Z</time></trkpt><trkpt lat="45.08358056950302" lon="7.436060347638573"><ele>337.0</ele><time>2026-04-18T07:47:04.001Z</time></trkpt><trkpt lat="45.08356574926596" lon="7.435949699395719"><ele>337.0</ele><time>2026-04-18T07:47:07.001Z</time></trkpt><trkpt lat="45.08355293451987" lon="7.435823378169537"><ele>336.8</ele><time>2026-04-18T07:47:31Z</time></trkpt><trkpt lat="45.083547458605146" lon="7.435625304355172"><ele>336.6</ele><time>2026-04-18T07:47:33Z</time></trkpt><trkpt lat="45.08354932418733" lon="7.4355235008779985"><ele>336.40000000000003</ele><time>2026-04-18T07:47:34Z</time></trkpt><trkpt lat="45.08354919559175" lon="7.435397212064297"><ele>336.20000000000005</ele><time>2026-04-18T07:47:35Z</time></trkpt><trkpt lat="45.08354345757653" lon="7.43524919599515"><ele>336.0</ele><time>2026-04-18T07:47:36Z</time></trkpt><trkpt lat="45.08354207478874" lon="7.435124176453599"><ele>336.75</ele><time>2026-04-18T07:47:37Z</time></trkpt><trkpt lat="45.08354068889283" lon="7.434968969682873"><ele>337.5</ele><time>2026-04-18T07:47:38Z</time></trkpt><trkpt lat="45.083531411785835" lon="7.434810599261525"><ele>338.25</ele><time>2026-04-18T07:47:39Z</time></trkpt><trkpt lat="45.08351327500916" lon="7.434638983603416"><ele>339.0</ele><time>2026-04-18T07:47:40Z</time></trkpt><trkpt lat="45.08351931097279" lon="7.434464612109239"><ele>339.0</ele><time>2026-04-18T07:47:41Z</time></trkpt><trkpt lat="45.08351467534124" lon="7.434313569298778"><ele>339.0</ele><time>2026-04-18T07:47:42Z</time></trkpt><trkpt lat="45.083505534041215" lon="7.434154783759501"><ele>339.0</ele><time>2026-04-18T07:47:43Z</time></trkpt><trkpt lat="45.083504103479534" lon="7.434034823417991"><ele>339.0</ele><time>2026-04-18T07:47:44Z</time></trkpt><trkpt lat="45.083513932218096" lon="7.43388928742893"><ele>339.0</ele><time>2026-04-18T07:47:45Z</time></trkpt><trkpt lat="45.083492015075834" lon="7.433715248223181"><ele>338.75</ele><time>2026-04-18T07:47:46Z</time></trkpt><trkpt lat="45.08349453048494" lon="7.433540362209912"><ele>338.5</ele><time>2026-04-18T07:47:47Z</time></trkpt><trkpt lat="45.08348661923738" lon="7.433377137756096"><ele>338.25</ele><time>2026-04-18T07:47:48Z</time></trkpt><trkpt lat="45.08348899924743" lon="7.433233238040309"><ele>338.0</ele><time>2026-04-18T07:47:49Z</time></trkpt><trkpt lat="45.08348663777149" lon="7.433078153549825"><ele>338.25</ele><time>2026-04-18T07:47:50Z</time></trkpt><trkpt lat="45.0834928896204" lon="7.432913069287708"><ele>338.5</ele><time>2026-04-18T07:47:51Z</time></trkpt><trkpt lat="45.08348684001284" lon="7.432746699079334"><ele>338.75</ele><time>2026-04-18T07:47:52Z</time></trkpt><trkpt lat="45.08347668423626" lon="7.432577674757374"><ele>339.0</ele><time>2026-04-18T07:47:53Z</time></trkpt><trkpt lat="45.08344515940258" lon="7.432424202221561"><ele>339.0</ele><time>2026-04-18T07:47:54Z</time></trkpt><trkpt lat="45.08345439141979" lon="7.4322870063218005"><ele>339.0</ele><time>2026-04-18T07:47:55Z</time></trkpt><trkpt lat="45.0834440225116" lon="7.432160982320283"><ele>339.0</ele><time>2026-04-18T07:47:56Z</time></trkpt><trkpt lat="45.08344365277665" lon="7.432059015054982"><ele>339.0</ele><time>2026-04-18T07:47:57Z</time></trkpt><trkpt lat="45.08342591859798" lon="7.431952203921368"><ele>339.0</ele><time>2026-04-18T07:47:58Z</time></trkpt><trkpt lat="45.08340761087114" lon="7.431859022912257"><ele>339.0</ele><time>2026-04-18T07:48:00Z</time></trkpt><trkpt lat="45.083454244010575" lon="7.43192303341613"><ele>339.2</ele><time>2026-04-18T07:48:08.001Z</time></trkpt><trkpt lat="45.083506011122786" lon="7.431986968489465"><ele>339.4</ele><time>2026-04-18T07:48:14.001Z</time></trkpt><trkpt lat="45.08352960651362" lon="7.431874449693678"><ele>339.6</ele><time>2026-04-18T07:48:25.001Z</time></trkpt><trkpt lat="45.08354927913646" lon="7.431706122779306"><ele>339.8</ele><time>2026-04-18T07:48:27.001Z</time></trkpt><trkpt lat="45.08351011033013" lon="7.4316042102204785"><ele>340.0</ele><time>2026-04-18T07:48:28.001Z</time></trkpt><trkpt lat="45.08353611638934" lon="7.4314518259266915"><ele>339.75</ele><time>2026-04-18T07:48:29.001Z</time></trkpt><trkpt lat="45.083538670635875" lon="7.4313068583885125"><ele>339.5</ele><time>2026-04-18T07:48:30.001Z</time></trkpt><trkpt lat="45.083535136449946" lon="7.431137949135241"><ele>339.25</ele><time>2026-04-18T07:48:31.001Z</time></trkpt><trkpt lat="45.08351421651382" lon="7.430918329440395"><ele>339.0</ele><time>2026-04-18T07:48:32.001Z</time></trkpt><trkpt lat="45.08348700078309" lon="7.430727229727474"><ele>339.0</ele><time>2026-04-18T07:48:33.001Z</time></trkpt><trkpt lat="45.083494865148694" lon="7.43060648919448"><ele>339.0</ele><time>2026-04-18T07:48:34.001Z</time></trkpt><trkpt lat="45.083489721150436" lon="7.430499120591056"><ele>339.0</ele><time>2026-04-18T07:48:35.001Z</time></trkpt><trkpt lat="45.08348840523895" lon="7.430398447598454"><ele>339.0</ele><time>2026-04-18T07:48:36.001Z</time></trkpt><trkpt lat="45.083460445119606" lon="7.430304932251615"><ele>339.0</ele><time>2026-04-18T07:48:37.001Z</time></trkpt><trkpt lat="45.08342138221178" lon="7.430116755431252"><ele>339.0</ele><time>2026-04-18T07:48:38.001Z</time></trkpt><trkpt lat="45.0834207446627" lon="7.429923019776116"><ele>339.0</ele><time>2026-04-18T07:48:39.001Z</time></trkpt><trkpt lat="45.08342177901246" lon="7.429663025856802"><ele>339.0</ele><time>2026-04-18T07:48:40.001Z</time></trkpt><trkpt lat="45.083425339822526" lon="7.42944341601203"><ele>339.0</ele><time>2026-04-18T07:48:41.001Z</time></trkpt><trkpt lat="45.08342412808678" lon="7.429264083329792"><ele>339.0</ele><time>2026-04-18T07:48:42.001Z</time></trkpt><trkpt lat="45.08342762911394" lon="7.429074714753494"><ele>339.0</ele><time>2026-04-18T07:48:43.001Z</time></trkpt><trkpt lat="45.083409177514035" lon="7.428915075217817"><ele>339.0</ele><time>2026-04-18T07:48:44.001Z</time></trkpt><trkpt lat="45.083358414667984" lon="7.4288112564180055"><ele>339.0</ele><time>2026-04-18T07:48:45.001Z</time></trkpt><trkpt lat="45.08334909852341" lon="7.428695694215111"><ele>339.0</ele><time>2026-04-18T07:48:46.001Z</time></trkpt><trkpt lat="45.08334402788334" lon="7.42860403931659"><ele>339.0</ele><time>2026-04-18T07:48:47.001Z</time></trkpt><trkpt lat="45.08336212162503" lon="7.428513222079482"><ele>339.0</ele><time>2026-04-18T07:48:48.001Z</time></trkpt><trkpt lat="45.083386872992364" lon="7.428385605128571"><ele>339.0</ele><time>2026-04-18T07:48:49.001Z</time></trkpt><trkpt lat="45.08338244754255" lon="7.428250732502719"><ele>339.0</ele><time>2026-04-18T07:48:51.001Z</time></trkpt><trkpt lat="45.08337818200836" lon="7.428148756490171"><ele>339.0</ele><time>2026-04-18T07:48:53.001Z</time></trkpt><trkpt lat="45.083371968543254" lon="7.428008206386234"><ele>339.0</ele><time>2026-04-18T07:48:56.001Z</time></trkpt><trkpt lat="45.08338648202028" lon="7.427850569732018"><ele>339.2</ele><time>2026-04-18T07:48:58.001Z</time></trkpt><trkpt lat="45.08338293888101" lon="7.427715062356085"><ele>339.4</ele><time>2026-04-18T07:49:00.001Z</time></trkpt><trkpt lat="45.08338140000333" lon="7.42761912337368"><ele>339.6</ele><time>2026-04-18T07:49:02.001Z</time></trkpt><trkpt lat="45.083398169635366" lon="7.427477171982308"><ele>339.8</ele><time>2026-04-18T07:49:05.001Z</time></trkpt><trkpt lat="45.08339516025931" lon="7.427367017950646"><ele>340.0</ele><time>2026-04-18T07:49:06.001Z</time></trkpt><trkpt lat="45.08339085685147" lon="7.427210358288711"><ele>340.3333333333333</ele><time>2026-04-18T07:49:07.001Z</time></trkpt><trkpt lat="45.08338598645093" lon="7.427033058188263"><ele>340.6666666666667</ele><time>2026-04-18T07:49:08.001Z</time></trkpt><trkpt lat="45.083422463070846" lon="7.426734082834842"><ele>341.0</ele><time>2026-04-18T07:49:09.001Z</time></trkpt><trkpt lat="45.08340552373135" lon="7.426416776940319"><ele>341.5</ele><time>2026-04-18T07:49:10.001Z</time></trkpt><trkpt lat="45.08339689683515" lon="7.426080648419436"><ele>342.0</ele><time>2026-04-18T07:49:11.001Z</time></trkpt><trkpt lat="45.08338939028372" lon="7.425716495149334"><ele>341.0</ele><time>2026-04-18T07:49:12.001Z</time></trkpt><trkpt lat="45.08333891112738" lon="7.425326708477576"><ele>340.0</ele><time>2026-04-18T07:49:13.001Z</time></trkpt><trkpt lat="45.08332763332243" lon="7.424903597924043"><ele>340.0</ele><time>2026-04-18T07:49:14.001Z</time></trkpt><trkpt lat="45.08333154044578" lon="7.424452839063911"><ele>340.0</ele><time>2026-04-18T07:49:15.001Z</time></trkpt><trkpt lat="45.083316928482795" lon="7.423948516787353"><ele>340.0</ele><time>2026-04-18T07:49:16.001Z</time></trkpt><trkpt lat="45.08328995154954" lon="7.423529411563424"><ele>340.0</ele><time>2026-04-18T07:49:17.001Z</time></trkpt><trkpt lat="45.083281376998" lon="7.423120632578743"><ele>339.5</ele><time>2026-04-18T07:49:18.001Z</time></trkpt><trkpt lat="45.08327073729319" lon="7.422728927683611"><ele>339.0</ele><time>2026-04-18T07:49:19.001Z</time></trkpt><trkpt lat="45.08326559456391" lon="7.422361260993248"><ele>338.5</ele><time>2026-04-18T07:49:20.001Z</time></trkpt><trkpt lat="45.08325219497867" lon="7.421983582335371"><ele>338.0</ele><time>2026-04-18T07:49:21.001Z</time></trkpt><trkpt lat="45.08325220722616" lon="7.421626084774184"><ele>338.0</ele><time>2026-04-18T07:49:22.001Z</time></trkpt><trkpt lat="45.083209482054635" lon="7.4212788264637615"><ele>338.0</ele><time>2026-04-18T07:49:23.001Z</time></trkpt><trkpt lat="45.083185995992565" lon="7.420979417489326"><ele>338.0</ele><time>2026-04-18T07:49:24.001Z</time></trkpt><trkpt lat="45.08318493113165" lon="7.420711880825249"><ele>338.0</ele><time>2026-04-18T07:49:25.001Z</time></trkpt><trkpt lat="45.083203702138796" lon="7.4204833615009855"><ele>338.0</ele><time>2026-04-18T07:49:26.001Z</time></trkpt><trkpt lat="45.08317571751763" lon="7.420241605306129"><ele>337.79999999999995</ele><time>2026-04-18T07:49:27.001Z</time></trkpt><trkpt lat="45.083180154789524" lon="7.4200746010069265"><ele>337.6</ele><time>2026-04-18T07:49:28.001Z</time></trkpt><trkpt lat="45.083181865332286" lon="7.419934965578564"><ele>337.4</ele><time>2026-04-18T07:49:29.001Z</time></trkpt><trkpt lat="45.08321481742793" lon="7.419834109728232"><ele>337.20000000000005</ele><time>2026-04-18T07:49:30.001Z</time></trkpt><trkpt lat="45.083272773034686" lon="7.419680845364098"><ele>337.0</ele><time>2026-04-18T07:49:31.001Z</time></trkpt><trkpt lat="45.08336616206054" lon="7.419556134798717"><ele>337.5</ele><time>2026-04-18T07:49:32.001Z</time></trkpt><trkpt lat="45.083398955854555" lon="7.419412151770821"><ele>338.0</ele><time>2026-04-18T07:49:33.001Z</time></trkpt><trkpt lat="45.08339999873061" lon="7.419257091602374"><ele>338.5</ele><time>2026-04-18T07:49:34.001Z</time></trkpt><trkpt lat="45.08330346469403" lon="7.419044190673559"><ele>339.0</ele><time>2026-04-18T07:49:35.001Z</time></trkpt><trkpt lat="45.083192312744195" lon="7.418922872534635"><ele>339.5</ele><time>2026-04-18T07:49:36.001Z</time></trkpt><trkpt lat="45.08311112605098" lon="7.418777823152616"><ele>340.0</ele><time>2026-04-18T07:49:37.001Z</time></trkpt><trkpt lat="45.083063280826075" lon="7.418621969229234"><ele>340.5</ele><time>2026-04-18T07:49:38.001Z</time></trkpt><trkpt lat="45.08306589105848" lon="7.4184138027060635"><ele>341.0</ele><time>2026-04-18T07:49:39.001Z</time></trkpt><trkpt lat="45.08306020458726" lon="7.418178756950585"><ele>341.0</ele><time>2026-04-18T07:49:40.001Z</time></trkpt><trkpt lat="45.08305453232261" lon="7.417891572428002"><ele>341.0</ele><time>2026-04-18T07:49:41.001Z</time></trkpt><trkpt lat="45.08308150374348" lon="7.417567633126002"><ele>341.0</ele><time>2026-04-18T07:49:42.001Z</time></trkpt><trkpt lat="45.083146636189866" lon="7.4171554118835505"><ele>340.5</ele><time>2026-04-18T07:49:43.001Z</time></trkpt><trkpt lat="45.083237000911886" lon="7.4168327163724905"><ele>340.0</ele><time>2026-04-18T07:49:44.001Z</time></trkpt><trkpt lat="45.0833529689575" lon="7.416498015441663"><ele>340.0</ele><time>2026-04-18T07:49:45.001Z</time></trkpt><trkpt lat="45.08348638699528" lon="7.416142598029659"><ele>340.0</ele><time>2026-04-18T07:49:46.001Z</time></trkpt><trkpt lat="45.08361392454527" lon="7.415801956244753"><ele>340.0</ele><time>2026-04-18T07:49:47.001Z</time></trkpt><trkpt lat="45.08374482858548" lon="7.415458903423477"><ele>340.0</ele><time>2026-04-18T07:49:48.001Z</time></trkpt><trkpt lat="45.08387177818938" lon="7.415161445903835"><ele>340.0</ele><time>2026-04-18T07:49:49.001Z</time></trkpt><trkpt lat="45.083980510313985" lon="7.414889429744825"><ele>340.0</ele><time>2026-04-18T07:49:50.001Z</time></trkpt><trkpt lat="45.084075905573165" lon="7.414613384528835"><ele>340.0</ele><time>2026-04-18T07:49:51.001Z</time></trkpt><trkpt lat="45.08417603887805" lon="7.414359557911773"><ele>340.3333333333333</ele><time>2026-04-18T07:49:52.001Z</time></trkpt><trkpt lat="45.084248495266785" lon="7.414150544303296"><ele>340.6666666666667</ele><time>2026-04-18T07:49:53.001Z</time></trkpt><trkpt lat="45.08433379529218" lon="7.413936320305279"><ele>341.0</ele><time>2026-04-18T07:49:54.001Z</time></trkpt><trkpt lat="45.0844230085928" lon="7.41378581089713"><ele>341.0</ele><time>2026-04-18T07:49:55.001Z</time></trkpt><trkpt lat="45.08448039108255" lon="7.4136585112858775"><ele>341.0</ele><time>2026-04-18T07:49:56.001Z</time></trkpt><trkpt lat="45.08451815896442" lon="7.413526158973003"><ele>341.0</ele><time>2026-04-18T07:49:59.001Z</time></trkpt><trkpt lat="45.08454583027252" lon="7.413429426681151"><ele>341.0</ele><time>2026-04-18T07:50:01.001Z</time></trkpt><trkpt lat="45.08457774483905" lon="7.413308365061544"><ele>341.0</ele><time>2026-04-18T07:50:06.001Z</time></trkpt><trkpt lat="45.08462580610813" lon="7.413247183286614"><ele>341.0</ele><time>2026-04-18T07:50:09.001Z</time></trkpt><trkpt lat="45.08467956123341" lon="7.4131912938606055"><ele>341.0</ele><time>2026-04-18T07:50:12.001Z</time></trkpt><trkpt lat="45.08469892128308" lon="7.413104134891406"><ele>341.0</ele><time>2026-04-18T07:50:14.001Z</time></trkpt><trkpt lat="45.08474459339096" lon="7.413039024671452"><ele>341.0</ele><time>2026-04-18T07:50:18.001Z</time></trkpt><trkpt lat="45.08479375156286" lon="7.412971299165089"><ele>341.0</ele><time>2026-04-18T07:50:24.001Z</time></trkpt><trkpt lat="45.084897860586864" lon="7.412924363705728"><ele>341.0</ele><time>2026-04-18T07:50:26.001Z</time></trkpt><trkpt lat="45.08497673514216" lon="7.412882585261476"><ele>341.0</ele><time>2026-04-18T07:50:27.001Z</time></trkpt><trkpt lat="45.085065058940486" lon="7.412809151286384"><ele>340.8</ele><time>2026-04-18T07:50:28.001Z</time></trkpt><trkpt lat="45.085141746060735" lon="7.412685696882064"><ele>340.6</ele><time>2026-04-18T07:50:29.001Z</time></trkpt><trkpt lat="45.085209155885245" lon="7.412575724410498"><ele>340.4</ele><time>2026-04-18T07:50:30.001Z</time></trkpt><trkpt lat="45.0852333197064" lon="7.4124766438824095"><ele>340.2</ele><time>2026-04-18T07:50:31.001Z</time></trkpt><trkpt lat="45.08524827207505" lon="7.412332049767872"><ele>340.0</ele><time>2026-04-18T07:50:32.001Z</time></trkpt><trkpt lat="45.085259849246754" lon="7.4122029769545685"><ele>340.0</ele><time>2026-04-18T07:50:33.001Z</time></trkpt><trkpt lat="45.08523089490509" lon="7.412048111105204"><ele>340.0</ele><time>2026-04-18T07:50:34.001Z</time></trkpt><trkpt lat="45.085202293984615" lon="7.4118640731636685"><ele>340.0</ele><time>2026-04-18T07:50:35.001Z</time></trkpt><trkpt lat="45.085198276433545" lon="7.411668905463624"><ele>340.0</ele><time>2026-04-18T07:50:36.001Z</time></trkpt><trkpt lat="45.08522642847043" lon="7.411455840523075"><ele>339.66666666666663</ele><time>2026-04-18T07:50:37.001Z</time></trkpt><trkpt lat="45.08528871486071" lon="7.411219873571231"><ele>339.3333333333333</ele><time>2026-04-18T07:50:38.001Z</time></trkpt><trkpt lat="45.085366176216304" lon="7.410986975712887"><ele>339.0</ele><time>2026-04-18T07:50:39.001Z</time></trkpt><trkpt lat="45.08544821600071" lon="7.410742573893253"><ele>339.0</ele><time>2026-04-18T07:50:40.001Z</time></trkpt><trkpt lat="45.08551011504597" lon="7.410513234529916"><ele>339.0</ele><time>2026-04-18T07:50:41.001Z</time></trkpt><trkpt lat="45.0855781394965" lon="7.410289538964336"><ele>339.0</ele><time>2026-04-18T07:50:42.001Z</time></trkpt><trkpt lat="45.085639063572685" lon="7.410067375356804"><ele>339.0</ele><time>2026-04-18T07:50:43.001Z</time></trkpt><trkpt lat="45.085685670990415" lon="7.409870991299654"><ele>339.0</ele><time>2026-04-18T07:50:44.001Z</time></trkpt><trkpt lat="45.085731103317684" lon="7.409664852505088"><ele>339.0</ele><time>2026-04-18T07:50:45.001Z</time></trkpt><trkpt lat="45.085762583155706" lon="7.409471898978486"><ele>339.0</ele><time>2026-04-18T07:50:46.001Z</time></trkpt><trkpt lat="45.085807787851095" lon="7.409275981172339"><ele>339.0</ele><time>2026-04-18T07:50:47.001Z</time></trkpt><trkpt lat="45.08584113307972" lon="7.409092031030061"><ele>339.0</ele><time>2026-04-18T07:50:48.001Z</time></trkpt><trkpt lat="45.08588405640026" lon="7.408934184973875"><ele>339.0</ele><time>2026-04-18T07:50:49.001Z</time></trkpt><trkpt lat="45.08591459259689" lon="7.4087948080387545"><ele>339.0</ele><time>2026-04-18T07:50:50.001Z</time></trkpt><trkpt lat="45.08592814014389" lon="7.408707578801411"><ele>339.0</ele><time>2026-04-18T07:50:51.001Z</time></trkpt><trkpt lat="45.085943653691295" lon="7.408594346664636"><ele>339.3333333333333</ele><time>2026-04-18T07:50:52.001Z</time></trkpt><trkpt lat="45.085964924481495" lon="7.408507798343338"><ele>339.6666666666667</ele><time>2026-04-18T07:50:53.001Z</time></trkpt><trkpt lat="45.08598807120946" lon="7.408420674186113"><ele>340.0</ele><time>2026-04-18T07:50:55.001Z</time></trkpt><trkpt lat="45.08600613507227" lon="7.408325261604696"><ele>340.33333333333337</ele><time>2026-04-18T07:50:57.001Z</time></trkpt><trkpt lat="45.08603470383252" lon="7.408204569008851"><ele>340.6666666666667</ele><time>2026-04-18T07:50:59.001Z</time></trkpt><trkpt lat="45.086150686579664" lon="7.408082981148768"><ele>341.0</ele><time>2026-04-18T07:51:01.001Z</time></trkpt><trkpt lat="45.086211071126144" lon="7.407998808374839"><ele>341.0</ele><time>2026-04-18T07:51:02.001Z</time></trkpt><trkpt lat="45.08624599576036" lon="7.407885820412435"><ele>341.0</ele><time>2026-04-18T07:51:03.001Z</time></trkpt><trkpt lat="45.086254618971296" lon="7.407775393984591"><ele>341.0</ele><time>2026-04-18T07:51:04.001Z</time></trkpt><trkpt lat="45.086243825844676" lon="7.407634412286855"><ele>341.0</ele><time>2026-04-18T07:51:05.001Z</time></trkpt><trkpt lat="45.086233180980756" lon="7.4075016794211805"><ele>341.0</ele><time>2026-04-18T07:51:06.001Z</time></trkpt><trkpt lat="45.086219453822935" lon="7.4073529909574205"><ele>341.0</ele><time>2026-04-18T07:51:07.001Z</time></trkpt><trkpt lat="45.08620579650644" lon="7.407205736051077"><ele>341.0</ele><time>2026-04-18T07:51:08.001Z</time></trkpt><trkpt lat="45.08623324010453" lon="7.40702993565341"><ele>341.0</ele><time>2026-04-18T07:51:09.001Z</time></trkpt><trkpt lat="45.08626793189596" lon="7.406855568815233"><ele>341.0</ele><time>2026-04-18T07:51:10.001Z</time></trkpt><trkpt lat="45.08632922205891" lon="7.406665211866036"><ele>341.0</ele><time>2026-04-18T07:51:11.001Z</time></trkpt><trkpt lat="45.08637165727718" lon="7.406480710548236"><ele>341.0</ele><time>2026-04-18T07:51:12.001Z</time></trkpt><trkpt lat="45.08642708908787" lon="7.406306148039086"><ele>341.0</ele><time>2026-04-18T07:51:13.001Z</time></trkpt><trkpt lat="45.08646887485909" lon="7.406160405116678"><ele>341.0</ele><time>2026-04-18T07:51:14.001Z</time></trkpt><trkpt lat="45.086521096068616" lon="7.406008996799111"><ele>341.0</ele><time>2026-04-18T07:51:15.001Z</time></trkpt><trkpt lat="45.08657050929547" lon="7.405854258576489"><ele>341.0</ele><time>2026-04-18T07:51:16.001Z</time></trkpt><trkpt lat="45.0866273814021" lon="7.405697727825015"><ele>341.0</ele><time>2026-04-18T07:51:17.001Z</time></trkpt><trkpt lat="45.08667936080215" lon="7.405512195592772"><ele>341.0</ele><time>2026-04-18T07:51:18.001Z</time></trkpt><trkpt lat="45.086749791254576" lon="7.405325131469725"><ele>340.6666666666667</ele><time>2026-04-18T07:51:19.001Z</time></trkpt><trkpt lat="45.086817587465276" lon="7.405120265168707"><ele>340.3333333333333</ele><time>2026-04-18T07:51:20.001Z</time></trkpt><trkpt lat="45.086876368988136" lon="7.404876646693227"><ele>340.0</ele><time>2026-04-18T07:51:21.001Z</time></trkpt><trkpt lat="45.08694689076326" lon="7.404693181731281"><ele>340.25</ele><time>2026-04-18T07:51:22.001Z</time></trkpt><trkpt lat="45.087014636219486" lon="7.404512743495241"><ele>340.5</ele><time>2026-04-18T07:51:23.001Z</time></trkpt><trkpt lat="45.08707920480555" lon="7.40432148663079"><ele>340.75</ele><time>2026-04-18T07:51:24.001Z</time></trkpt><trkpt lat="45.087164634173035" lon="7.404152440238008"><ele>341.0</ele><time>2026-04-18T07:51:25.001Z</time></trkpt><trkpt lat="45.08722647428901" lon="7.403975776881365"><ele>341.0</ele><time>2026-04-18T07:51:26.001Z</time></trkpt><trkpt lat="45.0872926044517" lon="7.403811002748384"><ele>341.0</ele><time>2026-04-18T07:51:27.001Z</time></trkpt><trkpt lat="45.08736622180674" lon="7.403642644448978"><ele>341.0</ele><time>2026-04-18T07:51:28.001Z</time></trkpt><trkpt lat="45.087420424462024" lon="7.403489112912731"><ele>341.0</ele><time>2026-04-18T07:51:29.001Z</time></trkpt><trkpt lat="45.0874827076245" lon="7.403310280142095"><ele>341.0</ele><time>2026-04-18T07:51:30.001Z</time></trkpt><trkpt lat="45.08754455974911" lon="7.40312645035997"><ele>341.0</ele><time>2026-04-18T07:51:31.001Z</time></trkpt><trkpt lat="45.08760013621891" lon="7.402973438199122"><ele>341.0</ele><time>2026-04-18T07:51:32.001Z</time></trkpt><trkpt lat="45.087653585383855" lon="7.402822192838676"><ele>341.0</ele><time>2026-04-18T07:51:33.001Z</time></trkpt><trkpt lat="45.08768821876691" lon="7.402698299237389"><ele>341.0</ele><time>2026-04-18T07:51:34.001Z</time></trkpt><trkpt lat="45.08772167387832" lon="7.4025918836748135"><ele>341.0</ele><time>2026-04-18T07:51:35.001Z</time></trkpt><trkpt lat="45.08776136548569" lon="7.402508833913275"><ele>341.0</ele><time>2026-04-18T07:51:36.001Z</time></trkpt><trkpt lat="45.087817747188936" lon="7.402379188738055"><ele>341.0</ele><time>2026-04-18T07:51:38.001Z</time></trkpt><trkpt lat="45.08785563115778" lon="7.402297402599199"><ele>341.0</ele><time>2026-04-18T07:51:40.001Z</time></trkpt><trkpt lat="45.087917807992774" lon="7.402259472419997"><ele>341.0</ele><time>2026-04-18T07:51:46.001Z</time></trkpt><trkpt lat="45.087972146503965" lon="7.4021165287498"><ele>341.25</ele><time>2026-04-18T07:51:48.001Z</time></trkpt><trkpt lat="45.0879896763955" lon="7.402026804735064"><ele>341.5</ele><time>2026-04-18T07:51:49.001Z</time></trkpt><trkpt lat="45.08800038495021" lon="7.4018915710151125"><ele>341.75</ele><time>2026-04-18T07:51:50.001Z</time></trkpt><trkpt lat="45.08801931204213" lon="7.40170724247922"><ele>342.0</ele><time>2026-04-18T07:51:51.001Z</time></trkpt><trkpt lat="45.08811532973813" lon="7.401496784763681"><ele>342.3333333333333</ele><time>2026-04-18T07:51:52.001Z</time></trkpt><trkpt lat="45.08818630338194" lon="7.401245916715047"><ele>342.66666666666663</ele><time>2026-04-18T07:51:53.001Z</time></trkpt><trkpt lat="45.08827119664558" lon="7.400933727295864"><ele>343.0</ele><time>2026-04-18T07:51:54.001Z</time></trkpt><trkpt lat="45.088358734315975" lon="7.400571926957402"><ele>343.5</ele><time>2026-04-18T07:51:55.001Z</time></trkpt><trkpt lat="45.08845725352736" lon="7.400291969582308"><ele>344.0</ele><time>2026-04-18T07:51:56.001Z</time></trkpt><trkpt lat="45.08854062393378" lon="7.399979615930893"><ele>344.0</ele><time>2026-04-18T07:51:57.001Z</time></trkpt><trkpt lat="45.0885988483159" lon="7.399656145360818"><ele>344.0</ele><time>2026-04-18T07:51:58.001Z</time></trkpt><trkpt lat="45.08864235817665" lon="7.399331248124282"><ele>344.0</ele><time>2026-04-18T07:51:59.001Z</time></trkpt><trkpt lat="45.08864021375838" lon="7.3989590169912995"><ele>344.0</ele><time>2026-04-18T07:52:00.001Z</time></trkpt><trkpt lat="45.088638540138824" lon="7.398610282487102"><ele>344.5</ele><time>2026-04-18T07:52:01.001Z</time></trkpt><trkpt lat="45.08865984186126" lon="7.398265177951629"><ele>345.0</ele><time>2026-04-18T07:52:02.001Z</time></trkpt><trkpt lat="45.088680009253366" lon="7.39790851658287"><ele>345.0</ele><time>2026-04-18T07:52:03.001Z</time></trkpt><trkpt lat="45.08866480495304" lon="7.397519328036745"><ele>345.0</ele><time>2026-04-18T07:52:04.001Z</time></trkpt><trkpt lat="45.08867601363212" lon="7.397159489622699"><ele>344.0</ele><time>2026-04-18T07:52:05.001Z</time></trkpt><trkpt lat="45.08867773620916" lon="7.396809294952986"><ele>343.0</ele><time>2026-04-18T07:52:06.001Z</time></trkpt><trkpt lat="45.08868790322355" lon="7.396481298116756"><ele>343.0</ele><time>2026-04-18T07:52:07.001Z</time></trkpt><trkpt lat="45.08869792904121" lon="7.396160470449457"><ele>343.0</ele><time>2026-04-18T07:52:08.001Z</time></trkpt><trkpt lat="45.0887068359595" lon="7.395843661766189"><ele>343.0</ele><time>2026-04-18T07:52:09.001Z</time></trkpt><trkpt lat="45.088708165547274" lon="7.395529335560053"><ele>343.0</ele><time>2026-04-18T07:52:10.001Z</time></trkpt><trkpt lat="45.088744002548175" lon="7.395267027577263"><ele>343.0</ele><time>2026-04-18T07:52:11.001Z</time></trkpt><trkpt lat="45.088743894350756" lon="7.395001651374783"><ele>343.66666666666663</ele><time>2026-04-18T07:52:12.001Z</time></trkpt><trkpt lat="45.08872911472411" lon="7.394744718311466"><ele>344.3333333333333</ele><time>2026-04-18T07:52:13.001Z</time></trkpt><trkpt lat="45.08873938424243" lon="7.394493605353316"><ele>345.0</ele><time>2026-04-18T07:52:14.001Z</time></trkpt><trkpt lat="45.08874585832713" lon="7.394237863992411"><ele>345.0</ele><time>2026-04-18T07:52:15.001Z</time></trkpt><trkpt lat="45.08873890396885" lon="7.394003223294367"><ele>345.0</ele><time>2026-04-18T07:52:16.001Z</time></trkpt><trkpt lat="45.088722652120886" lon="7.3937525987571835"><ele>345.0</ele><time>2026-04-18T07:52:17.001Z</time></trkpt><trkpt lat="45.088719568839444" lon="7.393584412076847"><ele>345.0</ele><time>2026-04-18T07:52:18.001Z</time></trkpt><trkpt lat="45.08870021450022" lon="7.3934161723558445"><ele>345.0</ele><time>2026-04-18T07:52:19.001Z</time></trkpt><trkpt lat="45.08869053018048" lon="7.393279820047391"><ele>345.0</ele><time>2026-04-18T07:52:20.001Z</time></trkpt><trkpt lat="45.08870618081567" lon="7.393145225510112"><ele>345.0</ele><time>2026-04-18T07:52:21.001Z</time></trkpt><trkpt lat="45.08873057673619" lon="7.393001013220344"><ele>345.0</ele><time>2026-04-18T07:52:22.001Z</time></trkpt><trkpt lat="45.08871559739286" lon="7.392841862961438"><ele>345.0</ele><time>2026-04-18T07:52:23.001Z</time></trkpt><trkpt lat="45.08868364477279" lon="7.3926807074496494"><ele>345.0</ele><time>2026-04-18T07:52:24.001Z</time></trkpt><trkpt lat="45.08865287177621" lon="7.392534823171579"><ele>345.0</ele><time>2026-04-18T07:52:25.001Z</time></trkpt><trkpt lat="45.08865874461611" lon="7.3923969465568655"><ele>345.0</ele><time>2026-04-18T07:52:26.001Z</time></trkpt><trkpt lat="45.08871235558836" lon="7.392260757043201"><ele>345.0</ele><time>2026-04-18T07:52:27.001Z</time></trkpt><trkpt lat="45.08877711078303" lon="7.392104133099112"><ele>345.0</ele><time>2026-04-18T07:52:28.001Z</time></trkpt><trkpt lat="45.08884649526241" lon="7.3919583568228635"><ele>345.0</ele><time>2026-04-18T07:52:29.001Z</time></trkpt><trkpt lat="45.088919948040164" lon="7.391750706202397"><ele>345.0</ele><time>2026-04-18T07:52:30.001Z</time></trkpt><trkpt lat="45.08899643402098" lon="7.391548702886201"><ele>345.0</ele><time>2026-04-18T07:52:31.001Z</time></trkpt><trkpt lat="45.08908366622351" lon="7.391343899078843"><ele>345.0</ele><time>2026-04-18T07:52:32.001Z</time></trkpt><trkpt lat="45.08915748427616" lon="7.391141052237101"><ele>345.0</ele><time>2026-04-18T07:52:33.001Z</time></trkpt><trkpt lat="45.08927828612772" lon="7.390987221304272"><ele>345.0</ele><time>2026-04-18T07:52:34.001Z</time></trkpt><trkpt lat="45.089360607246014" lon="7.390795135304048"><ele>345.0</ele><time>2026-04-18T07:52:35.001Z</time></trkpt><trkpt lat="45.08945134496836" lon="7.39059734362685"><ele>345.0</ele><time>2026-04-18T07:52:36.001Z</time></trkpt><trkpt lat="45.089530178527305" lon="7.3904002748578606"><ele>345.0</ele><time>2026-04-18T07:52:37.001Z</time></trkpt><trkpt lat="45.0896115175982" lon="7.39020371576139"><ele>345.0</ele><time>2026-04-18T07:52:38.001Z</time></trkpt><trkpt lat="45.08970060569033" lon="7.390005442427914"><ele>345.0</ele><time>2026-04-18T07:52:39.001Z</time></trkpt><trkpt lat="45.08977401606678" lon="7.38978237573625"><ele>345.0</ele><time>2026-04-18T07:52:40.001Z</time></trkpt><trkpt lat="45.08987138249908" lon="7.389584719068696"><ele>345.0</ele><time>2026-04-18T07:52:41.001Z</time></trkpt><trkpt lat="45.08996161794842" lon="7.389363525902805"><ele>345.0</ele><time>2026-04-18T07:52:42.001Z</time></trkpt><trkpt lat="45.09005364826696" lon="7.389135715946722"><ele>345.0</ele><time>2026-04-18T07:52:43.001Z</time></trkpt><trkpt lat="45.09015188719119" lon="7.38890118027346"><ele>345.0</ele><time>2026-04-18T07:52:44.001Z</time></trkpt><trkpt lat="45.09023797255096" lon="7.388668614351488"><ele>345.0</ele><time>2026-04-18T07:52:45.001Z</time></trkpt><trkpt lat="45.09033228989916" lon="7.388436613650388"><ele>345.3333333333333</ele><time>2026-04-18T07:52:46.001Z</time></trkpt><trkpt lat="45.09043423816775" lon="7.388199170211682"><ele>345.66666666666663</ele><time>2026-04-18T07:52:47.001Z</time></trkpt><trkpt lat="45.09053572763371" lon="7.387952388414128"><ele>346.0</ele><time>2026-04-18T07:52:48.001Z</time></trkpt><trkpt lat="45.09061899885022" lon="7.387699801602772"><ele>346.0</ele><time>2026-04-18T07:52:49.001Z</time></trkpt><trkpt lat="45.09071492357377" lon="7.38747265082692"><ele>346.0</ele><time>2026-04-18T07:52:50.001Z</time></trkpt><trkpt lat="45.09080571552119" lon="7.387225343442269"><ele>346.0</ele><time>2026-04-18T07:52:51.001Z</time></trkpt><trkpt lat="45.09090008470124" lon="7.387006215088361"><ele>346.66666666666663</ele><time>2026-04-18T07:52:52.001Z</time></trkpt><trkpt lat="45.09097372473201" lon="7.386777224427146"><ele>347.3333333333333</ele><time>2026-04-18T07:52:53.001Z</time></trkpt><trkpt lat="45.091036874661484" lon="7.3865577393735204"><ele>348.0</ele><time>2026-04-18T07:52:54.001Z</time></trkpt><trkpt lat="45.09108828515571" lon="7.3863677410128"><ele>347.6666666666667</ele><time>2026-04-18T07:52:55.001Z</time></trkpt><trkpt lat="45.09115005290581" lon="7.386177032882503"><ele>347.33333333333337</ele><time>2026-04-18T07:52:56.001Z</time></trkpt><trkpt lat="45.09119584235646" lon="7.385974146293874"><ele>347.0</ele><time>2026-04-18T07:52:57.001Z</time></trkpt><trkpt lat="45.09118191512676" lon="7.385717545191513"><ele>346.33333333333337</ele><time>2026-04-18T07:52:58.001Z</time></trkpt><trkpt lat="45.09108724524806" lon="7.385418741509193"><ele>345.6666666666667</ele><time>2026-04-18T07:52:59.001Z</time></trkpt><trkpt lat="45.09104964525845" lon="7.3851914368487215"><ele>345.0</ele><time>2026-04-18T07:53:00.001Z</time></trkpt><trkpt lat="45.09099741167252" lon="7.384969580724541"><ele>345.0</ele><time>2026-04-18T07:53:01.001Z</time></trkpt><trkpt lat="45.09094906760207" lon="7.384768930591455"><ele>345.0</ele><time>2026-04-18T07:53:02.001Z</time></trkpt><trkpt lat="45.09092173372906" lon="7.384556896975459"><ele>345.0</ele><time>2026-04-18T07:53:03.001Z</time></trkpt><trkpt lat="45.09092175558023" lon="7.384330493530525"><ele>345.0</ele><time>2026-04-18T07:53:04.001Z</time></trkpt><trkpt lat="45.09096767544636" lon="7.384132382155327"><ele>345.0</ele><time>2026-04-18T07:53:05.001Z</time></trkpt><trkpt lat="45.09104184448187" lon="7.38392374694645"><ele>345.0</ele><time>2026-04-18T07:53:06.001Z</time></trkpt><trkpt lat="45.09110449335911" lon="7.383703906978882"><ele>345.0</ele><time>2026-04-18T07:53:07.001Z</time></trkpt><trkpt lat="45.09115939384597" lon="7.383484393620637"><ele>345.0</ele><time>2026-04-18T07:53:08.001Z</time></trkpt><trkpt lat="45.09123010835439" lon="7.3832840583232695"><ele>345.0</ele><time>2026-04-18T07:53:09.001Z</time></trkpt><trkpt lat="45.09129417690003" lon="7.383077963977781"><ele>345.25</ele><time>2026-04-18T07:53:10.001Z</time></trkpt><trkpt lat="45.091342798219564" lon="7.382903278935796"><ele>345.5</ele><time>2026-04-18T07:53:11.001Z</time></trkpt><trkpt lat="45.091400359138504" lon="7.382754496968589"><ele>345.75</ele><time>2026-04-18T07:53:12.001Z</time></trkpt><trkpt lat="45.09145304903635" lon="7.382624611748693"><ele>346.0</ele><time>2026-04-18T07:53:13.001Z</time></trkpt><trkpt lat="45.09149231605253" lon="7.382482316346449"><ele>346.0</ele><time>2026-04-18T07:53:14.001Z</time></trkpt><trkpt lat="45.091530446175156" lon="7.382344343058221"><ele>346.0</ele><time>2026-04-18T07:53:15.001Z</time></trkpt><trkpt lat="45.09157052551528" lon="7.382223838624974"><ele>346.0</ele><time>2026-04-18T07:53:16.001Z</time></trkpt><trkpt lat="45.09160366366879" lon="7.382119888061155"><ele>346.0</ele><time>2026-04-18T07:53:17.001Z</time></trkpt><trkpt lat="45.09161997630027" lon="7.382028616043834"><ele>346.0</ele><time>2026-04-18T07:53:18.001Z</time></trkpt><trkpt lat="45.09164043302231" lon="7.381923111841559"><ele>346.0</ele><time>2026-04-18T07:53:19.001Z</time></trkpt><trkpt lat="45.091673729478075" lon="7.38183830569402"><ele>346.20000000000005</ele><time>2026-04-18T07:53:20.001Z</time></trkpt><trkpt lat="45.091705951267215" lon="7.381744909429308"><ele>346.40000000000003</ele><time>2026-04-18T07:53:21.001Z</time></trkpt><trkpt lat="45.09174450416937" lon="7.381644745581231"><ele>346.6</ele><time>2026-04-18T07:53:22.001Z</time></trkpt><trkpt lat="45.09177472774638" lon="7.381513529648323"><ele>346.8</ele><time>2026-04-18T07:53:23.001Z</time></trkpt><trkpt lat="45.09182198579633" lon="7.381386039550168"><ele>347.0</ele><time>2026-04-18T07:53:24.001Z</time></trkpt><trkpt lat="45.09186378063358" lon="7.3812557895151745"><ele>347.5</ele><time>2026-04-18T07:53:25.001Z</time></trkpt><trkpt lat="45.09191177010595" lon="7.381116165005994"><ele>348.0</ele><time>2026-04-18T07:53:26.001Z</time></trkpt><trkpt lat="45.09195397173483" lon="7.380955092368986"><ele>348.5</ele><time>2026-04-18T07:53:27.001Z</time></trkpt><trkpt lat="45.09199682078574" lon="7.380798711305284"><ele>349.0</ele><time>2026-04-18T07:53:28.001Z</time></trkpt><trkpt lat="45.09203893903415" lon="7.380656917030441"><ele>348.75</ele><time>2026-04-18T07:53:29.001Z</time></trkpt><trkpt lat="45.092102610900824" lon="7.38050826178376"><ele>348.5</ele><time>2026-04-18T07:53:30.001Z</time></trkpt><trkpt lat="45.0921558701796" lon="7.380352870351306"><ele>348.25</ele><time>2026-04-18T07:53:31.001Z</time></trkpt><trkpt lat="45.09219995734181" lon="7.380197311315198"><ele>348.0</ele><time>2026-04-18T07:53:32.001Z</time></trkpt><trkpt lat="45.09223689497075" lon="7.380064024149435"><ele>348.0</ele><time>2026-04-18T07:53:33.001Z</time></trkpt><trkpt lat="45.09228113362642" lon="7.37992655692192"><ele>348.0</ele><time>2026-04-18T07:53:34.001Z</time></trkpt><trkpt lat="45.092319799796854" lon="7.379786962395605"><ele>348.0</ele><time>2026-04-18T07:53:35.001Z</time></trkpt><trkpt lat="45.09234319838446" lon="7.3796331349822335"><ele>348.0</ele><time>2026-04-18T07:53:36.001Z</time></trkpt><trkpt lat="45.09238823622075" lon="7.379504599117815"><ele>348.0</ele><time>2026-04-18T07:53:37.001Z</time></trkpt><trkpt lat="45.09242272749717" lon="7.3793467684513745"><ele>348.75</ele><time>2026-04-18T07:53:38.001Z</time></trkpt><trkpt lat="45.092466754675776" lon="7.379195221548604"><ele>349.5</ele><time>2026-04-18T07:53:39.001Z</time></trkpt><trkpt lat="45.092523532630935" lon="7.379030149305065"><ele>350.25</ele><time>2026-04-18T07:53:40.001Z</time></trkpt><trkpt lat="45.09257142601752" lon="7.378864757450802"><ele>351.0</ele><time>2026-04-18T07:53:41.001Z</time></trkpt><trkpt lat="45.09262160055092" lon="7.378695930842954"><ele>351.0</ele><time>2026-04-18T07:53:42.001Z</time></trkpt><trkpt lat="45.09266023178201" lon="7.378515403339557"><ele>351.0</ele><time>2026-04-18T07:53:43.001Z</time></trkpt><trkpt lat="45.09271543148384" lon="7.378347120612154"><ele>351.0</ele><time>2026-04-18T07:53:44.001Z</time></trkpt><trkpt lat="45.092779903541306" lon="7.378177659688645"><ele>351.0</ele><time>2026-04-18T07:53:45.001Z</time></trkpt><trkpt lat="45.09282261424757" lon="7.378005587394157"><ele>350.8</ele><time>2026-04-18T07:53:46.001Z</time></trkpt><trkpt lat="45.09286996760086" lon="7.377864527744406"><ele>350.6</ele><time>2026-04-18T07:53:47.001Z</time></trkpt><trkpt lat="45.09290138302718" lon="7.377722149101422"><ele>350.4</ele><time>2026-04-18T07:53:48Z</time></trkpt><trkpt lat="45.09293786347357" lon="7.377596956904887"><ele>350.2</ele><time>2026-04-18T07:53:49Z</time></trkpt><trkpt lat="45.09298236156336" lon="7.377468401990721"><ele>350.0</ele><time>2026-04-18T07:53:50Z</time></trkpt><trkpt lat="45.09302622704847" lon="7.377336954753658"><ele>350.0</ele><time>2026-04-18T07:53:51Z</time></trkpt><trkpt lat="45.0930780424003" lon="7.377211198522963"><ele>350.0</ele><time>2026-04-18T07:53:52Z</time></trkpt><trkpt lat="45.093124785102646" lon="7.377066747748406"><ele>350.0</ele><time>2026-04-18T07:53:53Z</time></trkpt><trkpt lat="45.09316914299876" lon="7.376903694416891"><ele>350.0</ele><time>2026-04-18T07:53:54Z</time></trkpt><trkpt lat="45.093214427804156" lon="7.376741809202226"><ele>349.75</ele><time>2026-04-18T07:53:55Z</time></trkpt><trkpt lat="45.09325836966613" lon="7.376594938216858"><ele>349.5</ele><time>2026-04-18T07:53:56Z</time></trkpt><trkpt lat="45.093302071596675" lon="7.3764506423946195"><ele>349.25</ele><time>2026-04-18T07:53:57Z</time></trkpt><trkpt lat="45.09334049636867" lon="7.376299288489937"><ele>349.0</ele><time>2026-04-18T07:53:58Z</time></trkpt><trkpt lat="45.09336950493079" lon="7.376103688230819"><ele>349.5</ele><time>2026-04-18T07:53:59Z</time></trkpt><trkpt lat="45.093417588861335" lon="7.3759425332541175"><ele>350.0</ele><time>2026-04-18T07:54:00Z</time></trkpt><trkpt lat="45.09346207219243" lon="7.37579344007956"><ele>350.5</ele><time>2026-04-18T07:54:01Z</time></trkpt><trkpt lat="45.0935039531582" lon="7.3756530690780435"><ele>351.0</ele><time>2026-04-18T07:54:02Z</time></trkpt><trkpt lat="45.09354736589044" lon="7.375507564248319"><ele>351.0</ele><time>2026-04-18T07:54:03Z</time></trkpt><trkpt lat="45.09359210130106" lon="7.375357627040642"><ele>351.0</ele><time>2026-04-18T07:54:04Z</time></trkpt><trkpt lat="45.09359191052042" lon="7.375177611360932"><ele>351.0</ele><time>2026-04-18T07:54:05Z</time></trkpt><trkpt lat="45.093649452306074" lon="7.375020074122286"><ele>351.0</ele><time>2026-04-18T07:54:06Z</time></trkpt><trkpt lat="45.093707192029505" lon="7.374865536572955"><ele>351.0</ele><time>2026-04-18T07:54:07Z</time></trkpt><trkpt lat="45.093764442741424" lon="7.374691206998342"><ele>351.0</ele><time>2026-04-18T07:54:08Z</time></trkpt><trkpt lat="45.09382698489793" lon="7.374510613491075"><ele>351.0</ele><time>2026-04-18T07:54:09Z</time></trkpt><trkpt lat="45.09389522077226" lon="7.3743289372362195"><ele>351.0</ele><time>2026-04-18T07:54:10Z</time></trkpt><trkpt lat="45.09394544888055" lon="7.37412623018305"><ele>350.75</ele><time>2026-04-18T07:54:11Z</time></trkpt><trkpt lat="45.09401394200994" lon="7.373944758547489"><ele>350.5</ele><time>2026-04-18T07:54:12Z</time></trkpt><trkpt lat="45.09406808468047" lon="7.373762996482416"><ele>350.25</ele><time>2026-04-18T07:54:12.999Z</time></trkpt><trkpt lat="45.09412729549047" lon="7.373563405370765"><ele>350.0</ele><time>2026-04-18T07:54:13.999Z</time></trkpt><trkpt lat="45.094168405164105" lon="7.373365150088595"><ele>350.5</ele><time>2026-04-18T07:54:14.999Z</time></trkpt><trkpt lat="45.09424252625085" lon="7.373164921258133"><ele>351.0</ele><time>2026-04-18T07:54:15.999Z</time></trkpt><trkpt lat="45.09430352600626" lon="7.372983705836915"><ele>351.5</ele><time>2026-04-18T07:54:16.999Z</time></trkpt><trkpt lat="45.094356063798024" lon="7.372811073520948"><ele>352.0</ele><time>2026-04-18T07:54:17.999Z</time></trkpt><trkpt lat="45.09438063366132" lon="7.3726905833984375"><ele>352.0</ele><time>2026-04-18T07:54:18.999Z</time></trkpt><trkpt lat="45.09442771630999" lon="7.372526838845977"><ele>352.0</ele><time>2026-04-18T07:54:19.999Z</time></trkpt><trkpt lat="45.094481873272876" lon="7.3723655900376155"><ele>352.0</ele><time>2026-04-18T07:54:20.999Z</time></trkpt><trkpt lat="45.09453378006702" lon="7.372213348331523"><ele>352.0</ele><time>2026-04-18T07:54:21.999Z</time></trkpt><trkpt lat="45.094579981133066" lon="7.372058617096549"><ele>352.0</ele><time>2026-04-18T07:54:22.999Z</time></trkpt><trkpt lat="45.09463850917067" lon="7.371912849176668"><ele>352.0</ele><time>2026-04-18T07:54:23.999Z</time></trkpt><trkpt lat="45.094691123710945" lon="7.371737837812913"><ele>352.0</ele><time>2026-04-18T07:54:24.999Z</time></trkpt><trkpt lat="45.094744769713344" lon="7.371593316795878"><ele>352.0</ele><time>2026-04-18T07:54:25.999Z</time></trkpt><trkpt lat="45.09478747234051" lon="7.371447599313321"><ele>352.0</ele><time>2026-04-18T07:54:26.999Z</time></trkpt><trkpt lat="45.09482809580274" lon="7.3712908590129915"><ele>352.0</ele><time>2026-04-18T07:54:27.999Z</time></trkpt><trkpt lat="45.09486935158623" lon="7.371149301861559"><ele>352.0</ele><time>2026-04-18T07:54:28.999Z</time></trkpt><trkpt lat="45.09491639585368" lon="7.371016204396988"><ele>352.0</ele><time>2026-04-18T07:54:29.999Z</time></trkpt><trkpt lat="45.094947893274615" lon="7.370900084676062"><ele>352.0</ele><time>2026-04-18T07:54:30.999Z</time></trkpt><trkpt lat="45.09498099158653" lon="7.370802334706041"><ele>352.20000000000005</ele><time>2026-04-18T07:54:31.999Z</time></trkpt><trkpt lat="45.09502145347197" lon="7.370628462335149"><ele>352.4</ele><time>2026-04-18T07:54:33.999Z</time></trkpt><trkpt lat="45.09505823732547" lon="7.3704984123185495"><ele>352.6</ele><time>2026-04-18T07:54:35.999Z</time></trkpt><trkpt lat="45.09504033370234" lon="7.370390530801011"><ele>352.79999999999995</ele><time>2026-04-18T07:54:37.999Z</time></trkpt><trkpt lat="45.09509425660497" lon="7.370318082488326"><ele>353.0</ele><time>2026-04-18T07:54:49.999Z</time></trkpt><trkpt lat="45.09513805009487" lon="7.370170267395572"><ele>353.25</ele><time>2026-04-18T07:55:07.999Z</time></trkpt><trkpt lat="45.095174101949965" lon="7.370047393792828"><ele>353.5</ele><time>2026-04-18T07:55:08.999Z</time></trkpt><trkpt lat="45.095215250103074" lon="7.369906698123819"><ele>353.75</ele><time>2026-04-18T07:55:09.999Z</time></trkpt><trkpt lat="45.09526368243278" lon="7.369741095761797"><ele>354.0</ele><time>2026-04-18T07:55:10.999Z</time></trkpt><trkpt lat="45.09532088360525" lon="7.36954551081068"><ele>354.0</ele><time>2026-04-18T07:55:11.999Z</time></trkpt><trkpt lat="45.09537285668851" lon="7.369366884796137"><ele>354.0</ele><time>2026-04-18T07:55:12.999Z</time></trkpt><trkpt lat="45.09543790619405" lon="7.369165247369483"><ele>354.0</ele><time>2026-04-18T07:55:13.999Z</time></trkpt><trkpt lat="45.09549941245875" lon="7.368966631667769"><ele>354.0</ele><time>2026-04-18T07:55:14.999Z</time></trkpt><trkpt lat="45.09555904369367" lon="7.368780471323451"><ele>354.0</ele><time>2026-04-18T07:55:15.999Z</time></trkpt><trkpt lat="45.095610464521364" lon="7.36859403279826"><ele>354.0</ele><time>2026-04-18T07:55:16.999Z</time></trkpt><trkpt lat="45.09568823223035" lon="7.368431588063189"><ele>354.0</ele><time>2026-04-18T07:55:17.999Z</time></trkpt><trkpt lat="45.095774837490005" lon="7.368259952252604"><ele>354.0</ele><time>2026-04-18T07:55:18.999Z</time></trkpt><trkpt lat="45.09586019604854" lon="7.368108437994432"><ele>354.0</ele><time>2026-04-18T07:55:19.999Z</time></trkpt><trkpt lat="45.09596067305594" lon="7.367951663048195"><ele>354.0</ele><time>2026-04-18T07:55:20.999Z</time></trkpt><trkpt lat="45.09606863973031" lon="7.367787441160533"><ele>354.0</ele><time>2026-04-18T07:55:21.999Z</time></trkpt><trkpt lat="45.09619374903938" lon="7.367647490999961"><ele>354.0</ele><time>2026-04-18T07:55:22.999Z</time></trkpt><trkpt lat="45.0963361851433" lon="7.367513470798018"><ele>354.0</ele><time>2026-04-18T07:55:23.999Z</time></trkpt><trkpt lat="45.096485901078516" lon="7.367381354046857"><ele>354.0</ele><time>2026-04-18T07:55:24.999Z</time></trkpt><trkpt lat="45.096625766663486" lon="7.367245680431332"><ele>354.0</ele><time>2026-04-18T07:55:25.999Z</time></trkpt><trkpt lat="45.09676671191003" lon="7.367136753806161"><ele>354.0</ele><time>2026-04-18T07:55:26.999Z</time></trkpt><trkpt lat="45.096918002275544" lon="7.367018443741944"><ele>354.0</ele><time>2026-04-18T07:55:27.999Z</time></trkpt><trkpt lat="45.097045735542125" lon="7.366910872176474"><ele>354.0</ele><time>2026-04-18T07:55:28.999Z</time></trkpt><trkpt lat="45.097189307353155" lon="7.366796681423011"><ele>354.0</ele><time>2026-04-18T07:55:29.999Z</time></trkpt><trkpt lat="45.097326499630434" lon="7.366691387073974"><ele>354.0</ele><time>2026-04-18T07:55:30.999Z</time></trkpt><trkpt lat="45.09746514660578" lon="7.366590798642395"><ele>353.6666666666667</ele><time>2026-04-18T07:55:31.999Z</time></trkpt><trkpt lat="45.09759976794965" lon="7.366465585199654"><ele>353.33333333333337</ele><time>2026-04-18T07:55:32.999Z</time></trkpt><trkpt lat="45.097713925208886" lon="7.366371623490433"><ele>353.0</ele><time>2026-04-18T07:55:33.999Z</time></trkpt><trkpt lat="45.09786228141545" lon="7.366255181614435"><ele>353.0</ele><time>2026-04-18T07:55:34.999Z</time></trkpt><trkpt lat="45.09799214614987" lon="7.366138326207178"><ele>353.0</ele><time>2026-04-18T07:55:35.999Z</time></trkpt><trkpt lat="45.09812103186801" lon="7.366021285055981"><ele>353.0</ele><time>2026-04-18T07:55:36.999Z</time></trkpt><trkpt lat="45.098254055735644" lon="7.365913831599848"><ele>353.0</ele><time>2026-04-18T07:55:37.999Z</time></trkpt><trkpt lat="45.09838440078677" lon="7.365794152725718"><ele>353.0</ele><time>2026-04-18T07:55:38.999Z</time></trkpt><trkpt lat="45.09852527104342" lon="7.3656901105410375"><ele>353.0</ele><time>2026-04-18T07:55:40Z</time></trkpt><trkpt lat="45.098654128586574" lon="7.365564581559095"><ele>353.0</ele><time>2026-04-18T07:55:41Z</time></trkpt><trkpt lat="45.098786977680554" lon="7.365436783411565"><ele>353.0</ele><time>2026-04-18T07:55:42Z</time></trkpt><trkpt lat="45.09890868626024" lon="7.36530479167305"><ele>353.0</ele><time>2026-04-18T07:55:43Z</time></trkpt><trkpt lat="45.09901481846495" lon="7.365179420667627"><ele>353.0</ele><time>2026-04-18T07:55:44Z</time></trkpt><trkpt lat="45.09913540130957" lon="7.365040964696482"><ele>353.0</ele><time>2026-04-18T07:55:45Z</time></trkpt><trkpt lat="45.09923580949799" lon="7.364858746390538"><ele>353.0</ele><time>2026-04-18T07:55:46Z</time></trkpt><trkpt lat="45.09932652499537" lon="7.36467268376337"><ele>353.6666666666667</ele><time>2026-04-18T07:55:47Z</time></trkpt><trkpt lat="45.099394077645904" lon="7.3644712422870136"><ele>354.3333333333333</ele><time>2026-04-18T07:55:48Z</time></trkpt><trkpt lat="45.09945358677382" lon="7.364279478058425"><ele>355.0</ele><time>2026-04-18T07:55:49Z</time></trkpt><trkpt lat="45.09952637810795" lon="7.364064241594853"><ele>354.66666666666663</ele><time>2026-04-18T07:55:50Z</time></trkpt><trkpt lat="45.09959487441495" lon="7.3638382875979165"><ele>354.3333333333333</ele><time>2026-04-18T07:55:51Z</time></trkpt><trkpt lat="45.099667138347975" lon="7.363608482030574"><ele>354.0</ele><time>2026-04-18T07:55:52Z</time></trkpt><trkpt lat="45.099733678400796" lon="7.3633819165412575"><ele>354.0</ele><time>2026-04-18T07:55:53Z</time></trkpt><trkpt lat="45.099803264582924" lon="7.363161558698209"><ele>354.0</ele><time>2026-04-18T07:55:54Z</time></trkpt><trkpt lat="45.099861148377784" lon="7.36295555053037"><ele>354.0</ele><time>2026-04-18T07:55:55Z</time></trkpt><trkpt lat="45.09992509578962" lon="7.362735732488722"><ele>354.6666666666667</ele><time>2026-04-18T07:55:56Z</time></trkpt><trkpt lat="45.099978503622" lon="7.362536413611335"><ele>355.33333333333337</ele><time>2026-04-18T07:55:57Z</time></trkpt><trkpt lat="45.10003659905083" lon="7.3623112434248075"><ele>356.0</ele><time>2026-04-18T07:55:58Z</time></trkpt><trkpt lat="45.10009474527755" lon="7.36210969847111"><ele>356.0</ele><time>2026-04-18T07:55:59Z</time></trkpt><trkpt lat="45.10015060461248" lon="7.361909042684354"><ele>356.0</ele><time>2026-04-18T07:56:00Z</time></trkpt><trkpt lat="45.10020636137472" lon="7.361710744593981"><ele>356.0</ele><time>2026-04-18T07:56:01Z</time></trkpt><trkpt lat="45.10025789911752" lon="7.361523457399594"><ele>356.0</ele><time>2026-04-18T07:56:02Z</time></trkpt><trkpt lat="45.100307509263516" lon="7.361365875422477"><ele>356.0</ele><time>2026-04-18T07:56:03Z</time></trkpt><trkpt lat="45.10035745827739" lon="7.361218339962738"><ele>356.0</ele><time>2026-04-18T07:56:04Z</time></trkpt><trkpt lat="45.10040698034094" lon="7.361075903963766"><ele>356.0</ele><time>2026-04-18T07:56:05Z</time></trkpt><trkpt lat="45.10044076199422" lon="7.360942911456461"><ele>356.0</ele><time>2026-04-18T07:56:06Z</time></trkpt><trkpt lat="45.100481411640004" lon="7.360859253239243"><ele>356.0</ele><time>2026-04-18T07:56:07Z</time></trkpt><trkpt lat="45.10051858340322" lon="7.360738491167215"><ele>356.4</ele><time>2026-04-18T07:56:09Z</time></trkpt><trkpt lat="45.100589993353005" lon="7.3604892592329225"><ele>356.8</ele><time>2026-04-18T07:56:31Z</time></trkpt><trkpt lat="45.10062676182536" lon="7.3604043809777036"><ele>357.2</ele><time>2026-04-18T07:56:32Z</time></trkpt><trkpt lat="45.100619325648395" lon="7.36026449326882"><ele>357.59999999999997</ele><time>2026-04-18T07:56:33Z</time></trkpt><trkpt lat="45.10067034361642" lon="7.360160885625373"><ele>358.0</ele><time>2026-04-18T07:56:34Z</time></trkpt><trkpt lat="45.100712374860855" lon="7.360038677848841"><ele>358.0</ele><time>2026-04-18T07:56:35Z</time></trkpt><trkpt lat="45.10079178073425" lon="7.359951300956117"><ele>358.0</ele><time>2026-04-18T07:56:36Z</time></trkpt><trkpt lat="45.100874170175025" lon="7.359847268776314"><ele>358.0</ele><time>2026-04-18T07:56:37Z</time></trkpt><trkpt lat="45.10096681148654" lon="7.359730059154475"><ele>358.0</ele><time>2026-04-18T07:56:38Z</time></trkpt><trkpt lat="45.10107894197964" lon="7.359629010079489"><ele>358.0</ele><time>2026-04-18T07:56:39Z</time></trkpt><trkpt lat="45.10116487807597" lon="7.359489491063229"><ele>358.0</ele><time>2026-04-18T07:56:40Z</time></trkpt><trkpt lat="45.10125292530795" lon="7.359357591813744"><ele>358.0</ele><time>2026-04-18T07:56:41Z</time></trkpt><trkpt lat="45.10135391867207" lon="7.359223135219099"><ele>358.0</ele><time>2026-04-18T07:56:42Z</time></trkpt><trkpt lat="45.10145064339407" lon="7.359102331941866"><ele>358.0</ele><time>2026-04-18T07:56:43Z</time></trkpt><trkpt lat="45.10156808470507" lon="7.359002997107712"><ele>358.0</ele><time>2026-04-18T07:56:44Z</time></trkpt><trkpt lat="45.101645330661626" lon="7.35884238668944"><ele>358.0</ele><time>2026-04-18T07:56:45Z</time></trkpt><trkpt lat="45.10173398726315" lon="7.358692916109261"><ele>358.0</ele><time>2026-04-18T07:56:46Z</time></trkpt><trkpt lat="45.10182801388009" lon="7.358531302968678"><ele>357.66666666666663</ele><time>2026-04-18T07:56:47Z</time></trkpt><trkpt lat="45.10190550215374" lon="7.35834204912943"><ele>357.3333333333333</ele><time>2026-04-18T07:56:48Z</time></trkpt><trkpt lat="45.10198904954098" lon="7.358149660269444"><ele>357.0</ele><time>2026-04-18T07:56:49Z</time></trkpt><trkpt lat="45.10206860494501" lon="7.357941304171758"><ele>357.0</ele><time>2026-04-18T07:56:50Z</time></trkpt><trkpt lat="45.10214572446273" lon="7.357719100291678"><ele>357.0</ele><time>2026-04-18T07:56:51Z</time></trkpt><trkpt lat="45.10220994550049" lon="7.357475826065586"><ele>357.0</ele><time>2026-04-18T07:56:52Z</time></trkpt><trkpt lat="45.10225874248716" lon="7.357217212749492"><ele>357.0</ele><time>2026-04-18T07:56:53Z</time></trkpt><trkpt lat="45.102316626996384" lon="7.356995979134259"><ele>357.0</ele><time>2026-04-18T07:56:54Z</time></trkpt><trkpt lat="45.102373620019435" lon="7.3567942969904925"><ele>357.0</ele><time>2026-04-18T07:56:55Z</time></trkpt><trkpt lat="45.10243288017693" lon="7.356604914769367"><ele>357.0</ele><time>2026-04-18T07:56:56Z</time></trkpt><trkpt lat="45.10248044411975" lon="7.356422251214424"><ele>357.0</ele><time>2026-04-18T07:56:57Z</time></trkpt><trkpt lat="45.102538836580685" lon="7.356246677445557"><ele>357.0</ele><time>2026-04-18T07:56:58Z</time></trkpt><trkpt lat="45.102600209262015" lon="7.3560451420084"><ele>357.0</ele><time>2026-04-18T07:56:59Z</time></trkpt><trkpt lat="45.102672388371175" lon="7.355819149315932"><ele>357.3333333333333</ele><time>2026-04-18T07:57:00Z</time></trkpt><trkpt lat="45.10275379689627" lon="7.355587156913745"><ele>357.66666666666663</ele><time>2026-04-18T07:57:01Z</time></trkpt><trkpt lat="45.10281508731424" lon="7.3553276616058545"><ele>358.0</ele><time>2026-04-18T07:57:02Z</time></trkpt><trkpt lat="45.10287642482068" lon="7.355045064034962"><ele>358.0</ele><time>2026-04-18T07:57:03Z</time></trkpt><trkpt lat="45.10294683606186" lon="7.354777326868744"><ele>358.0</ele><time>2026-04-18T07:57:04Z</time></trkpt><trkpt lat="45.10301796948573" lon="7.354487041566745"><ele>358.0</ele><time>2026-04-18T07:57:05Z</time></trkpt><trkpt lat="45.103093906889434" lon="7.354185573791108"><ele>358.0</ele><time>2026-04-18T07:57:06Z</time></trkpt><trkpt lat="45.10318510422487" lon="7.353879806615825"><ele>358.0</ele><time>2026-04-18T07:57:07Z</time></trkpt><trkpt lat="45.103267589743226" lon="7.353566550248073"><ele>358.0</ele><time>2026-04-18T07:57:08Z</time></trkpt><trkpt lat="45.10335957382595" lon="7.353277240563831"><ele>358.0</ele><time>2026-04-18T07:57:09Z</time></trkpt><trkpt lat="45.103446389264235" lon="7.352984767404158"><ele>358.0</ele><time>2026-04-18T07:57:10Z</time></trkpt><trkpt lat="45.103529428531765" lon="7.352692316523821"><ele>358.0</ele><time>2026-04-18T07:57:11Z</time></trkpt><trkpt lat="45.103607898493415" lon="7.352399412718213"><ele>358.0</ele><time>2026-04-18T07:57:12Z</time></trkpt><trkpt lat="45.1036939358908" lon="7.352116348225123"><ele>358.0</ele><time>2026-04-18T07:57:13Z</time></trkpt><trkpt lat="45.10377686959112" lon="7.351832550389691"><ele>358.0</ele><time>2026-04-18T07:57:14Z</time></trkpt><trkpt lat="45.10385678377091" lon="7.351552168842542"><ele>358.0</ele><time>2026-04-18T07:57:15Z</time></trkpt><trkpt lat="45.10392817333101" lon="7.351282072094379"><ele>358.0</ele><time>2026-04-18T07:57:16Z</time></trkpt><trkpt lat="45.103994308311954" lon="7.351028445761659"><ele>358.0</ele><time>2026-04-18T07:57:17Z</time></trkpt><trkpt lat="45.104054048679785" lon="7.350812676827821"><ele>358.0</ele><time>2026-04-18T07:57:18Z</time></trkpt><trkpt lat="45.104110183333574" lon="7.3506221178369175"><ele>358.0</ele><time>2026-04-18T07:57:19Z</time></trkpt><trkpt lat="45.10416047695244" lon="7.350470290837101"><ele>358.0</ele><time>2026-04-18T07:57:20Z</time></trkpt><trkpt lat="45.10419485004658" lon="7.350329447800809"><ele>358.79999999999995</ele><time>2026-04-18T07:57:21Z</time></trkpt><trkpt lat="45.10425215566546" lon="7.350190829804356"><ele>359.6</ele><time>2026-04-18T07:57:22Z</time></trkpt><trkpt lat="45.10432230420052" lon="7.350086055754945"><ele>360.4</ele><time>2026-04-18T07:57:23Z</time></trkpt><trkpt lat="45.10440549983407" lon="7.35001432470083"><ele>361.20000000000005</ele><time>2026-04-18T07:57:24Z</time></trkpt><trkpt lat="45.10445646260245" lon="7.3499134476397066"><ele>362.0</ele><time>2026-04-18T07:57:25Z</time></trkpt><trkpt lat="45.104492389516025" lon="7.3498008437483255"><ele>362.0</ele><time>2026-04-18T07:57:26Z</time></trkpt><trkpt lat="45.104463874413725" lon="7.349704156470682"><ele>362.0</ele><time>2026-04-18T07:57:27Z</time></trkpt><trkpt lat="45.10442895315371" lon="7.349598194346937"><ele>362.0</ele><time>2026-04-18T07:57:28Z</time></trkpt><trkpt lat="45.104425890532646" lon="7.349394468665891"><ele>362.0</ele><time>2026-04-18T07:57:29Z</time></trkpt><trkpt lat="45.104428244441515" lon="7.3492137583151935"><ele>362.0</ele><time>2026-04-18T07:57:30Z</time></trkpt><trkpt lat="45.10447954372736" lon="7.349026128363379"><ele>361.6666666666667</ele><time>2026-04-18T07:57:31Z</time></trkpt><trkpt lat="45.10451130483827" lon="7.348791686124048"><ele>361.3333333333333</ele><time>2026-04-18T07:57:32Z</time></trkpt><trkpt lat="45.104544760514514" lon="7.348534718384824"><ele>361.0</ele><time>2026-04-18T07:57:33Z</time></trkpt><trkpt lat="45.10456927609199" lon="7.348275330803757"><ele>361.3333333333333</ele><time>2026-04-18T07:57:34Z</time></trkpt><trkpt lat="45.10459056035722" lon="7.347998805900809"><ele>361.6666666666667</ele><time>2026-04-18T07:57:35Z</time></trkpt><trkpt lat="45.10460515169551" lon="7.347699053715188"><ele>362.0</ele><time>2026-04-18T07:57:36Z</time></trkpt><trkpt lat="45.104626940217976" lon="7.347372237182013"><ele>362.5</ele><time>2026-04-18T07:57:37Z</time></trkpt><trkpt lat="45.104636546358044" lon="7.347039393705947"><ele>363.0</ele><time>2026-04-18T07:57:38Z</time></trkpt><trkpt lat="45.10465629091118" lon="7.3467334995209175"><ele>363.0</ele><time>2026-04-18T07:57:39Z</time></trkpt><trkpt lat="45.10465785494717" lon="7.346407509981063"><ele>363.0</ele><time>2026-04-18T07:57:40Z</time></trkpt><trkpt lat="45.10468287313873" lon="7.346095003025031"><ele>362.6666666666667</ele><time>2026-04-18T07:57:41Z</time></trkpt><trkpt lat="45.104700969164085" lon="7.345777276547442"><ele>362.33333333333337</ele><time>2026-04-18T07:57:42Z</time></trkpt><trkpt lat="45.10472021601252" lon="7.345469693489232"><ele>362.0</ele><time>2026-04-18T07:57:43Z</time></trkpt><trkpt lat="45.10472246150015" lon="7.345151001016924"><ele>362.0</ele><time>2026-04-18T07:57:44Z</time></trkpt><trkpt lat="45.10473889888616" lon="7.344845386395783"><ele>362.0</ele><time>2026-04-18T07:57:45Z</time></trkpt><trkpt lat="45.10475593486849" lon="7.34453016984899"><ele>362.0</ele><time>2026-04-18T07:57:46Z</time></trkpt><trkpt lat="45.10477619111841" lon="7.3442260039491725"><ele>361.6666666666667</ele><time>2026-04-18T07:57:47Z</time></trkpt><trkpt lat="45.104789496377975" lon="7.343915821895484"><ele>361.3333333333333</ele><time>2026-04-18T07:57:48Z</time></trkpt><trkpt lat="45.10480249507691" lon="7.343613445303862"><ele>361.0</ele><time>2026-04-18T07:57:49Z</time></trkpt><trkpt lat="45.104813628632606" lon="7.343323929919545"><ele>361.66666666666663</ele><time>2026-04-18T07:57:50Z</time></trkpt><trkpt lat="45.10483427372219" lon="7.3430200522810205"><ele>362.3333333333333</ele><time>2026-04-18T07:57:51Z</time></trkpt><trkpt lat="45.10483902498102" lon="7.342728187500665"><ele>363.0</ele><time>2026-04-18T07:57:52Z</time></trkpt><trkpt lat="45.104870638286954" lon="7.342443435127603"><ele>362.6666666666667</ele><time>2026-04-18T07:57:53Z</time></trkpt><trkpt lat="45.104890205316714" lon="7.34215688331769"><ele>362.33333333333337</ele><time>2026-04-18T07:57:54Z</time></trkpt><trkpt lat="45.10491090428846" lon="7.3418778754846254"><ele>362.0</ele><time>2026-04-18T07:57:55Z</time></trkpt><trkpt lat="45.10491798944114" lon="7.341594833954296"><ele>362.0</ele><time>2026-04-18T07:57:56Z</time></trkpt><trkpt lat="45.10492509804787" lon="7.3412984309248985"><ele>362.0</ele><time>2026-04-18T07:57:57Z</time></trkpt><trkpt lat="45.10493550381689" lon="7.341007049254354"><ele>362.0</ele><time>2026-04-18T07:57:58Z</time></trkpt><trkpt lat="45.10496653848667" lon="7.340736074800765"><ele>361.6666666666667</ele><time>2026-04-18T07:57:59Z</time></trkpt><trkpt lat="45.10498777628712" lon="7.340435886450761"><ele>361.3333333333333</ele><time>2026-04-18T07:58:00Z</time></trkpt><trkpt lat="45.105003717292824" lon="7.3401474431363685"><ele>361.0</ele><time>2026-04-18T07:58:01Z</time></trkpt><trkpt lat="45.10501807579717" lon="7.339863616838937"><ele>361.3333333333333</ele><time>2026-04-18T07:58:02Z</time></trkpt><trkpt lat="45.10502955059618" lon="7.339566847321912"><ele>361.6666666666667</ele><time>2026-04-18T07:58:03Z</time></trkpt><trkpt lat="45.10503989134178" lon="7.339271983072887"><ele>362.0</ele><time>2026-04-18T07:58:04Z</time></trkpt><trkpt lat="45.105054322603216" lon="7.338970070426262"><ele>361.6666666666667</ele><time>2026-04-18T07:58:05Z</time></trkpt><trkpt lat="45.10507552325933" lon="7.338681177796657"><ele>361.3333333333333</ele><time>2026-04-18T07:58:06Z</time></trkpt><trkpt lat="45.105085348069736" lon="7.338410702225723"><ele>361.0</ele><time>2026-04-18T07:58:07Z</time></trkpt><trkpt lat="45.10509823462896" lon="7.338141036566083"><ele>361.3333333333333</ele><time>2026-04-18T07:58:08Z</time></trkpt><trkpt lat="45.105103885808106" lon="7.337889300971473"><ele>361.6666666666667</ele><time>2026-04-18T07:58:09Z</time></trkpt><trkpt lat="45.10511511617998" lon="7.33766283708442"><ele>362.0</ele><time>2026-04-18T07:58:10Z</time></trkpt><trkpt lat="45.1051332138278" lon="7.337456786685902"><ele>362.0</ele><time>2026-04-18T07:58:11Z</time></trkpt><trkpt lat="45.10514536077244" lon="7.337227409058944"><ele>362.0</ele><time>2026-04-18T07:58:12Z</time></trkpt><trkpt lat="45.1051585244402" lon="7.336954368579012"><ele>362.0</ele><time>2026-04-18T07:58:13Z</time></trkpt><trkpt lat="45.10517257213285" lon="7.33668638814503"><ele>362.33333333333337</ele><time>2026-04-18T07:58:14Z</time></trkpt><trkpt lat="45.10516735758633" lon="7.336417213778399"><ele>362.6666666666667</ele><time>2026-04-18T07:58:15Z</time></trkpt><trkpt lat="45.1051779931641" lon="7.336148528520344"><ele>363.0</ele><time>2026-04-18T07:58:16Z</time></trkpt><trkpt lat="45.105201404835434" lon="7.3359012887805655"><ele>363.0</ele><time>2026-04-18T07:58:17Z</time></trkpt><trkpt lat="45.10521812112894" lon="7.335656777993099"><ele>363.0</ele><time>2026-04-18T07:58:18Z</time></trkpt><trkpt lat="45.105236959395256" lon="7.335403989871725"><ele>363.0</ele><time>2026-04-18T07:58:19Z</time></trkpt><trkpt lat="45.10525498309935" lon="7.335152272816473"><ele>363.0</ele><time>2026-04-18T07:58:20Z</time></trkpt><trkpt lat="45.105267790785206" lon="7.334901887150164"><ele>363.0</ele><time>2026-04-18T07:58:21Z</time></trkpt><trkpt lat="45.105275793081766" lon="7.334633898643796"><ele>363.0</ele><time>2026-04-18T07:58:22Z</time></trkpt><trkpt lat="45.10528491080872" lon="7.334371074696038"><ele>363.0</ele><time>2026-04-18T07:58:23Z</time></trkpt><trkpt lat="45.10530113739073" lon="7.334092394702414"><ele>363.0</ele><time>2026-04-18T07:58:24Z</time></trkpt><trkpt lat="45.10532059131059" lon="7.33383227348882"><ele>363.0</ele><time>2026-04-18T07:58:25Z</time></trkpt><trkpt lat="45.10532717315967" lon="7.333532808985242"><ele>363.0</ele><time>2026-04-18T07:58:26Z</time></trkpt><trkpt lat="45.10533876205285" lon="7.333277998115034"><ele>363.0</ele><time>2026-04-18T07:58:27Z</time></trkpt><trkpt lat="45.10535851340104" lon="7.3330248788513925"><ele>363.0</ele><time>2026-04-18T07:58:28Z</time></trkpt><trkpt lat="45.10537405545187" lon="7.33277261152497"><ele>363.0</ele><time>2026-04-18T07:58:29Z</time></trkpt><trkpt lat="45.10538432340069" lon="7.3325296587914295"><ele>363.0</ele><time>2026-04-18T07:58:30Z</time></trkpt><trkpt lat="45.10538991526705" lon="7.332253806379351"><ele>363.0</ele><time>2026-04-18T07:58:31Z</time></trkpt><trkpt lat="45.10540368194215" lon="7.332000692136547"><ele>363.3333333333333</ele><time>2026-04-18T07:58:32Z</time></trkpt><trkpt lat="45.10541672597102" lon="7.331769825759"><ele>363.66666666666663</ele><time>2026-04-18T07:58:33Z</time></trkpt><trkpt lat="45.10542718238197" lon="7.331522830661439"><ele>364.0</ele><time>2026-04-18T07:58:34Z</time></trkpt><trkpt lat="45.105440556895246" lon="7.331270462893146"><ele>364.0</ele><time>2026-04-18T07:58:35Z</time></trkpt><trkpt lat="45.10545259386755" lon="7.331029426605018"><ele>364.0</ele><time>2026-04-18T07:58:36Z</time></trkpt><trkpt lat="45.10547592194709" lon="7.330776049793022"><ele>364.0</ele><time>2026-04-18T07:58:37Z</time></trkpt><trkpt lat="45.10549058315281" lon="7.330553448408992"><ele>364.66666666666663</ele><time>2026-04-18T07:58:38Z</time></trkpt><trkpt lat="45.10550368480582" lon="7.330295442640277"><ele>365.3333333333333</ele><time>2026-04-18T07:58:39Z</time></trkpt><trkpt lat="45.10551657122042" lon="7.330038898310161"><ele>366.0</ele><time>2026-04-18T07:58:40Z</time></trkpt><trkpt lat="45.10551822539345" lon="7.329793752827369"><ele>366.0</ele><time>2026-04-18T07:58:41Z</time></trkpt><trkpt lat="45.105531651687095" lon="7.329530391242779"><ele>366.0</ele><time>2026-04-18T07:58:42Z</time></trkpt><trkpt lat="45.105542297888235" lon="7.329275454008906"><ele>366.0</ele><time>2026-04-18T07:58:43Z</time></trkpt><trkpt lat="45.10555267096383" lon="7.329005281353678"><ele>365.6666666666667</ele><time>2026-04-18T07:58:44Z</time></trkpt><trkpt lat="45.10556752107322" lon="7.328756013962459"><ele>365.33333333333337</ele><time>2026-04-18T07:58:45Z</time></trkpt><trkpt lat="45.10558425311114" lon="7.328501922670988"><ele>365.0</ele><time>2026-04-18T07:58:46Z</time></trkpt><trkpt lat="45.10559776286419" lon="7.328258697132158"><ele>365.33333333333337</ele><time>2026-04-18T07:58:47Z</time></trkpt><trkpt lat="45.105610338061254" lon="7.328021287563387"><ele>365.6666666666667</ele><time>2026-04-18T07:58:48Z</time></trkpt><trkpt lat="45.10561950995971" lon="7.327792432742513"><ele>366.0</ele><time>2026-04-18T07:58:49Z</time></trkpt><trkpt lat="45.10562905560161" lon="7.327579765447912"><ele>366.0</ele><time>2026-04-18T07:58:50Z</time></trkpt><trkpt lat="45.10563775327701" lon="7.327366776160156"><ele>366.0</ele><time>2026-04-18T07:58:51Z</time></trkpt><trkpt lat="45.105654575538345" lon="7.327180096929298"><ele>366.0</ele><time>2026-04-18T07:58:52Z</time></trkpt><trkpt lat="45.10566958983696" lon="7.327007486842783"><ele>366.0</ele><time>2026-04-18T07:58:53Z</time></trkpt><trkpt lat="45.1056817590375" lon="7.3268112770476055"><ele>366.25</ele><time>2026-04-18T07:58:54Z</time></trkpt><trkpt lat="45.10572389719643" lon="7.326568858895435"><ele>366.5</ele><time>2026-04-18T07:58:56Z</time></trkpt><trkpt lat="45.10572558947931" lon="7.326417870766138"><ele>366.75</ele><time>2026-04-18T07:58:57Z</time></trkpt><trkpt lat="45.105719743356175" lon="7.326280836696793"><ele>367.0</ele><time>2026-04-18T07:58:58Z</time></trkpt><trkpt lat="45.10571696251193" lon="7.3261745382392265"><ele>367.0</ele><time>2026-04-18T07:58:59Z</time></trkpt><trkpt lat="45.105742166626705" lon="7.326077360743542"><ele>367.0</ele><time>2026-04-18T07:59:01Z</time></trkpt><trkpt lat="45.10573032026281" lon="7.325928467649736"><ele>367.0</ele><time>2026-04-18T07:59:10Z</time></trkpt><trkpt lat="45.1057288548785" lon="7.325772347675091"><ele>367.0</ele><time>2026-04-18T07:59:12Z</time></trkpt><trkpt lat="45.10573279480954" lon="7.325668364002479"><ele>367.0</ele><time>2026-04-18T07:59:13Z</time></trkpt><trkpt lat="45.105751169926016" lon="7.325497249634054"><ele>367.0</ele><time>2026-04-18T07:59:15Z</time></trkpt><trkpt lat="45.10577328327404" lon="7.325340183692482"><ele>367.0</ele><time>2026-04-18T07:59:17Z</time></trkpt><trkpt lat="45.10577714608772" lon="7.325239309000036"><ele>367.0</ele><time>2026-04-18T07:59:18Z</time></trkpt><trkpt lat="45.105796943181886" lon="7.325127346178242"><ele>367.0</ele><time>2026-04-18T07:59:19Z</time></trkpt><trkpt lat="45.105797059573334" lon="7.325015021814944"><ele>367.0</ele><time>2026-04-18T07:59:20Z</time></trkpt><trkpt lat="45.10580156293754" lon="7.324901839810098"><ele>367.0</ele><time>2026-04-18T07:59:21Z</time></trkpt><trkpt lat="45.105805373767026" lon="7.324789100319669"><ele>367.0</ele><time>2026-04-18T07:59:22Z</time></trkpt><trkpt lat="45.105808400247305" lon="7.324669114880734"><ele>367.0</ele><time>2026-04-18T07:59:23Z</time></trkpt><trkpt lat="45.10580573496126" lon="7.324528711776143"><ele>367.0</ele><time>2026-04-18T07:59:24Z</time></trkpt><trkpt lat="45.10580480637921" lon="7.324387103954899"><ele>367.0</ele><time>2026-04-18T07:59:25Z</time></trkpt><trkpt lat="45.10580988056343" lon="7.3242313789674425"><ele>367.0</ele><time>2026-04-18T07:59:26Z</time></trkpt><trkpt lat="45.10582501380697" lon="7.324086273379039"><ele>367.0</ele><time>2026-04-18T07:59:27Z</time></trkpt><trkpt lat="45.10583194933843" lon="7.323945795572694"><ele>367.0</ele><time>2026-04-18T07:59:28Z</time></trkpt><trkpt lat="45.10583474215283" lon="7.323806188802676"><ele>367.0</ele><time>2026-04-18T07:59:29Z</time></trkpt><trkpt lat="45.1058536872542" lon="7.323667922016221"><ele>367.0</ele><time>2026-04-18T07:59:30Z</time></trkpt><trkpt lat="45.10586611982007" lon="7.323517185702121"><ele>367.0</ele><time>2026-04-18T07:59:31Z</time></trkpt><trkpt lat="45.105865759560146" lon="7.323357960281306"><ele>367.20000000000005</ele><time>2026-04-18T07:59:32Z</time></trkpt><trkpt lat="45.10587283409835" lon="7.323223475705558"><ele>367.4</ele><time>2026-04-18T07:59:33Z</time></trkpt><trkpt lat="45.10591074169768" lon="7.323099542544051"><ele>367.6</ele><time>2026-04-18T07:59:34Z</time></trkpt><trkpt lat="45.10591566292508" lon="7.32289084591246"><ele>367.79999999999995</ele><time>2026-04-18T07:59:36Z</time></trkpt><trkpt lat="45.10592580615351" lon="7.322751564811834"><ele>368.0</ele><time>2026-04-18T07:59:37Z</time></trkpt><trkpt lat="45.105941960180935" lon="7.322609193900725"><ele>368.0</ele><time>2026-04-18T07:59:38Z</time></trkpt><trkpt lat="45.10594521302355" lon="7.322422098001036"><ele>368.0</ele><time>2026-04-18T07:59:39Z</time></trkpt><trkpt lat="45.10595807728334" lon="7.322219653608271"><ele>368.0</ele><time>2026-04-18T07:59:40Z</time></trkpt><trkpt lat="45.10597234990228" lon="7.322010903245182"><ele>368.0</ele><time>2026-04-18T07:59:41Z</time></trkpt><trkpt lat="45.10597496238269" lon="7.32175158277067"><ele>368.0</ele><time>2026-04-18T07:59:42Z</time></trkpt><trkpt lat="45.10599825358239" lon="7.321515462900195"><ele>368.0</ele><time>2026-04-18T07:59:43Z</time></trkpt><trkpt lat="45.10600958466714" lon="7.321249542718719"><ele>368.0</ele><time>2026-04-18T07:59:44Z</time></trkpt><trkpt lat="45.10601758733065" lon="7.320999904245025"><ele>368.33333333333337</ele><time>2026-04-18T07:59:45Z</time></trkpt><trkpt lat="45.106033269275606" lon="7.320768560761244"><ele>368.6666666666667</ele><time>2026-04-18T07:59:46Z</time></trkpt><trkpt lat="45.106053046371095" lon="7.3205442033979"><ele>369.0</ele><time>2026-04-18T07:59:47Z</time></trkpt><trkpt lat="45.106055730594576" lon="7.320334082563132"><ele>369.0</ele><time>2026-04-18T07:59:48Z</time></trkpt><trkpt lat="45.10605514026094" lon="7.320120347529984"><ele>369.0</ele><time>2026-04-18T07:59:49Z</time></trkpt><trkpt lat="45.10606279513453" lon="7.319924031594674"><ele>369.0</ele><time>2026-04-18T07:59:50Z</time></trkpt><trkpt lat="45.10607866435007" lon="7.319746596842863"><ele>369.0</ele><time>2026-04-18T07:59:51Z</time></trkpt><trkpt lat="45.10608748348131" lon="7.319557899971229"><ele>369.0</ele><time>2026-04-18T07:59:52Z</time></trkpt><trkpt lat="45.10611506631113" lon="7.319353322245569"><ele>369.0</ele><time>2026-04-18T07:59:53Z</time></trkpt><trkpt lat="45.10612618498196" lon="7.3191527731214086"><ele>369.0</ele><time>2026-04-18T07:59:54Z</time></trkpt><trkpt lat="45.10613156077616" lon="7.318917733274609"><ele>369.0</ele><time>2026-04-18T07:59:55Z</time></trkpt><trkpt lat="45.10612067747771" lon="7.318683629073342"><ele>369.0</ele><time>2026-04-18T07:59:56Z</time></trkpt><trkpt lat="45.10612096441734" lon="7.318435898797732"><ele>369.0</ele><time>2026-04-18T07:59:57Z</time></trkpt><trkpt lat="45.10614188282724" lon="7.318224256219981"><ele>368.6666666666667</ele><time>2026-04-18T07:59:58Z</time></trkpt><trkpt lat="45.10615415543461" lon="7.318008356842528"><ele>368.33333333333337</ele><time>2026-04-18T07:59:59Z</time></trkpt><trkpt lat="45.106162657512456" lon="7.317789704268514"><ele>368.0</ele><time>2026-04-18T08:00:00Z</time></trkpt><trkpt lat="45.10616950012117" lon="7.3175581014743205"><ele>368.0</ele><time>2026-04-18T08:00:01Z</time></trkpt><trkpt lat="45.10618234777588" lon="7.317327106172765"><ele>368.0</ele><time>2026-04-18T08:00:02Z</time></trkpt><trkpt lat="45.10619523500782" lon="7.317109907676772"><ele>368.0</ele><time>2026-04-18T08:00:03Z</time></trkpt><trkpt lat="45.106210073124664" lon="7.3169286877032444"><ele>368.0</ele><time>2026-04-18T08:00:04Z</time></trkpt><trkpt lat="45.10622426079622" lon="7.31671632008149"><ele>368.0</ele><time>2026-04-18T08:00:05Z</time></trkpt><trkpt lat="45.10622635822327" lon="7.316520001246562"><ele>368.0</ele><time>2026-04-18T08:00:06Z</time></trkpt><trkpt lat="45.10623734609113" lon="7.316329092330095"><ele>368.0</ele><time>2026-04-18T08:00:07Z</time></trkpt><trkpt lat="45.10624828634527" lon="7.316128974977791"><ele>368.0</ele><time>2026-04-18T08:00:08Z</time></trkpt><trkpt lat="45.10626301680282" lon="7.3159269490100645"><ele>368.0</ele><time>2026-04-18T08:00:09Z</time></trkpt><trkpt lat="45.10626949137819" lon="7.315675935361706"><ele>368.0</ele><time>2026-04-18T08:00:10Z</time></trkpt><trkpt lat="45.106284263243666" lon="7.315479785548145"><ele>368.0</ele><time>2026-04-18T08:00:11Z</time></trkpt><trkpt lat="45.10629508165455" lon="7.315279045567093"><ele>368.33333333333337</ele><time>2026-04-18T08:00:12Z</time></trkpt><trkpt lat="45.10631140425809" lon="7.315053937050699"><ele>368.6666666666667</ele><time>2026-04-18T08:00:13Z</time></trkpt><trkpt lat="45.106320601612204" lon="7.314838214784914"><ele>369.0</ele><time>2026-04-18T08:00:14Z</time></trkpt><trkpt lat="45.10633166832436" lon="7.314622338337094"><ele>369.0</ele><time>2026-04-18T08:00:15Z</time></trkpt><trkpt lat="45.10633556838861" lon="7.314395494548461"><ele>369.0</ele><time>2026-04-18T08:00:16Z</time></trkpt><trkpt lat="45.1063466401139" lon="7.314166091658537"><ele>369.0</ele><time>2026-04-18T08:00:17Z</time></trkpt><trkpt lat="45.10635586081777" lon="7.313933904016671"><ele>368.6666666666667</ele><time>2026-04-18T08:00:18Z</time></trkpt><trkpt lat="45.10636788637021" lon="7.313700341638441"><ele>368.33333333333337</ele><time>2026-04-18T08:00:19Z</time></trkpt><trkpt lat="45.10637348936092" lon="7.3134789798672575"><ele>368.0</ele><time>2026-04-18T08:00:20Z</time></trkpt><trkpt lat="45.10639703470438" lon="7.313269879364667"><ele>368.75</ele><time>2026-04-18T08:00:21Z</time></trkpt><trkpt lat="45.106409442133675" lon="7.313064045860549"><ele>369.5</ele><time>2026-04-18T08:00:22Z</time></trkpt><trkpt lat="45.10642401197393" lon="7.312861914262387"><ele>370.25</ele><time>2026-04-18T08:00:23Z</time></trkpt><trkpt lat="45.106434714556954" lon="7.312669981239329"><ele>371.0</ele><time>2026-04-18T08:00:24Z</time></trkpt><trkpt lat="45.10643722964087" lon="7.3124965906382355"><ele>371.0</ele><time>2026-04-18T08:00:25Z</time></trkpt><trkpt lat="45.10644976267623" lon="7.312333648894663"><ele>371.0</ele><time>2026-04-18T08:00:26Z</time></trkpt><trkpt lat="45.10645447342906" lon="7.312195912444007"><ele>371.0</ele><time>2026-04-18T08:00:27Z</time></trkpt><trkpt lat="45.10645568357955" lon="7.312069566862124"><ele>371.0</ele><time>2026-04-18T08:00:28Z</time></trkpt><trkpt lat="45.10646296014663" lon="7.3119393505776245"><ele>371.0</ele><time>2026-04-18T08:00:29Z</time></trkpt><trkpt lat="45.10648009441499" lon="7.311842329232929"><ele>371.1666666666667</ele><time>2026-04-18T08:00:30Z</time></trkpt><trkpt lat="45.10649906819058" lon="7.31175404014356"><ele>371.33333333333337</ele><time>2026-04-18T08:00:31Z</time></trkpt><trkpt lat="45.10650640759188" lon="7.31166198709021"><ele>371.5</ele><time>2026-04-18T08:00:32Z</time></trkpt><trkpt lat="45.10658974084797" lon="7.31152255631522"><ele>371.6666666666667</ele><time>2026-04-18T08:00:34Z</time></trkpt><trkpt lat="45.106630259117914" lon="7.311433284998683"><ele>371.8333333333333</ele><time>2026-04-18T08:00:35Z</time></trkpt><trkpt lat="45.106654907967794" lon="7.311321758082493"><ele>372.0</ele><time>2026-04-18T08:00:36Z</time></trkpt><trkpt lat="45.106667184833746" lon="7.311218782767148"><ele>371.5</ele><time>2026-04-18T08:00:37Z</time></trkpt><trkpt lat="45.10663118155797" lon="7.311083881758608"><ele>371.0</ele><time>2026-04-18T08:00:38Z</time></trkpt><trkpt lat="45.10657238175465" lon="7.310963598331254"><ele>370.5</ele><time>2026-04-18T08:00:39Z</time></trkpt><trkpt lat="45.106557373554885" lon="7.310811930635375"><ele>370.0</ele><time>2026-04-18T08:00:40Z</time></trkpt><trkpt lat="45.10657141496546" lon="7.310616295203168"><ele>370.3333333333333</ele><time>2026-04-18T08:00:41Z</time></trkpt><trkpt lat="45.106598161170936" lon="7.310431624736185"><ele>370.6666666666667</ele><time>2026-04-18T08:00:42Z</time></trkpt><trkpt lat="45.106602896944594" lon="7.310180123231255"><ele>371.0</ele><time>2026-04-18T08:00:43Z</time></trkpt><trkpt lat="45.10657871514814" lon="7.309896714639811"><ele>370.33333333333337</ele><time>2026-04-18T08:00:44Z</time></trkpt><trkpt lat="45.10659417963863" lon="7.309673222861373"><ele>369.6666666666667</ele><time>2026-04-18T08:00:45Z</time></trkpt><trkpt lat="45.10660609392511" lon="7.309438640933139"><ele>369.0</ele><time>2026-04-18T08:00:46Z</time></trkpt><trkpt lat="45.10661963920049" lon="7.3091988135462485"><ele>369.0</ele><time>2026-04-18T08:00:47Z</time></trkpt><trkpt lat="45.10665211681691" lon="7.308927957828834"><ele>369.0</ele><time>2026-04-18T08:00:48Z</time></trkpt><trkpt lat="45.10668123004063" lon="7.308636172225317"><ele>369.0</ele><time>2026-04-18T08:00:49Z</time></trkpt><trkpt lat="45.10669005614748" lon="7.308321642779996"><ele>369.5</ele><time>2026-04-18T08:00:50Z</time></trkpt><trkpt lat="45.10669866738105" lon="7.3079585051719285"><ele>370.0</ele><time>2026-04-18T08:00:51Z</time></trkpt><trkpt lat="45.106709124598126" lon="7.307611056634254"><ele>370.0</ele><time>2026-04-18T08:00:52Z</time></trkpt><trkpt lat="45.106725181211154" lon="7.30733399960249"><ele>370.0</ele><time>2026-04-18T08:00:53Z</time></trkpt><trkpt lat="45.10673775593997" lon="7.307041340090661"><ele>370.0</ele><time>2026-04-18T08:00:54Z</time></trkpt><trkpt lat="45.106744090513814" lon="7.306772043970786"><ele>370.0</ele><time>2026-04-18T08:00:55Z</time></trkpt><trkpt lat="45.1067586804556" lon="7.30650262223361"><ele>370.0</ele><time>2026-04-18T08:00:56Z</time></trkpt><trkpt lat="45.10677005751231" lon="7.306253433467468"><ele>370.0</ele><time>2026-04-18T08:00:57Z</time></trkpt><trkpt lat="45.106762027951675" lon="7.3060015691287"><ele>370.3333333333333</ele><time>2026-04-18T08:00:58Z</time></trkpt><trkpt lat="45.10676516511042" lon="7.30576955191901"><ele>370.6666666666667</ele><time>2026-04-18T08:00:59Z</time></trkpt><trkpt lat="45.10678733494722" lon="7.305567490566192"><ele>371.0</ele><time>2026-04-18T08:01:00Z</time></trkpt><trkpt lat="45.106786561970424" lon="7.3052978142520715"><ele>372.0</ele><time>2026-04-18T08:01:01Z</time></trkpt><trkpt lat="45.106808060488426" lon="7.305019437235826"><ele>373.0</ele><time>2026-04-18T08:01:02Z</time></trkpt><trkpt lat="45.106821533941236" lon="7.304747741943078"><ele>374.0</ele><time>2026-04-18T08:01:03Z</time></trkpt><trkpt lat="45.10683393084106" lon="7.304497755995173"><ele>374.0</ele><time>2026-04-18T08:01:04Z</time></trkpt><trkpt lat="45.1068466528483" lon="7.3042412141746675"><ele>374.0</ele><time>2026-04-18T08:01:05Z</time></trkpt><trkpt lat="45.10685921970996" lon="7.303987800857158"><ele>374.0</ele><time>2026-04-18T08:01:06Z</time></trkpt><trkpt lat="45.10687137278261" lon="7.3037427344800925"><ele>374.0</ele><time>2026-04-18T08:01:07Z</time></trkpt><trkpt lat="45.10688408606599" lon="7.3034946408443115"><ele>374.0</ele><time>2026-04-18T08:01:08Z</time></trkpt><trkpt lat="45.10689618358537" lon="7.30324844196032"><ele>374.0</ele><time>2026-04-18T08:01:09Z</time></trkpt><trkpt lat="45.10690862361663" lon="7.302995272224104"><ele>373.6666666666667</ele><time>2026-04-18T08:01:10Z</time></trkpt><trkpt lat="45.106920815965466" lon="7.3027471431728355"><ele>373.3333333333333</ele><time>2026-04-18T08:01:11Z</time></trkpt><trkpt lat="45.10693366974836" lon="7.302485211683452"><ele>373.0</ele><time>2026-04-18T08:01:12Z</time></trkpt><trkpt lat="45.106945400130606" lon="7.302231175554898"><ele>373.0</ele><time>2026-04-18T08:01:13Z</time></trkpt><trkpt lat="45.10695766118703" lon="7.301965647050291"><ele>373.0</ele><time>2026-04-18T08:01:14Z</time></trkpt><trkpt lat="45.10697147602529" lon="7.301666469202588"><ele>373.0</ele><time>2026-04-18T08:01:15Z</time></trkpt><trkpt lat="45.10698419235477" lon="7.301391081409561"><ele>373.0</ele><time>2026-04-18T08:01:16Z</time></trkpt><trkpt lat="45.10694267902081" lon="7.301122479932369"><ele>373.0</ele><time>2026-04-18T08:01:17Z</time></trkpt><trkpt lat="45.10694556571096" lon="7.300874016966291"><ele>373.0</ele><time>2026-04-18T08:01:18Z</time></trkpt><trkpt lat="45.10695917127542" lon="7.3006385527569195"><ele>373.3333333333333</ele><time>2026-04-18T08:01:19Z</time></trkpt><trkpt lat="45.10696973025343" lon="7.300386944269908"><ele>373.6666666666667</ele><time>2026-04-18T08:01:20Z</time></trkpt><trkpt lat="45.10698489075962" lon="7.300137630948591"><ele>374.0</ele><time>2026-04-18T08:01:21Z</time></trkpt><trkpt lat="45.10705513830416" lon="7.2998942249527135"><ele>373.6666666666667</ele><time>2026-04-18T08:01:22Z</time></trkpt><trkpt lat="45.10706733130329" lon="7.299641449506887"><ele>373.3333333333333</ele><time>2026-04-18T08:01:23Z</time></trkpt><trkpt lat="45.10708001897335" lon="7.299378418803112"><ele>373.0</ele><time>2026-04-18T08:01:24Z</time></trkpt><trkpt lat="45.10709215351086" lon="7.299126855267071"><ele>372.66666666666663</ele><time>2026-04-18T08:01:25Z</time></trkpt><trkpt lat="45.107104173405695" lon="7.298863965922718"><ele>372.3333333333333</ele><time>2026-04-18T08:01:26Z</time></trkpt><trkpt lat="45.10711615639876" lon="7.298601586569357"><ele>372.0</ele><time>2026-04-18T08:01:27Z</time></trkpt><trkpt lat="45.10712819861399" lon="7.298337910517432"><ele>372.6666666666667</ele><time>2026-04-18T08:01:28Z</time></trkpt><trkpt lat="45.10714153757912" lon="7.29804584098005"><ele>373.33333333333337</ele><time>2026-04-18T08:01:29Z</time></trkpt><trkpt lat="45.10715646980272" lon="7.297723263161075"><ele>374.0</ele><time>2026-04-18T08:01:30Z</time></trkpt><trkpt lat="45.10717348707395" lon="7.297367359086106"><ele>373.5</ele><time>2026-04-18T08:01:31Z</time></trkpt><trkpt lat="45.10719348071641" lon="7.296933928899067"><ele>373.0</ele><time>2026-04-18T08:01:32Z</time></trkpt><trkpt lat="45.10721100448232" lon="7.2965659089391295"><ele>373.0</ele><time>2026-04-18T08:01:33Z</time></trkpt><trkpt lat="45.107221038663255" lon="7.296215588692576"><ele>373.0</ele><time>2026-04-18T08:01:34Z</time></trkpt><trkpt lat="45.10722813508132" lon="7.295858762358738"><ele>373.0</ele><time>2026-04-18T08:01:35Z</time></trkpt><trkpt lat="45.107256418934014" lon="7.295525661693125"><ele>373.0</ele><time>2026-04-18T08:01:36Z</time></trkpt><trkpt lat="45.10728173800312" lon="7.295199211726524"><ele>373.0</ele><time>2026-04-18T08:01:37Z</time></trkpt><trkpt lat="45.10730990737242" lon="7.2948628259318715"><ele>373.0</ele><time>2026-04-18T08:01:38Z</time></trkpt><trkpt lat="45.10733348902306" lon="7.294526243581816"><ele>373.0</ele><time>2026-04-18T08:01:39Z</time></trkpt><trkpt lat="45.10734436939284" lon="7.294174529400136"><ele>373.0</ele><time>2026-04-18T08:01:40Z</time></trkpt><trkpt lat="45.10735375378699" lon="7.293836083451818"><ele>373.5</ele><time>2026-04-18T08:01:41Z</time></trkpt><trkpt lat="45.10736491220892" lon="7.293515262577389"><ele>374.0</ele><time>2026-04-18T08:01:42Z</time></trkpt><trkpt lat="45.107377253263216" lon="7.293186194780987"><ele>374.0</ele><time>2026-04-18T08:01:43Z</time></trkpt><trkpt lat="45.10740321196101" lon="7.292895753033492"><ele>374.0</ele><time>2026-04-18T08:01:44Z</time></trkpt><trkpt lat="45.10741584313165" lon="7.292578747852298"><ele>374.0</ele><time>2026-04-18T08:01:45Z</time></trkpt><trkpt lat="45.10741669559383" lon="7.292282193214385"><ele>374.0</ele><time>2026-04-18T08:01:46Z</time></trkpt><trkpt lat="45.107445613128796" lon="7.291984610165647"><ele>374.0</ele><time>2026-04-18T08:01:47Z</time></trkpt><trkpt lat="45.107458886788145" lon="7.2916950946395485"><ele>374.0</ele><time>2026-04-18T08:01:48Z</time></trkpt><trkpt lat="45.10747731317409" lon="7.29141421810005"><ele>374.0</ele><time>2026-04-18T08:01:49Z</time></trkpt><trkpt lat="45.10748459596819" lon="7.29115365281142"><ele>374.0</ele><time>2026-04-18T08:01:50Z</time></trkpt><trkpt lat="45.10750266269995" lon="7.290900776455745"><ele>374.0</ele><time>2026-04-18T08:01:51Z</time></trkpt><trkpt lat="45.10749787368808" lon="7.290656295049511"><ele>375.33333333333337</ele><time>2026-04-18T08:01:52Z</time></trkpt><trkpt lat="45.10750653275344" lon="7.2904229354707955"><ele>376.6666666666667</ele><time>2026-04-18T08:01:53Z</time></trkpt><trkpt lat="45.10750781477246" lon="7.290204590244218"><ele>378.0</ele><time>2026-04-18T08:01:54Z</time></trkpt><trkpt lat="45.10750467697035" lon="7.290006260593912"><ele>378.0</ele><time>2026-04-18T08:01:55Z</time></trkpt><trkpt lat="45.107505077596194" lon="7.289803897895094"><ele>378.0</ele><time>2026-04-18T08:01:56Z</time></trkpt><trkpt lat="45.107546122288724" lon="7.28966355851699"><ele>378.0</ele><time>2026-04-18T08:01:57Z</time></trkpt><trkpt lat="45.10754253974667" lon="7.289509011818216"><ele>378.0</ele><time>2026-04-18T08:01:58Z</time></trkpt><trkpt lat="45.107618911205854" lon="7.289368364833944"><ele>377.8333333333333</ele><time>2026-04-18T08:02:00Z</time></trkpt><trkpt lat="45.10766523566999" lon="7.289260214924685"><ele>377.6666666666667</ele><time>2026-04-18T08:02:01Z</time></trkpt><trkpt lat="45.1076942382167" lon="7.289133916035002"><ele>377.5</ele><time>2026-04-18T08:02:02Z</time></trkpt><trkpt lat="45.10770962577381" lon="7.28903026847009"><ele>377.33333333333337</ele><time>2026-04-18T08:02:03Z</time></trkpt><trkpt lat="45.107687039304125" lon="7.2889428417986375"><ele>377.1666666666667</ele><time>2026-04-18T08:02:04Z</time></trkpt><trkpt lat="45.107640831326265" lon="7.288866895852839"><ele>377.0</ele><time>2026-04-18T08:02:05Z</time></trkpt><trkpt lat="45.1075929594157" lon="7.288748899321201"><ele>377.0</ele><time>2026-04-18T08:02:06Z</time></trkpt><trkpt lat="45.107583231691734" lon="7.288604163478173"><ele>377.0</ele><time>2026-04-18T08:02:07Z</time></trkpt><trkpt lat="45.10757264663064" lon="7.288443209729668"><ele>377.0</ele><time>2026-04-18T08:02:08Z</time></trkpt><trkpt lat="45.107589436981314" lon="7.288266934620884"><ele>377.0</ele><time>2026-04-18T08:02:09Z</time></trkpt><trkpt lat="45.107587283867886" lon="7.288053477442901"><ele>377.6666666666667</ele><time>2026-04-18T08:02:10Z</time></trkpt><trkpt lat="45.107596235894604" lon="7.287807735981812"><ele>378.3333333333333</ele><time>2026-04-18T08:02:11Z</time></trkpt><trkpt lat="45.10761114590693" lon="7.287549430110634"><ele>379.0</ele><time>2026-04-18T08:02:12Z</time></trkpt><trkpt lat="45.10766040480328" lon="7.287309878154977"><ele>378.3333333333333</ele><time>2026-04-18T08:02:13Z</time></trkpt><trkpt lat="45.10767710347389" lon="7.287048073723006"><ele>377.6666666666667</ele><time>2026-04-18T08:02:14Z</time></trkpt><trkpt lat="45.107688497509656" lon="7.286751601196965"><ele>377.0</ele><time>2026-04-18T08:02:15Z</time></trkpt><trkpt lat="45.10768886901592" lon="7.286479856769077"><ele>376.6666666666667</ele><time>2026-04-18T08:02:16Z</time></trkpt><trkpt lat="45.1076884847519" lon="7.286229255765842"><ele>376.3333333333333</ele><time>2026-04-18T08:02:17Z</time></trkpt><trkpt lat="45.107693419894716" lon="7.285994476411783"><ele>376.0</ele><time>2026-04-18T08:02:18Z</time></trkpt><trkpt lat="45.107706933917456" lon="7.285761655008953"><ele>376.0</ele><time>2026-04-18T08:02:19Z</time></trkpt><trkpt lat="45.107717678513616" lon="7.285546711005149"><ele>376.0</ele><time>2026-04-18T08:02:20Z</time></trkpt><trkpt lat="45.107727135625474" lon="7.285323179635515"><ele>376.0</ele><time>2026-04-18T08:02:21Z</time></trkpt><trkpt lat="45.10773854978733" lon="7.2851068429584664"><ele>376.0</ele><time>2026-04-18T08:02:22Z</time></trkpt><trkpt lat="45.10774498049167" lon="7.284893358460111"><ele>376.0</ele><time>2026-04-18T08:02:23Z</time></trkpt><trkpt lat="45.107753058029104" lon="7.2846869195350274"><ele>376.0</ele><time>2026-04-18T08:02:24Z</time></trkpt><trkpt lat="45.10776940512571" lon="7.284472646981608"><ele>376.0</ele><time>2026-04-18T08:02:25Z</time></trkpt><trkpt lat="45.10776764064706" lon="7.28427407593942"><ele>376.20000000000005</ele><time>2026-04-18T08:02:26Z</time></trkpt><trkpt lat="45.10777087263121" lon="7.284105095188115"><ele>376.40000000000003</ele><time>2026-04-18T08:02:27Z</time></trkpt><trkpt lat="45.107768049252485" lon="7.283961841179536"><ele>376.6</ele><time>2026-04-18T08:02:28Z</time></trkpt><trkpt lat="45.10775967371864" lon="7.283828564392534"><ele>376.8</ele><time>2026-04-18T08:02:29Z</time></trkpt><trkpt lat="45.107769620204294" lon="7.283720683141654"><ele>377.0</ele><time>2026-04-18T08:02:30Z</time></trkpt><trkpt lat="45.107778774332594" lon="7.283631948932605"><ele>377.20000000000005</ele><time>2026-04-18T08:02:31Z</time></trkpt><trkpt lat="45.107802654509385" lon="7.283503567719047"><ele>377.4</ele><time>2026-04-18T08:02:33Z</time></trkpt><trkpt lat="45.10778243657241" lon="7.283370540931351"><ele>377.6</ele><time>2026-04-18T08:02:36Z</time></trkpt><trkpt lat="45.10780010211931" lon="7.283279773760699"><ele>377.79999999999995</ele><time>2026-04-18T08:02:46Z</time></trkpt><trkpt lat="45.10783781875206" lon="7.283152134743257"><ele>378.0</ele><time>2026-04-18T08:03:54Z</time></trkpt><trkpt lat="45.10784375604061" lon="7.283011466086908"><ele>378.1666666666667</ele><time>2026-04-18T08:03:56Z</time></trkpt><trkpt lat="45.10785891156589" lon="7.282857674373939"><ele>378.3333333333333</ele><time>2026-04-18T08:03:58Z</time></trkpt><trkpt lat="45.10786966922387" lon="7.282695527483329"><ele>378.5</ele><time>2026-04-18T08:04:00Z</time></trkpt><trkpt lat="45.10786718645857" lon="7.282599914052053"><ele>378.66666666666663</ele><time>2026-04-18T08:04:01Z</time></trkpt><trkpt lat="45.10786720182784" lon="7.282508863858441"><ele>378.8333333333333</ele><time>2026-04-18T08:04:02Z</time></trkpt><trkpt lat="45.10786357956983" lon="7.2824126763124655"><ele>379.0</ele><time>2026-04-18T08:04:03Z</time></trkpt><trkpt lat="45.10787046108242" lon="7.2822738398031515"><ele>379.4</ele><time>2026-04-18T08:04:05Z</time></trkpt><trkpt lat="45.10788214863992" lon="7.2821110005649885"><ele>379.79999999999995</ele><time>2026-04-18T08:04:07Z</time></trkpt><trkpt lat="45.10787684652127" lon="7.281927958229882"><ele>380.20000000000005</ele><time>2026-04-18T08:04:09Z</time></trkpt><trkpt lat="45.10787311341623" lon="7.2818270012364055"><ele>380.6</ele><time>2026-04-18T08:04:10Z</time></trkpt><trkpt lat="45.10788391779259" lon="7.28165435041428"><ele>381.0</ele><time>2026-04-18T08:04:12Z</time></trkpt><trkpt lat="45.10788214472152" lon="7.281558324012702"><ele>381.0</ele><time>2026-04-18T08:04:13Z</time></trkpt><trkpt lat="45.10789143645533" lon="7.281362476716363"><ele>381.0</ele><time>2026-04-18T08:04:15Z</time></trkpt><trkpt lat="45.10790392232514" lon="7.28124012246303"><ele>381.0</ele><time>2026-04-18T08:04:16Z</time></trkpt><trkpt lat="45.107919672101495" lon="7.281111980891049"><ele>381.0</ele><time>2026-04-18T08:04:17Z</time></trkpt><trkpt lat="45.10789036989545" lon="7.280935136017332"><ele>381.0</ele><time>2026-04-18T08:04:18Z</time></trkpt><trkpt lat="45.10790750318722" lon="7.280790784678651"><ele>381.0</ele><time>2026-04-18T08:04:19Z</time></trkpt><trkpt lat="45.10791475393247" lon="7.2806489310941656"><ele>381.0</ele><time>2026-04-18T08:04:20Z</time></trkpt><trkpt lat="45.107921130421964" lon="7.280512817743147"><ele>381.0</ele><time>2026-04-18T08:04:21Z</time></trkpt><trkpt lat="45.10793148419572" lon="7.280380606546884"><ele>381.0</ele><time>2026-04-18T08:04:22Z</time></trkpt><trkpt lat="45.107922819043836" lon="7.28024696023021"><ele>381.0</ele><time>2026-04-18T08:04:23Z</time></trkpt><trkpt lat="45.107925643494525" lon="7.2801203854885745"><ele>381.0</ele><time>2026-04-18T08:04:24Z</time></trkpt><trkpt lat="45.10793334349195" lon="7.279990719366182"><ele>381.0</ele><time>2026-04-18T08:04:25Z</time></trkpt><trkpt lat="45.10796039186269" lon="7.279874122552858"><ele>381.0</ele><time>2026-04-18T08:04:26Z</time></trkpt><trkpt lat="45.107970485113356" lon="7.279738280000484"><ele>381.0</ele><time>2026-04-18T08:04:27Z</time></trkpt><trkpt lat="45.107980949728116" lon="7.279598218891355"><ele>381.0</ele><time>2026-04-18T08:04:28Z</time></trkpt><trkpt lat="45.10797672472606" lon="7.279451590841752"><ele>381.0</ele><time>2026-04-18T08:04:29Z</time></trkpt><trkpt lat="45.10797828291447" lon="7.279318239630487"><ele>381.0</ele><time>2026-04-18T08:04:30Z</time></trkpt><trkpt lat="45.10799932973847" lon="7.279192809069769"><ele>381.0</ele><time>2026-04-18T08:04:31Z</time></trkpt><trkpt lat="45.10800883647273" lon="7.279040826950143"><ele>381.0</ele><time>2026-04-18T08:04:32Z</time></trkpt><trkpt lat="45.10802396109191" lon="7.278879259892391"><ele>381.0</ele><time>2026-04-18T08:04:33Z</time></trkpt><trkpt lat="45.10805881771244" lon="7.278740348347927"><ele>381.0</ele><time>2026-04-18T08:04:34Z</time></trkpt><trkpt lat="45.10809245323024" lon="7.278586667339895"><ele>381.0</ele><time>2026-04-18T08:04:35Z</time></trkpt><trkpt lat="45.10812781589814" lon="7.278441687314666"><ele>381.0</ele><time>2026-04-18T08:04:36Z</time></trkpt><trkpt lat="45.108166475411934" lon="7.278295636775068"><ele>381.0</ele><time>2026-04-18T08:04:37Z</time></trkpt><trkpt lat="45.10821476206503" lon="7.278170667181825"><ele>381.0</ele><time>2026-04-18T08:04:38Z</time></trkpt><trkpt lat="45.108255264468724" lon="7.278040584511082"><ele>381.1666666666667</ele><time>2026-04-18T08:04:39Z</time></trkpt><trkpt lat="45.108292212464505" lon="7.277906247676496"><ele>381.3333333333333</ele><time>2026-04-18T08:04:40Z</time></trkpt><trkpt lat="45.10832325555586" lon="7.2777898595115245"><ele>381.5</ele><time>2026-04-18T08:04:41Z</time></trkpt><trkpt lat="45.10835418058445" lon="7.277676254228419"><ele>381.66666666666663</ele><time>2026-04-18T08:04:42Z</time></trkpt><trkpt lat="45.10838068486528" lon="7.277570245956025"><ele>381.8333333333333</ele><time>2026-04-18T08:04:43Z</time></trkpt><trkpt lat="45.10840715512707" lon="7.277453149958024"><ele>382.0</ele><time>2026-04-18T08:04:44Z</time></trkpt><trkpt lat="45.10843677432792" lon="7.277321073640858"><ele>382.20000000000005</ele><time>2026-04-18T08:04:45Z</time></trkpt><trkpt lat="45.108468986213104" lon="7.277207320162802"><ele>382.4</ele><time>2026-04-18T08:04:46Z</time></trkpt><trkpt lat="45.10850187740566" lon="7.277083987167057"><ele>382.6</ele><time>2026-04-18T08:04:47Z</time></trkpt><trkpt lat="45.10852495551962" lon="7.276950699571017"><ele>382.79999999999995</ele><time>2026-04-18T08:04:48Z</time></trkpt><trkpt lat="45.108547122610204" lon="7.276820312159821"><ele>383.0</ele><time>2026-04-18T08:04:49Z</time></trkpt><trkpt lat="45.108562824176715" lon="7.276691449681467"><ele>383.0</ele><time>2026-04-18T08:04:50Z</time></trkpt><trkpt lat="45.10858908824521" lon="7.276586062966855"><ele>383.0</ele><time>2026-04-18T08:04:51Z</time></trkpt><trkpt lat="45.10859405613035" lon="7.276465392723141"><ele>383.0</ele><time>2026-04-18T08:04:52Z</time></trkpt><trkpt lat="45.108603665630646" lon="7.276239621897817"><ele>383.0</ele><time>2026-04-18T08:04:54Z</time></trkpt><trkpt lat="45.10860901224363" lon="7.27609973667868"><ele>383.0</ele><time>2026-04-18T08:04:55Z</time></trkpt><trkpt lat="45.108614312753836" lon="7.275918934420257"><ele>383.4</ele><time>2026-04-18T08:04:56Z</time></trkpt><trkpt lat="45.1086312469099" lon="7.275765568937341"><ele>383.79999999999995</ele><time>2026-04-18T08:04:57Z</time></trkpt><trkpt lat="45.10864063022415" lon="7.2756151723849"><ele>384.2</ele><time>2026-04-18T08:04:58Z</time></trkpt><trkpt lat="45.108651975278015" lon="7.275468371054104"><ele>384.6</ele><time>2026-04-18T08:04:59Z</time></trkpt><trkpt lat="45.10864505359396" lon="7.275321405156774"><ele>385.0</ele><time>2026-04-18T08:05:00Z</time></trkpt><trkpt lat="45.108640425684" lon="7.27517624615288"><ele>385.0</ele><time>2026-04-18T08:05:01Z</time></trkpt><trkpt lat="45.10865873077958" lon="7.275037959716579"><ele>385.0</ele><time>2026-04-18T08:05:02Z</time></trkpt><trkpt lat="45.10867914895074" lon="7.274884946292675"><ele>385.0</ele><time>2026-04-18T08:05:03Z</time></trkpt><trkpt lat="45.108688907963995" lon="7.274717260340825"><ele>385.0</ele><time>2026-04-18T08:05:04Z</time></trkpt><trkpt lat="45.10868708106529" lon="7.274567383762606"><ele>385.0</ele><time>2026-04-18T08:05:05Z</time></trkpt><trkpt lat="45.10871175251806" lon="7.274433394350817"><ele>384.83333333333337</ele><time>2026-04-18T08:05:06Z</time></trkpt><trkpt lat="45.108698196595356" lon="7.274288817969097"><ele>384.6666666666667</ele><time>2026-04-18T08:05:07Z</time></trkpt><trkpt lat="45.10870772736191" lon="7.274152899990104"><ele>384.5</ele><time>2026-04-18T08:05:08Z</time></trkpt><trkpt lat="45.108701992248136" lon="7.274025855261762"><ele>384.33333333333337</ele><time>2026-04-18T08:05:09Z</time></trkpt><trkpt lat="45.10868999824802" lon="7.273916296343162"><ele>384.1666666666667</ele><time>2026-04-18T08:05:10Z</time></trkpt><trkpt lat="45.108688977066414" lon="7.273807171664522"><ele>384.0</ele><time>2026-04-18T08:05:11Z</time></trkpt><trkpt lat="45.108664933027576" lon="7.273667104265694"><ele>383.75</ele><time>2026-04-18T08:05:12Z</time></trkpt><trkpt lat="45.10865537845365" lon="7.273531968610841"><ele>383.5</ele><time>2026-04-18T08:05:13Z</time></trkpt><trkpt lat="45.10864221596679" lon="7.2733769956122165"><ele>383.25</ele><time>2026-04-18T08:05:14Z</time></trkpt><trkpt lat="45.108618553947004" lon="7.273174301833436"><ele>383.0</ele><time>2026-04-18T08:05:15Z</time></trkpt><trkpt lat="45.108591078850466" lon="7.272957001053681"><ele>383.0</ele><time>2026-04-18T08:05:16Z</time></trkpt><trkpt lat="45.10857011969377" lon="7.272767265321202"><ele>383.0</ele><time>2026-04-18T08:05:17Z</time></trkpt><trkpt lat="45.10854895391146" lon="7.272600157622833"><ele>383.0</ele><time>2026-04-18T08:05:18Z</time></trkpt><trkpt lat="45.10854097331138" lon="7.272438910310031"><ele>383.0</ele><time>2026-04-18T08:05:19Z</time></trkpt><trkpt lat="45.10851782986845" lon="7.272283117638354"><ele>383.5</ele><time>2026-04-18T08:05:20Z</time></trkpt><trkpt lat="45.108514296754045" lon="7.272126541359193"><ele>384.0</ele><time>2026-04-18T08:05:21Z</time></trkpt><trkpt lat="45.10849110637161" lon="7.271970165311207"><ele>384.5</ele><time>2026-04-18T08:05:22Z</time></trkpt><trkpt lat="45.10846007811456" lon="7.271786178480309"><ele>385.0</ele><time>2026-04-18T08:05:23Z</time></trkpt><trkpt lat="45.10843026975032" lon="7.271620049078086"><ele>385.0</ele><time>2026-04-18T08:05:24Z</time></trkpt><trkpt lat="45.1084172414585" lon="7.271464286520716"><ele>385.0</ele><time>2026-04-18T08:05:25Z</time></trkpt><trkpt lat="45.108398265501876" lon="7.271317538546554"><ele>385.0</ele><time>2026-04-18T08:05:26Z</time></trkpt><trkpt lat="45.10837387771635" lon="7.271189004256156"><ele>385.0</ele><time>2026-04-18T08:05:27Z</time></trkpt><trkpt lat="45.10835487262012" lon="7.271028557631102"><ele>385.0</ele><time>2026-04-18T08:05:28Z</time></trkpt><trkpt lat="45.10832974705976" lon="7.2708784137837"><ele>384.83333333333337</ele><time>2026-04-18T08:05:29Z</time></trkpt><trkpt lat="45.10831656447832" lon="7.270737417412707"><ele>384.6666666666667</ele><time>2026-04-18T08:05:30Z</time></trkpt><trkpt lat="45.108292446005436" lon="7.270613768729022"><ele>384.5</ele><time>2026-04-18T08:05:31Z</time></trkpt><trkpt lat="45.108283879065624" lon="7.270477318496986"><ele>384.33333333333337</ele><time>2026-04-18T08:05:32Z</time></trkpt><trkpt lat="45.108277159463576" lon="7.2703644129251215"><ele>384.1666666666667</ele><time>2026-04-18T08:05:33Z</time></trkpt><trkpt lat="45.10824647895963" lon="7.2702715929759885"><ele>384.0</ele><time>2026-04-18T08:05:34Z</time></trkpt><trkpt lat="45.108229049764354" lon="7.270167530053344"><ele>384.0</ele><time>2026-04-18T08:05:35Z</time></trkpt><trkpt lat="45.108206912368026" lon="7.270026975555799"><ele>384.0</ele><time>2026-04-18T08:05:37Z</time></trkpt><trkpt lat="45.10818833315222" lon="7.269938931957758"><ele>384.0</ele><time>2026-04-18T08:05:39Z</time></trkpt><trkpt lat="45.1081533674935" lon="7.269833988527948"><ele>384.0</ele><time>2026-04-18T08:05:41Z</time></trkpt><trkpt lat="45.10814062124177" lon="7.269746486869797"><ele>384.0</ele><time>2026-04-18T08:05:43Z</time></trkpt><trkpt lat="45.10814665389876" lon="7.2696517498055595"><ele>384.0</ele><time>2026-04-18T08:05:53Z</time></trkpt><trkpt lat="45.10812517245665" lon="7.269502044279402"><ele>384.0</ele><time>2026-04-18T08:06:12Z</time></trkpt><trkpt lat="45.10811073054478" lon="7.26937635196021"><ele>384.0</ele><time>2026-04-18T08:06:13Z</time></trkpt><trkpt lat="45.108087073925034" lon="7.2692437118595565"><ele>384.0</ele><time>2026-04-18T08:06:14Z</time></trkpt><trkpt lat="45.10806799190396" lon="7.2690945010289285"><ele>384.0</ele><time>2026-04-18T08:06:15Z</time></trkpt><trkpt lat="45.10803171211106" lon="7.26891316117084"><ele>384.0</ele><time>2026-04-18T08:06:16Z</time></trkpt><trkpt lat="45.10800462850905" lon="7.268700845364198"><ele>383.6666666666667</ele><time>2026-04-18T08:06:17Z</time></trkpt><trkpt lat="45.107978472957704" lon="7.2684984650712"><ele>383.33333333333337</ele><time>2026-04-18T08:06:18Z</time></trkpt><trkpt lat="45.107957351585775" lon="7.268279417536733"><ele>383.0</ele><time>2026-04-18T08:06:19Z</time></trkpt><trkpt lat="45.10793098949234" lon="7.268064896365774"><ele>382.6666666666667</ele><time>2026-04-18T08:06:20Z</time></trkpt><trkpt lat="45.107900596460986" lon="7.267849865883264"><ele>382.3333333333333</ele><time>2026-04-18T08:06:21Z</time></trkpt><trkpt lat="45.10786879115197" lon="7.267627430541781"><ele>382.0</ele><time>2026-04-18T08:06:22Z</time></trkpt><trkpt lat="45.10784392535793" lon="7.267390489252138"><ele>382.3333333333333</ele><time>2026-04-18T08:06:23Z</time></trkpt><trkpt lat="45.107807614098334" lon="7.2671675100155015"><ele>382.6666666666667</ele><time>2026-04-18T08:06:24Z</time></trkpt><trkpt lat="45.10777104561193" lon="7.266951654895492"><ele>383.0</ele><time>2026-04-18T08:06:25Z</time></trkpt><trkpt lat="45.107744665080396" lon="7.266720410300129"><ele>383.0</ele><time>2026-04-18T08:06:26Z</time></trkpt><trkpt lat="45.107712591562034" lon="7.266487932533867"><ele>383.0</ele><time>2026-04-18T08:06:27Z</time></trkpt><trkpt lat="45.10767816127095" lon="7.266273355409486"><ele>383.0</ele><time>2026-04-18T08:06:28Z</time></trkpt><trkpt lat="45.10764971022004" lon="7.2660464568244025"><ele>382.6666666666667</ele><time>2026-04-18T08:06:29Z</time></trkpt><trkpt lat="45.10762045259716" lon="7.26583297633506"><ele>382.3333333333333</ele><time>2026-04-18T08:06:30Z</time></trkpt><trkpt lat="45.1075971941756" lon="7.2656172566924875"><ele>382.0</ele><time>2026-04-18T08:06:31Z</time></trkpt><trkpt lat="45.10756726467161" lon="7.2654041227307005"><ele>382.66666666666663</ele><time>2026-04-18T08:06:32Z</time></trkpt><trkpt lat="45.10753589605937" lon="7.2651917287365855"><ele>383.3333333333333</ele><time>2026-04-18T08:06:33Z</time></trkpt><trkpt lat="45.10749919227078" lon="7.264968514287274"><ele>384.0</ele><time>2026-04-18T08:06:34Z</time></trkpt><trkpt lat="45.107466958484565" lon="7.264735232767976"><ele>384.33333333333337</ele><time>2026-04-18T08:06:35Z</time></trkpt><trkpt lat="45.107429764361505" lon="7.264503952354726"><ele>384.6666666666667</ele><time>2026-04-18T08:06:36Z</time></trkpt><trkpt lat="45.10739847612298" lon="7.264298446371444"><ele>385.0</ele><time>2026-04-18T08:06:37Z</time></trkpt><trkpt lat="45.10737286725583" lon="7.264098424257928"><ele>385.5</ele><time>2026-04-18T08:06:38Z</time></trkpt><trkpt lat="45.107355386430136" lon="7.263905187511515"><ele>386.0</ele><time>2026-04-18T08:06:39Z</time></trkpt><trkpt lat="45.1073319756128" lon="7.263739237182893"><ele>386.5</ele><time>2026-04-18T08:06:40Z</time></trkpt><trkpt lat="45.107324662962945" lon="7.263593307047736"><ele>387.0</ele><time>2026-04-18T08:06:41Z</time></trkpt><trkpt lat="45.10731664322662" lon="7.263451721017508"><ele>387.0</ele><time>2026-04-18T08:06:42Z</time></trkpt><trkpt lat="45.107300402273225" lon="7.263329758107466"><ele>387.0</ele><time>2026-04-18T08:06:43Z</time></trkpt><trkpt lat="45.10733541287656" lon="7.26323125771843"><ele>387.0</ele><time>2026-04-18T08:06:44Z</time></trkpt><trkpt lat="45.10733457044647" lon="7.26313018224157"><ele>387.0</ele><time>2026-04-18T08:06:45Z</time></trkpt><trkpt lat="45.10735276625795" lon="7.263021885286883"><ele>387.0</ele><time>2026-04-18T08:06:46Z</time></trkpt><trkpt lat="45.10738193395759" lon="7.262899991976174"><ele>387.0</ele><time>2026-04-18T08:06:47Z</time></trkpt><trkpt lat="45.107403362198376" lon="7.262773867675086"><ele>386.5</ele><time>2026-04-18T08:06:48Z</time></trkpt><trkpt lat="45.10741164469726" lon="7.2626199517728605"><ele>386.0</ele><time>2026-04-18T08:06:49Z</time></trkpt><trkpt lat="45.10743108668746" lon="7.262388978164334"><ele>385.5</ele><time>2026-04-18T08:06:50Z</time></trkpt><trkpt lat="45.107443291155285" lon="7.262217552651101"><ele>385.0</ele><time>2026-04-18T08:06:51Z</time></trkpt><trkpt lat="45.10752451299569" lon="7.262044755674216"><ele>385.0</ele><time>2026-04-18T08:06:52Z</time></trkpt><trkpt lat="45.10759753114311" lon="7.261848137295719"><ele>385.0</ele><time>2026-04-18T08:06:53Z</time></trkpt><trkpt lat="45.10765322358123" lon="7.2616703578968425"><ele>385.0</ele><time>2026-04-18T08:06:54Z</time></trkpt><trkpt lat="45.107699032703145" lon="7.261508330211366"><ele>385.0</ele><time>2026-04-18T08:06:55Z</time></trkpt><trkpt lat="45.10774658639882" lon="7.261344146649955"><ele>385.25</ele><time>2026-04-18T08:06:56Z</time></trkpt><trkpt lat="45.10779811620877" lon="7.261218480373827"><ele>385.5</ele><time>2026-04-18T08:06:57Z</time></trkpt><trkpt lat="45.107865050496365" lon="7.261064701789957"><ele>385.75</ele><time>2026-04-18T08:06:58Z</time></trkpt><trkpt lat="45.10792271146382" lon="7.260908328930831"><ele>386.0</ele><time>2026-04-18T08:06:59Z</time></trkpt><trkpt lat="45.10797536273977" lon="7.260724918469581"><ele>386.0</ele><time>2026-04-18T08:07:00Z</time></trkpt><trkpt lat="45.10802092429494" lon="7.260539116862249"><ele>386.0</ele><time>2026-04-18T08:07:01Z</time></trkpt><trkpt lat="45.108087743139" lon="7.26035146629613"><ele>386.0</ele><time>2026-04-18T08:07:02Z</time></trkpt><trkpt lat="45.108161527501146" lon="7.260138869704358"><ele>386.0</ele><time>2026-04-18T08:07:03Z</time></trkpt><trkpt lat="45.10822776841493" lon="7.259891257491044"><ele>386.0</ele><time>2026-04-18T08:07:04Z</time></trkpt><trkpt lat="45.10831869466056" lon="7.259634781530347"><ele>386.0</ele><time>2026-04-18T08:07:05Z</time></trkpt><trkpt lat="45.10842899112411" lon="7.259359817953572"><ele>386.0</ele><time>2026-04-18T08:07:06Z</time></trkpt><trkpt lat="45.10851715275141" lon="7.259080135014296"><ele>386.0</ele><time>2026-04-18T08:07:07Z</time></trkpt><trkpt lat="45.10860915882988" lon="7.258830776774152"><ele>386.0</ele><time>2026-04-18T08:07:08Z</time></trkpt><trkpt lat="45.10870146573305" lon="7.2585771448919445"><ele>386.3333333333333</ele><time>2026-04-18T08:07:09Z</time></trkpt><trkpt lat="45.10879307793753" lon="7.2583482023669"><ele>386.66666666666663</ele><time>2026-04-18T08:07:10Z</time></trkpt><trkpt lat="45.10887691093312" lon="7.258094173275222"><ele>387.0</ele><time>2026-04-18T08:07:11Z</time></trkpt><trkpt lat="45.10896406586059" lon="7.257852409079836"><ele>387.0</ele><time>2026-04-18T08:07:12Z</time></trkpt><trkpt lat="45.10904847916442" lon="7.2576167899963675"><ele>387.0</ele><time>2026-04-18T08:07:13Z</time></trkpt><trkpt lat="45.109137621567314" lon="7.257390655722181"><ele>387.0</ele><time>2026-04-18T08:07:14Z</time></trkpt><trkpt lat="45.10920957671453" lon="7.257151147307817"><ele>387.0</ele><time>2026-04-18T08:07:15Z</time></trkpt><trkpt lat="45.1092868031529" lon="7.256909752630542"><ele>387.0</ele><time>2026-04-18T08:07:16Z</time></trkpt><trkpt lat="45.10936562202556" lon="7.256677025834747"><ele>387.0</ele><time>2026-04-18T08:07:17Z</time></trkpt><trkpt lat="45.10944891840319" lon="7.256433773691165"><ele>387.0</ele><time>2026-04-18T08:07:18Z</time></trkpt><trkpt lat="45.10953540238442" lon="7.256194512953905"><ele>387.0</ele><time>2026-04-18T08:07:19Z</time></trkpt><trkpt lat="45.10961703383622" lon="7.255945884373458"><ele>387.0</ele><time>2026-04-18T08:07:20Z</time></trkpt><trkpt lat="45.109690279435455" lon="7.255698415377855"><ele>386.66666666666663</ele><time>2026-04-18T08:07:21Z</time></trkpt><trkpt lat="45.109772892737496" lon="7.255445373559414"><ele>386.3333333333333</ele><time>2026-04-18T08:07:22Z</time></trkpt><trkpt lat="45.10986756924832" lon="7.2552045228104864"><ele>386.0</ele><time>2026-04-18T08:07:23Z</time></trkpt><trkpt lat="45.10995001675574" lon="7.254950029641437"><ele>385.66666666666663</ele><time>2026-04-18T08:07:24Z</time></trkpt><trkpt lat="45.11003262000479" lon="7.25470132958343"><ele>385.33333333333337</ele><time>2026-04-18T08:07:25Z</time></trkpt><trkpt lat="45.110116820618146" lon="7.254455800772082"><ele>385.0</ele><time>2026-04-18T08:07:26Z</time></trkpt><trkpt lat="45.1101982097402" lon="7.254202892774699"><ele>385.33333333333337</ele><time>2026-04-18T08:07:27Z</time></trkpt><trkpt lat="45.110279833268855" lon="7.253949322723864"><ele>385.66666666666663</ele><time>2026-04-18T08:07:28Z</time></trkpt><trkpt lat="45.11037199102004" lon="7.253706742442965"><ele>386.0</ele><time>2026-04-18T08:07:29Z</time></trkpt><trkpt lat="45.11045139982969" lon="7.253448709908021"><ele>386.0</ele><time>2026-04-18T08:07:30Z</time></trkpt><trkpt lat="45.11054099339756" lon="7.253200943047555"><ele>386.0</ele><time>2026-04-18T08:07:31Z</time></trkpt><trkpt lat="45.110626510688704" lon="7.252960724437756"><ele>386.0</ele><time>2026-04-18T08:07:32Z</time></trkpt><trkpt lat="45.110694123596545" lon="7.25270787234354"><ele>386.3333333333333</ele><time>2026-04-18T08:07:33Z</time></trkpt><trkpt lat="45.11077586185817" lon="7.252467522259904"><ele>386.66666666666663</ele><time>2026-04-18T08:07:34Z</time></trkpt><trkpt lat="45.11086610749644" lon="7.25219948029898"><ele>387.0</ele><time>2026-04-18T08:07:35Z</time></trkpt><trkpt lat="45.110965133048644" lon="7.251927382117454"><ele>387.0</ele><time>2026-04-18T08:07:36Z</time></trkpt><trkpt lat="45.11106266531839" lon="7.251622313161991"><ele>387.0</ele><time>2026-04-18T08:07:37Z</time></trkpt><trkpt lat="45.111156262342135" lon="7.251354603428377"><ele>387.0</ele><time>2026-04-18T08:07:38Z</time></trkpt><trkpt lat="45.111255933376704" lon="7.251078037653692"><ele>387.0</ele><time>2026-04-18T08:07:39Z</time></trkpt><trkpt lat="45.11135656027439" lon="7.25081001571182"><ele>387.0</ele><time>2026-04-18T08:07:40Z</time></trkpt><trkpt lat="45.111443320873576" lon="7.250546912240193"><ele>387.0</ele><time>2026-04-18T08:07:41Z</time></trkpt><trkpt lat="45.111543059702946" lon="7.250291033612682"><ele>387.33333333333337</ele><time>2026-04-18T08:07:42Z</time></trkpt><trkpt lat="45.11162885574327" lon="7.250019695163205"><ele>387.6666666666667</ele><time>2026-04-18T08:07:43Z</time></trkpt><trkpt lat="45.11172967389302" lon="7.249745034164063"><ele>388.0</ele><time>2026-04-18T08:07:44Z</time></trkpt><trkpt lat="45.11182471305633" lon="7.249475343475645"><ele>388.0</ele><time>2026-04-18T08:07:45Z</time></trkpt><trkpt lat="45.111917437608426" lon="7.249213531236131"><ele>388.0</ele><time>2026-04-18T08:07:46Z</time></trkpt><trkpt lat="45.11200605953408" lon="7.248967206462519"><ele>388.0</ele><time>2026-04-18T08:07:47Z</time></trkpt><trkpt lat="45.11208560613557" lon="7.248716879424341"><ele>388.0</ele><time>2026-04-18T08:07:48Z</time></trkpt><trkpt lat="45.11215720047948" lon="7.248486136264223"><ele>388.0</ele><time>2026-04-18T08:07:49Z</time></trkpt><trkpt lat="45.112226729875374" lon="7.248261656500827"><ele>388.0</ele><time>2026-04-18T08:07:50Z</time></trkpt><trkpt lat="45.11229506941321" lon="7.24804548931641"><ele>388.5</ele><time>2026-04-18T08:07:51Z</time></trkpt><trkpt lat="45.112370285183886" lon="7.247839764284005"><ele>389.0</ele><time>2026-04-18T08:07:52Z</time></trkpt><trkpt lat="45.112441198880205" lon="7.247637773471205"><ele>389.5</ele><time>2026-04-18T08:07:53Z</time></trkpt><trkpt lat="45.11247734462794" lon="7.247476809977562"><ele>390.0</ele><time>2026-04-18T08:07:54Z</time></trkpt><trkpt lat="45.11254355602081" lon="7.247316546599897"><ele>390.0</ele><time>2026-04-18T08:07:55Z</time></trkpt><trkpt lat="45.11261529320136" lon="7.2471566426633105"><ele>390.0</ele><time>2026-04-18T08:07:56Z</time></trkpt><trkpt lat="45.11267486024243" lon="7.247012866993851"><ele>390.0</ele><time>2026-04-18T08:07:57Z</time></trkpt><trkpt lat="45.112736771480236" lon="7.246852541671081"><ele>390.0</ele><time>2026-04-18T08:07:58Z</time></trkpt><trkpt lat="45.11279020534498" lon="7.246663568602388"><ele>390.0</ele><time>2026-04-18T08:07:59Z</time></trkpt><trkpt lat="45.11284436038915" lon="7.246490308622446"><ele>390.0</ele><time>2026-04-18T08:08:00Z</time></trkpt><trkpt lat="45.11290169587805" lon="7.2463266009099065"><ele>390.0</ele><time>2026-04-18T08:08:01Z</time></trkpt><trkpt lat="45.11296598159306" lon="7.246168049795951"><ele>390.0</ele><time>2026-04-18T08:08:02Z</time></trkpt><trkpt lat="45.11303636368927" lon="7.24599637249243"><ele>390.0</ele><time>2026-04-18T08:08:03Z</time></trkpt><trkpt lat="45.11309645171377" lon="7.245818996655594"><ele>390.0</ele><time>2026-04-18T08:08:04Z</time></trkpt><trkpt lat="45.1131468409556" lon="7.245624623166785"><ele>390.0</ele><time>2026-04-18T08:08:05Z</time></trkpt><trkpt lat="45.113211166531755" lon="7.245437978486922"><ele>390.0</ele><time>2026-04-18T08:08:06Z</time></trkpt><trkpt lat="45.113290556179" lon="7.245227254414531"><ele>390.33333333333337</ele><time>2026-04-18T08:08:07Z</time></trkpt><trkpt lat="45.113364694805924" lon="7.2449962267100085"><ele>390.6666666666667</ele><time>2026-04-18T08:08:08Z</time></trkpt><trkpt lat="45.11343995304166" lon="7.2447578064058415"><ele>391.0</ele><time>2026-04-18T08:08:09Z</time></trkpt><trkpt lat="45.11349636838728" lon="7.2445207833508"><ele>391.0</ele><time>2026-04-18T08:08:10Z</time></trkpt><trkpt lat="45.11355070305867" lon="7.244289362186474"><ele>391.0</ele><time>2026-04-18T08:08:11Z</time></trkpt><trkpt lat="45.113626808694775" lon="7.244068669184332"><ele>391.0</ele><time>2026-04-18T08:08:12Z</time></trkpt><trkpt lat="45.113704401543444" lon="7.243869695077521"><ele>390.6666666666667</ele><time>2026-04-18T08:08:13Z</time></trkpt><trkpt lat="45.11379562657239" lon="7.243654345436504"><ele>390.33333333333337</ele><time>2026-04-18T08:08:14Z</time></trkpt><trkpt lat="45.113882246646945" lon="7.243401051355022"><ele>390.0</ele><time>2026-04-18T08:08:15Z</time></trkpt><trkpt lat="45.113959395012984" lon="7.24316004395621"><ele>390.33333333333337</ele><time>2026-04-18T08:08:16Z</time></trkpt><trkpt lat="45.114038876664175" lon="7.242936518190079"><ele>390.6666666666667</ele><time>2026-04-18T08:08:17Z</time></trkpt><trkpt lat="45.114115770722556" lon="7.242704606775946"><ele>391.0</ele><time>2026-04-18T08:08:18Z</time></trkpt><trkpt lat="45.11418666390072" lon="7.242478639676807"><ele>391.33333333333337</ele><time>2026-04-18T08:08:19Z</time></trkpt><trkpt lat="45.11425406518335" lon="7.242257062400598"><ele>391.66666666666663</ele><time>2026-04-18T08:08:20Z</time></trkpt><trkpt lat="45.11432168865136" lon="7.242039592774991"><ele>392.0</ele><time>2026-04-18T08:08:21Z</time></trkpt><trkpt lat="45.114393886514804" lon="7.241831930517855"><ele>392.0</ele><time>2026-04-18T08:08:22Z</time></trkpt><trkpt lat="45.11445961844779" lon="7.241636664518284"><ele>392.0</ele><time>2026-04-18T08:08:23Z</time></trkpt><trkpt lat="45.11456412607017" lon="7.241413547095364"><ele>392.0</ele><time>2026-04-18T08:08:24Z</time></trkpt><trkpt lat="45.114635054037926" lon="7.241179987656466"><ele>392.66666666666663</ele><time>2026-04-18T08:08:25Z</time></trkpt><trkpt lat="45.11473046972708" lon="7.2409660221933265"><ele>393.33333333333337</ele><time>2026-04-18T08:08:26Z</time></trkpt><trkpt lat="45.11483597357273" lon="7.240749098126688"><ele>394.0</ele><time>2026-04-18T08:08:27Z</time></trkpt><trkpt lat="45.114946428901476" lon="7.240542808159263"><ele>394.0</ele><time>2026-04-18T08:08:28Z</time></trkpt><trkpt lat="45.11505948431848" lon="7.24033046861642"><ele>394.0</ele><time>2026-04-18T08:08:29Z</time></trkpt><trkpt lat="45.11516045285318" lon="7.240125111803636"><ele>394.0</ele><time>2026-04-18T08:08:30Z</time></trkpt><trkpt lat="45.11525395169578" lon="7.23994485592299"><ele>394.5</ele><time>2026-04-18T08:08:31Z</time></trkpt><trkpt lat="45.11534929959937" lon="7.239771341528538"><ele>395.0</ele><time>2026-04-18T08:08:32Z</time></trkpt><trkpt lat="45.1154388739564" lon="7.239611105937089"><ele>395.5</ele><time>2026-04-18T08:08:33Z</time></trkpt><trkpt lat="45.11554580733493" lon="7.239479344730172"><ele>396.0</ele><time>2026-04-18T08:08:34Z</time></trkpt><trkpt lat="45.11562675888602" lon="7.239355568722823"><ele>396.0</ele><time>2026-04-18T08:08:35Z</time></trkpt><trkpt lat="45.11571023977686" lon="7.239232199947285"><ele>396.0</ele><time>2026-04-18T08:08:36Z</time></trkpt><trkpt lat="45.11579201733308" lon="7.239120327665963"><ele>396.0</ele><time>2026-04-18T08:08:37Z</time></trkpt><trkpt lat="45.11587313861916" lon="7.238998172398092"><ele>396.0</ele><time>2026-04-18T08:08:38Z</time></trkpt><trkpt lat="45.115962182235506" lon="7.23889761422165"><ele>395.8333333333333</ele><time>2026-04-18T08:08:39Z</time></trkpt><trkpt lat="45.11603507878537" lon="7.238798230377283"><ele>395.66666666666663</ele><time>2026-04-18T08:08:40Z</time></trkpt><trkpt lat="45.1160898056859" lon="7.23871788168909"><ele>395.5</ele><time>2026-04-18T08:08:41Z</time></trkpt><trkpt lat="45.11613050264125" lon="7.238642526753811"><ele>395.3333333333333</ele><time>2026-04-18T08:08:42Z</time></trkpt><trkpt lat="45.11619307068848" lon="7.238594595613442"><ele>395.16666666666663</ele><time>2026-04-18T08:08:44Z</time></trkpt><trkpt lat="45.116307737155964" lon="7.238565675171292"><ele>395.0</ele><time>2026-04-18T08:08:47Z</time></trkpt><trkpt lat="45.1164380419688" lon="7.2385239056074475"><ele>394.99999999999994</ele><time>2026-04-18T08:08:49Z</time></trkpt><trkpt lat="45.11649440380699" lon="7.238459470248512"><ele>395.0</ele><time>2026-04-18T08:08:50Z</time></trkpt><trkpt lat="45.11653851426378" lon="7.238369565250623"><ele>395.0</ele><time>2026-04-18T08:08:51Z</time></trkpt><trkpt lat="45.1165764639437" lon="7.2382870391167895"><ele>395.0</ele><time>2026-04-18T08:08:52Z</time></trkpt><trkpt lat="45.11656764186116" lon="7.238169352453468"><ele>394.99999999999994</ele><time>2026-04-18T08:08:53Z</time></trkpt><trkpt lat="45.11650323707335" lon="7.237984345361707"><ele>395.0</ele><time>2026-04-18T08:08:54Z</time></trkpt><trkpt lat="45.116487311091134" lon="7.2378742158107565"><ele>395.0</ele><time>2026-04-18T08:08:55Z</time></trkpt><trkpt lat="45.11656379248694" lon="7.237741452003927"><ele>395.0</ele><time>2026-04-18T08:08:56Z</time></trkpt><trkpt lat="45.116623263962104" lon="7.237615996596225"><ele>395.0</ele><time>2026-04-18T08:08:57Z</time></trkpt><trkpt lat="45.11671729896804" lon="7.23745283584863"><ele>395.0</ele><time>2026-04-18T08:08:58Z</time></trkpt><trkpt lat="45.11683762831" lon="7.237306550812425"><ele>395.3333333333333</ele><time>2026-04-18T08:08:59Z</time></trkpt><trkpt lat="45.116929308765435" lon="7.237116725711187"><ele>395.66666666666663</ele><time>2026-04-18T08:09:00Z</time></trkpt><trkpt lat="45.11703503835845" lon="7.236934237777997"><ele>396.0</ele><time>2026-04-18T08:09:01Z</time></trkpt><trkpt lat="45.11713899447046" lon="7.236750051794078"><ele>396.0</ele><time>2026-04-18T08:09:02Z</time></trkpt><trkpt lat="45.11724515303674" lon="7.236587189945324"><ele>396.0</ele><time>2026-04-18T08:09:03Z</time></trkpt><trkpt lat="45.11735662753575" lon="7.236418936438935"><ele>396.0</ele><time>2026-04-18T08:09:04Z</time></trkpt><trkpt lat="45.117480443389965" lon="7.236233793125351"><ele>396.33333333333337</ele><time>2026-04-18T08:09:05Z</time></trkpt><trkpt lat="45.11759951115621" lon="7.236046975423342"><ele>396.6666666666667</ele><time>2026-04-18T08:09:06Z</time></trkpt><trkpt lat="45.11772799006677" lon="7.235828701984765"><ele>397.0</ele><time>2026-04-18T08:09:07Z</time></trkpt><trkpt lat="45.117848406335376" lon="7.235659886143256"><ele>397.6666666666667</ele><time>2026-04-18T08:09:08Z</time></trkpt><trkpt lat="45.11797498952816" lon="7.235463326490534"><ele>398.33333333333337</ele><time>2026-04-18T08:09:09Z</time></trkpt><trkpt lat="45.118093546386476" lon="7.2352427258323875"><ele>399.0</ele><time>2026-04-18T08:09:10Z</time></trkpt><trkpt lat="45.11821474849348" lon="7.235053932534831"><ele>399.0</ele><time>2026-04-18T08:09:11Z</time></trkpt><trkpt lat="45.11834384668846" lon="7.234845546646193"><ele>399.0</ele><time>2026-04-18T08:09:12Z</time></trkpt><trkpt lat="45.11845089567209" lon="7.234633173418059"><ele>399.0</ele><time>2026-04-18T08:09:13Z</time></trkpt><trkpt lat="45.11857419301471" lon="7.234469384459706"><ele>398.66666666666663</ele><time>2026-04-18T08:09:14Z</time></trkpt><trkpt lat="45.11868816289855" lon="7.234256333373511"><ele>398.3333333333333</ele><time>2026-04-18T08:09:15Z</time></trkpt><trkpt lat="45.11876418028662" lon="7.234009810693677"><ele>398.0</ele><time>2026-04-18T08:09:16Z</time></trkpt><trkpt lat="45.11884348900301" lon="7.233719304373466"><ele>399.0</ele><time>2026-04-18T08:09:17Z</time></trkpt><trkpt lat="45.11893128397066" lon="7.23346258453959"><ele>400.0</ele><time>2026-04-18T08:09:18Z</time></trkpt><trkpt lat="45.11900070091528" lon="7.233192433433397"><ele>401.0</ele><time>2026-04-18T08:09:19Z</time></trkpt><trkpt lat="45.11906869757863" lon="7.232936383522483"><ele>401.0</ele><time>2026-04-18T08:09:20Z</time></trkpt><trkpt lat="45.11914138438959" lon="7.232701245935307"><ele>401.0</ele><time>2026-04-18T08:09:21Z</time></trkpt><trkpt lat="45.11921730614651" lon="7.232491956640956"><ele>401.0</ele><time>2026-04-18T08:09:22Z</time></trkpt><trkpt lat="45.11927124779858" lon="7.232284331972152"><ele>401.4</ele><time>2026-04-18T08:09:23Z</time></trkpt><trkpt lat="45.11930065809774" lon="7.232098265383913"><ele>401.8</ele><time>2026-04-18T08:09:24Z</time></trkpt><trkpt lat="45.11932559395189" lon="7.231939399517589"><ele>402.2</ele><time>2026-04-18T08:09:25Z</time></trkpt><trkpt lat="45.11936873549542" lon="7.231822703550833"><ele>402.59999999999997</ele><time>2026-04-18T08:09:26Z</time></trkpt><trkpt lat="45.11942484241238" lon="7.231695106840021"><ele>403.0</ele><time>2026-04-18T08:09:27Z</time></trkpt><trkpt lat="45.119479725474406" lon="7.2315763807385744"><ele>403.0</ele><time>2026-04-18T08:09:28Z</time></trkpt><trkpt lat="45.11950884061543" lon="7.231466338101304"><ele>403.0</ele><time>2026-04-18T08:09:29Z</time></trkpt><trkpt lat="45.119500332667265" lon="7.23133275010918"><ele>403.0</ele><time>2026-04-18T08:09:30Z</time></trkpt><trkpt lat="45.119450444059595" lon="7.231181723561963"><ele>403.0</ele><time>2026-04-18T08:09:31Z</time></trkpt><trkpt lat="45.11939459788049" lon="7.2310078522928976"><ele>403.0</ele><time>2026-04-18T08:09:32Z</time></trkpt><trkpt lat="45.11940053892266" lon="7.230791172514792"><ele>402.6666666666667</ele><time>2026-04-18T08:09:33Z</time></trkpt><trkpt lat="45.119389669251895" lon="7.2305456110918875"><ele>402.33333333333337</ele><time>2026-04-18T08:09:34Z</time></trkpt><trkpt lat="45.11938716194914" lon="7.230262322084236"><ele>402.0</ele><time>2026-04-18T08:09:35Z</time></trkpt><trkpt lat="45.11939910294308" lon="7.229956407167191"><ele>402.33333333333337</ele><time>2026-04-18T08:09:36Z</time></trkpt><trkpt lat="45.11943782390368" lon="7.229646327532788"><ele>402.6666666666667</ele><time>2026-04-18T08:09:37Z</time></trkpt><trkpt lat="45.11942653441285" lon="7.229344458800679"><ele>403.0</ele><time>2026-04-18T08:09:38Z</time></trkpt><trkpt lat="45.11943984175957" lon="7.2290728259339945"><ele>403.6666666666667</ele><time>2026-04-18T08:09:39Z</time></trkpt><trkpt lat="45.1194537888698" lon="7.228816796937674"><ele>404.33333333333337</ele><time>2026-04-18T08:09:40Z</time></trkpt><trkpt lat="45.11946766695295" lon="7.228526890229183"><ele>405.0</ele><time>2026-04-18T08:09:41Z</time></trkpt><trkpt lat="45.119478056375186" lon="7.228234468943505"><ele>405.0</ele><time>2026-04-18T08:09:42Z</time></trkpt><trkpt lat="45.119491142672345" lon="7.227930558757274"><ele>405.0</ele><time>2026-04-18T08:09:43Z</time></trkpt><trkpt lat="45.11950917138972" lon="7.227645991228448"><ele>405.0</ele><time>2026-04-18T08:09:44Z</time></trkpt><trkpt lat="45.11951750093046" lon="7.2273459178245405"><ele>405.33333333333337</ele><time>2026-04-18T08:09:45Z</time></trkpt><trkpt lat="45.11952469101306" lon="7.227032843417187"><ele>405.6666666666667</ele><time>2026-04-18T08:09:46Z</time></trkpt><trkpt lat="45.11953105914435" lon="7.226713128717575"><ele>406.0</ele><time>2026-04-18T08:09:47Z</time></trkpt><trkpt lat="45.11950819392158" lon="7.226365382734275"><ele>406.0</ele><time>2026-04-18T08:09:48Z</time></trkpt><trkpt lat="45.11947955826859" lon="7.226040089731064"><ele>406.0</ele><time>2026-04-18T08:09:49Z</time></trkpt><trkpt lat="45.11947311905996" lon="7.2257405420546"><ele>406.0</ele><time>2026-04-18T08:09:50Z</time></trkpt><trkpt lat="45.11945252237038" lon="7.225418156893295"><ele>406.0</ele><time>2026-04-18T08:09:51Z</time></trkpt><trkpt lat="45.119426631452576" lon="7.225097287002729"><ele>406.0</ele><time>2026-04-18T08:09:52Z</time></trkpt><trkpt lat="45.11941788169601" lon="7.224779826368491"><ele>405.5</ele><time>2026-04-18T08:09:53Z</time></trkpt><trkpt lat="45.11939555629097" lon="7.224449328133516"><ele>405.0</ele><time>2026-04-18T08:09:54Z</time></trkpt><trkpt lat="45.11937208926308" lon="7.224133797149892"><ele>405.66666666666663</ele><time>2026-04-18T08:09:55Z</time></trkpt><trkpt lat="45.11935957939379" lon="7.223829015286425"><ele>406.3333333333333</ele><time>2026-04-18T08:09:56Z</time></trkpt><trkpt lat="45.11935172488551" lon="7.22351930313475"><ele>407.0</ele><time>2026-04-18T08:09:57Z</time></trkpt><trkpt lat="45.119338853540604" lon="7.22321155595528"><ele>407.0</ele><time>2026-04-18T08:09:58Z</time></trkpt><trkpt lat="45.1193352527167" lon="7.222898162686745"><ele>407.0</ele><time>2026-04-18T08:09:59Z</time></trkpt><trkpt lat="45.119338058505946" lon="7.222581950740079"><ele>407.0</ele><time>2026-04-18T08:10:00Z</time></trkpt><trkpt lat="45.1193385864" lon="7.22226590987736"><ele>407.5</ele><time>2026-04-18T08:10:01Z</time></trkpt><trkpt lat="45.11934045721886" lon="7.221942820456646"><ele>408.0</ele><time>2026-04-18T08:10:02Z</time></trkpt><trkpt lat="45.1193509261918" lon="7.221618820826898"><ele>407.66666666666663</ele><time>2026-04-18T08:10:03Z</time></trkpt><trkpt lat="45.119352675731896" lon="7.22131347859811"><ele>407.3333333333333</ele><time>2026-04-18T08:10:04Z</time></trkpt><trkpt lat="45.11933615882809" lon="7.221009588375278"><ele>407.0</ele><time>2026-04-18T08:10:05Z</time></trkpt><trkpt lat="45.11932850290606" lon="7.220716170545944"><ele>407.0</ele><time>2026-04-18T08:10:06Z</time></trkpt><trkpt lat="45.11930515107699" lon="7.220408372307387"><ele>407.0</ele><time>2026-04-18T08:10:07Z</time></trkpt><trkpt lat="45.11926815343035" lon="7.220098621407446"><ele>407.0</ele><time>2026-04-18T08:10:08Z</time></trkpt><trkpt lat="45.119225637615486" lon="7.2197808937723025"><ele>407.0</ele><time>2026-04-18T08:10:09Z</time></trkpt><trkpt lat="45.119177999877294" lon="7.219468536568523"><ele>407.0</ele><time>2026-04-18T08:10:10Z</time></trkpt><trkpt lat="45.119138204392655" lon="7.219138707842422"><ele>407.0</ele><time>2026-04-18T08:10:11Z</time></trkpt><trkpt lat="45.11910522257029" lon="7.218814676302979"><ele>407.0</ele><time>2026-04-18T08:10:12Z</time></trkpt><trkpt lat="45.11907914152104" lon="7.2185191318990185"><ele>407.0</ele><time>2026-04-18T08:10:13Z</time></trkpt><trkpt lat="45.11904481761918" lon="7.218205143345135"><ele>406.66666666666663</ele><time>2026-04-18T08:10:14Z</time></trkpt><trkpt lat="45.119011885753295" lon="7.217907305566023"><ele>406.33333333333337</ele><time>2026-04-18T08:10:15Z</time></trkpt><trkpt lat="45.118980429612485" lon="7.217616955129448"><ele>406.0</ele><time>2026-04-18T08:10:16Z</time></trkpt><trkpt lat="45.11895137285476" lon="7.217339150853981"><ele>404.6666666666667</ele><time>2026-04-18T08:10:17Z</time></trkpt><trkpt lat="45.11892459682072" lon="7.217061381413773"><ele>403.33333333333337</ele><time>2026-04-18T08:10:18Z</time></trkpt><trkpt lat="45.11889131108232" lon="7.216787467865601"><ele>402.0</ele><time>2026-04-18T08:10:19Z</time></trkpt><trkpt lat="45.11886670204614" lon="7.216502024844084"><ele>402.0</ele><time>2026-04-18T08:10:20Z</time></trkpt><trkpt lat="45.11883720085828" lon="7.216241527444574"><ele>402.0</ele><time>2026-04-18T08:10:21Z</time></trkpt><trkpt lat="45.118807533718496" lon="7.215981485249321"><ele>402.0</ele><time>2026-04-18T08:10:22Z</time></trkpt><trkpt lat="45.11878469562912" lon="7.215740465623338"><ele>402.0</ele><time>2026-04-18T08:10:23Z</time></trkpt><trkpt lat="45.11875617543436" lon="7.215505814713564"><ele>402.0</ele><time>2026-04-18T08:10:24Z</time></trkpt><trkpt lat="45.11873144360428" lon="7.215286005104724"><ele>402.0</ele><time>2026-04-18T08:10:25Z</time></trkpt><trkpt lat="45.11872130394447" lon="7.215062857224664"><ele>402.0</ele><time>2026-04-18T08:10:26Z</time></trkpt><trkpt lat="45.11873226754927" lon="7.214852384102102"><ele>402.0</ele><time>2026-04-18T08:10:27Z</time></trkpt><trkpt lat="45.11874333371838" lon="7.2146575814057385"><ele>402.0</ele><time>2026-04-18T08:10:28Z</time></trkpt><trkpt lat="45.1187526536796" lon="7.214489009943771"><ele>402.0</ele><time>2026-04-18T08:10:29Z</time></trkpt><trkpt lat="45.118762332324124" lon="7.214313950691637"><ele>402.40000000000003</ele><time>2026-04-18T08:10:30Z</time></trkpt><trkpt lat="45.11877105501867" lon="7.2141426073946935"><ele>402.8</ele><time>2026-04-18T08:10:31Z</time></trkpt><trkpt lat="45.11877880354744" lon="7.213988718912024"><ele>403.2</ele><time>2026-04-18T08:10:32Z</time></trkpt><trkpt lat="45.118787059523925" lon="7.21384421211868"><ele>403.6</ele><time>2026-04-18T08:10:33Z</time></trkpt><trkpt lat="45.118795730209705" lon="7.2137012795221995"><ele>404.0</ele><time>2026-04-18T08:10:34Z</time></trkpt><trkpt lat="45.11880447204943" lon="7.21355717361472"><ele>405.0</ele><time>2026-04-18T08:10:35Z</time></trkpt><trkpt lat="45.11880101785836" lon="7.213378205030342"><ele>406.0</ele><time>2026-04-18T08:10:36Z</time></trkpt><trkpt lat="45.11883956973494" lon="7.213222460716601"><ele>407.0</ele><time>2026-04-18T08:10:37Z</time></trkpt><trkpt lat="45.118847054203336" lon="7.213045393648371"><ele>408.0</ele><time>2026-04-18T08:10:38Z</time></trkpt><trkpt lat="45.11885839076879" lon="7.212856695522012"><ele>409.25</ele><time>2026-04-18T08:10:39Z</time></trkpt><trkpt lat="45.11887503416553" lon="7.212672549846969"><ele>410.5</ele><time>2026-04-18T08:10:40Z</time></trkpt><trkpt lat="45.118896343118124" lon="7.212471256791386"><ele>411.75</ele><time>2026-04-18T08:10:41Z</time></trkpt><trkpt lat="45.118929569145315" lon="7.212280322975803"><ele>413.0</ele><time>2026-04-18T08:10:42Z</time></trkpt><trkpt lat="45.11897304489604" lon="7.212083189837879"><ele>412.0</ele><time>2026-04-18T08:10:43Z</time></trkpt><trkpt lat="45.118992638341396" lon="7.211894663334163"><ele>411.0</ele><time>2026-04-18T08:10:44Z</time></trkpt><trkpt lat="45.11902845644108" lon="7.211703049761915"><ele>410.0</ele><time>2026-04-18T08:10:45Z</time></trkpt><trkpt lat="45.119056689672014" lon="7.2115231507617965"><ele>409.0</ele><time>2026-04-18T08:10:46Z</time></trkpt><trkpt lat="45.11910961914066" lon="7.211343444872022"><ele>409.0</ele><time>2026-04-18T08:10:47Z</time></trkpt><trkpt lat="45.11914532606945" lon="7.2111694990525965"><ele>409.0</ele><time>2026-04-18T08:10:48Z</time></trkpt><trkpt lat="45.11916510808476" lon="7.2109579965443"><ele>409.0</ele><time>2026-04-18T08:10:49Z</time></trkpt><trkpt lat="45.11921164587377" lon="7.210767473783485"><ele>409.0</ele><time>2026-04-18T08:10:50Z</time></trkpt><trkpt lat="45.119273964039806" lon="7.210581847813724"><ele>411.75</ele><time>2026-04-18T08:10:51Z</time></trkpt><trkpt lat="45.11933190554833" lon="7.2103949371890055"><ele>414.5</ele><time>2026-04-18T08:10:52Z</time></trkpt><trkpt lat="45.119405129824145" lon="7.210209507348911"><ele>417.25</ele><time>2026-04-18T08:10:53Z</time></trkpt><trkpt lat="45.11948439727152" lon="7.210038685489992"><ele>420.0</ele><time>2026-04-18T08:10:54Z</time></trkpt><trkpt lat="45.119557125682334" lon="7.2098639616092735"><ele>423.75</ele><time>2026-04-18T08:10:55Z</time></trkpt><trkpt lat="45.119637002192746" lon="7.2096940071702775"><ele>427.5</ele><time>2026-04-18T08:10:56Z</time></trkpt><trkpt lat="45.11971285130201" lon="7.209511017951822"><ele>431.25</ele><time>2026-04-18T08:10:57Z</time></trkpt><trkpt lat="45.1197871866843" lon="7.209330113964111"><ele>435.0</ele><time>2026-04-18T08:10:58Z</time></trkpt><trkpt lat="45.11986352447664" lon="7.209146485578125"><ele>428.33333333333337</ele><time>2026-04-18T08:10:59Z</time></trkpt><trkpt lat="45.11993207460073" lon="7.208958575159735"><ele>421.6666666666667</ele><time>2026-04-18T08:11:00Z</time></trkpt><trkpt lat="45.11998330938539" lon="7.2087501521717305"><ele>415.0</ele><time>2026-04-18T08:11:01Z</time></trkpt><trkpt lat="45.120025786357886" lon="7.208537814785226"><ele>415.0</ele><time>2026-04-18T08:11:02Z</time></trkpt><trkpt lat="45.12007507482026" lon="7.2083182270767745"><ele>415.0</ele><time>2026-04-18T08:11:03Z</time></trkpt><trkpt lat="45.12011684036373" lon="7.208099310895065"><ele>415.0</ele><time>2026-04-18T08:11:04Z</time></trkpt><trkpt lat="45.12016655304332" lon="7.20793296786866"><ele>415.33333333333337</ele><time>2026-04-18T08:11:05Z</time></trkpt><trkpt lat="45.12020627457176" lon="7.207734336639457"><ele>415.66666666666663</ele><time>2026-04-18T08:11:06Z</time></trkpt><trkpt lat="45.12022893759088" lon="7.207493478327592"><ele>416.0</ele><time>2026-04-18T08:11:07Z</time></trkpt><trkpt lat="45.120270263223475" lon="7.207271047473459"><ele>415.0</ele><time>2026-04-18T08:11:08Z</time></trkpt><trkpt lat="45.120303732714454" lon="7.207061985823021"><ele>414.0</ele><time>2026-04-18T08:11:09Z</time></trkpt><trkpt lat="45.12034637029781" lon="7.206861331258749"><ele>413.0</ele><time>2026-04-18T08:11:10Z</time></trkpt><trkpt lat="45.120411677912855" lon="7.206626582420929"><ele>413.5</ele><time>2026-04-18T08:11:11Z</time></trkpt><trkpt lat="45.12045247486065" lon="7.206422776457837"><ele>414.0</ele><time>2026-04-18T08:11:12Z</time></trkpt><trkpt lat="45.120485441066485" lon="7.20622973355955"><ele>414.5</ele><time>2026-04-18T08:11:13Z</time></trkpt><trkpt lat="45.12051631373069" lon="7.206025241286451"><ele>415.0</ele><time>2026-04-18T08:11:14Z</time></trkpt><trkpt lat="45.1205419210006" lon="7.205838218130526"><ele>416.5</ele><time>2026-04-18T08:11:15Z</time></trkpt><trkpt lat="45.120577919217304" lon="7.205661151525936"><ele>418.0</ele><time>2026-04-18T08:11:16Z</time></trkpt><trkpt lat="45.12059820134645" lon="7.205475836844448"><ele>419.5</ele><time>2026-04-18T08:11:17Z</time></trkpt><trkpt lat="45.12062847424525" lon="7.205282487957246"><ele>421.0</ele><time>2026-04-18T08:11:18Z</time></trkpt><trkpt lat="45.12066567531872" lon="7.205096844941247"><ele>421.0</ele><time>2026-04-18T08:11:19Z</time></trkpt><trkpt lat="45.120700405183655" lon="7.20490141050332"><ele>421.0</ele><time>2026-04-18T08:11:20Z</time></trkpt><trkpt lat="45.12073309228933" lon="7.204697320029845"><ele>421.0</ele><time>2026-04-18T08:11:21Z</time></trkpt><trkpt lat="45.12076617259915" lon="7.204502396872856"><ele>421.0</ele><time>2026-04-18T08:11:22Z</time></trkpt><trkpt lat="45.12080249048436" lon="7.2043101069885855"><ele>419.6666666666667</ele><time>2026-04-18T08:11:23Z</time></trkpt><trkpt lat="45.12083991446508" lon="7.204089293598036"><ele>418.33333333333337</ele><time>2026-04-18T08:11:24Z</time></trkpt><trkpt lat="45.120878911083445" lon="7.203878737800042"><ele>417.0</ele><time>2026-04-18T08:11:25Z</time></trkpt><trkpt lat="45.12092343036734" lon="7.20364822083471"><ele>417.0</ele><time>2026-04-18T08:11:26Z</time></trkpt><trkpt lat="45.120959891189884" lon="7.203412305058539"><ele>417.0</ele><time>2026-04-18T08:11:27Z</time></trkpt><trkpt lat="45.121000755562726" lon="7.20317342111396"><ele>417.0</ele><time>2026-04-18T08:11:28Z</time></trkpt><trkpt lat="45.12104163144504" lon="7.202938036855112"><ele>419.33333333333337</ele><time>2026-04-18T08:11:29Z</time></trkpt><trkpt lat="45.121085944846854" lon="7.202687022972336"><ele>421.6666666666667</ele><time>2026-04-18T08:11:30Z</time></trkpt><trkpt lat="45.12112529235364" lon="7.202430602375558"><ele>424.0</ele><time>2026-04-18T08:11:31Z</time></trkpt><trkpt lat="45.121158976102485" lon="7.202164562026028"><ele>426.6666666666667</ele><time>2026-04-18T08:11:32Z</time></trkpt><trkpt lat="45.12119861245492" lon="7.201912419914696"><ele>429.33333333333337</ele><time>2026-04-18T08:11:33Z</time></trkpt><trkpt lat="45.12124226278005" lon="7.201642169935815"><ele>432.0</ele><time>2026-04-18T08:11:34Z</time></trkpt><trkpt lat="45.121297033855456" lon="7.201373666314263"><ele>433.66666666666663</ele><time>2026-04-18T08:11:35Z</time></trkpt><trkpt lat="45.12135062227866" lon="7.201100064217763"><ele>435.3333333333333</ele><time>2026-04-18T08:11:36Z</time></trkpt><trkpt lat="45.12137681972449" lon="7.200829298374721"><ele>437.0</ele><time>2026-04-18T08:11:37Z</time></trkpt><trkpt lat="45.12143566311668" lon="7.200563190670241"><ele>438.0</ele><time>2026-04-18T08:11:38Z</time></trkpt><trkpt lat="45.12149282501616" lon="7.200312722037897"><ele>439.0</ele><time>2026-04-18T08:11:39Z</time></trkpt><trkpt lat="45.12155388649603" lon="7.200079241840753"><ele>440.0</ele><time>2026-04-18T08:11:40Z</time></trkpt><trkpt lat="45.12160489550917" lon="7.199830118790368"><ele>433.0</ele><time>2026-04-18T08:11:41Z</time></trkpt><trkpt lat="45.12162115347168" lon="7.199610640351526"><ele>426.0</ele><time>2026-04-18T08:11:42Z</time></trkpt><trkpt lat="45.12162210070202" lon="7.1993680169317225"><ele>419.0</ele><time>2026-04-18T08:11:43Z</time></trkpt><trkpt lat="45.121612861679935" lon="7.199109140512315"><ele>426.0</ele><time>2026-04-18T08:11:44Z</time></trkpt><trkpt lat="45.12153151640329" lon="7.198793553562358"><ele>433.0</ele><time>2026-04-18T08:11:45Z</time></trkpt><trkpt lat="45.121476027594774" lon="7.198466781921567"><ele>433.0</ele><time>2026-04-18T08:11:46Z</time></trkpt><trkpt lat="45.121458474102035" lon="7.198221725377088"><ele>433.0</ele><time>2026-04-18T08:11:47Z</time></trkpt><trkpt lat="45.1214531336991" lon="7.19795981491272"><ele>433.0</ele><time>2026-04-18T08:11:48Z</time></trkpt><trkpt lat="45.1214413641248" lon="7.197717531904041"><ele>430.6666666666667</ele><time>2026-04-18T08:11:49Z</time></trkpt><trkpt lat="45.12142935966344" lon="7.197475331739558"><ele>428.33333333333337</ele><time>2026-04-18T08:11:50Z</time></trkpt><trkpt lat="45.12142175390478" lon="7.197224214341868"><ele>426.0</ele><time>2026-04-18T08:11:51Z</time></trkpt><trkpt lat="45.12140924026975" lon="7.1970023758785455"><ele>426.0</ele><time>2026-04-18T08:11:52Z</time></trkpt><trkpt lat="45.12142834043198" lon="7.196773936365652"><ele>426.0</ele><time>2026-04-18T08:11:53Z</time></trkpt><trkpt lat="45.1214694836764" lon="7.196557542487153"><ele>426.0</ele><time>2026-04-18T08:11:54Z</time></trkpt><trkpt lat="45.121525066825946" lon="7.196322974213746"><ele>425.66666666666663</ele><time>2026-04-18T08:11:55Z</time></trkpt><trkpt lat="45.12161301242207" lon="7.1960903621237895"><ele>425.3333333333333</ele><time>2026-04-18T08:11:56Z</time></trkpt><trkpt lat="45.121720537425986" lon="7.195865807977445"><ele>425.0</ele><time>2026-04-18T08:11:57Z</time></trkpt><trkpt lat="45.1218163611519" lon="7.195634493070639"><ele>425.0</ele><time>2026-04-18T08:11:58Z</time></trkpt><trkpt lat="45.12192579560558" lon="7.195411412897495"><ele>425.0</ele><time>2026-04-18T08:11:59Z</time></trkpt><trkpt lat="45.122021647165006" lon="7.195157510188247"><ele>425.0</ele><time>2026-04-18T08:12:00Z</time></trkpt><trkpt lat="45.1221285730523" lon="7.194951701956954"><ele>425.0</ele><time>2026-04-18T08:12:01Z</time></trkpt><trkpt lat="45.12225264193455" lon="7.19475868758337"><ele>425.0</ele><time>2026-04-18T08:12:02Z</time></trkpt><trkpt lat="45.122372575887304" lon="7.194558752037365"><ele>425.0</ele><time>2026-04-18T08:12:03Z</time></trkpt><trkpt lat="45.12246882405897" lon="7.194400530496304"><ele>425.0</ele><time>2026-04-18T08:12:04Z</time></trkpt><trkpt lat="45.12256969209761" lon="7.194233465009644"><ele>425.0</ele><time>2026-04-18T08:12:05Z</time></trkpt><trkpt lat="45.12265866283117" lon="7.194057022148538"><ele>425.0</ele><time>2026-04-18T08:12:06Z</time></trkpt><trkpt lat="45.12275753663077" lon="7.193911322187829"><ele>427.0</ele><time>2026-04-18T08:12:07Z</time></trkpt><trkpt lat="45.12285675963197" lon="7.193740845552097"><ele>429.0</ele><time>2026-04-18T08:12:08Z</time></trkpt><trkpt lat="45.12295628911833" lon="7.19355969764202"><ele>431.0</ele><time>2026-04-18T08:12:09Z</time></trkpt><trkpt lat="45.123050362767366" lon="7.193362731542194"><ele>432.3333333333333</ele><time>2026-04-18T08:12:10Z</time></trkpt><trkpt lat="45.12312537207195" lon="7.193135850512512"><ele>433.66666666666663</ele><time>2026-04-18T08:12:11Z</time></trkpt><trkpt lat="45.12321796908228" lon="7.192891729087708"><ele>435.0</ele><time>2026-04-18T08:12:12Z</time></trkpt><trkpt lat="45.12329915086159" lon="7.192657393614775"><ele>433.33333333333337</ele><time>2026-04-18T08:12:13Z</time></trkpt><trkpt lat="45.12337808574343" lon="7.192434344864143"><ele>431.6666666666667</ele><time>2026-04-18T08:12:14Z</time></trkpt><trkpt lat="45.123469914106145" lon="7.192195613007171"><ele>430.0</ele><time>2026-04-18T08:12:15Z</time></trkpt><trkpt lat="45.123548310932534" lon="7.1919681865056555"><ele>430.0</ele><time>2026-04-18T08:12:16Z</time></trkpt><trkpt lat="45.12363942905578" lon="7.191738353314005"><ele>430.0</ele><time>2026-04-18T08:12:17Z</time></trkpt><trkpt lat="45.12372468448118" lon="7.191489139797697"><ele>430.0</ele><time>2026-04-18T08:12:18Z</time></trkpt><trkpt lat="45.12381407765628" lon="7.191260946376931"><ele>431.33333333333337</ele><time>2026-04-18T08:12:19Z</time></trkpt><trkpt lat="45.12391405683048" lon="7.191021217146893"><ele>432.66666666666663</ele><time>2026-04-18T08:12:20Z</time></trkpt><trkpt lat="45.123983357886296" lon="7.190778147809528"><ele>434.0</ele><time>2026-04-18T08:12:21Z</time></trkpt><trkpt lat="45.1240651767955" lon="7.190547285524042"><ele>434.3333333333333</ele><time>2026-04-18T08:12:22Z</time></trkpt><trkpt lat="45.124143109577005" lon="7.190311247474408"><ele>434.66666666666663</ele><time>2026-04-18T08:12:23Z</time></trkpt><trkpt lat="45.124202036843805" lon="7.1900509998621605"><ele>435.0</ele><time>2026-04-18T08:12:24Z</time></trkpt><trkpt lat="45.124257326787394" lon="7.189799312988689"><ele>435.0</ele><time>2026-04-18T08:12:25Z</time></trkpt><trkpt lat="45.12432322150594" lon="7.189557360645992"><ele>435.0</ele><time>2026-04-18T08:12:26Z</time></trkpt><trkpt lat="45.124388980080944" lon="7.189290910472829"><ele>435.0</ele><time>2026-04-18T08:12:27Z</time></trkpt><trkpt lat="45.12444809094152" lon="7.189044286806954"><ele>434.33333333333337</ele><time>2026-04-18T08:12:28Z</time></trkpt><trkpt lat="45.12449460778262" lon="7.188787552859077"><ele>433.6666666666667</ele><time>2026-04-18T08:12:29Z</time></trkpt><trkpt lat="45.12452108257024" lon="7.188512550597791"><ele>433.0</ele><time>2026-04-18T08:12:30Z</time></trkpt><trkpt lat="45.12453522596284" lon="7.1882382688968525"><ele>432.33333333333337</ele><time>2026-04-18T08:12:31Z</time></trkpt><trkpt lat="45.12451083591797" lon="7.1879772704060265"><ele>431.66666666666663</ele><time>2026-04-18T08:12:32Z</time></trkpt><trkpt lat="45.12448583612622" lon="7.187696110833227"><ele>431.0</ele><time>2026-04-18T08:12:33Z</time></trkpt><trkpt lat="45.12447590153503" lon="7.187449816983563"><ele>430.3333333333333</ele><time>2026-04-18T08:12:34Z</time></trkpt><trkpt lat="45.12448906605273" lon="7.187161193503845"><ele>429.66666666666663</ele><time>2026-04-18T08:12:35Z</time></trkpt><trkpt lat="45.12447552813478" lon="7.186900530689005"><ele>429.0</ele><time>2026-04-18T08:12:36Z</time></trkpt><trkpt lat="45.124484691463515" lon="7.186644510735622"><ele>430.0</ele><time>2026-04-18T08:12:37Z</time></trkpt><trkpt lat="45.12449723512483" lon="7.186379627055882"><ele>431.0</ele><time>2026-04-18T08:12:38Z</time></trkpt><trkpt lat="45.12450390218035" lon="7.186133858234273"><ele>432.0</ele><time>2026-04-18T08:12:39Z</time></trkpt><trkpt lat="45.1245081306266" lon="7.185906746911263"><ele>434.33333333333337</ele><time>2026-04-18T08:12:40Z</time></trkpt><trkpt lat="45.124525697755175" lon="7.185671411682012"><ele>436.6666666666667</ele><time>2026-04-18T08:12:41Z</time></trkpt><trkpt lat="45.124520538784466" lon="7.185440577985046"><ele>439.0</ele><time>2026-04-18T08:12:42Z</time></trkpt><trkpt lat="45.124505415656984" lon="7.185242870330813"><ele>439.0</ele><time>2026-04-18T08:12:43Z</time></trkpt><trkpt lat="45.12453835838574" lon="7.185044269509899"><ele>439.0</ele><time>2026-04-18T08:12:44Z</time></trkpt><trkpt lat="45.124600530833725" lon="7.184846329369688"><ele>439.0</ele><time>2026-04-18T08:12:45Z</time></trkpt><trkpt lat="45.12466796418623" lon="7.184649564561436"><ele>440.0</ele><time>2026-04-18T08:12:46Z</time></trkpt><trkpt lat="45.12476504079335" lon="7.18448577429455"><ele>441.0</ele><time>2026-04-18T08:12:47Z</time></trkpt><trkpt lat="45.12485756205226" lon="7.184350382545303"><ele>442.0</ele><time>2026-04-18T08:12:48Z</time></trkpt><trkpt lat="45.12499820086231" lon="7.184186740817559"><ele>442.0</ele><time>2026-04-18T08:12:49Z</time></trkpt><trkpt lat="45.12511107243792" lon="7.184051126736011"><ele>442.0</ele><time>2026-04-18T08:12:50Z</time></trkpt><trkpt lat="45.12521986679839" lon="7.183916019836283"><ele>442.0</ele><time>2026-04-18T08:12:51Z</time></trkpt><trkpt lat="45.125357608035706" lon="7.183824112535398"><ele>442.0</ele><time>2026-04-18T08:12:52Z</time></trkpt><trkpt lat="45.12545419158506" lon="7.183711761767356"><ele>441.75</ele><time>2026-04-18T08:12:53Z</time></trkpt><trkpt lat="45.125553190798946" lon="7.183602336697999"><ele>441.5</ele><time>2026-04-18T08:12:54Z</time></trkpt><trkpt lat="45.12562544956109" lon="7.183508699470223"><ele>441.25</ele><time>2026-04-18T08:12:55Z</time></trkpt><trkpt lat="45.125719999092674" lon="7.183419026972175"><ele>441.0</ele><time>2026-04-18T08:12:56Z</time></trkpt><trkpt lat="45.12582038486537" lon="7.183322964834732"><ele>441.0</ele><time>2026-04-18T08:12:57Z</time></trkpt><trkpt lat="45.12591679806497" lon="7.18322085440366"><ele>441.0</ele><time>2026-04-18T08:12:58Z</time></trkpt><trkpt lat="45.12600974995094" lon="7.1831145386676365"><ele>441.0</ele><time>2026-04-18T08:12:59Z</time></trkpt><trkpt lat="45.12610582746602" lon="7.183010485820881"><ele>441.0</ele><time>2026-04-18T08:13:00Z</time></trkpt><trkpt lat="45.1261963868213" lon="7.182921555950203"><ele>441.6</ele><time>2026-04-18T08:13:01Z</time></trkpt><trkpt lat="45.126276310667414" lon="7.182827225835495"><ele>442.20000000000005</ele><time>2026-04-18T08:13:02Z</time></trkpt><trkpt lat="45.126350696321644" lon="7.182725270618242"><ele>442.79999999999995</ele><time>2026-04-18T08:13:03Z</time></trkpt><trkpt lat="45.126423717089224" lon="7.182623771297927"><ele>443.4</ele><time>2026-04-18T08:13:04Z</time></trkpt><trkpt lat="45.12647611118005" lon="7.1824899628491"><ele>444.0</ele><time>2026-04-18T08:13:05Z</time></trkpt><trkpt lat="45.12654452573834" lon="7.182365135775284"><ele>442.75</ele><time>2026-04-18T08:13:06Z</time></trkpt><trkpt lat="45.12661064323071" lon="7.182237572491545"><ele>441.5</ele><time>2026-04-18T08:13:07Z</time></trkpt><trkpt lat="45.1266540489861" lon="7.1820486561365025"><ele>440.25</ele><time>2026-04-18T08:13:08Z</time></trkpt><trkpt lat="45.12670753259997" lon="7.181880728658449"><ele>439.0</ele><time>2026-04-18T08:13:09Z</time></trkpt><trkpt lat="45.126752736787665" lon="7.181704655153494"><ele>439.0</ele><time>2026-04-18T08:13:10Z</time></trkpt><trkpt lat="45.126790096396654" lon="7.181519431646016"><ele>439.0</ele><time>2026-04-18T08:13:11Z</time></trkpt><trkpt lat="45.12681566331271" lon="7.181309049974328"><ele>439.0</ele><time>2026-04-18T08:13:12Z</time></trkpt><trkpt lat="45.12685344668873" lon="7.181111116121809"><ele>439.0</ele><time>2026-04-18T08:13:13Z</time></trkpt><trkpt lat="45.126878267867916" lon="7.180911070148241"><ele>439.0</ele><time>2026-04-18T08:13:14Z</time></trkpt><trkpt lat="45.12691770201796" lon="7.180744759026802"><ele>439.0</ele><time>2026-04-18T08:13:15Z</time></trkpt><trkpt lat="45.126944718917045" lon="7.1805524100888425"><ele>439.0</ele><time>2026-04-18T08:13:16Z</time></trkpt><trkpt lat="45.12695326288226" lon="7.1803396227792975"><ele>439.0</ele><time>2026-04-18T08:13:17Z</time></trkpt><trkpt lat="45.12695859912147" lon="7.180146631729652"><ele>439.0</ele><time>2026-04-18T08:13:18Z</time></trkpt><trkpt lat="45.12696602780134" lon="7.179951489204966"><ele>439.0</ele><time>2026-04-18T08:13:19Z</time></trkpt><trkpt lat="45.1269489428243" lon="7.179736360535501"><ele>439.0</ele><time>2026-04-18T08:13:20Z</time></trkpt><trkpt lat="45.1269673121807" lon="7.179535783469855"><ele>439.0</ele><time>2026-04-18T08:13:21Z</time></trkpt><trkpt lat="45.126981390255395" lon="7.179338332208038"><ele>438.75</ele><time>2026-04-18T08:13:22Z</time></trkpt><trkpt lat="45.126987781838864" lon="7.17914401233837"><ele>438.5</ele><time>2026-04-18T08:13:23Z</time></trkpt><trkpt lat="45.12700287417233" lon="7.178957420456638"><ele>438.25</ele><time>2026-04-18T08:13:24Z</time></trkpt><trkpt lat="45.12700740965206" lon="7.178766964641991"><ele>438.0</ele><time>2026-04-18T08:13:25Z</time></trkpt><trkpt lat="45.12702332127198" lon="7.178584724372511"><ele>438.0</ele><time>2026-04-18T08:13:26Z</time></trkpt><trkpt lat="45.12703131144381" lon="7.178394128060016"><ele>438.0</ele><time>2026-04-18T08:13:27Z</time></trkpt><trkpt lat="45.12704238808585" lon="7.178227232110484"><ele>438.0</ele><time>2026-04-18T08:13:28Z</time></trkpt><trkpt lat="45.12705149053482" lon="7.1780168213972315"><ele>438.0</ele><time>2026-04-18T08:13:29Z</time></trkpt><trkpt lat="45.1270599611793" lon="7.177821237088292"><ele>436.75</ele><time>2026-04-18T08:13:30Z</time></trkpt><trkpt lat="45.127071871932095" lon="7.1776207661024065"><ele>435.5</ele><time>2026-04-18T08:13:31Z</time></trkpt><trkpt lat="45.12710474134171" lon="7.177413571568757"><ele>434.25</ele><time>2026-04-18T08:13:32Z</time></trkpt><trkpt lat="45.12715015996528" lon="7.177210880846345"><ele>433.0</ele><time>2026-04-18T08:13:33Z</time></trkpt><trkpt lat="45.1272044228204" lon="7.177008958854983"><ele>432.5</ele><time>2026-04-18T08:13:34Z</time></trkpt><trkpt lat="45.12726084592752" lon="7.176807529090162"><ele>432.0</ele><time>2026-04-18T08:13:35Z</time></trkpt><trkpt lat="45.12733725189804" lon="7.176639908264719"><ele>431.5</ele><time>2026-04-18T08:13:36Z</time></trkpt><trkpt lat="45.127412897148226" lon="7.1764743577869785"><ele>431.0</ele><time>2026-04-18T08:13:37Z</time></trkpt><trkpt lat="45.12750400995825" lon="7.17632454865868"><ele>429.66666666666663</ele><time>2026-04-18T08:13:38Z</time></trkpt><trkpt lat="45.127615112680225" lon="7.176193555363355"><ele>428.33333333333337</ele><time>2026-04-18T08:13:39Z</time></trkpt><trkpt lat="45.12773228976726" lon="7.176043476092949"><ele>427.0</ele><time>2026-04-18T08:13:40Z</time></trkpt><trkpt lat="45.12786408564582" lon="7.175872520270293"><ele>427.0</ele><time>2026-04-18T08:13:41Z</time></trkpt><trkpt lat="45.12802990640086" lon="7.175657386709559"><ele>427.0</ele><time>2026-04-18T08:13:42Z</time></trkpt><trkpt lat="45.128151741554866" lon="7.1754826459206695"><ele>427.0</ele><time>2026-04-18T08:13:43Z</time></trkpt><trkpt lat="45.128279804928745" lon="7.175337333521905"><ele>427.0</ele><time>2026-04-18T08:13:44Z</time></trkpt><trkpt lat="45.128409904842535" lon="7.17518391870378"><ele>427.0</ele><time>2026-04-18T08:13:45Z</time></trkpt><trkpt lat="45.12853093835008" lon="7.175014416047259"><ele>427.0</ele><time>2026-04-18T08:13:46Z</time></trkpt><trkpt lat="45.12866768719141" lon="7.17485609716946"><ele>427.0</ele><time>2026-04-18T08:13:47Z</time></trkpt><trkpt lat="45.12880333566732" lon="7.174711068383569"><ele>427.0</ele><time>2026-04-18T08:13:48Z</time></trkpt><trkpt lat="45.12893837123798" lon="7.174545967925552"><ele>427.0</ele><time>2026-04-18T08:13:49Z</time></trkpt><trkpt lat="45.12906071599211" lon="7.174352600696828"><ele>427.0</ele><time>2026-04-18T08:13:50Z</time></trkpt><trkpt lat="45.12918769620278" lon="7.174192816514883"><ele>427.0</ele><time>2026-04-18T08:13:51Z</time></trkpt><trkpt lat="45.12931837426319" lon="7.1739957183291265"><ele>427.0</ele><time>2026-04-18T08:13:52Z</time></trkpt><trkpt lat="45.129437168482404" lon="7.17382133246096"><ele>428.0</ele><time>2026-04-18T08:13:53Z</time></trkpt><trkpt lat="45.12955275647419" lon="7.1736650065163285"><ele>429.0</ele><time>2026-04-18T08:13:54Z</time></trkpt><trkpt lat="45.12968495928713" lon="7.173528959307048"><ele>430.0</ele><time>2026-04-18T08:13:55Z</time></trkpt><trkpt lat="45.12980428264193" lon="7.17336869496269"><ele>429.33333333333337</ele><time>2026-04-18T08:13:56Z</time></trkpt><trkpt lat="45.12991357283151" lon="7.173219072462366"><ele>428.66666666666663</ele><time>2026-04-18T08:13:57Z</time></trkpt><trkpt lat="45.13003212804045" lon="7.173063138072773"><ele>428.0</ele><time>2026-04-18T08:13:58Z</time></trkpt><trkpt lat="45.13014725159527" lon="7.172902600090361"><ele>428.0</ele><time>2026-04-18T08:13:59Z</time></trkpt><trkpt lat="45.130242191507996" lon="7.172735367409591"><ele>428.0</ele><time>2026-04-18T08:14:00Z</time></trkpt><trkpt lat="45.13033819877985" lon="7.172531134875377"><ele>428.0</ele><time>2026-04-18T08:14:01Z</time></trkpt><trkpt lat="45.1304223873535" lon="7.172318081616273"><ele>429.0</ele><time>2026-04-18T08:14:02Z</time></trkpt><trkpt lat="45.13047337250499" lon="7.172087061684715"><ele>430.0</ele><time>2026-04-18T08:14:03Z</time></trkpt><trkpt lat="45.130507446178335" lon="7.171836310477508"><ele>431.0</ele><time>2026-04-18T08:14:04Z</time></trkpt><trkpt lat="45.13054589203371" lon="7.171551729769241"><ele>431.3333333333333</ele><time>2026-04-18T08:14:05Z</time></trkpt><trkpt lat="45.130589388856855" lon="7.171270419370058"><ele>431.66666666666663</ele><time>2026-04-18T08:14:06Z</time></trkpt><trkpt lat="45.1306077488272" lon="7.17097689122069"><ele>432.0</ele><time>2026-04-18T08:14:07Z</time></trkpt><trkpt lat="45.13063599085789" lon="7.170679000564914"><ele>432.66666666666663</ele><time>2026-04-18T08:14:08Z</time></trkpt><trkpt lat="45.13067650689213" lon="7.170405503861019"><ele>433.3333333333333</ele><time>2026-04-18T08:14:09Z</time></trkpt><trkpt lat="45.130708655136374" lon="7.170137025724533"><ele>434.0</ele><time>2026-04-18T08:14:10Z</time></trkpt><trkpt lat="45.13074657987542" lon="7.169864560822101"><ele>432.3333333333333</ele><time>2026-04-18T08:14:11Z</time></trkpt><trkpt lat="45.13078362437292" lon="7.169592833253282"><ele>430.66666666666663</ele><time>2026-04-18T08:14:12Z</time></trkpt><trkpt lat="45.13080403464231" lon="7.169329520646552"><ele>429.0</ele><time>2026-04-18T08:14:13Z</time></trkpt><trkpt lat="45.13085276593521" lon="7.1690807145085165"><ele>429.0</ele><time>2026-04-18T08:14:14Z</time></trkpt><trkpt lat="45.130880071069065" lon="7.168828238987225"><ele>429.0</ele><time>2026-04-18T08:14:15Z</time></trkpt><trkpt lat="45.13092701524326" lon="7.168582365587802"><ele>429.0</ele><time>2026-04-18T08:14:16Z</time></trkpt><trkpt lat="45.13097093121654" lon="7.16834827487982"><ele>429.0</ele><time>2026-04-18T08:14:17Z</time></trkpt><trkpt lat="45.131003742815054" lon="7.168096701436693"><ele>429.0</ele><time>2026-04-18T08:14:18Z</time></trkpt><trkpt lat="45.13103762146341" lon="7.167854371137675"><ele>429.0</ele><time>2026-04-18T08:14:19Z</time></trkpt><trkpt lat="45.13107553464757" lon="7.167597749311125"><ele>429.66666666666663</ele><time>2026-04-18T08:14:20Z</time></trkpt><trkpt lat="45.13110207775519" lon="7.167342923296002"><ele>430.3333333333333</ele><time>2026-04-18T08:14:21Z</time></trkpt><trkpt lat="45.13114053836405" lon="7.1671061616408425"><ele>431.0</ele><time>2026-04-18T08:14:22Z</time></trkpt><trkpt lat="45.131167429147226" lon="7.166840315957154"><ele>431.0</ele><time>2026-04-18T08:14:23Z</time></trkpt><trkpt lat="45.1311951052134" lon="7.166603556674521"><ele>431.0</ele><time>2026-04-18T08:14:24Z</time></trkpt><trkpt lat="45.13123372561569" lon="7.166367668718532"><ele>431.0</ele><time>2026-04-18T08:14:25Z</time></trkpt><trkpt lat="45.13126458236694" lon="7.16613316604002"><ele>431.3333333333333</ele><time>2026-04-18T08:14:26Z</time></trkpt><trkpt lat="45.13129901946217" lon="7.165912794953418"><ele>431.66666666666663</ele><time>2026-04-18T08:14:27Z</time></trkpt><trkpt lat="45.131354250336486" lon="7.165683388864552"><ele>432.0</ele><time>2026-04-18T08:14:28Z</time></trkpt><trkpt lat="45.13140318771676" lon="7.165460964727685"><ele>432.66666666666663</ele><time>2026-04-18T08:14:29Z</time></trkpt><trkpt lat="45.131457506250506" lon="7.165240108925055"><ele>433.3333333333333</ele><time>2026-04-18T08:14:30Z</time></trkpt><trkpt lat="45.131531612770736" lon="7.16501718069711"><ele>434.0</ele><time>2026-04-18T08:14:31Z</time></trkpt><trkpt lat="45.13163343579286" lon="7.164791226707766"><ele>432.66666666666663</ele><time>2026-04-18T08:14:32Z</time></trkpt><trkpt lat="45.13172149131045" lon="7.1645685133223305"><ele>431.33333333333337</ele><time>2026-04-18T08:14:33Z</time></trkpt><trkpt lat="45.1318053642169" lon="7.164352693312049"><ele>430.0</ele><time>2026-04-18T08:14:34Z</time></trkpt><trkpt lat="45.131890353732885" lon="7.1641505603039874"><ele>431.0</ele><time>2026-04-18T08:14:35Z</time></trkpt><trkpt lat="45.13196551523142" lon="7.1639407384794795"><ele>432.0</ele><time>2026-04-18T08:14:36Z</time></trkpt><trkpt lat="45.13204784133212" lon="7.163729137680201"><ele>433.0</ele><time>2026-04-18T08:14:37Z</time></trkpt><trkpt lat="45.13213020916017" lon="7.163527069365541"><ele>433.0</ele><time>2026-04-18T08:14:38Z</time></trkpt><trkpt lat="45.132209511342566" lon="7.163327498351325"><ele>433.0</ele><time>2026-04-18T08:14:39Z</time></trkpt><trkpt lat="45.1322949816462" lon="7.163122035391532"><ele>433.0</ele><time>2026-04-18T08:14:40Z</time></trkpt><trkpt lat="45.13236907548686" lon="7.162911759558369"><ele>433.0</ele><time>2026-04-18T08:14:41Z</time></trkpt><trkpt lat="45.13245916326431" lon="7.162682833468639"><ele>433.0</ele><time>2026-04-18T08:14:42Z</time></trkpt><trkpt lat="45.13255067570412" lon="7.162440548730563"><ele>433.0</ele><time>2026-04-18T08:14:43Z</time></trkpt><trkpt lat="45.13264286471009" lon="7.162207979517085"><ele>432.33333333333337</ele><time>2026-04-18T08:14:44Z</time></trkpt><trkpt lat="45.13273408516836" lon="7.161976361277781"><ele>431.66666666666663</ele><time>2026-04-18T08:14:45Z</time></trkpt><trkpt lat="45.13283417840685" lon="7.161729427012262"><ele>431.0</ele><time>2026-04-18T08:14:46Z</time></trkpt><trkpt lat="45.13296635456647" lon="7.16139144951158"><ele>431.0</ele><time>2026-04-18T08:14:47Z</time></trkpt><trkpt lat="45.13304863556248" lon="7.161102933161978"><ele>431.0</ele><time>2026-04-18T08:14:48Z</time></trkpt><trkpt lat="45.13313165295293" lon="7.160865959882059"><ele>431.0</ele><time>2026-04-18T08:14:49Z</time></trkpt><trkpt lat="45.133194933409676" lon="7.160622879346189"><ele>432.0</ele><time>2026-04-18T08:14:50Z</time></trkpt><trkpt lat="45.13325193193787" lon="7.160405204220938"><ele>433.0</ele><time>2026-04-18T08:14:51Z</time></trkpt><trkpt lat="45.133306227058554" lon="7.160154928066072"><ele>434.0</ele><time>2026-04-18T08:14:52Z</time></trkpt><trkpt lat="45.13335428402147" lon="7.159956966808769"><ele>434.66666666666663</ele><time>2026-04-18T08:14:53Z</time></trkpt><trkpt lat="45.13342348396757" lon="7.159758844839772"><ele>435.33333333333337</ele><time>2026-04-18T08:14:54Z</time></trkpt><trkpt lat="45.133472799262776" lon="7.159551550464341"><ele>436.0</ele><time>2026-04-18T08:14:55Z</time></trkpt><trkpt lat="45.13351900147184" lon="7.159349254493357"><ele>436.0</ele><time>2026-04-18T08:14:56Z</time></trkpt><trkpt lat="45.13355338515319" lon="7.159137615697953"><ele>436.0</ele><time>2026-04-18T08:14:57Z</time></trkpt><trkpt lat="45.13360694202874" lon="7.15892577732051"><ele>436.0</ele><time>2026-04-18T08:14:58Z</time></trkpt><trkpt lat="45.133658771273566" lon="7.158715393927004"><ele>435.6666666666667</ele><time>2026-04-18T08:14:59Z</time></trkpt><trkpt lat="45.1337114805681" lon="7.158507754175141"><ele>435.33333333333337</ele><time>2026-04-18T08:15:00Z</time></trkpt><trkpt lat="45.133759243156504" lon="7.158299862143058"><ele>435.0</ele><time>2026-04-18T08:15:01Z</time></trkpt><trkpt lat="45.13381437813248" lon="7.1580827304927634"><ele>435.66666666666663</ele><time>2026-04-18T08:15:02Z</time></trkpt><trkpt lat="45.133870364306496" lon="7.157879174356232"><ele>436.3333333333333</ele><time>2026-04-18T08:15:03Z</time></trkpt><trkpt lat="45.133932227619276" lon="7.157673316887439"><ele>437.0</ele><time>2026-04-18T08:15:04Z</time></trkpt><trkpt lat="45.1340074906317" lon="7.157460640598374"><ele>437.0</ele><time>2026-04-18T08:15:05Z</time></trkpt><trkpt lat="45.13408851262232" lon="7.157253540139927"><ele>437.0</ele><time>2026-04-18T08:15:06Z</time></trkpt><trkpt lat="45.13416793909251" lon="7.157053038739931"><ele>437.0</ele><time>2026-04-18T08:15:07Z</time></trkpt><trkpt lat="45.1342505253017" lon="7.156840845712919"><ele>437.0</ele><time>2026-04-18T08:15:08Z</time></trkpt><trkpt lat="45.13433340775173" lon="7.156637960265279"><ele>437.0</ele><time>2026-04-18T08:15:09Z</time></trkpt><trkpt lat="45.13442057604634" lon="7.1564248559292105"><ele>437.0</ele><time>2026-04-18T08:15:10Z</time></trkpt><trkpt lat="45.13449870128354" lon="7.156205723830216"><ele>437.3333333333333</ele><time>2026-04-18T08:15:11Z</time></trkpt><trkpt lat="45.13458681167287" lon="7.155993418500141"><ele>437.66666666666663</ele><time>2026-04-18T08:15:12Z</time></trkpt><trkpt lat="45.1346718043413" lon="7.155774154183165"><ele>438.0</ele><time>2026-04-18T08:15:13Z</time></trkpt><trkpt lat="45.13475330358034" lon="7.155553769534497"><ele>438.0</ele><time>2026-04-18T08:15:14Z</time></trkpt><trkpt lat="45.13484092506255" lon="7.1553383879073875"><ele>438.0</ele><time>2026-04-18T08:15:15Z</time></trkpt><trkpt lat="45.13492950858829" lon="7.155132877041333"><ele>438.0</ele><time>2026-04-18T08:15:16Z</time></trkpt><trkpt lat="45.135009272058575" lon="7.154908492057654"><ele>437.66666666666663</ele><time>2026-04-18T08:15:17Z</time></trkpt><trkpt lat="45.135090392716194" lon="7.154684116486451"><ele>437.3333333333333</ele><time>2026-04-18T08:15:18Z</time></trkpt><trkpt lat="45.13517023693167" lon="7.154456677721699"><ele>437.0</ele><time>2026-04-18T08:15:19Z</time></trkpt><trkpt lat="45.13522592787039" lon="7.154234603923923"><ele>437.3333333333333</ele><time>2026-04-18T08:15:20Z</time></trkpt><trkpt lat="45.13527943052661" lon="7.154008532655081"><ele>437.66666666666663</ele><time>2026-04-18T08:15:21Z</time></trkpt><trkpt lat="45.13531431039056" lon="7.153804784529898"><ele>438.0</ele><time>2026-04-18T08:15:22Z</time></trkpt><trkpt lat="45.13534641410814" lon="7.1535896505072785"><ele>438.0</ele><time>2026-04-18T08:15:23Z</time></trkpt><trkpt lat="45.135365596582254" lon="7.153397057729317"><ele>438.0</ele><time>2026-04-18T08:15:24Z</time></trkpt><trkpt lat="45.13537231571962" lon="7.153198656991473"><ele>438.0</ele><time>2026-04-18T08:15:25Z</time></trkpt><trkpt lat="45.13536963198959" lon="7.153026519755283"><ele>438.0</ele><time>2026-04-18T08:15:26Z</time></trkpt><trkpt lat="45.135378737486086" lon="7.152882003571351"><ele>438.2</ele><time>2026-04-18T08:15:27Z</time></trkpt><trkpt lat="45.13541590879939" lon="7.152797192519789"><ele>438.4</ele><time>2026-04-18T08:15:29Z</time></trkpt><trkpt lat="45.13543769932066" lon="7.152694637210621"><ele>438.59999999999997</ele><time>2026-04-18T08:15:32Z</time></trkpt><trkpt lat="45.135481774904726" lon="7.152561236604835"><ele>438.79999999999995</ele><time>2026-04-18T08:15:34Z</time></trkpt><trkpt lat="45.13549799567275" lon="7.152461848304856"><ele>439.0</ele><time>2026-04-18T08:15:35Z</time></trkpt><trkpt lat="45.1354897920572" lon="7.152243666394709"><ele>439.33333333333337</ele><time>2026-04-18T08:15:37Z</time></trkpt><trkpt lat="45.13546073604193" lon="7.152080061872231"><ele>439.66666666666663</ele><time>2026-04-18T08:15:38Z</time></trkpt><trkpt lat="45.135449710617" lon="7.15183938931729"><ele>440.0</ele><time>2026-04-18T08:15:39Z</time></trkpt><trkpt lat="45.135474708882285" lon="7.151546982479376"><ele>441.0</ele><time>2026-04-18T08:15:40Z</time></trkpt><trkpt lat="45.13548056075862" lon="7.151307285908552"><ele>442.0</ele><time>2026-04-18T08:15:41Z</time></trkpt><trkpt lat="45.135485893430534" lon="7.15105270378354"><ele>443.0</ele><time>2026-04-18T08:15:42Z</time></trkpt><trkpt lat="45.13550427665623" lon="7.150785308953476"><ele>443.0</ele><time>2026-04-18T08:15:43Z</time></trkpt><trkpt lat="45.13550854539484" lon="7.150529541811432"><ele>443.0</ele><time>2026-04-18T08:15:44Z</time></trkpt><trkpt lat="45.13551913834705" lon="7.150272665049805"><ele>443.0</ele><time>2026-04-18T08:15:45Z</time></trkpt><trkpt lat="45.13552238507151" lon="7.15002263839034"><ele>443.3333333333333</ele><time>2026-04-18T08:15:46Z</time></trkpt><trkpt lat="45.13554930844158" lon="7.149797945143745"><ele>443.66666666666663</ele><time>2026-04-18T08:15:47Z</time></trkpt><trkpt lat="45.135575438198494" lon="7.1495556134028595"><ele>444.0</ele><time>2026-04-18T08:15:48Z</time></trkpt><trkpt lat="45.135584127541804" lon="7.149320163249418"><ele>444.0</ele><time>2026-04-18T08:15:49Z</time></trkpt><trkpt lat="45.13559925089838" lon="7.149084757714305"><ele>444.0</ele><time>2026-04-18T08:15:50Z</time></trkpt><trkpt lat="45.13561053238198" lon="7.148844881317619"><ele>444.0</ele><time>2026-04-18T08:15:51Z</time></trkpt><trkpt lat="45.135626167960105" lon="7.14863183477501"><ele>444.25</ele><time>2026-04-18T08:15:52Z</time></trkpt><trkpt lat="45.135640580016165" lon="7.148423709504339"><ele>444.5</ele><time>2026-04-18T08:15:53Z</time></trkpt><trkpt lat="45.1356466674491" lon="7.148217497871885"><ele>444.75</ele><time>2026-04-18T08:15:54Z</time></trkpt><trkpt lat="45.135648730553086" lon="7.148019440652651"><ele>445.0</ele><time>2026-04-18T08:15:55Z</time></trkpt><trkpt lat="45.13565378353275" lon="7.147814147034505"><ele>446.0</ele><time>2026-04-18T08:15:56Z</time></trkpt><trkpt lat="45.13565963073112" lon="7.147605397939386"><ele>447.0</ele><time>2026-04-18T08:15:57Z</time></trkpt><trkpt lat="45.13567636078682" lon="7.1474352694148635"><ele>448.0</ele><time>2026-04-18T08:15:58Z</time></trkpt><trkpt lat="45.135687585563765" lon="7.147252451140709"><ele>449.0</ele><time>2026-04-18T08:15:59Z</time></trkpt><trkpt lat="45.1356975602178" lon="7.147095552815299"><ele>448.99999999999994</ele><time>2026-04-18T08:16:00Z</time></trkpt><trkpt lat="45.13569264646221" lon="7.146951179300619"><ele>449.0</ele><time>2026-04-18T08:16:01Z</time></trkpt><trkpt lat="45.13568018434361" lon="7.146844469846603"><ele>449.0</ele><time>2026-04-18T08:16:02Z</time></trkpt><trkpt lat="45.13568201457643" lon="7.146720079291014"><ele>449.0</ele><time>2026-04-18T08:16:03Z</time></trkpt><trkpt lat="45.13570081844626" lon="7.14660283286037"><ele>448.99999999999994</ele><time>2026-04-18T08:16:04Z</time></trkpt><trkpt lat="45.13571821397858" lon="7.146478164568966"><ele>449.0</ele><time>2026-04-18T08:16:05Z</time></trkpt><trkpt lat="45.13572973283261" lon="7.146327896310854"><ele>449.0</ele><time>2026-04-18T08:16:06Z</time></trkpt><trkpt lat="45.13574105397001" lon="7.146163598631552"><ele>449.0</ele><time>2026-04-18T08:16:07Z</time></trkpt><trkpt lat="45.135755743126964" lon="7.145970035791377"><ele>449.0</ele><time>2026-04-18T08:16:08Z</time></trkpt><trkpt lat="45.135770360569275" lon="7.1457661072587175"><ele>449.0</ele><time>2026-04-18T08:16:09Z</time></trkpt><trkpt lat="45.13577692095372" lon="7.145506145583294"><ele>449.0</ele><time>2026-04-18T08:16:10Z</time></trkpt><trkpt lat="45.13578014149795" lon="7.145275340252118"><ele>449.0</ele><time>2026-04-18T08:16:11Z</time></trkpt><trkpt lat="45.13578960485994" lon="7.145052308647935"><ele>449.0</ele><time>2026-04-18T08:16:12Z</time></trkpt><trkpt lat="45.135799237893224" lon="7.144828576131031"><ele>449.3333333333333</ele><time>2026-04-18T08:16:13Z</time></trkpt><trkpt lat="45.13580069771301" lon="7.144599905588288"><ele>449.66666666666663</ele><time>2026-04-18T08:16:14Z</time></trkpt><trkpt lat="45.13580707368551" lon="7.144371403680415"><ele>450.0</ele><time>2026-04-18T08:16:15Z</time></trkpt><trkpt lat="45.13581863142463" lon="7.144155119385602"><ele>450.0</ele><time>2026-04-18T08:16:16Z</time></trkpt><trkpt lat="45.13583018952605" lon="7.143920508614477"><ele>450.0</ele><time>2026-04-18T08:16:17Z</time></trkpt><trkpt lat="45.13584111581164" lon="7.143697518033022"><ele>450.0</ele><time>2026-04-18T08:16:18Z</time></trkpt><trkpt lat="45.135841910488054" lon="7.143466552837281"><ele>450.0</ele><time>2026-04-18T08:16:19Z</time></trkpt><trkpt lat="45.13583777927773" lon="7.143248524002094"><ele>450.0</ele><time>2026-04-18T08:16:20Z</time></trkpt><trkpt lat="45.13580680066633" lon="7.143001931392258"><ele>450.0</ele><time>2026-04-18T08:16:21Z</time></trkpt><trkpt lat="45.13577083837971" lon="7.142748228922409"><ele>450.66666666666663</ele><time>2026-04-18T08:16:22Z</time></trkpt><trkpt lat="45.13574711380984" lon="7.1425095236766625"><ele>451.3333333333333</ele><time>2026-04-18T08:16:23Z</time></trkpt><trkpt lat="45.13570243583542" lon="7.142259399558233"><ele>452.0</ele><time>2026-04-18T08:16:24Z</time></trkpt><trkpt lat="45.13567542289073" lon="7.142025589835852"><ele>452.0</ele><time>2026-04-18T08:16:25Z</time></trkpt><trkpt lat="45.13564152396597" lon="7.141787126735372"><ele>452.0</ele><time>2026-04-18T08:16:26Z</time></trkpt><trkpt lat="45.13561982801938" lon="7.141542524548308"><ele>452.0</ele><time>2026-04-18T08:16:27Z</time></trkpt><trkpt lat="45.1355777656059" lon="7.1412876225614585"><ele>452.3333333333333</ele><time>2026-04-18T08:16:28Z</time></trkpt><trkpt lat="45.13554222948972" lon="7.141022104512956"><ele>452.66666666666663</ele><time>2026-04-18T08:16:29Z</time></trkpt><trkpt lat="45.13550491475741" lon="7.140729037619449"><ele>453.0</ele><time>2026-04-18T08:16:30Z</time></trkpt><trkpt lat="45.13546123799305" lon="7.140448023763204"><ele>453.0</ele><time>2026-04-18T08:16:31Z</time></trkpt><trkpt lat="45.13541370183641" lon="7.140181626509154"><ele>453.0</ele><time>2026-04-18T08:16:32Z</time></trkpt><trkpt lat="45.13535288165059" lon="7.139936944921277"><ele>453.0</ele><time>2026-04-18T08:16:33Z</time></trkpt><trkpt lat="45.13528299779168" lon="7.139700161857481"><ele>453.0</ele><time>2026-04-18T08:16:34Z</time></trkpt><trkpt lat="45.135239589174624" lon="7.139486237773007"><ele>453.0</ele><time>2026-04-18T08:16:35Z</time></trkpt><trkpt lat="45.13518848073949" lon="7.139244535308376"><ele>453.0</ele><time>2026-04-18T08:16:36Z</time></trkpt><trkpt lat="45.13513690307876" lon="7.138998171263402"><ele>452.33333333333337</ele><time>2026-04-18T08:16:37Z</time></trkpt><trkpt lat="45.13506634048279" lon="7.138759350110474"><ele>451.6666666666667</ele><time>2026-04-18T08:16:38Z</time></trkpt><trkpt lat="45.134999251747885" lon="7.138532699368486"><ele>451.0</ele><time>2026-04-18T08:16:39Z</time></trkpt><trkpt lat="45.134936883097645" lon="7.1383084314360685"><ele>452.6666666666667</ele><time>2026-04-18T08:16:40Z</time></trkpt><trkpt lat="45.134877961823555" lon="7.138076920980173"><ele>454.33333333333337</ele><time>2026-04-18T08:16:41Z</time></trkpt><trkpt lat="45.13481405204436" lon="7.1378299537718215"><ele>456.0</ele><time>2026-04-18T08:16:42Z</time></trkpt><trkpt lat="45.13474655772243" lon="7.137588403335764"><ele>455.0</ele><time>2026-04-18T08:16:43Z</time></trkpt><trkpt lat="45.13467182977644" lon="7.137336250378044"><ele>454.0</ele><time>2026-04-18T08:16:44Z</time></trkpt><trkpt lat="45.134593689812334" lon="7.13708795258167"><ele>453.0</ele><time>2026-04-18T08:16:45Z</time></trkpt><trkpt lat="45.13450991565475" lon="7.1368452451198365"><ele>453.0</ele><time>2026-04-18T08:16:46Z</time></trkpt><trkpt lat="45.134434017265654" lon="7.136597062538011"><ele>453.0</ele><time>2026-04-18T08:16:47Z</time></trkpt><trkpt lat="45.134358474788876" lon="7.136370023975491"><ele>453.0</ele><time>2026-04-18T08:16:48Z</time></trkpt><trkpt lat="45.134288066061934" lon="7.136142032759877"><ele>452.0</ele><time>2026-04-18T08:16:49Z</time></trkpt><trkpt lat="45.134217392014506" lon="7.135915740378412"><ele>451.0</ele><time>2026-04-18T08:16:50Z</time></trkpt><trkpt lat="45.13414847565238" lon="7.135690374849182"><ele>450.0</ele><time>2026-04-18T08:16:51Z</time></trkpt><trkpt lat="45.13407905939664" lon="7.135467865576873"><ele>450.33333333333337</ele><time>2026-04-18T08:16:52Z</time></trkpt><trkpt lat="45.13401341075501" lon="7.135241948306693"><ele>450.6666666666667</ele><time>2026-04-18T08:16:53Z</time></trkpt><trkpt lat="45.133938621886536" lon="7.1350172031588865"><ele>451.0</ele><time>2026-04-18T08:16:54Z</time></trkpt><trkpt lat="45.13386348065112" lon="7.134785244509761"><ele>451.0</ele><time>2026-04-18T08:16:55Z</time></trkpt><trkpt lat="45.13378793929199" lon="7.134564043978938"><ele>451.0</ele><time>2026-04-18T08:16:56Z</time></trkpt><trkpt lat="45.133713931013" lon="7.134336237820008"><ele>451.0</ele><time>2026-04-18T08:16:57Z</time></trkpt><trkpt lat="45.13364354835364" lon="7.134113533642964"><ele>451.0</ele><time>2026-04-18T08:16:58Z</time></trkpt><trkpt lat="45.133570073428125" lon="7.133900082095301"><ele>451.0</ele><time>2026-04-18T08:16:59Z</time></trkpt><trkpt lat="45.133514850600505" lon="7.133678826945101"><ele>451.0</ele><time>2026-04-18T08:17:00Z</time></trkpt><trkpt lat="45.13346478934806" lon="7.133460265354119"><ele>451.0</ele><time>2026-04-18T08:17:01Z</time></trkpt><trkpt lat="45.13341665152191" lon="7.133231719146578"><ele>451.0</ele><time>2026-04-18T08:17:02Z</time></trkpt><trkpt lat="45.13337396591749" lon="7.132987643750469"><ele>451.0</ele><time>2026-04-18T08:17:03Z</time></trkpt><trkpt lat="45.133340778118125" lon="7.13274729284472"><ele>449.6666666666667</ele><time>2026-04-18T08:17:04Z</time></trkpt><trkpt lat="45.13332702805418" lon="7.132486648841127"><ele>448.33333333333337</ele><time>2026-04-18T08:17:05Z</time></trkpt><trkpt lat="45.133296339947854" lon="7.132230335984425"><ele>447.0</ele><time>2026-04-18T08:17:06Z</time></trkpt><trkpt lat="45.133285079217444" lon="7.1319646048045096"><ele>446.0</ele><time>2026-04-18T08:17:07Z</time></trkpt><trkpt lat="45.13327238162864" lon="7.131691277585301"><ele>445.0</ele><time>2026-04-18T08:17:08Z</time></trkpt><trkpt lat="45.13327421132525" lon="7.1314357705274185"><ele>444.0</ele><time>2026-04-18T08:17:09Z</time></trkpt><trkpt lat="45.133276129328" lon="7.131182811311319"><ele>444.0</ele><time>2026-04-18T08:17:10Z</time></trkpt><trkpt lat="45.13324419243746" lon="7.130924045583683"><ele>444.0</ele><time>2026-04-18T08:17:11Z</time></trkpt><trkpt lat="45.133235855184935" lon="7.130671421739516"><ele>444.0</ele><time>2026-04-18T08:17:12Z</time></trkpt><trkpt lat="45.13323802749953" lon="7.13041137296509"><ele>444.33333333333337</ele><time>2026-04-18T08:17:13Z</time></trkpt><trkpt lat="45.13323132151077" lon="7.130165822929799"><ele>444.6666666666667</ele><time>2026-04-18T08:17:14Z</time></trkpt><trkpt lat="45.1332244152855" lon="7.129914170134416"><ele>445.0</ele><time>2026-04-18T08:17:15Z</time></trkpt><trkpt lat="45.1332182742437" lon="7.129659316747129"><ele>447.6666666666667</ele><time>2026-04-18T08:17:16Z</time></trkpt><trkpt lat="45.13321580417084" lon="7.129413940440245"><ele>450.33333333333337</ele><time>2026-04-18T08:17:17Z</time></trkpt><trkpt lat="45.13321184718432" lon="7.129182821480257"><ele>453.0</ele><time>2026-04-18T08:17:18Z</time></trkpt><trkpt lat="45.133204922556565" lon="7.128951294086524"><ele>454.33333333333337</ele><time>2026-04-18T08:17:19Z</time></trkpt><trkpt lat="45.1331918746105" lon="7.12871134938972"><ele>455.6666666666667</ele><time>2026-04-18T08:17:20Z</time></trkpt><trkpt lat="45.13318244350849" lon="7.128471390796374"><ele>457.0</ele><time>2026-04-18T08:17:21Z</time></trkpt><trkpt lat="45.133169122190715" lon="7.128231045076986"><ele>456.0</ele><time>2026-04-18T08:17:22Z</time></trkpt><trkpt lat="45.133146057118914" lon="7.127981950878251"><ele>455.0</ele><time>2026-04-18T08:17:23Z</time></trkpt><trkpt lat="45.13311177771002" lon="7.127731823252773"><ele>454.0</ele><time>2026-04-18T08:17:24Z</time></trkpt><trkpt lat="45.13305709893638" lon="7.127533524178097"><ele>452.6666666666667</ele><time>2026-04-18T08:17:25Z</time></trkpt><trkpt lat="45.132981428692126" lon="7.12729231270554"><ele>451.33333333333337</ele><time>2026-04-18T08:17:26Z</time></trkpt><trkpt lat="45.13291639486132" lon="7.127066954656741"><ele>450.0</ele><time>2026-04-18T08:17:27Z</time></trkpt><trkpt lat="45.13283893175046" lon="7.126853689273611"><ele>450.0</ele><time>2026-04-18T08:17:28Z</time></trkpt><trkpt lat="45.132771103488835" lon="7.126631065761195"><ele>450.0</ele><time>2026-04-18T08:17:29Z</time></trkpt><trkpt lat="45.13269938149265" lon="7.1264088896873865"><ele>450.0</ele><time>2026-04-18T08:17:30Z</time></trkpt><trkpt lat="45.132634745823516" lon="7.12618663469612"><ele>449.33333333333337</ele><time>2026-04-18T08:17:31Z</time></trkpt><trkpt lat="45.13255851580212" lon="7.125991735889881"><ele>448.6666666666667</ele><time>2026-04-18T08:17:32Z</time></trkpt><trkpt lat="45.132468092169894" lon="7.125787549131171"><ele>448.0</ele><time>2026-04-18T08:17:33Z</time></trkpt><trkpt lat="45.13237804925521" lon="7.1255933574064585"><ele>448.0</ele><time>2026-04-18T08:17:34Z</time></trkpt><trkpt lat="45.13226765216658" lon="7.125454524664119"><ele>448.0</ele><time>2026-04-18T08:17:35Z</time></trkpt><trkpt lat="45.132146140085915" lon="7.125266666143958"><ele>448.0</ele><time>2026-04-18T08:17:36Z</time></trkpt><trkpt lat="45.13199698275842" lon="7.125124770299167"><ele>448.0</ele><time>2026-04-18T08:17:37Z</time></trkpt><trkpt lat="45.13187616441933" lon="7.124970516707482"><ele>448.0</ele><time>2026-04-18T08:17:38Z</time></trkpt><trkpt lat="45.131773365957315" lon="7.124812970528283"><ele>448.0</ele><time>2026-04-18T08:17:39Z</time></trkpt><trkpt lat="45.13169010448321" lon="7.124643050816354"><ele>447.6666666666667</ele><time>2026-04-18T08:17:40Z</time></trkpt><trkpt lat="45.131620147012434" lon="7.124447892382473"><ele>447.33333333333337</ele><time>2026-04-18T08:17:41Z</time></trkpt><trkpt lat="45.131555840142134" lon="7.124224924565085"><ele>447.0</ele><time>2026-04-18T08:17:42Z</time></trkpt><trkpt lat="45.131535132658236" lon="7.123986528166026"><ele>447.0</ele><time>2026-04-18T08:17:43Z</time></trkpt><trkpt lat="45.13153372797034" lon="7.123732606678965"><ele>447.0</ele><time>2026-04-18T08:17:44Z</time></trkpt><trkpt lat="45.131545320261594" lon="7.123497852929701"><ele>447.0</ele><time>2026-04-18T08:17:45Z</time></trkpt><trkpt lat="45.13155623408683" lon="7.123243583314718"><ele>446.33333333333337</ele><time>2026-04-18T08:17:46Z</time></trkpt><trkpt lat="45.13161468326289" lon="7.122966206572826"><ele>445.6666666666667</ele><time>2026-04-18T08:17:47Z</time></trkpt><trkpt lat="45.13165608591166" lon="7.122685679077028"><ele>445.0</ele><time>2026-04-18T08:17:48Z</time></trkpt><trkpt lat="45.131703793719154" lon="7.122422710041384"><ele>445.6666666666667</ele><time>2026-04-18T08:17:49Z</time></trkpt><trkpt lat="45.13174414681128" lon="7.122172060145127"><ele>446.33333333333337</ele><time>2026-04-18T08:17:50Z</time></trkpt><trkpt lat="45.13178820162342" lon="7.121901016935031"><ele>447.0</ele><time>2026-04-18T08:17:51Z</time></trkpt><trkpt lat="45.13181710013084" lon="7.121630942806293"><ele>447.33333333333337</ele><time>2026-04-18T08:17:52Z</time></trkpt><trkpt lat="45.13185916902263" lon="7.121375616677684"><ele>447.6666666666667</ele><time>2026-04-18T08:17:53Z</time></trkpt><trkpt lat="45.13191132529182" lon="7.121105997178246"><ele>448.0</ele><time>2026-04-18T08:17:54Z</time></trkpt><trkpt lat="45.131927028284856" lon="7.1208093073997745"><ele>448.0</ele><time>2026-04-18T08:17:55Z</time></trkpt><trkpt lat="45.13194648375443" lon="7.120493547503232"><ele>448.0</ele><time>2026-04-18T08:17:56Z</time></trkpt><trkpt lat="45.131965098088834" lon="7.120144434240937"><ele>448.0</ele><time>2026-04-18T08:17:57Z</time></trkpt><trkpt lat="45.1319761784122" lon="7.119734836821753"><ele>448.0</ele><time>2026-04-18T08:17:58Z</time></trkpt><trkpt lat="45.13198202001106" lon="7.119372157353188"><ele>448.5</ele><time>2026-04-18T08:17:59Z</time></trkpt><trkpt lat="45.131988232102174" lon="7.119002780989596"><ele>449.0</ele><time>2026-04-18T08:18:00Z</time></trkpt><trkpt lat="45.13199463132342" lon="7.118656951685012"><ele>449.0</ele><time>2026-04-18T08:18:01Z</time></trkpt><trkpt lat="45.132009736019576" lon="7.118314269212417"><ele>449.0</ele><time>2026-04-18T08:18:02Z</time></trkpt><trkpt lat="45.13204485811382" lon="7.117997847763861"><ele>449.5</ele><time>2026-04-18T08:18:03Z</time></trkpt><trkpt lat="45.13208425660783" lon="7.117678327637932"><ele>450.0</ele><time>2026-04-18T08:18:04Z</time></trkpt><trkpt lat="45.13219506622799" lon="7.117378295029485"><ele>450.5</ele><time>2026-04-18T08:18:05Z</time></trkpt><trkpt lat="45.132294700291325" lon="7.117057258809591"><ele>451.0</ele><time>2026-04-18T08:18:06Z</time></trkpt><trkpt lat="45.13241130702148" lon="7.116735754828805"><ele>451.0</ele><time>2026-04-18T08:18:07Z</time></trkpt><trkpt lat="45.13250946664507" lon="7.116440849414884"><ele>451.0</ele><time>2026-04-18T08:18:08Z</time></trkpt><trkpt lat="45.13259318828142" lon="7.116142727865655"><ele>451.0</ele><time>2026-04-18T08:18:09Z</time></trkpt><trkpt lat="45.132659598364405" lon="7.115873294044601"><ele>451.0</ele><time>2026-04-18T08:18:10Z</time></trkpt><trkpt lat="45.13267711972398" lon="7.115582048152183"><ele>451.0</ele><time>2026-04-18T08:18:11Z</time></trkpt><trkpt lat="45.13267904078465" lon="7.115283971119033"><ele>451.6666666666667</ele><time>2026-04-18T08:18:12Z</time></trkpt><trkpt lat="45.132655057034356" lon="7.1149908811448315"><ele>452.33333333333337</ele><time>2026-04-18T08:18:13Z</time></trkpt><trkpt lat="45.13263284549839" lon="7.114655890024323"><ele>453.0</ele><time>2026-04-18T08:18:14Z</time></trkpt><trkpt lat="45.13261518074874" lon="7.114361800964364"><ele>453.66666666666663</ele><time>2026-04-18T08:18:15Z</time></trkpt><trkpt lat="45.13258782925916" lon="7.114116065465613"><ele>454.3333333333333</ele><time>2026-04-18T08:18:16Z</time></trkpt><trkpt lat="45.13254817647682" lon="7.11385844388571"><ele>455.0</ele><time>2026-04-18T08:18:17Z</time></trkpt><trkpt lat="45.13249075674904" lon="7.113567156184563"><ele>455.3333333333333</ele><time>2026-04-18T08:18:18Z</time></trkpt><trkpt lat="45.132447191579686" lon="7.113265325040791"><ele>455.66666666666663</ele><time>2026-04-18T08:18:19Z</time></trkpt><trkpt lat="45.13241070446932" lon="7.112986885297332"><ele>456.0</ele><time>2026-04-18T08:18:20Z</time></trkpt><trkpt lat="45.132391434616125" lon="7.112676983338015"><ele>457.33333333333337</ele><time>2026-04-18T08:18:21Z</time></trkpt><trkpt lat="45.132358953484854" lon="7.112387488428126"><ele>458.6666666666667</ele><time>2026-04-18T08:18:22Z</time></trkpt><trkpt lat="45.132318575393214" lon="7.112103488166301"><ele>460.0</ele><time>2026-04-18T08:18:23Z</time></trkpt><trkpt lat="45.13227988563831" lon="7.1118229864010765"><ele>460.0</ele><time>2026-04-18T08:18:24Z</time></trkpt><trkpt lat="45.13224746430963" lon="7.1115480094175645"><ele>460.0</ele><time>2026-04-18T08:18:25Z</time></trkpt><trkpt lat="45.13220699267869" lon="7.111296228345678"><ele>460.0</ele><time>2026-04-18T08:18:26Z</time></trkpt><trkpt lat="45.13218184440142" lon="7.111032057632864"><ele>460.0</ele><time>2026-04-18T08:18:27Z</time></trkpt><trkpt lat="45.13214799992604" lon="7.1107771300805895"><ele>460.0</ele><time>2026-04-18T08:18:28Z</time></trkpt><trkpt lat="45.13212381519499" lon="7.1105296981476105"><ele>460.0</ele><time>2026-04-18T08:18:29Z</time></trkpt><trkpt lat="45.13209053709755" lon="7.110274832216818"><ele>459.6666666666667</ele><time>2026-04-18T08:18:30Z</time></trkpt><trkpt lat="45.132057575872004" lon="7.110027734645866"><ele>459.33333333333337</ele><time>2026-04-18T08:18:31Z</time></trkpt><trkpt lat="45.13202346489795" lon="7.109783653966867"><ele>459.0</ele><time>2026-04-18T08:18:32Z</time></trkpt><trkpt lat="45.131985187794996" lon="7.109559271472179"><ele>459.0</ele><time>2026-04-18T08:18:33Z</time></trkpt><trkpt lat="45.13195323883607" lon="7.1093425837675905"><ele>459.0</ele><time>2026-04-18T08:18:34Z</time></trkpt><trkpt lat="45.131922102754686" lon="7.109102693797191"><ele>459.0</ele><time>2026-04-18T08:18:35Z</time></trkpt><trkpt lat="45.13190948740221" lon="7.108875617767949"><ele>458.33333333333337</ele><time>2026-04-18T08:18:36Z</time></trkpt><trkpt lat="45.13189069547976" lon="7.108671813970436"><ele>457.6666666666667</ele><time>2026-04-18T08:18:37Z</time></trkpt><trkpt lat="45.13187640492718" lon="7.108455323537824"><ele>457.0</ele><time>2026-04-18T08:18:38Z</time></trkpt><trkpt lat="45.13186145293337" lon="7.10823750231829"><ele>456.33333333333337</ele><time>2026-04-18T08:18:39Z</time></trkpt><trkpt lat="45.13186229870316" lon="7.107999015036283"><ele>455.66666666666663</ele><time>2026-04-18T08:18:40Z</time></trkpt><trkpt lat="45.131886733031955" lon="7.107705329450239"><ele>455.0</ele><time>2026-04-18T08:18:41Z</time></trkpt><trkpt lat="45.13194382915846" lon="7.107393332291921"><ele>454.5</ele><time>2026-04-18T08:18:42Z</time></trkpt><trkpt lat="45.13200526235561" lon="7.107071440465839"><ele>454.0</ele><time>2026-04-18T08:18:43Z</time></trkpt><trkpt lat="45.13206500071156" lon="7.1067170868053156"><ele>454.5</ele><time>2026-04-18T08:18:44Z</time></trkpt><trkpt lat="45.1321196428384" lon="7.10639350045867"><ele>455.0</ele><time>2026-04-18T08:18:45Z</time></trkpt><trkpt lat="45.13217361447506" lon="7.106007491414631"><ele>455.5</ele><time>2026-04-18T08:18:46Z</time></trkpt><trkpt lat="45.13221671006317" lon="7.105654487326771"><ele>456.0</ele><time>2026-04-18T08:18:47Z</time></trkpt><trkpt lat="45.132234141728645" lon="7.105285605381027"><ele>457.0</ele><time>2026-04-18T08:18:48Z</time></trkpt><trkpt lat="45.132266970388656" lon="7.104906614213323"><ele>458.0</ele><time>2026-04-18T08:18:49Z</time></trkpt><trkpt lat="45.13227451141172" lon="7.10454680519854"><ele>458.0</ele><time>2026-04-18T08:18:50Z</time></trkpt><trkpt lat="45.13225748094454" lon="7.104177683019175"><ele>458.0</ele><time>2026-04-18T08:18:51Z</time></trkpt><trkpt lat="45.132238438548384" lon="7.103806405787756"><ele>459.0</ele><time>2026-04-18T08:18:52Z</time></trkpt><trkpt lat="45.132217031039474" lon="7.103436497505375"><ele>460.0</ele><time>2026-04-18T08:18:53Z</time></trkpt><trkpt lat="45.1322024009281" lon="7.103096128346431"><ele>460.0</ele><time>2026-04-18T08:18:54Z</time></trkpt><trkpt lat="45.13220082138029" lon="7.10272536515808"><ele>460.0</ele><time>2026-04-18T08:18:55Z</time></trkpt><trkpt lat="45.132206962439746" lon="7.102377628278501"><ele>461.0</ele><time>2026-04-18T08:18:56Z</time></trkpt><trkpt lat="45.13222941945546" lon="7.102024953829593"><ele>462.0</ele><time>2026-04-18T08:18:57Z</time></trkpt><trkpt lat="45.132258306971806" lon="7.101675305432007"><ele>462.5</ele><time>2026-04-18T08:18:58Z</time></trkpt><trkpt lat="45.13230700765821" lon="7.101319040511068"><ele>463.0</ele><time>2026-04-18T08:18:59Z</time></trkpt><trkpt lat="45.13235745071859" lon="7.100957774533398"><ele>462.5</ele><time>2026-04-18T08:19:00Z</time></trkpt><trkpt lat="45.132458048735785" lon="7.100608163712465"><ele>462.0</ele><time>2026-04-18T08:19:01Z</time></trkpt><trkpt lat="45.13258856637579" lon="7.10025863334113"><ele>463.0</ele><time>2026-04-18T08:19:02Z</time></trkpt><trkpt lat="45.13268721778024" lon="7.099903113894464"><ele>464.0</ele><time>2026-04-18T08:19:03Z</time></trkpt><trkpt lat="45.132784666429366" lon="7.099560867666213"><ele>464.0</ele><time>2026-04-18T08:19:04Z</time></trkpt><trkpt lat="45.13287042224592" lon="7.0992011632669625"><ele>464.0</ele><time>2026-04-18T08:19:05Z</time></trkpt><trkpt lat="45.1329231209926" lon="7.098861257720022"><ele>464.3333333333333</ele><time>2026-04-18T08:19:06Z</time></trkpt><trkpt lat="45.13297772355124" lon="7.09855770920983"><ele>464.66666666666663</ele><time>2026-04-18T08:19:07Z</time></trkpt><trkpt lat="45.13303052891176" lon="7.098253413812855"><ele>465.0</ele><time>2026-04-18T08:19:08Z</time></trkpt><trkpt lat="45.1330565850475" lon="7.097964398193955"><ele>465.66666666666663</ele><time>2026-04-18T08:19:09Z</time></trkpt><trkpt lat="45.13310288471582" lon="7.097688739321069"><ele>466.3333333333333</ele><time>2026-04-18T08:19:10Z</time></trkpt><trkpt lat="45.13314005458875" lon="7.097401294799808"><ele>467.0</ele><time>2026-04-18T08:19:11Z</time></trkpt><trkpt lat="45.13316913913777" lon="7.097167035970967"><ele>467.0</ele><time>2026-04-18T08:19:12Z</time></trkpt><trkpt lat="45.13322525175567" lon="7.096961751977212"><ele>467.0</ele><time>2026-04-18T08:19:13Z</time></trkpt><trkpt lat="45.13328913843997" lon="7.096687993890155"><ele>467.0</ele><time>2026-04-18T08:19:14Z</time></trkpt><trkpt lat="45.13337460591793" lon="7.096395123209949"><ele>467.5</ele><time>2026-04-18T08:19:15Z</time></trkpt><trkpt lat="45.13348603498289" lon="7.096089755402119"><ele>468.0</ele><time>2026-04-18T08:19:16Z</time></trkpt><trkpt lat="45.13359498218152" lon="7.095790268489766"><ele>469.0</ele><time>2026-04-18T08:19:17Z</time></trkpt><trkpt lat="45.13371364039951" lon="7.095487574307202"><ele>470.0</ele><time>2026-04-18T08:19:18Z</time></trkpt><trkpt lat="45.1338838878564" lon="7.09518297166485"><ele>470.0</ele><time>2026-04-18T08:19:19Z</time></trkpt><trkpt lat="45.13400602430478" lon="7.094882424977487"><ele>470.0</ele><time>2026-04-18T08:19:20Z</time></trkpt><trkpt lat="45.13411510388117" lon="7.0945619645613505"><ele>470.0</ele><time>2026-04-18T08:19:21Z</time></trkpt><trkpt lat="45.1342154888967" lon="7.094243147400403"><ele>470.0</ele><time>2026-04-18T08:19:22Z</time></trkpt><trkpt lat="45.1342964835089" lon="7.093892548334029"><ele>469.5</ele><time>2026-04-18T08:19:23Z</time></trkpt><trkpt lat="45.134377667753704" lon="7.0935136710419116"><ele>469.0</ele><time>2026-04-18T08:19:24Z</time></trkpt><trkpt lat="45.13444915157079" lon="7.093149506231819"><ele>469.0</ele><time>2026-04-18T08:19:25Z</time></trkpt><trkpt lat="45.134508500501006" lon="7.092765563928598"><ele>469.0</ele><time>2026-04-18T08:19:26Z</time></trkpt><trkpt lat="45.13451459251485" lon="7.092297636979889"><ele>469.0</ele><time>2026-04-18T08:19:27Z</time></trkpt><trkpt lat="45.13452290587066" lon="7.0918655271498725"><ele>469.0</ele><time>2026-04-18T08:19:28Z</time></trkpt><trkpt lat="45.13453234904283" lon="7.091418934880399"><ele>469.5</ele><time>2026-04-18T08:19:29Z</time></trkpt><trkpt lat="45.134580330995625" lon="7.091022320189309"><ele>470.0</ele><time>2026-04-18T08:19:30Z</time></trkpt><trkpt lat="45.13460776398339" lon="7.090627598967011"><ele>471.0</ele><time>2026-04-18T08:19:31Z</time></trkpt><trkpt lat="45.13462171457801" lon="7.090230756438124"><ele>472.0</ele><time>2026-04-18T08:19:32Z</time></trkpt><trkpt lat="45.13465075827067" lon="7.089845879999875"><ele>472.0</ele><time>2026-04-18T08:19:33Z</time></trkpt><trkpt lat="45.134684101706526" lon="7.089475692271186"><ele>472.0</ele><time>2026-04-18T08:19:34Z</time></trkpt><trkpt lat="45.13471602040588" lon="7.089098066263882"><ele>473.5</ele><time>2026-04-18T08:19:35Z</time></trkpt><trkpt lat="45.134740353925466" lon="7.0887195439341335"><ele>475.0</ele><time>2026-04-18T08:19:36Z</time></trkpt><trkpt lat="45.134783784519776" lon="7.088341551189292"><ele>475.5</ele><time>2026-04-18T08:19:37Z</time></trkpt><trkpt lat="45.13482087436192" lon="7.087971245036218"><ele>476.0</ele><time>2026-04-18T08:19:38Z</time></trkpt><trkpt lat="45.13485801728591" lon="7.0876015956425045"><ele>475.5</ele><time>2026-04-18T08:19:39Z</time></trkpt><trkpt lat="45.134887403084" lon="7.087228411507652"><ele>475.0</ele><time>2026-04-18T08:19:40Z</time></trkpt><trkpt lat="45.13491751377265" lon="7.086872892537996"><ele>474.5</ele><time>2026-04-18T08:19:41Z</time></trkpt><trkpt lat="45.13493828726138" lon="7.086528038900686"><ele>474.0</ele><time>2026-04-18T08:19:42Z</time></trkpt><trkpt lat="45.13497158058514" lon="7.086212019713157"><ele>474.0</ele><time>2026-04-18T08:19:43Z</time></trkpt><trkpt lat="45.13499626326659" lon="7.085928634055623"><ele>474.0</ele><time>2026-04-18T08:19:44Z</time></trkpt><trkpt lat="45.135017127616806" lon="7.0856393985733135"><ele>474.0</ele><time>2026-04-18T08:19:45Z</time></trkpt><trkpt lat="45.135036816961225" lon="7.0853484015534205"><ele>474.33333333333337</ele><time>2026-04-18T08:19:46Z</time></trkpt><trkpt lat="45.13505194478481" lon="7.085068168492381"><ele>474.6666666666667</ele><time>2026-04-18T08:19:47Z</time></trkpt><trkpt lat="45.1350445089818" lon="7.084777867222219"><ele>475.0</ele><time>2026-04-18T08:19:48Z</time></trkpt><trkpt lat="45.135030768128445" lon="7.084494297888011"><ele>475.33333333333337</ele><time>2026-04-18T08:19:49Z</time></trkpt><trkpt lat="45.134999927212206" lon="7.084203591397954"><ele>475.66666666666663</ele><time>2026-04-18T08:19:50Z</time></trkpt><trkpt lat="45.13496408506206" lon="7.083884797607974"><ele>476.0</ele><time>2026-04-18T08:19:51Z</time></trkpt><trkpt lat="45.13492313042714" lon="7.083577795140655"><ele>477.0</ele><time>2026-04-18T08:19:52Z</time></trkpt><trkpt lat="45.13488316834727" lon="7.083288941022782"><ele>478.0</ele><time>2026-04-18T08:19:53Z</time></trkpt><trkpt lat="45.134817001033" lon="7.083002929352911"><ele>479.0</ele><time>2026-04-18T08:19:54Z</time></trkpt><trkpt lat="45.13473985368965" lon="7.082686743021551"><ele>478.5</ele><time>2026-04-18T08:19:55Z</time></trkpt><trkpt lat="45.134646496328614" lon="7.082356692384171"><ele>478.0</ele><time>2026-04-18T08:19:56Z</time></trkpt><trkpt lat="45.134543690196956" lon="7.08201702873635"><ele>478.0</ele><time>2026-04-18T08:19:57Z</time></trkpt><trkpt lat="45.134436281203676" lon="7.081702746656856"><ele>478.0</ele><time>2026-04-18T08:19:58Z</time></trkpt><trkpt lat="45.134351991773244" lon="7.0813889272459125"><ele>476.5</ele><time>2026-04-18T08:19:59Z</time></trkpt><trkpt lat="45.134251488113144" lon="7.0810761744107875"><ele>475.0</ele><time>2026-04-18T08:20:00Z</time></trkpt><trkpt lat="45.134158101137665" lon="7.080777235527186"><ele>475.0</ele><time>2026-04-18T08:20:01Z</time></trkpt><trkpt lat="45.13407576121808" lon="7.0804942634826045"><ele>475.0</ele><time>2026-04-18T08:20:02Z</time></trkpt><trkpt lat="45.13398592636654" lon="7.080215196148031"><ele>475.0</ele><time>2026-04-18T08:20:03Z</time></trkpt><trkpt lat="45.13391346227608" lon="7.079897401745776"><ele>475.5</ele><time>2026-04-18T08:20:04Z</time></trkpt><trkpt lat="45.13382101085468" lon="7.079583909048616"><ele>476.0</ele><time>2026-04-18T08:20:05Z</time></trkpt><trkpt lat="45.13376525369871" lon="7.079247783518077"><ele>475.5</ele><time>2026-04-18T08:20:06Z</time></trkpt><trkpt lat="45.13367832141158" lon="7.078898524754784"><ele>475.0</ele><time>2026-04-18T08:20:07Z</time></trkpt><trkpt lat="45.133614525311785" lon="7.078560835107337"><ele>474.5</ele><time>2026-04-18T08:20:08Z</time></trkpt><trkpt lat="45.13355251156372" lon="7.0782347915448804"><ele>474.0</ele><time>2026-04-18T08:20:09Z</time></trkpt><trkpt lat="45.13348961276342" lon="7.077906859069058"><ele>474.0</ele><time>2026-04-18T08:20:10Z</time></trkpt><trkpt lat="45.1334144070613" lon="7.077587854818964"><ele>474.0</ele><time>2026-04-18T08:20:11Z</time></trkpt><trkpt lat="45.13334830106339" lon="7.077281647751745"><ele>473.66666666666663</ele><time>2026-04-18T08:20:12Z</time></trkpt><trkpt lat="45.1333131241496" lon="7.076972196618896"><ele>473.3333333333333</ele><time>2026-04-18T08:20:13Z</time></trkpt><trkpt lat="45.133242462628154" lon="7.076695241782169"><ele>473.0</ele><time>2026-04-18T08:20:14Z</time></trkpt><trkpt lat="45.133180329976994" lon="7.0764312872002035"><ele>473.0</ele><time>2026-04-18T08:20:15Z</time></trkpt><trkpt lat="45.13311568707259" lon="7.076164923720195"><ele>473.0</ele><time>2026-04-18T08:20:16Z</time></trkpt><trkpt lat="45.13306193911741" lon="7.075892173236356"><ele>473.0</ele><time>2026-04-18T08:20:17Z</time></trkpt><trkpt lat="45.133002762371696" lon="7.075616802789124"><ele>474.0</ele><time>2026-04-18T08:20:18Z</time></trkpt><trkpt lat="45.132947808680576" lon="7.075342071893429"><ele>475.0</ele><time>2026-04-18T08:20:19Z</time></trkpt><trkpt lat="45.13289586441735" lon="7.075049821064831"><ele>476.0</ele><time>2026-04-18T08:20:20Z</time></trkpt><trkpt lat="45.13285881830109" lon="7.074744262879833"><ele>476.0</ele><time>2026-04-18T08:20:21Z</time></trkpt><trkpt lat="45.13283496766829" lon="7.074453715647999"><ele>476.0</ele><time>2026-04-18T08:20:22Z</time></trkpt><trkpt lat="45.13282065590799" lon="7.074143870565597"><ele>476.0</ele><time>2026-04-18T08:20:23Z</time></trkpt><trkpt lat="45.13283294234401" lon="7.0738547970804735"><ele>476.0</ele><time>2026-04-18T08:20:24Z</time></trkpt><trkpt lat="45.132843115648996" lon="7.07356632475223"><ele>476.0</ele><time>2026-04-18T08:20:25Z</time></trkpt><trkpt lat="45.13283209792037" lon="7.073292541348542"><ele>476.0</ele><time>2026-04-18T08:20:26Z</time></trkpt><trkpt lat="45.13283626215125" lon="7.0730232696759225"><ele>476.0</ele><time>2026-04-18T08:20:27Z</time></trkpt><trkpt lat="45.13282424253495" lon="7.0727390505911325"><ele>476.0</ele><time>2026-04-18T08:20:28Z</time></trkpt><trkpt lat="45.13282831826546" lon="7.072446566117495"><ele>476.0</ele><time>2026-04-18T08:20:29Z</time></trkpt><trkpt lat="45.13282524047622" lon="7.072151464713942"><ele>476.3333333333333</ele><time>2026-04-18T08:20:30Z</time></trkpt><trkpt lat="45.13282228166319" lon="7.07186412073697"><ele>476.66666666666663</ele><time>2026-04-18T08:20:31Z</time></trkpt><trkpt lat="45.13282250506572" lon="7.071592746923918"><ele>477.0</ele><time>2026-04-18T08:20:32Z</time></trkpt><trkpt lat="45.132823895867396" lon="7.071301621035108"><ele>477.33333333333337</ele><time>2026-04-18T08:20:33Z</time></trkpt><trkpt lat="45.132821779634554" lon="7.07102517426208"><ele>477.6666666666667</ele><time>2026-04-18T08:20:34Z</time></trkpt><trkpt lat="45.132817374424214" lon="7.07074381957084"><ele>478.0</ele><time>2026-04-18T08:20:35Z</time></trkpt><trkpt lat="45.132816308948435" lon="7.070485975756661"><ele>478.0</ele><time>2026-04-18T08:20:36Z</time></trkpt><trkpt lat="45.13282433449033" lon="7.070225942241677"><ele>478.0</ele><time>2026-04-18T08:20:37Z</time></trkpt><trkpt lat="45.13282505254036" lon="7.069979565904112"><ele>478.0</ele><time>2026-04-18T08:20:38Z</time></trkpt><trkpt lat="45.132826053257844" lon="7.069738197984313"><ele>478.33333333333337</ele><time>2026-04-18T08:20:39Z</time></trkpt><trkpt lat="45.13282013933801" lon="7.069467127442342"><ele>478.66666666666663</ele><time>2026-04-18T08:20:40Z</time></trkpt><trkpt lat="45.13282440403924" lon="7.069200901746596"><ele>479.0</ele><time>2026-04-18T08:20:41Z</time></trkpt><trkpt lat="45.132823991204624" lon="7.068932147483145"><ele>479.3333333333333</ele><time>2026-04-18T08:20:42Z</time></trkpt><trkpt lat="45.13282395473636" lon="7.068676218345729"><ele>479.66666666666663</ele><time>2026-04-18T08:20:43Z</time></trkpt><trkpt lat="45.132828166164394" lon="7.068455610628969"><ele>480.0</ele><time>2026-04-18T08:20:44Z</time></trkpt><trkpt lat="45.13282967293827" lon="7.068238532137998"><ele>481.0</ele><time>2026-04-18T08:20:45Z</time></trkpt><trkpt lat="45.132832486706704" lon="7.06803204518812"><ele>482.0</ele><time>2026-04-18T08:20:46Z</time></trkpt><trkpt lat="45.132836960633746" lon="7.067810979197932"><ele>483.0</ele><time>2026-04-18T08:20:47Z</time></trkpt><trkpt lat="45.132842186862035" lon="7.067568813225164"><ele>484.0</ele><time>2026-04-18T08:20:48Z</time></trkpt><trkpt lat="45.13283286078178" lon="7.067340487801128"><ele>485.0</ele><time>2026-04-18T08:20:49Z</time></trkpt><trkpt lat="45.1328449246046" lon="7.067091989507502"><ele>486.0</ele><time>2026-04-18T08:20:50Z</time></trkpt><trkpt lat="45.13284999428618" lon="7.066864424606064"><ele>486.0</ele><time>2026-04-18T08:20:51Z</time></trkpt><trkpt lat="45.132849010983904" lon="7.066635002054651"><ele>486.0</ele><time>2026-04-18T08:20:52Z</time></trkpt><trkpt lat="45.13284229990572" lon="7.066390892166113"><ele>486.0</ele><time>2026-04-18T08:20:53Z</time></trkpt><trkpt lat="45.132840490472596" lon="7.0661762701030675"><ele>486.33333333333337</ele><time>2026-04-18T08:20:54Z</time></trkpt><trkpt lat="45.13284992967367" lon="7.065975115841636"><ele>486.6666666666667</ele><time>2026-04-18T08:20:55Z</time></trkpt><trkpt lat="45.132842547064314" lon="7.065746740963723"><ele>487.0</ele><time>2026-04-18T08:20:56Z</time></trkpt><trkpt lat="45.13283034041788" lon="7.065510793350148"><ele>486.33333333333337</ele><time>2026-04-18T08:20:57Z</time></trkpt><trkpt lat="45.13282852894725" lon="7.065285656257154"><ele>485.66666666666663</ele><time>2026-04-18T08:20:58Z</time></trkpt><trkpt lat="45.13282063856027" lon="7.065042331195756"><ele>485.0</ele><time>2026-04-18T08:20:59Z</time></trkpt><trkpt lat="45.13282857078848" lon="7.064793766863663"><ele>485.0</ele><time>2026-04-18T08:21:00Z</time></trkpt><trkpt lat="45.13284765973786" lon="7.064546073652503"><ele>485.0</ele><time>2026-04-18T08:21:01Z</time></trkpt><trkpt lat="45.1328910055744" lon="7.0643058342770555"><ele>485.0</ele><time>2026-04-18T08:21:02Z</time></trkpt><trkpt lat="45.13295310352478" lon="7.064104437897054"><ele>485.3333333333333</ele><time>2026-04-18T08:21:03Z</time></trkpt><trkpt lat="45.133023354588616" lon="7.063880289370388"><ele>485.66666666666663</ele><time>2026-04-18T08:21:04Z</time></trkpt><trkpt lat="45.13313136360948" lon="7.063653210252344"><ele>486.0</ele><time>2026-04-18T08:21:05Z</time></trkpt><trkpt lat="45.13319735002004" lon="7.063415224613875"><ele>485.33333333333337</ele><time>2026-04-18T08:21:06Z</time></trkpt><trkpt lat="45.133286261460654" lon="7.063209001441989"><ele>484.6666666666667</ele><time>2026-04-18T08:21:07Z</time></trkpt><trkpt lat="45.133357650466706" lon="7.0629898359527195"><ele>484.0</ele><time>2026-04-18T08:21:08Z</time></trkpt><trkpt lat="45.13344208062017" lon="7.062776439699934"><ele>484.0</ele><time>2026-04-18T08:21:09Z</time></trkpt><trkpt lat="45.13352682494719" lon="7.062547015991787"><ele>484.0</ele><time>2026-04-18T08:21:10Z</time></trkpt><trkpt lat="45.133594918126434" lon="7.062316214892652"><ele>484.0</ele><time>2026-04-18T08:21:11Z</time></trkpt><trkpt lat="45.13366902017347" lon="7.062086550240048"><ele>484.0</ele><time>2026-04-18T08:21:12Z</time></trkpt><trkpt lat="45.133735697404795" lon="7.061852352799206"><ele>484.0</ele><time>2026-04-18T08:21:13Z</time></trkpt><trkpt lat="45.133819902069526" lon="7.061615760760927"><ele>484.0</ele><time>2026-04-18T08:21:14Z</time></trkpt><trkpt lat="45.13390314020528" lon="7.061387763011935"><ele>483.6666666666667</ele><time>2026-04-18T08:21:15Z</time></trkpt><trkpt lat="45.13398032608845" lon="7.061176581903143"><ele>483.33333333333337</ele><time>2026-04-18T08:21:16Z</time></trkpt><trkpt lat="45.13405106282746" lon="7.06096569400168"><ele>483.0</ele><time>2026-04-18T08:21:17Z</time></trkpt><trkpt lat="45.13411713389974" lon="7.060791312242682"><ele>484.0</ele><time>2026-04-18T08:21:18Z</time></trkpt><trkpt lat="45.13418662755013" lon="7.06062508328608"><ele>485.0</ele><time>2026-04-18T08:21:19Z</time></trkpt><trkpt lat="45.13425126512595" lon="7.06049267596486"><ele>486.0</ele><time>2026-04-18T08:21:20Z</time></trkpt><trkpt lat="45.1343014815815" lon="7.060371958263974"><ele>487.0</ele><time>2026-04-18T08:21:21Z</time></trkpt><trkpt lat="45.134354543185076" lon="7.060235621946768"><ele>487.00000000000006</ele><time>2026-04-18T08:21:22Z</time></trkpt><trkpt lat="45.134404639339444" lon="7.060124574028673"><ele>487.0</ele><time>2026-04-18T08:21:23Z</time></trkpt><trkpt lat="45.13442898713991" lon="7.060036257729057"><ele>487.0</ele><time>2026-04-18T08:21:24Z</time></trkpt><trkpt lat="45.13446112227681" lon="7.059949290940158"><ele>487.0</ele><time>2026-04-18T08:21:25Z</time></trkpt><trkpt lat="45.13451911797031" lon="7.059866742239567"><ele>487.00000000000006</ele><time>2026-04-18T08:21:27Z</time></trkpt><trkpt lat="45.134604132907626" lon="7.0598649342093305"><ele>487.0</ele><time>2026-04-18T08:21:31Z</time></trkpt><trkpt lat="45.13466847158091" lon="7.0597698580776"><ele>487.20000000000005</ele><time>2026-04-18T08:21:33Z</time></trkpt><trkpt lat="45.134684401648634" lon="7.059600867157146"><ele>487.40000000000003</ele><time>2026-04-18T08:21:35Z</time></trkpt><trkpt lat="45.13466701193874" lon="7.059504336443013"><ele>487.59999999999997</ele><time>2026-04-18T08:21:36Z</time></trkpt><trkpt lat="45.13468989594545" lon="7.059324039778594"><ele>487.79999999999995</ele><time>2026-04-18T08:21:37Z</time></trkpt><trkpt lat="45.13474279444989" lon="7.05924290764064"><ele>488.0</ele><time>2026-04-18T08:21:38Z</time></trkpt><trkpt lat="45.13476076173726" lon="7.059136941092237"><ele>488.0</ele><time>2026-04-18T08:21:39Z</time></trkpt><trkpt lat="45.13478352739875" lon="7.059019769009059"><ele>487.99999999999994</ele><time>2026-04-18T08:21:40Z</time></trkpt><trkpt lat="45.134814184399055" lon="7.058891823877751"><ele>487.99999999999994</ele><time>2026-04-18T08:21:41Z</time></trkpt><trkpt lat="45.134856855549415" lon="7.0587683299694834"><ele>488.0</ele><time>2026-04-18T08:21:42Z</time></trkpt><trkpt lat="45.13491720797902" lon="7.0586350500872745"><ele>488.0</ele><time>2026-04-18T08:21:43Z</time></trkpt><trkpt lat="45.1349589122172" lon="7.0585050871446215"><ele>488.2</ele><time>2026-04-18T08:21:44Z</time></trkpt><trkpt lat="45.13499132992138" lon="7.058391834531255"><ele>488.4</ele><time>2026-04-18T08:21:45Z</time></trkpt><trkpt lat="45.13501843059151" lon="7.058286777386258"><ele>488.59999999999997</ele><time>2026-04-18T08:21:46Z</time></trkpt><trkpt lat="45.13506675971255" lon="7.058155363612245"><ele>488.79999999999995</ele><time>2026-04-18T08:21:47Z</time></trkpt><trkpt lat="45.13511921564694" lon="7.057992897736725"><ele>489.0</ele><time>2026-04-18T08:21:48Z</time></trkpt><trkpt lat="45.13521403661668" lon="7.057823958710025"><ele>489.0</ele><time>2026-04-18T08:21:49Z</time></trkpt><trkpt lat="45.13528506845934" lon="7.0576938539535155"><ele>489.0</ele><time>2026-04-18T08:21:50Z</time></trkpt><trkpt lat="45.135340395929575" lon="7.057541777962628"><ele>489.0</ele><time>2026-04-18T08:21:51Z</time></trkpt><trkpt lat="45.1353978554554" lon="7.05742025856225"><ele>489.0</ele><time>2026-04-18T08:21:52Z</time></trkpt><trkpt lat="45.13544595360661" lon="7.057299403657564"><ele>489.0</ele><time>2026-04-18T08:21:53Z</time></trkpt><trkpt lat="45.13550519637977" lon="7.057203634884125"><ele>489.2</ele><time>2026-04-18T08:21:54Z</time></trkpt><trkpt lat="45.135557555069916" lon="7.0570805141011475"><ele>489.4</ele><time>2026-04-18T08:21:55Z</time></trkpt><trkpt lat="45.135581029417416" lon="7.0569513938964725"><ele>489.6</ele><time>2026-04-18T08:21:56Z</time></trkpt><trkpt lat="45.135617268692855" lon="7.056831814013609"><ele>489.8</ele><time>2026-04-18T08:21:57Z</time></trkpt><trkpt lat="45.135671658830276" lon="7.056732490670677"><ele>490.0</ele><time>2026-04-18T08:21:58Z</time></trkpt><trkpt lat="45.13572016151639" lon="7.0565648371713845"><ele>489.83333333333337</ele><time>2026-04-18T08:22:00Z</time></trkpt><trkpt lat="45.13575573103027" lon="7.056486964894434"><ele>489.6666666666667</ele><time>2026-04-18T08:22:01Z</time></trkpt><trkpt lat="45.13578373365792" lon="7.056392914504828"><ele>489.5</ele><time>2026-04-18T08:22:02Z</time></trkpt><trkpt lat="45.135822179375715" lon="7.056301399712079"><ele>489.33333333333337</ele><time>2026-04-18T08:22:03Z</time></trkpt><trkpt lat="45.13584547512447" lon="7.056185472524291"><ele>489.1666666666667</ele><time>2026-04-18T08:22:04Z</time></trkpt><trkpt lat="45.135888517947016" lon="7.056067847786497"><ele>489.0</ele><time>2026-04-18T08:22:05Z</time></trkpt><trkpt lat="45.13595462728703" lon="7.055913647625231"><ele>491.25</ele><time>2026-04-18T08:22:06Z</time></trkpt><trkpt lat="45.13599206313033" lon="7.055747809629793"><ele>493.5</ele><time>2026-04-18T08:22:07Z</time></trkpt><trkpt lat="45.136046211610015" lon="7.055581868706466"><ele>495.75</ele><time>2026-04-18T08:22:08Z</time></trkpt><trkpt lat="45.136074794148534" lon="7.055409452912953"><ele>498.0</ele><time>2026-04-18T08:22:09Z</time></trkpt><trkpt lat="45.13609134471738" lon="7.055222613772349"><ele>498.0</ele><time>2026-04-18T08:22:10Z</time></trkpt><trkpt lat="45.13612052686501" lon="7.055080680495168"><ele>497.99999999999994</ele><time>2026-04-18T08:22:11Z</time></trkpt><trkpt lat="45.13614486733312" lon="7.054928642023619"><ele>497.99999999999994</ele><time>2026-04-18T08:22:12Z</time></trkpt><trkpt lat="45.13613779365591" lon="7.05481447682881"><ele>498.0</ele><time>2026-04-18T08:22:13Z</time></trkpt><trkpt lat="45.13609995945392" lon="7.054668738168509"><ele>498.0</ele><time>2026-04-18T08:22:14Z</time></trkpt><trkpt lat="45.136072613128455" lon="7.054521077472989"><ele>497.79999999999995</ele><time>2026-04-18T08:22:15Z</time></trkpt><trkpt lat="45.136034053559044" lon="7.054408684503218"><ele>497.59999999999997</ele><time>2026-04-18T08:22:16Z</time></trkpt><trkpt lat="45.13597354866543" lon="7.0542712273314745"><ele>497.40000000000003</ele><time>2026-04-18T08:22:17Z</time></trkpt><trkpt lat="45.13596782646136" lon="7.054123190336786"><ele>497.20000000000005</ele><time>2026-04-18T08:22:18Z</time></trkpt><trkpt lat="45.13591010241876" lon="7.053974462984272"><ele>497.0</ele><time>2026-04-18T08:22:19Z</time></trkpt><trkpt lat="45.135851620104575" lon="7.053828510830068"><ele>497.0</ele><time>2026-04-18T08:22:20Z</time></trkpt><trkpt lat="45.13578895039618" lon="7.053666889834404"><ele>497.0</ele><time>2026-04-18T08:22:21Z</time></trkpt><trkpt lat="45.135719258654056" lon="7.053516725963154"><ele>497.0</ele><time>2026-04-18T08:22:22Z</time></trkpt><trkpt lat="45.13565281368266" lon="7.053377705366084"><ele>497.0</ele><time>2026-04-18T08:22:23Z</time></trkpt><trkpt lat="45.13559457499584" lon="7.053234551826185"><ele>497.0</ele><time>2026-04-18T08:22:24Z</time></trkpt><trkpt lat="45.13552956314701" lon="7.053090872048553"><ele>497.00000000000006</ele><time>2026-04-18T08:22:25Z</time></trkpt><trkpt lat="45.13546725838384" lon="7.052964343690567"><ele>497.00000000000006</ele><time>2026-04-18T08:22:26Z</time></trkpt><trkpt lat="45.13540701629764" lon="7.052835990968906"><ele>497.0</ele><time>2026-04-18T08:22:27Z</time></trkpt><trkpt lat="45.13534886309129" lon="7.052711778547175"><ele>497.0</ele><time>2026-04-18T08:22:28Z</time></trkpt><trkpt lat="45.135296533107045" lon="7.052582676513027"><ele>497.16666666666663</ele><time>2026-04-18T08:22:29Z</time></trkpt><trkpt lat="45.135258150871636" lon="7.052449386145698"><ele>497.3333333333333</ele><time>2026-04-18T08:22:30Z</time></trkpt><trkpt lat="45.13522308938164" lon="7.052323617285184"><ele>497.5</ele><time>2026-04-18T08:22:31Z</time></trkpt><trkpt lat="45.13518304052388" lon="7.052217788312501"><ele>497.66666666666663</ele><time>2026-04-18T08:22:32Z</time></trkpt><trkpt lat="45.13514912680811" lon="7.052123582149906"><ele>497.8333333333333</ele><time>2026-04-18T08:22:33Z</time></trkpt><trkpt lat="45.13511581943961" lon="7.0520270316202245"><ele>498.0</ele><time>2026-04-18T08:22:34Z</time></trkpt><trkpt lat="45.135077559431565" lon="7.051928166404073"><ele>498.0</ele><time>2026-04-18T08:22:35Z</time></trkpt><trkpt lat="45.13505521057765" lon="7.051835653732178"><ele>498.0</ele><time>2026-04-18T08:22:36Z</time></trkpt><trkpt lat="45.13505654249707" lon="7.051699838731929"><ele>498.0</ele><time>2026-04-18T08:22:38Z</time></trkpt><trkpt lat="45.13508466361256" lon="7.05158245390302"><ele>498.0</ele><time>2026-04-18T08:22:41Z</time></trkpt><trkpt lat="45.13511982116268" lon="7.0514989696641805"><ele>498.0</ele><time>2026-04-18T08:22:46Z</time></trkpt><trkpt lat="45.13503911022978" lon="7.0514887263657045"><ele>498.0</ele><time>2026-04-18T08:23:23Z</time></trkpt><trkpt lat="45.135057381112304" lon="7.051576211978932"><ele>498.1428571428571</ele><time>2026-04-18T08:23:25Z</time></trkpt><trkpt lat="45.13498821626378" lon="7.051567014470791"><ele>498.2857142857142</ele><time>2026-04-18T08:23:43Z</time></trkpt><trkpt lat="45.13503148903747" lon="7.051489959712273"><ele>498.42857142857144</ele><time>2026-04-18T08:23:47Z</time></trkpt><trkpt lat="45.13496675443786" lon="7.051480800725587"><ele>498.57142857142856</ele><time>2026-04-18T08:24:10Z</time></trkpt><trkpt lat="45.13502866812304" lon="7.051416224580178"><ele>498.7142857142857</ele><time>2026-04-18T08:25:36Z</time></trkpt><trkpt lat="45.13496734571871" lon="7.051364122300474"><ele>498.8571428571429</ele><time>2026-04-18T08:26:04Z</time></trkpt><trkpt lat="45.134920900402165" lon="7.0512626125620494"><ele>499.00000000000006</ele><time>2026-04-18T08:26:27Z</time></trkpt><trkpt lat="45.134888556078664" lon="7.051147314907288"><ele>499.6</ele><time>2026-04-18T08:26:30Z</time></trkpt><trkpt lat="45.134834569464225" lon="7.051090712926326"><ele>500.2</ele><time>2026-04-18T08:26:32Z</time></trkpt><trkpt lat="45.13479067846575" lon="7.051003157582512"><ele>500.80000000000007</ele><time>2026-04-18T08:33:10Z</time></trkpt><trkpt lat="45.13472212989472" lon="7.050875422742655"><ele>501.40000000000003</ele><time>2026-04-18T08:33:12Z</time></trkpt><trkpt lat="45.13467564544275" lon="7.05075923213695"><ele>502.0</ele><time>2026-04-18T08:33:13Z</time></trkpt><trkpt lat="45.13466432296453" lon="7.0505854364876965"><ele>502.40000000000003</ele><time>2026-04-18T08:33:14Z</time></trkpt><trkpt lat="45.134613433713014" lon="7.050480204821268"><ele>502.80000000000007</ele><time>2026-04-18T08:33:15Z</time></trkpt><trkpt lat="45.13458858659613" lon="7.050358789797724"><ele>503.2</ele><time>2026-04-18T08:33:16Z</time></trkpt><trkpt lat="45.13454917540338" lon="7.050226984511656"><ele>503.6</ele><time>2026-04-18T08:33:17Z</time></trkpt><trkpt lat="45.13449597809197" lon="7.050104233656187"><ele>504.0</ele><time>2026-04-18T08:33:18Z</time></trkpt><trkpt lat="45.1344360859123" lon="7.049995539786036"><ele>504.75</ele><time>2026-04-18T08:33:19Z</time></trkpt><trkpt lat="45.13438742243236" lon="7.04984865112336"><ele>505.5</ele><time>2026-04-18T08:33:20Z</time></trkpt><trkpt lat="45.13430754384575" lon="7.049683325956735"><ele>506.25</ele><time>2026-04-18T08:33:21Z</time></trkpt><trkpt lat="45.13425453388529" lon="7.049496487189907"><ele>507.0</ele><time>2026-04-18T08:33:22Z</time></trkpt><trkpt lat="45.13417893847251" lon="7.0492471800268675"><ele>508.0</ele><time>2026-04-18T08:33:23Z</time></trkpt><trkpt lat="45.13411489010963" lon="7.049036439079489"><ele>509.0</ele><time>2026-04-18T08:33:24Z</time></trkpt><trkpt lat="45.13402467042379" lon="7.048787521210034"><ele>510.0</ele><time>2026-04-18T08:33:25Z</time></trkpt><trkpt lat="45.133950506432555" lon="7.048590786854036"><ele>511.25</ele><time>2026-04-18T08:33:26Z</time></trkpt><trkpt lat="45.13389312626368" lon="7.048388646380241"><ele>512.5</ele><time>2026-04-18T08:33:27Z</time></trkpt><trkpt lat="45.13382843725638" lon="7.048205758864352"><ele>513.75</ele><time>2026-04-18T08:33:28Z</time></trkpt><trkpt lat="45.133780629669886" lon="7.048029623512135"><ele>515.0</ele><time>2026-04-18T08:33:29Z</time></trkpt><trkpt lat="45.1336868210147" lon="7.047894300163076"><ele>515.0</ele><time>2026-04-18T08:33:30Z</time></trkpt><trkpt lat="45.133631836797804" lon="7.047759653790421"><ele>515.0</ele><time>2026-04-18T08:33:31Z</time></trkpt><trkpt lat="45.13357774160561" lon="7.047636834585736"><ele>515.0</ele><time>2026-04-18T08:33:32Z</time></trkpt><trkpt lat="45.133533071380754" lon="7.0475363947472"><ele>515.0</ele><time>2026-04-18T08:33:33Z</time></trkpt><trkpt lat="45.133467749286254" lon="7.047419350098287"><ele>515.0</ele><time>2026-04-18T08:33:34Z</time></trkpt><trkpt lat="45.13341288129972" lon="7.047338709957329"><ele>514.75</ele><time>2026-04-18T08:33:35Z</time></trkpt><trkpt lat="45.133318140204544" lon="7.047156524195406"><ele>514.5</ele><time>2026-04-18T08:33:37Z</time></trkpt><trkpt lat="45.13323249610131" lon="7.0470588417570115"><ele>514.25</ele><time>2026-04-18T08:33:38Z</time></trkpt><trkpt lat="45.13317406101373" lon="7.0469051723996206"><ele>514.0</ele><time>2026-04-18T08:33:39Z</time></trkpt><trkpt lat="45.13307784180323" lon="7.046807457911935"><ele>515.4</ele><time>2026-04-18T08:33:40Z</time></trkpt><trkpt lat="45.13302408741474" lon="7.046709051432071"><ele>516.8</ele><time>2026-04-18T08:33:41Z</time></trkpt><trkpt lat="45.13295938438188" lon="7.046615588057349"><ele>518.2</ele><time>2026-04-18T08:33:42Z</time></trkpt><trkpt lat="45.1328639038638" lon="7.046532393672876"><ele>519.6</ele><time>2026-04-18T08:33:43Z</time></trkpt><trkpt lat="45.13277659919491" lon="7.046430478509951"><ele>521.0</ele><time>2026-04-18T08:33:44Z</time></trkpt><trkpt lat="45.13268898323093" lon="7.046321948384555"><ele>521.6666666666666</ele><time>2026-04-18T08:33:45Z</time></trkpt><trkpt lat="45.13259299631371" lon="7.046190482352538"><ele>522.3333333333334</ele><time>2026-04-18T08:33:46Z</time></trkpt><trkpt lat="45.132441468292555" lon="7.046005413358796"><ele>523.0</ele><time>2026-04-18T08:33:47Z</time></trkpt><trkpt lat="45.13229585833888" lon="7.045842751134958"><ele>524.5</ele><time>2026-04-18T08:33:48Z</time></trkpt><trkpt lat="45.132186468338915" lon="7.0456893685839725"><ele>526.0</ele><time>2026-04-18T08:33:49Z</time></trkpt><trkpt lat="45.1320646443015" lon="7.045532660246033"><ele>527.5</ele><time>2026-04-18T08:33:50Z</time></trkpt><trkpt lat="45.13195667859968" lon="7.045429468535762"><ele>529.0</ele><time>2026-04-18T08:33:51Z</time></trkpt><trkpt lat="45.131886770727" lon="7.045258008165641"><ele>529.0</ele><time>2026-04-18T08:33:52Z</time></trkpt><trkpt lat="45.13178086276607" lon="7.045101535747589"><ele>529.0</ele><time>2026-04-18T08:33:53Z</time></trkpt><trkpt lat="45.13168344697908" lon="7.0449576989100136"><ele>529.0</ele><time>2026-04-18T08:33:54Z</time></trkpt><trkpt lat="45.13158379781922" lon="7.044802715206605"><ele>529.0</ele><time>2026-04-18T08:33:55Z</time></trkpt><trkpt lat="45.13149707977886" lon="7.044645593093406"><ele>531.5</ele><time>2026-04-18T08:33:56Z</time></trkpt><trkpt lat="45.131416669986145" lon="7.044485809362223"><ele>534.0</ele><time>2026-04-18T08:33:57Z</time></trkpt><trkpt lat="45.13135235203779" lon="7.044323275336241"><ele>536.5</ele><time>2026-04-18T08:33:58Z</time></trkpt><trkpt lat="45.13130027758202" lon="7.044194768642059"><ele>539.0</ele><time>2026-04-18T08:33:59Z</time></trkpt><trkpt lat="45.131261231467654" lon="7.04407748854529"><ele>540.0</ele><time>2026-04-18T08:34:00Z</time></trkpt><trkpt lat="45.13123704136636" lon="7.0439626309419205"><ele>541.0</ele><time>2026-04-18T08:34:01Z</time></trkpt><trkpt lat="45.131224581460955" lon="7.043838988785085"><ele>542.0</ele><time>2026-04-18T08:34:02Z</time></trkpt><trkpt lat="45.13122598249027" lon="7.043666605447466"><ele>543.0</ele><time>2026-04-18T08:34:03Z</time></trkpt><trkpt lat="45.131259943262386" lon="7.043473946432978"><ele>544.0</ele><time>2026-04-18T08:34:04Z</time></trkpt><trkpt lat="45.131287836072985" lon="7.043302495064"><ele>544.6</ele><time>2026-04-18T08:34:05Z</time></trkpt><trkpt lat="45.131283523326395" lon="7.043153410804039"><ele>545.2</ele><time>2026-04-18T08:34:06Z</time></trkpt><trkpt lat="45.131252481704315" lon="7.042997517980743"><ele>545.8000000000001</ele><time>2026-04-18T08:34:07Z</time></trkpt><trkpt lat="45.13120202332016" lon="7.042865814095042"><ele>546.4</ele><time>2026-04-18T08:34:08Z</time></trkpt><trkpt lat="45.131147557271866" lon="7.0427529454128015"><ele>547.0</ele><time>2026-04-18T08:34:09Z</time></trkpt><trkpt lat="45.13103737301759" lon="7.042668140566614"><ele>547.0</ele><time>2026-04-18T08:34:10Z</time></trkpt><trkpt lat="45.13093849791856" lon="7.04264593186518"><ele>547.0</ele><time>2026-04-18T08:34:11Z</time></trkpt><trkpt lat="45.13077928998527" lon="7.042647935802164"><ele>547.0</ele><time>2026-04-18T08:34:12Z</time></trkpt><trkpt lat="45.13062560495314" lon="7.0426004727864395"><ele>547.0</ele><time>2026-04-18T08:34:13Z</time></trkpt><trkpt lat="45.130509056077564" lon="7.042552995081392"><ele>548.0</ele><time>2026-04-18T08:34:14Z</time></trkpt><trkpt lat="45.13042188646117" lon="7.042523229499702"><ele>549.0</ele><time>2026-04-18T08:34:15Z</time></trkpt><trkpt lat="45.13032620249355" lon="7.042484687174504"><ele>550.0</ele><time>2026-04-18T08:34:16Z</time></trkpt><trkpt lat="45.130249917416414" lon="7.0424279973758095"><ele>551.0</ele><time>2026-04-18T08:34:17Z</time></trkpt><trkpt lat="45.13018659504472" lon="7.042346407857069"><ele>552.0</ele><time>2026-04-18T08:34:18Z</time></trkpt><trkpt lat="45.13022436199054" lon="7.042165929434633"><ele>552.8333333333334</ele><time>2026-04-18T08:34:19Z</time></trkpt><trkpt lat="45.13023222307112" lon="7.0420539346256525"><ele>553.6666666666666</ele><time>2026-04-18T08:34:20Z</time></trkpt><trkpt lat="45.13027820953718" lon="7.041941988296815"><ele>554.5</ele><time>2026-04-18T08:34:21Z</time></trkpt><trkpt lat="45.13031586969623" lon="7.0418634489124585"><ele>555.3333333333333</ele><time>2026-04-18T08:34:22Z</time></trkpt><trkpt lat="45.130427962698896" lon="7.041841547622045"><ele>556.1666666666666</ele><time>2026-04-18T08:34:23Z</time></trkpt><trkpt lat="45.130509475379675" lon="7.041910373792491"><ele>557.0</ele><time>2026-04-18T08:34:24Z</time></trkpt><trkpt lat="45.13063063835319" lon="7.04195164591642"><ele>557.75</ele><time>2026-04-18T08:34:25Z</time></trkpt><trkpt lat="45.13075836876152" lon="7.041994424306794"><ele>558.5</ele><time>2026-04-18T08:34:26Z</time></trkpt><trkpt lat="45.13085531406422" lon="7.042066021948301"><ele>559.25</ele><time>2026-04-18T08:34:27Z</time></trkpt><trkpt lat="45.130965617891725" lon="7.04210713024405"><ele>560.0</ele><time>2026-04-18T08:34:28Z</time></trkpt><trkpt lat="45.13107804069882" lon="7.04214283173899"><ele>560.0</ele><time>2026-04-18T08:34:29Z</time></trkpt><trkpt lat="45.131209075974226" lon="7.04217548423832"><ele>560.0</ele><time>2026-04-18T08:34:30Z</time></trkpt><trkpt lat="45.131341788725194" lon="7.042217195977864"><ele>560.0</ele><time>2026-04-18T08:34:31Z</time></trkpt><trkpt lat="45.13147038904451" lon="7.042268326178527"><ele>560.0</ele><time>2026-04-18T08:34:32Z</time></trkpt><trkpt lat="45.1316092065668" lon="7.042298208677823"><ele>562.75</ele><time>2026-04-18T08:34:33Z</time></trkpt><trkpt lat="45.131735844321035" lon="7.042302223502855"><ele>565.5</ele><time>2026-04-18T08:34:34Z</time></trkpt><trkpt lat="45.13188297734431" lon="7.042279593823583"><ele>568.25</ele><time>2026-04-18T08:34:35Z</time></trkpt><trkpt lat="45.13201641409348" lon="7.042250628390473"><ele>571.0</ele><time>2026-04-18T08:34:36Z</time></trkpt><trkpt lat="45.132132758586835" lon="7.042239883607103"><ele>571.0</ele><time>2026-04-18T08:34:37Z</time></trkpt><trkpt lat="45.13224985291926" lon="7.042299552339306"><ele>571.0</ele><time>2026-04-18T08:34:38Z</time></trkpt><trkpt lat="45.13234613118191" lon="7.042406790999143"><ele>571.0</ele><time>2026-04-18T08:34:39Z</time></trkpt><trkpt lat="45.132407902422045" lon="7.042523604920776"><ele>571.0</ele><time>2026-04-18T08:34:40Z</time></trkpt><trkpt lat="45.13243635115967" lon="7.042668977528219"><ele>567.75</ele><time>2026-04-18T08:34:41Z</time></trkpt><trkpt lat="45.13245550768351" lon="7.042821783280849"><ele>564.5</ele><time>2026-04-18T08:34:42Z</time></trkpt><trkpt lat="45.13247333526201" lon="7.043019240963767"><ele>561.25</ele><time>2026-04-18T08:34:43Z</time></trkpt><trkpt lat="45.132497658935705" lon="7.043249863461485"><ele>558.0</ele><time>2026-04-18T08:34:44Z</time></trkpt><trkpt lat="45.13253255203534" lon="7.043435960945315"><ele>556.4</ele><time>2026-04-18T08:34:45Z</time></trkpt><trkpt lat="45.13257172533765" lon="7.043600690595594"><ele>554.8</ele><time>2026-04-18T08:34:46Z</time></trkpt><trkpt lat="45.13259604933946" lon="7.043756196388183"><ele>553.2</ele><time>2026-04-18T08:34:47Z</time></trkpt><trkpt lat="45.13264518311771" lon="7.043817489822354"><ele>551.6</ele><time>2026-04-18T08:34:48Z</time></trkpt><trkpt lat="45.13270518292343" lon="7.043890319462818"><ele>550.0</ele><time>2026-04-18T08:34:49Z</time></trkpt><trkpt lat="45.13279269382111" lon="7.043922703432902"><ele>550.0</ele><time>2026-04-18T08:34:50Z</time></trkpt><trkpt lat="45.13286285236114" lon="7.04392910598232"><ele>550.0</ele><time>2026-04-18T08:34:51Z</time></trkpt><trkpt lat="45.13295277508309" lon="7.043806940632272"><ele>550.0</ele><time>2026-04-18T08:34:52Z</time></trkpt><trkpt lat="45.13304179668649" lon="7.043642521765964"><ele>550.0</ele><time>2026-04-18T08:34:53Z</time></trkpt><trkpt lat="45.13305627017459" lon="7.0434910391509415"><ele>550.0</ele><time>2026-04-18T08:34:54Z</time></trkpt><trkpt lat="45.13306216078047" lon="7.043321665987238"><ele>552.0</ele><time>2026-04-18T08:34:55Z</time></trkpt><trkpt lat="45.13303419375383" lon="7.043222706427122"><ele>554.0</ele><time>2026-04-18T08:34:56Z</time></trkpt><trkpt lat="45.13302011834756" lon="7.043021921220526"><ele>556.0</ele><time>2026-04-18T08:34:57Z</time></trkpt><trkpt lat="45.132975989788356" lon="7.0428680146069444"><ele>558.0</ele><time>2026-04-18T08:34:58Z</time></trkpt><trkpt lat="45.132917283838154" lon="7.042678296072608"><ele>558.0</ele><time>2026-04-18T08:34:59Z</time></trkpt><trkpt lat="45.13286472842249" lon="7.042484584715718"><ele>558.0</ele><time>2026-04-18T08:35:00Z</time></trkpt><trkpt lat="45.13282763417436" lon="7.042305056922463"><ele>558.0</ele><time>2026-04-18T08:35:01Z</time></trkpt><trkpt lat="45.132811387098364" lon="7.042116256396231"><ele>558.0</ele><time>2026-04-18T08:35:02Z</time></trkpt><trkpt lat="45.13284542944395" lon="7.0419102817345385"><ele>560.75</ele><time>2026-04-18T08:35:03Z</time></trkpt><trkpt lat="45.13285977962835" lon="7.041738172381031"><ele>563.5</ele><time>2026-04-18T08:35:04Z</time></trkpt><trkpt lat="45.13292167693281" lon="7.041573818068013"><ele>566.25</ele><time>2026-04-18T08:35:05Z</time></trkpt><trkpt lat="45.132994336692555" lon="7.041411860248026"><ele>569.0</ele><time>2026-04-18T08:35:06Z</time></trkpt><trkpt lat="45.13306910395446" lon="7.041262315162811"><ele>570.5</ele><time>2026-04-18T08:35:07Z</time></trkpt><trkpt lat="45.133150327617535" lon="7.041163634687284"><ele>572.0</ele><time>2026-04-18T08:35:08Z</time></trkpt><trkpt lat="45.13325237062087" lon="7.0410463230041715"><ele>573.5</ele><time>2026-04-18T08:35:09Z</time></trkpt><trkpt lat="45.133347590204" lon="7.040932997474517"><ele>575.0</ele><time>2026-04-18T08:35:10Z</time></trkpt><trkpt lat="45.133417411504816" lon="7.040809369761111"><ele>578.0</ele><time>2026-04-18T08:35:11Z</time></trkpt><trkpt lat="45.133444203959556" lon="7.0406841699549565"><ele>581.0</ele><time>2026-04-18T08:35:12Z</time></trkpt><trkpt lat="45.13344389215635" lon="7.040550592404169"><ele>584.0</ele><time>2026-04-18T08:35:13Z</time></trkpt><trkpt lat="45.13344073911091" lon="7.04040827550241"><ele>587.0</ele><time>2026-04-18T08:35:14Z</time></trkpt><trkpt lat="45.13342435545493" lon="7.040269877797172"><ele>590.0</ele><time>2026-04-18T08:35:15Z</time></trkpt><trkpt lat="45.133388285109795" lon="7.040134305593848"><ele>590.0</ele><time>2026-04-18T08:35:16Z</time></trkpt><trkpt lat="45.13335396324045" lon="7.040012493930676"><ele>590.0</ele><time>2026-04-18T08:35:17Z</time></trkpt><trkpt lat="45.133303441519125" lon="7.039885399039245"><ele>590.0</ele><time>2026-04-18T08:35:18Z</time></trkpt><trkpt lat="45.13322733274609" lon="7.039778904835299"><ele>590.0</ele><time>2026-04-18T08:35:19Z</time></trkpt><trkpt lat="45.133141042140004" lon="7.039690369617293"><ele>590.0</ele><time>2026-04-18T08:35:20Z</time></trkpt><trkpt lat="45.13300881812858" lon="7.0395858306469155"><ele>595.0</ele><time>2026-04-18T08:35:21Z</time></trkpt><trkpt lat="45.13289159796" lon="7.039520096339314"><ele>600.0</ele><time>2026-04-18T08:35:22Z</time></trkpt><trkpt lat="45.13278573641963" lon="7.0394652530142325"><ele>605.0</ele><time>2026-04-18T08:35:23Z</time></trkpt><trkpt lat="45.13268855592513" lon="7.039406455796371"><ele>610.0</ele><time>2026-04-18T08:35:24Z</time></trkpt><trkpt lat="45.13256209642677" lon="7.039404755817356"><ele>610.0</ele><time>2026-04-18T08:35:25Z</time></trkpt><trkpt lat="45.13246713287218" lon="7.039419384728784"><ele>610.0</ele><time>2026-04-18T08:35:26Z</time></trkpt><trkpt lat="45.13237775053248" lon="7.039429443171355"><ele>610.0</ele><time>2026-04-18T08:35:27Z</time></trkpt><trkpt lat="45.1322768495852" lon="7.039549742059827"><ele>610.0</ele><time>2026-04-18T08:35:28Z</time></trkpt><trkpt lat="45.13223302806506" lon="7.03965424354249"><ele>610.0</ele><time>2026-04-18T08:35:29Z</time></trkpt><trkpt lat="45.13218653651403" lon="7.039770952586115"><ele>609.6</ele><time>2026-04-18T08:35:30Z</time></trkpt><trkpt lat="45.132147056438335" lon="7.039870081034633"><ele>609.2</ele><time>2026-04-18T08:35:31Z</time></trkpt><trkpt lat="45.13209355998189" lon="7.039981639041737"><ele>608.8</ele><time>2026-04-18T08:35:32Z</time></trkpt><trkpt lat="45.132045595728556" lon="7.040093795272238"><ele>608.4</ele><time>2026-04-18T08:35:32.999Z</time></trkpt><trkpt lat="45.1319694815877" lon="7.040221077460256"><ele>608.0</ele><time>2026-04-18T08:35:33.999Z</time></trkpt><trkpt lat="45.13187409521256" lon="7.040275485855762"><ele>607.0</ele><time>2026-04-18T08:35:34.999Z</time></trkpt><trkpt lat="45.13177095047027" lon="7.040337888238185"><ele>606.0</ele><time>2026-04-18T08:35:35.999Z</time></trkpt><trkpt lat="45.131677289411364" lon="7.040390236645577"><ele>605.0</ele><time>2026-04-18T08:35:36.999Z</time></trkpt><trkpt lat="45.13156674145582" lon="7.04044565536349"><ele>604.0</ele><time>2026-04-18T08:35:37.999Z</time></trkpt><trkpt lat="45.13143331403106" lon="7.040484897274791"><ele>601.6</ele><time>2026-04-18T08:35:38.999Z</time></trkpt><trkpt lat="45.131326422190824" lon="7.040464671183225"><ele>599.2</ele><time>2026-04-18T08:35:39.999Z</time></trkpt><trkpt lat="45.131233584210996" lon="7.040409697535158"><ele>596.8000000000001</ele><time>2026-04-18T08:35:40.999Z</time></trkpt><trkpt lat="45.13115724130851" lon="7.040342045350847"><ele>594.4</ele><time>2026-04-18T08:35:41.999Z</time></trkpt><trkpt lat="45.13109051483448" lon="7.040227913997722"><ele>592.0</ele><time>2026-04-18T08:35:42.999Z</time></trkpt><trkpt lat="45.13103539166789" lon="7.040090041380445"><ele>592.8000000000001</ele><time>2026-04-18T08:35:43.999Z</time></trkpt><trkpt lat="45.13100686110014" lon="7.039951014901661"><ele>593.6</ele><time>2026-04-18T08:35:44.999Z</time></trkpt><trkpt lat="45.13099989362804" lon="7.039822610474046"><ele>594.4000000000001</ele><time>2026-04-18T08:35:45.999Z</time></trkpt><trkpt lat="45.13102012539424" lon="7.039668924177564"><ele>595.2</ele><time>2026-04-18T08:35:46.999Z</time></trkpt><trkpt lat="45.13106430621244" lon="7.039512668177388"><ele>596.0</ele><time>2026-04-18T08:35:47.999Z</time></trkpt><trkpt lat="45.13114770291166" lon="7.039389202356108"><ele>596.0</ele><time>2026-04-18T08:35:48.999Z</time></trkpt><trkpt lat="45.1312416552506" lon="7.039322470292712"><ele>596.0</ele><time>2026-04-18T08:35:49.999Z</time></trkpt><trkpt lat="45.131332244219124" lon="7.039220324934139"><ele>596.0</ele><time>2026-04-18T08:35:50.999Z</time></trkpt><trkpt lat="45.13143141380398" lon="7.039130874978718"><ele>596.0</ele><time>2026-04-18T08:35:51.999Z</time></trkpt><trkpt lat="45.13152060624814" lon="7.039025411815396"><ele>599.5</ele><time>2026-04-18T08:35:52.999Z</time></trkpt><trkpt lat="45.13158956486695" lon="7.03891575377151"><ele>603.0</ele><time>2026-04-18T08:35:53.999Z</time></trkpt><trkpt lat="45.13165103340788" lon="7.038771398060484"><ele>606.5</ele><time>2026-04-18T08:35:55Z</time></trkpt><trkpt lat="45.13169504673472" lon="7.038620355513789"><ele>610.0</ele><time>2026-04-18T08:35:56Z</time></trkpt><trkpt lat="45.13172764144262" lon="7.03845676646179"><ele>612.5</ele><time>2026-04-18T08:35:57Z</time></trkpt><trkpt lat="45.131731699951715" lon="7.038280925061761"><ele>615.0</ele><time>2026-04-18T08:35:58Z</time></trkpt><trkpt lat="45.13172745692128" lon="7.0381022797284025"><ele>617.5</ele><time>2026-04-18T08:35:59Z</time></trkpt><trkpt lat="45.13170079323216" lon="7.037927328697378"><ele>620.0</ele><time>2026-04-18T08:36:00Z</time></trkpt><trkpt lat="45.13166967573785" lon="7.037750323894543"><ele>620.0</ele><time>2026-04-18T08:36:01Z</time></trkpt><trkpt lat="45.13163856180203" lon="7.037569200975397"><ele>620.0</ele><time>2026-04-18T08:36:02Z</time></trkpt><trkpt lat="45.13162034130363" lon="7.03737806753672"><ele>620.0</ele><time>2026-04-18T08:36:03Z</time></trkpt><trkpt lat="45.1315943544443" lon="7.037174025199916"><ele>620.0</ele><time>2026-04-18T08:36:04Z</time></trkpt><trkpt lat="45.13157152235575" lon="7.036977792658623"><ele>619.0</ele><time>2026-04-18T08:36:05Z</time></trkpt><trkpt lat="45.13153235069338" lon="7.036771017877059"><ele>618.0</ele><time>2026-04-18T08:36:06Z</time></trkpt><trkpt lat="45.131503618570974" lon="7.036561629704253"><ele>617.0</ele><time>2026-04-18T08:36:07Z</time></trkpt><trkpt lat="45.13147731386058" lon="7.036349945177963"><ele>617.0</ele><time>2026-04-18T08:36:08Z</time></trkpt><trkpt lat="45.13142030714521" lon="7.036149580312405"><ele>617.0</ele><time>2026-04-18T08:36:09Z</time></trkpt><trkpt lat="45.1314067035102" lon="7.035915471670465"><ele>617.0</ele><time>2026-04-18T08:36:10Z</time></trkpt><trkpt lat="45.131372895713184" lon="7.035681134600436"><ele>621.3333333333333</ele><time>2026-04-18T08:36:11Z</time></trkpt><trkpt lat="45.1313470375477" lon="7.035450722018863"><ele>625.6666666666666</ele><time>2026-04-18T08:36:12Z</time></trkpt><trkpt lat="45.131323368675275" lon="7.035246351358556"><ele>630.0</ele><time>2026-04-18T08:36:13Z</time></trkpt><trkpt lat="45.13132143207187" lon="7.035046286052365"><ele>632.25</ele><time>2026-04-18T08:36:14Z</time></trkpt><trkpt lat="45.131272084608554" lon="7.034859237830756"><ele>634.5</ele><time>2026-04-18T08:36:15Z</time></trkpt><trkpt lat="45.131219224452884" lon="7.034671379948967"><ele>636.75</ele><time>2026-04-18T08:36:16Z</time></trkpt><trkpt lat="45.13117011185841" lon="7.034503172043235"><ele>639.0</ele><time>2026-04-18T08:36:17Z</time></trkpt><trkpt lat="45.13111726706426" lon="7.034314036677501"><ele>643.0</ele><time>2026-04-18T08:36:18Z</time></trkpt><trkpt lat="45.13106008033276" lon="7.034137606892311"><ele>647.0</ele><time>2026-04-18T08:36:19Z</time></trkpt><trkpt lat="45.13100283839719" lon="7.033962066871099"><ele>651.0</ele><time>2026-04-18T08:36:20Z</time></trkpt><trkpt lat="45.13092426300473" lon="7.033800151904617"><ele>655.0</ele><time>2026-04-18T08:36:21Z</time></trkpt><trkpt lat="45.13084683207176" lon="7.033651399223149"><ele>655.0</ele><time>2026-04-18T08:36:22Z</time></trkpt><trkpt lat="45.13075815032804" lon="7.033492363711745"><ele>655.0</ele><time>2026-04-18T08:36:23Z</time></trkpt><trkpt lat="45.13067337020099" lon="7.033346034021141"><ele>655.0</ele><time>2026-04-18T08:36:24Z</time></trkpt><trkpt lat="45.13058849909913" lon="7.033194407304689"><ele>655.0</ele><time>2026-04-18T08:36:25Z</time></trkpt><trkpt lat="45.130502905405315" lon="7.033056104970823"><ele>654.25</ele><time>2026-04-18T08:36:26Z</time></trkpt><trkpt lat="45.13041997936387" lon="7.032880951415092"><ele>653.5</ele><time>2026-04-18T08:36:27Z</time></trkpt><trkpt lat="45.13033314391002" lon="7.032722756178821"><ele>652.75</ele><time>2026-04-18T08:36:28Z</time></trkpt><trkpt lat="45.130302690367934" lon="7.032537543860856"><ele>652.0</ele><time>2026-04-18T08:36:29Z</time></trkpt><trkpt lat="45.13022321451451" lon="7.032357771320928"><ele>656.3333333333334</ele><time>2026-04-18T08:36:30Z</time></trkpt><trkpt lat="45.130146585178316" lon="7.032187842516913"><ele>660.6666666666666</ele><time>2026-04-18T08:36:31Z</time></trkpt><trkpt lat="45.130060262230266" lon="7.032001718045029"><ele>665.0</ele><time>2026-04-18T08:36:32Z</time></trkpt><trkpt lat="45.129956247667394" lon="7.031807612819641"><ele>669.6666666666666</ele><time>2026-04-18T08:36:33Z</time></trkpt><trkpt lat="45.129835969375875" lon="7.03162167963897"><ele>674.3333333333334</ele><time>2026-04-18T08:36:34Z</time></trkpt><trkpt lat="45.129708975278746" lon="7.031438913072125"><ele>679.0</ele><time>2026-04-18T08:36:35Z</time></trkpt><trkpt lat="45.12960522910047" lon="7.0312908352018795"><ele>679.0</ele><time>2026-04-18T08:36:36Z</time></trkpt><trkpt lat="45.12947758923887" lon="7.031124391700976"><ele>679.0</ele><time>2026-04-18T08:36:37Z</time></trkpt><trkpt lat="45.129377608938945" lon="7.0309542459018814"><ele>679.0</ele><time>2026-04-18T08:36:38Z</time></trkpt><trkpt lat="45.12927614555938" lon="7.030761987977474"><ele>679.75</ele><time>2026-04-18T08:36:39Z</time></trkpt><trkpt lat="45.129202858801925" lon="7.030588322122933"><ele>680.5</ele><time>2026-04-18T08:36:40Z</time></trkpt><trkpt lat="45.12913649998118" lon="7.030409342287579"><ele>681.25</ele><time>2026-04-18T08:36:41Z</time></trkpt><trkpt lat="45.12910727582638" lon="7.0302120805134365"><ele>682.0</ele><time>2026-04-18T08:36:42Z</time></trkpt><trkpt lat="45.129113386008065" lon="7.030014159137078"><ele>683.75</ele><time>2026-04-18T08:36:43Z</time></trkpt><trkpt lat="45.12914698213939" lon="7.0298028555378576"><ele>685.5</ele><time>2026-04-18T08:36:44Z</time></trkpt><trkpt lat="45.12923795243688" lon="7.029648852701962"><ele>687.25</ele><time>2026-04-18T08:36:45Z</time></trkpt><trkpt lat="45.12930554482195" lon="7.029477924678431"><ele>689.0</ele><time>2026-04-18T08:36:46Z</time></trkpt><trkpt lat="45.129400473545225" lon="7.029304277054696"><ele>690.0</ele><time>2026-04-18T08:36:47Z</time></trkpt><trkpt lat="45.129499954167386" lon="7.029125223713071"><ele>691.0</ele><time>2026-04-18T08:36:48Z</time></trkpt><trkpt lat="45.12957772755347" lon="7.0289409702430925"><ele>692.0</ele><time>2026-04-18T08:36:49Z</time></trkpt><trkpt lat="45.12965157928822" lon="7.028760313104958"><ele>692.0</ele><time>2026-04-18T08:36:50Z</time></trkpt><trkpt lat="45.12967788683656" lon="7.028583657006885"><ele>692.0</ele><time>2026-04-18T08:36:51Z</time></trkpt><trkpt lat="45.129674291413735" lon="7.028353809095034"><ele>692.0</ele><time>2026-04-18T08:36:52Z</time></trkpt><trkpt lat="45.12967688170406" lon="7.028080581109283"><ele>692.75</ele><time>2026-04-18T08:36:53Z</time></trkpt><trkpt lat="45.129670843587704" lon="7.027870474880839"><ele>693.5</ele><time>2026-04-18T08:36:54Z</time></trkpt><trkpt lat="45.12968271907631" lon="7.027664238763337"><ele>694.25</ele><time>2026-04-18T08:36:55Z</time></trkpt><trkpt lat="45.12969052457927" lon="7.027457428231681"><ele>695.0</ele><time>2026-04-18T08:36:56Z</time></trkpt><trkpt lat="45.129694736967146" lon="7.027251702191891"><ele>695.0</ele><time>2026-04-18T08:36:57Z</time></trkpt><trkpt lat="45.12969712280027" lon="7.02705696496195"><ele>695.0</ele><time>2026-04-18T08:36:58Z</time></trkpt><trkpt lat="45.12970525291765" lon="7.0268531030412875"><ele>695.0</ele><time>2026-04-18T08:36:59Z</time></trkpt><trkpt lat="45.12970319551205" lon="7.026673510260136"><ele>695.0</ele><time>2026-04-18T08:37:00Z</time></trkpt><trkpt lat="45.12968371664297" lon="7.026478694452307"><ele>695.5</ele><time>2026-04-18T08:37:01Z</time></trkpt><trkpt lat="45.12965557546964" lon="7.026294562227622"><ele>696.0</ele><time>2026-04-18T08:37:02Z</time></trkpt><trkpt lat="45.12961669004091" lon="7.026091894486745"><ele>696.5</ele><time>2026-04-18T08:37:03Z</time></trkpt><trkpt lat="45.12957793958266" lon="7.025893789926099"><ele>697.0</ele><time>2026-04-18T08:37:04Z</time></trkpt><trkpt lat="45.12951314657709" lon="7.025706535223718"><ele>697.3333333333334</ele><time>2026-04-18T08:37:05Z</time></trkpt><trkpt lat="45.12941848439364" lon="7.0255157610404"><ele>697.6666666666666</ele><time>2026-04-18T08:37:06Z</time></trkpt><trkpt lat="45.1293254277691" lon="7.025332365673884"><ele>698.0</ele><time>2026-04-18T08:37:07Z</time></trkpt><trkpt lat="45.129217759374555" lon="7.025147799267223"><ele>699.3333333333333</ele><time>2026-04-18T08:37:08Z</time></trkpt><trkpt lat="45.12909453612354" lon="7.024969020872278"><ele>700.6666666666666</ele><time>2026-04-18T08:37:09Z</time></trkpt><trkpt lat="45.12895890747585" lon="7.024791626940011"><ele>702.0</ele><time>2026-04-18T08:37:10Z</time></trkpt><trkpt lat="45.128812408818305" lon="7.02462187662145"><ele>706.0</ele><time>2026-04-18T08:37:11Z</time></trkpt><trkpt lat="45.128576896227216" lon="7.02449432344411"><ele>710.0</ele><time>2026-04-18T08:37:12Z</time></trkpt><trkpt lat="45.12836731066397" lon="7.024431956862107"><ele>713.6666666666666</ele><time>2026-04-18T08:37:13Z</time></trkpt><trkpt lat="45.128217933257446" lon="7.0242702321324"><ele>717.3333333333334</ele><time>2026-04-18T08:37:14Z</time></trkpt><trkpt lat="45.12803747687813" lon="7.02414180328057"><ele>721.0</ele><time>2026-04-18T08:37:15Z</time></trkpt><trkpt lat="45.1278556385695" lon="7.0239789590965485"><ele>721.0</ele><time>2026-04-18T08:37:16Z</time></trkpt><trkpt lat="45.127666321438376" lon="7.023778095582467"><ele>721.0</ele><time>2026-04-18T08:37:17Z</time></trkpt><trkpt lat="45.127402281291474" lon="7.023569831081089"><ele>723.5</ele><time>2026-04-18T08:37:18Z</time></trkpt><trkpt lat="45.12719270094665" lon="7.023414596862138"><ele>726.0</ele><time>2026-04-18T08:37:19Z</time></trkpt><trkpt lat="45.1269998983844" lon="7.0232373544837365"><ele>726.0</ele><time>2026-04-18T08:37:20Z</time></trkpt><trkpt lat="45.126816637665755" lon="7.0230644538595115"><ele>726.0</ele><time>2026-04-18T08:37:21Z</time></trkpt><trkpt lat="45.12663074361585" lon="7.02292664279472"><ele>726.0</ele><time>2026-04-18T08:37:22Z</time></trkpt><trkpt lat="45.126531146933914" lon="7.022790665870382"><ele>731.3333333333334</ele><time>2026-04-18T08:37:23Z</time></trkpt><trkpt lat="45.126361930929356" lon="7.02266531391306"><ele>736.6666666666667</ele><time>2026-04-18T08:37:24Z</time></trkpt><trkpt lat="45.126201972693664" lon="7.022536799503117"><ele>742.0</ele><time>2026-04-18T08:37:25Z</time></trkpt><trkpt lat="45.12606453451714" lon="7.022395528173888"><ele>742.0</ele><time>2026-04-18T08:37:26Z</time></trkpt><trkpt lat="45.12592525160678" lon="7.022258890441652"><ele>742.0</ele><time>2026-04-18T08:37:27Z</time></trkpt><trkpt lat="45.125820352201444" lon="7.022086848147311"><ele>742.0</ele><time>2026-04-18T08:37:28Z</time></trkpt><trkpt lat="45.12573818146628" lon="7.021902676219774"><ele>757.3333333333334</ele><time>2026-04-18T08:37:29Z</time></trkpt><trkpt lat="45.12567519542542" lon="7.021684362602266"><ele>772.6666666666667</ele><time>2026-04-18T08:37:30Z</time></trkpt><trkpt lat="45.125627731976664" lon="7.02143318551338"><ele>788.0</ele><time>2026-04-18T08:37:31Z</time></trkpt><trkpt lat="45.12561922769305" lon="7.021252509364347"><ele>788.0</ele><time>2026-04-18T08:37:32Z</time></trkpt><trkpt lat="45.12566985948097" lon="7.021121760629206"><ele>788.0</ele><time>2026-04-18T08:37:33Z</time></trkpt><trkpt lat="45.12569771605459" lon="7.020942609230242"><ele>788.0</ele><time>2026-04-18T08:37:34Z</time></trkpt><trkpt lat="45.12573505328861" lon="7.020765149621432"><ele>788.0</ele><time>2026-04-18T08:37:35Z</time></trkpt><trkpt lat="45.12581458421999" lon="7.020597068830262"><ele>775.3333333333334</ele><time>2026-04-18T08:37:36Z</time></trkpt><trkpt lat="45.12588114086315" lon="7.020430130934448"><ele>762.6666666666667</ele><time>2026-04-18T08:37:37Z</time></trkpt><trkpt lat="45.12598127388238" lon="7.020225761560019"><ele>750.0</ele><time>2026-04-18T08:37:38Z</time></trkpt><trkpt lat="45.12606936235762" lon="7.020059832360038"><ele>751.5</ele><time>2026-04-18T08:37:38.999Z</time></trkpt><trkpt lat="45.12615001545244" lon="7.019912263657576"><ele>753.0</ele><time>2026-04-18T08:37:39.999Z</time></trkpt><trkpt lat="45.12619759367619" lon="7.01977336733167"><ele>754.5</ele><time>2026-04-18T08:37:40.999Z</time></trkpt><trkpt lat="45.126239474962624" lon="7.019589209792107"><ele>756.0</ele><time>2026-04-18T08:37:41.999Z</time></trkpt><trkpt lat="45.1262863727835" lon="7.01945194973189"><ele>756.0</ele><time>2026-04-18T08:37:42.999Z</time></trkpt><trkpt lat="45.126330538792935" lon="7.019288665264574"><ele>756.0</ele><time>2026-04-18T08:37:43.999Z</time></trkpt><trkpt lat="45.126372555475285" lon="7.0191214929359775"><ele>756.0</ele><time>2026-04-18T08:37:44.999Z</time></trkpt><trkpt lat="45.12642061666052" lon="7.018985818962919"><ele>756.0</ele><time>2026-04-18T08:37:45.999Z</time></trkpt><trkpt lat="45.12645475080856" lon="7.018838077874713"><ele>756.8</ele><time>2026-04-18T08:37:46.999Z</time></trkpt><trkpt lat="45.12648859000833" lon="7.018680439952515"><ele>757.5999999999999</ele><time>2026-04-18T08:37:47.999Z</time></trkpt><trkpt lat="45.126529106100975" lon="7.018538366609308"><ele>758.4</ele><time>2026-04-18T08:37:48.999Z</time></trkpt><trkpt lat="45.12654378528552" lon="7.018389769289871"><ele>759.2</ele><time>2026-04-18T08:37:49.999Z</time></trkpt><trkpt lat="45.12656277892456" lon="7.018233922898959"><ele>760.0</ele><time>2026-04-18T08:37:50.999Z</time></trkpt><trkpt lat="45.12658344098354" lon="7.0180691755017355"><ele>760.0</ele><time>2026-04-18T08:37:51.999Z</time></trkpt><trkpt lat="45.126599362756934" lon="7.017817312696067"><ele>760.0</ele><time>2026-04-18T08:37:54Z</time></trkpt><trkpt lat="45.12661807544032" lon="7.017662645678849"><ele>760.0</ele><time>2026-04-18T08:37:55Z</time></trkpt><trkpt lat="45.12663599473357" lon="7.017523398417261"><ele>760.0</ele><time>2026-04-18T08:37:56Z</time></trkpt><trkpt lat="45.126637769603846" lon="7.017369165968721"><ele>760.0</ele><time>2026-04-18T08:37:57Z</time></trkpt><trkpt lat="45.12669784735169" lon="7.017243555658647"><ele>760.0</ele><time>2026-04-18T08:37:58Z</time></trkpt><trkpt lat="45.12675976122034" lon="7.017104704943226"><ele>760.0</ele><time>2026-04-18T08:37:59Z</time></trkpt><trkpt lat="45.12681645197993" lon="7.016950383049904"><ele>760.0</ele><time>2026-04-18T08:38:00Z</time></trkpt><trkpt lat="45.12687325826563" lon="7.016795941089286"><ele>760.0</ele><time>2026-04-18T08:38:01Z</time></trkpt><trkpt lat="45.12692296250595" lon="7.016634574062523"><ele>760.0</ele><time>2026-04-18T08:38:02Z</time></trkpt><trkpt lat="45.126953328989" lon="7.016478737544259"><ele>760.0</ele><time>2026-04-18T08:38:03Z</time></trkpt><trkpt lat="45.126986890789425" lon="7.016312652918543"><ele>760.0</ele><time>2026-04-18T08:38:04Z</time></trkpt><trkpt lat="45.12701579335792" lon="7.016125472310687"><ele>760.0</ele><time>2026-04-18T08:38:05Z</time></trkpt><trkpt lat="45.127042177578794" lon="7.015962992243976"><ele>760.0</ele><time>2026-04-18T08:38:06Z</time></trkpt><trkpt lat="45.12706086836754" lon="7.015765126987449"><ele>760.0</ele><time>2026-04-18T08:38:07Z</time></trkpt><trkpt lat="45.12708152452348" lon="7.015603996842419"><ele>760.0</ele><time>2026-04-18T08:38:08Z</time></trkpt><trkpt lat="45.127120903991276" lon="7.015427579300912"><ele>759.75</ele><time>2026-04-18T08:38:09Z</time></trkpt><trkpt lat="45.127164513906145" lon="7.015292452501991"><ele>759.5</ele><time>2026-04-18T08:38:10Z</time></trkpt><trkpt lat="45.127213564474985" lon="7.015125571918787"><ele>759.25</ele><time>2026-04-18T08:38:11Z</time></trkpt><trkpt lat="45.127267128787366" lon="7.0149695866772825"><ele>759.0</ele><time>2026-04-18T08:38:12Z</time></trkpt><trkpt lat="45.12731291108444" lon="7.014787140372664"><ele>758.5</ele><time>2026-04-18T08:38:13Z</time></trkpt><trkpt lat="45.12734053040289" lon="7.014595188277446"><ele>758.0</ele><time>2026-04-18T08:38:14Z</time></trkpt><trkpt lat="45.12735879476586" lon="7.014412348421185"><ele>757.5</ele><time>2026-04-18T08:38:15Z</time></trkpt><trkpt lat="45.127381257479406" lon="7.014205627013184"><ele>757.0</ele><time>2026-04-18T08:38:16Z</time></trkpt><trkpt lat="45.127398600242685" lon="7.014037760066348"><ele>757.25</ele><time>2026-04-18T08:38:17Z</time></trkpt><trkpt lat="45.127374455345006" lon="7.013834643418681"><ele>757.5</ele><time>2026-04-18T08:38:18Z</time></trkpt><trkpt lat="45.12733724245312" lon="7.013631788578883"><ele>757.75</ele><time>2026-04-18T08:38:19Z</time></trkpt><trkpt lat="45.12732448185327" lon="7.013449913246434"><ele>758.0</ele><time>2026-04-18T08:38:20Z</time></trkpt><trkpt lat="45.12730061241487" lon="7.013253713610378"><ele>756.75</ele><time>2026-04-18T08:38:21Z</time></trkpt><trkpt lat="45.127286446363605" lon="7.013088730718867"><ele>755.5</ele><time>2026-04-18T08:38:22Z</time></trkpt><trkpt lat="45.12725908329552" lon="7.012932004568788"><ele>754.25</ele><time>2026-04-18T08:38:23Z</time></trkpt><trkpt lat="45.12723895924559" lon="7.012773415327366"><ele>753.0</ele><time>2026-04-18T08:38:24Z</time></trkpt><trkpt lat="45.12722191534525" lon="7.012609249776313"><ele>752.2</ele><time>2026-04-18T08:38:25Z</time></trkpt><trkpt lat="45.12721355791192" lon="7.01245130967939"><ele>751.4</ele><time>2026-04-18T08:38:26Z</time></trkpt><trkpt lat="45.12720135175365" lon="7.012299256908449"><ele>750.6</ele><time>2026-04-18T08:38:27Z</time></trkpt><trkpt lat="45.127194420530515" lon="7.012161289863629"><ele>749.8000000000001</ele><time>2026-04-18T08:38:28Z</time></trkpt><trkpt lat="45.12718302183144" lon="7.012040870691678"><ele>749.0</ele><time>2026-04-18T08:38:29Z</time></trkpt><trkpt lat="45.127201841507585" lon="7.011944883888602"><ele>749.0</ele><time>2026-04-18T08:38:30Z</time></trkpt><trkpt lat="45.12720699718731" lon="7.011851973011884"><ele>749.0</ele><time>2026-04-18T08:38:31Z</time></trkpt><trkpt lat="45.12720797302195" lon="7.011699192218754"><ele>749.0</ele><time>2026-04-18T08:38:33Z</time></trkpt><trkpt lat="45.12721825707582" lon="7.011563869233346"><ele>749.0</ele><time>2026-04-18T08:38:35Z</time></trkpt><trkpt lat="45.12722446743711" lon="7.011465200768109"><ele>749.0</ele><time>2026-04-18T08:38:37Z</time></trkpt><trkpt lat="45.12719911647794" lon="7.01137372837142"><ele>749.0</ele><time>2026-04-18T08:38:40Z</time></trkpt><trkpt lat="45.127170187148025" lon="7.011292007770358"><ele>748.6</ele><time>2026-04-18T08:39:09Z</time></trkpt><trkpt lat="45.12710311090489" lon="7.01124313469467"><ele>748.2</ele><time>2026-04-18T08:39:11Z</time></trkpt><trkpt lat="45.12705584847474" lon="7.011109850198696"><ele>747.8000000000001</ele><time>2026-04-18T08:39:13Z</time></trkpt><trkpt lat="45.12705699275514" lon="7.010990845760508"><ele>747.4000000000001</ele><time>2026-04-18T08:39:14Z</time></trkpt><trkpt lat="45.12703152011028" lon="7.010866631670459"><ele>747.0</ele><time>2026-04-18T08:39:15Z</time></trkpt><trkpt lat="45.12701564472741" lon="7.010728250633074"><ele>746.75</ele><time>2026-04-18T08:39:16Z</time></trkpt><trkpt lat="45.12699089741123" lon="7.010570393571225"><ele>746.5</ele><time>2026-04-18T08:39:17Z</time></trkpt><trkpt lat="45.126950702975975" lon="7.010401733297905"><ele>746.25</ele><time>2026-04-18T08:39:18Z</time></trkpt><trkpt lat="45.126928498209715" lon="7.010213194216951"><ele>746.0</ele><time>2026-04-18T08:39:19Z</time></trkpt><trkpt lat="45.12690045311061" lon="7.010002581798352"><ele>745.0</ele><time>2026-04-18T08:39:20Z</time></trkpt><trkpt lat="45.12686138136968" lon="7.009763277575008"><ele>744.0</ele><time>2026-04-18T08:39:21Z</time></trkpt><trkpt lat="45.126813576676106" lon="7.009512265858401"><ele>743.0</ele><time>2026-04-18T08:39:22Z</time></trkpt><trkpt lat="45.12677556722319" lon="7.009234757819677"><ele>740.6666666666666</ele><time>2026-04-18T08:39:23Z</time></trkpt><trkpt lat="45.126732441680744" lon="7.008966999483387"><ele>738.3333333333334</ele><time>2026-04-18T08:39:24Z</time></trkpt><trkpt lat="45.126683323042414" lon="7.008687705838406"><ele>736.0</ele><time>2026-04-18T08:39:25Z</time></trkpt><trkpt lat="45.12663684260812" lon="7.00840076551593"><ele>736.0</ele><time>2026-04-18T08:39:26Z</time></trkpt><trkpt lat="45.126605210804314" lon="7.00812864166813"><ele>736.0</ele><time>2026-04-18T08:39:27Z</time></trkpt><trkpt lat="45.12657108930158" lon="7.007856381993112"><ele>736.0</ele><time>2026-04-18T08:39:28Z</time></trkpt><trkpt lat="45.126525039704724" lon="7.007562475001443"><ele>739.0</ele><time>2026-04-18T08:39:29Z</time></trkpt><trkpt lat="45.12648422806481" lon="7.007271253140396"><ele>742.0</ele><time>2026-04-18T08:39:30Z</time></trkpt><trkpt lat="45.126442919016085" lon="7.006995754497605"><ele>745.0</ele><time>2026-04-18T08:39:31Z</time></trkpt><trkpt lat="45.12640474281967" lon="7.006714033232657"><ele>745.3333333333334</ele><time>2026-04-18T08:39:32Z</time></trkpt><trkpt lat="45.126349411840266" lon="7.006434371282771"><ele>745.6666666666666</ele><time>2026-04-18T08:39:33Z</time></trkpt><trkpt lat="45.126300725828855" lon="7.006157916828045"><ele>746.0</ele><time>2026-04-18T08:39:34Z</time></trkpt><trkpt lat="45.12621854919019" lon="7.005854882455444"><ele>745.0</ele><time>2026-04-18T08:39:35Z</time></trkpt><trkpt lat="45.12612953172744" lon="7.0055768396523685"><ele>744.0</ele><time>2026-04-18T08:39:36Z</time></trkpt><trkpt lat="45.12604566578511" lon="7.005280003370193"><ele>743.0</ele><time>2026-04-18T08:39:37Z</time></trkpt><trkpt lat="45.1259602447869" lon="7.004987864352078"><ele>743.3333333333333</ele><time>2026-04-18T08:39:38Z</time></trkpt><trkpt lat="45.125859979435425" lon="7.00470312442797"><ele>743.6666666666666</ele><time>2026-04-18T08:39:39Z</time></trkpt><trkpt lat="45.12574799016998" lon="7.004426648563718"><ele>744.0</ele><time>2026-04-18T08:39:40Z</time></trkpt><trkpt lat="45.12563943960062" lon="7.004156526608653"><ele>744.0</ele><time>2026-04-18T08:39:41Z</time></trkpt><trkpt lat="45.12554094362495" lon="7.003891150963339"><ele>744.0</ele><time>2026-04-18T08:39:42Z</time></trkpt><trkpt lat="45.12543350212705" lon="7.003641683073494"><ele>744.0</ele><time>2026-04-18T08:39:43Z</time></trkpt><trkpt lat="45.125303685676954" lon="7.003389734636399"><ele>743.3333333333334</ele><time>2026-04-18T08:39:44Z</time></trkpt><trkpt lat="45.125180094326005" lon="7.0031459631123205"><ele>742.6666666666667</ele><time>2026-04-18T08:39:45Z</time></trkpt><trkpt lat="45.125055600971926" lon="7.002928663930633"><ele>742.0</ele><time>2026-04-18T08:39:46Z</time></trkpt><trkpt lat="45.124946994016284" lon="7.002688922641749"><ele>743.6666666666667</ele><time>2026-04-18T08:39:47Z</time></trkpt><trkpt lat="45.12483280225253" lon="7.00246721563278"><ele>745.3333333333334</ele><time>2026-04-18T08:39:48Z</time></trkpt><trkpt lat="45.1247251585946" lon="7.002259449839831"><ele>747.0</ele><time>2026-04-18T08:39:49Z</time></trkpt><trkpt lat="45.12466816956084" lon="7.002026604697239"><ele>747.0</ele><time>2026-04-18T08:39:50Z</time></trkpt><trkpt lat="45.12461289362932" lon="7.001794431442848"><ele>747.0</ele><time>2026-04-18T08:39:51Z</time></trkpt><trkpt lat="45.124575077015436" lon="7.001555555786221"><ele>747.0</ele><time>2026-04-18T08:39:52Z</time></trkpt><trkpt lat="45.124595232950774" lon="7.001324062045992"><ele>746.3333333333334</ele><time>2026-04-18T08:39:53Z</time></trkpt><trkpt lat="45.12461778148997" lon="7.001061625244396"><ele>745.6666666666667</ele><time>2026-04-18T08:39:54Z</time></trkpt><trkpt lat="45.12464506414872" lon="7.000793878355196"><ele>745.0</ele><time>2026-04-18T08:39:55Z</time></trkpt><trkpt lat="45.12467123711734" lon="7.000524161651058"><ele>745.0</ele><time>2026-04-18T08:39:56Z</time></trkpt><trkpt lat="45.124697324044014" lon="7.000251547900863"><ele>745.0</ele><time>2026-04-18T08:39:57Z</time></trkpt><trkpt lat="45.124725350694206" lon="6.999958211066295"><ele>745.0</ele><time>2026-04-18T08:39:58Z</time></trkpt><trkpt lat="45.12474701111774" lon="6.999687605061984"><ele>745.0</ele><time>2026-04-18T08:39:59Z</time></trkpt><trkpt lat="45.12475966589009" lon="6.9994287957891475"><ele>745.0</ele><time>2026-04-18T08:40:00Z</time></trkpt><trkpt lat="45.124740577892574" lon="6.999175311266566"><ele>745.0</ele><time>2026-04-18T08:40:01Z</time></trkpt><trkpt lat="45.12473841141676" lon="6.998932035758543"><ele>744.0</ele><time>2026-04-18T08:40:02Z</time></trkpt><trkpt lat="45.12469424014159" lon="6.9986918952764885"><ele>743.0</ele><time>2026-04-18T08:40:03Z</time></trkpt><trkpt lat="45.12463254303334" lon="6.998454008900895"><ele>742.0</ele><time>2026-04-18T08:40:04Z</time></trkpt><trkpt lat="45.124584509762315" lon="6.998201671329292"><ele>742.0</ele><time>2026-04-18T08:40:05Z</time></trkpt><trkpt lat="45.12448071163059" lon="6.99795516444656"><ele>742.0</ele><time>2026-04-18T08:40:06Z</time></trkpt><trkpt lat="45.1243544850913" lon="6.997738437261877"><ele>742.0</ele><time>2026-04-18T08:40:07Z</time></trkpt><trkpt lat="45.124228074273994" lon="6.99753668708535"><ele>741.0</ele><time>2026-04-18T08:40:08Z</time></trkpt><trkpt lat="45.124093650112826" lon="6.997327053336137"><ele>740.0</ele><time>2026-04-18T08:40:09Z</time></trkpt><trkpt lat="45.12394688115251" lon="6.997137802978608"><ele>739.0</ele><time>2026-04-18T08:40:10Z</time></trkpt><trkpt lat="45.12382635454908" lon="6.996923874649225"><ele>740.6666666666667</ele><time>2026-04-18T08:40:11Z</time></trkpt><trkpt lat="45.12371568516856" lon="6.996713155401017"><ele>742.3333333333334</ele><time>2026-04-18T08:40:12Z</time></trkpt><trkpt lat="45.12361309476621" lon="6.996499400222765"><ele>744.0</ele><time>2026-04-18T08:40:13Z</time></trkpt><trkpt lat="45.1235134627229" lon="6.99626601149689"><ele>744.0</ele><time>2026-04-18T08:40:14Z</time></trkpt><trkpt lat="45.12341530261033" lon="6.996020412113474"><ele>744.0</ele><time>2026-04-18T08:40:15Z</time></trkpt><trkpt lat="45.12333121768498" lon="6.995778088713321"><ele>744.0</ele><time>2026-04-18T08:40:16Z</time></trkpt><trkpt lat="45.12325690403369" lon="6.9955196875011225"><ele>745.6666666666666</ele><time>2026-04-18T08:40:17Z</time></trkpt><trkpt lat="45.12318716163469" lon="6.995263906328398"><ele>747.3333333333333</ele><time>2026-04-18T08:40:18Z</time></trkpt><trkpt lat="45.123115233115726" lon="6.994991605408496"><ele>749.0</ele><time>2026-04-18T08:40:19Z</time></trkpt><trkpt lat="45.12304451059819" lon="6.9947238701428285"><ele>749.0</ele><time>2026-04-18T08:40:20Z</time></trkpt><trkpt lat="45.1229719207285" lon="6.994450785292983"><ele>749.0</ele><time>2026-04-18T08:40:21Z</time></trkpt><trkpt lat="45.12290102588266" lon="6.994184734976143"><ele>749.0</ele><time>2026-04-18T08:40:22Z</time></trkpt><trkpt lat="45.12282468695365" lon="6.993927389243215"><ele>747.0</ele><time>2026-04-18T08:40:23Z</time></trkpt><trkpt lat="45.12275654579404" lon="6.993668617268398"><ele>745.0</ele><time>2026-04-18T08:40:24Z</time></trkpt><trkpt lat="45.122692248651475" lon="6.993401208344326"><ele>743.0</ele><time>2026-04-18T08:40:25Z</time></trkpt><trkpt lat="45.12261606593943" lon="6.993136483737298"><ele>742.3333333333333</ele><time>2026-04-18T08:40:26Z</time></trkpt><trkpt lat="45.1225556539278" lon="6.9928795570803555"><ele>741.6666666666666</ele><time>2026-04-18T08:40:27Z</time></trkpt><trkpt lat="45.12248515197754" lon="6.992629872356713"><ele>741.0</ele><time>2026-04-18T08:40:28Z</time></trkpt><trkpt lat="45.122422994547925" lon="6.992374677155938"><ele>745.6666666666666</ele><time>2026-04-18T08:40:29Z</time></trkpt><trkpt lat="45.12235550750767" lon="6.992160949400645"><ele>750.3333333333333</ele><time>2026-04-18T08:40:30Z</time></trkpt><trkpt lat="45.12229546640328" lon="6.991931186648598"><ele>755.0</ele><time>2026-04-18T08:40:31Z</time></trkpt><trkpt lat="45.12223409960939" lon="6.991696200005446"><ele>754.0</ele><time>2026-04-18T08:40:32Z</time></trkpt><trkpt lat="45.1221690595369" lon="6.991472380841184"><ele>753.0</ele><time>2026-04-18T08:40:33Z</time></trkpt><trkpt lat="45.12210312890002" lon="6.991258339825308"><ele>752.0</ele><time>2026-04-18T08:40:34Z</time></trkpt><trkpt lat="45.122063490927474" lon="6.991026337139823"><ele>751.0</ele><time>2026-04-18T08:40:35Z</time></trkpt><trkpt lat="45.12202309204198" lon="6.990815448685033"><ele>750.0</ele><time>2026-04-18T08:40:36Z</time></trkpt><trkpt lat="45.121991846153136" lon="6.990599590889374"><ele>749.0</ele><time>2026-04-18T08:40:37Z</time></trkpt><trkpt lat="45.12196249768471" lon="6.9903905324141515"><ele>749.0</ele><time>2026-04-18T08:40:38Z</time></trkpt><trkpt lat="45.1219217605748" lon="6.990154981276916"><ele>749.0</ele><time>2026-04-18T08:40:39Z</time></trkpt><trkpt lat="45.12187357703536" lon="6.989956556870014"><ele>749.0</ele><time>2026-04-18T08:40:40Z</time></trkpt><trkpt lat="45.12181229078366" lon="6.989762174387202"><ele>748.6666666666666</ele><time>2026-04-18T08:40:41Z</time></trkpt><trkpt lat="45.121761858059706" lon="6.989556029260039"><ele>748.3333333333334</ele><time>2026-04-18T08:40:42Z</time></trkpt><trkpt lat="45.121697180366446" lon="6.9893395624379515"><ele>748.0</ele><time>2026-04-18T08:40:43Z</time></trkpt><trkpt lat="45.12160610115479" lon="6.98910452407549"><ele>751.3333333333334</ele><time>2026-04-18T08:40:44Z</time></trkpt><trkpt lat="45.121522250668605" lon="6.98889396414626"><ele>754.6666666666666</ele><time>2026-04-18T08:40:45Z</time></trkpt><trkpt lat="45.1214321620322" lon="6.988684183177584"><ele>758.0</ele><time>2026-04-18T08:40:46Z</time></trkpt><trkpt lat="45.12135571975372" lon="6.988472135794126"><ele>757.3333333333333</ele><time>2026-04-18T08:40:47Z</time></trkpt><trkpt lat="45.12128457316222" lon="6.9882734256472085"><ele>756.6666666666666</ele><time>2026-04-18T08:40:48Z</time></trkpt><trkpt lat="45.12121689884314" lon="6.988083359687507"><ele>756.0</ele><time>2026-04-18T08:40:49Z</time></trkpt><trkpt lat="45.12114249884823" lon="6.98788719457617"><ele>756.0</ele><time>2026-04-18T08:40:50Z</time></trkpt><trkpt lat="45.12107789546499" lon="6.987707949002543"><ele>756.0</ele><time>2026-04-18T08:40:51Z</time></trkpt><trkpt lat="45.121024670608705" lon="6.987541751456421"><ele>756.0</ele><time>2026-04-18T08:40:52Z</time></trkpt><trkpt lat="45.12095720318892" lon="6.987344932554709"><ele>756.0</ele><time>2026-04-18T08:40:53Z</time></trkpt><trkpt lat="45.12088640383323" lon="6.9871518606344"><ele>755.5</ele><time>2026-04-18T08:40:54Z</time></trkpt><trkpt lat="45.120815077400266" lon="6.986975740881284"><ele>755.0</ele><time>2026-04-18T08:40:55Z</time></trkpt><trkpt lat="45.12073532704864" lon="6.986811987101881"><ele>754.5</ele><time>2026-04-18T08:40:56Z</time></trkpt><trkpt lat="45.12065863052574" lon="6.9866604000022985"><ele>754.0</ele><time>2026-04-18T08:40:57Z</time></trkpt><trkpt lat="45.12054592588459" lon="6.9865188610125655"><ele>755.25</ele><time>2026-04-18T08:40:58Z</time></trkpt><trkpt lat="45.12044663933706" lon="6.986398062976415"><ele>756.5</ele><time>2026-04-18T08:40:59Z</time></trkpt><trkpt lat="45.12030463329113" lon="6.98637515099753"><ele>757.75</ele><time>2026-04-18T08:41:00Z</time></trkpt><trkpt lat="45.120162353013" lon="6.98632600620928"><ele>759.0</ele><time>2026-04-18T08:41:01Z</time></trkpt><trkpt lat="45.120021281558614" lon="6.986278316494679"><ele>760.5</ele><time>2026-04-18T08:41:02Z</time></trkpt><trkpt lat="45.11989136679723" lon="6.986221450559022"><ele>762.0</ele><time>2026-04-18T08:41:03Z</time></trkpt><trkpt lat="45.119752533262606" lon="6.986174253531568"><ele>763.5</ele><time>2026-04-18T08:41:04Z</time></trkpt><trkpt lat="45.11962885454716" lon="6.986086587063959"><ele>765.0</ele><time>2026-04-18T08:41:05Z</time></trkpt><trkpt lat="45.119491860429655" lon="6.985979340119912"><ele>765.0</ele><time>2026-04-18T08:41:06Z</time></trkpt><trkpt lat="45.119385183585464" lon="6.985866705450518"><ele>765.0</ele><time>2026-04-18T08:41:07Z</time></trkpt><trkpt lat="45.11927340205115" lon="6.985750385301692"><ele>765.0</ele><time>2026-04-18T08:41:08Z</time></trkpt><trkpt lat="45.11916750546139" lon="6.985622753498019"><ele>765.0</ele><time>2026-04-18T08:41:09Z</time></trkpt><trkpt lat="45.119019880992816" lon="6.985542992671538"><ele>764.75</ele><time>2026-04-18T08:41:10Z</time></trkpt><trkpt lat="45.11892744885727" lon="6.985373383594032"><ele>764.5</ele><time>2026-04-18T08:41:11Z</time></trkpt><trkpt lat="45.11885048766537" lon="6.985212804483945"><ele>764.25</ele><time>2026-04-18T08:41:12Z</time></trkpt><trkpt lat="45.11877063536479" lon="6.985076150163705"><ele>764.0</ele><time>2026-04-18T08:41:13Z</time></trkpt><trkpt lat="45.11870638745803" lon="6.984916263105463"><ele>764.0</ele><time>2026-04-18T08:41:14Z</time></trkpt><trkpt lat="45.11862204589661" lon="6.984781672895366"><ele>764.0</ele><time>2026-04-18T08:41:15Z</time></trkpt><trkpt lat="45.118541817469016" lon="6.984653649203611"><ele>764.0</ele><time>2026-04-18T08:41:16Z</time></trkpt><trkpt lat="45.118462895887475" lon="6.98452771112625"><ele>764.0</ele><time>2026-04-18T08:41:17Z</time></trkpt><trkpt lat="45.11837167187579" lon="6.984432771699862"><ele>764.0</ele><time>2026-04-18T08:41:18Z</time></trkpt><trkpt lat="45.11828910965733" lon="6.984313519077097"><ele>764.0</ele><time>2026-04-18T08:41:19Z</time></trkpt><trkpt lat="45.1182181546208" lon="6.98420895777133"><ele>764.0</ele><time>2026-04-18T08:41:20Z</time></trkpt><trkpt lat="45.11813641362621" lon="6.984103927622273"><ele>764.0</ele><time>2026-04-18T08:41:21Z</time></trkpt><trkpt lat="45.118103837881094" lon="6.983954498839677"><ele>764.0</ele><time>2026-04-18T08:41:22Z</time></trkpt><trkpt lat="45.118028674373804" lon="6.983837724602152"><ele>765.25</ele><time>2026-04-18T08:41:23Z</time></trkpt><trkpt lat="45.11795329109872" lon="6.983720870025869"><ele>766.5</ele><time>2026-04-18T08:41:24Z</time></trkpt><trkpt lat="45.11787449050462" lon="6.983598811093928"><ele>767.75</ele><time>2026-04-18T08:41:25.001Z</time></trkpt><trkpt lat="45.11776727942793" lon="6.983500887384849"><ele>769.0</ele><time>2026-04-18T08:41:26.001Z</time></trkpt><trkpt lat="45.11769101447587" lon="6.983360604005759"><ele>767.75</ele><time>2026-04-18T08:41:27.001Z</time></trkpt><trkpt lat="45.11759491883256" lon="6.983217554154111"><ele>766.5</ele><time>2026-04-18T08:41:28.001Z</time></trkpt><trkpt lat="45.11751952802235" lon="6.983063444979687"><ele>765.25</ele><time>2026-04-18T08:41:29.001Z</time></trkpt><trkpt lat="45.11746604173653" lon="6.98288364294136"><ele>764.0</ele><time>2026-04-18T08:41:30.001Z</time></trkpt><trkpt lat="45.117396357885745" lon="6.982714502346951"><ele>768.75</ele><time>2026-04-18T08:41:31.001Z</time></trkpt><trkpt lat="45.117333057366785" lon="6.982530287063037"><ele>773.5</ele><time>2026-04-18T08:41:32.001Z</time></trkpt><trkpt lat="45.11729922328364" lon="6.982348801633068"><ele>778.25</ele><time>2026-04-18T08:41:33.001Z</time></trkpt><trkpt lat="45.11725226667521" lon="6.982147159786429"><ele>783.0</ele><time>2026-04-18T08:41:34.001Z</time></trkpt><trkpt lat="45.117237227742564" lon="6.9819265650567655"><ele>783.0</ele><time>2026-04-18T08:41:35.001Z</time></trkpt><trkpt lat="45.11722638547255" lon="6.981689231467455"><ele>783.0</ele><time>2026-04-18T08:41:36.001Z</time></trkpt><trkpt lat="45.11721720162998" lon="6.981455395118012"><ele>783.0</ele><time>2026-04-18T08:41:37.001Z</time></trkpt><trkpt lat="45.11722972750221" lon="6.981187169520182"><ele>780.0</ele><time>2026-04-18T08:41:38.001Z</time></trkpt><trkpt lat="45.1172092675252" lon="6.980931526765252"><ele>777.0</ele><time>2026-04-18T08:41:39.001Z</time></trkpt><trkpt lat="45.11718426245545" lon="6.9806527755989745"><ele>774.0</ele><time>2026-04-18T08:41:40.001Z</time></trkpt><trkpt lat="45.11717959051109" lon="6.980343329148392"><ele>768.5</ele><time>2026-04-18T08:41:41.001Z</time></trkpt><trkpt lat="45.117156400341635" lon="6.979973375605282"><ele>763.0</ele><time>2026-04-18T08:41:42.001Z</time></trkpt><trkpt lat="45.11716271694141" lon="6.979680917780119"><ele>763.0</ele><time>2026-04-18T08:41:43.001Z</time></trkpt><trkpt lat="45.1171636066615" lon="6.979391091020172"><ele>763.0</ele><time>2026-04-18T08:41:44.001Z</time></trkpt><trkpt lat="45.11716684365691" lon="6.979125530099932"><ele>763.0</ele><time>2026-04-18T08:41:45.001Z</time></trkpt><trkpt lat="45.11717216368177" lon="6.9788568795920485"><ele>763.25</ele><time>2026-04-18T08:41:46.001Z</time></trkpt><trkpt lat="45.11716170341974" lon="6.978624891050972"><ele>763.5</ele><time>2026-04-18T08:41:47.001Z</time></trkpt><trkpt lat="45.11715277811239" lon="6.978417704381299"><ele>763.75</ele><time>2026-04-18T08:41:48.001Z</time></trkpt><trkpt lat="45.11715000781391" lon="6.978275309841061"><ele>764.0</ele><time>2026-04-18T08:41:49.001Z</time></trkpt><trkpt lat="45.11714751364356" lon="6.978076687310204"><ele>764.75</ele><time>2026-04-18T08:41:50.001Z</time></trkpt><trkpt lat="45.11714062085318" lon="6.977881679408727"><ele>765.5</ele><time>2026-04-18T08:41:51Z</time></trkpt><trkpt lat="45.11712691365492" lon="6.977706302660786"><ele>766.25</ele><time>2026-04-18T08:41:52Z</time></trkpt><trkpt lat="45.117114412362675" lon="6.977540588897304"><ele>767.0</ele><time>2026-04-18T08:41:53Z</time></trkpt><trkpt lat="45.11709010152216" lon="6.977386457006813"><ele>767.2</ele><time>2026-04-18T08:41:54Z</time></trkpt><trkpt lat="45.11706862016195" lon="6.9772504295270235"><ele>767.4000000000001</ele><time>2026-04-18T08:41:55Z</time></trkpt><trkpt lat="45.11702734727862" lon="6.977105310949782"><ele>767.5999999999999</ele><time>2026-04-18T08:41:56Z</time></trkpt><trkpt lat="45.11698285638537" lon="6.976970594760864"><ele>767.8</ele><time>2026-04-18T08:41:57Z</time></trkpt><trkpt lat="45.116920097642534" lon="6.976820706956472"><ele>768.0</ele><time>2026-04-18T08:41:58Z</time></trkpt><trkpt lat="45.11686774268725" lon="6.976668752450191"><ele>768.75</ele><time>2026-04-18T08:41:59Z</time></trkpt><trkpt lat="45.11680314048882" lon="6.976540574853926"><ele>769.5</ele><time>2026-04-18T08:42:00Z</time></trkpt><trkpt lat="45.11671748856578" lon="6.9764086444970115"><ele>770.25</ele><time>2026-04-18T08:42:01Z</time></trkpt><trkpt lat="45.11661668470271" lon="6.976293450640491"><ele>771.0</ele><time>2026-04-18T08:42:02Z</time></trkpt><trkpt lat="45.116519629534615" lon="6.976170960120787"><ele>773.25</ele><time>2026-04-18T08:42:03Z</time></trkpt><trkpt lat="45.11643836838823" lon="6.976054168730875"><ele>775.5</ele><time>2026-04-18T08:42:04Z</time></trkpt><trkpt lat="45.11636365839847" lon="6.975945477992008"><ele>777.75</ele><time>2026-04-18T08:42:05Z</time></trkpt><trkpt lat="45.116279941749305" lon="6.975825038637469"><ele>780.0</ele><time>2026-04-18T08:42:06Z</time></trkpt><trkpt lat="45.116185940181495" lon="6.975681726993061"><ele>780.0</ele><time>2026-04-18T08:42:07Z</time></trkpt><trkpt lat="45.11609629320099" lon="6.975537884543274"><ele>780.0</ele><time>2026-04-18T08:42:08Z</time></trkpt><trkpt lat="45.116044473587465" lon="6.975373539665567"><ele>780.0</ele><time>2026-04-18T08:42:09Z</time></trkpt><trkpt lat="45.11595860757654" lon="6.975246361881402"><ele>780.0</ele><time>2026-04-18T08:42:10Z</time></trkpt><trkpt lat="45.115873045922534" lon="6.975123295255226"><ele>779.25</ele><time>2026-04-18T08:42:11Z</time></trkpt><trkpt lat="45.11578446343791" lon="6.974998499692292"><ele>778.5</ele><time>2026-04-18T08:42:12Z</time></trkpt><trkpt lat="45.115693393796676" lon="6.974866229725685"><ele>777.75</ele><time>2026-04-18T08:42:13Z</time></trkpt><trkpt lat="45.11560598547824" lon="6.974748436357907"><ele>777.0</ele><time>2026-04-18T08:42:14Z</time></trkpt><trkpt lat="45.1155276192911" lon="6.974630494107936"><ele>776.25</ele><time>2026-04-18T08:42:15Z</time></trkpt><trkpt lat="45.115451975893066" lon="6.9744812261405995"><ele>775.5</ele><time>2026-04-18T08:42:16Z</time></trkpt><trkpt lat="45.115356592885355" lon="6.974362499152678"><ele>774.75</ele><time>2026-04-18T08:42:17Z</time></trkpt><trkpt lat="45.11527675842187" lon="6.974226597225214"><ele>774.0</ele><time>2026-04-18T08:42:18Z</time></trkpt><trkpt lat="45.11518316138389" lon="6.97409014378226"><ele>774.0</ele><time>2026-04-18T08:42:19Z</time></trkpt><trkpt lat="45.11507724937548" lon="6.973920409706105"><ele>774.0</ele><time>2026-04-18T08:42:20Z</time></trkpt><trkpt lat="45.114978927070965" lon="6.9737573941315505"><ele>774.0</ele><time>2026-04-18T08:42:21Z</time></trkpt><trkpt lat="45.114873862119886" lon="6.973602411704538"><ele>777.25</ele><time>2026-04-18T08:42:22Z</time></trkpt><trkpt lat="45.1147656804034" lon="6.973461267210636"><ele>780.5</ele><time>2026-04-18T08:42:23Z</time></trkpt><trkpt lat="45.11466648399684" lon="6.973320846054988"><ele>783.75</ele><time>2026-04-18T08:42:24Z</time></trkpt><trkpt lat="45.114574729072025" lon="6.973178860890271"><ele>787.0</ele><time>2026-04-18T08:42:25Z</time></trkpt><trkpt lat="45.11448741492568" lon="6.973036965063149"><ele>787.0</ele><time>2026-04-18T08:42:26Z</time></trkpt><trkpt lat="45.114391576461315" lon="6.972892273478101"><ele>787.0</ele><time>2026-04-18T08:42:27Z</time></trkpt><trkpt lat="45.11429226273895" lon="6.972759454376981"><ele>787.0</ele><time>2026-04-18T08:42:28Z</time></trkpt><trkpt lat="45.11418220327115" lon="6.972611184010639"><ele>787.0</ele><time>2026-04-18T08:42:29Z</time></trkpt><trkpt lat="45.114124064823045" lon="6.972448544754073"><ele>790.5</ele><time>2026-04-18T08:42:30Z</time></trkpt><trkpt lat="45.11404301553972" lon="6.972331062097317"><ele>794.0</ele><time>2026-04-18T08:42:31Z</time></trkpt><trkpt lat="45.11396423002761" lon="6.972209245026366"><ele>797.5</ele><time>2026-04-18T08:42:32Z</time></trkpt><trkpt lat="45.11389063327559" lon="6.972077764383341"><ele>801.0</ele><time>2026-04-18T08:42:33Z</time></trkpt><trkpt lat="45.11384289106967" lon="6.971909209832543"><ele>801.0</ele><time>2026-04-18T08:42:34Z</time></trkpt><trkpt lat="45.113781647077246" lon="6.971717654515358"><ele>801.0</ele><time>2026-04-18T08:42:35Z</time></trkpt><trkpt lat="45.11371593028328" lon="6.971511827120453"><ele>801.0</ele><time>2026-04-18T08:42:36Z</time></trkpt><trkpt lat="45.11364980354904" lon="6.971314773680824"><ele>798.5</ele><time>2026-04-18T08:42:37Z</time></trkpt><trkpt lat="45.1135736650422" lon="6.971153032475452"><ele>796.0</ele><time>2026-04-18T08:42:38Z</time></trkpt><trkpt lat="45.113525092415536" lon="6.971005590282703"><ele>793.5</ele><time>2026-04-18T08:42:39Z</time></trkpt><trkpt lat="45.11347178276956" lon="6.970886838188152"><ele>791.0</ele><time>2026-04-18T08:42:40Z</time></trkpt><trkpt lat="45.11339846540112" lon="6.970754547169679"><ele>787.75</ele><time>2026-04-18T08:42:41Z</time></trkpt><trkpt lat="45.113333564094845" lon="6.9706184457803495"><ele>784.5</ele><time>2026-04-18T08:42:42Z</time></trkpt><trkpt lat="45.113269035494554" lon="6.970483602473221"><ele>781.25</ele><time>2026-04-18T08:42:43Z</time></trkpt><trkpt lat="45.113191783852116" lon="6.970351851679622"><ele>778.0</ele><time>2026-04-18T08:42:44Z</time></trkpt><trkpt lat="45.11310594722674" lon="6.970248462162433"><ele>779.0</ele><time>2026-04-18T08:42:45Z</time></trkpt><trkpt lat="45.11298216677646" lon="6.970156478779128"><ele>780.0</ele><time>2026-04-18T08:42:46Z</time></trkpt><trkpt lat="45.112874742979024" lon="6.970067259001584"><ele>781.0</ele><time>2026-04-18T08:42:47Z</time></trkpt><trkpt lat="45.11277542092583" lon="6.969990613185746"><ele>782.0</ele><time>2026-04-18T08:42:48Z</time></trkpt><trkpt lat="45.11267328673387" lon="6.9699122419074655"><ele>782.0</ele><time>2026-04-18T08:42:49Z</time></trkpt><trkpt lat="45.11256285177542" lon="6.969843418128344"><ele>782.0</ele><time>2026-04-18T08:42:50Z</time></trkpt><trkpt lat="45.1124824857331" lon="6.969758003930475"><ele>782.0</ele><time>2026-04-18T08:42:51Z</time></trkpt><trkpt lat="45.11237557744018" lon="6.969705130353336"><ele>782.0</ele><time>2026-04-18T08:42:52Z</time></trkpt><trkpt lat="45.11226460912313" lon="6.969643171723487"><ele>786.5</ele><time>2026-04-18T08:42:53Z</time></trkpt><trkpt lat="45.1121570449706" lon="6.969560471021295"><ele>791.0</ele><time>2026-04-18T08:42:54Z</time></trkpt><trkpt lat="45.11204925021345" lon="6.969484138498633"><ele>795.5</ele><time>2026-04-18T08:42:55Z</time></trkpt><trkpt lat="45.11200395385616" lon="6.969303728690015"><ele>800.0</ele><time>2026-04-18T08:42:56Z</time></trkpt><trkpt lat="45.11194783954104" lon="6.969149967432173"><ele>800.0</ele><time>2026-04-18T08:42:57Z</time></trkpt><trkpt lat="45.111909722347306" lon="6.968968162901447"><ele>800.0</ele><time>2026-04-18T08:42:58Z</time></trkpt><trkpt lat="45.11190031543572" lon="6.96880227573103"><ele>800.0</ele><time>2026-04-18T08:42:59Z</time></trkpt><trkpt lat="45.11191613996422" lon="6.968597361586671"><ele>800.0</ele><time>2026-04-18T08:43:00Z</time></trkpt><trkpt lat="45.111922601820275" lon="6.9684034719759405"><ele>799.75</ele><time>2026-04-18T08:43:01Z</time></trkpt><trkpt lat="45.11192842749602" lon="6.968228671237776"><ele>799.5</ele><time>2026-04-18T08:43:02Z</time></trkpt><trkpt lat="45.111932399749016" lon="6.968090636400395"><ele>799.25</ele><time>2026-04-18T08:43:03Z</time></trkpt><trkpt lat="45.11193524455699" lon="6.967913669536626"><ele>799.0</ele><time>2026-04-18T08:43:04Z</time></trkpt><trkpt lat="45.11191919291759" lon="6.9677566860108975"><ele>799.0</ele><time>2026-04-18T08:43:05Z</time></trkpt><trkpt lat="45.11192223148147" lon="6.967581128116332"><ele>799.0</ele><time>2026-04-18T08:43:06Z</time></trkpt><trkpt lat="45.11195696442144" lon="6.9673939792358786"><ele>799.0</ele><time>2026-04-18T08:43:07Z</time></trkpt><trkpt lat="45.11196464424533" lon="6.967210235682688"><ele>799.0</ele><time>2026-04-18T08:43:08Z</time></trkpt><trkpt lat="45.111947502944574" lon="6.967028657095031"><ele>799.25</ele><time>2026-04-18T08:43:09Z</time></trkpt><trkpt lat="45.11194356861895" lon="6.96683753674744"><ele>799.5</ele><time>2026-04-18T08:43:10Z</time></trkpt><trkpt lat="45.111933360086994" lon="6.966658779903864"><ele>799.75</ele><time>2026-04-18T08:43:11Z</time></trkpt><trkpt lat="45.111926225915006" lon="6.966486433180151"><ele>800.0</ele><time>2026-04-18T08:43:12Z</time></trkpt><trkpt lat="45.111911813762184" lon="6.966300869000212"><ele>798.5</ele><time>2026-04-18T08:43:13Z</time></trkpt><trkpt lat="45.11190180900336" lon="6.966115528778079"><ele>797.0</ele><time>2026-04-18T08:43:14Z</time></trkpt><trkpt lat="45.11186188233631" lon="6.965952652242992"><ele>795.5</ele><time>2026-04-18T08:43:15Z</time></trkpt><trkpt lat="45.11178370179686" lon="6.96580405854429"><ele>794.0</ele><time>2026-04-18T08:43:16Z</time></trkpt><trkpt lat="45.11169005124062" lon="6.965663751632073"><ele>789.6666666666667</ele><time>2026-04-18T08:43:17Z</time></trkpt><trkpt lat="45.11157937137412" lon="6.965497092140507"><ele>785.3333333333333</ele><time>2026-04-18T08:43:18Z</time></trkpt><trkpt lat="45.11147617720889" lon="6.9653346750555"><ele>781.0</ele><time>2026-04-18T08:43:19Z</time></trkpt><trkpt lat="45.1113510108138" lon="6.965196344872515"><ele>784.25</ele><time>2026-04-18T08:43:20Z</time></trkpt><trkpt lat="45.11124958313027" lon="6.965061257742905"><ele>787.5</ele><time>2026-04-18T08:43:21.001Z</time></trkpt><trkpt lat="45.11115605259475" lon="6.964923643820101"><ele>790.75</ele><time>2026-04-18T08:43:22.001Z</time></trkpt><trkpt lat="45.111072047354604" lon="6.964789005698864"><ele>794.0</ele><time>2026-04-18T08:43:23.001Z</time></trkpt><trkpt lat="45.11100269305856" lon="6.964649638220465"><ele>794.0</ele><time>2026-04-18T08:43:24.001Z</time></trkpt><trkpt lat="45.11093941607089" lon="6.964501702475014"><ele>794.0</ele><time>2026-04-18T08:43:25.001Z</time></trkpt><trkpt lat="45.11085787299409" lon="6.964383825621033"><ele>794.0</ele><time>2026-04-18T08:43:26.001Z</time></trkpt><trkpt lat="45.11079150147713" lon="6.964245024834166"><ele>794.0</ele><time>2026-04-18T08:43:27.001Z</time></trkpt><trkpt lat="45.11072054493" lon="6.964100737394415"><ele>798.0</ele><time>2026-04-18T08:43:28.001Z</time></trkpt><trkpt lat="45.11064435520394" lon="6.963950911947057"><ele>802.0</ele><time>2026-04-18T08:43:29.001Z</time></trkpt><trkpt lat="45.11054295378941" lon="6.963818091764321"><ele>806.0</ele><time>2026-04-18T08:43:30.001Z</time></trkpt><trkpt lat="45.110456650760426" lon="6.963665670157181"><ele>810.0</ele><time>2026-04-18T08:43:31.001Z</time></trkpt><trkpt lat="45.11036174841022" lon="6.963501487733314"><ele>805.75</ele><time>2026-04-18T08:43:32.001Z</time></trkpt><trkpt lat="45.11028379533023" lon="6.963340820361981"><ele>801.5</ele><time>2026-04-18T08:43:33.001Z</time></trkpt><trkpt lat="45.11017902275135" lon="6.963191218257671"><ele>797.25</ele><time>2026-04-18T08:43:34.001Z</time></trkpt><trkpt lat="45.11005825534377" lon="6.963066745759376"><ele>793.0</ele><time>2026-04-18T08:43:35.001Z</time></trkpt><trkpt lat="45.11000197695183" lon="6.962860448472313"><ele>793.0</ele><time>2026-04-18T08:43:36.001Z</time></trkpt><trkpt lat="45.109939951520964" lon="6.962672488517639"><ele>793.0</ele><time>2026-04-18T08:43:37.001Z</time></trkpt><trkpt lat="45.1099030395719" lon="6.962491379906798"><ele>793.0</ele><time>2026-04-18T08:43:38.001Z</time></trkpt><trkpt lat="45.10982476644753" lon="6.962311640269086"><ele>793.0</ele><time>2026-04-18T08:43:39.001Z</time></trkpt><trkpt lat="45.10971115541669" lon="6.962131047142141"><ele>795.3333333333333</ele><time>2026-04-18T08:43:40.001Z</time></trkpt><trkpt lat="45.10960880039965" lon="6.961958869086293"><ele>797.6666666666667</ele><time>2026-04-18T08:43:41.001Z</time></trkpt><trkpt lat="45.10953790649559" lon="6.961750574724487"><ele>800.0</ele><time>2026-04-18T08:43:42.001Z</time></trkpt><trkpt lat="45.109451784080406" lon="6.961596024214014"><ele>800.0</ele><time>2026-04-18T08:43:43.001Z</time></trkpt><trkpt lat="45.10938413292024" lon="6.961403161293369"><ele>800.0</ele><time>2026-04-18T08:43:44.001Z</time></trkpt><trkpt lat="45.109308111143484" lon="6.961221453414734"><ele>800.0</ele><time>2026-04-18T08:43:45.001Z</time></trkpt><trkpt lat="45.10925748656907" lon="6.961013524416509"><ele>804.75</ele><time>2026-04-18T08:43:46.001Z</time></trkpt><trkpt lat="45.10919011727206" lon="6.960812922730929"><ele>809.5</ele><time>2026-04-18T08:43:47.001Z</time></trkpt><trkpt lat="45.109123963627" lon="6.960638601721437"><ele>814.25</ele><time>2026-04-18T08:43:48.001Z</time></trkpt><trkpt lat="45.10905751855438" lon="6.960478412219841"><ele>819.0</ele><time>2026-04-18T08:43:49.001Z</time></trkpt><trkpt lat="45.10897668352658" lon="6.960303624325513"><ele>819.0</ele><time>2026-04-18T08:43:50.001Z</time></trkpt><trkpt lat="45.10889919758215" lon="6.960140277867697"><ele>819.0</ele><time>2026-04-18T08:43:51.001Z</time></trkpt><trkpt lat="45.10883224731058" lon="6.959996141665783"><ele>819.0</ele><time>2026-04-18T08:43:52.001Z</time></trkpt><trkpt lat="45.108768696006386" lon="6.9598377393095685"><ele>819.0</ele><time>2026-04-18T08:43:53.001Z</time></trkpt><trkpt lat="45.108702511201635" lon="6.9596876472697025"><ele>812.0</ele><time>2026-04-18T08:43:54.001Z</time></trkpt><trkpt lat="45.10866328611138" lon="6.9594962653777515"><ele>805.0</ele><time>2026-04-18T08:43:55.001Z</time></trkpt><trkpt lat="45.108667634422844" lon="6.95927711813858"><ele>798.0</ele><time>2026-04-18T08:43:56.001Z</time></trkpt><trkpt lat="45.10866732108883" lon="6.959053098671954"><ele>793.6666666666667</ele><time>2026-04-18T08:43:57.001Z</time></trkpt><trkpt lat="45.10866707665918" lon="6.95876681232872"><ele>789.3333333333334</ele><time>2026-04-18T08:43:58.001Z</time></trkpt><trkpt lat="45.10866834471204" lon="6.958552300691401"><ele>785.0</ele><time>2026-04-18T08:43:59.001Z</time></trkpt><trkpt lat="45.108652889671845" lon="6.958335267803009"><ele>783.25</ele><time>2026-04-18T08:44:00.001Z</time></trkpt><trkpt lat="45.10865581708777" lon="6.958118973337986"><ele>781.5</ele><time>2026-04-18T08:44:01.001Z</time></trkpt><trkpt lat="45.1086372692005" lon="6.9579279792589235"><ele>779.75</ele><time>2026-04-18T08:44:02.001Z</time></trkpt><trkpt lat="45.10862137306927" lon="6.957742853414895"><ele>778.0</ele><time>2026-04-18T08:44:03.001Z</time></trkpt><trkpt lat="45.10860026358338" lon="6.957524364378477"><ele>776.3333333333333</ele><time>2026-04-18T08:44:04.001Z</time></trkpt><trkpt lat="45.10856101310732" lon="6.957309377811689"><ele>774.6666666666667</ele><time>2026-04-18T08:44:05.001Z</time></trkpt><trkpt lat="45.108510013728186" lon="6.957061891560817"><ele>773.0</ele><time>2026-04-18T08:44:06Z</time></trkpt><trkpt lat="45.10842222883342" lon="6.956824233392728"><ele>769.6666666666667</ele><time>2026-04-18T08:44:07Z</time></trkpt><trkpt lat="45.10832149771679" lon="6.956601396486064"><ele>766.3333333333334</ele><time>2026-04-18T08:44:08Z</time></trkpt><trkpt lat="45.108218464935746" lon="6.956377873771093"><ele>763.0</ele><time>2026-04-18T08:44:09Z</time></trkpt><trkpt lat="45.108154717514424" lon="6.9561671428853"><ele>761.3333333333334</ele><time>2026-04-18T08:44:10Z</time></trkpt><trkpt lat="45.10808820151258" lon="6.955951820535082"><ele>759.6666666666666</ele><time>2026-04-18T08:44:11Z</time></trkpt><trkpt lat="45.10798525919426" lon="6.955727877616482"><ele>758.0</ele><time>2026-04-18T08:44:12Z</time></trkpt><trkpt lat="45.10793224208324" lon="6.955493021450839"><ele>753.3333333333333</ele><time>2026-04-18T08:44:13Z</time></trkpt><trkpt lat="45.107874374053054" lon="6.955272399229046"><ele>748.6666666666666</ele><time>2026-04-18T08:44:14Z</time></trkpt><trkpt lat="45.107818166217484" lon="6.955054029223464"><ele>744.0</ele><time>2026-04-18T08:44:15Z</time></trkpt><trkpt lat="45.10776699996795" lon="6.95485517489549"><ele>742.5</ele><time>2026-04-18T08:44:16Z</time></trkpt><trkpt lat="45.10771827616888" lon="6.954665813240515"><ele>741.0</ele><time>2026-04-18T08:44:17Z</time></trkpt><trkpt lat="45.107670560534814" lon="6.954480369681338"><ele>739.5</ele><time>2026-04-18T08:44:18Z</time></trkpt><trkpt lat="45.10762406660854" lon="6.954324722151959"><ele>738.0</ele><time>2026-04-18T08:44:19Z</time></trkpt><trkpt lat="45.10758660177888" lon="6.954163309205658"><ele>741.75</ele><time>2026-04-18T08:44:20Z</time></trkpt><trkpt lat="45.10754326311059" lon="6.954005213912754"><ele>745.5</ele><time>2026-04-18T08:44:21Z</time></trkpt><trkpt lat="45.1075358396932" lon="6.953810266611027"><ele>749.25</ele><time>2026-04-18T08:44:22Z</time></trkpt><trkpt lat="45.10748766828855" lon="6.953619226652582"><ele>753.0</ele><time>2026-04-18T08:44:23Z</time></trkpt><trkpt lat="45.10743723518545" lon="6.953423975885111"><ele>748.6666666666666</ele><time>2026-04-18T08:44:24Z</time></trkpt><trkpt lat="45.10738257188297" lon="6.953222301273657"><ele>744.3333333333333</ele><time>2026-04-18T08:44:25Z</time></trkpt><trkpt lat="45.10732589226801" lon="6.952994541459835"><ele>740.0</ele><time>2026-04-18T08:44:26Z</time></trkpt><trkpt lat="45.10725362261491" lon="6.95268975036358"><ele>742.75</ele><time>2026-04-18T08:44:27Z</time></trkpt><trkpt lat="45.107212204185174" lon="6.952493079823451"><ele>745.5</ele><time>2026-04-18T08:44:28Z</time></trkpt><trkpt lat="45.10716505523884" lon="6.95230964423766"><ele>748.25</ele><time>2026-04-18T08:44:29Z</time></trkpt><trkpt lat="45.10711689274671" lon="6.952133675945239"><ele>751.0</ele><time>2026-04-18T08:44:30Z</time></trkpt><trkpt lat="45.107075800498535" lon="6.951975050624905"><ele>751.0</ele><time>2026-04-18T08:44:31Z</time></trkpt><trkpt lat="45.1070338416134" lon="6.951808863483522"><ele>751.0</ele><time>2026-04-18T08:44:32Z</time></trkpt><trkpt lat="45.1069852989412" lon="6.951613923772188"><ele>751.0</ele><time>2026-04-18T08:44:33Z</time></trkpt><trkpt lat="45.1069106623276" lon="6.9514231327728035"><ele>751.0</ele><time>2026-04-18T08:44:34Z</time></trkpt><trkpt lat="45.10683377701163" lon="6.9512432479721715"><ele>754.25</ele><time>2026-04-18T08:44:35Z</time></trkpt><trkpt lat="45.10677294952239" lon="6.951072447384405"><ele>757.5</ele><time>2026-04-18T08:44:36Z</time></trkpt><trkpt lat="45.10668058534395" lon="6.950901694114142"><ele>760.75</ele><time>2026-04-18T08:44:37Z</time></trkpt><trkpt lat="45.10663446469296" lon="6.950728978562554"><ele>764.0</ele><time>2026-04-18T08:44:38Z</time></trkpt><trkpt lat="45.10659490240353" lon="6.9505481895944214"><ele>761.75</ele><time>2026-04-18T08:44:39Z</time></trkpt><trkpt lat="45.106564064388024" lon="6.950360911782055"><ele>759.5</ele><time>2026-04-18T08:44:40Z</time></trkpt><trkpt lat="45.106543905193035" lon="6.950150911354334"><ele>757.25</ele><time>2026-04-18T08:44:41Z</time></trkpt><trkpt lat="45.10650935959429" lon="6.9499817638973065"><ele>755.0</ele><time>2026-04-18T08:44:42Z</time></trkpt><trkpt lat="45.106480244572175" lon="6.949805529818727"><ele>755.0</ele><time>2026-04-18T08:44:43Z</time></trkpt><trkpt lat="45.1064414406809" lon="6.949644448028216"><ele>755.0</ele><time>2026-04-18T08:44:44Z</time></trkpt><trkpt lat="45.10638610518705" lon="6.949545298839843"><ele>755.0</ele><time>2026-04-18T08:44:45Z</time></trkpt><trkpt lat="45.106309068997426" lon="6.949418590302382"><ele>755.0</ele><time>2026-04-18T08:44:46Z</time></trkpt><trkpt lat="45.106242399819315" lon="6.949308465283703"><ele>755.0</ele><time>2026-04-18T08:44:47Z</time></trkpt><trkpt lat="45.10618283634938" lon="6.949254398555745"><ele>758.4</ele><time>2026-04-18T08:44:48Z</time></trkpt><trkpt lat="45.10610856347613" lon="6.94914252113943"><ele>761.8</ele><time>2026-04-18T08:44:49Z</time></trkpt><trkpt lat="45.106077625067165" lon="6.9489939592430545"><ele>765.2</ele><time>2026-04-18T08:44:50Z</time></trkpt><trkpt lat="45.106041124475695" lon="6.948848725496213"><ele>768.6</ele><time>2026-04-18T08:44:51Z</time></trkpt><trkpt lat="45.10599999194109" lon="6.948693249664379"><ele>772.0</ele><time>2026-04-18T08:44:52Z</time></trkpt><trkpt lat="45.10596297807064" lon="6.9485592172527175"><ele>772.0</ele><time>2026-04-18T08:44:53Z</time></trkpt><trkpt lat="45.10593246325162" lon="6.948412106895604"><ele>772.0</ele><time>2026-04-18T08:44:54Z</time></trkpt><trkpt lat="45.105926514250996" lon="6.9482710270732895"><ele>772.0</ele><time>2026-04-18T08:44:55Z</time></trkpt><trkpt lat="45.10594577482944" lon="6.948118877808564"><ele>772.0</ele><time>2026-04-18T08:44:56Z</time></trkpt><trkpt lat="45.105950744507126" lon="6.947980004053071"><ele>772.0</ele><time>2026-04-18T08:44:57Z</time></trkpt><trkpt lat="45.105942855280716" lon="6.9478526690896585"><ele>770.25</ele><time>2026-04-18T08:44:58Z</time></trkpt><trkpt lat="45.10588907145762" lon="6.947714227998189"><ele>768.5</ele><time>2026-04-18T08:44:59Z</time></trkpt><trkpt lat="45.10583732822904" lon="6.947556751988907"><ele>766.75</ele><time>2026-04-18T08:45:00Z</time></trkpt><trkpt lat="45.10577310379993" lon="6.9474472144714525"><ele>765.0</ele><time>2026-04-18T08:45:01Z</time></trkpt><trkpt lat="45.105738324100614" lon="6.9472334666105064"><ele>765.0</ele><time>2026-04-18T08:45:02Z</time></trkpt><trkpt lat="45.10565673976321" lon="6.947070443979287"><ele>765.0</ele><time>2026-04-18T08:45:03Z</time></trkpt><trkpt lat="45.1055790311327" lon="6.946911080757476"><ele>765.0</ele><time>2026-04-18T08:45:04Z</time></trkpt><trkpt lat="45.10550896226121" lon="6.94677023239282"><ele>765.0</ele><time>2026-04-18T08:45:05Z</time></trkpt><trkpt lat="45.10543886516318" lon="6.946639816949555"><ele>771.5</ele><time>2026-04-18T08:45:06Z</time></trkpt><trkpt lat="45.1053690681814" lon="6.946496342509942"><ele>778.0</ele><time>2026-04-18T08:45:07.001Z</time></trkpt><trkpt lat="45.105284582909704" lon="6.946356286192011"><ele>784.5</ele><time>2026-04-18T08:45:08.001Z</time></trkpt><trkpt lat="45.105204780314345" lon="6.946238066294381"><ele>791.0</ele><time>2026-04-18T08:45:09.001Z</time></trkpt><trkpt lat="45.10510525426564" lon="6.946122806876818"><ele>791.0</ele><time>2026-04-18T08:45:10.001Z</time></trkpt><trkpt lat="45.10500745525622" lon="6.946040474162088"><ele>791.0</ele><time>2026-04-18T08:45:11.001Z</time></trkpt><trkpt lat="45.10491107809841" lon="6.945979860535965"><ele>791.0</ele><time>2026-04-18T08:45:12.001Z</time></trkpt><trkpt lat="45.10479018988043" lon="6.945970853968121"><ele>791.0</ele><time>2026-04-18T08:45:13.001Z</time></trkpt><trkpt lat="45.10467809142562" lon="6.945907265322004"><ele>790.0</ele><time>2026-04-18T08:45:14.001Z</time></trkpt><trkpt lat="45.10458339473681" lon="6.945821928205737"><ele>789.0</ele><time>2026-04-18T08:45:15.001Z</time></trkpt><trkpt lat="45.1044867640789" lon="6.945733673588323"><ele>788.0</ele><time>2026-04-18T08:45:16.001Z</time></trkpt><trkpt lat="45.10439899071009" lon="6.945611632698751"><ele>787.0</ele><time>2026-04-18T08:45:17.001Z</time></trkpt><trkpt lat="45.10431928450436" lon="6.945494047426391"><ele>787.0</ele><time>2026-04-18T08:45:18.001Z</time></trkpt><trkpt lat="45.10424142707232" lon="6.94537732902627"><ele>787.0</ele><time>2026-04-18T08:45:19.001Z</time></trkpt><trkpt lat="45.10416921620467" lon="6.945224123472037"><ele>787.0</ele><time>2026-04-18T08:45:20.001Z</time></trkpt><trkpt lat="45.10411094780014" lon="6.9450395106099565"><ele>787.0</ele><time>2026-04-18T08:45:21.001Z</time></trkpt><trkpt lat="45.104018776432746" lon="6.944881066520653"><ele>786.0</ele><time>2026-04-18T08:45:22.001Z</time></trkpt><trkpt lat="45.10390558423063" lon="6.944711058247852"><ele>785.0</ele><time>2026-04-18T08:45:23.001Z</time></trkpt><trkpt lat="45.10378058665889" lon="6.944482628750881"><ele>784.0</ele><time>2026-04-18T08:45:24.001Z</time></trkpt><trkpt lat="45.10364541543886" lon="6.9442833157743165"><ele>792.3333333333333</ele><time>2026-04-18T08:45:25.001Z</time></trkpt><trkpt lat="45.103526367784156" lon="6.944132253606935"><ele>800.6666666666667</ele><time>2026-04-18T08:45:26.001Z</time></trkpt><trkpt lat="45.10344987710565" lon="6.943961710941053"><ele>809.0</ele><time>2026-04-18T08:45:27.001Z</time></trkpt><trkpt lat="45.10335645274034" lon="6.943745378791749"><ele>809.0</ele><time>2026-04-18T08:45:28.001Z</time></trkpt><trkpt lat="45.10328164731353" lon="6.943500065961721"><ele>809.0</ele><time>2026-04-18T08:45:29.001Z</time></trkpt><trkpt lat="45.10318726646411" lon="6.94322197491133"><ele>809.0</ele><time>2026-04-18T08:45:30.001Z</time></trkpt><trkpt lat="45.10309054939722" lon="6.943008429753708"><ele>807.6666666666667</ele><time>2026-04-18T08:45:31.001Z</time></trkpt><trkpt lat="45.102987018751136" lon="6.942803205504367"><ele>806.3333333333333</ele><time>2026-04-18T08:45:32.001Z</time></trkpt><trkpt lat="45.10288289053182" lon="6.9426308102745"><ele>805.0</ele><time>2026-04-18T08:45:33.001Z</time></trkpt><trkpt lat="45.102776691142225" lon="6.942479497678105"><ele>809.6666666666666</ele><time>2026-04-18T08:45:34.001Z</time></trkpt><trkpt lat="45.10268805048759" lon="6.942331861319352"><ele>814.3333333333333</ele><time>2026-04-18T08:45:35.001Z</time></trkpt><trkpt lat="45.10264532083271" lon="6.942115314391201"><ele>819.0</ele><time>2026-04-18T08:45:36.001Z</time></trkpt><trkpt lat="45.1026421242079" lon="6.941869859712578"><ele>823.0</ele><time>2026-04-18T08:45:37.001Z</time></trkpt><trkpt lat="45.102625599952695" lon="6.941617189674551"><ele>827.0</ele><time>2026-04-18T08:45:38.001Z</time></trkpt><trkpt lat="45.1025944605745" lon="6.941326968917988"><ele>831.0</ele><time>2026-04-18T08:45:39.001Z</time></trkpt><trkpt lat="45.102530872526124" lon="6.941042465787197"><ele>839.5</ele><time>2026-04-18T08:45:40.001Z</time></trkpt><trkpt lat="45.1024714055138" lon="6.94074039863687"><ele>848.0</ele><time>2026-04-18T08:45:41.001Z</time></trkpt><trkpt lat="45.10242802199075" lon="6.940322560166489"><ele>842.0</ele><time>2026-04-18T08:45:42.001Z</time></trkpt><trkpt lat="45.102364616276176" lon="6.9399764481872435"><ele>836.0</ele><time>2026-04-18T08:45:43.001Z</time></trkpt><trkpt lat="45.10230741277892" lon="6.939672787727806"><ele>836.0</ele><time>2026-04-18T08:45:44.001Z</time></trkpt><trkpt lat="45.10224883146199" lon="6.9393868520231425"><ele>836.0</ele><time>2026-04-18T08:45:45.001Z</time></trkpt><trkpt lat="45.102163029305245" lon="6.939126312871052"><ele>836.0</ele><time>2026-04-18T08:45:46.001Z</time></trkpt><trkpt lat="45.10210766632465" lon="6.93885246272189"><ele>839.0</ele><time>2026-04-18T08:45:47.001Z</time></trkpt><trkpt lat="45.102016362315176" lon="6.938623210726885"><ele>842.0</ele><time>2026-04-18T08:45:48.001Z</time></trkpt><trkpt lat="45.101941483332865" lon="6.938406938778691"><ele>845.0</ele><time>2026-04-18T08:45:49.001Z</time></trkpt><trkpt lat="45.101925003597984" lon="6.938197762804531"><ele>846.3333333333334</ele><time>2026-04-18T08:45:50.001Z</time></trkpt><trkpt lat="45.10184370183729" lon="6.938059845979901"><ele>847.6666666666667</ele><time>2026-04-18T08:45:51.001Z</time></trkpt><trkpt lat="45.10186709797883" lon="6.937856143147089"><ele>849.0</ele><time>2026-04-18T08:45:52.001Z</time></trkpt><trkpt lat="45.10189819493663" lon="6.937587473427767"><ele>850.0</ele><time>2026-04-18T08:45:53.001Z</time></trkpt><trkpt lat="45.101916176918564" lon="6.937322681178711"><ele>851.0</ele><time>2026-04-18T08:45:54.001Z</time></trkpt><trkpt lat="45.101919788024205" lon="6.9370557390600736"><ele>852.0</ele><time>2026-04-18T08:45:55.001Z</time></trkpt><trkpt lat="45.10190017769902" lon="6.936673318774798"><ele>854.0</ele><time>2026-04-18T08:45:56.001Z</time></trkpt><trkpt lat="45.10186291867955" lon="6.936359371410183"><ele>856.0</ele><time>2026-04-18T08:45:57.001Z</time></trkpt><trkpt lat="45.101801594180586" lon="6.93603229846895"><ele>857.5</ele><time>2026-04-18T08:45:58.001Z</time></trkpt><trkpt lat="45.10172012787783" lon="6.935744527372352"><ele>859.0</ele><time>2026-04-18T08:45:59.001Z</time></trkpt><trkpt lat="45.10161234244242" lon="6.935451185524212"><ele>858.5</ele><time>2026-04-18T08:46:00.001Z</time></trkpt><trkpt lat="45.10149928499648" lon="6.935183917789948"><ele>858.0</ele><time>2026-04-18T08:46:01.001Z</time></trkpt><trkpt lat="45.10137743004267" lon="6.934886253838854"><ele>860.0</ele><time>2026-04-18T08:46:02.001Z</time></trkpt><trkpt lat="45.10126417049938" lon="6.934626880908783"><ele>862.0</ele><time>2026-04-18T08:46:03.001Z</time></trkpt><trkpt lat="45.10113596547116" lon="6.934371307048638"><ele>864.0</ele><time>2026-04-18T08:46:04.001Z</time></trkpt><trkpt lat="45.10100599002386" lon="6.934168014717501"><ele>864.0</ele><time>2026-04-18T08:46:05.001Z</time></trkpt><trkpt lat="45.10088776433609" lon="6.934008639906293"><ele>864.0</ele><time>2026-04-18T08:46:06.001Z</time></trkpt><trkpt lat="45.10081257129069" lon="6.9337846829605025"><ele>864.0</ele><time>2026-04-18T08:46:07.001Z</time></trkpt><trkpt lat="45.10078406739528" lon="6.933530718061826"><ele>862.6666666666667</ele><time>2026-04-18T08:46:08.001Z</time></trkpt><trkpt lat="45.10073933702658" lon="6.933239222519274"><ele>861.3333333333334</ele><time>2026-04-18T08:46:09.001Z</time></trkpt><trkpt lat="45.10069070332713" lon="6.932977023355969"><ele>860.0</ele><time>2026-04-18T08:46:10.001Z</time></trkpt><trkpt lat="45.100620604991846" lon="6.932738829510162"><ele>862.6666666666667</ele><time>2026-04-18T08:46:11.001Z</time></trkpt><trkpt lat="45.10053108433081" lon="6.932539527640149"><ele>865.3333333333333</ele><time>2026-04-18T08:46:12.001Z</time></trkpt><trkpt lat="45.10041973913832" lon="6.932336623755486"><ele>868.0</ele><time>2026-04-18T08:46:13.001Z</time></trkpt><trkpt lat="45.10030818664894" lon="6.932133789837484"><ele>868.0</ele><time>2026-04-18T08:46:14.001Z</time></trkpt><trkpt lat="45.10016964363541" lon="6.931970292939008"><ele>868.0</ele><time>2026-04-18T08:46:15.001Z</time></trkpt><trkpt lat="45.100003198706034" lon="6.931862452930714"><ele>868.0</ele><time>2026-04-18T08:46:16.001Z</time></trkpt><trkpt lat="45.09984048773288" lon="6.9317290722679585"><ele>867.6666666666666</ele><time>2026-04-18T08:46:17.001Z</time></trkpt><trkpt lat="45.09969004534579" lon="6.931538363213978"><ele>867.3333333333333</ele><time>2026-04-18T08:46:18.001Z</time></trkpt><trkpt lat="45.099533222349294" lon="6.931332215610398"><ele>867.0</ele><time>2026-04-18T08:46:19.001Z</time></trkpt><trkpt lat="45.09936628641327" lon="6.931165022715164"><ele>867.0</ele><time>2026-04-18T08:46:20.001Z</time></trkpt><trkpt lat="45.099227526843144" lon="6.930978225073853"><ele>867.0</ele><time>2026-04-18T08:46:21.001Z</time></trkpt><trkpt lat="45.099104343306344" lon="6.930748042341516"><ele>867.0</ele><time>2026-04-18T08:46:22.001Z</time></trkpt><trkpt lat="45.09897121323539" lon="6.9305354450318575"><ele>867.6666666666667</ele><time>2026-04-18T08:46:23.001Z</time></trkpt><trkpt lat="45.09884139561571" lon="6.930287548031071"><ele>868.3333333333334</ele><time>2026-04-18T08:46:24.001Z</time></trkpt><trkpt lat="45.09871791352964" lon="6.9300421578942295"><ele>869.0</ele><time>2026-04-18T08:46:25.001Z</time></trkpt><trkpt lat="45.09859937308093" lon="6.929782581916918"><ele>875.0</ele><time>2026-04-18T08:46:26.001Z</time></trkpt><trkpt lat="45.09849971271071" lon="6.929485605527748"><ele>881.0</ele><time>2026-04-18T08:46:27.001Z</time></trkpt><trkpt lat="45.09838667978528" lon="6.929185380606434"><ele>881.0</ele><time>2026-04-18T08:46:28Z</time></trkpt><trkpt lat="45.09826772450746" lon="6.928889027643432"><ele>881.0</ele><time>2026-04-18T08:46:29Z</time></trkpt><trkpt lat="45.098156001529155" lon="6.928580785971483"><ele>882.5</ele><time>2026-04-18T08:46:30Z</time></trkpt><trkpt lat="45.09803402392661" lon="6.928283368617733"><ele>884.0</ele><time>2026-04-18T08:46:31Z</time></trkpt><trkpt lat="45.097930496410484" lon="6.927998112074088"><ele>884.0</ele><time>2026-04-18T08:46:32Z</time></trkpt><trkpt lat="45.09783358997046" lon="6.927717507169786"><ele>884.0</ele><time>2026-04-18T08:46:33Z</time></trkpt><trkpt lat="45.0977348046264" lon="6.927464987468844"><ele>884.0</ele><time>2026-04-18T08:46:34Z</time></trkpt><trkpt lat="45.097658278422884" lon="6.927227283324649"><ele>886.5</ele><time>2026-04-18T08:46:35Z</time></trkpt><trkpt lat="45.097559260107424" lon="6.927045415816097"><ele>889.0</ele><time>2026-04-18T08:46:36Z</time></trkpt><trkpt lat="45.09749156482802" lon="6.926862229264841"><ele>891.5</ele><time>2026-04-18T08:46:37Z</time></trkpt><trkpt lat="45.097438011832494" lon="6.9267040048542246"><ele>894.0</ele><time>2026-04-18T08:46:38Z</time></trkpt><trkpt lat="45.09733397229996" lon="6.926630131358796"><ele>894.0</ele><time>2026-04-18T08:46:39Z</time></trkpt><trkpt lat="45.0971965701896" lon="6.926573181429295"><ele>894.0</ele><time>2026-04-18T08:46:40Z</time></trkpt><trkpt lat="45.0970421714852" lon="6.926526859227999"><ele>894.0</ele><time>2026-04-18T08:46:41Z</time></trkpt><trkpt lat="45.09683741556099" lon="6.926491399407287"><ele>894.0</ele><time>2026-04-18T08:46:42Z</time></trkpt><trkpt lat="45.09660691432255" lon="6.926428721763578"><ele>894.0</ele><time>2026-04-18T08:46:43Z</time></trkpt><trkpt lat="45.09638371531521" lon="6.926385649774567"><ele>888.0</ele><time>2026-04-18T08:46:44Z</time></trkpt><trkpt lat="45.096173095811224" lon="6.926290854419592"><ele>882.0</ele><time>2026-04-18T08:46:45Z</time></trkpt><trkpt lat="45.09598193383944" lon="6.926162610293441"><ele>876.0</ele><time>2026-04-18T08:46:46Z</time></trkpt><trkpt lat="45.095790482929736" lon="6.926033319522412"><ele>877.3333333333333</ele><time>2026-04-18T08:46:47Z</time></trkpt><trkpt lat="45.09561900763348" lon="6.925869544237545"><ele>878.6666666666666</ele><time>2026-04-18T08:46:48Z</time></trkpt><trkpt lat="45.09546154869541" lon="6.925716729749563"><ele>880.0</ele><time>2026-04-18T08:46:49Z</time></trkpt><trkpt lat="45.09530132685739" lon="6.925539052461097"><ele>880.0</ele><time>2026-04-18T08:46:50Z</time></trkpt><trkpt lat="45.09515201015158" lon="6.925349896128294"><ele>880.0</ele><time>2026-04-18T08:46:51Z</time></trkpt><trkpt lat="45.09501526174557" lon="6.925157121301095"><ele>880.0</ele><time>2026-04-18T08:46:52Z</time></trkpt><trkpt lat="45.09488815532663" lon="6.924954644391735"><ele>873.5</ele><time>2026-04-18T08:46:53Z</time></trkpt><trkpt lat="45.09472318775006" lon="6.924657582417447"><ele>867.0</ele><time>2026-04-18T08:46:54Z</time></trkpt><trkpt lat="45.094604015193084" lon="6.9244232284275"><ele>877.3333333333333</ele><time>2026-04-18T08:46:55Z</time></trkpt><trkpt lat="45.094480386185595" lon="6.924180110758826"><ele>887.6666666666666</ele><time>2026-04-18T08:46:56.022Z</time></trkpt><trkpt lat="45.094359524800005" lon="6.923941579489699"><ele>898.0</ele><time>2026-04-18T08:46:57.02Z</time></trkpt><trkpt lat="45.09423888701388" lon="6.92369795802858"><ele>911.0</ele><time>2026-04-18T08:46:58Z</time></trkpt><trkpt lat="45.09409249881582" lon="6.92337424568248"><ele>924.0</ele><time>2026-04-18T08:46:59Z</time></trkpt><trkpt lat="45.09401016781237" lon="6.92303780039001"><ele>906.5</ele><time>2026-04-18T08:47:00Z</time></trkpt><trkpt lat="45.09392329621475" lon="6.922700919588538"><ele>889.0</ele><time>2026-04-18T08:47:01Z</time></trkpt><trkpt lat="45.093896954025546" lon="6.922357969875138"><ele>889.0</ele><time>2026-04-18T08:47:02Z</time></trkpt><trkpt lat="45.09383286311106" lon="6.922018376573689"><ele>889.0</ele><time>2026-04-18T08:47:03Z</time></trkpt><trkpt lat="45.09377485184233" lon="6.921680431425977"><ele>894.5</ele><time>2026-04-18T08:47:04Z</time></trkpt><trkpt lat="45.093704973789706" lon="6.921344834808938"><ele>900.0</ele><time>2026-04-18T08:47:05Z</time></trkpt><trkpt lat="45.09360585932366" lon="6.920999615153029"><ele>910.5</ele><time>2026-04-18T08:47:06Z</time></trkpt><trkpt lat="45.09350219832005" lon="6.92062930828302"><ele>921.0</ele><time>2026-04-18T08:47:07Z</time></trkpt><trkpt lat="45.09338591818539" lon="6.92022351012237"><ele>909.5</ele><time>2026-04-18T08:47:08Z</time></trkpt><trkpt lat="45.09320994772545" lon="6.919897236699152"><ele>898.0</ele><time>2026-04-18T08:47:09Z</time></trkpt><trkpt lat="45.093045671293" lon="6.91959588179185"><ele>898.0</ele><time>2026-04-18T08:47:10Z</time></trkpt><trkpt lat="45.09287803058209" lon="6.91931023570788"><ele>898.0</ele><time>2026-04-18T08:47:11Z</time></trkpt><trkpt lat="45.09271864829665" lon="6.919023773528901"><ele>910.0</ele><time>2026-04-18T08:47:12Z</time></trkpt><trkpt lat="45.09257021942532" lon="6.918745035942198"><ele>922.0</ele><time>2026-04-18T08:47:13.001Z</time></trkpt><trkpt lat="45.09244683395718" lon="6.918489010542071"><ele>919.6666666666666</ele><time>2026-04-18T08:47:14.001Z</time></trkpt><trkpt lat="45.09231641802" lon="6.918269677709961"><ele>917.3333333333333</ele><time>2026-04-18T08:47:15.001Z</time></trkpt><trkpt lat="45.0921955148269" lon="6.918066925818715"><ele>915.0</ele><time>2026-04-18T08:47:16.001Z</time></trkpt><trkpt lat="45.09207144138199" lon="6.917847350409184"><ele>915.0</ele><time>2026-04-18T08:47:17.001Z</time></trkpt><trkpt lat="45.09193141274331" lon="6.917631106655807"><ele>915.0</ele><time>2026-04-18T08:47:18.001Z</time></trkpt><trkpt lat="45.09180526647659" lon="6.917400060157658"><ele>915.0</ele><time>2026-04-18T08:47:19.001Z</time></trkpt><trkpt lat="45.09167424947708" lon="6.91717092795212"><ele>918.3333333333333</ele><time>2026-04-18T08:47:20.001Z</time></trkpt><trkpt lat="45.09154957411654" lon="6.916935314226128"><ele>921.6666666666666</ele><time>2026-04-18T08:47:21.001Z</time></trkpt><trkpt lat="45.09141963020617" lon="6.916705001638097"><ele>925.0</ele><time>2026-04-18T08:47:22.001Z</time></trkpt><trkpt lat="45.09138065679711" lon="6.916590425280797"><ele>925.0</ele><time>2026-04-18T08:47:23.001Z</time></trkpt><trkpt lat="45.09128977614674" lon="6.916461445321902"><ele>925.0</ele><time>2026-04-18T08:47:24.001Z</time></trkpt><trkpt lat="45.09117303721786" lon="6.916263428794325"><ele>925.0</ele><time>2026-04-18T08:47:25.001Z</time></trkpt><trkpt lat="45.09104219783791" lon="6.916090602092805"><ele>920.3333333333333</ele><time>2026-04-18T08:47:26.001Z</time></trkpt><trkpt lat="45.09094210692355" lon="6.915881068299707"><ele>915.6666666666667</ele><time>2026-04-18T08:47:27.001Z</time></trkpt><trkpt lat="45.09083266134956" lon="6.915709986281816"><ele>911.0</ele><time>2026-04-18T08:47:28.001Z</time></trkpt><trkpt lat="45.0907199007944" lon="6.915553615238805"><ele>911.0</ele><time>2026-04-18T08:47:29.001Z</time></trkpt><trkpt lat="45.09062345653175" lon="6.915386606794013"><ele>911.0</ele><time>2026-04-18T08:47:30.001Z</time></trkpt><trkpt lat="45.09051927456287" lon="6.91519319218854"><ele>911.0</ele><time>2026-04-18T08:47:31.001Z</time></trkpt><trkpt lat="45.090337824979244" lon="6.915067146921821"><ele>923.3333333333334</ele><time>2026-04-18T08:47:32.001Z</time></trkpt><trkpt lat="45.09023361042145" lon="6.914827037725668"><ele>935.6666666666667</ele><time>2026-04-18T08:47:33.001Z</time></trkpt><trkpt lat="45.09015047733127" lon="6.914566336525067"><ele>948.0</ele><time>2026-04-18T08:47:34.001Z</time></trkpt><trkpt lat="45.09007816156283" lon="6.914289448516067"><ele>958.0</ele><time>2026-04-18T08:47:35.001Z</time></trkpt><trkpt lat="45.09005734906769" lon="6.913927619553483"><ele>968.0</ele><time>2026-04-18T08:47:36.001Z</time></trkpt><trkpt lat="45.090026082178014" lon="6.913541829516253"><ele>960.0</ele><time>2026-04-18T08:47:37.001Z</time></trkpt><trkpt lat="45.08998226657541" lon="6.913175019575137"><ele>952.0</ele><time>2026-04-18T08:47:38.001Z</time></trkpt><trkpt lat="45.08959619849331" lon="6.912908472057791"><ele>952.0</ele><time>2026-04-18T08:47:39.001Z</time></trkpt><trkpt lat="45.08947824444596" lon="6.9126167787098565"><ele>952.0</ele><time>2026-04-18T08:47:40.001Z</time></trkpt><trkpt lat="45.08937499209077" lon="6.912332642101772"><ele>954.0</ele><time>2026-04-18T08:47:41.001Z</time></trkpt><trkpt lat="45.08937227482481" lon="6.91205394957631"><ele>956.0</ele><time>2026-04-18T08:47:42.001Z</time></trkpt><trkpt lat="45.08924272862071" lon="6.91186463040155"><ele>958.0</ele><time>2026-04-18T08:47:43.001Z</time></trkpt><trkpt lat="45.089072551343385" lon="6.911689130856339"><ele>958.0</ele><time>2026-04-18T08:47:44.001Z</time></trkpt><trkpt lat="45.088926799036074" lon="6.91149895295667"><ele>958.0</ele><time>2026-04-18T08:47:45.001Z</time></trkpt><trkpt lat="45.088813758544404" lon="6.9113113429762105"><ele>958.0</ele><time>2026-04-18T08:47:46.001Z</time></trkpt><trkpt lat="45.08871208892402" lon="6.911152172091266"><ele>958.0</ele><time>2026-04-18T08:47:47.001Z</time></trkpt><trkpt lat="45.08861599651174" lon="6.911027451292932"><ele>958.0</ele><time>2026-04-18T08:47:48.001Z</time></trkpt><trkpt lat="45.08852875902252" lon="6.910898913734389"><ele>958.0</ele><time>2026-04-18T08:47:49.001Z</time></trkpt><trkpt lat="45.0885131331821" lon="6.910709843735194"><ele>958.0</ele><time>2026-04-18T08:47:50.001Z</time></trkpt><trkpt lat="45.08849014870738" lon="6.910510267668958"><ele>966.3333333333333</ele><time>2026-04-18T08:47:51.001Z</time></trkpt><trkpt lat="45.08848417921348" lon="6.910309910724876"><ele>974.6666666666667</ele><time>2026-04-18T08:47:52.001Z</time></trkpt><trkpt lat="45.08858119737505" lon="6.909984833105522"><ele>983.0</ele><time>2026-04-18T08:47:53.001Z</time></trkpt><trkpt lat="45.08860812836748" lon="6.909772723908298"><ele>985.3333333333334</ele><time>2026-04-18T08:47:54.001Z</time></trkpt><trkpt lat="45.08859900247629" lon="6.909537290933396"><ele>987.6666666666667</ele><time>2026-04-18T08:47:55.001Z</time></trkpt><trkpt lat="45.088565128045275" lon="6.90927519173028"><ele>990.0</ele><time>2026-04-18T08:47:56.001Z</time></trkpt><trkpt lat="45.088534535753276" lon="6.909000115574414"><ele>992.3333333333333</ele><time>2026-04-18T08:47:57.001Z</time></trkpt><trkpt lat="45.088508406763566" lon="6.908721078943387"><ele>994.6666666666666</ele><time>2026-04-18T08:47:58.001Z</time></trkpt><trkpt lat="45.08847095678501" lon="6.908476308893323"><ele>997.0</ele><time>2026-04-18T08:47:59.001Z</time></trkpt><trkpt lat="45.08843922417402" lon="6.908252818286762"><ele>997.5</ele><time>2026-04-18T08:48:00.001Z</time></trkpt><trkpt lat="45.08840996071319" lon="6.908040474474472"><ele>998.0</ele><time>2026-04-18T08:48:01.001Z</time></trkpt><trkpt lat="45.088368566364174" lon="6.907891168755052"><ele>998.5</ele><time>2026-04-18T08:48:02.001Z</time></trkpt><trkpt lat="45.08829673013065" lon="6.907702838262898"><ele>999.0</ele><time>2026-04-18T08:48:03.001Z</time></trkpt><trkpt lat="45.08816073181299" lon="6.907624117056525"><ele>999.0</ele><time>2026-04-18T08:48:04.001Z</time></trkpt><trkpt lat="45.08802775669208" lon="6.9076102140452456"><ele>999.0</ele><time>2026-04-18T08:48:05.001Z</time></trkpt><trkpt lat="45.087887156927444" lon="6.907564349405917"><ele>999.0</ele><time>2026-04-18T08:48:06.001Z</time></trkpt><trkpt lat="45.087763100597726" lon="6.907563860027945"><ele>999.0</ele><time>2026-04-18T08:48:07.001Z</time></trkpt><trkpt lat="45.08761253467087" lon="6.907631474149954"><ele>999.0</ele><time>2026-04-18T08:48:08.001Z</time></trkpt><trkpt lat="45.0874710098199" lon="6.907735327813916"><ele>999.0</ele><time>2026-04-18T08:48:09.001Z</time></trkpt><trkpt lat="45.08731800100785" lon="6.907775149688869"><ele>999.0</ele><time>2026-04-18T08:48:10.001Z</time></trkpt><trkpt lat="45.08713770199266" lon="6.907771328453054"><ele>1004.0</ele><time>2026-04-18T08:48:11.001Z</time></trkpt><trkpt lat="45.08692444969872" lon="6.9077677754016475"><ele>1009.0</ele><time>2026-04-18T08:48:12.001Z</time></trkpt><trkpt lat="45.08666984013269" lon="6.907818759096007"><ele>1014.3333333333333</ele><time>2026-04-18T08:48:13.001Z</time></trkpt><trkpt lat="45.0864804158791" lon="6.907878690371696"><ele>1019.6666666666667</ele><time>2026-04-18T08:48:14.001Z</time></trkpt><trkpt lat="45.086334965645754" lon="6.907904570205228"><ele>1025.0</ele><time>2026-04-18T08:48:15.001Z</time></trkpt><trkpt lat="45.08617979122756" lon="6.907938378537244"><ele>1025.0</ele><time>2026-04-18T08:48:16.001Z</time></trkpt><trkpt lat="45.086026978554415" lon="6.907987250139757"><ele>1025.0</ele><time>2026-04-18T08:48:17.001Z</time></trkpt><trkpt lat="45.08587861108286" lon="6.908074784834002"><ele>1025.0</ele><time>2026-04-18T08:48:18.001Z</time></trkpt><trkpt lat="45.08577807567457" lon="6.908269868003566"><ele>1025.5</ele><time>2026-04-18T08:48:19.001Z</time></trkpt><trkpt lat="45.08565755342335" lon="6.9083355763469125"><ele>1026.0</ele><time>2026-04-18T08:48:20.001Z</time></trkpt><trkpt lat="45.085525977338506" lon="6.908382520632176"><ele>1026.5</ele><time>2026-04-18T08:48:21.001Z</time></trkpt><trkpt lat="45.085401565178" lon="6.908424339944472"><ele>1027.0</ele><time>2026-04-18T08:48:22.001Z</time></trkpt><trkpt lat="45.08525048416031" lon="6.908426067217839"><ele>1027.0</ele><time>2026-04-18T08:48:23.001Z</time></trkpt><trkpt lat="45.0850809580321" lon="6.908404223398851"><ele>1027.0</ele><time>2026-04-18T08:48:24.001Z</time></trkpt><trkpt lat="45.084911556892365" lon="6.908358902170851"><ele>1027.0</ele><time>2026-04-18T08:48:25.001Z</time></trkpt><trkpt lat="45.08469937464913" lon="6.908305211107307"><ele>1023.6666666666666</ele><time>2026-04-18T08:48:26.001Z</time></trkpt><trkpt lat="45.08453190481668" lon="6.908259488152294"><ele>1020.3333333333333</ele><time>2026-04-18T08:48:27.001Z</time></trkpt><trkpt lat="45.084379406587225" lon="6.908241619669489"><ele>1017.0</ele><time>2026-04-18T08:48:28.001Z</time></trkpt><trkpt lat="45.08425479895915" lon="6.908214175523807"><ele>1017.0</ele><time>2026-04-18T08:48:29.001Z</time></trkpt><trkpt lat="45.084182837887504" lon="6.908122990171026"><ele>1017.0</ele><time>2026-04-18T08:48:30Z</time></trkpt><trkpt lat="45.08412017854988" lon="6.908015067042655"><ele>1017.0</ele><time>2026-04-18T08:48:31Z</time></trkpt><trkpt lat="45.08404565701894" lon="6.907933897391916"><ele>1017.0</ele><time>2026-04-18T08:48:32Z</time></trkpt><trkpt lat="45.08400626549569" lon="6.9078277506217365"><ele>1017.0</ele><time>2026-04-18T08:48:33Z</time></trkpt><trkpt lat="45.08400483676989" lon="6.907710895634703"><ele>1017.0</ele><time>2026-04-18T08:48:34Z</time></trkpt><trkpt lat="45.08408578519378" lon="6.9075867768840835"><ele>1017.0</ele><time>2026-04-18T08:48:35Z</time></trkpt><trkpt lat="45.084225258597876" lon="6.907575454818694"><ele>1017.0</ele><time>2026-04-18T08:48:36Z</time></trkpt><trkpt lat="45.084343018376785" lon="6.907620854296193"><ele>1017.0</ele><time>2026-04-18T08:48:37Z</time></trkpt><trkpt lat="45.084446733717556" lon="6.907738666595194"><ele>1017.0</ele><time>2026-04-18T08:48:38Z</time></trkpt><trkpt lat="45.08455515933827" lon="6.907812744629778"><ele>1017.0</ele><time>2026-04-18T08:48:39Z</time></trkpt><trkpt lat="45.084706339087035" lon="6.907866734870922"><ele>1017.0</ele><time>2026-04-18T08:48:40Z</time></trkpt><trkpt lat="45.08483215372006" lon="6.907931823649572"><ele>1017.0</ele><time>2026-04-18T08:48:41Z</time></trkpt><trkpt lat="45.08494131618898" lon="6.90794775001953"><ele>1019.0</ele><time>2026-04-18T08:48:42Z</time></trkpt><trkpt lat="45.0850498489736" lon="6.907962631612955"><ele>1021.0</ele><time>2026-04-18T08:48:43Z</time></trkpt><trkpt lat="45.085126797064284" lon="6.907975428183057"><ele>1023.0</ele><time>2026-04-18T08:48:44Z</time></trkpt><trkpt lat="45.085260384460085" lon="6.908021001352036"><ele>1025.0</ele><time>2026-04-18T08:48:46Z</time></trkpt><trkpt lat="45.085329586095355" lon="6.908041224370994"><ele>1027.0</ele><time>2026-04-18T08:48:47Z</time></trkpt><trkpt lat="45.08540625213411" lon="6.908039372936875"><ele>1027.0</ele><time>2026-04-18T08:48:48Z</time></trkpt><trkpt lat="45.08548561927338" lon="6.908045683924762"><ele>1027.0</ele><time>2026-04-18T08:48:49Z</time></trkpt><trkpt lat="45.085560941271" lon="6.908040489017955"><ele>1027.0</ele><time>2026-04-18T08:48:50Z</time></trkpt><trkpt lat="45.085641303197406" lon="6.907948635722395"><ele>1027.0</ele><time>2026-04-18T08:48:52Z</time></trkpt><trkpt lat="45.08567277121448" lon="6.907804237689032"><ele>1027.0</ele><time>2026-04-18T08:48:54Z</time></trkpt><trkpt lat="45.08560296835834" lon="6.90768145647605"><ele>1027.0</ele><time>2026-04-18T08:48:56Z</time></trkpt><trkpt lat="45.08544680388384" lon="6.907637785777056"><ele>1027.0</ele><time>2026-04-18T08:48:58Z</time></trkpt><trkpt lat="45.085363847788074" lon="6.907631726488671"><ele>1027.0</ele><time>2026-04-18T08:48:59Z</time></trkpt><trkpt lat="45.08521992285752" lon="6.907604283065316"><ele>1027.0</ele><time>2026-04-18T08:49:00Z</time></trkpt><trkpt lat="45.085098178777265" lon="6.907563186820423"><ele>1030.4</ele><time>2026-04-18T08:49:01Z</time></trkpt><trkpt lat="45.085003195731794" lon="6.907531076815159"><ele>1033.8000000000002</ele><time>2026-04-18T08:49:02Z</time></trkpt><trkpt lat="45.084906085694776" lon="6.907424060995441"><ele>1037.2</ele><time>2026-04-18T08:49:03Z</time></trkpt><trkpt lat="45.084817480786285" lon="6.90734551980582"><ele>1040.6000000000001</ele><time>2026-04-18T08:49:04Z</time></trkpt><trkpt lat="45.08472632859845" lon="6.9072742474025635"><ele>1044.0</ele><time>2026-04-18T08:49:05Z</time></trkpt><trkpt lat="45.0846454074981" lon="6.907222302974635"><ele>1044.0</ele><time>2026-04-18T08:49:06Z</time></trkpt><trkpt lat="45.084554883014846" lon="6.907161781799143"><ele>1044.0</ele><time>2026-04-18T08:49:07Z</time></trkpt><trkpt lat="45.08447526043644" lon="6.907102553166023"><ele>1044.0</ele><time>2026-04-18T08:49:08Z</time></trkpt><trkpt lat="45.084408591898395" lon="6.9070429086007765"><ele>1044.0</ele><time>2026-04-18T08:49:09Z</time></trkpt><trkpt lat="45.08434385262876" lon="6.906967571977829"><ele>1044.0</ele><time>2026-04-18T08:49:10Z</time></trkpt><trkpt lat="45.08427280197115" lon="6.906887095518483"><ele>1044.0</ele><time>2026-04-18T08:49:11Z</time></trkpt><trkpt lat="45.084203991182" lon="6.906809008316546"><ele>1042.4</ele><time>2026-04-18T08:49:12Z</time></trkpt><trkpt lat="45.08413320711298" lon="6.906718532415933"><ele>1040.8000000000002</ele><time>2026-04-18T08:49:13Z</time></trkpt><trkpt lat="45.08406068887503" lon="6.9066444167340455"><ele>1039.1999999999998</ele><time>2026-04-18T08:49:14Z</time></trkpt><trkpt lat="45.08398076601603" lon="6.906551335742207"><ele>1037.6</ele><time>2026-04-18T08:49:15Z</time></trkpt><trkpt lat="45.08389718432722" lon="6.906462099011038"><ele>1036.0</ele><time>2026-04-18T08:49:16Z</time></trkpt><trkpt lat="45.083820628496696" lon="6.906371942413609"><ele>1036.0</ele><time>2026-04-18T08:49:17Z</time></trkpt><trkpt lat="45.083752520237525" lon="6.906267299712902"><ele>1036.0</ele><time>2026-04-18T08:49:18Z</time></trkpt><trkpt lat="45.08369534890286" lon="6.90613718018847"><ele>1036.0</ele><time>2026-04-18T08:49:19Z</time></trkpt><trkpt lat="45.08363624918669" lon="6.906005331959911"><ele>1036.0</ele><time>2026-04-18T08:49:20Z</time></trkpt><trkpt lat="45.08358197186424" lon="6.9058624963316415"><ele>1036.0</ele><time>2026-04-18T08:49:21Z</time></trkpt><trkpt lat="45.08353063571995" lon="6.905712948612153"><ele>1040.3999999999999</ele><time>2026-04-18T08:49:22Z</time></trkpt><trkpt lat="45.08348751868419" lon="6.9055759042561995"><ele>1044.8</ele><time>2026-04-18T08:49:23Z</time></trkpt><trkpt lat="45.08345095887043" lon="6.905448661331842"><ele>1049.1999999999998</ele><time>2026-04-18T08:49:24Z</time></trkpt><trkpt lat="45.0834129453402" lon="6.905330339102475"><ele>1053.6</ele><time>2026-04-18T08:49:25Z</time></trkpt><trkpt lat="45.08335770297853" lon="6.905212351335542"><ele>1058.0</ele><time>2026-04-18T08:49:26Z</time></trkpt><trkpt lat="45.083350957848765" lon="6.905060790244986"><ele>1056.75</ele><time>2026-04-18T08:49:27Z</time></trkpt><trkpt lat="45.08329205865213" lon="6.904904032411497"><ele>1055.5</ele><time>2026-04-18T08:49:28Z</time></trkpt><trkpt lat="45.0832402104328" lon="6.904754828228423"><ele>1054.25</ele><time>2026-04-18T08:49:29Z</time></trkpt><trkpt lat="45.08317646912156" lon="6.904587469758207"><ele>1053.0</ele><time>2026-04-18T08:49:30Z</time></trkpt><trkpt lat="45.08310972561764" lon="6.904434618283489"><ele>1053.0</ele><time>2026-04-18T08:49:31Z</time></trkpt><trkpt lat="45.08304548964457" lon="6.904286380285658"><ele>1053.0</ele><time>2026-04-18T08:49:32Z</time></trkpt><trkpt lat="45.08296776339581" lon="6.9041397610416935"><ele>1053.0</ele><time>2026-04-18T08:49:33Z</time></trkpt><trkpt lat="45.08283292770962" lon="6.90401744393314"><ele>1053.0</ele><time>2026-04-18T08:49:34Z</time></trkpt><trkpt lat="45.08271004980423" lon="6.90391465015916"><ele>1056.5</ele><time>2026-04-18T08:49:35Z</time></trkpt><trkpt lat="45.08260045707888" lon="6.903856204583964"><ele>1060.0</ele><time>2026-04-18T08:49:36Z</time></trkpt><trkpt lat="45.082485791122586" lon="6.903756898763519"><ele>1063.5</ele><time>2026-04-18T08:49:37Z</time></trkpt><trkpt lat="45.08239072978975" lon="6.903667354593983"><ele>1067.0</ele><time>2026-04-18T08:49:38Z</time></trkpt><trkpt lat="45.08229393018178" lon="6.90360506479189"><ele>1067.0</ele><time>2026-04-18T08:49:39Z</time></trkpt><trkpt lat="45.082150910333084" lon="6.903628411815754"><ele>1067.0</ele><time>2026-04-18T08:49:40Z</time></trkpt><trkpt lat="45.08204132810369" lon="6.903641478179336"><ele>1067.0</ele><time>2026-04-18T08:49:41Z</time></trkpt><trkpt lat="45.081894221823156" lon="6.90370218248878"><ele>1067.0</ele><time>2026-04-18T08:49:42Z</time></trkpt><trkpt lat="45.0817898602995" lon="6.903768764461767"><ele>1067.0</ele><time>2026-04-18T08:49:43Z</time></trkpt><trkpt lat="45.081674650353385" lon="6.903790825165756"><ele>1067.0</ele><time>2026-04-18T08:49:44Z</time></trkpt><trkpt lat="45.08156521216429" lon="6.903777554887454"><ele>1067.0</ele><time>2026-04-18T08:49:45Z</time></trkpt><trkpt lat="45.08143123813828" lon="6.90375822615735"><ele>1067.0</ele><time>2026-04-18T08:49:46Z</time></trkpt><trkpt lat="45.08133206164367" lon="6.903698797843016"><ele>1067.0</ele><time>2026-04-18T08:49:47Z</time></trkpt><trkpt lat="45.081269741687926" lon="6.9035933440747534"><ele>1067.0</ele><time>2026-04-18T08:49:48Z</time></trkpt><trkpt lat="45.08119178260649" lon="6.903466435769951"><ele>1067.0</ele><time>2026-04-18T08:49:49Z</time></trkpt><trkpt lat="45.08108761141756" lon="6.903293702277878"><ele>1067.0</ele><time>2026-04-18T08:49:50Z</time></trkpt><trkpt lat="45.08098047727094" lon="6.903127218610516"><ele>1067.0</ele><time>2026-04-18T08:49:51Z</time></trkpt><trkpt lat="45.08087194142079" lon="6.903004995669803"><ele>1067.0</ele><time>2026-04-18T08:49:52Z</time></trkpt><trkpt lat="45.08078425030049" lon="6.90284638027723"><ele>1067.0</ele><time>2026-04-18T08:49:53Z</time></trkpt><trkpt lat="45.08068517830071" lon="6.902747778703608"><ele>1067.0</ele><time>2026-04-18T08:49:54Z</time></trkpt><trkpt lat="45.080571328737925" lon="6.902670828719937"><ele>1064.25</ele><time>2026-04-18T08:49:55Z</time></trkpt><trkpt lat="45.080469416533234" lon="6.902577603882397"><ele>1061.5</ele><time>2026-04-18T08:49:56Z</time></trkpt><trkpt lat="45.0803518979233" lon="6.9025001268162605"><ele>1058.75</ele><time>2026-04-18T08:49:57Z</time></trkpt><trkpt lat="45.08023879254236" lon="6.902414084527322"><ele>1056.0</ele><time>2026-04-18T08:49:58Z</time></trkpt><trkpt lat="45.0801333102964" lon="6.902331146203106"><ele>1056.0</ele><time>2026-04-18T08:49:59Z</time></trkpt><trkpt lat="45.08004781734511" lon="6.902252493235931"><ele>1056.0</ele><time>2026-04-18T08:50:00Z</time></trkpt><trkpt lat="45.07995392902465" lon="6.902182578091128"><ele>1056.0</ele><time>2026-04-18T08:50:01Z</time></trkpt><trkpt lat="45.07988669127657" lon="6.902107025501589"><ele>1056.0</ele><time>2026-04-18T08:50:02Z</time></trkpt><trkpt lat="45.07980930035056" lon="6.902029737101085"><ele>1056.0</ele><time>2026-04-18T08:50:03Z</time></trkpt><trkpt lat="45.07974615409567" lon="6.901927264892643"><ele>1054.1666666666667</ele><time>2026-04-18T08:50:04Z</time></trkpt><trkpt lat="45.07968612680983" lon="6.901821775994534"><ele>1052.3333333333333</ele><time>2026-04-18T08:50:05Z</time></trkpt><trkpt lat="45.079638965298344" lon="6.901719869897797"><ele>1050.5</ele><time>2026-04-18T08:50:06Z</time></trkpt><trkpt lat="45.07959734787889" lon="6.901613581118953"><ele>1048.6666666666665</ele><time>2026-04-18T08:50:07Z</time></trkpt><trkpt lat="45.07958053081716" lon="6.90149483868923"><ele>1046.8333333333333</ele><time>2026-04-18T08:50:08Z</time></trkpt><trkpt lat="45.079579180831466" lon="6.901373984711345"><ele>1045.0</ele><time>2026-04-18T08:50:09Z</time></trkpt><trkpt lat="45.079567442768024" lon="6.9012518448937765"><ele>1045.0</ele><time>2026-04-18T08:50:10Z</time></trkpt><trkpt lat="45.07953840571591" lon="6.901144518777084"><ele>1045.0</ele><time>2026-04-18T08:50:11Z</time></trkpt><trkpt lat="45.07951070863391" lon="6.901049371681275"><ele>1045.0</ele><time>2026-04-18T08:50:12Z</time></trkpt><trkpt lat="45.07948397182233" lon="6.900962425747525"><ele>1045.0</ele><time>2026-04-18T08:50:13Z</time></trkpt><trkpt lat="45.07938880018866" lon="6.900892386962144"><ele>1045.0</ele><time>2026-04-18T08:50:15.001Z</time></trkpt><trkpt lat="45.079297216629875" lon="6.900983190872339"><ele>1045.0</ele><time>2026-04-18T08:50:16.001Z</time></trkpt><trkpt lat="45.07924339724406" lon="6.901080999906568"><ele>1045.0</ele><time>2026-04-18T08:50:17.001Z</time></trkpt><trkpt lat="45.07919016771636" lon="6.901170548866994"><ele>1045.0</ele><time>2026-04-18T08:50:18.001Z</time></trkpt><trkpt lat="45.07915622096273" lon="6.901337538007874"><ele>1045.0</ele><time>2026-04-18T08:50:19.001Z</time></trkpt><trkpt lat="45.079164401515634" lon="6.901510952335109"><ele>1045.0</ele><time>2026-04-18T08:50:20.001Z</time></trkpt><trkpt lat="45.07920070380938" lon="6.901620117211735"><ele>1045.0</ele><time>2026-04-18T08:50:21.001Z</time></trkpt><trkpt lat="45.079228938399936" lon="6.901809435260607"><ele>1042.25</ele><time>2026-04-18T08:50:22.001Z</time></trkpt><trkpt lat="45.07933362505986" lon="6.901935633284987"><ele>1039.5</ele><time>2026-04-18T08:50:23.001Z</time></trkpt><trkpt lat="45.079406284293526" lon="6.902101414442625"><ele>1036.75</ele><time>2026-04-18T08:50:24.001Z</time></trkpt><trkpt lat="45.07948367146774" lon="6.902254980184951"><ele>1034.0</ele><time>2026-04-18T08:50:25.001Z</time></trkpt><trkpt lat="45.07957197039578" lon="6.902407090081895"><ele>1034.0</ele><time>2026-04-18T08:50:26.001Z</time></trkpt><trkpt lat="45.07964479724003" lon="6.902532069851831"><ele>1034.0</ele><time>2026-04-18T08:50:27.001Z</time></trkpt><trkpt lat="45.07971925953768" lon="6.902658477219232"><ele>1034.0</ele><time>2026-04-18T08:50:28Z</time></trkpt><trkpt lat="45.07978062730112" lon="6.902775286075883"><ele>1034.0</ele><time>2026-04-18T08:50:29Z</time></trkpt><trkpt lat="45.079852848119366" lon="6.902891704029533"><ele>1034.0</ele><time>2026-04-18T08:50:30Z</time></trkpt><trkpt lat="45.079907288922314" lon="6.902985638481261"><ele>1033.5</ele><time>2026-04-18T08:50:31Z</time></trkpt><trkpt lat="45.07997528761164" lon="6.9031186754695115"><ele>1033.0</ele><time>2026-04-18T08:50:33Z</time></trkpt><trkpt lat="45.08002693246525" lon="6.903261683442236"><ele>1032.5</ele><time>2026-04-18T08:50:35Z</time></trkpt><trkpt lat="45.08009400485987" lon="6.903395318807462"><ele>1032.0</ele><time>2026-04-18T08:50:37Z</time></trkpt><trkpt lat="45.080174368175776" lon="6.903501607636159"><ele>1032.0</ele><time>2026-04-18T08:50:39Z</time></trkpt><trkpt lat="45.08023682518317" lon="6.9036147202445735"><ele>1032.0</ele><time>2026-04-18T08:50:41Z</time></trkpt><trkpt lat="45.08020886675171" lon="6.903779104909634"><ele>1032.0</ele><time>2026-04-18T08:50:43Z</time></trkpt><trkpt lat="45.08001280216873" lon="6.903793695783473"><ele>1032.0</ele><time>2026-04-18T08:50:45Z</time></trkpt><trkpt lat="45.079937738040876" lon="6.903676383367776"><ele>1031.0</ele><time>2026-04-18T08:50:46Z</time></trkpt><trkpt lat="45.079867819962985" lon="6.90358315568501"><ele>1030.0</ele><time>2026-04-18T08:50:47Z</time></trkpt><trkpt lat="45.07980799327116" lon="6.90346897792023"><ele>1029.0</ele><time>2026-04-18T08:50:48Z</time></trkpt><trkpt lat="45.079711088610075" lon="6.903348859745361"><ele>1028.0</ele><time>2026-04-18T08:50:49Z</time></trkpt><trkpt lat="45.079653822360875" lon="6.903222349975328"><ele>1027.0</ele><time>2026-04-18T08:50:50Z</time></trkpt><trkpt lat="45.079583085075896" lon="6.903103626893705"><ele>1027.0</ele><time>2026-04-18T08:50:51Z</time></trkpt><trkpt lat="45.07951686167631" lon="6.902993959766843"><ele>1027.0</ele><time>2026-04-18T08:50:52Z</time></trkpt><trkpt lat="45.07944975596927" lon="6.902887379241017"><ele>1027.0</ele><time>2026-04-18T08:50:53Z</time></trkpt><trkpt lat="45.079379181966445" lon="6.902805742134175"><ele>1027.0</ele><time>2026-04-18T08:50:54Z</time></trkpt><trkpt lat="45.07930827082197" lon="6.902698515141887"><ele>1027.0</ele><time>2026-04-18T08:50:55Z</time></trkpt><trkpt lat="45.079232985563436" lon="6.90261751015287"><ele>1028.4</ele><time>2026-04-18T08:50:56Z</time></trkpt><trkpt lat="45.07914643512289" lon="6.9025240434164195"><ele>1029.8000000000002</ele><time>2026-04-18T08:50:57Z</time></trkpt><trkpt lat="45.07904496780249" lon="6.902439270503584"><ele>1031.2</ele><time>2026-04-18T08:50:58Z</time></trkpt><trkpt lat="45.078949412751825" lon="6.902353120702414"><ele>1032.6000000000001</ele><time>2026-04-18T08:50:59Z</time></trkpt><trkpt lat="45.078866393816114" lon="6.902252882148512"><ele>1034.0</ele><time>2026-04-18T08:51:00Z</time></trkpt><trkpt lat="45.07879093365345" lon="6.902106243954808"><ele>1028.5</ele><time>2026-04-18T08:51:01Z</time></trkpt><trkpt lat="45.07875786644114" lon="6.901944056326956"><ele>1023.0</ele><time>2026-04-18T08:51:02Z</time></trkpt><trkpt lat="45.07874042873561" lon="6.901784732968654"><ele>1017.5</ele><time>2026-04-18T08:51:03Z</time></trkpt><trkpt lat="45.078725160691114" lon="6.901608410680197"><ele>1012.0</ele><time>2026-04-18T08:51:04Z</time></trkpt><trkpt lat="45.07871133903404" lon="6.901443418160882"><ele>1012.0</ele><time>2026-04-18T08:51:05Z</time></trkpt><trkpt lat="45.078696016447985" lon="6.901276332131572"><ele>1012.0</ele><time>2026-04-18T08:51:06Z</time></trkpt><trkpt lat="45.07868251923888" lon="6.901125880509381"><ele>1012.0</ele><time>2026-04-18T08:51:07Z</time></trkpt><trkpt lat="45.078671061258284" lon="6.90095296870572"><ele>1012.0</ele><time>2026-04-18T08:51:08Z</time></trkpt><trkpt lat="45.07866514397815" lon="6.900774380304096"><ele>1011.8</ele><time>2026-04-18T08:51:09Z</time></trkpt><trkpt lat="45.07867109972387" lon="6.900620151452036"><ele>1011.6</ele><time>2026-04-18T08:51:10Z</time></trkpt><trkpt lat="45.078689474352466" lon="6.90048141034066"><ele>1011.3999999999999</ele><time>2026-04-18T08:51:11Z</time></trkpt><trkpt lat="45.07871851068624" lon="6.900345114408713"><ele>1011.1999999999999</ele><time>2026-04-18T08:51:12Z</time></trkpt><trkpt lat="45.07875312633582" lon="6.900226814996664"><ele>1011.0</ele><time>2026-04-18T08:51:13Z</time></trkpt><trkpt lat="45.07881174489053" lon="6.900077788277234"><ele>1011.0</ele><time>2026-04-18T08:51:14Z</time></trkpt><trkpt lat="45.07886798789928" lon="6.899951613208188"><ele>1010.9999999999999</ele><time>2026-04-18T08:51:15Z</time></trkpt><trkpt lat="45.07893556892964" lon="6.899812994573411"><ele>1010.9999999999999</ele><time>2026-04-18T08:51:16Z</time></trkpt><trkpt lat="45.07898926135477" lon="6.899705903016482"><ele>1011.0</ele><time>2026-04-18T08:51:17Z</time></trkpt><trkpt lat="45.07904480634561" lon="6.899595116347036"><ele>1011.0</ele><time>2026-04-18T08:51:18Z</time></trkpt><trkpt lat="45.07909219162276" lon="6.899458955655624"><ele>1014.4</ele><time>2026-04-18T08:51:19Z</time></trkpt><trkpt lat="45.0791841649697" lon="6.899355198230316"><ele>1017.8</ele><time>2026-04-18T08:51:20Z</time></trkpt><trkpt lat="45.07925143078" lon="6.8992225122802076"><ele>1021.1999999999999</ele><time>2026-04-18T08:51:21Z</time></trkpt><trkpt lat="45.07929118420361" lon="6.899127237070533"><ele>1024.6</ele><time>2026-04-18T08:51:22Z</time></trkpt><trkpt lat="45.07934056499524" lon="6.8990116465209885"><ele>1028.0</ele><time>2026-04-18T08:51:23Z</time></trkpt><trkpt lat="45.079389238031844" lon="6.898892000079769"><ele>1028.0</ele><time>2026-04-18T08:51:24Z</time></trkpt><trkpt lat="45.07943647654802" lon="6.89876643725895"><ele>1028.0</ele><time>2026-04-18T08:51:25Z</time></trkpt><trkpt lat="45.07949902589651" lon="6.898614907992566"><ele>1028.0</ele><time>2026-04-18T08:51:26Z</time></trkpt><trkpt lat="45.07953186679776" lon="6.898480478584587"><ele>1028.0</ele><time>2026-04-18T08:51:27Z</time></trkpt><trkpt lat="45.07954625102393" lon="6.898332364051791"><ele>1028.0</ele><time>2026-04-18T08:51:28Z</time></trkpt><trkpt lat="45.079522543795264" lon="6.8981393194161"><ele>1027.4</ele><time>2026-04-18T08:51:29Z</time></trkpt><trkpt lat="45.07950306375192" lon="6.897954714972413"><ele>1026.8</ele><time>2026-04-18T08:51:30Z</time></trkpt><trkpt lat="45.07945020389167" lon="6.897832455918254"><ele>1026.2</ele><time>2026-04-18T08:51:31Z</time></trkpt><trkpt lat="45.07938781099239" lon="6.897711290479621"><ele>1025.6</ele><time>2026-04-18T08:51:32Z</time></trkpt><trkpt lat="45.07935364767336" lon="6.897574436519699"><ele>1025.0</ele><time>2026-04-18T08:51:33Z</time></trkpt><trkpt lat="45.079280743113735" lon="6.897457758653177"><ele>1025.0</ele><time>2026-04-18T08:51:34Z</time></trkpt><trkpt lat="45.07925764591289" lon="6.897275932299414"><ele>1025.0</ele><time>2026-04-18T08:51:35Z</time></trkpt><trkpt lat="45.07923570054572" lon="6.897091219153997"><ele>1025.0</ele><time>2026-04-18T08:51:36Z</time></trkpt><trkpt lat="45.07923130443438" lon="6.896894139578003"><ele>1025.0</ele><time>2026-04-18T08:51:37Z</time></trkpt><trkpt lat="45.07922196625172" lon="6.896737712123572"><ele>1024.75</ele><time>2026-04-18T08:51:38Z</time></trkpt><trkpt lat="45.07921522431912" lon="6.8965850806374895"><ele>1024.5</ele><time>2026-04-18T08:51:39Z</time></trkpt><trkpt lat="45.0792012283435" lon="6.896426001380009"><ele>1024.25</ele><time>2026-04-18T08:51:40Z</time></trkpt><trkpt lat="45.07924009405649" lon="6.89624670081961"><ele>1024.0</ele><time>2026-04-18T08:51:41Z</time></trkpt><trkpt lat="45.079263481104256" lon="6.896064791450255"><ele>1025.75</ele><time>2026-04-18T08:51:42Z</time></trkpt><trkpt lat="45.079305849551965" lon="6.895882479879364"><ele>1027.5</ele><time>2026-04-18T08:51:43Z</time></trkpt><trkpt lat="45.07933672336899" lon="6.895702416000666"><ele>1029.25</ele><time>2026-04-18T08:51:44Z</time></trkpt><trkpt lat="45.079369809617354" lon="6.895511823943462"><ele>1031.0</ele><time>2026-04-18T08:51:45Z</time></trkpt><trkpt lat="45.07936564773574" lon="6.895342549154851"><ele>1031.0</ele><time>2026-04-18T08:51:46Z</time></trkpt><trkpt lat="45.07936823539584" lon="6.895154824094268"><ele>1031.0</ele><time>2026-04-18T08:51:47Z</time></trkpt><trkpt lat="45.079356337425494" lon="6.894973100810288"><ele>1031.0</ele><time>2026-04-18T08:51:48Z</time></trkpt><trkpt lat="45.07924444876491" lon="6.894813620425647"><ele>1031.0</ele><time>2026-04-18T08:51:49Z</time></trkpt><trkpt lat="45.079189537369444" lon="6.894652849140381"><ele>1031.25</ele><time>2026-04-18T08:51:50Z</time></trkpt><trkpt lat="45.079115916165726" lon="6.894529551756411"><ele>1031.5</ele><time>2026-04-18T08:51:51Z</time></trkpt><trkpt lat="45.07904588892854" lon="6.894379003655023"><ele>1031.75</ele><time>2026-04-18T08:51:52Z</time></trkpt><trkpt lat="45.07897924379842" lon="6.894215455809664"><ele>1032.0</ele><time>2026-04-18T08:51:53Z</time></trkpt><trkpt lat="45.078913751625734" lon="6.894061775993274"><ele>1027.5</ele><time>2026-04-18T08:51:54Z</time></trkpt><trkpt lat="45.07883724899987" lon="6.893919709437131"><ele>1023.0</ele><time>2026-04-18T08:51:55Z</time></trkpt><trkpt lat="45.07875401425793" lon="6.893757732510845"><ele>1018.5</ele><time>2026-04-18T08:51:56Z</time></trkpt><trkpt lat="45.07868205583719" lon="6.893611130960485"><ele>1014.0</ele><time>2026-04-18T08:51:57Z</time></trkpt><trkpt lat="45.078615548969076" lon="6.893454138373528"><ele>1017.5</ele><time>2026-04-18T08:51:58Z</time></trkpt><trkpt lat="45.07852877964591" lon="6.893287949011239"><ele>1021.0</ele><time>2026-04-18T08:51:59Z</time></trkpt><trkpt lat="45.07844940395135" lon="6.893120089639311"><ele>1024.5</ele><time>2026-04-18T08:52:00Z</time></trkpt><trkpt lat="45.07835710293176" lon="6.892973127537154"><ele>1028.0</ele><time>2026-04-18T08:52:01Z</time></trkpt><trkpt lat="45.078275229764635" lon="6.892837975456368"><ele>1023.0</ele><time>2026-04-18T08:52:02Z</time></trkpt><trkpt lat="45.07820544610066" lon="6.892693645888213"><ele>1018.0</ele><time>2026-04-18T08:52:03Z</time></trkpt><trkpt lat="45.07813431065554" lon="6.892541481501282"><ele>1013.0</ele><time>2026-04-18T08:52:04Z</time></trkpt><trkpt lat="45.078058940011196" lon="6.892395569905377"><ele>1008.0</ele><time>2026-04-18T08:52:05Z</time></trkpt><trkpt lat="45.077993612731106" lon="6.892239760151169"><ele>1008.0</ele><time>2026-04-18T08:52:06Z</time></trkpt><trkpt lat="45.07792426173288" lon="6.892089223166857"><ele>1008.0</ele><time>2026-04-18T08:52:07Z</time></trkpt><trkpt lat="45.077903940398144" lon="6.891918047360407"><ele>1008.0</ele><time>2026-04-18T08:52:08Z</time></trkpt><trkpt lat="45.0778238069682" lon="6.891788947324083"><ele>1008.0</ele><time>2026-04-18T08:52:09Z</time></trkpt><trkpt lat="45.077742916762524" lon="6.891664764494389"><ele>1010.5</ele><time>2026-04-18T08:52:10Z</time></trkpt><trkpt lat="45.07766081002257" lon="6.891529206800257"><ele>1013.0</ele><time>2026-04-18T08:52:11Z</time></trkpt><trkpt lat="45.07758649202622" lon="6.8914128554672285"><ele>1015.5</ele><time>2026-04-18T08:52:12Z</time></trkpt><trkpt lat="45.07751378713716" lon="6.891289891306052"><ele>1018.0</ele><time>2026-04-18T08:52:13Z</time></trkpt><trkpt lat="45.07743851217106" lon="6.891175361312742"><ele>1014.75</ele><time>2026-04-18T08:52:14Z</time></trkpt><trkpt lat="45.0773693662014" lon="6.891051714664399"><ele>1011.5</ele><time>2026-04-18T08:52:15Z</time></trkpt><trkpt lat="45.077281708608574" lon="6.890923614739025"><ele>1008.25</ele><time>2026-04-18T08:52:16Z</time></trkpt><trkpt lat="45.077203275894966" lon="6.8907898624748105"><ele>1005.0</ele><time>2026-04-18T08:52:17Z</time></trkpt><trkpt lat="45.07713795008489" lon="6.89064538656066"><ele>1005.0</ele><time>2026-04-18T08:52:18Z</time></trkpt><trkpt lat="45.077075675951725" lon="6.8904695862653496"><ele>1005.0</ele><time>2026-04-18T08:52:19Z</time></trkpt><trkpt lat="45.07703780658197" lon="6.890297628688007"><ele>1005.0</ele><time>2026-04-18T08:52:20Z</time></trkpt><trkpt lat="45.076969043133595" lon="6.890147828101629"><ele>1005.0</ele><time>2026-04-18T08:52:21Z</time></trkpt><trkpt lat="45.0769121588928" lon="6.8899915497743915"><ele>1005.5</ele><time>2026-04-18T08:52:22Z</time></trkpt><trkpt lat="45.076837136715916" lon="6.88984012195065"><ele>1006.0</ele><time>2026-04-18T08:52:23Z</time></trkpt><trkpt lat="45.07674341465433" lon="6.889705250347108"><ele>1006.5</ele><time>2026-04-18T08:52:24Z</time></trkpt><trkpt lat="45.07662840941913" lon="6.889580865840885"><ele>1007.0</ele><time>2026-04-18T08:52:25Z</time></trkpt><trkpt lat="45.076551970860066" lon="6.889439295937635"><ele>1007.0</ele><time>2026-04-18T08:52:26Z</time></trkpt><trkpt lat="45.076478575111864" lon="6.889303225107235"><ele>1007.0</ele><time>2026-04-18T08:52:27Z</time></trkpt><trkpt lat="45.076385152178524" lon="6.889165032731913"><ele>1007.0</ele><time>2026-04-18T08:52:28Z</time></trkpt><trkpt lat="45.07629955378614" lon="6.889043341817635"><ele>1007.0</ele><time>2026-04-18T08:52:29Z</time></trkpt><trkpt lat="45.076224444402236" lon="6.8888984909355"><ele>1007.75</ele><time>2026-04-18T08:52:30Z</time></trkpt><trkpt lat="45.076126927479926" lon="6.888777535597262"><ele>1008.5</ele><time>2026-04-18T08:52:31Z</time></trkpt><trkpt lat="45.07604187288989" lon="6.888666660368412"><ele>1009.25</ele><time>2026-04-18T08:52:32Z</time></trkpt><trkpt lat="45.07596256209405" lon="6.888546986556812"><ele>1010.0</ele><time>2026-04-18T08:52:33Z</time></trkpt><trkpt lat="45.07589145402719" lon="6.888424146856856"><ele>1008.5</ele><time>2026-04-18T08:52:34Z</time></trkpt><trkpt lat="45.075848668658956" lon="6.888267223444359"><ele>1007.0</ele><time>2026-04-18T08:52:35Z</time></trkpt><trkpt lat="45.07578844647169" lon="6.888121419399333"><ele>1005.5</ele><time>2026-04-18T08:52:36Z</time></trkpt><trkpt lat="45.075730154693176" lon="6.887967813461352"><ele>1004.0</ele><time>2026-04-18T08:52:37Z</time></trkpt><trkpt lat="45.07566734168603" lon="6.887829421123074"><ele>1004.0</ele><time>2026-04-18T08:52:38Z</time></trkpt><trkpt lat="45.07560512569089" lon="6.887698268924519"><ele>1004.0000000000001</ele><time>2026-04-18T08:52:39Z</time></trkpt><trkpt lat="45.075545769698344" lon="6.887585699493532"><ele>1004.0000000000001</ele><time>2026-04-18T08:52:40Z</time></trkpt><trkpt lat="45.07547922559547" lon="6.887493619998294"><ele>1004.0</ele><time>2026-04-18T08:52:41Z</time></trkpt><trkpt lat="45.07539856647407" lon="6.887408130497543"><ele>1004.0</ele><time>2026-04-18T08:52:42Z</time></trkpt><trkpt lat="45.075300895106885" lon="6.887327292981904"><ele>1004.6</ele><time>2026-04-18T08:52:43Z</time></trkpt><trkpt lat="45.07520966128229" lon="6.88723939478977"><ele>1005.2</ele><time>2026-04-18T08:52:44Z</time></trkpt><trkpt lat="45.075119085912775" lon="6.887159266775805"><ele>1005.8000000000001</ele><time>2026-04-18T08:52:45Z</time></trkpt><trkpt lat="45.07503522873475" lon="6.88705658066395"><ele>1006.4000000000001</ele><time>2026-04-18T08:52:46Z</time></trkpt><trkpt lat="45.074952831201074" lon="6.8869669645766"><ele>1007.0</ele><time>2026-04-18T08:52:47Z</time></trkpt><trkpt lat="45.0749034255924" lon="6.886837758430849"><ele>1007.2</ele><time>2026-04-18T08:52:48Z</time></trkpt><trkpt lat="45.07484317142126" lon="6.886700605251043"><ele>1007.4000000000001</ele><time>2026-04-18T08:52:49Z</time></trkpt><trkpt lat="45.07478439621807" lon="6.886568794922327"><ele>1007.5999999999999</ele><time>2026-04-18T08:52:50Z</time></trkpt><trkpt lat="45.07471594805447" lon="6.886449577144772"><ele>1007.8</ele><time>2026-04-18T08:52:51Z</time></trkpt><trkpt lat="45.074651521149256" lon="6.8863241355692155"><ele>1008.0</ele><time>2026-04-18T08:52:52Z</time></trkpt><trkpt lat="45.07458520038057" lon="6.886230175902613"><ele>1008.0</ele><time>2026-04-18T08:52:53Z</time></trkpt><trkpt lat="45.07454882276569" lon="6.886084541945214"><ele>1008.0</ele><time>2026-04-18T08:52:54Z</time></trkpt><trkpt lat="45.07448227864632" lon="6.885980300118952"><ele>1008.0</ele><time>2026-04-18T08:52:55Z</time></trkpt><trkpt lat="45.07442127078593" lon="6.885881096018551"><ele>1008.0</ele><time>2026-04-18T08:52:56Z</time></trkpt><trkpt lat="45.07435372429838" lon="6.8857776498987535"><ele>1008.0</ele><time>2026-04-18T08:52:57Z</time></trkpt><trkpt lat="45.07429140614227" lon="6.885693668779007"><ele>1009.0</ele><time>2026-04-18T08:52:58Z</time></trkpt><trkpt lat="45.074233051172996" lon="6.885618928310387"><ele>1010.0</ele><time>2026-04-18T08:52:59Z</time></trkpt><trkpt lat="45.07417586946002" lon="6.885539238248495"><ele>1011.0</ele><time>2026-04-18T08:53:00Z</time></trkpt><trkpt lat="45.0740945659485" lon="6.885523749539273"><ele>1012.0</ele><time>2026-04-18T08:53:01Z</time></trkpt><trkpt lat="45.07401673112797" lon="6.885498968054805"><ele>1013.0</ele><time>2026-04-18T08:53:02Z</time></trkpt><trkpt lat="45.073970372282204" lon="6.8854296909865"><ele>1014.0</ele><time>2026-04-18T08:53:03Z</time></trkpt><trkpt lat="45.0739170596782" lon="6.88538080722044"><ele>1014.0</ele><time>2026-04-18T08:53:04Z</time></trkpt><trkpt lat="45.07382229555526" lon="6.885342582456328"><ele>1014.0</ele><time>2026-04-18T08:53:06Z</time></trkpt><trkpt lat="45.07374900471542" lon="6.885297114442647"><ele>1014.0</ele><time>2026-04-18T08:53:08Z</time></trkpt><trkpt lat="45.07369248930989" lon="6.885232896159562"><ele>1014.0</ele><time>2026-04-18T08:53:10Z</time></trkpt><trkpt lat="45.073632363021346" lon="6.885189115551208"><ele>1014.0</ele><time>2026-04-18T08:53:13Z</time></trkpt><trkpt lat="45.073577283852664" lon="6.885141212944974"><ele>1014.0</ele><time>2026-04-18T08:53:19Z</time></trkpt><trkpt lat="45.07351133950318" lon="6.885121516290917"><ele>1015.1666666666666</ele><time>2026-04-18T08:53:23Z</time></trkpt><trkpt lat="45.07345148313819" lon="6.885088978894365"><ele>1016.3333333333333</ele><time>2026-04-18T08:53:39Z</time></trkpt><trkpt lat="45.073354957865206" lon="6.88507844716931"><ele>1017.5</ele><time>2026-04-18T08:53:41Z</time></trkpt><trkpt lat="45.07323641729875" lon="6.8850354235819955"><ele>1018.6666666666666</ele><time>2026-04-18T08:53:43Z</time></trkpt><trkpt lat="45.07316988956938" lon="6.884994928285927"><ele>1019.8333333333333</ele><time>2026-04-18T08:53:44Z</time></trkpt><trkpt lat="45.07310793879736" lon="6.884944470718857"><ele>1021.0</ele><time>2026-04-18T08:53:45Z</time></trkpt><trkpt lat="45.073033989331385" lon="6.884929922388511"><ele>1020.9999999999999</ele><time>2026-04-18T08:53:46Z</time></trkpt><trkpt lat="45.0729617631963" lon="6.884899922152802"><ele>1021.0</ele><time>2026-04-18T08:53:47Z</time></trkpt><trkpt lat="45.07288265902025" lon="6.884875921990021"><ele>1021.0</ele><time>2026-04-18T08:53:48Z</time></trkpt><trkpt lat="45.07276457559108" lon="6.884790213798751"><ele>1021.0</ele><time>2026-04-18T08:53:50Z</time></trkpt><trkpt lat="45.07269806557052" lon="6.884758157934844"><ele>1020.9999999999999</ele><time>2026-04-18T08:53:51Z</time></trkpt><trkpt lat="45.0726238952855" lon="6.884750593781225"><ele>1021.0</ele><time>2026-04-18T08:53:52Z</time></trkpt><trkpt lat="45.07255451346421" lon="6.884722178955486"><ele>1020.9999999999999</ele><time>2026-04-18T08:53:53Z</time></trkpt><trkpt lat="45.07248017017688" lon="6.884701526297493"><ele>1021.0</ele><time>2026-04-18T08:53:54Z</time></trkpt><trkpt lat="45.07239066767111" lon="6.884711292169265"><ele>1021.0</ele><time>2026-04-18T08:53:55Z</time></trkpt><trkpt lat="45.072315693586305" lon="6.88466067726683"><ele>1021.0</ele><time>2026-04-18T08:53:56Z</time></trkpt><trkpt lat="45.0722313242658" lon="6.884626664640814"><ele>1020.9999999999999</ele><time>2026-04-18T08:53:57Z</time></trkpt><trkpt lat="45.07217332211973" lon="6.884545306085712"><ele>1021.0</ele><time>2026-04-18T08:53:58Z</time></trkpt><trkpt lat="45.07206877688683" lon="6.884501986702315"><ele>1019.8</ele><time>2026-04-18T08:53:59Z</time></trkpt><trkpt lat="45.07196976571679" lon="6.884464010602466"><ele>1018.5999999999999</ele><time>2026-04-18T08:54:00Z</time></trkpt><trkpt lat="45.07186811174597" lon="6.884435310433681"><ele>1017.4</ele><time>2026-04-18T08:54:01Z</time></trkpt><trkpt lat="45.0717685135443" lon="6.88440296239956"><ele>1016.2</ele><time>2026-04-18T08:54:02Z</time></trkpt><trkpt lat="45.071660432040545" lon="6.884357060020501"><ele>1015.0</ele><time>2026-04-18T08:54:03Z</time></trkpt><trkpt lat="45.071549402359494" lon="6.884329053057339"><ele>1014.8</ele><time>2026-04-18T08:54:04Z</time></trkpt><trkpt lat="45.071447504297936" lon="6.8842925442583995"><ele>1014.6</ele><time>2026-04-18T08:54:05Z</time></trkpt><trkpt lat="45.07133803279442" lon="6.884240374894891"><ele>1014.4000000000001</ele><time>2026-04-18T08:54:06Z</time></trkpt><trkpt lat="45.07122901431317" lon="6.884204987829814"><ele>1014.2</ele><time>2026-04-18T08:54:07Z</time></trkpt><trkpt lat="45.0711263238128" lon="6.884156387772977"><ele>1014.0</ele><time>2026-04-18T08:54:08Z</time></trkpt><trkpt lat="45.07101937230353" lon="6.884087748649748"><ele>1014.25</ele><time>2026-04-18T08:54:09Z</time></trkpt><trkpt lat="45.070903902102614" lon="6.883988405799633"><ele>1014.5</ele><time>2026-04-18T08:54:10Z</time></trkpt><trkpt lat="45.070800034779715" lon="6.883893263485046"><ele>1014.75</ele><time>2026-04-18T08:54:11Z</time></trkpt><trkpt lat="45.070697327837486" lon="6.883774059419009"><ele>1015.0</ele><time>2026-04-18T08:54:12Z</time></trkpt><trkpt lat="45.07061462712282" lon="6.883630724019179"><ele>1015.0</ele><time>2026-04-18T08:54:13Z</time></trkpt><trkpt lat="45.07054028249212" lon="6.883463134872036"><ele>1015.0</ele><time>2026-04-18T08:54:14Z</time></trkpt><trkpt lat="45.07046264104956" lon="6.883293591860104"><ele>1015.0</ele><time>2026-04-18T08:54:15Z</time></trkpt><trkpt lat="45.07039266812522" lon="6.883136008666818"><ele>1015.0</ele><time>2026-04-18T08:54:16Z</time></trkpt><trkpt lat="45.07030902655425" lon="6.882980732750264"><ele>1017.25</ele><time>2026-04-18T08:54:17Z</time></trkpt><trkpt lat="45.070239288156834" lon="6.882814458263611"><ele>1019.5</ele><time>2026-04-18T08:54:18Z</time></trkpt><trkpt lat="45.07015789266206" lon="6.88265268186605"><ele>1021.75</ele><time>2026-04-18T08:54:19Z</time></trkpt><trkpt lat="45.07008171305299" lon="6.882495749975463"><ele>1024.0</ele><time>2026-04-18T08:54:20Z</time></trkpt><trkpt lat="45.070019331687824" lon="6.882343707042307"><ele>1023.25</ele><time>2026-04-18T08:54:21Z</time></trkpt><trkpt lat="45.06995755072089" lon="6.882206686726138"><ele>1022.5</ele><time>2026-04-18T08:54:22Z</time></trkpt><trkpt lat="45.06989333700289" lon="6.882058906360293"><ele>1021.75</ele><time>2026-04-18T08:54:23Z</time></trkpt><trkpt lat="45.069846409028465" lon="6.881927665600652"><ele>1021.0</ele><time>2026-04-18T08:54:24Z</time></trkpt><trkpt lat="45.06980148229062" lon="6.881782167132429"><ele>1022.4</ele><time>2026-04-18T08:54:25Z</time></trkpt><trkpt lat="45.06976282541482" lon="6.881641294831648"><ele>1023.8</ele><time>2026-04-18T08:54:26Z</time></trkpt><trkpt lat="45.069729567147185" lon="6.881516479787446"><ele>1025.1999999999998</ele><time>2026-04-18T08:54:27Z</time></trkpt><trkpt lat="45.06969402799677" lon="6.881382737639351"><ele>1026.6</ele><time>2026-04-18T08:54:28Z</time></trkpt><trkpt lat="45.06965937847335" lon="6.881247345372544"><ele>1028.0</ele><time>2026-04-18T08:54:29Z</time></trkpt><trkpt lat="45.06962814910381" lon="6.881121506255053"><ele>1028.0</ele><time>2026-04-18T08:54:30Z</time></trkpt><trkpt lat="45.069598661491895" lon="6.881000954522533"><ele>1028.0</ele><time>2026-04-18T08:54:31Z</time></trkpt><trkpt lat="45.069567037352726" lon="6.880875654105202"><ele>1028.0</ele><time>2026-04-18T08:54:32Z</time></trkpt><trkpt lat="45.069555004320684" lon="6.880763037465435"><ele>1028.0</ele><time>2026-04-18T08:54:33Z</time></trkpt><trkpt lat="45.069526846526124" lon="6.880631217737582"><ele>1028.0</ele><time>2026-04-18T08:54:34Z</time></trkpt><trkpt lat="45.069490729488926" lon="6.880490508511314"><ele>1029.75</ele><time>2026-04-18T08:54:35Z</time></trkpt><trkpt lat="45.069458611723924" lon="6.880338143941456"><ele>1031.5</ele><time>2026-04-18T08:54:36Z</time></trkpt><trkpt lat="45.069402107403675" lon="6.8801679841914165"><ele>1033.25</ele><time>2026-04-18T08:54:37Z</time></trkpt><trkpt lat="45.069366628652894" lon="6.880001231421098"><ele>1035.0</ele><time>2026-04-18T08:54:38Z</time></trkpt><trkpt lat="45.06931878078629" lon="6.879839134230894"><ele>1035.5</ele><time>2026-04-18T08:54:39Z</time></trkpt><trkpt lat="45.069271367627074" lon="6.879677265890252"><ele>1036.0</ele><time>2026-04-18T08:54:40Z</time></trkpt><trkpt lat="45.06923410118194" lon="6.879516538765271"><ele>1036.5</ele><time>2026-04-18T08:54:41Z</time></trkpt><trkpt lat="45.06919277561427" lon="6.879352195253767"><ele>1037.0</ele><time>2026-04-18T08:54:42Z</time></trkpt><trkpt lat="45.06914689503164" lon="6.879172595179442"><ele>1035.5</ele><time>2026-04-18T08:54:43Z</time></trkpt><trkpt lat="45.069104310866784" lon="6.879005536738315"><ele>1034.0</ele><time>2026-04-18T08:54:44Z</time></trkpt><trkpt lat="45.06904726108726" lon="6.878847851223073"><ele>1032.5</ele><time>2026-04-18T08:54:45Z</time></trkpt><trkpt lat="45.06898377576665" lon="6.878688127023681"><ele>1031.0</ele><time>2026-04-18T08:54:46Z</time></trkpt><trkpt lat="45.06892400444947" lon="6.878536235481645"><ele>1031.25</ele><time>2026-04-18T08:54:47Z</time></trkpt><trkpt lat="45.06882697214068" lon="6.878422985063886"><ele>1031.5</ele><time>2026-04-18T08:54:48Z</time></trkpt><trkpt lat="45.06873295794419" lon="6.878265952283086"><ele>1031.75</ele><time>2026-04-18T08:54:49Z</time></trkpt><trkpt lat="45.06862186591467" lon="6.878092358283473"><ele>1032.0</ele><time>2026-04-18T08:54:50Z</time></trkpt><trkpt lat="45.068499007239446" lon="6.8779187830245005"><ele>1032.0</ele><time>2026-04-18T08:54:51Z</time></trkpt><trkpt lat="45.0683397929845" lon="6.87776668346461"><ele>1032.0</ele><time>2026-04-18T08:54:52Z</time></trkpt><trkpt lat="45.06818548923023" lon="6.877630943280411"><ele>1032.0</ele><time>2026-04-18T08:54:53Z</time></trkpt><trkpt lat="45.068023239218626" lon="6.877464495966443"><ele>1029.0</ele><time>2026-04-18T08:54:54Z</time></trkpt><trkpt lat="45.06784981364928" lon="6.877246681046269"><ele>1026.0</ele><time>2026-04-18T08:54:55Z</time></trkpt><trkpt lat="45.06766709845199" lon="6.877036164533327"><ele>1026.0</ele><time>2026-04-18T08:54:56Z</time></trkpt><trkpt lat="45.06750843486674" lon="6.876853359025538"><ele>1026.0</ele><time>2026-04-18T08:54:57Z</time></trkpt><trkpt lat="45.067353229207384" lon="6.876671965158177"><ele>1026.0</ele><time>2026-04-18T08:54:58Z</time></trkpt><trkpt lat="45.06720143515714" lon="6.876510698518293"><ele>1026.6666666666667</ele><time>2026-04-18T08:54:59Z</time></trkpt><trkpt lat="45.06707751738754" lon="6.876332759029099"><ele>1027.3333333333335</ele><time>2026-04-18T08:55:00Z</time></trkpt><trkpt lat="45.06694904337386" lon="6.876169773211023"><ele>1028.0</ele><time>2026-04-18T08:55:01Z</time></trkpt><trkpt lat="45.0668302477505" lon="6.876049055904964"><ele>1028.0</ele><time>2026-04-18T08:55:02Z</time></trkpt><trkpt lat="45.0667349272709" lon="6.875898139285596"><ele>1028.0</ele><time>2026-04-18T08:55:03Z</time></trkpt><trkpt lat="45.06660591417358" lon="6.875764307500529"><ele>1028.0</ele><time>2026-04-18T08:55:04Z</time></trkpt><trkpt lat="45.06650245941103" lon="6.875618849852347"><ele>1028.0</ele><time>2026-04-18T08:55:05Z</time></trkpt><trkpt lat="45.06639070992452" lon="6.875485992446284"><ele>1028.0</ele><time>2026-04-18T08:55:06Z</time></trkpt><trkpt lat="45.06627887005014" lon="6.875320285334948"><ele>1028.0</ele><time>2026-04-18T08:55:07Z</time></trkpt><trkpt lat="45.06615364742771" lon="6.875163151021439"><ele>1028.0</ele><time>2026-04-18T08:55:08Z</time></trkpt><trkpt lat="45.06603362075776" lon="6.875012537016896"><ele>1027.6666666666667</ele><time>2026-04-18T08:55:09Z</time></trkpt><trkpt lat="45.065914740887926" lon="6.87486336198211"><ele>1027.3333333333333</ele><time>2026-04-18T08:55:10Z</time></trkpt><trkpt lat="45.06579670370104" lon="6.87471524434488"><ele>1027.0</ele><time>2026-04-18T08:55:11Z</time></trkpt><trkpt lat="45.065668158651555" lon="6.874583291601066"><ele>1026.6666666666665</ele><time>2026-04-18T08:55:12Z</time></trkpt><trkpt lat="45.06555419438554" lon="6.8744430549251225"><ele>1026.3333333333333</ele><time>2026-04-18T08:55:13Z</time></trkpt><trkpt lat="45.06544818522994" lon="6.874282193351166"><ele>1026.0</ele><time>2026-04-18T08:55:14Z</time></trkpt><trkpt lat="45.065327629988396" lon="6.874122393584647"><ele>1026.0</ele><time>2026-04-18T08:55:15Z</time></trkpt><trkpt lat="45.0652055487377" lon="6.873944413932028"><ele>1026.0</ele><time>2026-04-18T08:55:16Z</time></trkpt><trkpt lat="45.06509056791726" lon="6.873755019646821"><ele>1026.0</ele><time>2026-04-18T08:55:17Z</time></trkpt><trkpt lat="45.0649868747801" lon="6.873579664429086"><ele>1026.0</ele><time>2026-04-18T08:55:18Z</time></trkpt><trkpt lat="45.06488783165282" lon="6.873408355752628"><ele>1026.0</ele><time>2026-04-18T08:55:19Z</time></trkpt><trkpt lat="45.06478818835617" lon="6.873233469339817"><ele>1026.0</ele><time>2026-04-18T08:55:20Z</time></trkpt><trkpt lat="45.06469821443522" lon="6.8730755529789676"><ele>1026.0</ele><time>2026-04-18T08:55:21Z</time></trkpt><trkpt lat="45.06459987325433" lon="6.872902950474966"><ele>1026.0</ele><time>2026-04-18T08:55:22Z</time></trkpt><trkpt lat="45.06450589624221" lon="6.872738007848454"><ele>1026.0</ele><time>2026-04-18T08:55:23Z</time></trkpt><trkpt lat="45.064420281714135" lon="6.872584856773111"><ele>1026.0</ele><time>2026-04-18T08:55:24Z</time></trkpt><trkpt lat="45.064334454056166" lon="6.87242209630446"><ele>1026.0</ele><time>2026-04-18T08:55:25Z</time></trkpt><trkpt lat="45.064260151914716" lon="6.872266290817307"><ele>1026.0</ele><time>2026-04-18T08:55:26Z</time></trkpt><trkpt lat="45.064176283676865" lon="6.872076879644322"><ele>1026.0</ele><time>2026-04-18T08:55:27Z</time></trkpt><trkpt lat="45.06409912083438" lon="6.871883014323255"><ele>1026.0</ele><time>2026-04-18T08:55:28Z</time></trkpt><trkpt lat="45.06401445750749" lon="6.871705097478792"><ele>1025.75</ele><time>2026-04-18T08:55:29Z</time></trkpt><trkpt lat="45.063952577040496" lon="6.871512290779995"><ele>1025.5</ele><time>2026-04-18T08:55:30Z</time></trkpt><trkpt lat="45.06388702087191" lon="6.871322781908342"><ele>1025.25</ele><time>2026-04-18T08:55:31Z</time></trkpt><trkpt lat="45.06382429685334" lon="6.871143746932739"><ele>1025.0</ele><time>2026-04-18T08:55:32Z</time></trkpt><trkpt lat="45.06377077612626" lon="6.870968453860128"><ele>1025.0</ele><time>2026-04-18T08:55:33Z</time></trkpt><trkpt lat="45.06370374419584" lon="6.870776387643735"><ele>1025.0</ele><time>2026-04-18T08:55:34Z</time></trkpt><trkpt lat="45.063674554507095" lon="6.870578719228648"><ele>1025.0</ele><time>2026-04-18T08:55:35Z</time></trkpt><trkpt lat="45.06359780844441" lon="6.870398439779217"><ele>1025.0</ele><time>2026-04-18T08:55:36Z</time></trkpt><trkpt lat="45.063518919131205" lon="6.870230847043685"><ele>1025.0</ele><time>2026-04-18T08:55:37Z</time></trkpt><trkpt lat="45.06342970354803" lon="6.870062426006955"><ele>1025.0</ele><time>2026-04-18T08:55:38Z</time></trkpt><trkpt lat="45.06330486426178" lon="6.869916965240315"><ele>1025.0</ele><time>2026-04-18T08:55:39Z</time></trkpt><trkpt lat="45.063181241560414" lon="6.869746892811149"><ele>1025.0</ele><time>2026-04-18T08:55:40Z</time></trkpt><trkpt lat="45.06307166920068" lon="6.869605498555271"><ele>1025.0</ele><time>2026-04-18T08:55:41Z</time></trkpt><trkpt lat="45.06295474047432" lon="6.8694669576328895"><ele>1025.0</ele><time>2026-04-18T08:55:42Z</time></trkpt><trkpt lat="45.06278223813731" lon="6.869386880062288"><ele>1025.0</ele><time>2026-04-18T08:55:43Z</time></trkpt><trkpt lat="45.06265813844333" lon="6.869262041241064"><ele>1025.0</ele><time>2026-04-18T08:55:44Z</time></trkpt><trkpt lat="45.06254129909662" lon="6.86913209236263"><ele>1025.0</ele><time>2026-04-18T08:55:45Z</time></trkpt><trkpt lat="45.06242914027565" lon="6.868997110957962"><ele>1025.0</ele><time>2026-04-18T08:55:46Z</time></trkpt><trkpt lat="45.06230333989303" lon="6.868898093246518"><ele>1025.0</ele><time>2026-04-18T08:55:47Z</time></trkpt><trkpt lat="45.062217752705415" lon="6.8687203315334635"><ele>1025.0</ele><time>2026-04-18T08:55:48Z</time></trkpt><trkpt lat="45.06209351090658" lon="6.868588130966043"><ele>1025.0</ele><time>2026-04-18T08:55:49Z</time></trkpt><trkpt lat="45.06197037153439" lon="6.868467142949018"><ele>1024.6666666666667</ele><time>2026-04-18T08:55:50Z</time></trkpt><trkpt lat="45.06184046889364" lon="6.868332683699232"><ele>1024.3333333333333</ele><time>2026-04-18T08:55:51Z</time></trkpt><trkpt lat="45.061711996437914" lon="6.868208760623711"><ele>1024.0</ele><time>2026-04-18T08:55:52Z</time></trkpt><trkpt lat="45.06158301925323" lon="6.868088171230796"><ele>1024.6666666666665</ele><time>2026-04-18T08:55:53Z</time></trkpt><trkpt lat="45.061429449978455" lon="6.867989968000905"><ele>1025.3333333333333</ele><time>2026-04-18T08:55:54Z</time></trkpt><trkpt lat="45.061269319471" lon="6.867867950905192"><ele>1026.0</ele><time>2026-04-18T08:55:55Z</time></trkpt><trkpt lat="45.0611257774866" lon="6.867738264646717"><ele>1026.0</ele><time>2026-04-18T08:55:56Z</time></trkpt><trkpt lat="45.060963647292" lon="6.8676130948957885"><ele>1026.0</ele><time>2026-04-18T08:55:57Z</time></trkpt><trkpt lat="45.0608246523951" lon="6.8674780467113985"><ele>1026.0</ele><time>2026-04-18T08:55:58Z</time></trkpt><trkpt lat="45.060696040907146" lon="6.867362784197967"><ele>1026.3333333333333</ele><time>2026-04-18T08:55:59Z</time></trkpt><trkpt lat="45.06055192698858" lon="6.867245060628249"><ele>1026.6666666666665</ele><time>2026-04-18T08:56:00Z</time></trkpt><trkpt lat="45.06041188848674" lon="6.867153172425632"><ele>1027.0</ele><time>2026-04-18T08:56:01Z</time></trkpt><trkpt lat="45.06029680831566" lon="6.8670277713783"><ele>1027.0</ele><time>2026-04-18T08:56:02Z</time></trkpt><trkpt lat="45.06016354871352" lon="6.8669035290988125"><ele>1027.0</ele><time>2026-04-18T08:56:03Z</time></trkpt><trkpt lat="45.06004817498714" lon="6.866772694105375"><ele>1027.0</ele><time>2026-04-18T08:56:04Z</time></trkpt><trkpt lat="45.059915958749954" lon="6.866626829335222"><ele>1027.0</ele><time>2026-04-18T08:56:05Z</time></trkpt><trkpt lat="45.0597735425051" lon="6.866480781972545"><ele>1027.0</ele><time>2026-04-18T08:56:06Z</time></trkpt><trkpt lat="45.0596289070272" lon="6.866322403306208"><ele>1027.0</ele><time>2026-04-18T08:56:07Z</time></trkpt><trkpt lat="45.059503807672115" lon="6.866169582891682"><ele>1027.0</ele><time>2026-04-18T08:56:08Z</time></trkpt><trkpt lat="45.05937276088562" lon="6.865999251761472"><ele>1027.0</ele><time>2026-04-18T08:56:09Z</time></trkpt><trkpt lat="45.05923709139417" lon="6.865835215291647"><ele>1027.0</ele><time>2026-04-18T08:56:10Z</time></trkpt><trkpt lat="45.05910474514042" lon="6.8656739003745075"><ele>1028.3333333333333</ele><time>2026-04-18T08:56:11Z</time></trkpt><trkpt lat="45.05897850201023" lon="6.8655151702827935"><ele>1029.6666666666667</ele><time>2026-04-18T08:56:12Z</time></trkpt><trkpt lat="45.05885985494943" lon="6.86535851847662"><ele>1031.0</ele><time>2026-04-18T08:56:13Z</time></trkpt><trkpt lat="45.058742567808544" lon="6.865189168235283"><ele>1031.0</ele><time>2026-04-18T08:56:14Z</time></trkpt><trkpt lat="45.058628844740994" lon="6.865015429959212"><ele>1031.0</ele><time>2026-04-18T08:56:15Z</time></trkpt><trkpt lat="45.05851200812123" lon="6.8648351193098485"><ele>1031.0</ele><time>2026-04-18T08:56:16Z</time></trkpt><trkpt lat="45.05839189179899" lon="6.864647492968759"><ele>1031.0</ele><time>2026-04-18T08:56:17Z</time></trkpt><trkpt lat="45.05828419480807" lon="6.864478149229841"><ele>1031.0</ele><time>2026-04-18T08:56:18Z</time></trkpt><trkpt lat="45.05818243285805" lon="6.864313856483376"><ele>1031.0</ele><time>2026-04-18T08:56:19Z</time></trkpt><trkpt lat="45.058074755289006" lon="6.8641632505461745"><ele>1031.3333333333335</ele><time>2026-04-18T08:56:20Z</time></trkpt><trkpt lat="45.05799063983784" lon="6.863971816774411"><ele>1031.6666666666667</ele><time>2026-04-18T08:56:21Z</time></trkpt><trkpt lat="45.05791727420047" lon="6.863769268178512"><ele>1032.0</ele><time>2026-04-18T08:56:22Z</time></trkpt><trkpt lat="45.05783165145322" lon="6.863576752763085"><ele>1031.0</ele><time>2026-04-18T08:56:23Z</time></trkpt><trkpt lat="45.057738727133554" lon="6.863405515471756"><ele>1030.0</ele><time>2026-04-18T08:56:24Z</time></trkpt><trkpt lat="45.05763708753618" lon="6.863240427864663"><ele>1029.0</ele><time>2026-04-18T08:56:25Z</time></trkpt><trkpt lat="45.057536996836255" lon="6.863062904845145"><ele>1029.5</ele><time>2026-04-18T08:56:26Z</time></trkpt><trkpt lat="45.05742412681662" lon="6.8629277064526475"><ele>1030.0</ele><time>2026-04-18T08:56:27Z</time></trkpt><trkpt lat="45.05734917409929" lon="6.8627539598280025"><ele>1030.5</ele><time>2026-04-18T08:56:28Z</time></trkpt><trkpt lat="45.05725502582788" lon="6.862589880973948"><ele>1031.0</ele><time>2026-04-18T08:56:29Z</time></trkpt><trkpt lat="45.057151010231955" lon="6.862421412622912"><ele>1031.0</ele><time>2026-04-18T08:56:30Z</time></trkpt><trkpt lat="45.05703919933485" lon="6.86226180357904"><ele>1031.0</ele><time>2026-04-18T08:56:31Z</time></trkpt><trkpt lat="45.05692022657388" lon="6.862101743642124"><ele>1031.0</ele><time>2026-04-18T08:56:32Z</time></trkpt><trkpt lat="45.0568045635331" lon="6.86193609226009"><ele>1030.6666666666667</ele><time>2026-04-18T08:56:33Z</time></trkpt><trkpt lat="45.05668422243635" lon="6.861760184622346"><ele>1030.3333333333333</ele><time>2026-04-18T08:56:34Z</time></trkpt><trkpt lat="45.056554935944554" lon="6.861584767581812"><ele>1030.0</ele><time>2026-04-18T08:56:35Z</time></trkpt><trkpt lat="45.05642206473731" lon="6.861402008865324"><ele>1030.6666666666665</ele><time>2026-04-18T08:56:36Z</time></trkpt><trkpt lat="45.056305386356485" lon="6.861211545075243"><ele>1031.3333333333333</ele><time>2026-04-18T08:56:37Z</time></trkpt><trkpt lat="45.05617893746423" lon="6.861043366322996"><ele>1032.0</ele><time>2026-04-18T08:56:38Z</time></trkpt><trkpt lat="45.05604220552328" lon="6.8608824900194785"><ele>1033.0</ele><time>2026-04-18T08:56:39Z</time></trkpt><trkpt lat="45.0559194294032" lon="6.8606995003517355"><ele>1034.0</ele><time>2026-04-18T08:56:40Z</time></trkpt><trkpt lat="45.055814909660356" lon="6.8605109269776525"><ele>1035.0</ele><time>2026-04-18T08:56:41Z</time></trkpt><trkpt lat="45.05571932587676" lon="6.860308869897591"><ele>1035.0</ele><time>2026-04-18T08:56:42Z</time></trkpt><trkpt lat="45.055628195676434" lon="6.860127248204282"><ele>1035.0</ele><time>2026-04-18T08:56:43Z</time></trkpt><trkpt lat="45.05552345319179" lon="6.859938842821407"><ele>1035.0</ele><time>2026-04-18T08:56:44Z</time></trkpt><trkpt lat="45.0554397643687" lon="6.859736399322684"><ele>1035.3333333333333</ele><time>2026-04-18T08:56:45Z</time></trkpt><trkpt lat="45.05534578021382" lon="6.859539889789338"><ele>1035.6666666666665</ele><time>2026-04-18T08:56:46Z</time></trkpt><trkpt lat="45.055260400859495" lon="6.859361371889061"><ele>1036.0</ele><time>2026-04-18T08:56:47Z</time></trkpt><trkpt lat="45.05517665085593" lon="6.859184151561143"><ele>1035.75</ele><time>2026-04-18T08:56:48Z</time></trkpt><trkpt lat="45.05509965571767" lon="6.859020100394308"><ele>1035.5</ele><time>2026-04-18T08:56:49Z</time></trkpt><trkpt lat="45.05502160528445" lon="6.858853799433348"><ele>1035.25</ele><time>2026-04-18T08:56:50Z</time></trkpt><trkpt lat="45.054942846929485" lon="6.858685990064359"><ele>1035.0</ele><time>2026-04-18T08:56:51Z</time></trkpt><trkpt lat="45.054879380269284" lon="6.85850719688885"><ele>1036.3333333333333</ele><time>2026-04-18T08:56:52Z</time></trkpt><trkpt lat="45.05480007929368" lon="6.85831306437889"><ele>1037.6666666666665</ele><time>2026-04-18T08:56:53Z</time></trkpt><trkpt lat="45.0547087005582" lon="6.858105032751562"><ele>1039.0</ele><time>2026-04-18T08:56:54Z</time></trkpt><trkpt lat="45.054598945686166" lon="6.857922333791975"><ele>1039.0</ele><time>2026-04-18T08:56:55Z</time></trkpt><trkpt lat="45.054503984543445" lon="6.857732104535191"><ele>1039.0</ele><time>2026-04-18T08:56:56Z</time></trkpt><trkpt lat="45.0544259873025" lon="6.857508926025546"><ele>1039.0</ele><time>2026-04-18T08:56:57Z</time></trkpt><trkpt lat="45.05434019444087" lon="6.857303922187396"><ele>1039.6666666666665</ele><time>2026-04-18T08:56:58Z</time></trkpt><trkpt lat="45.054251380637794" lon="6.857109645910673"><ele>1040.3333333333333</ele><time>2026-04-18T08:56:59Z</time></trkpt><trkpt lat="45.05416591204586" lon="6.8569336602412045"><ele>1041.0</ele><time>2026-04-18T08:57:00Z</time></trkpt><trkpt lat="45.05408895938688" lon="6.8567612199763"><ele>1041.0</ele><time>2026-04-18T08:57:01Z</time></trkpt><trkpt lat="45.054005156505376" lon="6.856589630932309"><ele>1041.0</ele><time>2026-04-18T08:57:02Z</time></trkpt><trkpt lat="45.0539100266845" lon="6.856431639120764"><ele>1041.0</ele><time>2026-04-18T08:57:03Z</time></trkpt><trkpt lat="45.05382879004016" lon="6.856275006628499"><ele>1041.0</ele><time>2026-04-18T08:57:04Z</time></trkpt><trkpt lat="45.05375209274298" lon="6.856126233664096"><ele>1041.0</ele><time>2026-04-18T08:57:05Z</time></trkpt><trkpt lat="45.05365537467053" lon="6.856001051341053"><ele>1041.0</ele><time>2026-04-18T08:57:06Z</time></trkpt><trkpt lat="45.053560880339504" lon="6.85584782480848"><ele>1041.0</ele><time>2026-04-18T08:57:07Z</time></trkpt><trkpt lat="45.0534744820077" lon="6.855692989201855"><ele>1041.0</ele><time>2026-04-18T08:57:08Z</time></trkpt><trkpt lat="45.05338615644951" lon="6.85553864473139"><ele>1040.3333333333333</ele><time>2026-04-18T08:57:09Z</time></trkpt><trkpt lat="45.053273713179415" lon="6.855398170073453"><ele>1039.6666666666665</ele><time>2026-04-18T08:57:10Z</time></trkpt><trkpt lat="45.05316800600561" lon="6.855254762148863"><ele>1039.0</ele><time>2026-04-18T08:57:11Z</time></trkpt><trkpt lat="45.053044592841715" lon="6.855090851748845"><ele>1041.0</ele><time>2026-04-18T08:57:12Z</time></trkpt><trkpt lat="45.05293008802189" lon="6.854922640972273"><ele>1043.0</ele><time>2026-04-18T08:57:13Z</time></trkpt><trkpt lat="45.052778821857544" lon="6.85475518816528"><ele>1045.0</ele><time>2026-04-18T08:57:14Z</time></trkpt><trkpt lat="45.05260615018872" lon="6.85458638166114"><ele>1044.3333333333333</ele><time>2026-04-18T08:57:15Z</time></trkpt><trkpt lat="45.05242624107456" lon="6.854376169956459"><ele>1043.6666666666667</ele><time>2026-04-18T08:57:16Z</time></trkpt><trkpt lat="45.05226415008152" lon="6.854194698429031"><ele>1043.0</ele><time>2026-04-18T08:57:17Z</time></trkpt><trkpt lat="45.05210278254708" lon="6.854014036794679"><ele>1046.6666666666667</ele><time>2026-04-18T08:57:18.011Z</time></trkpt><trkpt lat="45.05194355656544" lon="6.853835772917645"><ele>1050.3333333333333</ele><time>2026-04-18T08:57:19.012Z</time></trkpt><trkpt lat="45.051772340502616" lon="6.853644085140356"><ele>1054.0</ele><time>2026-04-18T08:57:20.017Z</time></trkpt><trkpt lat="45.05160345099443" lon="6.853455002157584"><ele>1047.0</ele><time>2026-04-18T08:57:21.016Z</time></trkpt><trkpt lat="45.05065422974997" lon="6.85230039060754"><ele>1047.0</ele><time>2026-04-18T08:57:28Z</time></trkpt><trkpt lat="45.0505398563042" lon="6.852137049784305"><ele>1047.0</ele><time>2026-04-18T08:57:29Z</time></trkpt><trkpt lat="45.050418863448094" lon="6.851921299824807"><ele>1047.0</ele><time>2026-04-18T08:57:30Z</time></trkpt><trkpt lat="45.05055804764405" lon="6.851569862975409"><ele>1047.0</ele><time>2026-04-18T08:57:31Z</time></trkpt><trkpt lat="45.05057632111822" lon="6.851380009123018"><ele>1047.0</ele><time>2026-04-18T08:57:32Z</time></trkpt><trkpt lat="45.05067794305935" lon="6.851175708367918"><ele>1047.0</ele><time>2026-04-18T08:57:33Z</time></trkpt><trkpt lat="45.05066861066519" lon="6.850886121754375"><ele>1047.5</ele><time>2026-04-18T08:57:34Z</time></trkpt><trkpt lat="45.05070663562795" lon="6.850682970288927"><ele>1048.0</ele><time>2026-04-18T08:57:35Z</time></trkpt><trkpt lat="45.05071673099493" lon="6.850496848230487"><ele>1048.5</ele><time>2026-04-18T08:57:36Z</time></trkpt><trkpt lat="45.05072968110341" lon="6.850317626802475"><ele>1049.0</ele><time>2026-04-18T08:57:37Z</time></trkpt><trkpt lat="45.050697169224414" lon="6.850151690114278"><ele>1048.6666666666667</ele><time>2026-04-18T08:57:38Z</time></trkpt><trkpt lat="45.05065362650522" lon="6.849951494832309"><ele>1048.3333333333333</ele><time>2026-04-18T08:57:39Z</time></trkpt><trkpt lat="45.05057774853495" lon="6.849764310808729"><ele>1048.0</ele><time>2026-04-18T08:57:40Z</time></trkpt><trkpt lat="45.0504805275503" lon="6.8495747188775225"><ele>1048.0</ele><time>2026-04-18T08:57:41Z</time></trkpt><trkpt lat="45.05032892429301" lon="6.849414336898308"><ele>1048.0</ele><time>2026-04-18T08:57:42Z</time></trkpt><trkpt lat="45.050218098752474" lon="6.849241020109642"><ele>1048.0</ele><time>2026-04-18T08:57:43Z</time></trkpt><trkpt lat="45.050168643848956" lon="6.849045526276112"><ele>1046.6666666666665</ele><time>2026-04-18T08:57:44Z</time></trkpt><trkpt lat="45.050072882295154" lon="6.848845808583989"><ele>1045.3333333333333</ele><time>2026-04-18T08:57:45Z</time></trkpt><trkpt lat="45.04996766218263" lon="6.848698564136188"><ele>1044.0</ele><time>2026-04-18T08:57:46Z</time></trkpt><trkpt lat="45.04986015256454" lon="6.8485412339623855"><ele>1046.0</ele><time>2026-04-18T08:57:47Z</time></trkpt><trkpt lat="45.04973424627809" lon="6.848376406144988"><ele>1048.0</ele><time>2026-04-18T08:57:48Z</time></trkpt><trkpt lat="45.0496054981827" lon="6.848204750494098"><ele>1050.0</ele><time>2026-04-18T08:57:49Z</time></trkpt><trkpt lat="45.049446940420154" lon="6.848084949764836"><ele>1050.0</ele><time>2026-04-18T08:57:50Z</time></trkpt><trkpt lat="45.04930159017768" lon="6.847972815003292"><ele>1050.0</ele><time>2026-04-18T08:57:51Z</time></trkpt><trkpt lat="45.049227127289114" lon="6.847805790962421"><ele>1050.0</ele><time>2026-04-18T08:57:52Z</time></trkpt><trkpt lat="45.04916541545876" lon="6.847608014139697"><ele>1048.0</ele><time>2026-04-18T08:57:53Z</time></trkpt><trkpt lat="45.04908237105801" lon="6.847395270127624"><ele>1046.0</ele><time>2026-04-18T08:57:54Z</time></trkpt><trkpt lat="45.048994740436406" lon="6.847195868013196"><ele>1044.0</ele><time>2026-04-18T08:57:55Z</time></trkpt><trkpt lat="45.048907938894374" lon="6.847000119823898"><ele>1044.0</ele><time>2026-04-18T08:57:56Z</time></trkpt><trkpt lat="45.0488257659768" lon="6.846814810058436"><ele>1044.0</ele><time>2026-04-18T08:57:57Z</time></trkpt><trkpt lat="45.04875073435831" lon="6.846645604696357"><ele>1044.0</ele><time>2026-04-18T08:57:58Z</time></trkpt><trkpt lat="45.04868610925841" lon="6.846499868671623"><ele>1044.0</ele><time>2026-04-18T08:57:59Z</time></trkpt><trkpt lat="45.04861558741314" lon="6.8463383872629375"><ele>1045.25</ele><time>2026-04-18T08:58:00Z</time></trkpt><trkpt lat="45.04854586587526" lon="6.846179169399549"><ele>1046.5</ele><time>2026-04-18T08:58:01Z</time></trkpt><trkpt lat="45.0484664764852" lon="6.8459978733675255"><ele>1047.75</ele><time>2026-04-18T08:58:02Z</time></trkpt><trkpt lat="45.0483904402335" lon="6.845824234995548"><ele>1049.0</ele><time>2026-04-18T08:58:03Z</time></trkpt><trkpt lat="45.04831095999335" lon="6.845669665211073"><ele>1049.0</ele><time>2026-04-18T08:58:04Z</time></trkpt><trkpt lat="45.04823754538979" lon="6.84549288043495"><ele>1049.0</ele><time>2026-04-18T08:58:05Z</time></trkpt><trkpt lat="45.04816793400068" lon="6.84531301189923"><ele>1049.0</ele><time>2026-04-18T08:58:06Z</time></trkpt><trkpt lat="45.04810755366268" lon="6.845172997770499"><ele>1049.0</ele><time>2026-04-18T08:58:07Z</time></trkpt><trkpt lat="45.04804431262418" lon="6.845030442083903"><ele>1050.0</ele><time>2026-04-18T08:58:08Z</time></trkpt><trkpt lat="45.0479869234287" lon="6.8448861998229305"><ele>1051.0</ele><time>2026-04-18T08:58:09Z</time></trkpt><trkpt lat="45.04794763702829" lon="6.844740268540808"><ele>1052.0</ele><time>2026-04-18T08:58:10Z</time></trkpt><trkpt lat="45.04792064951352" lon="6.844582420316885"><ele>1053.0</ele><time>2026-04-18T08:58:11Z</time></trkpt><trkpt lat="45.04790427814656" lon="6.844393967183372"><ele>1053.5</ele><time>2026-04-18T08:58:12Z</time></trkpt><trkpt lat="45.047889316109675" lon="6.844215632630198"><ele>1054.0</ele><time>2026-04-18T08:58:13Z</time></trkpt><trkpt lat="45.047877029569136" lon="6.844043424370781"><ele>1054.5</ele><time>2026-04-18T08:58:14Z</time></trkpt><trkpt lat="45.047863575135636" lon="6.8438558649139285"><ele>1055.0</ele><time>2026-04-18T08:58:15Z</time></trkpt><trkpt lat="45.047848955858605" lon="6.843676938773184"><ele>1055.0</ele><time>2026-04-18T08:58:16Z</time></trkpt><trkpt lat="45.04781984974342" lon="6.843512846871806"><ele>1055.0</ele><time>2026-04-18T08:58:17Z</time></trkpt><trkpt lat="45.0478389433474" lon="6.843374110429481"><ele>1055.0</ele><time>2026-04-18T08:58:18Z</time></trkpt><trkpt lat="45.04783197086654" lon="6.843198803779516"><ele>1055.0</ele><time>2026-04-18T08:58:19Z</time></trkpt><trkpt lat="45.0478188679555" lon="6.843025353930102"><ele>1055.25</ele><time>2026-04-18T08:58:20Z</time></trkpt><trkpt lat="45.04780732224838" lon="6.84286601146972"><ele>1055.5</ele><time>2026-04-18T08:58:21Z</time></trkpt><trkpt lat="45.04779669382069" lon="6.84270544712969"><ele>1055.75</ele><time>2026-04-18T08:58:22Z</time></trkpt><trkpt lat="45.0478052537356" lon="6.842544209218311"><ele>1056.0</ele><time>2026-04-18T08:58:23Z</time></trkpt><trkpt lat="45.04780430136678" lon="6.842377908010672"><ele>1056.0</ele><time>2026-04-18T08:58:24Z</time></trkpt><trkpt lat="45.047822937185" lon="6.842202959448533"><ele>1056.0</ele><time>2026-04-18T08:58:25Z</time></trkpt><trkpt lat="45.04783313336469" lon="6.8420251835095085"><ele>1056.0</ele><time>2026-04-18T08:58:26Z</time></trkpt><trkpt lat="45.04788193150579" lon="6.8418677461722535"><ele>1056.0</ele><time>2026-04-18T08:58:27Z</time></trkpt><trkpt lat="45.04788401135307" lon="6.8416880836695775"><ele>1055.25</ele><time>2026-04-18T08:58:28Z</time></trkpt><trkpt lat="45.04787208101358" lon="6.841491730826425"><ele>1054.5</ele><time>2026-04-18T08:58:29Z</time></trkpt><trkpt lat="45.04786327836134" lon="6.8412870833805135"><ele>1053.75</ele><time>2026-04-18T08:58:30Z</time></trkpt><trkpt lat="45.04783121936071" lon="6.841067648624639"><ele>1053.0</ele><time>2026-04-18T08:58:31Z</time></trkpt><trkpt lat="45.04782491760467" lon="6.840885832205289"><ele>1054.75</ele><time>2026-04-18T08:58:32Z</time></trkpt><trkpt lat="45.04783591853319" lon="6.8406946804523265"><ele>1056.5</ele><time>2026-04-18T08:58:33Z</time></trkpt><trkpt lat="45.047834183082095" lon="6.840528287489797"><ele>1058.25</ele><time>2026-04-18T08:58:34Z</time></trkpt><trkpt lat="45.04781017325462" lon="6.840341873000025"><ele>1060.0</ele><time>2026-04-18T08:58:35Z</time></trkpt><trkpt lat="45.047794785351286" lon="6.8401578245300065"><ele>1062.0</ele><time>2026-04-18T08:58:36Z</time></trkpt><trkpt lat="45.04777545354627" lon="6.839990054259686"><ele>1064.0</ele><time>2026-04-18T08:58:37Z</time></trkpt><trkpt lat="45.04774283427298" lon="6.839816746615278"><ele>1066.0</ele><time>2026-04-18T08:58:38Z</time></trkpt><trkpt lat="45.047647554557045" lon="6.839649565431138"><ele>1068.0</ele><time>2026-04-18T08:58:39Z</time></trkpt><trkpt lat="45.047586967265886" lon="6.8394920619578565"><ele>1068.0</ele><time>2026-04-18T08:58:40Z</time></trkpt><trkpt lat="45.04751993265657" lon="6.839335235801888"><ele>1068.0</ele><time>2026-04-18T08:58:41Z</time></trkpt><trkpt lat="45.047449309297605" lon="6.83919712003646"><ele>1068.0</ele><time>2026-04-18T08:58:42Z</time></trkpt><trkpt lat="45.04737400025848" lon="6.839037027672017"><ele>1068.0</ele><time>2026-04-18T08:58:43Z</time></trkpt><trkpt lat="45.04728602716794" lon="6.838873951540635"><ele>1065.5</ele><time>2026-04-18T08:58:44Z</time></trkpt><trkpt lat="45.047213146532" lon="6.838733278325552"><ele>1063.0</ele><time>2026-04-18T08:58:45Z</time></trkpt><trkpt lat="45.04713994724605" lon="6.838566015555812"><ele>1060.5</ele><time>2026-04-18T08:58:46Z</time></trkpt><trkpt lat="45.04706268535111" lon="6.838410445786325"><ele>1058.0</ele><time>2026-04-18T08:58:47Z</time></trkpt><trkpt lat="45.04699207675416" lon="6.838259176060923"><ele>1058.0</ele><time>2026-04-18T08:58:48Z</time></trkpt><trkpt lat="45.04691285566905" lon="6.838086460314944"><ele>1058.0</ele><time>2026-04-18T08:58:49Z</time></trkpt><trkpt lat="45.046855721419256" lon="6.837936343441631"><ele>1058.0</ele><time>2026-04-18T08:58:50Z</time></trkpt><trkpt lat="45.046789916502355" lon="6.83779697235074"><ele>1058.0</ele><time>2026-04-18T08:58:51Z</time></trkpt><trkpt lat="45.04672044159768" lon="6.83765118841963"><ele>1058.25</ele><time>2026-04-18T08:58:52Z</time></trkpt><trkpt lat="45.04666438097732" lon="6.837500346084479"><ele>1058.5</ele><time>2026-04-18T08:58:53Z</time></trkpt><trkpt lat="45.046581142779345" lon="6.837336258875641"><ele>1058.75</ele><time>2026-04-18T08:58:54Z</time></trkpt><trkpt lat="45.046477222525" lon="6.837177746238389"><ele>1059.0</ele><time>2026-04-18T08:58:55Z</time></trkpt><trkpt lat="45.046405888935794" lon="6.837000780731729"><ele>1058.5</ele><time>2026-04-18T08:58:56Z</time></trkpt><trkpt lat="45.04631768296174" lon="6.836838576485996"><ele>1058.0</ele><time>2026-04-18T08:58:57Z</time></trkpt><trkpt lat="45.0462764935251" lon="6.8366366690933384"><ele>1057.5</ele><time>2026-04-18T08:58:58Z</time></trkpt><trkpt lat="45.046201307228976" lon="6.83647406509058"><ele>1057.0</ele><time>2026-04-18T08:58:59Z</time></trkpt><trkpt lat="45.04612900764822" lon="6.836326368221919"><ele>1056.75</ele><time>2026-04-18T08:59:00Z</time></trkpt><trkpt lat="45.04604472530971" lon="6.8361506953690885"><ele>1056.5</ele><time>2026-04-18T08:59:01Z</time></trkpt><trkpt lat="45.04595395633222" lon="6.836006179709543"><ele>1056.25</ele><time>2026-04-18T08:59:02Z</time></trkpt><trkpt lat="45.04587458935288" lon="6.835834716207885"><ele>1056.0</ele><time>2026-04-18T08:59:03Z</time></trkpt><trkpt lat="45.045805194349484" lon="6.83567957396173"><ele>1056.5</ele><time>2026-04-18T08:59:04Z</time></trkpt><trkpt lat="45.045727044489745" lon="6.835502998923724"><ele>1057.0</ele><time>2026-04-18T08:59:05Z</time></trkpt><trkpt lat="45.045643061612125" lon="6.835341544347243"><ele>1057.5</ele><time>2026-04-18T08:59:06Z</time></trkpt><trkpt lat="45.045562571907446" lon="6.835170225336052"><ele>1058.0</ele><time>2026-04-18T08:59:07Z</time></trkpt><trkpt lat="45.045474490575785" lon="6.834977208112673"><ele>1059.3333333333335</ele><time>2026-04-18T08:59:08Z</time></trkpt><trkpt lat="45.04538345740421" lon="6.83478118324274"><ele>1060.6666666666667</ele><time>2026-04-18T08:59:09Z</time></trkpt><trkpt lat="45.04529864135622" lon="6.834590842008879"><ele>1062.0</ele><time>2026-04-18T08:59:10Z</time></trkpt><trkpt lat="45.04520468677133" lon="6.8344095270964065"><ele>1063.3333333333333</ele><time>2026-04-18T08:59:11Z</time></trkpt><trkpt lat="45.04511949109186" lon="6.834228254549073"><ele>1064.6666666666665</ele><time>2026-04-18T08:59:12Z</time></trkpt><trkpt lat="45.04504170470544" lon="6.834046989166583"><ele>1066.0</ele><time>2026-04-18T08:59:13Z</time></trkpt><trkpt lat="45.04496637319408" lon="6.833868252977826"><ele>1065.3333333333333</ele><time>2026-04-18T08:59:14Z</time></trkpt><trkpt lat="45.04487474351371" lon="6.833681329973499"><ele>1064.6666666666667</ele><time>2026-04-18T08:59:15Z</time></trkpt><trkpt lat="45.0447910506988" lon="6.833491363435098"><ele>1064.0</ele><time>2026-04-18T08:59:16Z</time></trkpt><trkpt lat="45.044704053840036" lon="6.833297177663418"><ele>1064.0</ele><time>2026-04-18T08:59:17Z</time></trkpt><trkpt lat="45.04461742946262" lon="6.8330984623437185"><ele>1064.0</ele><time>2026-04-18T08:59:18Z</time></trkpt><trkpt lat="45.04452812913813" lon="6.832907521606916"><ele>1064.0</ele><time>2026-04-18T08:59:19Z</time></trkpt><trkpt lat="45.04443245081293" lon="6.832724355346653"><ele>1064.3333333333335</ele><time>2026-04-18T08:59:20Z</time></trkpt><trkpt lat="45.044341027316555" lon="6.832517077573835"><ele>1064.6666666666667</ele><time>2026-04-18T08:59:21Z</time></trkpt><trkpt lat="45.04425151382483" lon="6.832317479741625"><ele>1065.0</ele><time>2026-04-18T08:59:22Z</time></trkpt><trkpt lat="45.044149218886226" lon="6.832124481968309"><ele>1065.0</ele><time>2026-04-18T08:59:23Z</time></trkpt><trkpt lat="45.04406246321244" lon="6.831924475709401"><ele>1065.0</ele><time>2026-04-18T08:59:24Z</time></trkpt><trkpt lat="45.04397394733638" lon="6.831737662306119"><ele>1065.0</ele><time>2026-04-18T08:59:25Z</time></trkpt><trkpt lat="45.043900352897175" lon="6.831564949007877"><ele>1064.6666666666667</ele><time>2026-04-18T08:59:26Z</time></trkpt><trkpt lat="45.04380649216454" lon="6.831397135997322"><ele>1064.3333333333335</ele><time>2026-04-18T08:59:27Z</time></trkpt><trkpt lat="45.04372294395667" lon="6.8312121876958445"><ele>1064.0</ele><time>2026-04-18T08:59:28Z</time></trkpt><trkpt lat="45.043654276548494" lon="6.831028732435776"><ele>1064.25</ele><time>2026-04-18T08:59:29Z</time></trkpt><trkpt lat="45.04356468858878" lon="6.830853291432347"><ele>1064.5</ele><time>2026-04-18T08:59:30Z</time></trkpt><trkpt lat="45.04349041185472" lon="6.830676508349896"><ele>1064.75</ele><time>2026-04-18T08:59:31Z</time></trkpt><trkpt lat="45.04342007521336" lon="6.830509799427466"><ele>1065.0</ele><time>2026-04-18T08:59:32Z</time></trkpt><trkpt lat="45.04336771787061" lon="6.830311881538621"><ele>1065.0</ele><time>2026-04-18T08:59:33Z</time></trkpt><trkpt lat="45.043302526321156" lon="6.830157320839892"><ele>1065.0</ele><time>2026-04-18T08:59:34Z</time></trkpt><trkpt lat="45.0432285456941" lon="6.829977237521419"><ele>1065.0</ele><time>2026-04-18T08:59:35Z</time></trkpt><trkpt lat="45.043131987700704" lon="6.829836989559355"><ele>1065.0</ele><time>2026-04-18T08:59:36Z</time></trkpt><trkpt lat="45.04303330034746" lon="6.829671150433344"><ele>1064.75</ele><time>2026-04-18T08:59:37Z</time></trkpt><trkpt lat="45.042955447910344" lon="6.829508732031812"><ele>1064.5</ele><time>2026-04-18T08:59:38Z</time></trkpt><trkpt lat="45.042868326228025" lon="6.829316614828361"><ele>1064.25</ele><time>2026-04-18T08:59:39Z</time></trkpt><trkpt lat="45.04277915897549" lon="6.8291554765018185"><ele>1064.0</ele><time>2026-04-18T08:59:40Z</time></trkpt><trkpt lat="45.04267873373038" lon="6.828988340989826"><ele>1065.25</ele><time>2026-04-18T08:59:41Z</time></trkpt><trkpt lat="45.04261303771271" lon="6.828802038271823"><ele>1066.5</ele><time>2026-04-18T08:59:42Z</time></trkpt><trkpt lat="45.04255717853374" lon="6.828643521336835"><ele>1067.75</ele><time>2026-04-18T08:59:43Z</time></trkpt><trkpt lat="45.042511429128666" lon="6.82846328450563"><ele>1069.0</ele><time>2026-04-18T08:59:44Z</time></trkpt><trkpt lat="45.042487035224426" lon="6.828278533457429"><ele>1068.25</ele><time>2026-04-18T08:59:45Z</time></trkpt><trkpt lat="45.04246778229744" lon="6.828085980198174"><ele>1067.5</ele><time>2026-04-18T08:59:46Z</time></trkpt><trkpt lat="45.04244879889386" lon="6.827860340297297"><ele>1066.75</ele><time>2026-04-18T08:59:47Z</time></trkpt><trkpt lat="45.04242977861287" lon="6.827657071514041"><ele>1066.0</ele><time>2026-04-18T08:59:48Z</time></trkpt><trkpt lat="45.04240859898027" lon="6.8274545154201505"><ele>1066.0</ele><time>2026-04-18T08:59:49Z</time></trkpt><trkpt lat="45.04239117998404" lon="6.827287924335041"><ele>1066.0</ele><time>2026-04-18T08:59:50Z</time></trkpt><trkpt lat="45.042371418345105" lon="6.827120123623249"><ele>1066.0</ele><time>2026-04-18T08:59:51Z</time></trkpt><trkpt lat="45.04234521341395" lon="6.826932719654226"><ele>1066.0</ele><time>2026-04-18T08:59:52Z</time></trkpt><trkpt lat="45.042311774071656" lon="6.8267643558557305"><ele>1066.75</ele><time>2026-04-18T08:59:53Z</time></trkpt><trkpt lat="45.04226770516706" lon="6.82659995918279"><ele>1067.5</ele><time>2026-04-18T08:59:54Z</time></trkpt><trkpt lat="45.042217517121976" lon="6.826431556640707"><ele>1068.25</ele><time>2026-04-18T08:59:55Z</time></trkpt><trkpt lat="45.04217358731707" lon="6.82627431241535"><ele>1069.0</ele><time>2026-04-18T08:59:56Z</time></trkpt><trkpt lat="45.04212196910863" lon="6.826106844718844"><ele>1069.8</ele><time>2026-04-18T08:59:57Z</time></trkpt><trkpt lat="45.04206003813519" lon="6.8259551150794024"><ele>1070.6000000000001</ele><time>2026-04-18T08:59:58Z</time></trkpt><trkpt lat="45.041996494820836" lon="6.825825433042594"><ele>1071.4</ele><time>2026-04-18T08:59:59Z</time></trkpt><trkpt lat="45.0419605675235" lon="6.825707087730026"><ele>1072.2</ele><time>2026-04-18T09:00:00Z</time></trkpt><trkpt lat="45.04192002086624" lon="6.825592780764503"><ele>1073.0</ele><time>2026-04-18T09:00:01Z</time></trkpt><trkpt lat="45.04185611197367" lon="6.825533853863221"><ele>1073.0</ele><time>2026-04-18T09:00:03Z</time></trkpt><trkpt lat="45.04182636368926" lon="6.825383241184032"><ele>1073.0</ele><time>2026-04-18T09:00:05Z</time></trkpt><trkpt lat="45.041772613447804" lon="6.825305357978526"><ele>1073.0</ele><time>2026-04-18T09:00:06Z</time></trkpt><trkpt lat="45.04173910609531" lon="6.825127495197022"><ele>1073.0</ele><time>2026-04-18T09:00:08Z</time></trkpt><trkpt lat="45.041709209471584" lon="6.824946094827869"><ele>1073.0</ele><time>2026-04-18T09:00:10Z</time></trkpt><trkpt lat="45.04169599481672" lon="6.8248047326049095"><ele>1072.5</ele><time>2026-04-18T09:00:12Z</time></trkpt><trkpt lat="45.041482155531334" lon="6.824819536049319"><ele>1072.0</ele><time>2026-04-18T09:00:14Z</time></trkpt><trkpt lat="45.041414977158006" lon="6.82482116854085"><ele>1071.5</ele><time>2026-04-18T09:00:15Z</time></trkpt><trkpt lat="45.041337940837025" lon="6.8248412274698325"><ele>1071.0</ele><time>2026-04-18T09:00:16Z</time></trkpt><trkpt lat="45.04122153423011" lon="6.824869902197458"><ele>1071.0</ele><time>2026-04-18T09:00:17Z</time></trkpt><trkpt lat="45.04109779167852" lon="6.824891043901825"><ele>1071.0</ele><time>2026-04-18T09:00:18Z</time></trkpt><trkpt lat="45.040990362375524" lon="6.8249628294277676"><ele>1071.0</ele><time>2026-04-18T09:00:19Z</time></trkpt><trkpt lat="45.04086184016149" lon="6.825040147962449"><ele>1071.0</ele><time>2026-04-18T09:00:20Z</time></trkpt><trkpt lat="45.04075719567575" lon="6.825112771607519"><ele>1070.3999999999999</ele><time>2026-04-18T09:00:21Z</time></trkpt><trkpt lat="45.040656662787455" lon="6.825176046579059"><ele>1069.8</ele><time>2026-04-18T09:00:22Z</time></trkpt><trkpt lat="45.04055504111445" lon="6.825237205469525"><ele>1069.1999999999998</ele><time>2026-04-18T09:00:23Z</time></trkpt><trkpt lat="45.040461520117084" lon="6.825343162117751"><ele>1068.6</ele><time>2026-04-18T09:00:24Z</time></trkpt><trkpt lat="45.04039484822192" lon="6.825443999388843"><ele>1068.0</ele><time>2026-04-18T09:00:25Z</time></trkpt><trkpt lat="45.04032285141772" lon="6.825532536519828"><ele>1068.0</ele><time>2026-04-18T09:00:26Z</time></trkpt><trkpt lat="45.04022271297998" lon="6.825648505723528"><ele>1068.0</ele><time>2026-04-18T09:00:27Z</time></trkpt><trkpt lat="45.04011959278318" lon="6.825721686456343"><ele>1068.0</ele><time>2026-04-18T09:00:28Z</time></trkpt><trkpt lat="45.04002063161006" lon="6.8258275938402315"><ele>1068.0</ele><time>2026-04-18T09:00:29Z</time></trkpt><trkpt lat="45.03992790243674" lon="6.825925527546325"><ele>1067.5</ele><time>2026-04-18T09:00:30Z</time></trkpt><trkpt lat="45.0398401434732" lon="6.826013552632647"><ele>1067.0</ele><time>2026-04-18T09:00:31Z</time></trkpt><trkpt lat="45.039762073741535" lon="6.826106922059655"><ele>1066.5</ele><time>2026-04-18T09:00:32Z</time></trkpt><trkpt lat="45.0396668419777" lon="6.826195838356826"><ele>1066.0</ele><time>2026-04-18T09:00:33Z</time></trkpt><trkpt lat="45.03956007712916" lon="6.826295811218344"><ele>1066.0</ele><time>2026-04-18T09:00:34Z</time></trkpt><trkpt lat="45.03946688485495" lon="6.826404314635571"><ele>1066.0</ele><time>2026-04-18T09:00:35Z</time></trkpt><trkpt lat="45.039390945036914" lon="6.826495236248554"><ele>1066.0</ele><time>2026-04-18T09:00:36Z</time></trkpt><trkpt lat="45.03930012357099" lon="6.826585560664036"><ele>1066.0</ele><time>2026-04-18T09:00:37Z</time></trkpt><trkpt lat="45.039212147238054" lon="6.82665752694012"><ele>1066.0</ele><time>2026-04-18T09:00:38Z</time></trkpt><trkpt lat="45.03913678825088" lon="6.826733348961322"><ele>1065.8333333333333</ele><time>2026-04-18T09:00:39Z</time></trkpt><trkpt lat="45.03906455136218" lon="6.826827358036532"><ele>1065.6666666666665</ele><time>2026-04-18T09:00:40Z</time></trkpt><trkpt lat="45.03896341627086" lon="6.826875040695097"><ele>1065.5</ele><time>2026-04-18T09:00:41Z</time></trkpt><trkpt lat="45.0389026576501" lon="6.826938186818816"><ele>1065.3333333333333</ele><time>2026-04-18T09:00:42Z</time></trkpt><trkpt lat="45.03884869258503" lon="6.827000012634258"><ele>1065.1666666666667</ele><time>2026-04-18T09:00:43Z</time></trkpt><trkpt lat="45.03878631085188" lon="6.827061277748317"><ele>1065.0</ele><time>2026-04-18T09:00:44Z</time></trkpt><trkpt lat="45.038675431875554" lon="6.827181894674347"><ele>1065.0</ele><time>2026-04-18T09:00:46Z</time></trkpt><trkpt lat="45.038564058650195" lon="6.82730162524349"><ele>1065.0</ele><time>2026-04-18T09:00:48Z</time></trkpt><trkpt lat="45.0385035856855" lon="6.8273557886191165"><ele>1065.0</ele><time>2026-04-18T09:00:49Z</time></trkpt><trkpt lat="45.03844371685682" lon="6.8274366654533125"><ele>1065.0</ele><time>2026-04-18T09:00:51Z</time></trkpt><trkpt lat="45.038377844189164" lon="6.827486656666467"><ele>1065.0</ele><time>2026-04-18T09:00:53Z</time></trkpt><trkpt lat="45.03831111575979" lon="6.827548402854752"><ele>1065.0</ele><time>2026-04-18T09:01:01Z</time></trkpt><trkpt lat="45.038249925388165" lon="6.827595545249987"><ele>1065.2</ele><time>2026-04-18T09:01:04Z</time></trkpt><trkpt lat="45.03819315424975" lon="6.82763758150116"><ele>1065.4</ele><time>2026-04-18T09:01:06Z</time></trkpt><trkpt lat="45.03812874419476" lon="6.82767900727906"><ele>1065.6</ele><time>2026-04-18T09:01:07Z</time></trkpt><trkpt lat="45.03804791516166" lon="6.82774192143436"><ele>1065.8</ele><time>2026-04-18T09:01:08Z</time></trkpt><trkpt lat="45.037943210430086" lon="6.827858581966033"><ele>1066.0</ele><time>2026-04-18T09:01:09Z</time></trkpt><trkpt lat="45.037851499214845" lon="6.827951711476184"><ele>1066.0</ele><time>2026-04-18T09:01:10Z</time></trkpt><trkpt lat="45.03776224847697" lon="6.828045738672128"><ele>1066.0</ele><time>2026-04-18T09:01:11Z</time></trkpt><trkpt lat="45.037651816074835" lon="6.828190391600344"><ele>1066.0</ele><time>2026-04-18T09:01:12Z</time></trkpt><trkpt lat="45.03758622756129" lon="6.828345604724744"><ele>1066.0</ele><time>2026-04-18T09:01:13Z</time></trkpt><trkpt lat="45.037527984309136" lon="6.828513092039421"><ele>1066.6666666666665</ele><time>2026-04-18T09:01:14Z</time></trkpt><trkpt lat="45.03745929489952" lon="6.828718022131753"><ele>1067.3333333333333</ele><time>2026-04-18T09:01:15Z</time></trkpt><trkpt lat="45.03735699070271" lon="6.828907099405477"><ele>1068.0</ele><time>2026-04-18T09:01:16Z</time></trkpt><trkpt lat="45.03728409579156" lon="6.829085374097809"><ele>1068.0</ele><time>2026-04-18T09:01:17Z</time></trkpt><trkpt lat="45.03720891840063" lon="6.829241755676101"><ele>1068.0</ele><time>2026-04-18T09:01:18Z</time></trkpt><trkpt lat="45.03713433765203" lon="6.829402721541575"><ele>1068.0</ele><time>2026-04-18T09:01:19Z</time></trkpt><trkpt lat="45.03706333460637" lon="6.829574845144207"><ele>1068.0</ele><time>2026-04-18T09:01:20Z</time></trkpt><trkpt lat="45.03700373255164" lon="6.829697416957594"><ele>1068.25</ele><time>2026-04-18T09:01:21Z</time></trkpt><trkpt lat="45.036941467016646" lon="6.829840533605897"><ele>1068.5</ele><time>2026-04-18T09:01:22Z</time></trkpt><trkpt lat="45.03687811695519" lon="6.82999444850744"><ele>1068.75</ele><time>2026-04-18T09:01:23Z</time></trkpt><trkpt lat="45.03680089701222" lon="6.830151579449253"><ele>1069.0</ele><time>2026-04-18T09:01:24Z</time></trkpt><trkpt lat="45.036720843089554" lon="6.830305668664739"><ele>1069.0</ele><time>2026-04-18T09:01:25Z</time></trkpt><trkpt lat="45.036661330615296" lon="6.8304580664951775"><ele>1069.0</ele><time>2026-04-18T09:01:26Z</time></trkpt><trkpt lat="45.0366006457232" lon="6.830599487042272"><ele>1069.0</ele><time>2026-04-18T09:01:27Z</time></trkpt><trkpt lat="45.0365260177591" lon="6.830755372587315"><ele>1069.0</ele><time>2026-04-18T09:01:28Z</time></trkpt><trkpt lat="45.03643749744798" lon="6.830881787394473"><ele>1069.25</ele><time>2026-04-18T09:01:29Z</time></trkpt><trkpt lat="45.036329551097076" lon="6.831003146245416"><ele>1069.5</ele><time>2026-04-18T09:01:30Z</time></trkpt><trkpt lat="45.036243627443326" lon="6.831115381204975"><ele>1069.75</ele><time>2026-04-18T09:01:31Z</time></trkpt><trkpt lat="45.03616157654588" lon="6.831220672240557"><ele>1070.0</ele><time>2026-04-18T09:01:32Z</time></trkpt><trkpt lat="45.036077590300444" lon="6.831313213631532"><ele>1070.0</ele><time>2026-04-18T09:01:33Z</time></trkpt><trkpt lat="45.035985196614035" lon="6.831445019273545"><ele>1070.0</ele><time>2026-04-18T09:01:34Z</time></trkpt><trkpt lat="45.035895237674715" lon="6.8315803767212"><ele>1070.0</ele><time>2026-04-18T09:01:35Z</time></trkpt><trkpt lat="45.035804078541425" lon="6.831706284090506"><ele>1070.0</ele><time>2026-04-18T09:01:36Z</time></trkpt><trkpt lat="45.035708470913356" lon="6.8318126581812635"><ele>1071.0</ele><time>2026-04-18T09:01:37Z</time></trkpt><trkpt lat="45.035625409419" lon="6.831918855762915"><ele>1072.0</ele><time>2026-04-18T09:01:38Z</time></trkpt><trkpt lat="45.03552734313956" lon="6.8320436846585615"><ele>1073.0</ele><time>2026-04-18T09:01:39Z</time></trkpt><trkpt lat="45.03545420280782" lon="6.832185627924041"><ele>1074.0</ele><time>2026-04-18T09:01:40Z</time></trkpt><trkpt lat="45.035345321859644" lon="6.832303063114148"><ele>1074.0</ele><time>2026-04-18T09:01:41Z</time></trkpt><trkpt lat="45.03526570878869" lon="6.832415673330383"><ele>1074.0</ele><time>2026-04-18T09:01:42Z</time></trkpt><trkpt lat="45.035171359805645" lon="6.8325291338081175"><ele>1074.0</ele><time>2026-04-18T09:01:43Z</time></trkpt><trkpt lat="45.035089472231974" lon="6.832612542382858"><ele>1074.0</ele><time>2026-04-18T09:01:44Z</time></trkpt><trkpt lat="45.03498767325929" lon="6.832717931473209"><ele>1074.0</ele><time>2026-04-18T09:01:45Z</time></trkpt><trkpt lat="45.0348883194292" lon="6.832768192575119"><ele>1074.0</ele><time>2026-04-18T09:01:46Z</time></trkpt><trkpt lat="45.03477506620916" lon="6.832822305593533"><ele>1074.0</ele><time>2026-04-18T09:01:47Z</time></trkpt><trkpt lat="45.03467199813379" lon="6.832861685582576"><ele>1074.0</ele><time>2026-04-18T09:01:48Z</time></trkpt><trkpt lat="45.03455459548584" lon="6.832896848552103"><ele>1074.0</ele><time>2026-04-18T09:01:49Z</time></trkpt><trkpt lat="45.03443410250191" lon="6.832916943715676"><ele>1074.0</ele><time>2026-04-18T09:01:50Z</time></trkpt><trkpt lat="45.03429101607128" lon="6.832933049124988"><ele>1074.0</ele><time>2026-04-18T09:01:51Z</time></trkpt><trkpt lat="45.03416693492705" lon="6.832948260875826"><ele>1074.0</ele><time>2026-04-18T09:01:52Z</time></trkpt><trkpt lat="45.034056844902594" lon="6.832974422527401"><ele>1075.0</ele><time>2026-04-18T09:01:53Z</time></trkpt><trkpt lat="45.033945726708176" lon="6.833025247592135"><ele>1076.0</ele><time>2026-04-18T09:01:54Z</time></trkpt><trkpt lat="45.033794764460765" lon="6.833152426374336"><ele>1077.0</ele><time>2026-04-18T09:01:56Z</time></trkpt><trkpt lat="45.03371599862645" lon="6.833252120534091"><ele>1078.0</ele><time>2026-04-18T09:01:57Z</time></trkpt><trkpt lat="45.03363818610629" lon="6.833310310132848"><ele>1078.0</ele><time>2026-04-18T09:01:58Z</time></trkpt><trkpt lat="45.03356345694587" lon="6.83338490695946"><ele>1078.0</ele><time>2026-04-18T09:01:59Z</time></trkpt><trkpt lat="45.033488859398425" lon="6.833459784806447"><ele>1078.0</ele><time>2026-04-18T09:02:00Z</time></trkpt><trkpt lat="45.03342116609594" lon="6.8335252242489535"><ele>1078.0</ele><time>2026-04-18T09:02:01Z</time></trkpt><trkpt lat="45.03336264186535" lon="6.833579884973287"><ele>1078.0</ele><time>2026-04-18T09:02:03Z</time></trkpt><trkpt lat="45.03330266990224" lon="6.833656332065943"><ele>1078.0</ele><time>2026-04-18T09:02:05Z</time></trkpt><trkpt lat="45.03320280961707" lon="6.833634974102598"><ele>1078.2</ele><time>2026-04-18T09:02:07Z</time></trkpt><trkpt lat="45.033232236346905" lon="6.833714251714272"><ele>1078.4</ele><time>2026-04-18T09:02:08Z</time></trkpt><trkpt lat="45.03316640322637" lon="6.833409670559116"><ele>1078.6000000000001</ele><time>2026-04-18T09:02:09Z</time></trkpt><trkpt lat="45.033102683969865" lon="6.83335514122579"><ele>1078.8</ele><time>2026-04-18T09:02:10Z</time></trkpt><trkpt lat="45.033038223946676" lon="6.8333142234488475"><ele>1079.0</ele><time>2026-04-18T09:02:11Z</time></trkpt><trkpt lat="45.03296188165762" lon="6.833209485381731"><ele>1079.0</ele><time>2026-04-18T09:02:13Z</time></trkpt><trkpt lat="45.03285279222747" lon="6.8331413880160055"><ele>1079.0</ele><time>2026-04-18T09:02:15Z</time></trkpt><trkpt lat="45.032757242602386" lon="6.833098031244238"><ele>1079.0</ele><time>2026-04-18T09:02:17Z</time></trkpt><trkpt lat="45.03265743509979" lon="6.8330512522824405"><ele>1079.0</ele><time>2026-04-18T09:02:19Z</time></trkpt><trkpt lat="45.03254758255749" lon="6.833001601260118"><ele>1079.0</ele><time>2026-04-18T09:02:21Z</time></trkpt><trkpt lat="45.03244603050845" lon="6.8329812760465165"><ele>1079.8</ele><time>2026-04-18T09:02:23Z</time></trkpt><trkpt lat="45.03235985059548" lon="6.832971185568063"><ele>1080.6000000000001</ele><time>2026-04-18T09:02:25Z</time></trkpt><trkpt lat="45.03227862105716" lon="6.832903903617861"><ele>1081.4</ele><time>2026-04-18T09:02:27Z</time></trkpt><trkpt lat="45.03220488067661" lon="6.832849353165676"><ele>1082.2</ele><time>2026-04-18T09:02:29Z</time></trkpt><trkpt lat="45.03214657625567" lon="6.832795711711962"><ele>1083.0</ele><time>2026-04-18T09:02:30Z</time></trkpt><trkpt lat="45.032046501130516" lon="6.8326923346541255"><ele>1082.6</ele><time>2026-04-18T09:02:32Z</time></trkpt><trkpt lat="45.031984465759095" lon="6.832627503404406"><ele>1082.1999999999998</ele><time>2026-04-18T09:02:33Z</time></trkpt><trkpt lat="45.03192505120418" lon="6.832565411100845"><ele>1081.8</ele><time>2026-04-18T09:02:34Z</time></trkpt><trkpt lat="45.03181267348149" lon="6.832467645232006"><ele>1081.3999999999999</ele><time>2026-04-18T09:02:36Z</time></trkpt><trkpt lat="45.03173880170766" lon="6.832395601383054"><ele>1081.0</ele><time>2026-04-18T09:02:37Z</time></trkpt><trkpt lat="45.03171724938295" lon="6.832277252126882"><ele>1081.0</ele><time>2026-04-18T09:02:38Z</time></trkpt><trkpt lat="45.031660045162674" lon="6.832216014906421"><ele>1081.0</ele><time>2026-04-18T09:02:39Z</time></trkpt><trkpt lat="45.03157892816869" lon="6.83212187739959"><ele>1081.0</ele><time>2026-04-18T09:02:41Z</time></trkpt><trkpt lat="45.031514676687515" lon="6.832064883203278"><ele>1081.0</ele><time>2026-04-18T09:02:42Z</time></trkpt><trkpt lat="45.03144589100416" lon="6.832004793391574"><ele>1081.0</ele><time>2026-04-18T09:02:43Z</time></trkpt><trkpt lat="45.031354019826544" lon="6.831949556989173"><ele>1081.0</ele><time>2026-04-18T09:02:44Z</time></trkpt><trkpt lat="45.03125564190357" lon="6.831898350448922"><ele>1081.3333333333333</ele><time>2026-04-18T09:02:45Z</time></trkpt><trkpt lat="45.031189911076154" lon="6.831816443186194"><ele>1081.6666666666665</ele><time>2026-04-18T09:02:46Z</time></trkpt><trkpt lat="45.03110847694595" lon="6.831762796636"><ele>1082.0</ele><time>2026-04-18T09:02:47Z</time></trkpt><trkpt lat="45.031033725647134" lon="6.831700567315833"><ele>1082.3333333333333</ele><time>2026-04-18T09:02:48Z</time></trkpt><trkpt lat="45.03096181747947" lon="6.8316541241585265"><ele>1082.6666666666667</ele><time>2026-04-18T09:02:49Z</time></trkpt><trkpt lat="45.03091874000166" lon="6.831579302082136"><ele>1083.0</ele><time>2026-04-18T09:02:50Z</time></trkpt><trkpt lat="45.03088124931658" lon="6.831503317386523"><ele>1083.1666666666667</ele><time>2026-04-18T09:02:51Z</time></trkpt><trkpt lat="45.0308179425883" lon="6.831433561605845"><ele>1083.3333333333333</ele><time>2026-04-18T09:02:52Z</time></trkpt><trkpt lat="45.030804952174655" lon="6.831344040914123"><ele>1083.5</ele><time>2026-04-18T09:02:53Z</time></trkpt><trkpt lat="45.0307541256261" lon="6.831288330094998"><ele>1083.6666666666665</ele><time>2026-04-18T09:02:54Z</time></trkpt><trkpt lat="45.03069905266145" lon="6.831233174560652"><ele>1083.8333333333333</ele><time>2026-04-18T09:02:55Z</time></trkpt><trkpt lat="45.03062837701127" lon="6.831176466126701"><ele>1084.0</ele><time>2026-04-18T09:02:56Z</time></trkpt><trkpt lat="45.030551177011915" lon="6.831093008669551"><ele>1084.5</ele><time>2026-04-18T09:02:57Z</time></trkpt><trkpt lat="45.03045837170514" lon="6.831016496894506"><ele>1085.0</ele><time>2026-04-18T09:02:58Z</time></trkpt><trkpt lat="45.030384100382385" lon="6.830915327337229"><ele>1085.5</ele><time>2026-04-18T09:02:59Z</time></trkpt><trkpt lat="45.03027712223966" lon="6.830814009496401"><ele>1086.0</ele><time>2026-04-18T09:03:00Z</time></trkpt><trkpt lat="45.03016198681341" lon="6.83070014308713"><ele>1086.0</ele><time>2026-04-18T09:03:01Z</time></trkpt><trkpt lat="45.030020854937504" lon="6.830576309301971"><ele>1086.0</ele><time>2026-04-18T09:03:02Z</time></trkpt><trkpt lat="45.02988462330293" lon="6.830434306087009"><ele>1086.0</ele><time>2026-04-18T09:03:03Z</time></trkpt><trkpt lat="45.02974403269156" lon="6.830324843290534"><ele>1087.0</ele><time>2026-04-18T09:03:04Z</time></trkpt><trkpt lat="45.02960384814573" lon="6.830184158588961"><ele>1088.0</ele><time>2026-04-18T09:03:05Z</time></trkpt><trkpt lat="45.02947743020886" lon="6.830069270927864"><ele>1089.0</ele><time>2026-04-18T09:03:06Z</time></trkpt><trkpt lat="45.02935592707354" lon="6.829927066185434"><ele>1089.0</ele><time>2026-04-18T09:03:07Z</time></trkpt><trkpt lat="45.02922258859738" lon="6.829822544243527"><ele>1089.0</ele><time>2026-04-18T09:03:08Z</time></trkpt><trkpt lat="45.0291074610761" lon="6.829704313119366"><ele>1089.0</ele><time>2026-04-18T09:03:09Z</time></trkpt><trkpt lat="45.02897341233335" lon="6.8296145809369255"><ele>1089.0</ele><time>2026-04-18T09:03:10Z</time></trkpt><trkpt lat="45.028862785812024" lon="6.829494979561012"><ele>1092.0</ele><time>2026-04-18T09:03:11Z</time></trkpt><trkpt lat="45.02865335787517" lon="6.829512669009035"><ele>1095.0</ele><time>2026-04-18T09:03:12Z</time></trkpt><trkpt lat="45.028398914414666" lon="6.82974272309137"><ele>1093.3333333333333</ele><time>2026-04-18T09:03:13Z</time></trkpt><trkpt lat="45.02821938920858" lon="6.829743349064221"><ele>1091.6666666666665</ele><time>2026-04-18T09:03:14Z</time></trkpt><trkpt lat="45.02802386380858" lon="6.8297514301949125"><ele>1090.0</ele><time>2026-04-18T09:03:15Z</time></trkpt><trkpt lat="45.02780395155696" lon="6.829761530863511"><ele>1090.0</ele><time>2026-04-18T09:03:16Z</time></trkpt><trkpt lat="45.02757919288391" lon="6.82980996637966"><ele>1090.0</ele><time>2026-04-18T09:03:17Z</time></trkpt><trkpt lat="45.02732930112789" lon="6.8299731449427235"><ele>1089.5</ele><time>2026-04-18T09:03:18Z</time></trkpt><trkpt lat="45.02708276469596" lon="6.83006335617117"><ele>1089.0</ele><time>2026-04-18T09:03:19Z</time></trkpt><trkpt lat="45.026844563157624" lon="6.830105297888437"><ele>1090.5</ele><time>2026-04-18T09:03:20Z</time></trkpt><trkpt lat="45.026596109093774" lon="6.830167294226899"><ele>1092.0</ele><time>2026-04-18T09:03:21Z</time></trkpt><trkpt lat="45.02637412681692" lon="6.830234515890056"><ele>1092.0</ele><time>2026-04-18T09:03:22Z</time></trkpt><trkpt lat="45.02615296085711" lon="6.830291579383294"><ele>1092.0</ele><time>2026-04-18T09:03:23Z</time></trkpt><trkpt lat="45.02596809640007" lon="6.83030847588291"><ele>1092.0</ele><time>2026-04-18T09:03:24Z</time></trkpt><trkpt lat="45.02575986358989" lon="6.830375039896659"><ele>1093.3333333333333</ele><time>2026-04-18T09:03:25Z</time></trkpt><trkpt lat="45.02554624755642" lon="6.830427492636446"><ele>1094.6666666666665</ele><time>2026-04-18T09:03:26Z</time></trkpt><trkpt lat="45.02534518382706" lon="6.8304793906814"><ele>1096.0</ele><time>2026-04-18T09:03:27Z</time></trkpt><trkpt lat="45.02513621540968" lon="6.83055098338351"><ele>1096.6666666666665</ele><time>2026-04-18T09:03:28Z</time></trkpt><trkpt lat="45.02493166809042" lon="6.8305784119729624"><ele>1097.3333333333333</ele><time>2026-04-18T09:03:29Z</time></trkpt><trkpt lat="45.02473220918622" lon="6.830629334755487"><ele>1098.0</ele><time>2026-04-18T09:03:30Z</time></trkpt><trkpt lat="45.02451005090906" lon="6.830689544975287"><ele>1098.0</ele><time>2026-04-18T09:03:31Z</time></trkpt><trkpt lat="45.02432106715241" lon="6.830742823688265"><ele>1098.0</ele><time>2026-04-18T09:03:32Z</time></trkpt><trkpt lat="45.02414215191843" lon="6.830790161761514"><ele>1098.0</ele><time>2026-04-18T09:03:33Z</time></trkpt><trkpt lat="45.023957897153444" lon="6.83081841432655"><ele>1098.3333333333333</ele><time>2026-04-18T09:03:34Z</time></trkpt><trkpt lat="45.02378558078278" lon="6.830860380049318"><ele>1098.6666666666665</ele><time>2026-04-18T09:03:35Z</time></trkpt><trkpt lat="45.02362834309108" lon="6.830893869458396"><ele>1099.0</ele><time>2026-04-18T09:03:36Z</time></trkpt><trkpt lat="45.023439744963596" lon="6.830935230430782"><ele>1099.3333333333333</ele><time>2026-04-18T09:03:37Z</time></trkpt><trkpt lat="45.02324839351202" lon="6.830988651341356"><ele>1099.6666666666667</ele><time>2026-04-18T09:03:38Z</time></trkpt><trkpt lat="45.02306032702017" lon="6.830954955365045"><ele>1100.0</ele><time>2026-04-18T09:03:39Z</time></trkpt><trkpt lat="45.02287226039283" lon="6.8309221924785035"><ele>1100.0</ele><time>2026-04-18T09:03:40Z</time></trkpt><trkpt lat="45.0226822968686" lon="6.830895171862008"><ele>1100.0</ele><time>2026-04-18T09:03:41Z</time></trkpt><trkpt lat="45.02251291485501" lon="6.830877150171581"><ele>1100.0</ele><time>2026-04-18T09:03:42Z</time></trkpt><trkpt lat="45.022330171930925" lon="6.830862203934294"><ele>1102.3333333333335</ele><time>2026-04-18T09:03:43Z</time></trkpt><trkpt lat="45.02216253781938" lon="6.830816891259168"><ele>1104.6666666666667</ele><time>2026-04-18T09:03:44Z</time></trkpt><trkpt lat="45.02198102973622" lon="6.830810822448918"><ele>1107.0</ele><time>2026-04-18T09:03:45Z</time></trkpt><trkpt lat="45.0217887227426" lon="6.830849343361272"><ele>1107.3333333333333</ele><time>2026-04-18T09:03:46Z</time></trkpt><trkpt lat="45.02159644432515" lon="6.830911204189957"><ele>1107.6666666666665</ele><time>2026-04-18T09:03:47Z</time></trkpt><trkpt lat="45.02139069490157" lon="6.830966215380115"><ele>1108.0</ele><time>2026-04-18T09:03:48Z</time></trkpt><trkpt lat="45.021190573450774" lon="6.831027681850396"><ele>1114.0</ele><time>2026-04-18T09:03:49Z</time></trkpt><trkpt lat="45.02098376197844" lon="6.831097834192845"><ele>1120.0</ele><time>2026-04-18T09:03:50Z</time></trkpt><trkpt lat="45.02074576662694" lon="6.831190664378535"><ele>1120.0</ele><time>2026-04-18T09:03:51Z</time></trkpt><trkpt lat="45.020542716266945" lon="6.8312617011640215"><ele>1120.0</ele><time>2026-04-18T09:03:52Z</time></trkpt><trkpt lat="45.02033335797955" lon="6.831338321389496"><ele>1120.0</ele><time>2026-04-18T09:03:53Z</time></trkpt><trkpt lat="45.02014377259496" lon="6.831417680694257"><ele>1116.3333333333333</ele><time>2026-04-18T09:03:54Z</time></trkpt><trkpt lat="45.01995429038692" lon="6.831501785671218"><ele>1112.6666666666667</ele><time>2026-04-18T09:03:55Z</time></trkpt><trkpt lat="45.019768720866374" lon="6.831567675306307"><ele>1109.0</ele><time>2026-04-18T09:03:56Z</time></trkpt><trkpt lat="45.01957193910859" lon="6.831618396283936"><ele>1109.0</ele><time>2026-04-18T09:03:57Z</time></trkpt><trkpt lat="45.01938216121438" lon="6.831671703660839"><ele>1109.0</ele><time>2026-04-18T09:03:58Z</time></trkpt><trkpt lat="45.01920921438099" lon="6.8316965174441195"><ele>1109.0</ele><time>2026-04-18T09:03:59Z</time></trkpt><trkpt lat="45.01900575268619" lon="6.831736259608379"><ele>1109.3333333333335</ele><time>2026-04-18T09:04:00Z</time></trkpt><trkpt lat="45.018786962082174" lon="6.831778995983004"><ele>1109.6666666666667</ele><time>2026-04-18T09:04:01Z</time></trkpt><trkpt lat="45.01859994198274" lon="6.831802167573969"><ele>1110.0</ele><time>2026-04-18T09:04:02Z</time></trkpt><trkpt lat="45.01842180547185" lon="6.831783908288436"><ele>1112.6666666666667</ele><time>2026-04-18T09:04:03Z</time></trkpt><trkpt lat="45.01824787691196" lon="6.831738233364735"><ele>1115.3333333333335</ele><time>2026-04-18T09:04:04Z</time></trkpt><trkpt lat="45.0180542637968" lon="6.831690232599244"><ele>1118.0</ele><time>2026-04-18T09:04:05Z</time></trkpt><trkpt lat="45.01785010708018" lon="6.8316466793053126"><ele>1118.0</ele><time>2026-04-18T09:04:06Z</time></trkpt><trkpt lat="45.01764685108445" lon="6.831584765455268"><ele>1118.0</ele><time>2026-04-18T09:04:07Z</time></trkpt><trkpt lat="45.01747642403103" lon="6.8314648129048665"><ele>1118.0</ele><time>2026-04-18T09:04:08Z</time></trkpt><trkpt lat="45.01727776110195" lon="6.831349128851264"><ele>1120.0</ele><time>2026-04-18T09:04:09Z</time></trkpt><trkpt lat="45.01709518683302" lon="6.831234644810155"><ele>1122.0</ele><time>2026-04-18T09:04:10Z</time></trkpt><trkpt lat="45.01690082659158" lon="6.831127202255152"><ele>1124.0</ele><time>2026-04-18T09:04:11Z</time></trkpt><trkpt lat="45.01670479105726" lon="6.831018214471728"><ele>1126.0</ele><time>2026-04-18T09:04:12Z</time></trkpt><trkpt lat="45.01651837026603" lon="6.83089051177861"><ele>1128.0</ele><time>2026-04-18T09:04:13Z</time></trkpt><trkpt lat="45.01634115377171" lon="6.830751989934034"><ele>1130.0</ele><time>2026-04-18T09:04:14Z</time></trkpt><trkpt lat="45.01615618285645" lon="6.830645833226238"><ele>1130.0</ele><time>2026-04-18T09:04:15Z</time></trkpt><trkpt lat="45.015970205727356" lon="6.830536411900698"><ele>1130.0</ele><time>2026-04-18T09:04:16Z</time></trkpt><trkpt lat="45.01576989275293" lon="6.8304194955126825"><ele>1130.0</ele><time>2026-04-18T09:04:17Z</time></trkpt><trkpt lat="45.015571093759306" lon="6.830287621675282"><ele>1128.3333333333335</ele><time>2026-04-18T09:04:18Z</time></trkpt><trkpt lat="45.01537296057981" lon="6.830140245915482"><ele>1126.6666666666667</ele><time>2026-04-18T09:04:19Z</time></trkpt><trkpt lat="45.01519426149537" lon="6.82996461428477"><ele>1125.0</ele><time>2026-04-18T09:04:20Z</time></trkpt><trkpt lat="45.01500423698804" lon="6.8297943299562665"><ele>1126.3333333333333</ele><time>2026-04-18T09:04:21Z</time></trkpt><trkpt lat="45.01482365919501" lon="6.829615160579359"><ele>1127.6666666666665</ele><time>2026-04-18T09:04:22Z</time></trkpt><trkpt lat="45.014648808386205" lon="6.829433697330445"><ele>1129.0</ele><time>2026-04-18T09:04:23Z</time></trkpt><trkpt lat="45.014461998630004" lon="6.829267923457712"><ele>1129.0</ele><time>2026-04-18T09:04:24Z</time></trkpt><trkpt lat="45.01426596485014" lon="6.829109919131376"><ele>1129.0</ele><time>2026-04-18T09:04:25Z</time></trkpt><trkpt lat="45.01409051523856" lon="6.828928724021014"><ele>1129.0</ele><time>2026-04-18T09:04:26Z</time></trkpt><trkpt lat="45.01391093654772" lon="6.828747334151097"><ele>1129.3333333333333</ele><time>2026-04-18T09:04:27Z</time></trkpt><trkpt lat="45.0137062844584" lon="6.828606369603008"><ele>1129.6666666666667</ele><time>2026-04-18T09:04:28Z</time></trkpt><trkpt lat="45.013513599550436" lon="6.828451552853858"><ele>1130.0</ele><time>2026-04-18T09:04:29Z</time></trkpt><trkpt lat="45.013307716451976" lon="6.828315418736963"><ele>1135.0</ele><time>2026-04-18T09:04:30Z</time></trkpt><trkpt lat="45.013104408807344" lon="6.828198008264517"><ele>1140.0</ele><time>2026-04-18T09:04:31Z</time></trkpt><trkpt lat="45.012915394817604" lon="6.828042879766917"><ele>1145.0</ele><time>2026-04-18T09:04:32Z</time></trkpt><trkpt lat="45.01272475626993" lon="6.8279131651346345"><ele>1145.0</ele><time>2026-04-18T09:04:33Z</time></trkpt><trkpt lat="45.012529458104716" lon="6.827782057112843"><ele>1145.0</ele><time>2026-04-18T09:04:34Z</time></trkpt><trkpt lat="45.012345193964585" lon="6.827651141741653"><ele>1145.0</ele><time>2026-04-18T09:04:35Z</time></trkpt><trkpt lat="45.01214854116638" lon="6.827521948685804"><ele>1148.6666666666667</ele><time>2026-04-18T09:04:36Z</time></trkpt><trkpt lat="45.01195292718426" lon="6.827411199212887"><ele>1152.3333333333333</ele><time>2026-04-18T09:04:37Z</time></trkpt><trkpt lat="45.01175973085145" lon="6.827281414855082"><ele>1156.0</ele><time>2026-04-18T09:04:38Z</time></trkpt><trkpt lat="45.01156046851292" lon="6.827152682171804"><ele>1152.3333333333333</ele><time>2026-04-18T09:04:39Z</time></trkpt><trkpt lat="45.011382941170844" lon="6.827003631278287"><ele>1148.6666666666667</ele><time>2026-04-18T09:04:40Z</time></trkpt><trkpt lat="45.011161347237675" lon="6.826913845307697"><ele>1145.0</ele><time>2026-04-18T09:04:41Z</time></trkpt><trkpt lat="45.01097487428538" lon="6.826782309729614"><ele>1156.6666666666667</ele><time>2026-04-18T09:04:42Z</time></trkpt><trkpt lat="45.01080740453115" lon="6.826639477243506"><ele>1168.3333333333333</ele><time>2026-04-18T09:04:43Z</time></trkpt><trkpt lat="45.01066034650582" lon="6.826468423106081"><ele>1180.0</ele><time>2026-04-18T09:04:44Z</time></trkpt><trkpt lat="45.010524768559954" lon="6.826276914208321"><ele>1180.0</ele><time>2026-04-18T09:04:45Z</time></trkpt><trkpt lat="45.010377062578684" lon="6.826130864119589"><ele>1180.0</ele><time>2026-04-18T09:04:46Z</time></trkpt><trkpt lat="45.010203989325774" lon="6.825997611549707"><ele>1180.0</ele><time>2026-04-18T09:04:47Z</time></trkpt><trkpt lat="45.01003744011483" lon="6.825905633029905"><ele>1172.0</ele><time>2026-04-18T09:04:48Z</time></trkpt><trkpt lat="45.009844687959536" lon="6.825839001138232"><ele>1164.0</ele><time>2026-04-18T09:04:49Z</time></trkpt><trkpt lat="45.00969507940854" lon="6.8257231493953086"><ele>1156.0</ele><time>2026-04-18T09:04:50Z</time></trkpt><trkpt lat="45.009527293710974" lon="6.825591419598507"><ele>1156.0</ele><time>2026-04-18T09:04:51Z</time></trkpt><trkpt lat="45.009363206717985" lon="6.825434725049353"><ele>1156.0</ele><time>2026-04-18T09:04:52Z</time></trkpt><trkpt lat="45.009191643605654" lon="6.825261370442954"><ele>1156.0</ele><time>2026-04-18T09:04:53Z</time></trkpt><trkpt lat="45.00904291874587" lon="6.825078775429785"><ele>1159.0</ele><time>2026-04-18T09:04:54Z</time></trkpt><trkpt lat="45.00890489505618" lon="6.824916085588427"><ele>1162.0</ele><time>2026-04-18T09:04:55Z</time></trkpt><trkpt lat="45.00879550830893" lon="6.824660966318937"><ele>1165.0</ele><time>2026-04-18T09:04:56Z</time></trkpt><trkpt lat="45.00864318498817" lon="6.824521067699962"><ele>1165.0</ele><time>2026-04-18T09:04:57Z</time></trkpt><trkpt lat="45.00848045218418" lon="6.824416812585429"><ele>1165.0</ele><time>2026-04-18T09:04:58Z</time></trkpt><trkpt lat="45.00832423557592" lon="6.824329031187764"><ele>1165.0</ele><time>2026-04-18T09:04:59Z</time></trkpt><trkpt lat="45.00817590025065" lon="6.824254804081132"><ele>1163.0</ele><time>2026-04-18T09:05:00Z</time></trkpt><trkpt lat="45.00800787285696" lon="6.82424305382286"><ele>1161.0</ele><time>2026-04-18T09:05:01Z</time></trkpt><trkpt lat="45.00779915888976" lon="6.82426341870338"><ele>1159.0</ele><time>2026-04-18T09:05:02Z</time></trkpt><trkpt lat="45.00761401778646" lon="6.824266172400579"><ele>1168.6666666666665</ele><time>2026-04-18T09:05:03Z</time></trkpt><trkpt lat="45.00743140952477" lon="6.824259294264936"><ele>1178.3333333333333</ele><time>2026-04-18T09:05:04Z</time></trkpt><trkpt lat="45.007301286972314" lon="6.824184878056007"><ele>1188.0</ele><time>2026-04-18T09:05:05Z</time></trkpt><trkpt lat="45.00716339437452" lon="6.824087969306161"><ele>1188.0</ele><time>2026-04-18T09:05:06Z</time></trkpt><trkpt lat="45.007057213541735" lon="6.823964795946381"><ele>1188.0</ele><time>2026-04-18T09:05:07Z</time></trkpt><trkpt lat="45.00694647671442" lon="6.823828871614715"><ele>1188.0</ele><time>2026-04-18T09:05:08Z</time></trkpt><trkpt lat="45.006845198108195" lon="6.82370199068345"><ele>1188.0</ele><time>2026-04-18T09:05:09Z</time></trkpt><trkpt lat="45.006718784434554" lon="6.823543701390292"><ele>1191.6666666666667</ele><time>2026-04-18T09:05:10Z</time></trkpt><trkpt lat="45.00659379643807" lon="6.823387197253809"><ele>1195.3333333333335</ele><time>2026-04-18T09:05:11Z</time></trkpt><trkpt lat="45.00646093601803" lon="6.82322083563745"><ele>1199.0</ele><time>2026-04-18T09:05:12Z</time></trkpt><trkpt lat="45.0062997524349" lon="6.823042747053771"><ele>1199.0</ele><time>2026-04-18T09:05:13Z</time></trkpt><trkpt lat="45.006160951792765" lon="6.822852040758167"><ele>1199.0</ele><time>2026-04-18T09:05:14Z</time></trkpt><trkpt lat="45.00601516259384" lon="6.822663820276599"><ele>1199.0</ele><time>2026-04-18T09:05:15Z</time></trkpt><trkpt lat="45.00588523536173" lon="6.82247053013831"><ele>1201.6666666666667</ele><time>2026-04-18T09:05:16Z</time></trkpt><trkpt lat="45.005720035968984" lon="6.822295808320332"><ele>1204.3333333333333</ele><time>2026-04-18T09:05:17Z</time></trkpt><trkpt lat="45.00558064034775" lon="6.822122434077058"><ele>1207.0</ele><time>2026-04-18T09:05:18Z</time></trkpt><trkpt lat="45.00544615058956" lon="6.821955862381392"><ele>1202.3333333333333</ele><time>2026-04-18T09:05:19Z</time></trkpt><trkpt lat="45.005315476540396" lon="6.821792888054414"><ele>1197.6666666666667</ele><time>2026-04-18T09:05:20Z</time></trkpt><trkpt lat="45.00518287253823" lon="6.821622302189726"><ele>1193.0</ele><time>2026-04-18T09:05:21Z</time></trkpt><trkpt lat="45.00506038607956" lon="6.8214348937857965"><ele>1199.3333333333335</ele><time>2026-04-18T09:05:22.017Z</time></trkpt><trkpt lat="45.00495190878026" lon="6.821246174291362"><ele>1205.6666666666667</ele><time>2026-04-18T09:05:23.018Z</time></trkpt><trkpt lat="45.00487072750223" lon="6.821062800130576"><ele>1212.0</ele><time>2026-04-18T09:05:24.017Z</time></trkpt><trkpt lat="45.00478624349477" lon="6.820825661742567"><ele>1212.0</ele><time>2026-04-18T09:05:25Z</time></trkpt><trkpt lat="45.00472145820436" lon="6.8206344544780935"><ele>1212.0</ele><time>2026-04-18T09:05:26Z</time></trkpt><trkpt lat="45.00471076578235" lon="6.820395444386263"><ele>1212.0</ele><time>2026-04-18T09:05:27Z</time></trkpt><trkpt lat="45.004664768546654" lon="6.820160521085972"><ele>1208.6666666666667</ele><time>2026-04-18T09:05:28Z</time></trkpt><trkpt lat="45.00460661340357" lon="6.819921388548232"><ele>1205.3333333333335</ele><time>2026-04-18T09:05:29Z</time></trkpt><trkpt lat="45.00456018224354" lon="6.819656140563401"><ele>1202.0</ele><time>2026-04-18T09:05:30Z</time></trkpt><trkpt lat="45.00451559973775" lon="6.819427751240048"><ele>1199.6666666666667</ele><time>2026-04-18T09:05:31Z</time></trkpt><trkpt lat="45.00444348252918" lon="6.819216310728042"><ele>1197.3333333333333</ele><time>2026-04-18T09:05:32Z</time></trkpt><trkpt lat="45.004358352878235" lon="6.819004948910235"><ele>1195.0</ele><time>2026-04-18T09:05:33Z</time></trkpt><trkpt lat="45.004279966240574" lon="6.81879099329332"><ele>1195.0</ele><time>2026-04-18T09:05:34Z</time></trkpt><trkpt lat="45.00418311730293" lon="6.818595100700065"><ele>1195.0</ele><time>2026-04-18T09:05:35Z</time></trkpt><trkpt lat="45.0040172184727" lon="6.818372229908913"><ele>1195.0</ele><time>2026-04-18T09:05:36Z</time></trkpt><trkpt lat="45.00390520278601" lon="6.818148113545351"><ele>1199.6666666666665</ele><time>2026-04-18T09:05:37Z</time></trkpt><trkpt lat="45.00379285314673" lon="6.817904070357696"><ele>1204.3333333333333</ele><time>2026-04-18T09:05:38Z</time></trkpt><trkpt lat="45.00369363530285" lon="6.8177113811194054"><ele>1209.0</ele><time>2026-04-18T09:05:39Z</time></trkpt><trkpt lat="45.00357206942171" lon="6.817476677219701"><ele>1209.0</ele><time>2026-04-18T09:05:40Z</time></trkpt><trkpt lat="45.003454978706664" lon="6.817275295821861"><ele>1209.0</ele><time>2026-04-18T09:05:41Z</time></trkpt><trkpt lat="45.00333875451015" lon="6.8170647752567515"><ele>1209.0</ele><time>2026-04-18T09:05:42Z</time></trkpt><trkpt lat="45.003222920465795" lon="6.816849323043061"><ele>1216.6666666666667</ele><time>2026-04-18T09:05:43.019Z</time></trkpt><trkpt lat="45.00310890103427" lon="6.8166411387860375"><ele>1224.3333333333335</ele><time>2026-04-18T09:05:44.011Z</time></trkpt><trkpt lat="45.002989518958636" lon="6.816434176333554"><ele>1232.0</ele><time>2026-04-18T09:05:45.011Z</time></trkpt><trkpt lat="45.00285300495587" lon="6.81624551576496"><ele>1258.0</ele><time>2026-04-18T09:05:46.012Z</time></trkpt><trkpt lat="45.00248339031357" lon="6.8152679689292"><ele>1253.0</ele><time>2026-04-18T09:05:51Z</time></trkpt><trkpt lat="45.00239126524143" lon="6.815057232071481"><ele>1248.0</ele><time>2026-04-18T09:05:52Z</time></trkpt><trkpt lat="45.00226297539129" lon="6.814817084758286"><ele>1243.0</ele><time>2026-04-18T09:05:53Z</time></trkpt><trkpt lat="45.0021443874575" lon="6.8147024709276804"><ele>1243.0</ele><time>2026-04-18T09:05:54Z</time></trkpt><trkpt lat="45.0020405780716" lon="6.814408466318065"><ele>1243.0</ele><time>2026-04-18T09:05:55Z</time></trkpt><trkpt lat="45.00195675263319" lon="6.814171059395674"><ele>1243.0</ele><time>2026-04-18T09:05:56Z</time></trkpt><trkpt lat="45.00188073828057" lon="6.813955774692188"><ele>1242.3333333333333</ele><time>2026-04-18T09:05:57Z</time></trkpt><trkpt lat="45.0018025771502" lon="6.813737462780241"><ele>1241.6666666666667</ele><time>2026-04-18T09:05:58Z</time></trkpt><trkpt lat="45.00172336582923" lon="6.813543050127334"><ele>1241.0</ele><time>2026-04-18T09:05:59Z</time></trkpt><trkpt lat="45.001620560232666" lon="6.813344225797251"><ele>1241.0</ele><time>2026-04-18T09:06:00Z</time></trkpt><trkpt lat="45.00151981394823" lon="6.813182576128873"><ele>1241.0</ele><time>2026-04-18T09:06:01Z</time></trkpt><trkpt lat="45.00138884652463" lon="6.813087782902599"><ele>1241.0</ele><time>2026-04-18T09:06:02Z</time></trkpt><trkpt lat="45.00123166039613" lon="6.81299173302563"><ele>1241.0</ele><time>2026-04-18T09:06:03Z</time></trkpt><trkpt lat="45.00107896011807" lon="6.8128713255549105"><ele>1241.0</ele><time>2026-04-18T09:06:04Z</time></trkpt><trkpt lat="45.00089107760055" lon="6.812765301351832"><ele>1241.0</ele><time>2026-04-18T09:06:05Z</time></trkpt><trkpt lat="45.00070655193027" lon="6.812645613921933"><ele>1237.6666666666667</ele><time>2026-04-18T09:06:06Z</time></trkpt><trkpt lat="45.000549903342296" lon="6.812540407872002"><ele>1234.3333333333333</ele><time>2026-04-18T09:06:07Z</time></trkpt><trkpt lat="45.00036938593743" lon="6.812426270080676"><ele>1231.0</ele><time>2026-04-18T09:06:08Z</time></trkpt><trkpt lat="45.000194983047635" lon="6.812360419991038"><ele>1231.0</ele><time>2026-04-18T09:06:09Z</time></trkpt><trkpt lat="45.00001993530304" lon="6.812244149206986"><ele>1231.0</ele><time>2026-04-18T09:06:10Z</time></trkpt><trkpt lat="44.99984333419916" lon="6.812173436907822"><ele>1231.0</ele><time>2026-04-18T09:06:11Z</time></trkpt><trkpt lat="44.99966321741884" lon="6.812111744757554"><ele>1231.0</ele><time>2026-04-18T09:06:12Z</time></trkpt><trkpt lat="44.999471275105996" lon="6.812045578371201"><ele>1231.0</ele><time>2026-04-18T09:06:13Z</time></trkpt><trkpt lat="44.999283684817016" lon="6.811975638881016"><ele>1231.0</ele><time>2026-04-18T09:06:14Z</time></trkpt><trkpt lat="44.99910717424234" lon="6.811909615401358"><ele>1225.6666666666665</ele><time>2026-04-18T09:06:15Z</time></trkpt><trkpt lat="44.998923494018285" lon="6.811843609160607"><ele>1220.3333333333333</ele><time>2026-04-18T09:06:16Z</time></trkpt><trkpt lat="44.99874564880917" lon="6.811796423086443"><ele>1215.0</ele><time>2026-04-18T09:06:17Z</time></trkpt><trkpt lat="44.9985715739864" lon="6.8117249431040765"><ele>1215.0</ele><time>2026-04-18T09:06:18Z</time></trkpt><trkpt lat="44.998405752056854" lon="6.81161478870342"><ele>1215.0</ele><time>2026-04-18T09:06:19Z</time></trkpt><trkpt lat="44.99824624994712" lon="6.811499102984497"><ele>1215.0</ele><time>2026-04-18T09:06:20Z</time></trkpt><trkpt lat="44.998108154052765" lon="6.81134708847847"><ele>1213.3333333333333</ele><time>2026-04-18T09:06:21Z</time></trkpt><trkpt lat="44.99797770283631" lon="6.811190684484793"><ele>1211.6666666666665</ele><time>2026-04-18T09:06:22Z</time></trkpt><trkpt lat="44.997846484005464" lon="6.811029283259073"><ele>1210.0</ele><time>2026-04-18T09:06:23Z</time></trkpt><trkpt lat="44.99768793256177" lon="6.810838037969069"><ele>1210.0</ele><time>2026-04-18T09:06:24Z</time></trkpt><trkpt lat="44.99754121107537" lon="6.81066444902622"><ele>1210.0</ele><time>2026-04-18T09:06:25Z</time></trkpt><trkpt lat="44.99738583143832" lon="6.810480498907599"><ele>1210.0</ele><time>2026-04-18T09:06:26Z</time></trkpt><trkpt lat="44.997211948762065" lon="6.810345973522596"><ele>1214.6666666666665</ele><time>2026-04-18T09:06:27Z</time></trkpt><trkpt lat="44.99707638981709" lon="6.810168196326863"><ele>1219.3333333333333</ele><time>2026-04-18T09:06:28Z</time></trkpt><trkpt lat="44.99694575242237" lon="6.810021897436915"><ele>1224.0</ele><time>2026-04-18T09:06:29Z</time></trkpt><trkpt lat="44.996815135590246" lon="6.809869101033407"><ele>1224.0</ele><time>2026-04-18T09:06:30Z</time></trkpt><trkpt lat="44.99670432305296" lon="6.809682679603242"><ele>1224.0</ele><time>2026-04-18T09:06:31Z</time></trkpt><trkpt lat="44.99658429721875" lon="6.809543278564811"><ele>1224.0</ele><time>2026-04-18T09:06:32Z</time></trkpt><trkpt lat="44.99645140441306" lon="6.809408114784033"><ele>1228.0</ele><time>2026-04-18T09:06:33Z</time></trkpt><trkpt lat="44.996337695497395" lon="6.809250689297655"><ele>1232.0</ele><time>2026-04-18T09:06:34Z</time></trkpt><trkpt lat="44.99619800209146" lon="6.80910931249491"><ele>1236.0</ele><time>2026-04-18T09:06:35Z</time></trkpt><trkpt lat="44.996073412792306" lon="6.8089534908999845"><ele>1236.0</ele><time>2026-04-18T09:06:36Z</time></trkpt><trkpt lat="44.99593852594335" lon="6.808812803172119"><ele>1236.0</ele><time>2026-04-18T09:06:37Z</time></trkpt><trkpt lat="44.99578291767074" lon="6.808692155567698"><ele>1236.0</ele><time>2026-04-18T09:06:38Z</time></trkpt><trkpt lat="44.99564056547359" lon="6.808575026717598"><ele>1232.3333333333333</ele><time>2026-04-18T09:06:39Z</time></trkpt><trkpt lat="44.99546868393145" lon="6.808506208998586"><ele>1228.6666666666665</ele><time>2026-04-18T09:06:40Z</time></trkpt><trkpt lat="44.99529915208276" lon="6.808392551158494"><ele>1225.0</ele><time>2026-04-18T09:06:41Z</time></trkpt><trkpt lat="44.99515051636542" lon="6.8082932549547905"><ele>1232.0</ele><time>2026-04-18T09:06:42Z</time></trkpt><trkpt lat="44.994990606869045" lon="6.808192239064234"><ele>1239.0</ele><time>2026-04-18T09:06:43Z</time></trkpt><trkpt lat="44.994837896855735" lon="6.808103683526736"><ele>1246.0</ele><time>2026-04-18T09:06:44Z</time></trkpt><trkpt lat="44.99466738743927" lon="6.808009486657508"><ele>1246.0</ele><time>2026-04-18T09:06:45Z</time></trkpt><trkpt lat="44.994488321754275" lon="6.807920993445884"><ele>1246.0</ele><time>2026-04-18T09:06:46Z</time></trkpt><trkpt lat="44.99431706214682" lon="6.807830800777821"><ele>1246.0</ele><time>2026-04-18T09:06:47Z</time></trkpt><trkpt lat="44.99414774884117" lon="6.807733235098564"><ele>1238.3333333333333</ele><time>2026-04-18T09:06:48Z</time></trkpt><trkpt lat="44.99397311224014" lon="6.80763169901783"><ele>1230.6666666666667</ele><time>2026-04-18T09:06:49Z</time></trkpt><trkpt lat="44.9938078112555" lon="6.807566572701184"><ele>1223.0</ele><time>2026-04-18T09:06:50Z</time></trkpt><trkpt lat="44.993625370439084" lon="6.807586246641684"><ele>1223.0</ele><time>2026-04-18T09:06:51Z</time></trkpt><trkpt lat="44.993427266415644" lon="6.807601630521186"><ele>1223.0</ele><time>2026-04-18T09:06:52Z</time></trkpt><trkpt lat="44.99324315932884" lon="6.807588365559666"><ele>1223.0</ele><time>2026-04-18T09:06:53Z</time></trkpt><trkpt lat="44.9930549877117" lon="6.807592029586264"><ele>1225.3333333333335</ele><time>2026-04-18T09:06:54Z</time></trkpt><trkpt lat="44.99287298725862" lon="6.807623620460741"><ele>1227.6666666666667</ele><time>2026-04-18T09:06:55Z</time></trkpt><trkpt lat="44.99268647229077" lon="6.807670233068012"><ele>1230.0</ele><time>2026-04-18T09:06:56Z</time></trkpt><trkpt lat="44.99249544365856" lon="6.807690538272529"><ele>1242.6666666666667</ele><time>2026-04-18T09:06:57Z</time></trkpt><trkpt lat="44.99230088999561" lon="6.80771121816774"><ele>1255.3333333333335</ele><time>2026-04-18T09:06:58Z</time></trkpt><trkpt lat="44.99210157563005" lon="6.80773240410328"><ele>1268.0</ele><time>2026-04-18T09:06:59Z</time></trkpt><trkpt lat="44.99189912966739" lon="6.807753922901331"><ele>1268.0</ele><time>2026-04-18T09:07:00Z</time></trkpt><trkpt lat="44.99171764173343" lon="6.8077914530347226"><ele>1268.0</ele><time>2026-04-18T09:07:01Z</time></trkpt><trkpt lat="44.99157008029972" lon="6.807849352056211"><ele>1268.0</ele><time>2026-04-18T09:07:02Z</time></trkpt><trkpt lat="44.99142031926481" lon="6.807955724731746"><ele>1264.6666666666667</ele><time>2026-04-18T09:07:03Z</time></trkpt><trkpt lat="44.99126746156657" lon="6.808048251496038"><ele>1261.3333333333333</ele><time>2026-04-18T09:07:04Z</time></trkpt><trkpt lat="44.99115526857503" lon="6.808152075447668"><ele>1258.0</ele><time>2026-04-18T09:07:05Z</time></trkpt><trkpt lat="44.99101357767868" lon="6.808260149690381"><ele>1258.0</ele><time>2026-04-18T09:07:06Z</time></trkpt><trkpt lat="44.99087267276535" lon="6.808354663539157"><ele>1258.0</ele><time>2026-04-18T09:07:07Z</time></trkpt><trkpt lat="44.99072157428506" lon="6.808427073389151"><ele>1258.0</ele><time>2026-04-18T09:07:08Z</time></trkpt><trkpt lat="44.99057180934957" lon="6.808476942943868"><ele>1252.0</ele><time>2026-04-18T09:07:09Z</time></trkpt><trkpt lat="44.990388815885886" lon="6.808509025979399"><ele>1246.0</ele><time>2026-04-18T09:07:10Z</time></trkpt><trkpt lat="44.990226404322186" lon="6.808512940880663"><ele>1240.0</ele><time>2026-04-18T09:07:11Z</time></trkpt><trkpt lat="44.99005381407133" lon="6.808492883051937"><ele>1241.0</ele><time>2026-04-18T09:07:12Z</time></trkpt><trkpt lat="44.98986989063721" lon="6.808452507987736"><ele>1242.0</ele><time>2026-04-18T09:07:13Z</time></trkpt><trkpt lat="44.98965344295258" lon="6.808400071034098"><ele>1243.0</ele><time>2026-04-18T09:07:14Z</time></trkpt><trkpt lat="44.98944234435142" lon="6.808344846360887"><ele>1243.0</ele><time>2026-04-18T09:07:15Z</time></trkpt><trkpt lat="44.98923948915817" lon="6.808291569941844"><ele>1243.0</ele><time>2026-04-18T09:07:16Z</time></trkpt><trkpt lat="44.989021964125996" lon="6.808234438624745"><ele>1243.0</ele><time>2026-04-18T09:07:17Z</time></trkpt><trkpt lat="44.988801695215415" lon="6.8081765866202275"><ele>1248.0</ele><time>2026-04-18T09:07:18Z</time></trkpt><trkpt lat="44.98856509891028" lon="6.808114789565981"><ele>1253.0</ele><time>2026-04-18T09:07:19Z</time></trkpt><trkpt lat="44.988281157912425" lon="6.808044572190569"><ele>1258.5</ele><time>2026-04-18T09:07:20Z</time></trkpt><trkpt lat="44.987970375205485" lon="6.807967405964742"><ele>1264.0</ele><time>2026-04-18T09:07:21Z</time></trkpt><trkpt lat="44.987716340748754" lon="6.807904041521702"><ele>1265.0</ele><time>2026-04-18T09:07:22Z</time></trkpt><trkpt lat="44.98749064248979" lon="6.807847745042399"><ele>1266.0</ele><time>2026-04-18T09:07:23Z</time></trkpt><trkpt lat="44.987280729780416" lon="6.8077947483812205"><ele>1267.0</ele><time>2026-04-18T09:07:24Z</time></trkpt><trkpt lat="44.98705647231436" lon="6.807737714689318"><ele>1267.0</ele><time>2026-04-18T09:07:25Z</time></trkpt><trkpt lat="44.98682629144184" lon="6.807675826935365"><ele>1267.0</ele><time>2026-04-18T09:07:26Z</time></trkpt><trkpt lat="44.98660773588473" lon="6.807602019490283"><ele>1259.3333333333333</ele><time>2026-04-18T09:07:27Z</time></trkpt><trkpt lat="44.98639867399799" lon="6.807498253854758"><ele>1251.6666666666667</ele><time>2026-04-18T09:07:28Z</time></trkpt><trkpt lat="44.98619717198027" lon="6.807398349477782"><ele>1244.0</ele><time>2026-04-18T09:07:29Z</time></trkpt><trkpt lat="44.986069202411585" lon="6.807334902416943"><ele>1244.0</ele><time>2026-04-18T09:07:30Z</time></trkpt><trkpt lat="44.98592776033055" lon="6.807264775629454"><ele>1244.0</ele><time>2026-04-18T09:07:31Z</time></trkpt><trkpt lat="44.98575579322284" lon="6.8071853762311045"><ele>1244.0</ele><time>2026-04-18T09:07:32Z</time></trkpt><trkpt lat="44.985583574829526" lon="6.807120094000374"><ele>1246.3333333333335</ele><time>2026-04-18T09:07:33Z</time></trkpt><trkpt lat="44.985424212283206" lon="6.807068511188455"><ele>1248.6666666666667</ele><time>2026-04-18T09:07:34Z</time></trkpt><trkpt lat="44.98527314532084" lon="6.807038426445309"><ele>1251.0</ele><time>2026-04-18T09:07:35Z</time></trkpt><trkpt lat="44.9851132642448" lon="6.806984493813196"><ele>1254.0</ele><time>2026-04-18T09:07:36Z</time></trkpt><trkpt lat="44.984956196263454" lon="6.806955750004902"><ele>1257.0</ele><time>2026-04-18T09:07:37Z</time></trkpt><trkpt lat="44.984805299788135" lon="6.806900235358576"><ele>1260.0</ele><time>2026-04-18T09:07:38Z</time></trkpt><trkpt lat="44.984640752240814" lon="6.806864273076014"><ele>1253.6666666666667</ele><time>2026-04-18T09:07:39Z</time></trkpt><trkpt lat="44.984506680831494" lon="6.806793616109935"><ele>1247.3333333333335</ele><time>2026-04-18T09:07:40Z</time></trkpt><trkpt lat="44.984352720170584" lon="6.806777902262489"><ele>1241.0</ele><time>2026-04-18T09:07:41Z</time></trkpt><trkpt lat="44.98419062350657" lon="6.806803530629781"><ele>1242.75</ele><time>2026-04-18T09:07:42Z</time></trkpt><trkpt lat="44.984058075327184" lon="6.8067983290728336"><ele>1244.5</ele><time>2026-04-18T09:07:43Z</time></trkpt><trkpt lat="44.98391469271953" lon="6.806817631982687"><ele>1246.25</ele><time>2026-04-18T09:07:44Z</time></trkpt><trkpt lat="44.98377562308255" lon="6.806828629022081"><ele>1248.0</ele><time>2026-04-18T09:07:45Z</time></trkpt><trkpt lat="44.983625547106904" lon="6.806857588872593"><ele>1248.0</ele><time>2026-04-18T09:07:46Z</time></trkpt><trkpt lat="44.983491560852165" lon="6.806796645295079"><ele>1248.0</ele><time>2026-04-18T09:07:47Z</time></trkpt><trkpt lat="44.98333506216023" lon="6.8067713475331955"><ele>1248.0</ele><time>2026-04-18T09:07:48Z</time></trkpt><trkpt lat="44.98316953375997" lon="6.80671443331006"><ele>1248.0</ele><time>2026-04-18T09:07:49Z</time></trkpt><trkpt lat="44.983044273171224" lon="6.80667445526957"><ele>1248.0</ele><time>2026-04-18T09:07:50Z</time></trkpt><trkpt lat="44.98292066979642" lon="6.806675698959128"><ele>1248.0</ele><time>2026-04-18T09:07:51Z</time></trkpt><trkpt lat="44.98280134977366" lon="6.806678682753946"><ele>1248.0</ele><time>2026-04-18T09:07:52Z</time></trkpt><trkpt lat="44.982682290320305" lon="6.806678816089591"><ele>1248.0</ele><time>2026-04-18T09:07:53Z</time></trkpt><trkpt lat="44.982560347534445" lon="6.806666381206696"><ele>1248.0</ele><time>2026-04-18T09:07:54Z</time></trkpt><trkpt lat="44.98242378040411" lon="6.806684243269549"><ele>1248.0</ele><time>2026-04-18T09:07:55Z</time></trkpt><trkpt lat="44.98228992197616" lon="6.806616298881118"><ele>1248.0</ele><time>2026-04-18T09:07:56Z</time></trkpt><trkpt lat="44.98216764320837" lon="6.806575260835848"><ele>1248.5</ele><time>2026-04-18T09:07:57Z</time></trkpt><trkpt lat="44.9820255330407" lon="6.8065226336876385"><ele>1249.0</ele><time>2026-04-18T09:07:58Z</time></trkpt><trkpt lat="44.98188710623631" lon="6.806468623951384"><ele>1249.5</ele><time>2026-04-18T09:07:59Z</time></trkpt><trkpt lat="44.98177492883634" lon="6.806424181132506"><ele>1250.0</ele><time>2026-04-18T09:08:00Z</time></trkpt><trkpt lat="44.9816470491843" lon="6.806359095208572"><ele>1248.5</ele><time>2026-04-18T09:08:01Z</time></trkpt><trkpt lat="44.98153031317958" lon="6.80626337319089"><ele>1247.0</ele><time>2026-04-18T09:08:02Z</time></trkpt><trkpt lat="44.981414437072736" lon="6.806149359355016"><ele>1245.5</ele><time>2026-04-18T09:08:03Z</time></trkpt><trkpt lat="44.98129087583405" lon="6.806040000083844"><ele>1244.0</ele><time>2026-04-18T09:08:04Z</time></trkpt><trkpt lat="44.981144845258626" lon="6.80594391032706"><ele>1244.0</ele><time>2026-04-18T09:08:05Z</time></trkpt><trkpt lat="44.98099700064216" lon="6.805880285774725"><ele>1244.0</ele><time>2026-04-18T09:08:06Z</time></trkpt><trkpt lat="44.98084868932662" lon="6.805837658784914"><ele>1244.0</ele><time>2026-04-18T09:08:07Z</time></trkpt><trkpt lat="44.9806738873419" lon="6.805793968992263"><ele>1249.3333333333335</ele><time>2026-04-18T09:08:08Z</time></trkpt><trkpt lat="44.980421481378535" lon="6.805748321742067"><ele>1254.6666666666667</ele><time>2026-04-18T09:08:09Z</time></trkpt><trkpt lat="44.9802613205841" lon="6.8057137169663635"><ele>1260.0</ele><time>2026-04-18T09:08:10Z</time></trkpt><trkpt lat="44.980102563750414" lon="6.805680102186785"><ele>1263.0</ele><time>2026-04-18T09:08:11Z</time></trkpt><trkpt lat="44.97992738844416" lon="6.805643011003872"><ele>1266.0</ele><time>2026-04-18T09:08:12Z</time></trkpt><trkpt lat="44.97975683833832" lon="6.805606901110112"><ele>1269.0</ele><time>2026-04-18T09:08:13Z</time></trkpt><trkpt lat="44.97960003259326" lon="6.805573316663518"><ele>1269.0</ele><time>2026-04-18T09:08:14Z</time></trkpt><trkpt lat="44.97945579966086" lon="6.805531749859401"><ele>1269.0</ele><time>2026-04-18T09:08:15Z</time></trkpt><trkpt lat="44.97932127931006" lon="6.805477508802944"><ele>1269.0</ele><time>2026-04-18T09:08:16Z</time></trkpt><trkpt lat="44.97918660127087" lon="6.805369595049097"><ele>1269.0</ele><time>2026-04-18T09:08:17Z</time></trkpt><trkpt lat="44.979037767951304" lon="6.805247139382943"><ele>1265.3333333333333</ele><time>2026-04-18T09:08:18Z</time></trkpt><trkpt lat="44.978917030780984" lon="6.805106913854306"><ele>1261.6666666666665</ele><time>2026-04-18T09:08:19Z</time></trkpt><trkpt lat="44.978802089803025" lon="6.804956928275035"><ele>1258.0</ele><time>2026-04-18T09:08:20Z</time></trkpt><trkpt lat="44.97867577052387" lon="6.804794376353359"><ele>1258.0</ele><time>2026-04-18T09:08:21Z</time></trkpt><trkpt lat="44.9785526759987" lon="6.804636479243726"><ele>1258.0</ele><time>2026-04-18T09:08:22Z</time></trkpt><trkpt lat="44.97843136623082" lon="6.804480871233526"><ele>1258.0</ele><time>2026-04-18T09:08:23Z</time></trkpt><trkpt lat="44.97830869374625" lon="6.804323515136499"><ele>1262.0</ele><time>2026-04-18T09:08:24Z</time></trkpt><trkpt lat="44.97819500712157" lon="6.804177685745525"><ele>1266.0</ele><time>2026-04-18T09:08:25Z</time></trkpt><trkpt lat="44.9780835616635" lon="6.804034315125807"><ele>1270.0</ele><time>2026-04-18T09:08:26Z</time></trkpt><trkpt lat="44.977968160616875" lon="6.8039058888299495"><ele>1270.0</ele><time>2026-04-18T09:08:27Z</time></trkpt><trkpt lat="44.9778630456991" lon="6.8037486611641524"><ele>1270.0</ele><time>2026-04-18T09:08:28Z</time></trkpt><trkpt lat="44.977739511490334" lon="6.803619311987046"><ele>1270.0</ele><time>2026-04-18T09:08:29Z</time></trkpt><trkpt lat="44.977622008716764" lon="6.803459534937912"><ele>1274.0</ele><time>2026-04-18T09:08:30Z</time></trkpt><trkpt lat="44.977508006480726" lon="6.803308338566124"><ele>1278.0</ele><time>2026-04-18T09:08:31Z</time></trkpt><trkpt lat="44.97738013974878" lon="6.803147191778061"><ele>1282.0</ele><time>2026-04-18T09:08:32Z</time></trkpt><trkpt lat="44.977268392927584" lon="6.803002462307828"><ele>1282.0</ele><time>2026-04-18T09:08:33Z</time></trkpt><trkpt lat="44.97717152603274" lon="6.802847577578669"><ele>1282.0</ele><time>2026-04-18T09:08:34Z</time></trkpt><trkpt lat="44.97708573293058" lon="6.802648311332304"><ele>1282.0</ele><time>2026-04-18T09:08:35Z</time></trkpt><trkpt lat="44.97701270910356" lon="6.802464518909332"><ele>1277.0</ele><time>2026-04-18T09:08:36Z</time></trkpt><trkpt lat="44.97695014065909" lon="6.802259515540144"><ele>1272.0</ele><time>2026-04-18T09:08:37Z</time></trkpt><trkpt lat="44.97688827668906" lon="6.802037204018032"><ele>1267.0</ele><time>2026-04-18T09:08:38Z</time></trkpt><trkpt lat="44.976829681269486" lon="6.801824967540871"><ele>1265.0</ele><time>2026-04-18T09:08:39Z</time></trkpt><trkpt lat="44.976767293304256" lon="6.801590535466361"><ele>1263.0</ele><time>2026-04-18T09:08:40Z</time></trkpt><trkpt lat="44.976707493090665" lon="6.801363970359007"><ele>1261.0</ele><time>2026-04-18T09:08:41Z</time></trkpt><trkpt lat="44.97665849133875" lon="6.8011783171373015"><ele>1265.75</ele><time>2026-04-18T09:08:42Z</time></trkpt><trkpt lat="44.97660918806149" lon="6.800996870138508"><ele>1270.5</ele><time>2026-04-18T09:08:43Z</time></trkpt><trkpt lat="44.97655307026596" lon="6.800798564958549"><ele>1275.25</ele><time>2026-04-18T09:08:44Z</time></trkpt><trkpt lat="44.97648275427816" lon="6.800603765521287"><ele>1280.0</ele><time>2026-04-18T09:08:45Z</time></trkpt><trkpt lat="44.97639383130879" lon="6.800415878728463"><ele>1280.0</ele><time>2026-04-18T09:08:46Z</time></trkpt><trkpt lat="44.97628491900402" lon="6.800244584145426"><ele>1280.0</ele><time>2026-04-18T09:08:47Z</time></trkpt><trkpt lat="44.97623918639536" lon="6.800056741243977"><ele>1280.0</ele><time>2026-04-18T09:08:48Z</time></trkpt><trkpt lat="44.97615348225989" lon="6.79989913551569"><ele>1280.0</ele><time>2026-04-18T09:08:49Z</time></trkpt><trkpt lat="44.976021658618244" lon="6.799809893538447"><ele>1282.0</ele><time>2026-04-18T09:08:50Z</time></trkpt><trkpt lat="44.97586542663466" lon="6.799704845118865"><ele>1284.0</ele><time>2026-04-18T09:08:51Z</time></trkpt><trkpt lat="44.975716090973094" lon="6.799637186940044"><ele>1286.0</ele><time>2026-04-18T09:08:52Z</time></trkpt><trkpt lat="44.97555549456629" lon="6.799582870837771"><ele>1286.0</ele><time>2026-04-18T09:08:53Z</time></trkpt><trkpt lat="44.975429492962604" lon="6.799543870282981"><ele>1286.0</ele><time>2026-04-18T09:08:54Z</time></trkpt><trkpt lat="44.97523610648673" lon="6.799509782298703"><ele>1286.0</ele><time>2026-04-18T09:08:55Z</time></trkpt><trkpt lat="44.97507142836609" lon="6.799501818334251"><ele>1292.0</ele><time>2026-04-18T09:08:56Z</time></trkpt><trkpt lat="44.97491136477369" lon="6.799463813392398"><ele>1298.0</ele><time>2026-04-18T09:08:57Z</time></trkpt><trkpt lat="44.97473945991011" lon="6.799423975056335"><ele>1304.0</ele><time>2026-04-18T09:08:58Z</time></trkpt><trkpt lat="44.97458832161701" lon="6.79936837082663"><ele>1298.3333333333335</ele><time>2026-04-18T09:08:59Z</time></trkpt><trkpt lat="44.97443014001854" lon="6.799322132407778"><ele>1292.6666666666667</ele><time>2026-04-18T09:09:00Z</time></trkpt><trkpt lat="44.97426476493645" lon="6.799284028035056"><ele>1287.0</ele><time>2026-04-18T09:09:01Z</time></trkpt><trkpt lat="44.97408458740108" lon="6.799246637694131"><ele>1287.0</ele><time>2026-04-18T09:09:02Z</time></trkpt><trkpt lat="44.97391693232057" lon="6.799181717389038"><ele>1287.0</ele><time>2026-04-18T09:09:03Z</time></trkpt><trkpt lat="44.97373995632561" lon="6.7991211434494945"><ele>1287.0</ele><time>2026-04-18T09:09:04Z</time></trkpt><trkpt lat="44.97356375580073" lon="6.799053492901907"><ele>1287.0</ele><time>2026-04-18T09:09:05Z</time></trkpt><trkpt lat="44.97337054010089" lon="6.799040406921416"><ele>1287.0</ele><time>2026-04-18T09:09:06Z</time></trkpt><trkpt lat="44.973214761063765" lon="6.798972597057117"><ele>1287.0</ele><time>2026-04-18T09:09:07Z</time></trkpt><trkpt lat="44.97305315622134" lon="6.798900491070896"><ele>1288.3333333333333</ele><time>2026-04-18T09:09:08Z</time></trkpt><trkpt lat="44.97288876591244" lon="6.798852162946651"><ele>1289.6666666666665</ele><time>2026-04-18T09:09:09.001Z</time></trkpt><trkpt lat="44.972722199472855" lon="6.798738593457505"><ele>1291.0</ele><time>2026-04-18T09:09:10.001Z</time></trkpt><trkpt lat="44.97256942134744" lon="6.798681553413081"><ele>1294.0</ele><time>2026-04-18T09:09:11.001Z</time></trkpt><trkpt lat="44.97240786780068" lon="6.798620895971377"><ele>1297.0</ele><time>2026-04-18T09:09:12.001Z</time></trkpt><trkpt lat="44.97225257124254" lon="6.798559624204762"><ele>1300.0</ele><time>2026-04-18T09:09:13.001Z</time></trkpt><trkpt lat="44.9720940938672" lon="6.798487849751259"><ele>1298.3333333333333</ele><time>2026-04-18T09:09:14.001Z</time></trkpt><trkpt lat="44.97193337060554" lon="6.79840660063605"><ele>1296.6666666666667</ele><time>2026-04-18T09:09:15.001Z</time></trkpt><trkpt lat="44.97178413856629" lon="6.798328008080844"><ele>1295.0</ele><time>2026-04-18T09:09:16.001Z</time></trkpt><trkpt lat="44.9716248813104" lon="6.798237716905611"><ele>1295.0</ele><time>2026-04-18T09:09:17Z</time></trkpt><trkpt lat="44.971465458293004" lon="6.798152281604148"><ele>1295.0</ele><time>2026-04-18T09:09:18Z</time></trkpt><trkpt lat="44.97130178977593" lon="6.7980669344377915"><ele>1295.0</ele><time>2026-04-18T09:09:19Z</time></trkpt><trkpt lat="44.971150507215086" lon="6.797996103102986"><ele>1295.0</ele><time>2026-04-18T09:09:20Z</time></trkpt><trkpt lat="44.97098758757515" lon="6.797954950206313"><ele>1295.0</ele><time>2026-04-18T09:09:21Z</time></trkpt><trkpt lat="44.970833715831276" lon="6.797972927244916"><ele>1295.0</ele><time>2026-04-18T09:09:22Z</time></trkpt><trkpt lat="44.97069033865074" lon="6.797951886546059"><ele>1297.5</ele><time>2026-04-18T09:09:23Z</time></trkpt><trkpt lat="44.97056868253809" lon="6.798021243940469"><ele>1300.0</ele><time>2026-04-18T09:09:24Z</time></trkpt><trkpt lat="44.970433510211066" lon="6.79812000897264"><ele>1302.5</ele><time>2026-04-18T09:09:25Z</time></trkpt><trkpt lat="44.97030457021188" lon="6.798249644504218"><ele>1305.0</ele><time>2026-04-18T09:09:26Z</time></trkpt><trkpt lat="44.97017400117228" lon="6.7983290031895125"><ele>1305.0</ele><time>2026-04-18T09:09:27Z</time></trkpt><trkpt lat="44.97003949545061" lon="6.798436655114549"><ele>1305.0</ele><time>2026-04-18T09:09:28Z</time></trkpt><trkpt lat="44.96990108467404" lon="6.7985443997051105"><ele>1305.0</ele><time>2026-04-18T09:09:29Z</time></trkpt><trkpt lat="44.96976183451026" lon="6.798551796660254"><ele>1311.0</ele><time>2026-04-18T09:09:30Z</time></trkpt><trkpt lat="44.9696119953873" lon="6.7985538273632375"><ele>1317.0</ele><time>2026-04-18T09:09:31Z</time></trkpt><trkpt lat="44.96942372483827" lon="6.798553413386309"><ele>1323.0</ele><time>2026-04-18T09:09:32Z</time></trkpt><trkpt lat="44.969267562847826" lon="6.79855307000403"><ele>1323.0</ele><time>2026-04-18T09:09:33Z</time></trkpt><trkpt lat="44.96910102907858" lon="6.7985527038224784"><ele>1323.0</ele><time>2026-04-18T09:09:34Z</time></trkpt><trkpt lat="44.96891245631882" lon="6.798552289180658"><ele>1323.0</ele><time>2026-04-18T09:09:35Z</time></trkpt><trkpt lat="44.9687660374839" lon="6.798551967220192"><ele>1323.0</ele><time>2026-04-18T09:09:36Z</time></trkpt><trkpt lat="44.96858827526615" lon="6.7985515763514295"><ele>1323.0</ele><time>2026-04-18T09:09:37Z</time></trkpt><trkpt lat="44.96843510086825" lon="6.798551072628363"><ele>1323.0</ele><time>2026-04-18T09:09:38Z</time></trkpt><trkpt lat="44.96828455514607" lon="6.79855025410481"><ele>1322.5</ele><time>2026-04-18T09:09:39Z</time></trkpt><trkpt lat="44.96815142651704" lon="6.798555777308739"><ele>1322.0</ele><time>2026-04-18T09:09:40Z</time></trkpt><trkpt lat="44.968010501849406" lon="6.798539369178503"><ele>1321.5</ele><time>2026-04-18T09:09:41Z</time></trkpt><trkpt lat="44.967852775848506" lon="6.7985314770744125"><ele>1321.0</ele><time>2026-04-18T09:09:42Z</time></trkpt><trkpt lat="44.96771899760444" lon="6.798458036035116"><ele>1317.3333333333333</ele><time>2026-04-18T09:09:43Z</time></trkpt><trkpt lat="44.96757864380892" lon="6.798381612531437"><ele>1313.6666666666667</ele><time>2026-04-18T09:09:44Z</time></trkpt><trkpt lat="44.967435458815906" lon="6.798265132694777"><ele>1310.0</ele><time>2026-04-18T09:09:45Z</time></trkpt><trkpt lat="44.96730485293648" lon="6.798135645564922"><ele>1310.0</ele><time>2026-04-18T09:09:46Z</time></trkpt><trkpt lat="44.96718281078829" lon="6.798001953575734"><ele>1310.0</ele><time>2026-04-18T09:09:47Z</time></trkpt><trkpt lat="44.96706402853888" lon="6.797886731175182"><ele>1310.0</ele><time>2026-04-18T09:09:48Z</time></trkpt><trkpt lat="44.96694424324881" lon="6.797765335587339"><ele>1310.0</ele><time>2026-04-18T09:09:49Z</time></trkpt><trkpt lat="44.966784972189025" lon="6.7976486899209405"><ele>1310.25</ele><time>2026-04-18T09:09:50Z</time></trkpt><trkpt lat="44.96667395902858" lon="6.797540524241016"><ele>1310.5</ele><time>2026-04-18T09:09:51Z</time></trkpt><trkpt lat="44.96654602727066" lon="6.797476199773173"><ele>1310.75</ele><time>2026-04-18T09:09:52Z</time></trkpt><trkpt lat="44.96640252858914" lon="6.797393154573097"><ele>1311.0</ele><time>2026-04-18T09:09:53Z</time></trkpt><trkpt lat="44.96624745292213" lon="6.797307520470222"><ele>1311.0</ele><time>2026-04-18T09:09:54Z</time></trkpt><trkpt lat="44.96609790904551" lon="6.7972250195913775"><ele>1311.0</ele><time>2026-04-18T09:09:55Z</time></trkpt><trkpt lat="44.965958814104056" lon="6.79713372530759"><ele>1311.0</ele><time>2026-04-18T09:09:56Z</time></trkpt><trkpt lat="44.96580420351016" lon="6.79703636429653"><ele>1312.3333333333333</ele><time>2026-04-18T09:09:57Z</time></trkpt><trkpt lat="44.9656552801966" lon="6.796943641398444"><ele>1313.6666666666665</ele><time>2026-04-18T09:09:58Z</time></trkpt><trkpt lat="44.96548685459247" lon="6.796856487827026"><ele>1315.0</ele><time>2026-04-18T09:09:59Z</time></trkpt><trkpt lat="44.965316582000796" lon="6.79674903757029"><ele>1314.6666666666665</ele><time>2026-04-18T09:10:00Z</time></trkpt><trkpt lat="44.965148255520404" lon="6.796640849045502"><ele>1314.3333333333333</ele><time>2026-04-18T09:10:01Z</time></trkpt><trkpt lat="44.96498760601244" lon="6.796533382639183"><ele>1314.0</ele><time>2026-04-18T09:10:02Z</time></trkpt><trkpt lat="44.964802388658946" lon="6.796450655338905"><ele>1314.0</ele><time>2026-04-18T09:10:03Z</time></trkpt><trkpt lat="44.96463624153437" lon="6.796346230952162"><ele>1314.0</ele><time>2026-04-18T09:10:04Z</time></trkpt><trkpt lat="44.96447658669409" lon="6.796229120947679"><ele>1314.0</ele><time>2026-04-18T09:10:05Z</time></trkpt><trkpt lat="44.96432285519686" lon="6.796128599824776"><ele>1315.0</ele><time>2026-04-18T09:10:06Z</time></trkpt><trkpt lat="44.96417029109839" lon="6.796038886000487"><ele>1316.0</ele><time>2026-04-18T09:10:07Z</time></trkpt><trkpt lat="44.96403328213299" lon="6.795951625057468"><ele>1317.0</ele><time>2026-04-18T09:10:08Z</time></trkpt><trkpt lat="44.9638805039452" lon="6.795887656057856"><ele>1317.0</ele><time>2026-04-18T09:10:09Z</time></trkpt><trkpt lat="44.96370219989448" lon="6.795906287075257"><ele>1317.0</ele><time>2026-04-18T09:10:10Z</time></trkpt><trkpt lat="44.96352760284636" lon="6.795926411327325"><ele>1317.0</ele><time>2026-04-18T09:10:11Z</time></trkpt><trkpt lat="44.963366219374365" lon="6.795935014998737"><ele>1319.3333333333333</ele><time>2026-04-18T09:10:12Z</time></trkpt><trkpt lat="44.963212277504574" lon="6.795936288899815"><ele>1321.6666666666665</ele><time>2026-04-18T09:10:13Z</time></trkpt><trkpt lat="44.96303078605137" lon="6.795998898105208"><ele>1324.0</ele><time>2026-04-18T09:10:14Z</time></trkpt><trkpt lat="44.962850090346585" lon="6.7960324142745066"><ele>1329.6666666666665</ele><time>2026-04-18T09:10:15Z</time></trkpt><trkpt lat="44.96268091471541" lon="6.796058156823517"><ele>1335.3333333333333</ele><time>2026-04-18T09:10:16Z</time></trkpt><trkpt lat="44.96250299752203" lon="6.7960742338368325"><ele>1341.0</ele><time>2026-04-18T09:10:17Z</time></trkpt><trkpt lat="44.9623279040857" lon="6.796087087169568"><ele>1343.3333333333333</ele><time>2026-04-18T09:10:18Z</time></trkpt><trkpt lat="44.9621612572712" lon="6.796070198628439"><ele>1345.6666666666665</ele><time>2026-04-18T09:10:19Z</time></trkpt><trkpt lat="44.96203590155997" lon="6.795993142004828"><ele>1348.0</ele><time>2026-04-18T09:10:20Z</time></trkpt><trkpt lat="44.96187234701877" lon="6.7959042362387425"><ele>1348.0</ele><time>2026-04-18T09:10:21Z</time></trkpt><trkpt lat="44.961720265053536" lon="6.795800402717232"><ele>1348.0</ele><time>2026-04-18T09:10:22Z</time></trkpt><trkpt lat="44.96158574528739" lon="6.795671701604877"><ele>1348.0</ele><time>2026-04-18T09:10:23Z</time></trkpt><trkpt lat="44.96147691958715" lon="6.79553813333978"><ele>1348.0</ele><time>2026-04-18T09:10:24Z</time></trkpt><trkpt lat="44.9613545639867" lon="6.795390453015182"><ele>1348.0</ele><time>2026-04-18T09:10:25Z</time></trkpt><trkpt lat="44.96123165531198" lon="6.795270676186125"><ele>1348.0</ele><time>2026-04-18T09:10:26Z</time></trkpt><trkpt lat="44.96111034993019" lon="6.795171041263976"><ele>1344.5</ele><time>2026-04-18T09:10:27Z</time></trkpt><trkpt lat="44.96097907805181" lon="6.795108403481195"><ele>1341.0</ele><time>2026-04-18T09:10:28Z</time></trkpt><trkpt lat="44.96086339516571" lon="6.795037576470447"><ele>1337.5</ele><time>2026-04-18T09:10:29Z</time></trkpt><trkpt lat="44.960739696388494" lon="6.794986419097486"><ele>1334.0</ele><time>2026-04-18T09:10:30Z</time></trkpt><trkpt lat="44.96065082924412" lon="6.794983198460201"><ele>1334.0</ele><time>2026-04-18T09:10:31Z</time></trkpt><trkpt lat="44.96046794591821" lon="6.795111708338586"><ele>1334.0</ele><time>2026-04-18T09:10:32Z</time></trkpt><trkpt lat="44.960303927466974" lon="6.795148509678152"><ele>1334.0</ele><time>2026-04-18T09:10:33Z</time></trkpt><trkpt lat="44.96015351826371" lon="6.795206697085199"><ele>1341.5</ele><time>2026-04-18T09:10:34Z</time></trkpt><trkpt lat="44.95999638285258" lon="6.795269273336721"><ele>1349.0</ele><time>2026-04-18T09:10:35Z</time></trkpt><trkpt lat="44.95987177483516" lon="6.795295800239227"><ele>1356.5</ele><time>2026-04-18T09:10:36Z</time></trkpt><trkpt lat="44.95971922387043" lon="6.795338627856245"><ele>1364.0</ele><time>2026-04-18T09:10:37Z</time></trkpt><trkpt lat="44.959573351152585" lon="6.795317152537112"><ele>1364.0</ele><time>2026-04-18T09:10:38Z</time></trkpt><trkpt lat="44.95940738022428" lon="6.795290384237128"><ele>1364.0</ele><time>2026-04-18T09:10:39Z</time></trkpt><trkpt lat="44.9592629455675" lon="6.7952700655396985"><ele>1364.0</ele><time>2026-04-18T09:10:40Z</time></trkpt><trkpt lat="44.95911199222265" lon="6.795245307920431"><ele>1363.25</ele><time>2026-04-18T09:10:41Z</time></trkpt><trkpt lat="44.95895931987607" lon="6.795214658983077"><ele>1362.5</ele><time>2026-04-18T09:10:42Z</time></trkpt><trkpt lat="44.95884564940138" lon="6.795184942713357"><ele>1361.75</ele><time>2026-04-18T09:10:43Z</time></trkpt><trkpt lat="44.95870274056474" lon="6.795138571588159"><ele>1361.0</ele><time>2026-04-18T09:10:44Z</time></trkpt><trkpt lat="44.95856322936987" lon="6.795072741285141"><ele>1355.75</ele><time>2026-04-18T09:10:45Z</time></trkpt><trkpt lat="44.958430186720925" lon="6.794991127318471"><ele>1350.5</ele><time>2026-04-18T09:10:46Z</time></trkpt><trkpt lat="44.95829758410011" lon="6.794903188432323"><ele>1345.25</ele><time>2026-04-18T09:10:47Z</time></trkpt><trkpt lat="44.95816147856302" lon="6.79480745436343"><ele>1340.0</ele><time>2026-04-18T09:10:48Z</time></trkpt><trkpt lat="44.95801739029264" lon="6.794704842470009"><ele>1340.0</ele><time>2026-04-18T09:10:49Z</time></trkpt><trkpt lat="44.957877374685694" lon="6.794604379141848"><ele>1340.0</ele><time>2026-04-18T09:10:50Z</time></trkpt><trkpt lat="44.95773640107966" lon="6.794500273326053"><ele>1340.0</ele><time>2026-04-18T09:10:51Z</time></trkpt><trkpt lat="44.95760656181434" lon="6.794404389864386"><ele>1340.6666666666667</ele><time>2026-04-18T09:10:52Z</time></trkpt><trkpt lat="44.95745954646353" lon="6.794296796261438"><ele>1341.3333333333333</ele><time>2026-04-18T09:10:53Z</time></trkpt><trkpt lat="44.95731190226695" lon="6.794189919484263"><ele>1342.0</ele><time>2026-04-18T09:10:54Z</time></trkpt><trkpt lat="44.95717339885933" lon="6.794082713378599"><ele>1342.0</ele><time>2026-04-18T09:10:55Z</time></trkpt><trkpt lat="44.95703952446394" lon="6.793963568604786"><ele>1342.0</ele><time>2026-04-18T09:10:56Z</time></trkpt><trkpt lat="44.95691110324072" lon="6.793843530242148"><ele>1342.0</ele><time>2026-04-18T09:10:57Z</time></trkpt><trkpt lat="44.95680799162721" lon="6.793661419089996"><ele>1342.6666666666665</ele><time>2026-04-18T09:10:58Z</time></trkpt><trkpt lat="44.95670686249735" lon="6.79350092197986"><ele>1343.3333333333333</ele><time>2026-04-18T09:10:59Z</time></trkpt><trkpt lat="44.95660507227195" lon="6.793337767827309"><ele>1344.0</ele><time>2026-04-18T09:11:00Z</time></trkpt><trkpt lat="44.956497156099324" lon="6.793181705657776"><ele>1344.0</ele><time>2026-04-18T09:11:01Z</time></trkpt><trkpt lat="44.95639790511408" lon="6.793073815089906"><ele>1344.0</ele><time>2026-04-18T09:11:02Z</time></trkpt><trkpt lat="44.95630647623066" lon="6.792965801410505"><ele>1344.0</ele><time>2026-04-18T09:11:03Z</time></trkpt><trkpt lat="44.9561845321715" lon="6.792926083908167"><ele>1344.0</ele><time>2026-04-18T09:11:04Z</time></trkpt><trkpt lat="44.95603926157923" lon="6.792944112151276"><ele>1344.0</ele><time>2026-04-18T09:11:05Z</time></trkpt><trkpt lat="44.955912980703275" lon="6.792920720837552"><ele>1344.0</ele><time>2026-04-18T09:11:06Z</time></trkpt><trkpt lat="44.95579730844854" lon="6.792915251217567"><ele>1344.0</ele><time>2026-04-18T09:11:07Z</time></trkpt><trkpt lat="44.95569563332647" lon="6.792906983435583"><ele>1344.0</ele><time>2026-04-18T09:11:08Z</time></trkpt><trkpt lat="44.95561493580257" lon="6.792906438721051"><ele>1344.0</ele><time>2026-04-18T09:11:09Z</time></trkpt><trkpt lat="44.955550853036996" lon="6.792904421793314"><ele>1343.1666666666667</ele><time>2026-04-18T09:11:10Z</time></trkpt><trkpt lat="44.95547008565137" lon="6.792914220562095"><ele>1342.3333333333333</ele><time>2026-04-18T09:11:11Z</time></trkpt><trkpt lat="44.9553560639689" lon="6.792903523093987"><ele>1341.5</ele><time>2026-04-18T09:11:13Z</time></trkpt><trkpt lat="44.955293781152406" lon="6.792866082745746"><ele>1340.6666666666665</ele><time>2026-04-18T09:11:15Z</time></trkpt><trkpt lat="44.95524210873271" lon="6.792768517550956"><ele>1339.8333333333333</ele><time>2026-04-18T09:11:16Z</time></trkpt><trkpt lat="44.955170410687465" lon="6.792682556840629"><ele>1339.0</ele><time>2026-04-18T09:11:17Z</time></trkpt><trkpt lat="44.95509722031485" lon="6.792594017503182"><ele>1339.6</ele><time>2026-04-18T09:11:18Z</time></trkpt><trkpt lat="44.95501078712089" lon="6.792488494798115"><ele>1340.2</ele><time>2026-04-18T09:11:19Z</time></trkpt><trkpt lat="44.954937900880836" lon="6.792399511141304"><ele>1340.8</ele><time>2026-04-18T09:11:20Z</time></trkpt><trkpt lat="44.95485964182968" lon="6.79230302190039"><ele>1341.3999999999999</ele><time>2026-04-18T09:11:21Z</time></trkpt><trkpt lat="44.95478581085609" lon="6.792211411755725"><ele>1342.0</ele><time>2026-04-18T09:11:22Z</time></trkpt><trkpt lat="44.95472720373232" lon="6.792137967862064"><ele>1342.0</ele><time>2026-04-18T09:11:23Z</time></trkpt><trkpt lat="44.954660507298584" lon="6.792052338324529"><ele>1342.0</ele><time>2026-04-18T09:11:24Z</time></trkpt><trkpt lat="44.954590533223964" lon="6.791960659209101"><ele>1342.0</ele><time>2026-04-18T09:11:25Z</time></trkpt><trkpt lat="44.95453162305371" lon="6.791882295761421"><ele>1342.0</ele><time>2026-04-18T09:11:26Z</time></trkpt><trkpt lat="44.95447399527203" lon="6.791785854156568"><ele>1342.0</ele><time>2026-04-18T09:11:27Z</time></trkpt><trkpt lat="44.95440805540461" lon="6.791695075877848"><ele>1342.0</ele><time>2026-04-18T09:11:28Z</time></trkpt><trkpt lat="44.95435192907417" lon="6.791592106348238"><ele>1342.1999999999998</ele><time>2026-04-18T09:11:29Z</time></trkpt><trkpt lat="44.95430788057404" lon="6.791484631920544"><ele>1342.4</ele><time>2026-04-18T09:11:30Z</time></trkpt><trkpt lat="44.95428992767737" lon="6.791360150022263"><ele>1342.6</ele><time>2026-04-18T09:11:31Z</time></trkpt><trkpt lat="44.95427200411584" lon="6.791239480872624"><ele>1342.8000000000002</ele><time>2026-04-18T09:11:32Z</time></trkpt><trkpt lat="44.95426826219008" lon="6.791093137476145"><ele>1343.0</ele><time>2026-04-18T09:11:33Z</time></trkpt><trkpt lat="44.95427358686923" lon="6.790948803568188"><ele>1343.0</ele><time>2026-04-18T09:11:34Z</time></trkpt><trkpt lat="44.95428365469353" lon="6.790827847328442"><ele>1343.0</ele><time>2026-04-18T09:11:35Z</time></trkpt><trkpt lat="44.95428402153416" lon="6.79070542262355"><ele>1343.0</ele><time>2026-04-18T09:11:36Z</time></trkpt><trkpt lat="44.95427914636235" lon="6.790600913524514"><ele>1343.0</ele><time>2026-04-18T09:11:37Z</time></trkpt><trkpt lat="44.95427135868995" lon="6.790498953686538"><ele>1343.0</ele><time>2026-04-18T09:11:38Z</time></trkpt><trkpt lat="44.95425316925711" lon="6.79040472557432"><ele>1343.0</ele><time>2026-04-18T09:11:39Z</time></trkpt><trkpt lat="44.954220704325586" lon="6.790311844517076"><ele>1343.3333333333335</ele><time>2026-04-18T09:11:40Z</time></trkpt><trkpt lat="44.95418956485336" lon="6.790227847277863"><ele>1343.6666666666667</ele><time>2026-04-18T09:11:41Z</time></trkpt><trkpt lat="44.954132184421574" lon="6.790142317943427"><ele>1344.0</ele><time>2026-04-18T09:11:42Z</time></trkpt><trkpt lat="44.95408437965883" lon="6.790080166193119"><ele>1344.3333333333333</ele><time>2026-04-18T09:11:43Z</time></trkpt><trkpt lat="44.953983811656" lon="6.789967180681092"><ele>1344.6666666666665</ele><time>2026-04-18T09:11:44Z</time></trkpt><trkpt lat="44.95389366853777" lon="6.789922034821216"><ele>1345.0</ele><time>2026-04-18T09:11:45Z</time></trkpt><trkpt lat="44.95379838235264" lon="6.789867050966483"><ele>1345.0</ele><time>2026-04-18T09:11:46Z</time></trkpt><trkpt lat="44.95369792776327" lon="6.789786429761329"><ele>1345.0</ele><time>2026-04-18T09:11:47Z</time></trkpt><trkpt lat="44.95360137406021" lon="6.789711588098183"><ele>1345.0</ele><time>2026-04-18T09:11:48Z</time></trkpt><trkpt lat="44.95352054581342" lon="6.789613008699737"><ele>1345.0</ele><time>2026-04-18T09:11:49Z</time></trkpt><trkpt lat="44.95342238218132" lon="6.78952541809758"><ele>1345.0</ele><time>2026-04-18T09:11:50Z</time></trkpt><trkpt lat="44.953330823924254" lon="6.789448412648051"><ele>1346.0</ele><time>2026-04-18T09:11:51Z</time></trkpt><trkpt lat="44.95323341317534" lon="6.789359076503272"><ele>1347.0</ele><time>2026-04-18T09:11:52Z</time></trkpt><trkpt lat="44.95311820259678" lon="6.789285758000821"><ele>1348.0</ele><time>2026-04-18T09:11:53Z</time></trkpt><trkpt lat="44.953036202447976" lon="6.789177314951437"><ele>1349.0</ele><time>2026-04-18T09:11:54Z</time></trkpt><trkpt lat="44.952938689681794" lon="6.789075690542413"><ele>1349.0</ele><time>2026-04-18T09:11:55Z</time></trkpt><trkpt lat="44.95286485624803" lon="6.788943986654696"><ele>1349.0</ele><time>2026-04-18T09:11:56Z</time></trkpt><trkpt lat="44.952798751409894" lon="6.788803427420909"><ele>1349.0</ele><time>2026-04-18T09:11:57Z</time></trkpt><trkpt lat="44.952741476662524" lon="6.788669590239361"><ele>1349.0</ele><time>2026-04-18T09:11:58Z</time></trkpt><trkpt lat="44.95267829247616" lon="6.788538048780592"><ele>1349.8000000000002</ele><time>2026-04-18T09:11:59Z</time></trkpt><trkpt lat="44.952619999865576" lon="6.788411573568636"><ele>1350.6000000000001</ele><time>2026-04-18T09:12:00Z</time></trkpt><trkpt lat="44.95257564298927" lon="6.788298898220152"><ele>1351.4</ele><time>2026-04-18T09:12:01Z</time></trkpt><trkpt lat="44.95252381328929" lon="6.788177074476619"><ele>1352.2</ele><time>2026-04-18T09:12:02Z</time></trkpt><trkpt lat="44.9524675829725" lon="6.788061971207025"><ele>1353.0</ele><time>2026-04-18T09:12:03Z</time></trkpt><trkpt lat="44.952410572952346" lon="6.78793598039263"><ele>1353.2</ele><time>2026-04-18T09:12:04Z</time></trkpt><trkpt lat="44.95236063248459" lon="6.787818235755308"><ele>1353.4</ele><time>2026-04-18T09:12:05Z</time></trkpt><trkpt lat="44.952303839838144" lon="6.787692440348017"><ele>1353.6000000000001</ele><time>2026-04-18T09:12:06Z</time></trkpt><trkpt lat="44.9522501868942" lon="6.7875607812985095"><ele>1353.8000000000002</ele><time>2026-04-18T09:12:07Z</time></trkpt><trkpt lat="44.95219412781573" lon="6.787437595116527"><ele>1354.0</ele><time>2026-04-18T09:12:08Z</time></trkpt><trkpt lat="44.95213490098835" lon="6.7873041987205225"><ele>1355.0</ele><time>2026-04-18T09:12:09Z</time></trkpt><trkpt lat="44.95207176633298" lon="6.787158327157871"><ele>1356.0</ele><time>2026-04-18T09:12:10Z</time></trkpt><trkpt lat="44.95201622325551" lon="6.787006587248491"><ele>1357.0</ele><time>2026-04-18T09:12:11Z</time></trkpt><trkpt lat="44.9519569956857" lon="6.7868278782347105"><ele>1358.0</ele><time>2026-04-18T09:12:12Z</time></trkpt><trkpt lat="44.95190711685108" lon="6.786667638280636"><ele>1362.5</ele><time>2026-04-18T09:12:13Z</time></trkpt><trkpt lat="44.951872284561325" lon="6.786468449385485"><ele>1367.0</ele><time>2026-04-18T09:12:14Z</time></trkpt><trkpt lat="44.95183072589431" lon="6.7863076532974125"><ele>1371.5</ele><time>2026-04-18T09:12:15Z</time></trkpt><trkpt lat="44.95179544329115" lon="6.786152604182331"><ele>1376.0</ele><time>2026-04-18T09:12:16Z</time></trkpt><trkpt lat="44.951763284381975" lon="6.78600876456064"><ele>1375.4</ele><time>2026-04-18T09:12:17Z</time></trkpt><trkpt lat="44.951723886917634" lon="6.7858705355001545"><ele>1374.8</ele><time>2026-04-18T09:12:18Z</time></trkpt><trkpt lat="44.95166870085095" lon="6.78573785502804"><ele>1374.2</ele><time>2026-04-18T09:12:19Z</time></trkpt><trkpt lat="44.95160572588871" lon="6.785599273965658"><ele>1373.6000000000001</ele><time>2026-04-18T09:12:20Z</time></trkpt><trkpt lat="44.95152314336883" lon="6.785495007964713"><ele>1373.0</ele><time>2026-04-18T09:12:21Z</time></trkpt><trkpt lat="44.951439224751546" lon="6.785397243945904"><ele>1373.0</ele><time>2026-04-18T09:12:22Z</time></trkpt><trkpt lat="44.95133333359626" lon="6.785297724712507"><ele>1373.0</ele><time>2026-04-18T09:12:23Z</time></trkpt><trkpt lat="44.951235238417716" lon="6.785244727915288"><ele>1373.0</ele><time>2026-04-18T09:12:24Z</time></trkpt><trkpt lat="44.95111011046333" lon="6.785180887743352"><ele>1373.0</ele><time>2026-04-18T09:12:25Z</time></trkpt><trkpt lat="44.95093684241331" lon="6.785208161377884"><ele>1372.25</ele><time>2026-04-18T09:12:26Z</time></trkpt><trkpt lat="44.95081204174353" lon="6.785205660104044"><ele>1371.5</ele><time>2026-04-18T09:12:27Z</time></trkpt><trkpt lat="44.950685612430824" lon="6.785277703738786"><ele>1370.75</ele><time>2026-04-18T09:12:28Z</time></trkpt><trkpt lat="44.950563104175075" lon="6.785327612211909"><ele>1370.0</ele><time>2026-04-18T09:12:29Z</time></trkpt><trkpt lat="44.95045410294142" lon="6.785406145820751"><ele>1370.0</ele><time>2026-04-18T09:12:30Z</time></trkpt><trkpt lat="44.95034953014092" lon="6.785512185761662"><ele>1370.0</ele><time>2026-04-18T09:12:31Z</time></trkpt><trkpt lat="44.95025541109089" lon="6.785610513481648"><ele>1370.0</ele><time>2026-04-18T09:12:32Z</time></trkpt><trkpt lat="44.95019041142585" lon="6.78578084323431"><ele>1370.0</ele><time>2026-04-18T09:12:33Z</time></trkpt><trkpt lat="44.950188444991646" lon="6.78598241645915"><ele>1368.5</ele><time>2026-04-18T09:12:34Z</time></trkpt><trkpt lat="44.95015416792552" lon="6.786184228845192"><ele>1367.0</ele><time>2026-04-18T09:12:35Z</time></trkpt><trkpt lat="44.95014236897979" lon="6.786364626754059"><ele>1365.5</ele><time>2026-04-18T09:12:36Z</time></trkpt><trkpt lat="44.95013732864616" lon="6.78657613548142"><ele>1364.0</ele><time>2026-04-18T09:12:37Z</time></trkpt><trkpt lat="44.95016208013467" lon="6.78676753299811"><ele>1364.3333333333335</ele><time>2026-04-18T09:12:38Z</time></trkpt><trkpt lat="44.95021455007604" lon="6.78698524773862"><ele>1364.6666666666667</ele><time>2026-04-18T09:12:39Z</time></trkpt><trkpt lat="44.950252716080556" lon="6.787197209393872"><ele>1365.0</ele><time>2026-04-18T09:12:40Z</time></trkpt><trkpt lat="44.950291461402045" lon="6.787412398271374"><ele>1365.0</ele><time>2026-04-18T09:12:41Z</time></trkpt><trkpt lat="44.95032050100322" lon="6.78759346837682"><ele>1365.0</ele><time>2026-04-18T09:12:42Z</time></trkpt><trkpt lat="44.95036774237395" lon="6.787767005545161"><ele>1365.0</ele><time>2026-04-18T09:12:43Z</time></trkpt><trkpt lat="44.9503895696043" lon="6.787936928278029"><ele>1365.0</ele><time>2026-04-18T09:12:44Z</time></trkpt><trkpt lat="44.95040100855328" lon="6.78810507087118"><ele>1365.4</ele><time>2026-04-18T09:12:45Z</time></trkpt><trkpt lat="44.95040409292131" lon="6.78822636741172"><ele>1365.8</ele><time>2026-04-18T09:12:46Z</time></trkpt><trkpt lat="44.950371362192854" lon="6.788385309718368"><ele>1366.1999999999998</ele><time>2026-04-18T09:12:47Z</time></trkpt><trkpt lat="44.95029994566462" lon="6.788522637965678"><ele>1366.6</ele><time>2026-04-18T09:12:48Z</time></trkpt><trkpt lat="44.95021912086558" lon="6.788649351118613"><ele>1367.0</ele><time>2026-04-18T09:12:49Z</time></trkpt><trkpt lat="44.9501292823834" lon="6.788745155391978"><ele>1372.25</ele><time>2026-04-18T09:12:50Z</time></trkpt><trkpt lat="44.94999731522642" lon="6.78877697765916"><ele>1377.5</ele><time>2026-04-18T09:12:51Z</time></trkpt><trkpt lat="44.94986740612341" lon="6.788823027929208"><ele>1382.75</ele><time>2026-04-18T09:12:52Z</time></trkpt><trkpt lat="44.949730772011144" lon="6.788818863324304"><ele>1388.0</ele><time>2026-04-18T09:12:53Z</time></trkpt><trkpt lat="44.9496295287881" lon="6.788759901407754"><ele>1388.0</ele><time>2026-04-18T09:12:54Z</time></trkpt><trkpt lat="44.949587123174986" lon="6.788666221042072"><ele>1388.0</ele><time>2026-04-18T09:12:55Z</time></trkpt><trkpt lat="44.94953507087849" lon="6.788562991272889"><ele>1388.0</ele><time>2026-04-18T09:12:56Z</time></trkpt><trkpt lat="44.949502314060204" lon="6.788450781213175"><ele>1388.0</ele><time>2026-04-18T09:12:57Z</time></trkpt><trkpt lat="44.94952694341354" lon="6.788313266098229"><ele>1388.0</ele><time>2026-04-18T09:12:58Z</time></trkpt><trkpt lat="44.949563121896794" lon="6.788170602806286"><ele>1388.5</ele><time>2026-04-18T09:12:59Z</time></trkpt><trkpt lat="44.94960244013159" lon="6.788049054298719"><ele>1389.0</ele><time>2026-04-18T09:13:00Z</time></trkpt><trkpt lat="44.94964698874134" lon="6.787903397610594"><ele>1389.5</ele><time>2026-04-18T09:13:01Z</time></trkpt><trkpt lat="44.949700316429336" lon="6.787698927720962"><ele>1390.0</ele><time>2026-04-18T09:13:02Z</time></trkpt><trkpt lat="44.94972646807305" lon="6.787495694402484"><ele>1390.0</ele><time>2026-04-18T09:13:03Z</time></trkpt><trkpt lat="44.949728997713564" lon="6.787274851461275"><ele>1390.0</ele><time>2026-04-18T09:13:04Z</time></trkpt><trkpt lat="44.949690001346525" lon="6.787078745389635"><ele>1390.0</ele><time>2026-04-18T09:13:05Z</time></trkpt><trkpt lat="44.94966968487059" lon="6.786856325369001"><ele>1389.0</ele><time>2026-04-18T09:13:06Z</time></trkpt><trkpt lat="44.94963486143271" lon="6.786674824289575"><ele>1388.0</ele><time>2026-04-18T09:13:07Z</time></trkpt><trkpt lat="44.9495271058905" lon="6.7865204506913255"><ele>1387.0</ele><time>2026-04-18T09:13:08Z</time></trkpt><trkpt lat="44.9494575696102" lon="6.786362482603507"><ele>1386.0</ele><time>2026-04-18T09:13:09Z</time></trkpt><trkpt lat="44.949375427509494" lon="6.786247716545399"><ele>1386.0</ele><time>2026-04-18T09:13:10Z</time></trkpt><trkpt lat="44.949219168096555" lon="6.786127351572941"><ele>1386.0</ele><time>2026-04-18T09:13:11Z</time></trkpt><trkpt lat="44.94911776046391" lon="6.7860524638775805"><ele>1386.0</ele><time>2026-04-18T09:13:12Z</time></trkpt><trkpt lat="44.94902336540788" lon="6.785969848631236"><ele>1386.0</ele><time>2026-04-18T09:13:13Z</time></trkpt><trkpt lat="44.94893066128402" lon="6.785940823522891"><ele>1390.8</ele><time>2026-04-18T09:13:14Z</time></trkpt><trkpt lat="44.94882280166362" lon="6.7858928609590565"><ele>1395.6</ele><time>2026-04-18T09:13:15Z</time></trkpt><trkpt lat="44.94872647488126" lon="6.785843515979115"><ele>1400.4</ele><time>2026-04-18T09:13:16Z</time></trkpt><trkpt lat="44.948631264496555" lon="6.785788701690434"><ele>1405.2</ele><time>2026-04-18T09:13:17Z</time></trkpt><trkpt lat="44.94853887786516" lon="6.7857486975097485"><ele>1410.0</ele><time>2026-04-18T09:13:18Z</time></trkpt><trkpt lat="44.94847125222033" lon="6.785686170547271"><ele>1410.0</ele><time>2026-04-18T09:13:19Z</time></trkpt><trkpt lat="44.94841335760505" lon="6.785613557392904"><ele>1410.0</ele><time>2026-04-18T09:13:20Z</time></trkpt><trkpt lat="44.94837627536742" lon="6.785519001546473"><ele>1410.0</ele><time>2026-04-18T09:13:21Z</time></trkpt><trkpt lat="44.948337686669966" lon="6.7853235969371894"><ele>1410.0</ele><time>2026-04-18T09:13:22Z</time></trkpt><trkpt lat="44.9483346349833" lon="6.785203706007208"><ele>1410.0</ele><time>2026-04-18T09:13:23Z</time></trkpt><trkpt lat="44.948387699056404" lon="6.785064125767138"><ele>1412.2</ele><time>2026-04-18T09:13:24Z</time></trkpt><trkpt lat="44.94844275256986" lon="6.784957217235562"><ele>1414.4</ele><time>2026-04-18T09:13:25Z</time></trkpt><trkpt lat="44.948515548013866" lon="6.784891025657613"><ele>1416.6</ele><time>2026-04-18T09:13:26Z</time></trkpt><trkpt lat="44.948581014162045" lon="6.784813592591307"><ele>1418.8</ele><time>2026-04-18T09:13:27Z</time></trkpt><trkpt lat="44.948682863137016" lon="6.784705453666375"><ele>1421.0</ele><time>2026-04-18T09:13:28Z</time></trkpt><trkpt lat="44.9487704183234" lon="6.784613092343381"><ele>1421.0</ele><time>2026-04-18T09:13:29Z</time></trkpt><trkpt lat="44.948871208787466" lon="6.784509861235016"><ele>1421.0</ele><time>2026-04-18T09:13:30Z</time></trkpt><trkpt lat="44.948990894690795" lon="6.784412931391726"><ele>1421.0</ele><time>2026-04-18T09:13:31Z</time></trkpt><trkpt lat="44.949115008286554" lon="6.784339915115359"><ele>1421.0</ele><time>2026-04-18T09:13:32Z</time></trkpt><trkpt lat="44.949214529501575" lon="6.784296059480368"><ele>1422.3333333333335</ele><time>2026-04-18T09:13:33Z</time></trkpt><trkpt lat="44.94934838925212" lon="6.784231328210518"><ele>1423.6666666666667</ele><time>2026-04-18T09:13:34Z</time></trkpt><trkpt lat="44.94948400038839" lon="6.7841422008895105"><ele>1425.0</ele><time>2026-04-18T09:13:35Z</time></trkpt><trkpt lat="44.949618432554765" lon="6.783989512655656"><ele>1425.0</ele><time>2026-04-18T09:13:36Z</time></trkpt><trkpt lat="44.94971625767442" lon="6.783849416300216"><ele>1425.0</ele><time>2026-04-18T09:13:37Z</time></trkpt><trkpt lat="44.949809723457115" lon="6.783695788997108"><ele>1425.0</ele><time>2026-04-18T09:13:38Z</time></trkpt><trkpt lat="44.94986224987815" lon="6.783518661321003"><ele>1425.0</ele><time>2026-04-18T09:13:39Z</time></trkpt><trkpt lat="44.94991198167457" lon="6.783312443173829"><ele>1426.5</ele><time>2026-04-18T09:13:40Z</time></trkpt><trkpt lat="44.94990293172058" lon="6.783067371623005"><ele>1428.0</ele><time>2026-04-18T09:13:41Z</time></trkpt><trkpt lat="44.949898926829555" lon="6.782881712685571"><ele>1429.5</ele><time>2026-04-18T09:13:42Z</time></trkpt><trkpt lat="44.94989007493718" lon="6.782691289158483"><ele>1431.0</ele><time>2026-04-18T09:13:43Z</time></trkpt><trkpt lat="44.949839597328584" lon="6.782485645819464"><ele>1431.0</ele><time>2026-04-18T09:13:44Z</time></trkpt><trkpt lat="44.949801900800075" lon="6.7822936038130095"><ele>1431.0</ele><time>2026-04-18T09:13:45Z</time></trkpt><trkpt lat="44.94973102161156" lon="6.782107270448432"><ele>1431.0</ele><time>2026-04-18T09:13:46Z</time></trkpt><trkpt lat="44.9496001620959" lon="6.781943700065045"><ele>1431.5</ele><time>2026-04-18T09:13:47Z</time></trkpt><trkpt lat="44.949526507673944" lon="6.781795623318096"><ele>1432.0</ele><time>2026-04-18T09:13:48Z</time></trkpt><trkpt lat="44.949453696289574" lon="6.781617554540487"><ele>1432.5</ele><time>2026-04-18T09:13:49Z</time></trkpt><trkpt lat="44.94938261875732" lon="6.78143989683205"><ele>1433.0</ele><time>2026-04-18T09:13:50Z</time></trkpt><trkpt lat="44.94932413587948" lon="6.78127398775072"><ele>1433.0</ele><time>2026-04-18T09:13:51Z</time></trkpt><trkpt lat="44.94926666024348" lon="6.78109849300383"><ele>1433.0</ele><time>2026-04-18T09:13:52Z</time></trkpt><trkpt lat="44.9492144082235" lon="6.780925282336023"><ele>1433.0</ele><time>2026-04-18T09:13:53Z</time></trkpt><trkpt lat="44.94915541406456" lon="6.780758366422427"><ele>1433.0</ele><time>2026-04-18T09:13:54Z</time></trkpt><trkpt lat="44.94912416604486" lon="6.780604343043069"><ele>1439.25</ele><time>2026-04-18T09:13:55Z</time></trkpt><trkpt lat="44.949075285790855" lon="6.780428251500436"><ele>1445.5</ele><time>2026-04-18T09:13:56Z</time></trkpt><trkpt lat="44.94905830814267" lon="6.780265199984655"><ele>1451.75</ele><time>2026-04-18T09:13:57Z</time></trkpt><trkpt lat="44.94900668170953" lon="6.780098295234429"><ele>1458.0</ele><time>2026-04-18T09:13:58Z</time></trkpt><trkpt lat="44.948967736015476" lon="6.779931872042181"><ele>1459.0</ele><time>2026-04-18T09:13:59Z</time></trkpt><trkpt lat="44.948891139421605" lon="6.7797693787255655"><ele>1460.0</ele><time>2026-04-18T09:14:00Z</time></trkpt><trkpt lat="44.948808983532565" lon="6.779620385952198"><ele>1461.0</ele><time>2026-04-18T09:14:01Z</time></trkpt><trkpt lat="44.9487499796527" lon="6.779495699962236"><ele>1462.0</ele><time>2026-04-18T09:14:02Z</time></trkpt><trkpt lat="44.948692493230276" lon="6.779369640065553"><ele>1464.3999999999999</ele><time>2026-04-18T09:14:03Z</time></trkpt><trkpt lat="44.948638816866726" lon="6.779256570424009"><ele>1466.8</ele><time>2026-04-18T09:14:04Z</time></trkpt><trkpt lat="44.94857621344404" lon="6.779137480611453"><ele>1469.2</ele><time>2026-04-18T09:14:05Z</time></trkpt><trkpt lat="44.948495149666726" lon="6.778993521416061"><ele>1471.6</ele><time>2026-04-18T09:14:06Z</time></trkpt><trkpt lat="44.94843375391507" lon="6.778866271566465"><ele>1474.0</ele><time>2026-04-18T09:14:07Z</time></trkpt><trkpt lat="44.94837721413012" lon="6.778729525478585"><ele>1475.6</ele><time>2026-04-18T09:14:08Z</time></trkpt><trkpt lat="44.948314483068536" lon="6.778600579116799"><ele>1477.2</ele><time>2026-04-18T09:14:09Z</time></trkpt><trkpt lat="44.94823121898843" lon="6.7784766136956005"><ele>1478.8</ele><time>2026-04-18T09:14:10Z</time></trkpt><trkpt lat="44.9481687998715" lon="6.778356865447188"><ele>1480.3999999999999</ele><time>2026-04-18T09:14:11Z</time></trkpt><trkpt lat="44.94810112556152" lon="6.778242372250966"><ele>1482.0</ele><time>2026-04-18T09:14:12Z</time></trkpt><trkpt lat="44.94802673091782" lon="6.778161226830433"><ele>1482.0</ele><time>2026-04-18T09:14:13Z</time></trkpt><trkpt lat="44.94793434194106" lon="6.778076337661796"><ele>1482.0</ele><time>2026-04-18T09:14:14Z</time></trkpt><trkpt lat="44.94783495012392" lon="6.777973661883058"><ele>1482.0</ele><time>2026-04-18T09:14:15Z</time></trkpt><trkpt lat="44.947735867018785" lon="6.777875062512978"><ele>1482.0</ele><time>2026-04-18T09:14:16Z</time></trkpt><trkpt lat="44.94763397998353" lon="6.777798014684756"><ele>1484.1999999999998</ele><time>2026-04-18T09:14:17Z</time></trkpt><trkpt lat="44.94753619017422" lon="6.777721074448043"><ele>1486.4</ele><time>2026-04-18T09:14:18Z</time></trkpt><trkpt lat="44.947449170474684" lon="6.777641845138295"><ele>1488.6</ele><time>2026-04-18T09:14:19Z</time></trkpt><trkpt lat="44.947348251732414" lon="6.7775619423744775"><ele>1490.8000000000002</ele><time>2026-04-18T09:14:20Z</time></trkpt><trkpt lat="44.94726345812501" lon="6.7774808823761665"><ele>1493.0</ele><time>2026-04-18T09:14:21Z</time></trkpt><trkpt lat="44.94717225281265" lon="6.777408837127327"><ele>1493.0</ele><time>2026-04-18T09:14:22Z</time></trkpt><trkpt lat="44.94711021627659" lon="6.7772956380132365"><ele>1493.0</ele><time>2026-04-18T09:14:23Z</time></trkpt><trkpt lat="44.947071027901266" lon="6.777152601761687"><ele>1493.0</ele><time>2026-04-18T09:14:24Z</time></trkpt><trkpt lat="44.94703212067152" lon="6.77700521135377"><ele>1493.0</ele><time>2026-04-18T09:14:25Z</time></trkpt><trkpt lat="44.947039194644894" lon="6.776852398379254"><ele>1493.0</ele><time>2026-04-18T09:14:26Z</time></trkpt><trkpt lat="44.947062411409085" lon="6.776672980351229"><ele>1496.3333333333335</ele><time>2026-04-18T09:14:27Z</time></trkpt><trkpt lat="44.947051667061125" lon="6.776496120558609"><ele>1499.6666666666667</ele><time>2026-04-18T09:14:28Z</time></trkpt><trkpt lat="44.947063650519965" lon="6.77627405924195"><ele>1503.0</ele><time>2026-04-18T09:14:29Z</time></trkpt><trkpt lat="44.94707305513769" lon="6.776030699057097"><ele>1504.3333333333333</ele><time>2026-04-18T09:14:30Z</time></trkpt><trkpt lat="44.94708160439603" lon="6.7758094731374126"><ele>1505.6666666666665</ele><time>2026-04-18T09:14:31Z</time></trkpt><trkpt lat="44.94709059555919" lon="6.775576811334464"><ele>1507.0</ele><time>2026-04-18T09:14:32Z</time></trkpt><trkpt lat="44.947100766137865" lon="6.775313631282651"><ele>1506.0</ele><time>2026-04-18T09:14:33Z</time></trkpt><trkpt lat="44.947111869399826" lon="6.77502631565846"><ele>1505.0</ele><time>2026-04-18T09:14:34Z</time></trkpt><trkpt lat="44.94712363967013" lon="6.774721740547129"><ele>1504.0</ele><time>2026-04-18T09:14:35Z</time></trkpt><trkpt lat="44.947119713852445" lon="6.7744515012029645"><ele>1503.0</ele><time>2026-04-18T09:14:36Z</time></trkpt><trkpt lat="44.94714590543401" lon="6.774145577234337"><ele>1502.0</ele><time>2026-04-18T09:14:37Z</time></trkpt><trkpt lat="44.94714230989768" lon="6.77387900556378"><ele>1501.0</ele><time>2026-04-18T09:14:38Z</time></trkpt><trkpt lat="44.94716635135473" lon="6.7736165047278325"><ele>1501.0</ele><time>2026-04-18T09:14:39Z</time></trkpt><trkpt lat="44.947177226957635" lon="6.773335080644876"><ele>1501.0</ele><time>2026-04-18T09:14:40Z</time></trkpt><trkpt lat="44.94717893528965" lon="6.773091992724841"><ele>1501.0</ele><time>2026-04-18T09:14:41Z</time></trkpt><trkpt lat="44.947179320325624" lon="6.772854499994229"><ele>1502.25</ele><time>2026-04-18T09:14:42Z</time></trkpt><trkpt lat="44.94719400692826" lon="6.77263303156315"><ele>1503.5</ele><time>2026-04-18T09:14:43Z</time></trkpt><trkpt lat="44.947201654499" lon="6.772422719329973"><ele>1504.75</ele><time>2026-04-18T09:14:44Z</time></trkpt><trkpt lat="44.94722936455513" lon="6.772254138062526"><ele>1506.0</ele><time>2026-04-18T09:14:45Z</time></trkpt><trkpt lat="44.9472606544042" lon="6.7721342223429986"><ele>1506.0</ele><time>2026-04-18T09:14:46Z</time></trkpt><trkpt lat="44.9473166237402" lon="6.77199934171958"><ele>1506.0</ele><time>2026-04-18T09:14:47Z</time></trkpt><trkpt lat="44.94740108663504" lon="6.771871885322704"><ele>1506.0</ele><time>2026-04-18T09:14:48Z</time></trkpt><trkpt lat="44.9475581426249" lon="6.771796896809429"><ele>1506.0</ele><time>2026-04-18T09:14:49Z</time></trkpt><trkpt lat="44.947667975088805" lon="6.771761467427227"><ele>1511.0</ele><time>2026-04-18T09:14:50Z</time></trkpt><trkpt lat="44.947805340908936" lon="6.771799173552475"><ele>1516.0</ele><time>2026-04-18T09:14:51Z</time></trkpt><trkpt lat="44.94791767696288" lon="6.771908800656562"><ele>1521.0</ele><time>2026-04-18T09:14:52Z</time></trkpt><trkpt lat="44.948014810496836" lon="6.772041591136821"><ele>1526.0</ele><time>2026-04-18T09:14:53Z</time></trkpt><trkpt lat="44.94810758600841" lon="6.772182394041791"><ele>1526.0</ele><time>2026-04-18T09:14:54Z</time></trkpt><trkpt lat="44.94820518404095" lon="6.772331428280642"><ele>1526.0</ele><time>2026-04-18T09:14:55Z</time></trkpt><trkpt lat="44.94829690907134" lon="6.772470502192777"><ele>1526.0</ele><time>2026-04-18T09:14:56Z</time></trkpt><trkpt lat="44.94839262164907" lon="6.772615621862343"><ele>1526.0</ele><time>2026-04-18T09:14:57.011Z</time></trkpt><trkpt lat="44.94848178783373" lon="6.772758805764682"><ele>1532.3333333333335</ele><time>2026-04-18T09:14:58.017Z</time></trkpt><trkpt lat="44.94857135182741" lon="6.772913789132883"><ele>1538.6666666666667</ele><time>2026-04-18T09:14:59.011Z</time></trkpt><trkpt lat="44.94863909999196" lon="6.773050279673791"><ele>1545.0</ele><time>2026-04-18T09:15:00.016Z</time></trkpt><trkpt lat="44.94907794356229" lon="6.774989169590486"><ele>1544.5</ele><time>2026-04-18T09:15:03.307Z</time></trkpt><trkpt lat="44.949187907527495" lon="6.775602960550854"><ele>1544.0</ele><time>2026-04-18T09:15:04.307Z</time></trkpt><trkpt lat="44.94937908839895" lon="6.775689208886377"><ele>1555.0</ele><time>2026-04-18T09:15:10.999Z</time></trkpt><trkpt lat="44.9494516859822" lon="6.7759318010963"><ele>1566.0</ele><time>2026-04-18T09:15:11.999Z</time></trkpt><trkpt lat="44.94959720281529" lon="6.776650668391169"><ele>1558.6666666666665</ele><time>2026-04-18T09:15:12.999Z</time></trkpt><trkpt lat="44.94972637811974" lon="6.776887103984786"><ele>1551.3333333333333</ele><time>2026-04-18T09:15:13.999Z</time></trkpt><trkpt lat="44.94982851398888" lon="6.777098580077946"><ele>1544.0</ele><time>2026-04-18T09:15:14.999Z</time></trkpt><trkpt lat="44.9499230760042" lon="6.777259631491909"><ele>1544.0</ele><time>2026-04-18T09:15:15.999Z</time></trkpt><trkpt lat="44.949994883060874" lon="6.777418592630537"><ele>1544.0</ele><time>2026-04-18T09:15:16.999Z</time></trkpt><trkpt lat="44.95011519298438" lon="6.777502955135317"><ele>1544.0</ele><time>2026-04-18T09:15:17.999Z</time></trkpt><trkpt lat="44.95026949945065" lon="6.777568349630952"><ele>1544.0</ele><time>2026-04-18T09:15:18.999Z</time></trkpt><trkpt lat="44.950457420911896" lon="6.7775694423666595"><ele>1552.0</ele><time>2026-04-18T09:15:19.999Z</time></trkpt><trkpt lat="44.95067050115477" lon="6.777523204716299"><ele>1560.0</ele><time>2026-04-18T09:15:20.999Z</time></trkpt><trkpt lat="44.95083050522994" lon="6.77757993590271"><ele>1568.0</ele><time>2026-04-18T09:15:21.999Z</time></trkpt><trkpt lat="44.95098235968103" lon="6.777668510108638"><ele>1567.6666666666665</ele><time>2026-04-18T09:15:22.999Z</time></trkpt><trkpt lat="44.95112228641147" lon="6.777803655605728"><ele>1567.3333333333335</ele><time>2026-04-18T09:15:23.999Z</time></trkpt><trkpt lat="44.9512537359229" lon="6.777935361684798"><ele>1567.0</ele><time>2026-04-18T09:15:24.999Z</time></trkpt><trkpt lat="44.95139077802343" lon="6.778083581839665"><ele>1567.0</ele><time>2026-04-18T09:15:25.999Z</time></trkpt><trkpt lat="44.95152327502436" lon="6.778251926247957"><ele>1567.0</ele><time>2026-04-18T09:15:27Z</time></trkpt><trkpt lat="44.95161212320936" lon="6.778429858366251"><ele>1567.0</ele><time>2026-04-18T09:15:28Z</time></trkpt><trkpt lat="44.95167255763604" lon="6.778602467125184"><ele>1573.75</ele><time>2026-04-18T09:15:29Z</time></trkpt><trkpt lat="44.95172541179621" lon="6.778793024083652"><ele>1580.5</ele><time>2026-04-18T09:15:30Z</time></trkpt><trkpt lat="44.951776573183764" lon="6.77899128576677"><ele>1587.25</ele><time>2026-04-18T09:15:31Z</time></trkpt><trkpt lat="44.951852534438125" lon="6.779163127877756"><ele>1594.0</ele><time>2026-04-18T09:15:32Z</time></trkpt><trkpt lat="44.951918230874305" lon="6.779281881200472"><ele>1594.0</ele><time>2026-04-18T09:15:33Z</time></trkpt><trkpt lat="44.952038509610645" lon="6.779306918514074"><ele>1594.0</ele><time>2026-04-18T09:15:34Z</time></trkpt><trkpt lat="44.952098025168624" lon="6.779214359909965"><ele>1594.0</ele><time>2026-04-18T09:15:36Z</time></trkpt><trkpt lat="44.95214725259332" lon="6.779119573182453"><ele>1594.0</ele><time>2026-04-18T09:15:37Z</time></trkpt><trkpt lat="44.95213908243759" lon="6.779017085329355"><ele>1594.0</ele><time>2026-04-18T09:15:38Z</time></trkpt><trkpt lat="44.952104444349104" lon="6.7786972717048375"><ele>1597.6666666666667</ele><time>2026-04-18T09:15:40Z</time></trkpt><trkpt lat="44.9520108730264" lon="6.77849194977818"><ele>1601.3333333333335</ele><time>2026-04-18T09:15:41Z</time></trkpt><trkpt lat="44.95192937741753" lon="6.778315388776413"><ele>1605.0</ele><time>2026-04-18T09:15:42Z</time></trkpt><trkpt lat="44.951838471555114" lon="6.778123912356811"><ele>1605.0</ele><time>2026-04-18T09:15:43Z</time></trkpt><trkpt lat="44.95174954462052" lon="6.777937275424068"><ele>1605.0</ele><time>2026-04-18T09:15:44Z</time></trkpt><trkpt lat="44.951633984834814" lon="6.777761445673389"><ele>1605.0</ele><time>2026-04-18T09:15:45Z</time></trkpt><trkpt lat="44.95150337874908" lon="6.777570999043977"><ele>1602.6666666666665</ele><time>2026-04-18T09:15:46Z</time></trkpt><trkpt lat="44.95138100550629" lon="6.77738477181741"><ele>1600.3333333333333</ele><time>2026-04-18T09:15:47Z</time></trkpt><trkpt lat="44.95121081345575" lon="6.777236772083073"><ele>1598.0</ele><time>2026-04-18T09:15:48Z</time></trkpt><trkpt lat="44.951087085621026" lon="6.777070151723766"><ele>1598.0</ele><time>2026-04-18T09:15:49Z</time></trkpt><trkpt lat="44.95096914449866" lon="6.776901199122934"><ele>1598.0</ele><time>2026-04-18T09:15:50Z</time></trkpt><trkpt lat="44.950879984570854" lon="6.776721389270704"><ele>1598.0</ele><time>2026-04-18T09:15:51Z</time></trkpt><trkpt lat="44.95080930223666" lon="6.776541191120896"><ele>1597.3333333333333</ele><time>2026-04-18T09:15:52Z</time></trkpt><trkpt lat="44.950747923784654" lon="6.776329920832318"><ele>1596.6666666666665</ele><time>2026-04-18T09:15:53Z</time></trkpt><trkpt lat="44.950694997153064" lon="6.776097740881652"><ele>1596.0</ele><time>2026-04-18T09:15:54Z</time></trkpt><trkpt lat="44.95072320622503" lon="6.775833362674293"><ele>1599.0</ele><time>2026-04-18T09:15:55Z</time></trkpt><trkpt lat="44.950764740908824" lon="6.775611931269856"><ele>1602.0</ele><time>2026-04-18T09:15:56Z</time></trkpt><trkpt lat="44.950791000709536" lon="6.775386645364431"><ele>1605.0</ele><time>2026-04-18T09:15:57Z</time></trkpt><trkpt lat="44.95083774538551" lon="6.775194255815851"><ele>1607.3333333333335</ele><time>2026-04-18T09:15:58Z</time></trkpt><trkpt lat="44.95085636758378" lon="6.77495754926159"><ele>1609.6666666666667</ele><time>2026-04-18T09:15:59Z</time></trkpt><trkpt lat="44.950881149896816" lon="6.77474045401189"><ele>1612.0</ele><time>2026-04-18T09:16:00Z</time></trkpt><trkpt lat="44.950907823083085" lon="6.774519443611588"><ele>1615.0</ele><time>2026-04-18T09:16:01.017Z</time></trkpt><trkpt lat="44.95094241544298" lon="6.774301236923432"><ele>1618.0</ele><time>2026-04-18T09:16:02.018Z</time></trkpt><trkpt lat="44.95070978365984" lon="6.774140837331998"><ele>1621.0</ele><time>2026-04-18T09:16:03.011Z</time></trkpt><trkpt lat="44.950688324242236" lon="6.773999058436483"><ele>1621.0</ele><time>2026-04-18T09:16:04.012Z</time></trkpt><trkpt lat="44.95065935168378" lon="6.773816330011507"><ele>1621.0</ele><time>2026-04-18T09:16:05.02Z</time></trkpt><trkpt lat="44.9504796133475" lon="6.7730326927508955"><ele>1626.0</ele><time>2026-04-18T09:16:08.309Z</time></trkpt><trkpt lat="44.95044468504804" lon="6.772814600370633"><ele>1631.0</ele><time>2026-04-18T09:16:09.309Z</time></trkpt><trkpt lat="44.95037270103584" lon="6.772616537457829"><ele>1636.0</ele><time>2026-04-18T09:16:10.305Z</time></trkpt><trkpt lat="44.95031215994035" lon="6.772410786217565"><ele>1642.3333333333335</ele><time>2026-04-18T09:16:11.309Z</time></trkpt><trkpt lat="44.95024897489649" lon="6.772207813589916"><ele>1648.6666666666665</ele><time>2026-04-18T09:16:12.308Z</time></trkpt><trkpt lat="44.95018312647437" lon="6.772006746866827"><ele>1655.0</ele><time>2026-04-18T09:16:13.306Z</time></trkpt><trkpt lat="44.95013112625017" lon="6.771796049816831"><ele>1661.3333333333333</ele><time>2026-04-18T09:16:14.306Z</time></trkpt><trkpt lat="44.95004968676437" lon="6.771605386627567"><ele>1667.6666666666665</ele><time>2026-04-18T09:16:15.304Z</time></trkpt><trkpt lat="44.949986945846774" lon="6.771401987378882"><ele>1674.0</ele><time>2026-04-18T09:16:16.304Z</time></trkpt><trkpt lat="44.949932724031335" lon="6.771193307529593"><ele>1664.0</ele><time>2026-04-18T09:16:17.307Z</time></trkpt><trkpt lat="44.949893875646396" lon="6.770978381903166"><ele>1654.0</ele><time>2026-04-18T09:16:18.307Z</time></trkpt><trkpt lat="44.94986197334716" lon="6.770761449363371"><ele>1644.0</ele><time>2026-04-18T09:16:19.306Z</time></trkpt><trkpt lat="44.949851067430004" lon="6.770539189468954"><ele>1644.0</ele><time>2026-04-18T09:16:20.305Z</time></trkpt><trkpt lat="44.94980808301774" lon="6.770324614788887"><ele>1644.0</ele><time>2026-04-18T09:16:21.305Z</time></trkpt><trkpt lat="44.94980503116533" lon="6.770101704000791"><ele>1644.0</ele><time>2026-04-18T09:16:22.305Z</time></trkpt><trkpt lat="44.949781990752086" lon="6.769880093679189"><ele>1652.5</ele><time>2026-04-18T09:16:23.309Z</time></trkpt><trkpt lat="44.94971888335233" lon="6.769673535009681"><ele>1661.0</ele><time>2026-04-18T09:16:24.305Z</time></trkpt><trkpt lat="44.943588470744736" lon="6.759308941103012"><ele>1701.5</ele><time>2026-04-18T09:17:42.999Z</time></trkpt><trkpt lat="44.943310220110575" lon="6.759129517560113"><ele>1742.0</ele><time>2026-04-18T09:17:43.999Z</time></trkpt><trkpt lat="44.943046608569034" lon="6.759029498012449"><ele>1742.0</ele><time>2026-04-18T09:17:44.999Z</time></trkpt><trkpt lat="44.94283333157963" lon="6.758883281581344"><ele>1742.0</ele><time>2026-04-18T09:17:45.999Z</time></trkpt><trkpt lat="44.94271044573208" lon="6.758741000312251"><ele>1742.0</ele><time>2026-04-18T09:17:46.999Z</time></trkpt><trkpt lat="44.94262360426086" lon="6.758611053361884"><ele>1743.75</ele><time>2026-04-18T09:17:48Z</time></trkpt><trkpt lat="44.94247337226029" lon="6.758489693680913"><ele>1745.5</ele><time>2026-04-18T09:17:49Z</time></trkpt><trkpt lat="44.94234205983476" lon="6.758351975096824"><ele>1747.25</ele><time>2026-04-18T09:17:50Z</time></trkpt><trkpt lat="44.94228314870883" lon="6.758256567814886"><ele>1749.0</ele><time>2026-04-18T09:17:51Z</time></trkpt><trkpt lat="44.94231462921795" lon="6.7579019598430055"><ele>1749.0</ele><time>2026-04-18T09:17:52Z</time></trkpt><trkpt lat="44.942362049753285" lon="6.757716150392319"><ele>1749.0</ele><time>2026-04-18T09:17:53Z</time></trkpt><trkpt lat="44.94207678242915" lon="6.757527953679516"><ele>1753.25</ele><time>2026-04-18T09:17:54Z</time></trkpt><trkpt lat="44.94207173592075" lon="6.757385175528337"><ele>1757.5</ele><time>2026-04-18T09:17:55Z</time></trkpt><trkpt lat="44.942068130850785" lon="6.757251203850101"><ele>1761.75</ele><time>2026-04-18T09:17:56Z</time></trkpt><trkpt lat="44.94206961508633" lon="6.757111750339693"><ele>1766.0</ele><time>2026-04-18T09:17:57Z</time></trkpt><trkpt lat="44.94235149102042" lon="6.757003838554136"><ele>1774.0</ele><time>2026-04-18T09:17:58Z</time></trkpt><trkpt lat="44.94234888266356" lon="6.756851916883833"><ele>1782.0</ele><time>2026-04-18T09:17:59.02Z</time></trkpt><trkpt lat="44.936162351671705" lon="6.744932456466919"><ele>1783.5</ele><time>2026-04-18T09:19:03Z</time></trkpt><trkpt lat="44.93609911039369" lon="6.744840383676758"><ele>1785.0</ele><time>2026-04-18T09:19:04Z</time></trkpt><trkpt lat="44.936027243295875" lon="6.7447598532371"><ele>1786.5</ele><time>2026-04-18T09:19:05Z</time></trkpt><trkpt lat="44.935907015810386" lon="6.744642229178389"><ele>1788.0</ele><time>2026-04-18T09:19:06Z</time></trkpt><trkpt lat="44.93580141553926" lon="6.7444596038958355"><ele>1790.0</ele><time>2026-04-18T09:19:07Z</time></trkpt><trkpt lat="44.93570754493777" lon="6.744264579866181"><ele>1792.0</ele><time>2026-04-18T09:19:08Z</time></trkpt><trkpt lat="44.935613847222754" lon="6.744100016773478"><ele>1794.0</ele><time>2026-04-18T09:19:09Z</time></trkpt><trkpt lat="44.93552950751197" lon="6.743980831070809"><ele>1796.0</ele><time>2026-04-18T09:19:10Z</time></trkpt><trkpt lat="44.93546225370671" lon="6.743845505616964"><ele>1796.0</ele><time>2026-04-18T09:19:11Z</time></trkpt><trkpt lat="44.935394935425634" lon="6.743677693807042"><ele>1796.0</ele><time>2026-04-18T09:19:12Z</time></trkpt><trkpt lat="44.93544724698235" lon="6.743385783716646"><ele>1796.0</ele><time>2026-04-18T09:19:13Z</time></trkpt><trkpt lat="44.93535542755993" lon="6.743197006581172"><ele>1797.5</ele><time>2026-04-18T09:19:14Z</time></trkpt><trkpt lat="44.93535405829548" lon="6.743001337470575"><ele>1799.0</ele><time>2026-04-18T09:19:15Z</time></trkpt><trkpt lat="44.935340521334574" lon="6.742815126745038"><ele>1800.5</ele><time>2026-04-18T09:19:16Z</time></trkpt><trkpt lat="44.935342698533134" lon="6.7426939951114395"><ele>1802.0</ele><time>2026-04-18T09:19:17Z</time></trkpt><trkpt lat="44.93527247933304" lon="6.742572831673715"><ele>1801.75</ele><time>2026-04-18T09:19:18Z</time></trkpt><trkpt lat="44.93518612533979" lon="6.742469611570709"><ele>1801.5</ele><time>2026-04-18T09:19:19Z</time></trkpt><trkpt lat="44.9351008826614" lon="6.742356407301481"><ele>1801.25</ele><time>2026-04-18T09:19:20Z</time></trkpt><trkpt lat="44.934996623854" lon="6.74225899861542"><ele>1801.0</ele><time>2026-04-18T09:19:21Z</time></trkpt><trkpt lat="44.93478430602784" lon="6.742242574954687"><ele>1801.0</ele><time>2026-04-18T09:19:22Z</time></trkpt><trkpt lat="44.93463384364899" lon="6.742236137783137"><ele>1801.0</ele><time>2026-04-18T09:19:23Z</time></trkpt><trkpt lat="44.93449763000879" lon="6.7421868407439085"><ele>1801.0</ele><time>2026-04-18T09:19:24Z</time></trkpt><trkpt lat="44.93437126207447" lon="6.742129034231389"><ele>1801.0</ele><time>2026-04-18T09:19:25Z</time></trkpt><trkpt lat="44.9342541214491" lon="6.742064046525048"><ele>1799.5</ele><time>2026-04-18T09:19:26Z</time></trkpt><trkpt lat="44.93415751502457" lon="6.741957797671447"><ele>1798.0</ele><time>2026-04-18T09:19:27Z</time></trkpt><trkpt lat="44.934101083113795" lon="6.741799025151315"><ele>1796.5</ele><time>2026-04-18T09:19:28Z</time></trkpt><trkpt lat="44.93403165833699" lon="6.741645602218802"><ele>1795.0</ele><time>2026-04-18T09:19:29Z</time></trkpt><trkpt lat="44.933972817626724" lon="6.7414574733933295"><ele>1798.5</ele><time>2026-04-18T09:19:30Z</time></trkpt><trkpt lat="44.93392814593336" lon="6.741268248433423"><ele>1802.0</ele><time>2026-04-18T09:19:30.999Z</time></trkpt><trkpt lat="44.93388689373722" lon="6.741105085790396"><ele>1805.5</ele><time>2026-04-18T09:19:31.999Z</time></trkpt><trkpt lat="44.93386110052229" lon="6.740950540786774"><ele>1809.0</ele><time>2026-04-18T09:19:32.999Z</time></trkpt><trkpt lat="44.93385564005062" lon="6.740810365903111"><ele>1811.0</ele><time>2026-04-18T09:19:33.999Z</time></trkpt><trkpt lat="44.93385175328953" lon="6.740705047696286"><ele>1813.0</ele><time>2026-04-18T09:19:34.999Z</time></trkpt><trkpt lat="44.93380641146792" lon="6.7405598812469245"><ele>1815.0</ele><time>2026-04-18T09:19:35.999Z</time></trkpt><trkpt lat="44.93375551787276" lon="6.740413819187734"><ele>1817.0</ele><time>2026-04-18T09:19:36.999Z</time></trkpt><trkpt lat="44.93370446095358" lon="6.74024429345396"><ele>1819.0</ele><time>2026-04-18T09:19:37.999Z</time></trkpt><trkpt lat="44.93368202218394" lon="6.740091313939498"><ele>1821.25</ele><time>2026-04-18T09:19:38.999Z</time></trkpt><trkpt lat="44.933638380923774" lon="6.73992841721738"><ele>1823.5</ele><time>2026-04-18T09:19:39.999Z</time></trkpt><trkpt lat="44.93360340762477" lon="6.7397495509295835"><ele>1825.75</ele><time>2026-04-18T09:19:40.999Z</time></trkpt><trkpt lat="44.93357464503145" lon="6.739562475544036"><ele>1828.0</ele><time>2026-04-18T09:19:41.999Z</time></trkpt><trkpt lat="44.93355403651186" lon="6.739341008508625"><ele>1829.75</ele><time>2026-04-18T09:19:42.999Z</time></trkpt><trkpt lat="44.933535374621535" lon="6.739123656920106"><ele>1831.5</ele><time>2026-04-18T09:19:43.999Z</time></trkpt><trkpt lat="44.933527575565165" lon="6.738919558419792"><ele>1833.25</ele><time>2026-04-18T09:19:44.999Z</time></trkpt><trkpt lat="44.93351834028959" lon="6.738720770358061"><ele>1835.0</ele><time>2026-04-18T09:19:45.999Z</time></trkpt><trkpt lat="44.933497948631114" lon="6.738534554966267"><ele>1837.75</ele><time>2026-04-18T09:19:46.999Z</time></trkpt><trkpt lat="44.933458377320534" lon="6.73833942667557"><ele>1840.5</ele><time>2026-04-18T09:19:47.999Z</time></trkpt><trkpt lat="44.933433247166604" lon="6.7381601554806565"><ele>1843.25</ele><time>2026-04-18T09:19:48.999Z</time></trkpt><trkpt lat="44.933383062836775" lon="6.737983952815808"><ele>1846.0</ele><time>2026-04-18T09:19:49.999Z</time></trkpt><trkpt lat="44.93335795453036" lon="6.737814078834397"><ele>1840.75</ele><time>2026-04-18T09:19:50.999Z</time></trkpt><trkpt lat="44.93332075644991" lon="6.737636869185861"><ele>1835.5</ele><time>2026-04-18T09:19:51.999Z</time></trkpt><trkpt lat="44.93327857156635" lon="6.737445686363964"><ele>1830.25</ele><time>2026-04-18T09:19:52.999Z</time></trkpt><trkpt lat="44.93323314108825" lon="6.737257841807022"><ele>1825.0</ele><time>2026-04-18T09:19:54Z</time></trkpt><trkpt lat="44.9331826226454" lon="6.7370837425191485"><ele>1825.0</ele><time>2026-04-18T09:19:55Z</time></trkpt><trkpt lat="44.93315893401538" lon="6.7369074704739464"><ele>1825.0</ele><time>2026-04-18T09:19:56Z</time></trkpt><trkpt lat="44.93313184539177" lon="6.736723080363854"><ele>1825.0</ele><time>2026-04-18T09:19:57Z</time></trkpt><trkpt lat="44.93309792017497" lon="6.736543980904338"><ele>1825.0</ele><time>2026-04-18T09:19:58Z</time></trkpt><trkpt lat="44.933060629287844" lon="6.736357891232512"><ele>1827.5</ele><time>2026-04-18T09:19:59Z</time></trkpt><trkpt lat="44.9330519840236" lon="6.736189074606176"><ele>1830.0</ele><time>2026-04-18T09:20:00Z</time></trkpt><trkpt lat="44.93306191811583" lon="6.736024234659146"><ele>1832.5</ele><time>2026-04-18T09:20:01Z</time></trkpt><trkpt lat="44.933080071955764" lon="6.735853949414966"><ele>1835.0</ele><time>2026-04-18T09:20:02Z</time></trkpt><trkpt lat="44.93308204190885" lon="6.735678465199015"><ele>1836.25</ele><time>2026-04-18T09:20:03Z</time></trkpt><trkpt lat="44.93309923420401" lon="6.735514714767581"><ele>1837.5</ele><time>2026-04-18T09:20:04Z</time></trkpt><trkpt lat="44.933111521254574" lon="6.73535557606304"><ele>1838.75</ele><time>2026-04-18T09:20:05Z</time></trkpt><trkpt lat="44.93312873084601" lon="6.73518630242515"><ele>1840.0</ele><time>2026-04-18T09:20:06Z</time></trkpt><trkpt lat="44.93315661900852" lon="6.735005305131115"><ele>1840.2</ele><time>2026-04-18T09:20:07Z</time></trkpt><trkpt lat="44.93317731060436" lon="6.734842244270383"><ele>1840.4</ele><time>2026-04-18T09:20:08Z</time></trkpt><trkpt lat="44.933210846196424" lon="6.734707387028415"><ele>1840.6</ele><time>2026-04-18T09:20:09Z</time></trkpt><trkpt lat="44.933244643433184" lon="6.73458842027101"><ele>1840.8</ele><time>2026-04-18T09:20:10Z</time></trkpt><trkpt lat="44.933306658913544" lon="6.734490608445526"><ele>1841.0</ele><time>2026-04-18T09:20:11Z</time></trkpt><trkpt lat="44.93336636983049" lon="6.734410093850059"><ele>1842.1666666666665</ele><time>2026-04-18T09:20:12Z</time></trkpt><trkpt lat="44.93342973611762" lon="6.734301584054306"><ele>1843.3333333333333</ele><time>2026-04-18T09:20:14Z</time></trkpt><trkpt lat="44.93349348220842" lon="6.73418667893248"><ele>1844.5</ele><time>2026-04-18T09:20:16Z</time></trkpt><trkpt lat="44.93355760926372" lon="6.734109090169629"><ele>1845.6666666666665</ele><time>2026-04-18T09:20:19Z</time></trkpt><trkpt lat="44.933607297756986" lon="6.734052366481297"><ele>1846.8333333333333</ele><time>2026-04-18T09:20:48Z</time></trkpt><trkpt lat="44.933662886739924" lon="6.733983427739502"><ele>1848.0</ele><time>2026-04-18T09:20:51Z</time></trkpt><trkpt lat="44.93368747651506" lon="6.733885352624504"><ele>1848.0</ele><time>2026-04-18T09:21:21Z</time></trkpt><trkpt lat="44.93375995683498" lon="6.733810244234694"><ele>1848.0</ele><time>2026-04-18T09:21:26Z</time></trkpt><trkpt lat="44.93380841943572" lon="6.733742506772275"><ele>1848.0</ele><time>2026-04-18T09:21:28Z</time></trkpt><trkpt lat="44.933892889768025" lon="6.733573344828282"><ele>1848.0</ele><time>2026-04-18T09:21:30Z</time></trkpt><trkpt lat="44.93390378282929" lon="6.733481010236242"><ele>1848.0</ele><time>2026-04-18T09:21:31Z</time></trkpt><trkpt lat="44.93393092061935" lon="6.733393953934544"><ele>1848.0</ele><time>2026-04-18T09:21:32Z</time></trkpt><trkpt lat="44.933947269204" lon="6.733281411471471"><ele>1848.0</ele><time>2026-04-18T09:21:33Z</time></trkpt><trkpt lat="44.93394590402775" lon="6.733163043789898"><ele>1848.0</ele><time>2026-04-18T09:21:34Z</time></trkpt><trkpt lat="44.933964325184085" lon="6.733024578672299"><ele>1848.0</ele><time>2026-04-18T09:21:35Z</time></trkpt><trkpt lat="44.93400011406066" lon="6.732909714007029"><ele>1848.0</ele><time>2026-04-18T09:21:36Z</time></trkpt><trkpt lat="44.934032338188565" lon="6.732795782489634"><ele>1848.0</ele><time>2026-04-18T09:21:37Z</time></trkpt><trkpt lat="44.934060497602424" lon="6.7326811768504715"><ele>1848.0</ele><time>2026-04-18T09:21:38Z</time></trkpt><trkpt lat="44.934072559537704" lon="6.732565541334239"><ele>1847.6000000000001</ele><time>2026-04-18T09:21:39Z</time></trkpt><trkpt lat="44.93410784358859" lon="6.732456452114941"><ele>1847.2000000000003</ele><time>2026-04-18T09:21:40Z</time></trkpt><trkpt lat="44.93414168636286" lon="6.73232273694141"><ele>1846.8</ele><time>2026-04-18T09:21:41Z</time></trkpt><trkpt lat="44.934163559869674" lon="6.732202011747611"><ele>1846.4</ele><time>2026-04-18T09:21:41.999Z</time></trkpt><trkpt lat="44.93418952685035" lon="6.73207456669559"><ele>1846.0</ele><time>2026-04-18T09:21:42.999Z</time></trkpt><trkpt lat="44.934209240328" lon="6.731945171147746"><ele>1846.0</ele><time>2026-04-18T09:21:43.999Z</time></trkpt><trkpt lat="44.93424017703259" lon="6.731800377796985"><ele>1846.0</ele><time>2026-04-18T09:21:44.999Z</time></trkpt><trkpt lat="44.934247406089106" lon="6.731642704297427"><ele>1846.0</ele><time>2026-04-18T09:21:45.999Z</time></trkpt><trkpt lat="44.934228791501134" lon="6.731487013300318"><ele>1846.0</ele><time>2026-04-18T09:21:46.999Z</time></trkpt><trkpt lat="44.93421580520298" lon="6.731339886582453"><ele>1846.0</ele><time>2026-04-18T09:21:47.999Z</time></trkpt><trkpt lat="44.934203578219574" lon="6.731188206223379"><ele>1846.0</ele><time>2026-04-18T09:21:48.999Z</time></trkpt><trkpt lat="44.934159062790236" lon="6.731057599557567"><ele>1846.0</ele><time>2026-04-18T09:21:49.999Z</time></trkpt><trkpt lat="44.934075544962525" lon="6.730920985365219"><ele>1846.0</ele><time>2026-04-18T09:21:50.999Z</time></trkpt><trkpt lat="44.93402224677629" lon="6.730760612523727"><ele>1846.0</ele><time>2026-04-18T09:21:51.999Z</time></trkpt><trkpt lat="44.933963698298875" lon="6.730587209353613"><ele>1846.5</ele><time>2026-04-18T09:21:52.999Z</time></trkpt><trkpt lat="44.933895036290025" lon="6.730442397665938"><ele>1847.0</ele><time>2026-04-18T09:21:53.999Z</time></trkpt><trkpt lat="44.933861699229766" lon="6.730278691567424"><ele>1847.5</ele><time>2026-04-18T09:21:54.999Z</time></trkpt><trkpt lat="44.93379803675494" lon="6.730148231380556"><ele>1848.0</ele><time>2026-04-18T09:21:55.999Z</time></trkpt><trkpt lat="44.93375545926084" lon="6.730019866255844"><ele>1849.2</ele><time>2026-04-18T09:21:56.999Z</time></trkpt><trkpt lat="44.93370235778857" lon="6.7298718092706755"><ele>1850.4</ele><time>2026-04-18T09:21:57.999Z</time></trkpt><trkpt lat="44.93365705272085" lon="6.729727128214797"><ele>1851.6000000000001</ele><time>2026-04-18T09:21:58.999Z</time></trkpt><trkpt lat="44.933615831740475" lon="6.729602872036375"><ele>1852.8000000000002</ele><time>2026-04-18T09:22:00Z</time></trkpt><trkpt lat="44.93356089156749" lon="6.729465322688973"><ele>1854.0</ele><time>2026-04-18T09:22:01Z</time></trkpt><trkpt lat="44.93351244382328" lon="6.729327238733931"><ele>1854.6</ele><time>2026-04-18T09:22:02Z</time></trkpt><trkpt lat="44.93346313414685" lon="6.729196742784073"><ele>1855.2</ele><time>2026-04-18T09:22:03Z</time></trkpt><trkpt lat="44.93341537245487" lon="6.729060907657675"><ele>1855.7999999999997</ele><time>2026-04-18T09:22:04Z</time></trkpt><trkpt lat="44.93335522691433" lon="6.728923349584563"><ele>1856.3999999999999</ele><time>2026-04-18T09:22:05Z</time></trkpt><trkpt lat="44.93328722571756" lon="6.728798304266463"><ele>1857.0</ele><time>2026-04-18T09:22:06Z</time></trkpt><trkpt lat="44.933222380040434" lon="6.728699627627191"><ele>1856.1666666666667</ele><time>2026-04-18T09:22:07Z</time></trkpt><trkpt lat="44.9331527963835" lon="6.728624622192421"><ele>1855.3333333333335</ele><time>2026-04-18T09:22:08Z</time></trkpt><trkpt lat="44.93308562623587" lon="6.728508863422949"><ele>1854.5</ele><time>2026-04-18T09:22:09Z</time></trkpt><trkpt lat="44.933023077973616" lon="6.728422715121709"><ele>1853.6666666666667</ele><time>2026-04-18T09:22:10Z</time></trkpt><trkpt lat="44.93296884489177" lon="6.728343562313697"><ele>1852.8333333333335</ele><time>2026-04-18T09:22:11Z</time></trkpt><trkpt lat="44.93294119840586" lon="6.728244020890212"><ele>1852.0</ele><time>2026-04-18T09:22:12Z</time></trkpt><trkpt lat="44.932918790661994" lon="6.728145027136075"><ele>1852.0</ele><time>2026-04-18T09:22:13Z</time></trkpt><trkpt lat="44.932895215475774" lon="6.728032079078874"><ele>1851.9999999999998</ele><time>2026-04-18T09:22:14Z</time></trkpt><trkpt lat="44.93287941099834" lon="6.727929200289946"><ele>1851.9999999999998</ele><time>2026-04-18T09:22:15Z</time></trkpt><trkpt lat="44.93278884633054" lon="6.727807137581141"><ele>1852.0</ele><time>2026-04-18T09:22:17Z</time></trkpt><trkpt lat="44.93271280490928" lon="6.727762751835655"><ele>1852.0</ele><time>2026-04-18T09:22:18Z</time></trkpt><trkpt lat="44.932613862934325" lon="6.727719888631163"><ele>1851.6</ele><time>2026-04-18T09:22:19Z</time></trkpt><trkpt lat="44.932527151236464" lon="6.727655741733441"><ele>1851.1999999999998</ele><time>2026-04-18T09:22:20Z</time></trkpt><trkpt lat="44.932450884441934" lon="6.727568229595961"><ele>1850.8</ele><time>2026-04-18T09:22:21Z</time></trkpt><trkpt lat="44.9323757431102" lon="6.727449834080939"><ele>1850.4</ele><time>2026-04-18T09:22:22Z</time></trkpt><trkpt lat="44.93229126018476" lon="6.727345336152103"><ele>1850.0</ele><time>2026-04-18T09:22:23Z</time></trkpt><trkpt lat="44.93220520227002" lon="6.7272379206646375"><ele>1850.0</ele><time>2026-04-18T09:22:24Z</time></trkpt><trkpt lat="44.93210362506819" lon="6.72713588919754"><ele>1850.0</ele><time>2026-04-18T09:22:25Z</time></trkpt><trkpt lat="44.932010679514896" lon="6.727006908710148"><ele>1850.0</ele><time>2026-04-18T09:22:26Z</time></trkpt><trkpt lat="44.93193101713309" lon="6.726873763067017"><ele>1850.0</ele><time>2026-04-18T09:22:27Z</time></trkpt><trkpt lat="44.93184708243035" lon="6.726736992500037"><ele>1850.25</ele><time>2026-04-18T09:22:28Z</time></trkpt><trkpt lat="44.931757575550925" lon="6.7265922525068245"><ele>1850.5</ele><time>2026-04-18T09:22:29Z</time></trkpt><trkpt lat="44.93166972307073" lon="6.726446554883186"><ele>1850.75</ele><time>2026-04-18T09:22:30Z</time></trkpt><trkpt lat="44.93157734127952" lon="6.726285006092311"><ele>1851.0</ele><time>2026-04-18T09:22:31Z</time></trkpt><trkpt lat="44.93149885218907" lon="6.726117818976223"><ele>1851.25</ele><time>2026-04-18T09:22:32Z</time></trkpt><trkpt lat="44.93141964037517" lon="6.72594680598371"><ele>1851.5</ele><time>2026-04-18T09:22:33Z</time></trkpt><trkpt lat="44.93133005298308" lon="6.725773037834389"><ele>1851.75</ele><time>2026-04-18T09:22:34Z</time></trkpt><trkpt lat="44.93126222539617" lon="6.725593201599275"><ele>1852.0</ele><time>2026-04-18T09:22:35Z</time></trkpt><trkpt lat="44.931177390782224" lon="6.725406776943222"><ele>1853.3333333333335</ele><time>2026-04-18T09:22:36Z</time></trkpt><trkpt lat="44.93109443108037" lon="6.725224570641138"><ele>1854.6666666666665</ele><time>2026-04-18T09:22:37.011Z</time></trkpt><trkpt lat="44.931035942361945" lon="6.725027868276335"><ele>1856.0</ele><time>2026-04-18T09:22:38.019Z</time></trkpt><trkpt lat="44.930914218698476" lon="6.724648068023339"><ele>1855.3333333333333</ele><time>2026-04-18T09:22:40.018Z</time></trkpt><trkpt lat="44.93086043517984" lon="6.724453224584469"><ele>1854.6666666666665</ele><time>2026-04-18T09:22:41.017Z</time></trkpt><trkpt lat="44.93081541333102" lon="6.7242621886466445"><ele>1854.0</ele><time>2026-04-18T09:22:42.017Z</time></trkpt><trkpt lat="44.930428986028495" lon="6.722255583616691"><ele>1854.5</ele><time>2026-04-18T09:22:45.305Z</time></trkpt><trkpt lat="44.93027306145589" lon="6.7216617014443205"><ele>1855.0</ele><time>2026-04-18T09:22:46.305Z</time></trkpt><trkpt lat="44.93008329467278" lon="6.721088055979337"><ele>1849.5</ele><time>2026-04-18T09:22:47.305Z</time></trkpt><trkpt lat="44.9299447" lon="6.7207223"><ele>1844.0</ele><time>2026-04-18T09:22:48.301Z</time></trkpt><trkpt lat="44.92969300873344" lon="6.7200571331449925"><ele>1843.75</ele><time>2026-04-18T09:23:04Z</time></trkpt><trkpt lat="44.92962373379797" lon="6.719983186894701"><ele>1843.5</ele><time>2026-04-18T09:23:05Z</time></trkpt><trkpt lat="44.929589139251036" lon="6.71978190573481"><ele>1843.25</ele><time>2026-04-18T09:23:06Z</time></trkpt><trkpt lat="44.929521788370344" lon="6.719611509719661"><ele>1843.0</ele><time>2026-04-18T09:23:07Z</time></trkpt><trkpt lat="44.929467846012464" lon="6.719475037287218"><ele>1842.8000000000002</ele><time>2026-04-18T09:23:08Z</time></trkpt><trkpt lat="44.929415332216045" lon="6.719343659736364"><ele>1842.6000000000001</ele><time>2026-04-18T09:23:09Z</time></trkpt><trkpt lat="44.92935076190309" lon="6.719228540330335"><ele>1842.3999999999999</ele><time>2026-04-18T09:23:10Z</time></trkpt><trkpt lat="44.9293359158044" lon="6.719103545706776"><ele>1842.1999999999998</ele><time>2026-04-18T09:23:11Z</time></trkpt><trkpt lat="44.92929135061867" lon="6.718969457109605"><ele>1842.0</ele><time>2026-04-18T09:23:12Z</time></trkpt><trkpt lat="44.929270503619534" lon="6.718854012032003"><ele>1842.0000000000002</ele><time>2026-04-18T09:23:13Z</time></trkpt><trkpt lat="44.92925641090088" lon="6.718757923500812"><ele>1842.0</ele><time>2026-04-18T09:23:14Z</time></trkpt><trkpt lat="44.92922487748745" lon="6.718660833834008"><ele>1842.0000000000002</ele><time>2026-04-18T09:23:15Z</time></trkpt><trkpt lat="44.92919777479032" lon="6.7185554424077205"><ele>1842.0000000000002</ele><time>2026-04-18T09:23:16Z</time></trkpt><trkpt lat="44.929168759486544" lon="6.718457323580126"><ele>1842.0</ele><time>2026-04-18T09:23:17Z</time></trkpt><trkpt lat="44.92915179637104" lon="6.718352814878863"><ele>1842.0000000000002</ele><time>2026-04-18T09:23:18Z</time></trkpt><trkpt lat="44.929149970238015" lon="6.718249243454682"><ele>1842.0000000000002</ele><time>2026-04-18T09:23:19Z</time></trkpt><trkpt lat="44.92914872606771" lon="6.718150962774006"><ele>1841.3333333333333</ele><time>2026-04-18T09:23:19.999Z</time></trkpt><trkpt lat="44.92915178876831" lon="6.718051441980321"><ele>1840.6666666666665</ele><time>2026-04-18T09:23:20.999Z</time></trkpt><trkpt lat="44.92917101736245" lon="6.717948781370324"><ele>1840.0</ele><time>2026-04-18T09:23:21.999Z</time></trkpt><trkpt lat="44.92918798297923" lon="6.717848199137401"><ele>1839.3333333333333</ele><time>2026-04-18T09:23:22.999Z</time></trkpt><trkpt lat="44.929211197480065" lon="6.717720024528469"><ele>1838.6666666666665</ele><time>2026-04-18T09:23:23.999Z</time></trkpt><trkpt lat="44.92921375186504" lon="6.717598230295115"><ele>1838.0</ele><time>2026-04-18T09:23:24.999Z</time></trkpt><trkpt lat="44.92922685559993" lon="6.717479169045656"><ele>1837.9999999999998</ele><time>2026-04-18T09:23:25.999Z</time></trkpt><trkpt lat="44.92922758569403" lon="6.7173605570350166"><ele>1838.0</ele><time>2026-04-18T09:23:26.999Z</time></trkpt><trkpt lat="44.92923528872138" lon="6.717234583905091"><ele>1838.0</ele><time>2026-04-18T09:23:27.999Z</time></trkpt><trkpt lat="44.92922757178475" lon="6.717098523289966"><ele>1838.0</ele><time>2026-04-18T09:23:28.999Z</time></trkpt><trkpt lat="44.92921591480253" lon="6.716986904181164"><ele>1837.9999999999998</ele><time>2026-04-18T09:23:29.999Z</time></trkpt><trkpt lat="44.9291886762894" lon="6.716890299762612"><ele>1838.0</ele><time>2026-04-18T09:23:30.999Z</time></trkpt><trkpt lat="44.92917817025518" lon="6.71680097136958"><ele>1835.1666666666665</ele><time>2026-04-18T09:23:31.999Z</time></trkpt><trkpt lat="44.929149098814555" lon="6.716629706653863"><ele>1832.3333333333333</ele><time>2026-04-18T09:23:33.999Z</time></trkpt><trkpt lat="44.92913420838309" lon="6.716533917993979"><ele>1829.5</ele><time>2026-04-18T09:23:34.999Z</time></trkpt><trkpt lat="44.929126531990086" lon="6.716439747958369"><ele>1826.6666666666665</ele><time>2026-04-18T09:23:35.999Z</time></trkpt><trkpt lat="44.92912033339535" lon="6.716349958410442"><ele>1823.8333333333333</ele><time>2026-04-18T09:23:36.999Z</time></trkpt><trkpt lat="44.929099684803255" lon="6.716235589537104"><ele>1821.0</ele><time>2026-04-18T09:23:37.999Z</time></trkpt><trkpt lat="44.92907843794591" lon="6.716124788119399"><ele>1820.5</ele><time>2026-04-18T09:23:38.999Z</time></trkpt><trkpt lat="44.929050487927256" lon="6.716006817501656"><ele>1820.0</ele><time>2026-04-18T09:23:39.999Z</time></trkpt><trkpt lat="44.9290390351191" lon="6.715894829251214"><ele>1819.5</ele><time>2026-04-18T09:23:40.999Z</time></trkpt><trkpt lat="44.92901844320637" lon="6.715780262793834"><ele>1819.0</ele><time>2026-04-18T09:23:41.999Z</time></trkpt><trkpt lat="44.92899081350332" lon="6.715659150448857"><ele>1818.5</ele><time>2026-04-18T09:23:42.999Z</time></trkpt><trkpt lat="44.92897123744377" lon="6.715550137846231"><ele>1818.0</ele><time>2026-04-18T09:23:43.999Z</time></trkpt><trkpt lat="44.92896181446131" lon="6.715451667575331"><ele>1818.0</ele><time>2026-04-18T09:23:44.999Z</time></trkpt><trkpt lat="44.92894916688443" lon="6.715358417608629"><ele>1818.0000000000002</ele><time>2026-04-18T09:23:45.999Z</time></trkpt><trkpt lat="44.92892142720817" lon="6.715210376197448"><ele>1818.0000000000002</ele><time>2026-04-18T09:23:47.999Z</time></trkpt><trkpt lat="44.92890330815214" lon="6.715062108038439"><ele>1818.0</ele><time>2026-04-18T09:23:49.999Z</time></trkpt><trkpt lat="44.92888018548294" lon="6.7149488044469825"><ele>1818.0</ele><time>2026-04-18T09:23:50.999Z</time></trkpt><trkpt lat="44.92886934678239" lon="6.7147896441835195"><ele>1816.0</ele><time>2026-04-18T09:23:51.999Z</time></trkpt><trkpt lat="44.928847962288756" lon="6.714590219507276"><ele>1814.0</ele><time>2026-04-18T09:23:52.999Z</time></trkpt><trkpt lat="44.92881436680747" lon="6.714363173403146"><ele>1812.0</ele><time>2026-04-18T09:23:53.999Z</time></trkpt><trkpt lat="44.928774643972474" lon="6.714119414847827"><ele>1811.3333333333335</ele><time>2026-04-18T09:23:54.999Z</time></trkpt><trkpt lat="44.928717475441985" lon="6.713825640619667"><ele>1810.6666666666667</ele><time>2026-04-18T09:23:55.999Z</time></trkpt><trkpt lat="44.928693256011634" lon="6.713579955790813"><ele>1810.0</ele><time>2026-04-18T09:23:56.999Z</time></trkpt><trkpt lat="44.92862938445781" lon="6.713334238906211"><ele>1809.6666666666667</ele><time>2026-04-18T09:23:57.999Z</time></trkpt><trkpt lat="44.92854623635839" lon="6.713075329192474"><ele>1809.3333333333335</ele><time>2026-04-18T09:23:58.999Z</time></trkpt><trkpt lat="44.92845518526119" lon="6.712817988369225"><ele>1809.0</ele><time>2026-04-18T09:23:59.999Z</time></trkpt><trkpt lat="44.928361630903716" lon="6.712563883320104"><ele>1805.0</ele><time>2026-04-18T09:24:00.999Z</time></trkpt><trkpt lat="44.928263154838326" lon="6.712311594947722"><ele>1801.0</ele><time>2026-04-18T09:24:01.999Z</time></trkpt><trkpt lat="44.92817662662552" lon="6.71205098453203"><ele>1797.0</ele><time>2026-04-18T09:24:02.999Z</time></trkpt><trkpt lat="44.92809208155702" lon="6.711791838950315"><ele>1797.0</ele><time>2026-04-18T09:24:03.999Z</time></trkpt><trkpt lat="44.928001091600876" lon="6.71152822700173"><ele>1797.0</ele><time>2026-04-18T09:24:04.999Z</time></trkpt><trkpt lat="44.927919097299984" lon="6.711273883604761"><ele>1797.0</ele><time>2026-04-18T09:24:06Z</time></trkpt><trkpt lat="44.92783659675002" lon="6.711025746001412"><ele>1797.0</ele><time>2026-04-18T09:24:07Z</time></trkpt><trkpt lat="44.92776164094922" lon="6.710783735882289"><ele>1797.0</ele><time>2026-04-18T09:24:08Z</time></trkpt><trkpt lat="44.92768810764893" lon="6.710539252103373"><ele>1797.0</ele><time>2026-04-18T09:24:09Z</time></trkpt><trkpt lat="44.927632973046165" lon="6.710293080207058"><ele>1797.6666666666665</ele><time>2026-04-18T09:24:10Z</time></trkpt><trkpt lat="44.92759229512783" lon="6.710049293102743"><ele>1798.3333333333333</ele><time>2026-04-18T09:24:11Z</time></trkpt><trkpt lat="44.92752769082525" lon="6.709834887059483"><ele>1799.0</ele><time>2026-04-18T09:24:12Z</time></trkpt><trkpt lat="44.927445949469885" lon="6.7096144381520935"><ele>1793.0</ele><time>2026-04-18T09:24:13Z</time></trkpt><trkpt lat="44.92733855825413" lon="6.709428524653141"><ele>1787.0</ele><time>2026-04-18T09:24:14Z</time></trkpt><trkpt lat="44.92725109341644" lon="6.709229016125741"><ele>1781.0</ele><time>2026-04-18T09:24:15Z</time></trkpt><trkpt lat="44.92718122437661" lon="6.709033304958911"><ele>1781.0</ele><time>2026-04-18T09:24:16Z</time></trkpt><trkpt lat="44.927120717643895" lon="6.708865899530685"><ele>1781.0</ele><time>2026-04-18T09:24:17Z</time></trkpt><trkpt lat="44.92710497542926" lon="6.708667994285393"><ele>1781.0</ele><time>2026-04-18T09:24:18Z</time></trkpt><trkpt lat="44.92711688908961" lon="6.708450249785345"><ele>1781.0</ele><time>2026-04-18T09:24:19Z</time></trkpt><trkpt lat="44.92709880636779" lon="6.708242378446835"><ele>1781.6666666666665</ele><time>2026-04-18T09:24:20Z</time></trkpt><trkpt lat="44.92704365468492" lon="6.708061912554442"><ele>1782.3333333333335</ele><time>2026-04-18T09:24:21Z</time></trkpt><trkpt lat="44.926973570080236" lon="6.707856143110423"><ele>1783.0</ele><time>2026-04-18T09:24:22Z</time></trkpt><trkpt lat="44.92688799391029" lon="6.707647581690282"><ele>1783.0</ele><time>2026-04-18T09:24:23Z</time></trkpt><trkpt lat="44.92682729622645" lon="6.707434865587113"><ele>1783.0</ele><time>2026-04-18T09:24:24Z</time></trkpt><trkpt lat="44.926783551042234" lon="6.7072343038142375"><ele>1783.0</ele><time>2026-04-18T09:24:25Z</time></trkpt><trkpt lat="44.92674823080299" lon="6.707028369131541"><ele>1783.0</ele><time>2026-04-18T09:24:26Z</time></trkpt><trkpt lat="44.92675800619863" lon="6.706809107527918"><ele>1783.0</ele><time>2026-04-18T09:24:27Z</time></trkpt><trkpt lat="44.9267760909214" lon="6.706589378854227"><ele>1783.0</ele><time>2026-04-18T09:24:28Z</time></trkpt><trkpt lat="44.92684927110768" lon="6.706383268547462"><ele>1783.0</ele><time>2026-04-18T09:24:29Z</time></trkpt><trkpt lat="44.926900431145825" lon="6.7061572809482115"><ele>1783.0</ele><time>2026-04-18T09:24:30Z</time></trkpt><trkpt lat="44.926960398315565" lon="6.705910279780464"><ele>1783.0</ele><time>2026-04-18T09:24:31Z</time></trkpt><trkpt lat="44.92700510725369" lon="6.705668672932411"><ele>1781.6666666666667</ele><time>2026-04-18T09:24:32Z</time></trkpt><trkpt lat="44.9270716035849" lon="6.705418520446671"><ele>1780.3333333333335</ele><time>2026-04-18T09:24:33Z</time></trkpt><trkpt lat="44.92713091517689" lon="6.705180537656488"><ele>1779.0</ele><time>2026-04-18T09:24:34Z</time></trkpt><trkpt lat="44.927188382765564" lon="6.704951149230163"><ele>1774.3333333333335</ele><time>2026-04-18T09:24:35Z</time></trkpt><trkpt lat="44.92723385776225" lon="6.704745405600551"><ele>1769.6666666666667</ele><time>2026-04-18T09:24:36Z</time></trkpt><trkpt lat="44.9272819932473" lon="6.704545138322514"><ele>1765.0</ele><time>2026-04-18T09:24:37Z</time></trkpt><trkpt lat="44.927342006065025" lon="6.704348464246164"><ele>1762.4</ele><time>2026-04-18T09:24:38Z</time></trkpt><trkpt lat="44.927391443690404" lon="6.704178369077253"><ele>1759.8</ele><time>2026-04-18T09:24:39Z</time></trkpt><trkpt lat="44.927435515261415" lon="6.704016930513127"><ele>1757.1999999999998</ele><time>2026-04-18T09:24:40Z</time></trkpt><trkpt lat="44.92742988469522" lon="6.703918079185309"><ele>1754.6</ele><time>2026-04-18T09:24:41Z</time></trkpt><trkpt lat="44.927415006030934" lon="6.703755993246285"><ele>1752.0</ele><time>2026-04-18T09:24:42Z</time></trkpt><trkpt lat="44.92736416377682" lon="6.703613136998099"><ele>1754.0</ele><time>2026-04-18T09:24:43Z</time></trkpt><trkpt lat="44.927249147940856" lon="6.7035184332593944"><ele>1756.0</ele><time>2026-04-18T09:24:44Z</time></trkpt><trkpt lat="44.9271044071848" lon="6.7033860513139905"><ele>1758.0</ele><time>2026-04-18T09:24:45Z</time></trkpt><trkpt lat="44.92701860646672" lon="6.7032422379455205"><ele>1760.0</ele><time>2026-04-18T09:24:46Z</time></trkpt><trkpt lat="44.926963366622466" lon="6.703086174850467"><ele>1760.0</ele><time>2026-04-18T09:24:47Z</time></trkpt><trkpt lat="44.926898624851646" lon="6.702913563771214"><ele>1760.0</ele><time>2026-04-18T09:24:48Z</time></trkpt><trkpt lat="44.92683809817028" lon="6.702730131832631"><ele>1760.0</ele><time>2026-04-18T09:24:49Z</time></trkpt><trkpt lat="44.926817397468064" lon="6.702539733335384"><ele>1760.0</ele><time>2026-04-18T09:24:50Z</time></trkpt><trkpt lat="44.92686569200332" lon="6.702326177041978"><ele>1762.5</ele><time>2026-04-18T09:24:51Z</time></trkpt><trkpt lat="44.92682659109726" lon="6.702153050060629"><ele>1765.0</ele><time>2026-04-18T09:24:52Z</time></trkpt><trkpt lat="44.92677190231329" lon="6.702018144157189"><ele>1767.5</ele><time>2026-04-18T09:24:53Z</time></trkpt><trkpt lat="44.926674879344944" lon="6.701921940380195"><ele>1770.0</ele><time>2026-04-18T09:24:54Z</time></trkpt><trkpt lat="44.926646057373794" lon="6.701786389181584"><ele>1759.25</ele><time>2026-04-18T09:24:55Z</time></trkpt><trkpt lat="44.92665615710666" lon="6.701621197313162"><ele>1748.5</ele><time>2026-04-18T09:24:56Z</time></trkpt><trkpt lat="44.926653478707244" lon="6.701416619401118"><ele>1737.75</ele><time>2026-04-18T09:24:57Z</time></trkpt><trkpt lat="44.926655821196185" lon="6.701175475238683"><ele>1727.0</ele><time>2026-04-18T09:24:58Z</time></trkpt><trkpt lat="44.926699774664996" lon="6.700959759401381"><ele>1726.25</ele><time>2026-04-18T09:24:59Z</time></trkpt><trkpt lat="44.92664402197237" lon="6.700752984377813"><ele>1725.5</ele><time>2026-04-18T09:25:00Z</time></trkpt><trkpt lat="44.92660643276243" lon="6.7005628061267615"><ele>1724.75</ele><time>2026-04-18T09:25:01Z</time></trkpt><trkpt lat="44.92657663272701" lon="6.700354803880335"><ele>1724.0</ele><time>2026-04-18T09:25:02Z</time></trkpt><trkpt lat="44.92657842391745" lon="6.700166800625791"><ele>1723.0</ele><time>2026-04-18T09:25:03Z</time></trkpt><trkpt lat="44.92662501766724" lon="6.699961391421336"><ele>1722.0</ele><time>2026-04-18T09:25:04Z</time></trkpt><trkpt lat="44.926709559894256" lon="6.699735188995"><ele>1721.0</ele><time>2026-04-18T09:25:05Z</time></trkpt><trkpt lat="44.926745598984525" lon="6.699517508762615"><ele>1718.6666666666665</ele><time>2026-04-18T09:25:06Z</time></trkpt><trkpt lat="44.9267437510664" lon="6.699309264504785"><ele>1716.3333333333335</ele><time>2026-04-18T09:25:07Z</time></trkpt><trkpt lat="44.92674432126142" lon="6.699095150922552"><ele>1714.0</ele><time>2026-04-18T09:25:08Z</time></trkpt><trkpt lat="44.92669701226" lon="6.698885503341136"><ele>1714.0</ele><time>2026-04-18T09:25:09Z</time></trkpt><trkpt lat="44.9266912350014" lon="6.69869389922908"><ele>1714.0</ele><time>2026-04-18T09:25:10Z</time></trkpt><trkpt lat="44.92668032432907" lon="6.698519133658587"><ele>1714.0</ele><time>2026-04-18T09:25:11Z</time></trkpt><trkpt lat="44.926669903200334" lon="6.698353358018293"><ele>1714.0</ele><time>2026-04-18T09:25:12Z</time></trkpt><trkpt lat="44.926731432581086" lon="6.698250003946"><ele>1720.4</ele><time>2026-04-18T09:25:13Z</time></trkpt><trkpt lat="44.92681643994081" lon="6.698168336313618"><ele>1726.8000000000002</ele><time>2026-04-18T09:25:14Z</time></trkpt><trkpt lat="44.926886963222216" lon="6.698077519946158"><ele>1733.1999999999998</ele><time>2026-04-18T09:25:15Z</time></trkpt><trkpt lat="44.92701221658405" lon="6.697995328367636"><ele>1739.6</ele><time>2026-04-18T09:25:16Z</time></trkpt><trkpt lat="44.927088027668326" lon="6.697909765987836"><ele>1746.0</ele><time>2026-04-18T09:25:17Z</time></trkpt><trkpt lat="44.92713543141196" lon="6.697770915211543"><ele>1744.0</ele><time>2026-04-18T09:25:18Z</time></trkpt><trkpt lat="44.927121179095664" lon="6.697635435075129"><ele>1742.0</ele><time>2026-04-18T09:25:19Z</time></trkpt><trkpt lat="44.92711115048965" lon="6.697509253137675"><ele>1740.0</ele><time>2026-04-18T09:25:20Z</time></trkpt><trkpt lat="44.927070005231435" lon="6.697325578962657"><ele>1738.0</ele><time>2026-04-18T09:25:21Z</time></trkpt><trkpt lat="44.927025588974914" lon="6.697163868475493"><ele>1736.0</ele><time>2026-04-18T09:25:21.999Z</time></trkpt><trkpt lat="44.92699933738515" lon="6.6970333240333"><ele>1734.8</ele><time>2026-04-18T09:25:22.999Z</time></trkpt><trkpt lat="44.92696350406271" lon="6.696909141164014"><ele>1733.6</ele><time>2026-04-18T09:25:23.999Z</time></trkpt><trkpt lat="44.92691005015609" lon="6.696788561941662"><ele>1732.4</ele><time>2026-04-18T09:25:24.999Z</time></trkpt><trkpt lat="44.926921579519316" lon="6.696654182279613"><ele>1731.2</ele><time>2026-04-18T09:25:25.999Z</time></trkpt><trkpt lat="44.926937251710086" lon="6.696513372218729"><ele>1730.0</ele><time>2026-04-18T09:25:26.999Z</time></trkpt><trkpt lat="44.926979224135245" lon="6.69634638992473"><ele>1730.0</ele><time>2026-04-18T09:25:27.999Z</time></trkpt><trkpt lat="44.9270232864601" lon="6.696193802416677"><ele>1730.0</ele><time>2026-04-18T09:25:28.999Z</time></trkpt><trkpt lat="44.92705210242627" lon="6.696056376209734"><ele>1730.0</ele><time>2026-04-18T09:25:29.999Z</time></trkpt><trkpt lat="44.92708034550276" lon="6.695910217434551"><ele>1730.0</ele><time>2026-04-18T09:25:30.999Z</time></trkpt><trkpt lat="44.92710018354638" lon="6.695782143748592"><ele>1730.0</ele><time>2026-04-18T09:25:31.999Z</time></trkpt><trkpt lat="44.927119403066634" lon="6.695662201768984"><ele>1726.9999999999998</ele><time>2026-04-18T09:25:32.999Z</time></trkpt><trkpt lat="44.92712107010262" lon="6.695537139093207"><ele>1724.0</ele><time>2026-04-18T09:25:33.999Z</time></trkpt><trkpt lat="44.9271387086061" lon="6.695429506865157"><ele>1721.0</ele><time>2026-04-18T09:25:34.999Z</time></trkpt><trkpt lat="44.927133481014636" lon="6.695321367553071"><ele>1718.0</ele><time>2026-04-18T09:25:35.999Z</time></trkpt><trkpt lat="44.9271711138434" lon="6.695238459437353"><ele>1714.9999999999998</ele><time>2026-04-18T09:25:36.999Z</time></trkpt><trkpt lat="44.9272193979449" lon="6.695177465752609"><ele>1712.0</ele><time>2026-04-18T09:25:37.999Z</time></trkpt><trkpt lat="44.92732898769586" lon="6.695160137814377"><ele>1708.1999999999998</ele><time>2026-04-18T09:25:38.999Z</time></trkpt><trkpt lat="44.92741863155702" lon="6.695113582450629"><ele>1704.3999999999999</ele><time>2026-04-18T09:25:39.999Z</time></trkpt><trkpt lat="44.92752390109802" lon="6.695055629039059"><ele>1700.6</ele><time>2026-04-18T09:25:40.999Z</time></trkpt><trkpt lat="44.92763293961228" lon="6.69501121105061"><ele>1696.8000000000002</ele><time>2026-04-18T09:25:41.999Z</time></trkpt><trkpt lat="44.9277093096519" lon="6.694943044458274"><ele>1693.0</ele><time>2026-04-18T09:25:42.999Z</time></trkpt><trkpt lat="44.92778394928284" lon="6.694880662387965"><ele>1693.0</ele><time>2026-04-18T09:25:43.999Z</time></trkpt><trkpt lat="44.92786190203977" lon="6.6948510248920465"><ele>1693.0</ele><time>2026-04-18T09:25:44.999Z</time></trkpt><trkpt lat="44.927956657993505" lon="6.6948191690905094"><ele>1693.0</ele><time>2026-04-18T09:25:45.999Z</time></trkpt><trkpt lat="44.928049302808105" lon="6.694808377355822"><ele>1693.0</ele><time>2026-04-18T09:25:46.999Z</time></trkpt><trkpt lat="44.92816121047259" lon="6.6948415309771265"><ele>1693.0</ele><time>2026-04-18T09:25:47.999Z</time></trkpt><trkpt lat="44.92825523974118" lon="6.694930029710833"><ele>1693.0</ele><time>2026-04-18T09:25:48.999Z</time></trkpt><trkpt lat="44.92837511233882" lon="6.694981366889395"><ele>1693.0</ele><time>2026-04-18T09:25:49.999Z</time></trkpt><trkpt lat="44.92848338051264" lon="6.695005472424913"><ele>1693.0</ele><time>2026-04-18T09:25:50.999Z</time></trkpt><trkpt lat="44.928587611848485" lon="6.695024896048476"><ele>1693.0</ele><time>2026-04-18T09:25:51.999Z</time></trkpt><trkpt lat="44.92868271523787" lon="6.69500010354183"><ele>1693.0</ele><time>2026-04-18T09:25:52.999Z</time></trkpt><trkpt lat="44.928803973337494" lon="6.69495562711685"><ele>1692.6000000000001</ele><time>2026-04-18T09:25:53.999Z</time></trkpt><trkpt lat="44.92890843366253" lon="6.694900121891388"><ele>1692.2</ele><time>2026-04-18T09:25:54.999Z</time></trkpt><trkpt lat="44.929005938317154" lon="6.694844552988713"><ele>1691.8</ele><time>2026-04-18T09:25:55.999Z</time></trkpt><trkpt lat="44.929116342686974" lon="6.694789714601963"><ele>1691.4</ele><time>2026-04-18T09:25:56.999Z</time></trkpt><trkpt lat="44.92920839501554" lon="6.694744096671314"><ele>1691.0</ele><time>2026-04-18T09:25:57.999Z</time></trkpt><trkpt lat="44.92930720795755" lon="6.694696423330761"><ele>1691.0</ele><time>2026-04-18T09:25:58.999Z</time></trkpt><trkpt lat="44.92941351480555" lon="6.6946824526705075"><ele>1691.0</ele><time>2026-04-18T09:25:59.999Z</time></trkpt><trkpt lat="44.92950437428267" lon="6.694655613775691"><ele>1691.0</ele><time>2026-04-18T09:26:00.999Z</time></trkpt><trkpt lat="44.92960262942531" lon="6.694634332883386"><ele>1691.0</ele><time>2026-04-18T09:26:01.999Z</time></trkpt><trkpt lat="44.929698200336695" lon="6.694610336889208"><ele>1691.0</ele><time>2026-04-18T09:26:02.999Z</time></trkpt><trkpt lat="44.92979720591499" lon="6.694596316811566"><ele>1691.0</ele><time>2026-04-18T09:26:03.999Z</time></trkpt><trkpt lat="44.92990591383584" lon="6.694611891849218"><ele>1691.0</ele><time>2026-04-18T09:26:04.999Z</time></trkpt><trkpt lat="44.9300110667034" lon="6.694629022197413"><ele>1691.0</ele><time>2026-04-18T09:26:05.999Z</time></trkpt><trkpt lat="44.930104631193615" lon="6.694630420751662"><ele>1691.0</ele><time>2026-04-18T09:26:06.999Z</time></trkpt><trkpt lat="44.93018064462712" lon="6.694630082656007"><ele>1691.0</ele><time>2026-04-18T09:26:07.999Z</time></trkpt><trkpt lat="44.9302570449792" lon="6.694642759275495"><ele>1690.6</ele><time>2026-04-18T09:26:08.999Z</time></trkpt><trkpt lat="44.93034903389831" lon="6.69469589192475"><ele>1690.1999999999998</ele><time>2026-04-18T09:26:10.999Z</time></trkpt><trkpt lat="44.93047119661478" lon="6.694694054578079"><ele>1689.8000000000002</ele><time>2026-04-18T09:26:13Z</time></trkpt><trkpt lat="44.930540436528325" lon="6.69460637565658"><ele>1689.4</ele><time>2026-04-18T09:26:15Z</time></trkpt><trkpt lat="44.93056674355043" lon="6.694471065180123"><ele>1689.0</ele><time>2026-04-18T09:26:17Z</time></trkpt><trkpt lat="44.9304919496183" lon="6.694369686189949"><ele>1680.75</ele><time>2026-04-18T09:26:19Z</time></trkpt><trkpt lat="44.93042874281249" lon="6.694328737314916"><ele>1672.5</ele><time>2026-04-18T09:26:20Z</time></trkpt><trkpt lat="44.93030735202374" lon="6.694250622358684"><ele>1664.25</ele><time>2026-04-18T09:26:21Z</time></trkpt><trkpt lat="44.930166298692" lon="6.694200520457724"><ele>1656.0</ele><time>2026-04-18T09:26:22Z</time></trkpt><trkpt lat="44.93001725242124" lon="6.694236933901939"><ele>1656.0</ele><time>2026-04-18T09:26:23Z</time></trkpt><trkpt lat="44.92987312025728" lon="6.694293821894544"><ele>1656.0</ele><time>2026-04-18T09:26:24Z</time></trkpt><trkpt lat="44.92976518324211" lon="6.694277684463732"><ele>1656.0</ele><time>2026-04-18T09:26:25Z</time></trkpt><trkpt lat="44.929661980103475" lon="6.694264822130519"><ele>1656.0</ele><time>2026-04-18T09:26:26Z</time></trkpt><trkpt lat="44.929558912024135" lon="6.6942388517475395"><ele>1656.0</ele><time>2026-04-18T09:26:27Z</time></trkpt><trkpt lat="44.92944345946726" lon="6.694235502182941"><ele>1656.0</ele><time>2026-04-18T09:26:28Z</time></trkpt><trkpt lat="44.929349634950704" lon="6.694212912177317"><ele>1656.0</ele><time>2026-04-18T09:26:29Z</time></trkpt><trkpt lat="44.9292546823413" lon="6.694215212969613"><ele>1656.0</ele><time>2026-04-18T09:26:30Z</time></trkpt><trkpt lat="44.9291553842058" lon="6.694227264352883"><ele>1656.0</ele><time>2026-04-18T09:26:31Z</time></trkpt><trkpt lat="44.92906914251849" lon="6.694247643550058"><ele>1656.1666666666667</ele><time>2026-04-18T09:26:32Z</time></trkpt><trkpt lat="44.92898759338105" lon="6.69428400538476"><ele>1656.3333333333335</ele><time>2026-04-18T09:26:33Z</time></trkpt><trkpt lat="44.928910555939474" lon="6.694344758625274"><ele>1656.5</ele><time>2026-04-18T09:26:34Z</time></trkpt><trkpt lat="44.928814575892254" lon="6.694392840935652"><ele>1656.6666666666667</ele><time>2026-04-18T09:26:35Z</time></trkpt><trkpt lat="44.92873892099754" lon="6.694347312790399"><ele>1656.8333333333335</ele><time>2026-04-18T09:26:36Z</time></trkpt><trkpt lat="44.92865542523332" lon="6.694320873672158"><ele>1657.0</ele><time>2026-04-18T09:26:37Z</time></trkpt><trkpt lat="44.9285710208643" lon="6.6942495896007435"><ele>1657.0000000000002</ele><time>2026-04-18T09:26:38Z</time></trkpt><trkpt lat="44.92858765596722" lon="6.694153125995343"><ele>1657.0</ele><time>2026-04-18T09:26:39Z</time></trkpt><trkpt lat="44.92855109977265" lon="6.694039312263215"><ele>1657.0</ele><time>2026-04-18T09:26:40Z</time></trkpt><trkpt lat="44.92851536511215" lon="6.693915237112392"><ele>1657.0</ele><time>2026-04-18T09:26:41Z</time></trkpt><trkpt lat="44.928473506840106" lon="6.693811649052251"><ele>1657.0000000000002</ele><time>2026-04-18T09:26:42Z</time></trkpt><trkpt lat="44.92841780109825" lon="6.6936977468873184"><ele>1657.0</ele><time>2026-04-18T09:26:43Z</time></trkpt><trkpt lat="44.928340633310334" lon="6.693618218843578"><ele>1653.3999999999999</ele><time>2026-04-18T09:26:44Z</time></trkpt><trkpt lat="44.92827411752017" lon="6.693543983227212"><ele>1649.8</ele><time>2026-04-18T09:26:45Z</time></trkpt><trkpt lat="44.928169400904935" lon="6.693499399820271"><ele>1646.2</ele><time>2026-04-18T09:26:46Z</time></trkpt><trkpt lat="44.92807752687157" lon="6.693411280466209"><ele>1642.6</ele><time>2026-04-18T09:26:47Z</time></trkpt><trkpt lat="44.927983740696625" lon="6.693314676954367"><ele>1639.0</ele><time>2026-04-18T09:26:48Z</time></trkpt><trkpt lat="44.92790853332147" lon="6.693223925498015"><ele>1639.0</ele><time>2026-04-18T09:26:49Z</time></trkpt><trkpt lat="44.92783852394897" lon="6.693114911508863"><ele>1639.0</ele><time>2026-04-18T09:26:50Z</time></trkpt><trkpt lat="44.92776736702139" lon="6.693050645060465"><ele>1639.0</ele><time>2026-04-18T09:26:51Z</time></trkpt><trkpt lat="44.92767959850852" lon="6.692957004511824"><ele>1639.0</ele><time>2026-04-18T09:26:52Z</time></trkpt><trkpt lat="44.92760162802994" lon="6.692900595340643"><ele>1639.0</ele><time>2026-04-18T09:26:53Z</time></trkpt><trkpt lat="44.927512199609296" lon="6.692808515076554"><ele>1636.6</ele><time>2026-04-18T09:26:54Z</time></trkpt><trkpt lat="44.927442725357224" lon="6.692715075658075"><ele>1634.2</ele><time>2026-04-18T09:26:55Z</time></trkpt><trkpt lat="44.92735691721467" lon="6.692638055137136"><ele>1631.8</ele><time>2026-04-18T09:26:56Z</time></trkpt><trkpt lat="44.92727774330144" lon="6.692574585359042"><ele>1629.3999999999999</ele><time>2026-04-18T09:26:57Z</time></trkpt><trkpt lat="44.92716057420588" lon="6.692539574349848"><ele>1627.0</ele><time>2026-04-18T09:26:59Z</time></trkpt><trkpt lat="44.9270237304203" lon="6.692539681297205"><ele>1627.0</ele><time>2026-04-18T09:27:01Z</time></trkpt><trkpt lat="44.92695473429445" lon="6.692587443147683"><ele>1627.0</ele><time>2026-04-18T09:27:02Z</time></trkpt><trkpt lat="44.92688719041882" lon="6.692662815690753"><ele>1627.0</ele><time>2026-04-18T09:27:03Z</time></trkpt><trkpt lat="44.92681509631048" lon="6.692790366280494"><ele>1627.0</ele><time>2026-04-18T09:27:04Z</time></trkpt><trkpt lat="44.92677915182241" lon="6.692896973112285"><ele>1627.0</ele><time>2026-04-18T09:27:05Z</time></trkpt><trkpt lat="44.926792978851864" lon="6.693160753075575"><ele>1632.8</ele><time>2026-04-18T09:27:06Z</time></trkpt><trkpt lat="44.926828703256106" lon="6.69334019705097"><ele>1638.6</ele><time>2026-04-18T09:27:07Z</time></trkpt><trkpt lat="44.92682755005248" lon="6.693502885710367"><ele>1644.3999999999999</ele><time>2026-04-18T09:27:08Z</time></trkpt><trkpt lat="44.926839635399595" lon="6.693631129150551"><ele>1650.1999999999998</ele><time>2026-04-18T09:27:09Z</time></trkpt><trkpt lat="44.92683834267066" lon="6.693772013894712"><ele>1656.0</ele><time>2026-04-18T09:27:10Z</time></trkpt><trkpt lat="44.92684367811622" lon="6.693897342978196"><ele>1658.8</ele><time>2026-04-18T09:27:11Z</time></trkpt><trkpt lat="44.9268594618973" lon="6.694012853882462"><ele>1661.6</ele><time>2026-04-18T09:27:12Z</time></trkpt><trkpt lat="44.92674956881294" lon="6.694092145885858"><ele>1664.4</ele><time>2026-04-18T09:27:13Z</time></trkpt><trkpt lat="44.92668100889284" lon="6.694177039872431"><ele>1667.2</ele><time>2026-04-18T09:27:14Z</time></trkpt><trkpt lat="44.926570390346356" lon="6.694211692320644"><ele>1670.0</ele><time>2026-04-18T09:27:15Z</time></trkpt><trkpt lat="44.92645773414421" lon="6.694325595310388"><ele>1667.8</ele><time>2026-04-18T09:27:17Z</time></trkpt><trkpt lat="44.92636828631214" lon="6.694401018589076"><ele>1665.6</ele><time>2026-04-18T09:27:18Z</time></trkpt><trkpt lat="44.92625936954364" lon="6.694477850967136"><ele>1663.4</ele><time>2026-04-18T09:27:19Z</time></trkpt><trkpt lat="44.92615003915979" lon="6.694529260173006"><ele>1661.2</ele><time>2026-04-18T09:27:20Z</time></trkpt><trkpt lat="44.92605680378736" lon="6.694581086290858"><ele>1659.0</ele><time>2026-04-18T09:27:21Z</time></trkpt><trkpt lat="44.92599768580915" lon="6.694615623501002"><ele>1659.0</ele><time>2026-04-18T09:27:22Z</time></trkpt><trkpt lat="44.92592658875795" lon="6.6946582872087745"><ele>1659.0</ele><time>2026-04-18T09:27:23Z</time></trkpt><trkpt lat="44.925850909182785" lon="6.694723090689227"><ele>1659.0</ele><time>2026-04-18T09:27:24Z</time></trkpt><trkpt lat="44.92579431163481" lon="6.694810721140275"><ele>1659.0</ele><time>2026-04-18T09:27:25Z</time></trkpt><trkpt lat="44.925740280337656" lon="6.694910349335412"><ele>1659.0</ele><time>2026-04-18T09:27:26Z</time></trkpt><trkpt lat="44.92570557525628" lon="6.695014006488647"><ele>1659.0</ele><time>2026-04-18T09:27:27Z</time></trkpt><trkpt lat="44.92569653324951" lon="6.695171771201606"><ele>1652.8000000000002</ele><time>2026-04-18T09:27:28Z</time></trkpt><trkpt lat="44.925697080384495" lon="6.695287138371741"><ele>1646.6000000000001</ele><time>2026-04-18T09:27:29Z</time></trkpt><trkpt lat="44.92569050602513" lon="6.6954720085734785"><ele>1640.4</ele><time>2026-04-18T09:27:30Z</time></trkpt><trkpt lat="44.925708007080424" lon="6.695611838266575"><ele>1634.2</ele><time>2026-04-18T09:27:31Z</time></trkpt><trkpt lat="44.92569859170995" lon="6.695717342875743"><ele>1628.0</ele><time>2026-04-18T09:27:32Z</time></trkpt><trkpt lat="44.925659997984496" lon="6.6958178746505865"><ele>1627.9999999999998</ele><time>2026-04-18T09:27:32.999Z</time></trkpt><trkpt lat="44.925626701181315" lon="6.695924918715222"><ele>1628.0</ele><time>2026-04-18T09:27:33.999Z</time></trkpt><trkpt lat="44.92559611560281" lon="6.69602700991404"><ele>1628.0</ele><time>2026-04-18T09:27:34.999Z</time></trkpt><trkpt lat="44.92557265043505" lon="6.696130959421697"><ele>1628.0</ele><time>2026-04-18T09:27:35.999Z</time></trkpt><trkpt lat="44.92556273518903" lon="6.696230325095788"><ele>1627.9999999999998</ele><time>2026-04-18T09:27:36.999Z</time></trkpt><trkpt lat="44.92556806528506" lon="6.696396145376855"><ele>1628.0</ele><time>2026-04-18T09:27:38.999Z</time></trkpt><trkpt lat="44.925537104526725" lon="6.696513320124163"><ele>1627.9999999999998</ele><time>2026-04-18T09:27:40.999Z</time></trkpt><trkpt lat="44.925447949954986" lon="6.696565838018002"><ele>1628.0</ele><time>2026-04-18T09:27:42.999Z</time></trkpt><trkpt lat="44.9253873943011" lon="6.696521536632101"><ele>1628.0</ele><time>2026-04-18T09:27:43.999Z</time></trkpt><trkpt lat="44.925331776585345" lon="6.696395834267068"><ele>1628.0</ele><time>2026-04-18T09:27:45.999Z</time></trkpt><trkpt lat="44.925315421077165" lon="6.6962867694222865"><ele>1627.9999999999998</ele><time>2026-04-18T09:27:46.999Z</time></trkpt><trkpt lat="44.92535978194434" lon="6.696177782072964"><ele>1628.0</ele><time>2026-04-18T09:27:47.999Z</time></trkpt><trkpt lat="44.92538518038734" lon="6.696064563355361"><ele>1628.0</ele><time>2026-04-18T09:27:48.999Z</time></trkpt><trkpt lat="44.925426866204226" lon="6.6958886994735485"><ele>1628.0</ele><time>2026-04-18T09:27:49.999Z</time></trkpt><trkpt lat="44.92545034532179" lon="6.695727246726273"><ele>1628.0</ele><time>2026-04-18T09:27:50.999Z</time></trkpt><trkpt lat="44.92548775146834" lon="6.6955973293400595"><ele>1628.0</ele><time>2026-04-18T09:27:51.999Z</time></trkpt><trkpt lat="44.92554019946845" lon="6.695452921307312"><ele>1628.0</ele><time>2026-04-18T09:27:52.999Z</time></trkpt><trkpt lat="44.92557346483841" lon="6.695302577793669"><ele>1628.0</ele><time>2026-04-18T09:27:53.999Z</time></trkpt><trkpt lat="44.92556781165084" lon="6.695159452118116"><ele>1628.0</ele><time>2026-04-18T09:27:54.999Z</time></trkpt><trkpt lat="44.925557182439434" lon="6.695022606631002"><ele>1628.0</ele><time>2026-04-18T09:27:55.999Z</time></trkpt><trkpt lat="44.925522872524255" lon="6.694885930543624"><ele>1628.0</ele><time>2026-04-18T09:27:56.999Z</time></trkpt><trkpt lat="44.92549502177869" lon="6.694763617761752"><ele>1626.4999999999998</ele><time>2026-04-18T09:27:57.999Z</time></trkpt><trkpt lat="44.92547939747292" lon="6.6946473229246815"><ele>1625.0</ele><time>2026-04-18T09:27:58.999Z</time></trkpt><trkpt lat="44.925478957823664" lon="6.694541103596524"><ele>1623.5</ele><time>2026-04-18T09:27:59.999Z</time></trkpt><trkpt lat="44.92552676614519" lon="6.694463890057342"><ele>1622.0</ele><time>2026-04-18T09:28:00.999Z</time></trkpt><trkpt lat="44.92558796771685" lon="6.694397469881205"><ele>1620.4999999999998</ele><time>2026-04-18T09:28:01.999Z</time></trkpt><trkpt lat="44.925663961588626" lon="6.694345015918964"><ele>1619.0</ele><time>2026-04-18T09:28:02.999Z</time></trkpt><trkpt lat="44.925750784753845" lon="6.694310636961215"><ele>1622.4</ele><time>2026-04-18T09:28:03.999Z</time></trkpt><trkpt lat="44.925843839463035" lon="6.694252017450702"><ele>1625.8000000000002</ele><time>2026-04-18T09:28:04.999Z</time></trkpt><trkpt lat="44.925946027737176" lon="6.694226245411737"><ele>1629.1999999999998</ele><time>2026-04-18T09:28:05.999Z</time></trkpt><trkpt lat="44.92603965043282" lon="6.6941532862971425"><ele>1632.6</ele><time>2026-04-18T09:28:06.999Z</time></trkpt><trkpt lat="44.92612686355958" lon="6.69407159644398"><ele>1636.0</ele><time>2026-04-18T09:28:07.999Z</time></trkpt><trkpt lat="44.92620406143389" lon="6.693997614172203"><ele>1636.0</ele><time>2026-04-18T09:28:08.999Z</time></trkpt><trkpt lat="44.926266289821115" lon="6.6939163008849905"><ele>1636.0</ele><time>2026-04-18T09:28:09.999Z</time></trkpt><trkpt lat="44.92631861078145" lon="6.693808317288058"><ele>1636.0</ele><time>2026-04-18T09:28:10.999Z</time></trkpt><trkpt lat="44.926348046134734" lon="6.6936748277808045"><ele>1636.0</ele><time>2026-04-18T09:28:11.999Z</time></trkpt><trkpt lat="44.926345362322785" lon="6.693532590177423"><ele>1636.0</ele><time>2026-04-18T09:28:12.999Z</time></trkpt><trkpt lat="44.92633693604458" lon="6.693371558387713"><ele>1633.0</ele><time>2026-04-18T09:28:13.999Z</time></trkpt><trkpt lat="44.926322676697524" lon="6.693199925842985"><ele>1630.0</ele><time>2026-04-18T09:28:14.999Z</time></trkpt><trkpt lat="44.92631775486507" lon="6.693049604370255"><ele>1627.0</ele><time>2026-04-18T09:28:15.999Z</time></trkpt><trkpt lat="44.92631554973761" lon="6.692893115744875"><ele>1624.0</ele><time>2026-04-18T09:28:16.999Z</time></trkpt><trkpt lat="44.926300045450006" lon="6.692751844650851"><ele>1621.0</ele><time>2026-04-18T09:28:18Z</time></trkpt><trkpt lat="44.92627970143375" lon="6.692615642263743"><ele>1619.5000000000002</ele><time>2026-04-18T09:28:19Z</time></trkpt><trkpt lat="44.9262487106524" lon="6.6924904750148615"><ele>1618.0</ele><time>2026-04-18T09:28:20Z</time></trkpt><trkpt lat="44.92622009805576" lon="6.692372290322223"><ele>1616.5</ele><time>2026-04-18T09:28:21Z</time></trkpt><trkpt lat="44.926202346938084" lon="6.692270674946088"><ele>1615.0</ele><time>2026-04-18T09:28:22Z</time></trkpt><trkpt lat="44.926205386823696" lon="6.692176800743977"><ele>1613.5000000000002</ele><time>2026-04-18T09:28:23Z</time></trkpt><trkpt lat="44.926255377140365" lon="6.692109092765352"><ele>1612.0</ele><time>2026-04-18T09:28:24Z</time></trkpt><trkpt lat="44.92632044821816" lon="6.691999103161983"><ele>1607.1999999999998</ele><time>2026-04-18T09:28:25Z</time></trkpt><trkpt lat="44.926378814171485" lon="6.6918914593682794"><ele>1602.4</ele><time>2026-04-18T09:28:26Z</time></trkpt><trkpt lat="44.92643941544777" lon="6.69178429484743"><ele>1597.6</ele><time>2026-04-18T09:28:27Z</time></trkpt><trkpt lat="44.926497655668925" lon="6.691670786237845"><ele>1592.8000000000002</ele><time>2026-04-18T09:28:28Z</time></trkpt><trkpt lat="44.92656961131798" lon="6.691571886759013"><ele>1588.0</ele><time>2026-04-18T09:28:29Z</time></trkpt><trkpt lat="44.92664141722542" lon="6.69149282397367"><ele>1588.0000000000002</ele><time>2026-04-18T09:28:30Z</time></trkpt><trkpt lat="44.92671581132031" lon="6.691423324656253"><ele>1588.0</ele><time>2026-04-18T09:28:31Z</time></trkpt><trkpt lat="44.92679777938134" lon="6.691400186778939"><ele>1588.0</ele><time>2026-04-18T09:28:32Z</time></trkpt><trkpt lat="44.9268694711867" lon="6.691398741908075"><ele>1588.0</ele><time>2026-04-18T09:28:33Z</time></trkpt><trkpt lat="44.926962993981576" lon="6.691446292943065"><ele>1588.0000000000002</ele><time>2026-04-18T09:28:34Z</time></trkpt><trkpt lat="44.92703007845305" lon="6.691539874118605"><ele>1588.0</ele><time>2026-04-18T09:28:35Z</time></trkpt><trkpt lat="44.927120483410945" lon="6.691601633400428"><ele>1585.2</ele><time>2026-04-18T09:28:36Z</time></trkpt><trkpt lat="44.92720024808819" lon="6.691661062638763"><ele>1582.4</ele><time>2026-04-18T09:28:37Z</time></trkpt><trkpt lat="44.92728094150516" lon="6.691737598902463"><ele>1579.6000000000001</ele><time>2026-04-18T09:28:38Z</time></trkpt><trkpt lat="44.92738564780123" lon="6.69179264094373"><ele>1576.8000000000002</ele><time>2026-04-18T09:28:39Z</time></trkpt><trkpt lat="44.927524206290215" lon="6.69184134315225"><ele>1574.0</ele><time>2026-04-18T09:28:40Z</time></trkpt><trkpt lat="44.92762098689362" lon="6.691900586828499"><ele>1579.8000000000002</ele><time>2026-04-18T09:28:41Z</time></trkpt><trkpt lat="44.92771708146308" lon="6.691934281854465"><ele>1585.6000000000001</ele><time>2026-04-18T09:28:42Z</time></trkpt><trkpt lat="44.927818884918395" lon="6.691992719724878"><ele>1591.4</ele><time>2026-04-18T09:28:43Z</time></trkpt><trkpt lat="44.92790894738346" lon="6.692062446246856"><ele>1597.2</ele><time>2026-04-18T09:28:44Z</time></trkpt><trkpt lat="44.92799941484231" lon="6.692100599886477"><ele>1603.0</ele><time>2026-04-18T09:28:45Z</time></trkpt><trkpt lat="44.928094164878374" lon="6.692139325184074"><ele>1603.0</ele><time>2026-04-18T09:28:46Z</time></trkpt><trkpt lat="44.92818955533468" lon="6.6921760369490855"><ele>1603.0</ele><time>2026-04-18T09:28:47Z</time></trkpt><trkpt lat="44.92828516022198" lon="6.692202299647624"><ele>1603.0</ele><time>2026-04-18T09:28:48Z</time></trkpt><trkpt lat="44.92838663755584" lon="6.69221657576388"><ele>1603.0</ele><time>2026-04-18T09:28:49Z</time></trkpt><trkpt lat="44.928486136732054" lon="6.692203298577436"><ele>1603.0</ele><time>2026-04-18T09:28:50Z</time></trkpt><trkpt lat="44.928579961592675" lon="6.692136253152388"><ele>1600.8000000000002</ele><time>2026-04-18T09:28:51Z</time></trkpt><trkpt lat="44.92865556600554" lon="6.692053712635309"><ele>1598.6</ele><time>2026-04-18T09:28:52Z</time></trkpt><trkpt lat="44.928725569527664" lon="6.69193501818326"><ele>1596.4</ele><time>2026-04-18T09:28:53Z</time></trkpt><trkpt lat="44.928771148184914" lon="6.6917982397042035"><ele>1594.1999999999998</ele><time>2026-04-18T09:28:54Z</time></trkpt><trkpt lat="44.92880997369191" lon="6.691647132175322"><ele>1592.0</ele><time>2026-04-18T09:28:55Z</time></trkpt><trkpt lat="44.928839534509535" lon="6.691510533072467"><ele>1592.0</ele><time>2026-04-18T09:28:56Z</time></trkpt><trkpt lat="44.928857337736886" lon="6.6913722053198486"><ele>1592.0</ele><time>2026-04-18T09:28:57Z</time></trkpt><trkpt lat="44.92885704938447" lon="6.691227231310236"><ele>1592.0</ele><time>2026-04-18T09:28:58Z</time></trkpt><trkpt lat="44.928859857826765" lon="6.691092709853854"><ele>1592.0</ele><time>2026-04-18T09:28:59Z</time></trkpt><trkpt lat="44.92886737180854" lon="6.690975524698569"><ele>1592.0</ele><time>2026-04-18T09:29:00Z</time></trkpt><trkpt lat="44.92886321836879" lon="6.690865976337175"><ele>1587.3999999999999</ele><time>2026-04-18T09:29:01Z</time></trkpt><trkpt lat="44.928874650141154" lon="6.690739584287807"><ele>1582.8</ele><time>2026-04-18T09:29:02Z</time></trkpt><trkpt lat="44.9288879490344" lon="6.690605675555741"><ele>1578.2</ele><time>2026-04-18T09:29:03Z</time></trkpt><trkpt lat="44.92891854088985" lon="6.69052481014743"><ele>1573.6</ele><time>2026-04-18T09:29:04Z</time></trkpt><trkpt lat="44.92895865950088" lon="6.690440436831837"><ele>1569.0</ele><time>2026-04-18T09:29:05Z</time></trkpt><trkpt lat="44.92914650459741" lon="6.6904410079904855"><ele>1569.0</ele><time>2026-04-18T09:29:07Z</time></trkpt><trkpt lat="44.9292052112927" lon="6.690366145177007"><ele>1569.0</ele><time>2026-04-18T09:29:10Z</time></trkpt><trkpt lat="44.92926788108864" lon="6.690276755326228"><ele>1569.0</ele><time>2026-04-18T09:29:12Z</time></trkpt><trkpt lat="44.9292268035203" lon="6.690166883825817"><ele>1569.0</ele><time>2026-04-18T09:29:14Z</time></trkpt><trkpt lat="44.9291052663105" lon="6.690101571422684"><ele>1569.0</ele><time>2026-04-18T09:29:16Z</time></trkpt><trkpt lat="44.9290330188464" lon="6.6900595471878574"><ele>1569.0</ele><time>2026-04-18T09:29:17Z</time></trkpt><trkpt lat="44.92895233787521" lon="6.690057400890427"><ele>1569.0</ele><time>2026-04-18T09:29:18Z</time></trkpt><trkpt lat="44.92887041646025" lon="6.690095517533965"><ele>1569.0</ele><time>2026-04-18T09:29:19Z</time></trkpt><trkpt lat="44.928787618709826" lon="6.690117900197881"><ele>1569.0</ele><time>2026-04-18T09:29:20Z</time></trkpt><trkpt lat="44.92872878173211" lon="6.690189163894845"><ele>1569.0</ele><time>2026-04-18T09:29:21Z</time></trkpt><trkpt lat="44.92866410709589" lon="6.69034084737908"><ele>1569.0</ele><time>2026-04-18T09:29:22Z</time></trkpt><trkpt lat="44.92865306651097" lon="6.6904851968200125"><ele>1569.0</ele><time>2026-04-18T09:29:23Z</time></trkpt><trkpt lat="44.92866520227824" lon="6.690648039141263"><ele>1569.0</ele><time>2026-04-18T09:29:24Z</time></trkpt><trkpt lat="44.92864904245656" lon="6.69078154321856"><ele>1569.0</ele><time>2026-04-18T09:29:25Z</time></trkpt><trkpt lat="44.92864625657342" lon="6.690903164167276"><ele>1569.0</ele><time>2026-04-18T09:29:26Z</time></trkpt><trkpt lat="44.92862584033427" lon="6.691006575938636"><ele>1568.6666666666667</ele><time>2026-04-18T09:29:27Z</time></trkpt><trkpt lat="44.92860373178641" lon="6.691116870913961"><ele>1568.3333333333335</ele><time>2026-04-18T09:29:28Z</time></trkpt><trkpt lat="44.92856110407753" lon="6.6912428387873435"><ele>1568.0</ele><time>2026-04-18T09:29:29Z</time></trkpt><trkpt lat="44.928516993968316" lon="6.691359844161244"><ele>1567.6666666666667</ele><time>2026-04-18T09:29:30Z</time></trkpt><trkpt lat="44.9284650691208" lon="6.691455471890353"><ele>1567.3333333333335</ele><time>2026-04-18T09:29:31Z</time></trkpt><trkpt lat="44.928389992061454" lon="6.691501824010517"><ele>1567.0</ele><time>2026-04-18T09:29:32Z</time></trkpt><trkpt lat="44.92828811944573" lon="6.691526612102552"><ele>1567.0</ele><time>2026-04-18T09:29:33Z</time></trkpt><trkpt lat="44.92818760478013" lon="6.691479860388034"><ele>1567.0</ele><time>2026-04-18T09:29:34Z</time></trkpt><trkpt lat="44.928091868517996" lon="6.691432638595151"><ele>1567.0</ele><time>2026-04-18T09:29:35Z</time></trkpt><trkpt lat="44.92799255679692" lon="6.691359757444058"><ele>1567.0</ele><time>2026-04-18T09:29:36Z</time></trkpt><trkpt lat="44.92788344952908" lon="6.691259089115956"><ele>1567.0</ele><time>2026-04-18T09:29:37Z</time></trkpt><trkpt lat="44.92778830898471" lon="6.691179632283404"><ele>1561.6</ele><time>2026-04-18T09:29:38Z</time></trkpt><trkpt lat="44.92770249382934" lon="6.691082165967188"><ele>1556.1999999999998</ele><time>2026-04-18T09:29:39Z</time></trkpt><trkpt lat="44.92761346228476" lon="6.690992475630567"><ele>1550.8</ele><time>2026-04-18T09:29:40Z</time></trkpt><trkpt lat="44.92751972494797" lon="6.690906161508519"><ele>1545.4</ele><time>2026-04-18T09:29:40.999Z</time></trkpt><trkpt lat="44.927427413744056" lon="6.690835587672724"><ele>1540.0</ele><time>2026-04-18T09:29:41.999Z</time></trkpt><trkpt lat="44.927346984238596" lon="6.690754217527864"><ele>1540.0</ele><time>2026-04-18T09:29:42.999Z</time></trkpt><trkpt lat="44.92725448392064" lon="6.690705274634012"><ele>1540.0</ele><time>2026-04-18T09:29:43.999Z</time></trkpt><trkpt lat="44.92716170184835" lon="6.690675527022661"><ele>1540.0</ele><time>2026-04-18T09:29:44.999Z</time></trkpt><trkpt lat="44.927078107325336" lon="6.690614454321241"><ele>1540.0</ele><time>2026-04-18T09:29:45.999Z</time></trkpt><trkpt lat="44.9270005027298" lon="6.690528763724898"><ele>1540.0</ele><time>2026-04-18T09:29:46.999Z</time></trkpt><trkpt lat="44.92692283620319" lon="6.690449069335704"><ele>1540.0</ele><time>2026-04-18T09:29:47.999Z</time></trkpt><trkpt lat="44.92686297458355" lon="6.690382348501981"><ele>1540.0</ele><time>2026-04-18T09:29:48.999Z</time></trkpt><trkpt lat="44.92677113174136" lon="6.690333754562602"><ele>1540.0</ele><time>2026-04-18T09:29:49.999Z</time></trkpt><trkpt lat="44.92668160744907" lon="6.690297423763684"><ele>1540.0</ele><time>2026-04-18T09:29:50.999Z</time></trkpt><trkpt lat="44.926589076803694" lon="6.690288367531487"><ele>1540.0</ele><time>2026-04-18T09:29:51.999Z</time></trkpt><trkpt lat="44.926499658430046" lon="6.690265104542379"><ele>1543.2</ele><time>2026-04-18T09:29:52.999Z</time></trkpt><trkpt lat="44.92640704740665" lon="6.690238547770115"><ele>1546.4</ele><time>2026-04-18T09:29:53.999Z</time></trkpt><trkpt lat="44.92631696521873" lon="6.690256759439264"><ele>1549.6</ele><time>2026-04-18T09:29:54.999Z</time></trkpt><trkpt lat="44.92622941303813" lon="6.690268826934989"><ele>1552.8</ele><time>2026-04-18T09:29:55.999Z</time></trkpt><trkpt lat="44.92614224604937" lon="6.690297266152513"><ele>1556.0</ele><time>2026-04-18T09:29:56.999Z</time></trkpt><trkpt lat="44.92603935590282" lon="6.690316964281866"><ele>1556.0</ele><time>2026-04-18T09:29:57.999Z</time></trkpt><trkpt lat="44.92594186283372" lon="6.690294180854874"><ele>1556.0</ele><time>2026-04-18T09:29:58.999Z</time></trkpt><trkpt lat="44.925840394567885" lon="6.690267550421757"><ele>1556.0</ele><time>2026-04-18T09:29:59.999Z</time></trkpt><trkpt lat="44.925746132715226" lon="6.6902375020628195"><ele>1556.0</ele><time>2026-04-18T09:30:00.999Z</time></trkpt><trkpt lat="44.92567126013284" lon="6.690192142507216"><ele>1556.0</ele><time>2026-04-18T09:30:01.999Z</time></trkpt><trkpt lat="44.92560101431614" lon="6.69015471482519"><ele>1553.1666666666665</ele><time>2026-04-18T09:30:02.999Z</time></trkpt><trkpt lat="44.9255360143388" lon="6.6901103187042565"><ele>1550.3333333333333</ele><time>2026-04-18T09:30:03.999Z</time></trkpt><trkpt lat="44.92545767878386" lon="6.690088105938355"><ele>1547.5</ele><time>2026-04-18T09:30:04.999Z</time></trkpt><trkpt lat="44.9253473538897" lon="6.690152685427602"><ele>1544.6666666666665</ele><time>2026-04-18T09:30:06.999Z</time></trkpt><trkpt lat="44.92527841510929" lon="6.690243311370721"><ele>1541.8333333333333</ele><time>2026-04-18T09:30:08.999Z</time></trkpt><trkpt lat="44.92526453980345" lon="6.690343514875885"><ele>1539.0</ele><time>2026-04-18T09:30:09.999Z</time></trkpt><trkpt lat="44.92522843373485" lon="6.69052347502382"><ele>1539.0</ele><time>2026-04-18T09:30:11.999Z</time></trkpt><trkpt lat="44.925209263938044" lon="6.690610583411386"><ele>1539.0</ele><time>2026-04-18T09:30:12.999Z</time></trkpt><trkpt lat="44.92519572627895" lon="6.690706984691762"><ele>1539.0</ele><time>2026-04-18T09:30:13.999Z</time></trkpt><trkpt lat="44.92517741112939" lon="6.690804675658396"><ele>1539.0</ele><time>2026-04-18T09:30:14.999Z</time></trkpt><trkpt lat="44.925153311188296" lon="6.69088786552927"><ele>1539.0</ele><time>2026-04-18T09:30:15.999Z</time></trkpt><trkpt lat="44.925111904030445" lon="6.690979816836666"><ele>1539.0</ele><time>2026-04-18T09:30:19.999Z</time></trkpt><trkpt lat="44.92503009528507" lon="6.690950020543881"><ele>1539.0</ele><time>2026-04-18T09:30:22.999Z</time></trkpt><trkpt lat="44.925037938800834" lon="6.69086077743269"><ele>1539.0</ele><time>2026-04-18T09:30:24Z</time></trkpt><trkpt lat="44.92506683704244" lon="6.690766203786422"><ele>1539.0</ele><time>2026-04-18T09:30:25Z</time></trkpt><trkpt lat="44.925085890814444" lon="6.690674876958541"><ele>1539.0</ele><time>2026-04-18T09:30:26Z</time></trkpt><trkpt lat="44.925114446924" lon="6.690571060453933"><ele>1539.0</ele><time>2026-04-18T09:30:27Z</time></trkpt><trkpt lat="44.9251408419188" lon="6.69045719168727"><ele>1539.0</ele><time>2026-04-18T09:30:28Z</time></trkpt><trkpt lat="44.92516290661708" lon="6.690341472184728"><ele>1539.0</ele><time>2026-04-18T09:30:29Z</time></trkpt><trkpt lat="44.925184117515904" lon="6.690225335591197"><ele>1534.3333333333333</ele><time>2026-04-18T09:30:30Z</time></trkpt><trkpt lat="44.92519084742236" lon="6.6901161677292444"><ele>1529.6666666666667</ele><time>2026-04-18T09:30:31Z</time></trkpt><trkpt lat="44.925223741902016" lon="6.689998404231286"><ele>1525.0</ele><time>2026-04-18T09:30:32Z</time></trkpt><trkpt lat="44.9252762313023" lon="6.6899050590191065"><ele>1520.3333333333335</ele><time>2026-04-18T09:30:33Z</time></trkpt><trkpt lat="44.92534224651827" lon="6.689833939590825"><ele>1515.6666666666667</ele><time>2026-04-18T09:30:34Z</time></trkpt><trkpt lat="44.92541675761729" lon="6.689801228212307"><ele>1511.0</ele><time>2026-04-18T09:30:35Z</time></trkpt><trkpt lat="44.925505162827996" lon="6.689792923598351"><ele>1511.0</ele><time>2026-04-18T09:30:36Z</time></trkpt><trkpt lat="44.92559292046858" lon="6.689840540767483"><ele>1511.0</ele><time>2026-04-18T09:30:37Z</time></trkpt><trkpt lat="44.92569328173147" lon="6.689867911486521"><ele>1511.0</ele><time>2026-04-18T09:30:38Z</time></trkpt><trkpt lat="44.925782487124444" lon="6.68989196937868"><ele>1511.0</ele><time>2026-04-18T09:30:39Z</time></trkpt><trkpt lat="44.92588107292042" lon="6.689885071828188"><ele>1511.0</ele><time>2026-04-18T09:30:40Z</time></trkpt><trkpt lat="44.92597424415088" lon="6.689903778211876"><ele>1513.0</ele><time>2026-04-18T09:30:41Z</time></trkpt><trkpt lat="44.92606960015025" lon="6.689879164930475"><ele>1515.0</ele><time>2026-04-18T09:30:42Z</time></trkpt><trkpt lat="44.92615981098221" lon="6.689842364436342"><ele>1517.0</ele><time>2026-04-18T09:30:43Z</time></trkpt><trkpt lat="44.926236961991314" lon="6.689748432417665"><ele>1519.0</ele><time>2026-04-18T09:30:44Z</time></trkpt><trkpt lat="44.926301627448815" lon="6.689655439956563"><ele>1521.0</ele><time>2026-04-18T09:30:45Z</time></trkpt><trkpt lat="44.92637714443438" lon="6.689587852132453"><ele>1521.0</ele><time>2026-04-18T09:30:46Z</time></trkpt><trkpt lat="44.92645626569386" lon="6.6895393133499965"><ele>1521.0</ele><time>2026-04-18T09:30:47Z</time></trkpt><trkpt lat="44.92653559191883" lon="6.689501082310082"><ele>1521.0</ele><time>2026-04-18T09:30:48Z</time></trkpt><trkpt lat="44.926640232605216" lon="6.689590689797596"><ele>1521.0</ele><time>2026-04-18T09:30:49Z</time></trkpt><trkpt lat="44.926730379979205" lon="6.689563976898572"><ele>1521.0</ele><time>2026-04-18T09:30:50Z</time></trkpt><trkpt lat="44.92682419906891" lon="6.6895685359831525"><ele>1519.3333333333333</ele><time>2026-04-18T09:30:51Z</time></trkpt><trkpt lat="44.92691044049805" lon="6.689564565275362"><ele>1517.6666666666667</ele><time>2026-04-18T09:30:52Z</time></trkpt><trkpt lat="44.92699820538388" lon="6.689548832383792"><ele>1516.0</ele><time>2026-04-18T09:30:53Z</time></trkpt><trkpt lat="44.92707128005909" lon="6.689553868239431"><ele>1514.3333333333335</ele><time>2026-04-18T09:30:54Z</time></trkpt><trkpt lat="44.9271622476257" lon="6.689598389020688"><ele>1512.6666666666667</ele><time>2026-04-18T09:30:55Z</time></trkpt><trkpt lat="44.92724999808233" lon="6.6896738407487195"><ele>1511.0</ele><time>2026-04-18T09:30:56Z</time></trkpt><trkpt lat="44.92732665212745" lon="6.689724012028498"><ele>1511.0</ele><time>2026-04-18T09:30:57Z</time></trkpt><trkpt lat="44.927390664382294" lon="6.689803257016588"><ele>1511.0</ele><time>2026-04-18T09:30:58Z</time></trkpt><trkpt lat="44.92747580452854" lon="6.689870569501553"><ele>1511.0</ele><time>2026-04-18T09:30:59Z</time></trkpt><trkpt lat="44.927562143919076" lon="6.689949516156938"><ele>1511.0</ele><time>2026-04-18T09:31:00Z</time></trkpt><trkpt lat="44.92763066955419" lon="6.690002933688504"><ele>1511.0</ele><time>2026-04-18T09:31:01Z</time></trkpt><trkpt lat="44.92770117673078" lon="6.690042528272045"><ele>1511.0</ele><time>2026-04-18T09:31:02Z</time></trkpt><trkpt lat="44.92782513458796" lon="6.6900166197080795"><ele>1513.0</ele><time>2026-04-18T09:31:04Z</time></trkpt><trkpt lat="44.92787538054414" lon="6.68994408648088"><ele>1515.0</ele><time>2026-04-18T09:31:05Z</time></trkpt><trkpt lat="44.92785781464697" lon="6.689777346036672"><ele>1517.0</ele><time>2026-04-18T09:31:07Z</time></trkpt><trkpt lat="44.927821135598165" lon="6.689674219995577"><ele>1519.0</ele><time>2026-04-18T09:31:08Z</time></trkpt><trkpt lat="44.927755571819254" lon="6.689593349734607"><ele>1521.0</ele><time>2026-04-18T09:31:09Z</time></trkpt><trkpt lat="44.92766826270888" lon="6.689582516121682"><ele>1523.0</ele><time>2026-04-18T09:31:10Z</time></trkpt><trkpt lat="44.92759646951133" lon="6.689522797134457"><ele>1520.0</ele><time>2026-04-18T09:31:11Z</time></trkpt><trkpt lat="44.92750986840412" lon="6.689500539238971"><ele>1517.0</ele><time>2026-04-18T09:31:12Z</time></trkpt><trkpt lat="44.927349209161086" lon="6.689344371811962"><ele>1514.0</ele><time>2026-04-18T09:31:13Z</time></trkpt><trkpt lat="44.92722655087523" lon="6.689306565853942"><ele>1511.0</ele><time>2026-04-18T09:31:14Z</time></trkpt><trkpt lat="44.92713545923417" lon="6.689240591623768"><ele>1505.4</ele><time>2026-04-18T09:31:15Z</time></trkpt><trkpt lat="44.927041381391355" lon="6.689186810156058"><ele>1499.8</ele><time>2026-04-18T09:31:16Z</time></trkpt><trkpt lat="44.92694755059951" lon="6.689149730854781"><ele>1494.2</ele><time>2026-04-18T09:31:17Z</time></trkpt><trkpt lat="44.92684864035028" lon="6.689135639153462"><ele>1488.6000000000001</ele><time>2026-04-18T09:31:18Z</time></trkpt><trkpt lat="44.9267621363684" lon="6.6891300237260145"><ele>1483.0</ele><time>2026-04-18T09:31:19Z</time></trkpt><trkpt lat="44.92666528943183" lon="6.6891184150975205"><ele>1483.0</ele><time>2026-04-18T09:31:20Z</time></trkpt><trkpt lat="44.92657084843164" lon="6.689087982692789"><ele>1483.0</ele><time>2026-04-18T09:31:21Z</time></trkpt><trkpt lat="44.92648729166487" lon="6.689025212792863"><ele>1483.0</ele><time>2026-04-18T09:31:22Z</time></trkpt><trkpt lat="44.926397283307466" lon="6.689017359914812"><ele>1483.0</ele><time>2026-04-18T09:31:23Z</time></trkpt><trkpt lat="44.92626533601364" lon="6.689018270567836"><ele>1483.0</ele><time>2026-04-18T09:31:24Z</time></trkpt><trkpt lat="44.92616774685867" lon="6.689066638686131"><ele>1483.0</ele><time>2026-04-18T09:31:25Z</time></trkpt><trkpt lat="44.92609902842337" lon="6.689172108925711"><ele>1483.0</ele><time>2026-04-18T09:31:26Z</time></trkpt><trkpt lat="44.926019526557326" lon="6.689206864981799"><ele>1483.0</ele><time>2026-04-18T09:31:27Z</time></trkpt><trkpt lat="44.92594081913008" lon="6.689240938662101"><ele>1483.0</ele><time>2026-04-18T09:31:28Z</time></trkpt><trkpt lat="44.9258728628028" lon="6.68923537238628"><ele>1483.0</ele><time>2026-04-18T09:31:29Z</time></trkpt><trkpt lat="44.925800467354286" lon="6.689215033726237"><ele>1483.0</ele><time>2026-04-18T09:31:30Z</time></trkpt><trkpt lat="44.92573430965124" lon="6.689190075864107"><ele>1481.6000000000001</ele><time>2026-04-18T09:31:31Z</time></trkpt><trkpt lat="44.92567745054044" lon="6.689135992829997"><ele>1480.2</ele><time>2026-04-18T09:31:32Z</time></trkpt><trkpt lat="44.92560647347867" lon="6.689068911994828"><ele>1478.8</ele><time>2026-04-18T09:31:33Z</time></trkpt><trkpt lat="44.92552934116449" lon="6.688977334843816"><ele>1477.4</ele><time>2026-04-18T09:31:33.999Z</time></trkpt><trkpt lat="44.925462815533095" lon="6.68890677224676"><ele>1476.0</ele><time>2026-04-18T09:31:34.999Z</time></trkpt><trkpt lat="44.92536331982447" lon="6.688801238311793"><ele>1476.0</ele><time>2026-04-18T09:31:35.999Z</time></trkpt><trkpt lat="44.925273044078075" lon="6.688729371068718"><ele>1476.0</ele><time>2026-04-18T09:31:36.999Z</time></trkpt><trkpt lat="44.92518200300897" lon="6.688630749760157"><ele>1476.0</ele><time>2026-04-18T09:31:37.999Z</time></trkpt><trkpt lat="44.92510007487718" lon="6.6885637798488045"><ele>1476.0</ele><time>2026-04-18T09:31:38.999Z</time></trkpt><trkpt lat="44.92502440354988" lon="6.688517987995236"><ele>1476.0</ele><time>2026-04-18T09:31:39.999Z</time></trkpt><trkpt lat="44.924907420626646" lon="6.688535452536857"><ele>1475.6</ele><time>2026-04-18T09:31:40.999Z</time></trkpt><trkpt lat="44.92480138074667" lon="6.688574518599107"><ele>1475.1999999999998</ele><time>2026-04-18T09:31:41.999Z</time></trkpt><trkpt lat="44.924697456741754" lon="6.688582680618515"><ele>1474.8000000000002</ele><time>2026-04-18T09:31:42.999Z</time></trkpt><trkpt lat="44.9246219390713" lon="6.688603049314455"><ele>1474.4</ele><time>2026-04-18T09:31:43.999Z</time></trkpt><trkpt lat="44.92458413458541" lon="6.688676113911662"><ele>1474.0</ele><time>2026-04-18T09:31:44.999Z</time></trkpt><trkpt lat="44.92453079868566" lon="6.688883914353246"><ele>1474.0</ele><time>2026-04-18T09:31:45.999Z</time></trkpt><trkpt lat="44.92448229985305" lon="6.688980517015984"><ele>1474.0</ele><time>2026-04-18T09:31:46.999Z</time></trkpt><trkpt lat="44.92445535393862" lon="6.689074139297866"><ele>1474.0</ele><time>2026-04-18T09:31:47.999Z</time></trkpt><trkpt lat="44.924455468211455" lon="6.689272843250947"><ele>1474.0</ele><time>2026-04-18T09:31:48.999Z</time></trkpt><trkpt lat="44.92440994586664" lon="6.689457027066476"><ele>1474.0</ele><time>2026-04-18T09:31:49.999Z</time></trkpt><trkpt lat="44.92438862695688" lon="6.689638240474571"><ele>1477.0</ele><time>2026-04-18T09:31:50.999Z</time></trkpt><trkpt lat="44.92437751686136" lon="6.6897836697392385"><ele>1480.0</ele><time>2026-04-18T09:31:51.999Z</time></trkpt><trkpt lat="44.92436686684457" lon="6.689931266286275"><ele>1483.0</ele><time>2026-04-18T09:31:52.999Z</time></trkpt><trkpt lat="44.92436450030629" lon="6.690058566954613"><ele>1486.0</ele><time>2026-04-18T09:31:53.999Z</time></trkpt><trkpt lat="44.92434682232311" lon="6.6901549532374975"><ele>1489.0</ele><time>2026-04-18T09:31:54.999Z</time></trkpt><trkpt lat="44.92434800779395" lon="6.690288660122275"><ele>1491.1666666666665</ele><time>2026-04-18T09:31:55.999Z</time></trkpt><trkpt lat="44.924341038356204" lon="6.690423352993172"><ele>1493.3333333333333</ele><time>2026-04-18T09:31:56.999Z</time></trkpt><trkpt lat="44.92432501935154" lon="6.690546061610183"><ele>1495.5</ele><time>2026-04-18T09:31:57.999Z</time></trkpt><trkpt lat="44.92431179045682" lon="6.690655860575472"><ele>1497.6666666666667</ele><time>2026-04-18T09:31:58.999Z</time></trkpt><trkpt lat="44.92428629961233" lon="6.69077366048833"><ele>1499.8333333333335</ele><time>2026-04-18T09:31:59.999Z</time></trkpt><trkpt lat="44.924247962726334" lon="6.690882545639336"><ele>1502.0</ele><time>2026-04-18T09:32:00.999Z</time></trkpt><trkpt lat="44.924133150165794" lon="6.690886412169065"><ele>1495.3999999999999</ele><time>2026-04-18T09:32:01.999Z</time></trkpt><trkpt lat="44.92406286715445" lon="6.690859257247806"><ele>1488.8</ele><time>2026-04-18T09:32:02.999Z</time></trkpt><trkpt lat="44.9240152843899" lon="6.690781512235608"><ele>1482.2</ele><time>2026-04-18T09:32:03.999Z</time></trkpt><trkpt lat="44.92391946326846" lon="6.6907349955851565"><ele>1475.6</ele><time>2026-04-18T09:32:04.999Z</time></trkpt><trkpt lat="44.92384056375575" lon="6.690645783695798"><ele>1469.0</ele><time>2026-04-18T09:32:05.999Z</time></trkpt><trkpt lat="44.92375661099934" lon="6.690489253408373"><ele>1469.0</ele><time>2026-04-18T09:32:06.999Z</time></trkpt><trkpt lat="44.92371090560669" lon="6.690382299817444"><ele>1469.0</ele><time>2026-04-18T09:32:07.999Z</time></trkpt><trkpt lat="44.92365628228599" lon="6.690250171267207"><ele>1469.0</ele><time>2026-04-18T09:32:08.999Z</time></trkpt><trkpt lat="44.9235951102771" lon="6.690118620053027"><ele>1469.0</ele><time>2026-04-18T09:32:09.999Z</time></trkpt><trkpt lat="44.92353142871129" lon="6.689985322890029"><ele>1469.0</ele><time>2026-04-18T09:32:10.999Z</time></trkpt><trkpt lat="44.92345132943848" lon="6.6898706175761795"><ele>1467.8000000000002</ele><time>2026-04-18T09:32:11.999Z</time></trkpt><trkpt lat="44.92339927145002" lon="6.689714054919023"><ele>1466.6000000000001</ele><time>2026-04-18T09:32:12.999Z</time></trkpt><trkpt lat="44.92332937321365" lon="6.689589151105719"><ele>1465.4</ele><time>2026-04-18T09:32:13.999Z</time></trkpt><trkpt lat="44.92326373791365" lon="6.689504609113251"><ele>1464.2</ele><time>2026-04-18T09:32:14.999Z</time></trkpt><trkpt lat="44.92318458955956" lon="6.689404483834575"><ele>1463.0</ele><time>2026-04-18T09:32:15.999Z</time></trkpt><trkpt lat="44.923116930081655" lon="6.6893031377031065"><ele>1458.4</ele><time>2026-04-18T09:32:16.999Z</time></trkpt><trkpt lat="44.92305471413019" lon="6.6891957279227565"><ele>1453.8000000000002</ele><time>2026-04-18T09:32:17.999Z</time></trkpt><trkpt lat="44.92301259244347" lon="6.68908477572325"><ele>1449.2</ele><time>2026-04-18T09:32:18.999Z</time></trkpt><trkpt lat="44.922977327011964" lon="6.688976346744163"><ele>1444.6</ele><time>2026-04-18T09:32:19.999Z</time></trkpt><trkpt lat="44.922937411977756" lon="6.688863815629305"><ele>1440.0</ele><time>2026-04-18T09:32:20.999Z</time></trkpt><trkpt lat="44.9228911497977" lon="6.688740084976292"><ele>1440.0</ele><time>2026-04-18T09:32:21.999Z</time></trkpt><trkpt lat="44.92284266773382" lon="6.688618944850174"><ele>1440.0</ele><time>2026-04-18T09:32:22.999Z</time></trkpt><trkpt lat="44.9228024500484" lon="6.688502717337545"><ele>1440.0</ele><time>2026-04-18T09:32:23.999Z</time></trkpt><trkpt lat="44.92277448542484" lon="6.688367209978862"><ele>1440.0</ele><time>2026-04-18T09:32:24.999Z</time></trkpt><trkpt lat="44.92272935385897" lon="6.688238850629167"><ele>1440.0</ele><time>2026-04-18T09:32:25.999Z</time></trkpt><trkpt lat="44.92269096298232" lon="6.6880974218136435"><ele>1440.0</ele><time>2026-04-18T09:32:26.999Z</time></trkpt><trkpt lat="44.92265216286764" lon="6.687967201242673"><ele>1440.0</ele><time>2026-04-18T09:32:27.999Z</time></trkpt><trkpt lat="44.92261401625565" lon="6.6878312902862715"><ele>1440.0</ele><time>2026-04-18T09:32:28.999Z</time></trkpt><trkpt lat="44.92257992008527" lon="6.687697221237615"><ele>1440.0</ele><time>2026-04-18T09:32:30Z</time></trkpt><trkpt lat="44.92255155010392" lon="6.687583210194262"><ele>1440.0</ele><time>2026-04-18T09:32:31Z</time></trkpt><trkpt lat="44.922519939653476" lon="6.68745348482796"><ele>1440.0</ele><time>2026-04-18T09:32:32Z</time></trkpt><trkpt lat="44.92249052903875" lon="6.6873396811718315"><ele>1440.0</ele><time>2026-04-18T09:32:33Z</time></trkpt><trkpt lat="44.92245804740476" lon="6.687229565237811"><ele>1440.0</ele><time>2026-04-18T09:32:34Z</time></trkpt><trkpt lat="44.922411753718144" lon="6.687130335917066"><ele>1440.0</ele><time>2026-04-18T09:32:35Z</time></trkpt><trkpt lat="44.9223503862245" lon="6.6870520628030805"><ele>1440.0</ele><time>2026-04-18T09:32:36Z</time></trkpt><trkpt lat="44.9222691075429" lon="6.686995992149835"><ele>1440.0</ele><time>2026-04-18T09:32:37Z</time></trkpt><trkpt lat="44.92220244520725" lon="6.6869736929281975"><ele>1440.0</ele><time>2026-04-18T09:32:38Z</time></trkpt><trkpt lat="44.92213576895499" lon="6.686932771589212"><ele>1440.0</ele><time>2026-04-18T09:32:39Z</time></trkpt><trkpt lat="44.922054601869924" lon="6.686883031169392"><ele>1440.0</ele><time>2026-04-18T09:32:40Z</time></trkpt><trkpt lat="44.92196357161679" lon="6.686876743268929"><ele>1440.0</ele><time>2026-04-18T09:32:41Z</time></trkpt><trkpt lat="44.92185923442118" lon="6.686869862309698"><ele>1440.0</ele><time>2026-04-18T09:32:42Z</time></trkpt><trkpt lat="44.921764904600714" lon="6.686853740574517"><ele>1439.0</ele><time>2026-04-18T09:32:43Z</time></trkpt><trkpt lat="44.92169329455889" lon="6.6867870751605585"><ele>1438.0</ele><time>2026-04-18T09:32:44Z</time></trkpt><trkpt lat="44.9216460705146" lon="6.686682086356571"><ele>1437.0</ele><time>2026-04-18T09:32:45Z</time></trkpt><trkpt lat="44.921596585904666" lon="6.686581854154945"><ele>1436.0</ele><time>2026-04-18T09:32:46Z</time></trkpt><trkpt lat="44.92157701705952" lon="6.686449399705792"><ele>1435.0</ele><time>2026-04-18T09:32:47Z</time></trkpt><trkpt lat="44.92155179206638" lon="6.686308601351613"><ele>1435.0</ele><time>2026-04-18T09:32:48Z</time></trkpt><trkpt lat="44.92148949493658" lon="6.686213663465097"><ele>1435.0</ele><time>2026-04-18T09:32:49Z</time></trkpt><trkpt lat="44.92145458488121" lon="6.686124543498937"><ele>1435.0</ele><time>2026-04-18T09:32:50Z</time></trkpt><trkpt lat="44.92140036095174" lon="6.686022305202668"><ele>1435.0</ele><time>2026-04-18T09:32:51Z</time></trkpt><trkpt lat="44.92132994115319" lon="6.685951333565873"><ele>1435.0</ele><time>2026-04-18T09:32:52Z</time></trkpt><trkpt lat="44.921264386579274" lon="6.685872847934511"><ele>1435.0</ele><time>2026-04-18T09:32:53Z</time></trkpt><trkpt lat="44.92121081977485" lon="6.6857872063112165"><ele>1431.2</ele><time>2026-04-18T09:32:54Z</time></trkpt><trkpt lat="44.92115741059411" lon="6.685692480654622"><ele>1427.4</ele><time>2026-04-18T09:32:55Z</time></trkpt><trkpt lat="44.92109867857129" lon="6.685619348631926"><ele>1423.6</ele><time>2026-04-18T09:32:56Z</time></trkpt><trkpt lat="44.92104904506835" lon="6.68548664332104"><ele>1419.8</ele><time>2026-04-18T09:32:57Z</time></trkpt><trkpt lat="44.92101263743736" lon="6.685364357389443"><ele>1416.0</ele><time>2026-04-18T09:32:58Z</time></trkpt><trkpt lat="44.920998852575224" lon="6.685213575460268"><ele>1414.0</ele><time>2026-04-18T09:32:59Z</time></trkpt><trkpt lat="44.920995727109506" lon="6.685080565729896"><ele>1412.0</ele><time>2026-04-18T09:33:00Z</time></trkpt><trkpt lat="44.92102312929167" lon="6.684913990049424"><ele>1410.0</ele><time>2026-04-18T09:33:01Z</time></trkpt><trkpt lat="44.921047687646464" lon="6.684738887296956"><ele>1408.0</ele><time>2026-04-18T09:33:02Z</time></trkpt><trkpt lat="44.92108132966991" lon="6.684586650437861"><ele>1408.0</ele><time>2026-04-18T09:33:03Z</time></trkpt><trkpt lat="44.921126991715205" lon="6.6844502240941095"><ele>1408.0</ele><time>2026-04-18T09:33:04Z</time></trkpt><trkpt lat="44.92117434501704" lon="6.684310026796674"><ele>1408.0</ele><time>2026-04-18T09:33:05Z</time></trkpt><trkpt lat="44.921217180911135" lon="6.684167477249534"><ele>1408.0</ele><time>2026-04-18T09:33:06Z</time></trkpt><trkpt lat="44.92124351069869" lon="6.684030969951521"><ele>1408.0</ele><time>2026-04-18T09:33:07Z</time></trkpt><trkpt lat="44.92126923984407" lon="6.683920663980711"><ele>1407.3333333333333</ele><time>2026-04-18T09:33:08Z</time></trkpt><trkpt lat="44.92126988975974" lon="6.683749726921124"><ele>1406.6666666666665</ele><time>2026-04-18T09:33:10Z</time></trkpt><trkpt lat="44.92127221827355" lon="6.683652526574654"><ele>1406.0</ele><time>2026-04-18T09:33:11Z</time></trkpt><trkpt lat="44.92127023119086" lon="6.68353901319562"><ele>1405.3333333333333</ele><time>2026-04-18T09:33:12Z</time></trkpt><trkpt lat="44.921261450194535" lon="6.683423069976443"><ele>1404.6666666666667</ele><time>2026-04-18T09:33:13Z</time></trkpt><trkpt lat="44.9212573923903" lon="6.683320980124489"><ele>1404.0</ele><time>2026-04-18T09:33:14Z</time></trkpt><trkpt lat="44.92124196837072" lon="6.683191232829986"><ele>1403.2</ele><time>2026-04-18T09:33:15Z</time></trkpt><trkpt lat="44.92122930192464" lon="6.683068956823103"><ele>1402.4</ele><time>2026-04-18T09:33:16Z</time></trkpt><trkpt lat="44.92121318669592" lon="6.6829371604402485"><ele>1401.6</ele><time>2026-04-18T09:33:17Z</time></trkpt><trkpt lat="44.92120943176856" lon="6.682784341547121"><ele>1400.8</ele><time>2026-04-18T09:33:18Z</time></trkpt><trkpt lat="44.921189456950536" lon="6.682631645756478"><ele>1400.0</ele><time>2026-04-18T09:33:19Z</time></trkpt><trkpt lat="44.921163906263615" lon="6.68248016465784"><ele>1398.75</ele><time>2026-04-18T09:33:20Z</time></trkpt><trkpt lat="44.92113348510848" lon="6.682313075906226"><ele>1397.5</ele><time>2026-04-18T09:33:21Z</time></trkpt><trkpt lat="44.92110865812206" lon="6.682141380303255"><ele>1396.25</ele><time>2026-04-18T09:33:22Z</time></trkpt><trkpt lat="44.92107610000077" lon="6.681981155647414"><ele>1395.0</ele><time>2026-04-18T09:33:23Z</time></trkpt><trkpt lat="44.92103983831778" lon="6.68182529627105"><ele>1394.0</ele><time>2026-04-18T09:33:24Z</time></trkpt><trkpt lat="44.92100035467669" lon="6.681664036522171"><ele>1393.0</ele><time>2026-04-18T09:33:25Z</time></trkpt><trkpt lat="44.920955400147896" lon="6.681500630037995"><ele>1392.0</ele><time>2026-04-18T09:33:26Z</time></trkpt><trkpt lat="44.92090686909813" lon="6.681330818378701"><ele>1391.0</ele><time>2026-04-18T09:33:27Z</time></trkpt><trkpt lat="44.92087377061313" lon="6.681194805359408"><ele>1391.8</ele><time>2026-04-18T09:33:28Z</time></trkpt><trkpt lat="44.92083364705653" lon="6.681058376195291"><ele>1392.6</ele><time>2026-04-18T09:33:29Z</time></trkpt><trkpt lat="44.920807160034904" lon="6.680950230352486"><ele>1393.4</ele><time>2026-04-18T09:33:30Z</time></trkpt><trkpt lat="44.9207605212234" lon="6.680790402659084"><ele>1394.2</ele><time>2026-04-18T09:33:32Z</time></trkpt><trkpt lat="44.920719595093765" lon="6.680691600653319"><ele>1395.0</ele><time>2026-04-18T09:33:33Z</time></trkpt><trkpt lat="44.92068558581841" lon="6.680577415557181"><ele>1395.0</ele><time>2026-04-18T09:33:34Z</time></trkpt><trkpt lat="44.920653233216065" lon="6.680460337329104"><ele>1395.0</ele><time>2026-04-18T09:33:35Z</time></trkpt><trkpt lat="44.92062783217655" lon="6.680332516791638"><ele>1395.0</ele><time>2026-04-18T09:33:36Z</time></trkpt><trkpt lat="44.92058533467083" lon="6.680183264883808"><ele>1395.0</ele><time>2026-04-18T09:33:37Z</time></trkpt><trkpt lat="44.92053421486751" lon="6.680053521275765"><ele>1395.0</ele><time>2026-04-18T09:33:38Z</time></trkpt><trkpt lat="44.92049051808958" lon="6.679934156744869"><ele>1393.5</ele><time>2026-04-18T09:33:39Z</time></trkpt><trkpt lat="44.92042842749183" lon="6.679812048014469"><ele>1392.0</ele><time>2026-04-18T09:33:40Z</time></trkpt><trkpt lat="44.92035714993036" lon="6.679682343090202"><ele>1390.5</ele><time>2026-04-18T09:33:41Z</time></trkpt><trkpt lat="44.920294728069145" lon="6.679532340751592"><ele>1389.0</ele><time>2026-04-18T09:33:42Z</time></trkpt><trkpt lat="44.920236687101415" lon="6.679390995267467"><ele>1388.4</ele><time>2026-04-18T09:33:43Z</time></trkpt><trkpt lat="44.92016849616106" lon="6.67927129976986"><ele>1387.8000000000002</ele><time>2026-04-18T09:33:44Z</time></trkpt><trkpt lat="44.9201009524366" lon="6.679156374260974"><ele>1387.1999999999998</ele><time>2026-04-18T09:33:45Z</time></trkpt><trkpt lat="44.92004002771512" lon="6.679052823137047"><ele>1386.6</ele><time>2026-04-18T09:33:46Z</time></trkpt><trkpt lat="44.91997467230064" lon="6.678929952767576"><ele>1386.0</ele><time>2026-04-18T09:33:47Z</time></trkpt><trkpt lat="44.91989214439759" lon="6.678797548751404"><ele>1386.0</ele><time>2026-04-18T09:33:48Z</time></trkpt><trkpt lat="44.91981593845788" lon="6.678677371147123"><ele>1386.0</ele><time>2026-04-18T09:33:49Z</time></trkpt><trkpt lat="44.91975305700316" lon="6.678589380098416"><ele>1386.0</ele><time>2026-04-18T09:33:50Z</time></trkpt><trkpt lat="44.91966825951208" lon="6.678499755795452"><ele>1386.0</ele><time>2026-04-18T09:33:51Z</time></trkpt><trkpt lat="44.919589576847684" lon="6.678399293593032"><ele>1386.0</ele><time>2026-04-18T09:33:52Z</time></trkpt><trkpt lat="44.91949900696615" lon="6.67829053590675"><ele>1384.6666666666667</ele><time>2026-04-18T09:33:53Z</time></trkpt><trkpt lat="44.919397578633415" lon="6.678180529536382"><ele>1383.3333333333335</ele><time>2026-04-18T09:33:54Z</time></trkpt><trkpt lat="44.91928515219046" lon="6.678001938425495"><ele>1382.0</ele><time>2026-04-18T09:33:55Z</time></trkpt><trkpt lat="44.91912092740612" lon="6.677842080619888"><ele>1379.3333333333335</ele><time>2026-04-18T09:33:56Z</time></trkpt><trkpt lat="44.9189391056753" lon="6.677703896313214"><ele>1376.6666666666667</ele><time>2026-04-18T09:33:57Z</time></trkpt><trkpt lat="44.91877315538295" lon="6.67756428258926"><ele>1374.0</ele><time>2026-04-18T09:33:58Z</time></trkpt><trkpt lat="44.918570903146936" lon="6.677422766128672"><ele>1376.0</ele><time>2026-04-18T09:33:58.999Z</time></trkpt><trkpt lat="44.91833886091996" lon="6.6772337369631325"><ele>1378.0</ele><time>2026-04-18T09:33:59.999Z</time></trkpt><trkpt lat="44.91802761098012" lon="6.677092090637084"><ele>1374.5</ele><time>2026-04-18T09:34:00.999Z</time></trkpt><trkpt lat="44.91775124647417" lon="6.676921168846372"><ele>1371.0</ele><time>2026-04-18T09:34:01.999Z</time></trkpt><trkpt lat="44.91750545779832" lon="6.676767869279606"><ele>1371.0</ele><time>2026-04-18T09:34:02.999Z</time></trkpt><trkpt lat="44.91727388613413" lon="6.676604935449509"><ele>1371.0</ele><time>2026-04-18T09:34:03.999Z</time></trkpt><trkpt lat="44.91704440154251" lon="6.67644017063235"><ele>1371.0</ele><time>2026-04-18T09:34:04.999Z</time></trkpt><trkpt lat="44.91681711630151" lon="6.676274134644619"><ele>1371.0</ele><time>2026-04-18T09:34:05.999Z</time></trkpt><trkpt lat="44.916601766244405" lon="6.6761128329353925"><ele>1369.0</ele><time>2026-04-18T09:34:06.999Z</time></trkpt><trkpt lat="44.91637806128086" lon="6.675943294650163"><ele>1367.0</ele><time>2026-04-18T09:34:07.999Z</time></trkpt><trkpt lat="44.91617571664593" lon="6.675787154752767"><ele>1367.0</ele><time>2026-04-18T09:34:08.999Z</time></trkpt><trkpt lat="44.91597238874227" lon="6.675640441440154"><ele>1367.0</ele><time>2026-04-18T09:34:09.999Z</time></trkpt><trkpt lat="44.91576595211018" lon="6.675467923129124"><ele>1365.0</ele><time>2026-04-18T09:34:10.999Z</time></trkpt><trkpt lat="44.91556787837593" lon="6.6753117377320415"><ele>1363.0</ele><time>2026-04-18T09:34:11.999Z</time></trkpt><trkpt lat="44.91536075265335" lon="6.675173225822512"><ele>1363.0</ele><time>2026-04-18T09:34:12.999Z</time></trkpt><trkpt lat="44.915165375290655" lon="6.675008607008367"><ele>1363.0</ele><time>2026-04-18T09:34:13.999Z</time></trkpt><trkpt lat="44.91496935452371" lon="6.674868444419011"><ele>1363.0</ele><time>2026-04-18T09:34:14.999Z</time></trkpt><trkpt lat="44.91476369757632" lon="6.6747328155983565"><ele>1364.0</ele><time>2026-04-18T09:34:15.999Z</time></trkpt><trkpt lat="44.91458626062999" lon="6.674571704539792"><ele>1365.0</ele><time>2026-04-18T09:34:16.999Z</time></trkpt><trkpt lat="44.914397516541484" lon="6.674427801160456"><ele>1366.0</ele><time>2026-04-18T09:34:17.999Z</time></trkpt><trkpt lat="44.9142291060282" lon="6.674236069988768"><ele>1359.5</ele><time>2026-04-18T09:34:18.999Z</time></trkpt><trkpt lat="44.91403811573843" lon="6.674047217936541"><ele>1353.0</ele><time>2026-04-18T09:34:19.999Z</time></trkpt><trkpt lat="44.91385466680427" lon="6.673834795394281"><ele>1353.0</ele><time>2026-04-18T09:34:20.999Z</time></trkpt><trkpt lat="44.9136970306808" lon="6.673616782255813"><ele>1353.0</ele><time>2026-04-18T09:34:21.999Z</time></trkpt><trkpt lat="44.9135500833531" lon="6.673383598694182"><ele>1353.0</ele><time>2026-04-18T09:34:22.999Z</time></trkpt><trkpt lat="44.913402460115186" lon="6.673136750032792"><ele>1354.3333333333333</ele><time>2026-04-18T09:34:23.999Z</time></trkpt><trkpt lat="44.91324701566663" lon="6.6729082411666605"><ele>1355.6666666666665</ele><time>2026-04-18T09:34:24.999Z</time></trkpt><trkpt lat="44.913103438950614" lon="6.672666923933403"><ele>1357.0</ele><time>2026-04-18T09:34:25.999Z</time></trkpt><trkpt lat="44.9129569137776" lon="6.672439813916699"><ele>1358.3333333333333</ele><time>2026-04-18T09:34:26.999Z</time></trkpt><trkpt lat="44.91283188499378" lon="6.672217796578297"><ele>1359.6666666666667</ele><time>2026-04-18T09:34:27.999Z</time></trkpt><trkpt lat="44.91269930928114" lon="6.6719832723741845"><ele>1361.0</ele><time>2026-04-18T09:34:28.999Z</time></trkpt><trkpt lat="44.91256320120137" lon="6.6717050527433"><ele>1361.6666666666667</ele><time>2026-04-18T09:34:29.999Z</time></trkpt><trkpt lat="44.912433401587094" lon="6.671459195921732"><ele>1362.3333333333333</ele><time>2026-04-18T09:34:30.999Z</time></trkpt><trkpt lat="44.91230152025854" lon="6.671231153858939"><ele>1363.0</ele><time>2026-04-18T09:34:31.999Z</time></trkpt><trkpt lat="44.91217929744299" lon="6.671013317902782"><ele>1365.6666666666665</ele><time>2026-04-18T09:34:32.999Z</time></trkpt><trkpt lat="44.91204385059601" lon="6.6707980363966115"><ele>1368.3333333333333</ele><time>2026-04-18T09:34:33.999Z</time></trkpt><trkpt lat="44.91192057444942" lon="6.670570898673571"><ele>1371.0</ele><time>2026-04-18T09:34:34.999Z</time></trkpt><trkpt lat="44.91179145244076" lon="6.670315618853081"><ele>1369.3333333333333</ele><time>2026-04-18T09:34:36Z</time></trkpt><trkpt lat="44.91166845701718" lon="6.670050290913684"><ele>1367.6666666666665</ele><time>2026-04-18T09:34:37Z</time></trkpt><trkpt lat="44.91154601575306" lon="6.669804941016618"><ele>1366.0</ele><time>2026-04-18T09:34:38Z</time></trkpt><trkpt lat="44.91142835927386" lon="6.669559396777378"><ele>1367.0</ele><time>2026-04-18T09:34:39Z</time></trkpt><trkpt lat="44.91130985478089" lon="6.669299285812033"><ele>1368.0</ele><time>2026-04-18T09:34:40Z</time></trkpt><trkpt lat="44.911184139637676" lon="6.669031018010638"><ele>1369.0</ele><time>2026-04-18T09:34:41Z</time></trkpt><trkpt lat="44.91107473294907" lon="6.66880076244383"><ele>1370.6666666666665</ele><time>2026-04-18T09:34:42Z</time></trkpt><trkpt lat="44.91095153876793" lon="6.668538781478026"><ele>1372.3333333333333</ele><time>2026-04-18T09:34:43Z</time></trkpt><trkpt lat="44.910839638061354" lon="6.668270894829178"><ele>1374.0</ele><time>2026-04-18T09:34:44Z</time></trkpt><trkpt lat="44.91072049268657" lon="6.668026224971195"><ele>1370.3333333333333</ele><time>2026-04-18T09:34:45Z</time></trkpt><trkpt lat="44.91059488885914" lon="6.667791311325864"><ele>1366.6666666666665</ele><time>2026-04-18T09:34:46Z</time></trkpt><trkpt lat="44.91047608451035" lon="6.667555584449587"><ele>1363.0</ele><time>2026-04-18T09:34:47Z</time></trkpt><trkpt lat="44.91036793912233" lon="6.667316778729027"><ele>1363.0</ele><time>2026-04-18T09:34:48Z</time></trkpt><trkpt lat="44.91026323652675" lon="6.667091235911724"><ele>1363.0</ele><time>2026-04-18T09:34:49Z</time></trkpt><trkpt lat="44.910164073764165" lon="6.666858659973238"><ele>1363.0</ele><time>2026-04-18T09:34:50Z</time></trkpt><trkpt lat="44.91006439573297" lon="6.666644722236641"><ele>1359.0</ele><time>2026-04-18T09:34:51Z</time></trkpt><trkpt lat="44.90996698375548" lon="6.666417409765651"><ele>1355.0</ele><time>2026-04-18T09:34:52Z</time></trkpt><trkpt lat="44.909888495183466" lon="6.6661857535561335"><ele>1351.0</ele><time>2026-04-18T09:34:53Z</time></trkpt><trkpt lat="44.90982208890658" lon="6.66594103877491"><ele>1351.0</ele><time>2026-04-18T09:34:54Z</time></trkpt><trkpt lat="44.90976999682125" lon="6.6656988074607275"><ele>1351.0</ele><time>2026-04-18T09:34:55Z</time></trkpt><trkpt lat="44.909743984357505" lon="6.6654225344802995"><ele>1351.0</ele><time>2026-04-18T09:34:56Z</time></trkpt><trkpt lat="44.909718007039395" lon="6.665138480824628"><ele>1349.3333333333333</ele><time>2026-04-18T09:34:57Z</time></trkpt><trkpt lat="44.90976954455927" lon="6.664831464868135"><ele>1347.6666666666667</ele><time>2026-04-18T09:34:58Z</time></trkpt><trkpt lat="44.90976615559424" lon="6.664534456421904"><ele>1346.0</ele><time>2026-04-18T09:34:59Z</time></trkpt><trkpt lat="44.90976913075287" lon="6.664265605170849"><ele>1346.0</ele><time>2026-04-18T09:35:00Z</time></trkpt><trkpt lat="44.90974928186815" lon="6.663982702826717"><ele>1346.0</ele><time>2026-04-18T09:35:01Z</time></trkpt><trkpt lat="44.90973743631215" lon="6.663707441601164"><ele>1346.0</ele><time>2026-04-18T09:35:02Z</time></trkpt><trkpt lat="44.90970867327092" lon="6.663435271202619"><ele>1346.0</ele><time>2026-04-18T09:35:03Z</time></trkpt><trkpt lat="44.90968808957975" lon="6.6631850253913205"><ele>1346.0</ele><time>2026-04-18T09:35:04Z</time></trkpt><trkpt lat="44.90963811550971" lon="6.662957981736559"><ele>1346.0</ele><time>2026-04-18T09:35:05Z</time></trkpt><trkpt lat="44.90958049849296" lon="6.662767233758081"><ele>1345.3333333333335</ele><time>2026-04-18T09:35:06Z</time></trkpt><trkpt lat="44.909449010089645" lon="6.662632523651111"><ele>1344.6666666666667</ele><time>2026-04-18T09:35:07Z</time></trkpt><trkpt lat="44.90933781797286" lon="6.662435765165001"><ele>1344.0</ele><time>2026-04-18T09:35:08Z</time></trkpt><trkpt lat="44.9092061857815" lon="6.662276638430215"><ele>1344.0</ele><time>2026-04-18T09:35:09Z</time></trkpt><trkpt lat="44.909061757950056" lon="6.662137584034985"><ele>1344.0</ele><time>2026-04-18T09:35:10Z</time></trkpt><trkpt lat="44.90889910453742" lon="6.662079194871554"><ele>1344.0</ele><time>2026-04-18T09:35:11Z</time></trkpt><trkpt lat="44.90874174001189" lon="6.662004760891488"><ele>1344.0</ele><time>2026-04-18T09:35:12Z</time></trkpt><trkpt lat="44.90857017524201" lon="6.662009690575008"><ele>1344.0</ele><time>2026-04-18T09:35:13Z</time></trkpt><trkpt lat="44.90842077087807" lon="6.6619975268852425"><ele>1344.0</ele><time>2026-04-18T09:35:14Z</time></trkpt><trkpt lat="44.90824232041856" lon="6.662038110712015"><ele>1339.3333333333333</ele><time>2026-04-18T09:35:15Z</time></trkpt><trkpt lat="44.90808532583648" lon="6.6619910280100685"><ele>1334.6666666666665</ele><time>2026-04-18T09:35:16Z</time></trkpt><trkpt lat="44.90793563219114" lon="6.661925535887673"><ele>1330.0</ele><time>2026-04-18T09:35:17Z</time></trkpt><trkpt lat="44.90778708193671" lon="6.661876496071622"><ele>1331.25</ele><time>2026-04-18T09:35:18Z</time></trkpt><trkpt lat="44.9076479165683" lon="6.661814546825359"><ele>1332.5</ele><time>2026-04-18T09:35:19Z</time></trkpt><trkpt lat="44.90753871653158" lon="6.661717564656076"><ele>1333.75</ele><time>2026-04-18T09:35:20Z</time></trkpt><trkpt lat="44.90748258330739" lon="6.661535951664448"><ele>1335.0</ele><time>2026-04-18T09:35:21Z</time></trkpt><trkpt lat="44.90742093527658" lon="6.661341505298277"><ele>1335.0</ele><time>2026-04-18T09:35:22Z</time></trkpt><trkpt lat="44.907355646203435" lon="6.661183936971829"><ele>1335.0</ele><time>2026-04-18T09:35:23Z</time></trkpt><trkpt lat="44.90738048870921" lon="6.661006719829948"><ele>1335.0</ele><time>2026-04-18T09:35:24Z</time></trkpt><trkpt lat="44.90739396129252" lon="6.660778516616436"><ele>1335.0</ele><time>2026-04-18T09:35:25Z</time></trkpt><trkpt lat="44.90740302384777" lon="6.660579999379359"><ele>1338.6666666666667</ele><time>2026-04-18T09:35:26Z</time></trkpt><trkpt lat="44.907388858910345" lon="6.660383500246177"><ele>1342.3333333333335</ele><time>2026-04-18T09:35:27Z</time></trkpt><trkpt lat="44.90733847407849" lon="6.660191996839945"><ele>1346.0</ele><time>2026-04-18T09:35:28Z</time></trkpt><trkpt lat="44.90723242886552" lon="6.6599787777225785"><ele>1351.0</ele><time>2026-04-18T09:35:29Z</time></trkpt><trkpt lat="44.907127514096835" lon="6.65981268049039"><ele>1356.0</ele><time>2026-04-18T09:35:30Z</time></trkpt><trkpt lat="44.907006721023215" lon="6.659643830673193"><ele>1361.0</ele><time>2026-04-18T09:35:31Z</time></trkpt><trkpt lat="44.90689052333401" lon="6.659518131194748"><ele>1362.0</ele><time>2026-04-18T09:35:32Z</time></trkpt><trkpt lat="44.906752065683804" lon="6.659431057721114"><ele>1363.0</ele><time>2026-04-18T09:35:33Z</time></trkpt><trkpt lat="44.90659182683667" lon="6.659360877572291"><ele>1364.0</ele><time>2026-04-18T09:35:34Z</time></trkpt><trkpt lat="44.90642141189991" lon="6.659287487472133"><ele>1364.0</ele><time>2026-04-18T09:35:35Z</time></trkpt><trkpt lat="44.906251300889515" lon="6.65918992001171"><ele>1364.0</ele><time>2026-04-18T09:35:36Z</time></trkpt><trkpt lat="44.90609881515036" lon="6.659095029186097"><ele>1364.0</ele><time>2026-04-18T09:35:37Z</time></trkpt><trkpt lat="44.905955786769994" lon="6.6589945550833844"><ele>1359.0</ele><time>2026-04-18T09:35:38Z</time></trkpt><trkpt lat="44.90583122371109" lon="6.658859543776604"><ele>1354.0</ele><time>2026-04-18T09:35:39Z</time></trkpt><trkpt lat="44.90570431653432" lon="6.658705523291927"><ele>1349.0</ele><time>2026-04-18T09:35:40Z</time></trkpt><trkpt lat="44.90559409586356" lon="6.658538704104769"><ele>1349.0</ele><time>2026-04-18T09:35:41Z</time></trkpt><trkpt lat="44.905502602771996" lon="6.658355129667421"><ele>1349.0</ele><time>2026-04-18T09:35:42Z</time></trkpt><trkpt lat="44.90539267974371" lon="6.658188217212344"><ele>1349.0</ele><time>2026-04-18T09:35:43Z</time></trkpt><trkpt lat="44.905290087263715" lon="6.658015738846536"><ele>1349.0</ele><time>2026-04-18T09:35:44Z</time></trkpt><trkpt lat="44.905209558476" lon="6.657844189111195"><ele>1349.0</ele><time>2026-04-18T09:35:45Z</time></trkpt><trkpt lat="44.90512086407376" lon="6.657694417995233"><ele>1349.0</ele><time>2026-04-18T09:35:46Z</time></trkpt><trkpt lat="44.905045709554116" lon="6.657533665313741"><ele>1349.0</ele><time>2026-04-18T09:35:47Z</time></trkpt><trkpt lat="44.90498133475486" lon="6.657380838273058"><ele>1346.25</ele><time>2026-04-18T09:35:48Z</time></trkpt><trkpt lat="44.904927059524596" lon="6.657217951072131"><ele>1343.5</ele><time>2026-04-18T09:35:49Z</time></trkpt><trkpt lat="44.904883893986764" lon="6.657038345492968"><ele>1340.75</ele><time>2026-04-18T09:35:50Z</time></trkpt><trkpt lat="44.90486744686579" lon="6.656855511534118"><ele>1338.0</ele><time>2026-04-18T09:35:51Z</time></trkpt><trkpt lat="44.90485977514095" lon="6.656659968892754"><ele>1338.0</ele><time>2026-04-18T09:35:52Z</time></trkpt><trkpt lat="44.90486570364456" lon="6.65644393668626"><ele>1338.0</ele><time>2026-04-18T09:35:53Z</time></trkpt><trkpt lat="44.90488276188145" lon="6.656237102711271"><ele>1338.0</ele><time>2026-04-18T09:35:54Z</time></trkpt><trkpt lat="44.90487318771331" lon="6.656016646237487"><ele>1340.5</ele><time>2026-04-18T09:35:55Z</time></trkpt><trkpt lat="44.90486839342018" lon="6.655805923078616"><ele>1343.0</ele><time>2026-04-18T09:35:56Z</time></trkpt><trkpt lat="44.90485789211653" lon="6.655605999343131"><ele>1345.5</ele><time>2026-04-18T09:35:57Z</time></trkpt><trkpt lat="44.90482559323299" lon="6.655409870302673"><ele>1348.0</ele><time>2026-04-18T09:35:58Z</time></trkpt><trkpt lat="44.904795249707135" lon="6.6552067224314975"><ele>1351.0</ele><time>2026-04-18T09:35:59Z</time></trkpt><trkpt lat="44.904729946916476" lon="6.65498040400025"><ele>1354.0</ele><time>2026-04-18T09:36:00Z</time></trkpt><trkpt lat="44.904604177146275" lon="6.6547330279224415"><ele>1357.0</ele><time>2026-04-18T09:36:01Z</time></trkpt><trkpt lat="44.904520260797405" lon="6.654511319709431"><ele>1362.3333333333333</ele><time>2026-04-18T09:36:02Z</time></trkpt><trkpt lat="44.90445509401576" lon="6.654299727197919"><ele>1367.6666666666667</ele><time>2026-04-18T09:36:03Z</time></trkpt><trkpt lat="44.90438383154306" lon="6.6540834223698"><ele>1373.0</ele><time>2026-04-18T09:36:04Z</time></trkpt><trkpt lat="44.9043197450158" lon="6.653888153599062"><ele>1373.0</ele><time>2026-04-18T09:36:05Z</time></trkpt><trkpt lat="44.904267468562374" lon="6.653692802443421"><ele>1373.0</ele><time>2026-04-18T09:36:06Z</time></trkpt><trkpt lat="44.9041996571227" lon="6.653520626461202"><ele>1373.0</ele><time>2026-04-18T09:36:07Z</time></trkpt><trkpt lat="44.90416391355701" lon="6.65336824793237"><ele>1373.0</ele><time>2026-04-18T09:36:08Z</time></trkpt><trkpt lat="44.90407956044351" lon="6.653191914704274"><ele>1372.0</ele><time>2026-04-18T09:36:09Z</time></trkpt><trkpt lat="44.903997978528885" lon="6.653017367355795"><ele>1371.0</ele><time>2026-04-18T09:36:09.999Z</time></trkpt><trkpt lat="44.90391414649623" lon="6.652843096896629"><ele>1370.0</ele><time>2026-04-18T09:36:10.999Z</time></trkpt><trkpt lat="44.90382687218269" lon="6.652669731313723"><ele>1369.0</ele><time>2026-04-18T09:36:11.999Z</time></trkpt><trkpt lat="44.903727031690366" lon="6.652493899444933"><ele>1369.0</ele><time>2026-04-18T09:36:12.999Z</time></trkpt><trkpt lat="44.90363101964407" lon="6.652324082090909"><ele>1369.0</ele><time>2026-04-18T09:36:13.999Z</time></trkpt><trkpt lat="44.90353578529639" lon="6.65215308490855"><ele>1369.0</ele><time>2026-04-18T09:36:14.999Z</time></trkpt><trkpt lat="44.903442415154124" lon="6.651977599128176"><ele>1362.75</ele><time>2026-04-18T09:36:15.999Z</time></trkpt><trkpt lat="44.90335304713278" lon="6.651795999668453"><ele>1356.5</ele><time>2026-04-18T09:36:16.999Z</time></trkpt><trkpt lat="44.90327295386614" lon="6.651638280771123"><ele>1350.25</ele><time>2026-04-18T09:36:17.999Z</time></trkpt><trkpt lat="44.9031966940574" lon="6.651453973151075"><ele>1344.0</ele><time>2026-04-18T09:36:18.999Z</time></trkpt><trkpt lat="44.90310625520296" lon="6.651296506927112"><ele>1351.25</ele><time>2026-04-18T09:36:19.999Z</time></trkpt><trkpt lat="44.90304628970712" lon="6.6511209210788405"><ele>1358.5</ele><time>2026-04-18T09:36:20.999Z</time></trkpt><trkpt lat="44.902976895115465" lon="6.650949106537354"><ele>1365.75</ele><time>2026-04-18T09:36:21.999Z</time></trkpt><trkpt lat="44.90290505208313" lon="6.65078786871221"><ele>1373.0</ele><time>2026-04-18T09:36:22.999Z</time></trkpt><trkpt lat="44.90285163345288" lon="6.650649940334356"><ele>1373.0</ele><time>2026-04-18T09:36:23.999Z</time></trkpt><trkpt lat="44.90280730378342" lon="6.650513497548576"><ele>1373.0</ele><time>2026-04-18T09:36:24.999Z</time></trkpt><trkpt lat="44.90277189116687" lon="6.650405374522465"><ele>1373.0</ele><time>2026-04-18T09:36:25.999Z</time></trkpt><trkpt lat="44.902770716079836" lon="6.650272906750016"><ele>1373.0</ele><time>2026-04-18T09:36:26.999Z</time></trkpt><trkpt lat="44.90283612126168" lon="6.650109997408967"><ele>1373.0</ele><time>2026-04-18T09:36:27.999Z</time></trkpt><trkpt lat="44.902897546797725" lon="6.649993553528038"><ele>1370.2</ele><time>2026-04-18T09:36:28.999Z</time></trkpt><trkpt lat="44.902937345736696" lon="6.649872026146019"><ele>1367.4</ele><time>2026-04-18T09:36:29.999Z</time></trkpt><trkpt lat="44.902977608828785" lon="6.649749166515396"><ele>1364.6000000000001</ele><time>2026-04-18T09:36:30.999Z</time></trkpt><trkpt lat="44.903037816066835" lon="6.649638319896088"><ele>1361.8000000000002</ele><time>2026-04-18T09:36:31.999Z</time></trkpt><trkpt lat="44.90309650909039" lon="6.649548381211414"><ele>1359.0</ele><time>2026-04-18T09:36:32.999Z</time></trkpt><trkpt lat="44.903140021118226" lon="6.649444216932185"><ele>1356.8333333333333</ele><time>2026-04-18T09:36:33.999Z</time></trkpt><trkpt lat="44.90315567238244" lon="6.649329177664532"><ele>1354.6666666666667</ele><time>2026-04-18T09:36:34.999Z</time></trkpt><trkpt lat="44.90316765745231" lon="6.649240300124699"><ele>1352.5</ele><time>2026-04-18T09:36:35.999Z</time></trkpt><trkpt lat="44.90316041543562" lon="6.649069508329474"><ele>1350.3333333333335</ele><time>2026-04-18T09:36:37.999Z</time></trkpt><trkpt lat="44.903139752429034" lon="6.6489571332790405"><ele>1348.1666666666667</ele><time>2026-04-18T09:36:38.999Z</time></trkpt><trkpt lat="44.903130457924185" lon="6.648834168530141"><ele>1346.0</ele><time>2026-04-18T09:36:39.999Z</time></trkpt><trkpt lat="44.90311776332323" lon="6.648686095638035"><ele>1346.75</ele><time>2026-04-18T09:36:40.999Z</time></trkpt><trkpt lat="44.90309168554593" lon="6.648514953350769"><ele>1347.5</ele><time>2026-04-18T09:36:42Z</time></trkpt><trkpt lat="44.90307489830289" lon="6.648357360080577"><ele>1348.25</ele><time>2026-04-18T09:36:43Z</time></trkpt><trkpt lat="44.90306388654555" lon="6.648192636171947"><ele>1349.0</ele><time>2026-04-18T09:36:44Z</time></trkpt><trkpt lat="44.90304169142592" lon="6.648031151995884"><ele>1349.0</ele><time>2026-04-18T09:36:45Z</time></trkpt><trkpt lat="44.902954685466234" lon="6.647872767751593"><ele>1349.0</ele><time>2026-04-18T09:36:46Z</time></trkpt><trkpt lat="44.902844369459096" lon="6.647702095231305"><ele>1349.0</ele><time>2026-04-18T09:36:47Z</time></trkpt><trkpt lat="44.90276284617733" lon="6.647555886985741"><ele>1349.0</ele><time>2026-04-18T09:36:48Z</time></trkpt><trkpt lat="44.90267159684909" lon="6.647411118375161"><ele>1349.25</ele><time>2026-04-18T09:36:49Z</time></trkpt><trkpt lat="44.90258649215716" lon="6.647284348415718"><ele>1349.5</ele><time>2026-04-18T09:36:50Z</time></trkpt><trkpt lat="44.90249500825449" lon="6.647158112554385"><ele>1349.75</ele><time>2026-04-18T09:36:51Z</time></trkpt><trkpt lat="44.902417049492556" lon="6.647026181878518"><ele>1350.0</ele><time>2026-04-18T09:36:52Z</time></trkpt><trkpt lat="44.90233549636692" lon="6.6468889877886665"><ele>1348.0</ele><time>2026-04-18T09:36:53Z</time></trkpt><trkpt lat="44.902256612239036" lon="6.646755955715112"><ele>1346.0</ele><time>2026-04-18T09:36:54Z</time></trkpt><trkpt lat="44.902185341767535" lon="6.646631616319228"><ele>1344.0</ele><time>2026-04-18T09:36:55Z</time></trkpt><trkpt lat="44.902112058915144" lon="6.6465029492996335"><ele>1342.0</ele><time>2026-04-18T09:36:56Z</time></trkpt><trkpt lat="44.90205442004691" lon="6.646406752804125"><ele>1340.0</ele><time>2026-04-18T09:36:57Z</time></trkpt><trkpt lat="44.90199644200256" lon="6.646303412888524"><ele>1340.0</ele><time>2026-04-18T09:36:58Z</time></trkpt><trkpt lat="44.901925782302" lon="6.646205494250966"><ele>1340.0</ele><time>2026-04-18T09:36:59Z</time></trkpt><trkpt lat="44.901879966830464" lon="6.64610539076636"><ele>1340.0</ele><time>2026-04-18T09:37:00Z</time></trkpt><trkpt lat="44.901829735318294" lon="6.646015868973112"><ele>1340.0</ele><time>2026-04-18T09:37:01Z</time></trkpt><trkpt lat="44.90176162390827" lon="6.645902866753951"><ele>1340.0</ele><time>2026-04-18T09:37:02Z</time></trkpt><trkpt lat="44.901702524452006" lon="6.64578657498439"><ele>1339.2</ele><time>2026-04-18T09:37:03Z</time></trkpt><trkpt lat="44.901649883151606" lon="6.645644136560912"><ele>1338.4</ele><time>2026-04-18T09:37:04Z</time></trkpt><trkpt lat="44.901601648616314" lon="6.645518103982356"><ele>1337.6</ele><time>2026-04-18T09:37:05Z</time></trkpt><trkpt lat="44.90157444014759" lon="6.64540727852446"><ele>1336.8</ele><time>2026-04-18T09:37:06Z</time></trkpt><trkpt lat="44.90154703340265" lon="6.645288660214521"><ele>1336.0</ele><time>2026-04-18T09:37:07Z</time></trkpt><trkpt lat="44.901520420196995" lon="6.645166066524396"><ele>1336.0</ele><time>2026-04-18T09:37:08Z</time></trkpt><trkpt lat="44.90150607475927" lon="6.645050814871025"><ele>1336.0</ele><time>2026-04-18T09:37:09Z</time></trkpt><trkpt lat="44.90149156988003" lon="6.644923839813684"><ele>1336.0</ele><time>2026-04-18T09:37:10Z</time></trkpt><trkpt lat="44.90148606253493" lon="6.644802348993434"><ele>1336.0</ele><time>2026-04-18T09:37:11Z</time></trkpt><trkpt lat="44.90150663769643" lon="6.644672585001742"><ele>1336.0</ele><time>2026-04-18T09:37:12Z</time></trkpt><trkpt lat="44.90151555398829" lon="6.644549304931378"><ele>1336.0</ele><time>2026-04-18T09:37:13Z</time></trkpt><trkpt lat="44.901530372756596" lon="6.644432804407429"><ele>1335.857142857143</ele><time>2026-04-18T09:37:14Z</time></trkpt><trkpt lat="44.901540007650894" lon="6.644324551488594"><ele>1335.7142857142858</ele><time>2026-04-18T09:37:15Z</time></trkpt><trkpt lat="44.90153698063929" lon="6.644215122137011"><ele>1335.5714285714284</ele><time>2026-04-18T09:37:16Z</time></trkpt><trkpt lat="44.901537770098905" lon="6.644102212746693"><ele>1335.4285714285716</ele><time>2026-04-18T09:37:17Z</time></trkpt><trkpt lat="44.901545429139254" lon="6.64400791329312"><ele>1335.2857142857144</ele><time>2026-04-18T09:37:18Z</time></trkpt><trkpt lat="44.9015475784893" lon="6.643917964007959"><ele>1335.142857142857</ele><time>2026-04-18T09:37:19Z</time></trkpt><trkpt lat="44.90154303905519" lon="6.6438054869746885"><ele>1335.0</ele><time>2026-04-18T09:37:20Z</time></trkpt><trkpt lat="44.90152861222056" lon="6.64369931521539"><ele>1334.0</ele><time>2026-04-18T09:37:21Z</time></trkpt><trkpt lat="44.901508248758354" lon="6.643567677248316"><ele>1333.0</ele><time>2026-04-18T09:37:22Z</time></trkpt><trkpt lat="44.901487277451416" lon="6.643428856565897"><ele>1332.0</ele><time>2026-04-18T09:37:23Z</time></trkpt><trkpt lat="44.90150605355547" lon="6.64330043502105"><ele>1331.0</ele><time>2026-04-18T09:37:24Z</time></trkpt><trkpt lat="44.9015407746599" lon="6.643137519004779"><ele>1330.0</ele><time>2026-04-18T09:37:25Z</time></trkpt><trkpt lat="44.90157018703069" lon="6.642971073682691"><ele>1330.0</ele><time>2026-04-18T09:37:26Z</time></trkpt><trkpt lat="44.90160716563042" lon="6.642811233479981"><ele>1330.0</ele><time>2026-04-18T09:37:27Z</time></trkpt><trkpt lat="44.901676091179496" lon="6.642643258831889"><ele>1330.0</ele><time>2026-04-18T09:37:28Z</time></trkpt><trkpt lat="44.90171837107331" lon="6.642453870716367"><ele>1330.0</ele><time>2026-04-18T09:37:29Z</time></trkpt><trkpt lat="44.90175215434585" lon="6.642299467204293"><ele>1330.75</ele><time>2026-04-18T09:37:30Z</time></trkpt><trkpt lat="44.901775826796154" lon="6.642139482618939"><ele>1331.5</ele><time>2026-04-18T09:37:31Z</time></trkpt><trkpt lat="44.90181333273695" lon="6.641979938983126"><ele>1332.25</ele><time>2026-04-18T09:37:32Z</time></trkpt><trkpt lat="44.90184428304399" lon="6.641820011847765"><ele>1333.0</ele><time>2026-04-18T09:37:33Z</time></trkpt><trkpt lat="44.901872073549974" lon="6.641672877631273"><ele>1333.0</ele><time>2026-04-18T09:37:34Z</time></trkpt><trkpt lat="44.901885397097985" lon="6.6415222506050196"><ele>1333.0</ele><time>2026-04-18T09:37:35Z</time></trkpt><trkpt lat="44.90191317306985" lon="6.641381267073768"><ele>1333.0</ele><time>2026-04-18T09:37:36Z</time></trkpt><trkpt lat="44.901940430090654" lon="6.641234727274334"><ele>1333.0</ele><time>2026-04-18T09:37:37Z</time></trkpt><trkpt lat="44.90197479701833" lon="6.641090867597379"><ele>1333.0</ele><time>2026-04-18T09:37:38Z</time></trkpt><trkpt lat="44.901994868062346" lon="6.640940537199281"><ele>1331.8000000000002</ele><time>2026-04-18T09:37:39Z</time></trkpt><trkpt lat="44.902032405189445" lon="6.640807217073753"><ele>1330.6</ele><time>2026-04-18T09:37:40Z</time></trkpt><trkpt lat="44.902056975909424" lon="6.6406809332926215"><ele>1329.4</ele><time>2026-04-18T09:37:41Z</time></trkpt><trkpt lat="44.9021014062074" lon="6.640568625412466"><ele>1328.1999999999998</ele><time>2026-04-18T09:37:42Z</time></trkpt><trkpt lat="44.90212812526393" lon="6.640435703684881"><ele>1327.0</ele><time>2026-04-18T09:37:43Z</time></trkpt><trkpt lat="44.902151207276496" lon="6.640303584927797"><ele>1326.6</ele><time>2026-04-18T09:37:44Z</time></trkpt><trkpt lat="44.902155378770125" lon="6.6401509674925245"><ele>1326.1999999999998</ele><time>2026-04-18T09:37:45Z</time></trkpt><trkpt lat="44.90220151223741" lon="6.640025324826775"><ele>1325.8</ele><time>2026-04-18T09:37:46Z</time></trkpt><trkpt lat="44.90222400335191" lon="6.639879024954425"><ele>1325.4</ele><time>2026-04-18T09:37:47Z</time></trkpt><trkpt lat="44.90224876747907" lon="6.639738967681535"><ele>1325.0</ele><time>2026-04-18T09:37:48Z</time></trkpt><trkpt lat="44.90225809360534" lon="6.639587071139235"><ele>1323.0</ele><time>2026-04-18T09:37:49Z</time></trkpt><trkpt lat="44.90228841907419" lon="6.639432518636055"><ele>1321.0</ele><time>2026-04-18T09:37:50Z</time></trkpt><trkpt lat="44.902326421568205" lon="6.639276302243807"><ele>1319.0</ele><time>2026-04-18T09:37:51Z</time></trkpt><trkpt lat="44.90236765435579" lon="6.639115928036681"><ele>1317.0</ele><time>2026-04-18T09:37:52Z</time></trkpt><trkpt lat="44.902402269738744" lon="6.63894259553485"><ele>1317.0</ele><time>2026-04-18T09:37:53Z</time></trkpt><trkpt lat="44.90246000725529" lon="6.638772866030903"><ele>1317.0</ele><time>2026-04-18T09:37:54Z</time></trkpt><trkpt lat="44.902520209017034" lon="6.638610946650996"><ele>1317.0</ele><time>2026-04-18T09:37:55Z</time></trkpt><trkpt lat="44.902593028421016" lon="6.638450988478534"><ele>1317.0</ele><time>2026-04-18T09:37:56Z</time></trkpt><trkpt lat="44.90267483524215" lon="6.638288865851909"><ele>1315.5</ele><time>2026-04-18T09:37:57Z</time></trkpt><trkpt lat="44.902745660357084" lon="6.638128885755399"><ele>1314.0</ele><time>2026-04-18T09:37:58Z</time></trkpt><trkpt lat="44.90282709944561" lon="6.637990527543365"><ele>1312.5</ele><time>2026-04-18T09:37:59Z</time></trkpt><trkpt lat="44.90291481748371" lon="6.637858505272376"><ele>1311.0</ele><time>2026-04-18T09:38:00Z</time></trkpt><trkpt lat="44.90298644761877" lon="6.637714244406624"><ele>1311.0</ele><time>2026-04-18T09:38:01Z</time></trkpt><trkpt lat="44.9030697264811" lon="6.637592032644858"><ele>1311.0</ele><time>2026-04-18T09:38:02Z</time></trkpt><trkpt lat="44.9031483478877" lon="6.63749161834641"><ele>1311.0</ele><time>2026-04-18T09:38:03Z</time></trkpt><trkpt lat="44.903218793369625" lon="6.637373539606217"><ele>1311.0</ele><time>2026-04-18T09:38:04Z</time></trkpt><trkpt lat="44.90325557790173" lon="6.6372246730907944"><ele>1311.0</ele><time>2026-04-18T09:38:05Z</time></trkpt><trkpt lat="44.90328379601643" lon="6.63705713570982"><ele>1309.4</ele><time>2026-04-18T09:38:06Z</time></trkpt><trkpt lat="44.90332118482605" lon="6.636901283971897"><ele>1307.8</ele><time>2026-04-18T09:38:07Z</time></trkpt><trkpt lat="44.9033632308426" lon="6.636763042732408"><ele>1306.2</ele><time>2026-04-18T09:38:08Z</time></trkpt><trkpt lat="44.90339452371212" lon="6.636609411094958"><ele>1304.6000000000001</ele><time>2026-04-18T09:38:09Z</time></trkpt><trkpt lat="44.903444733222564" lon="6.63646829873612"><ele>1303.0</ele><time>2026-04-18T09:38:10Z</time></trkpt><trkpt lat="44.90352179935799" lon="6.636347905246508"><ele>1304.0</ele><time>2026-04-18T09:38:11Z</time></trkpt><trkpt lat="44.903592458137645" lon="6.636213032821624"><ele>1305.0</ele><time>2026-04-18T09:38:12Z</time></trkpt><trkpt lat="44.90367649676248" lon="6.636080383502265"><ele>1306.0</ele><time>2026-04-18T09:38:13Z</time></trkpt><trkpt lat="44.90377708223213" lon="6.6359494366467455"><ele>1307.0</ele><time>2026-04-18T09:38:14Z</time></trkpt><trkpt lat="44.903909986061855" lon="6.6358520258555815"><ele>1307.0</ele><time>2026-04-18T09:38:15Z</time></trkpt><trkpt lat="44.904002018308134" lon="6.635710234939315"><ele>1307.0</ele><time>2026-04-18T09:38:16Z</time></trkpt><trkpt lat="44.90409785748253" lon="6.635609895751095"><ele>1307.0</ele><time>2026-04-18T09:38:17Z</time></trkpt><trkpt lat="44.90419092038585" lon="6.635536891107025"><ele>1307.0</ele><time>2026-04-18T09:38:18Z</time></trkpt><trkpt lat="44.90431510552596" lon="6.635442794630328"><ele>1306.25</ele><time>2026-04-18T09:38:19Z</time></trkpt><trkpt lat="44.90444514795315" lon="6.635351349326721"><ele>1305.5</ele><time>2026-04-18T09:38:20Z</time></trkpt><trkpt lat="44.90455748281821" lon="6.635273015900503"><ele>1304.75</ele><time>2026-04-18T09:38:21Z</time></trkpt><trkpt lat="44.904659579349996" lon="6.635176117235039"><ele>1304.0</ele><time>2026-04-18T09:38:21.999Z</time></trkpt><trkpt lat="44.90475564129429" lon="6.635083877092739"><ele>1304.0</ele><time>2026-04-18T09:38:22.999Z</time></trkpt><trkpt lat="44.90484448602424" lon="6.634938000850757"><ele>1304.0</ele><time>2026-04-18T09:38:23.999Z</time></trkpt><trkpt lat="44.90493583606304" lon="6.634781858993351"><ele>1304.0</ele><time>2026-04-18T09:38:24.999Z</time></trkpt><trkpt lat="44.904952861518446" lon="6.63461874136556"><ele>1304.0</ele><time>2026-04-18T09:38:25.999Z</time></trkpt><trkpt lat="44.90496855718277" lon="6.634426074101881"><ele>1301.5</ele><time>2026-04-18T09:38:26.999Z</time></trkpt><trkpt lat="44.90498476530973" lon="6.634274153303958"><ele>1299.0</ele><time>2026-04-18T09:38:27.999Z</time></trkpt><trkpt lat="44.904987325331376" lon="6.634103632867874"><ele>1296.5</ele><time>2026-04-18T09:38:28.999Z</time></trkpt><trkpt lat="44.90495027104119" lon="6.6339495638024735"><ele>1294.0</ele><time>2026-04-18T09:38:29.999Z</time></trkpt><trkpt lat="44.90492947872279" lon="6.633765092905363"><ele>1292.3333333333333</ele><time>2026-04-18T09:38:30.999Z</time></trkpt><trkpt lat="44.90486536125455" lon="6.63355167887237"><ele>1290.6666666666667</ele><time>2026-04-18T09:38:31.999Z</time></trkpt><trkpt lat="44.9048426382344" lon="6.633331375305772"><ele>1289.0</ele><time>2026-04-18T09:38:32.999Z</time></trkpt><trkpt lat="44.90483954386898" lon="6.6331281613506805"><ele>1289.0</ele><time>2026-04-18T09:38:33.999Z</time></trkpt><trkpt lat="44.90484135061096" lon="6.632942077314935"><ele>1289.0</ele><time>2026-04-18T09:38:34.999Z</time></trkpt><trkpt lat="44.9048719898152" lon="6.632756728431923"><ele>1289.0</ele><time>2026-04-18T09:38:35.999Z</time></trkpt><trkpt lat="44.90490683218708" lon="6.63256885118298"><ele>1289.0</ele><time>2026-04-18T09:38:36.999Z</time></trkpt><trkpt lat="44.90496802308868" lon="6.632404672734469"><ele>1288.5</ele><time>2026-04-18T09:38:37.999Z</time></trkpt><trkpt lat="44.90503718421066" lon="6.632216849375319"><ele>1288.0</ele><time>2026-04-18T09:38:38.999Z</time></trkpt><trkpt lat="44.90511927732708" lon="6.632054409714273"><ele>1287.5</ele><time>2026-04-18T09:38:39.999Z</time></trkpt><trkpt lat="44.90519312233509" lon="6.631885108550734"><ele>1287.0</ele><time>2026-04-18T09:38:40.999Z</time></trkpt><trkpt lat="44.905258018669976" lon="6.631708198503827"><ele>1287.0</ele><time>2026-04-18T09:38:41.999Z</time></trkpt><trkpt lat="44.9053300137145" lon="6.631535143544726"><ele>1287.0</ele><time>2026-04-18T09:38:42.999Z</time></trkpt><trkpt lat="44.905361467409136" lon="6.631329490446626"><ele>1287.0</ele><time>2026-04-18T09:38:43.999Z</time></trkpt><trkpt lat="44.90540537869714" lon="6.631123352403111"><ele>1287.0</ele><time>2026-04-18T09:38:44.999Z</time></trkpt><trkpt lat="44.90544732878182" lon="6.630924441310327"><ele>1285.5</ele><time>2026-04-18T09:38:45.999Z</time></trkpt><trkpt lat="44.9054829446014" lon="6.630730478469671"><ele>1284.0</ele><time>2026-04-18T09:38:46.999Z</time></trkpt><trkpt lat="44.90551168433766" lon="6.630551560607927"><ele>1282.5</ele><time>2026-04-18T09:38:48Z</time></trkpt><trkpt lat="44.90553929715534" lon="6.630357860980196"><ele>1281.0</ele><time>2026-04-18T09:38:49Z</time></trkpt><trkpt lat="44.905564747964185" lon="6.630171379457408"><ele>1279.25</ele><time>2026-04-18T09:38:50Z</time></trkpt><trkpt lat="44.90563723221229" lon="6.63003608024783"><ele>1277.5</ele><time>2026-04-18T09:38:51Z</time></trkpt><trkpt lat="44.90566707031413" lon="6.629870875624527"><ele>1275.75</ele><time>2026-04-18T09:38:52Z</time></trkpt><trkpt lat="44.90568883934663" lon="6.6297051529780315"><ele>1274.0</ele><time>2026-04-18T09:38:53Z</time></trkpt><trkpt lat="44.905706829832596" lon="6.629548925043663"><ele>1272.8</ele><time>2026-04-18T09:38:54Z</time></trkpt><trkpt lat="44.90569610241519" lon="6.6293867235170465"><ele>1271.6000000000001</ele><time>2026-04-18T09:38:55Z</time></trkpt><trkpt lat="44.90567059472515" lon="6.629229212759239"><ele>1270.4</ele><time>2026-04-18T09:38:56Z</time></trkpt><trkpt lat="44.90565840736146" lon="6.629090779875222"><ele>1269.2</ele><time>2026-04-18T09:38:57Z</time></trkpt><trkpt lat="44.9056509178954" lon="6.6289586129698455"><ele>1268.0</ele><time>2026-04-18T09:38:58Z</time></trkpt><trkpt lat="44.90563465971272" lon="6.628857884903493"><ele>1268.0</ele><time>2026-04-18T09:38:59Z</time></trkpt><trkpt lat="44.90561041815721" lon="6.628773524540023"><ele>1268.0</ele><time>2026-04-18T09:39:05Z</time></trkpt><trkpt lat="44.905613265727965" lon="6.62865714903775"><ele>1268.0</ele><time>2026-04-18T09:39:09Z</time></trkpt><trkpt lat="44.905623202051665" lon="6.6285119874575855"><ele>1268.0</ele><time>2026-04-18T09:39:11Z</time></trkpt><trkpt lat="44.905630057559165" lon="6.628378184908366"><ele>1268.0</ele><time>2026-04-18T09:39:13Z</time></trkpt><trkpt lat="44.90557229451715" lon="6.628239566849773"><ele>1267.2</ele><time>2026-04-18T09:39:15Z</time></trkpt><trkpt lat="44.905508761632476" lon="6.628238223609412"><ele>1266.4</ele><time>2026-04-18T09:39:16Z</time></trkpt><trkpt lat="44.905357742590525" lon="6.628236964796806"><ele>1265.6000000000001</ele><time>2026-04-18T09:39:18Z</time></trkpt><trkpt lat="44.90526604351727" lon="6.628205863712443"><ele>1264.8</ele><time>2026-04-18T09:39:19Z</time></trkpt><trkpt lat="44.90516355020118" lon="6.628210562510678"><ele>1264.0</ele><time>2026-04-18T09:39:20Z</time></trkpt><trkpt lat="44.90506320424032" lon="6.628101237519289"><ele>1261.75</ele><time>2026-04-18T09:39:21Z</time></trkpt><trkpt lat="44.90496398989083" lon="6.6280400486190745"><ele>1259.5</ele><time>2026-04-18T09:39:22Z</time></trkpt><trkpt lat="44.90487308127665" lon="6.628004041262785"><ele>1257.25</ele><time>2026-04-18T09:39:23Z</time></trkpt><trkpt lat="44.90474312116853" lon="6.6279707535205965"><ele>1255.0</ele><time>2026-04-18T09:39:24Z</time></trkpt><trkpt lat="44.90460801015996" lon="6.627958866791116"><ele>1255.0</ele><time>2026-04-18T09:39:25Z</time></trkpt><trkpt lat="44.904487434921194" lon="6.627943431368878"><ele>1255.0</ele><time>2026-04-18T09:39:26Z</time></trkpt><trkpt lat="44.90439745157481" lon="6.627937925114136"><ele>1255.0</ele><time>2026-04-18T09:39:27Z</time></trkpt><trkpt lat="44.904319583202685" lon="6.627956210082414"><ele>1255.0</ele><time>2026-04-18T09:39:28Z</time></trkpt><trkpt lat="44.90425189698326" lon="6.627979613072092"><ele>1255.0</ele><time>2026-04-18T09:39:29Z</time></trkpt><trkpt lat="44.90416956052427" lon="6.6280121205906415"><ele>1255.0</ele><time>2026-04-18T09:39:31Z</time></trkpt><trkpt lat="44.904101518252055" lon="6.628069245217039"><ele>1254.4</ele><time>2026-04-18T09:39:34Z</time></trkpt><trkpt lat="44.90403184458324" lon="6.628127825299347"><ele>1253.8</ele><time>2026-04-18T09:39:37Z</time></trkpt><trkpt lat="44.9039500092472" lon="6.628194447930947"><ele>1253.2</ele><time>2026-04-18T09:39:40Z</time></trkpt><trkpt lat="44.90384089509553" lon="6.6282915832814355"><ele>1252.6</ele><time>2026-04-18T09:39:42Z</time></trkpt><trkpt lat="44.903737616540816" lon="6.628398725553123"><ele>1252.0</ele><time>2026-04-18T09:39:44Z</time></trkpt><trkpt lat="44.90364199437219" lon="6.628516187192093"><ele>1252.1666666666665</ele><time>2026-04-18T09:39:46Z</time></trkpt><trkpt lat="44.903560470579755" lon="6.628666667018571"><ele>1252.3333333333333</ele><time>2026-04-18T09:39:48Z</time></trkpt><trkpt lat="44.903524832335876" lon="6.628743260796995"><ele>1252.5</ele><time>2026-04-18T09:39:49Z</time></trkpt><trkpt lat="44.9034900355508" lon="6.628824829645982"><ele>1252.6666666666667</ele><time>2026-04-18T09:39:50Z</time></trkpt><trkpt lat="44.90345615953107" lon="6.628927987886635"><ele>1252.8333333333335</ele><time>2026-04-18T09:39:51Z</time></trkpt><trkpt lat="44.90343930342676" lon="6.629061837636907"><ele>1253.0</ele><time>2026-04-18T09:39:52Z</time></trkpt><trkpt lat="44.90341658072266" lon="6.6291714928461865"><ele>1253.0</ele><time>2026-04-18T09:39:53Z</time></trkpt><trkpt lat="44.90339806805326" lon="6.6292738652733725"><ele>1253.0</ele><time>2026-04-18T09:39:54Z</time></trkpt><trkpt lat="44.903374937583436" lon="6.629362560752318"><ele>1253.0</ele><time>2026-04-18T09:39:55Z</time></trkpt><trkpt lat="44.903362300566656" lon="6.6294592312635645"><ele>1253.0</ele><time>2026-04-18T09:39:56Z</time></trkpt><trkpt lat="44.90335347383896" lon="6.629562597323833"><ele>1253.0</ele><time>2026-04-18T09:39:57Z</time></trkpt><trkpt lat="44.90338364288897" lon="6.629702129069269"><ele>1253.0</ele><time>2026-04-18T09:39:59Z</time></trkpt><trkpt lat="44.90337953860282" lon="6.629824582458987"><ele>1252.6</ele><time>2026-04-18T09:40:01Z</time></trkpt><trkpt lat="44.90338554727226" lon="6.629935779878733"><ele>1252.1999999999998</ele><time>2026-04-18T09:40:05Z</time></trkpt><trkpt lat="44.90335630755755" lon="6.630017219597806"><ele>1251.8</ele><time>2026-04-18T09:40:09Z</time></trkpt><trkpt lat="44.903368767652175" lon="6.630131896931952"><ele>1251.3999999999999</ele><time>2026-04-18T09:40:13Z</time></trkpt><trkpt lat="44.903324008674595" lon="6.630271760662698"><ele>1251.0</ele><time>2026-04-18T09:40:15Z</time></trkpt><trkpt lat="44.90324743719313" lon="6.630410659029209"><ele>1250.3999999999999</ele><time>2026-04-18T09:40:17Z</time></trkpt><trkpt lat="44.903201591843825" lon="6.6304930637807615"><ele>1249.8</ele><time>2026-04-18T09:40:18Z</time></trkpt><trkpt lat="44.90311532626261" lon="6.630559641281777"><ele>1249.1999999999998</ele><time>2026-04-18T09:40:19Z</time></trkpt><trkpt lat="44.90303379591957" lon="6.630679098109332"><ele>1248.6</ele><time>2026-04-18T09:40:20Z</time></trkpt><trkpt lat="44.90296257825152" lon="6.630769138385937"><ele>1248.0</ele><time>2026-04-18T09:40:21Z</time></trkpt><trkpt lat="44.902893406235506" lon="6.630869570250065"><ele>1248.0</ele><time>2026-04-18T09:40:22Z</time></trkpt><trkpt lat="44.902832889025646" lon="6.630965274672354"><ele>1248.0</ele><time>2026-04-18T09:40:23Z</time></trkpt><trkpt lat="44.90275673022636" lon="6.631038635024606"><ele>1248.0</ele><time>2026-04-18T09:40:24Z</time></trkpt><trkpt lat="44.902673927340295" lon="6.631127022494612"><ele>1248.0</ele><time>2026-04-18T09:40:25Z</time></trkpt><trkpt lat="44.90260324337627" lon="6.6311989016635975"><ele>1248.0</ele><time>2026-04-18T09:40:26Z</time></trkpt><trkpt lat="44.90252225226032" lon="6.631258552625191"><ele>1246.6</ele><time>2026-04-18T09:40:27Z</time></trkpt><trkpt lat="44.902464418657146" lon="6.631367938387765"><ele>1245.1999999999998</ele><time>2026-04-18T09:40:28Z</time></trkpt><trkpt lat="44.902369967943" lon="6.631401665009267"><ele>1243.8</ele><time>2026-04-18T09:40:28.999Z</time></trkpt><trkpt lat="44.902251776740094" lon="6.631435877694362"><ele>1242.3999999999999</ele><time>2026-04-18T09:40:29.999Z</time></trkpt><trkpt lat="44.902142335539295" lon="6.631396069788326"><ele>1241.0</ele><time>2026-04-18T09:40:30.999Z</time></trkpt><trkpt lat="44.90202076769891" lon="6.631408054607451"><ele>1241.0</ele><time>2026-04-18T09:40:31.999Z</time></trkpt><trkpt lat="44.90189837920193" lon="6.631421833066923"><ele>1241.0</ele><time>2026-04-18T09:40:32.999Z</time></trkpt><trkpt lat="44.90176435487936" lon="6.631389660466254"><ele>1241.0</ele><time>2026-04-18T09:40:33.999Z</time></trkpt><trkpt lat="44.90164590087536" lon="6.631265581610706"><ele>1241.0</ele><time>2026-04-18T09:40:34.999Z</time></trkpt><trkpt lat="44.90154672821005" lon="6.631257447187203"><ele>1239.25</ele><time>2026-04-18T09:40:35.999Z</time></trkpt><trkpt lat="44.90141360492185" lon="6.631229472069376"><ele>1237.5</ele><time>2026-04-18T09:40:36.999Z</time></trkpt><trkpt lat="44.90127361416385" lon="6.631212934898261"><ele>1235.75</ele><time>2026-04-18T09:40:37.999Z</time></trkpt><trkpt lat="44.90113248605806" lon="6.631204615330449"><ele>1234.0</ele><time>2026-04-18T09:40:38.999Z</time></trkpt><trkpt lat="44.90096419187819" lon="6.631217864896037"><ele>1231.3333333333333</ele><time>2026-04-18T09:40:39.999Z</time></trkpt><trkpt lat="44.900745074245364" lon="6.631324588870793"><ele>1228.6666666666667</ele><time>2026-04-18T09:40:40.999Z</time></trkpt><trkpt lat="44.90057098744089" lon="6.631323163862554"><ele>1226.0</ele><time>2026-04-18T09:40:41.999Z</time></trkpt><trkpt lat="44.90040651665668" lon="6.631296659354213"><ele>1226.0</ele><time>2026-04-18T09:40:42.999Z</time></trkpt><trkpt lat="44.90026953638994" lon="6.6313063760534"><ele>1226.0</ele><time>2026-04-18T09:40:43.999Z</time></trkpt><trkpt lat="44.90012105616113" lon="6.631339825855993"><ele>1226.0</ele><time>2026-04-18T09:40:44.999Z</time></trkpt><trkpt lat="44.899964144175854" lon="6.631325564385213"><ele>1226.0</ele><time>2026-04-18T09:40:45.999Z</time></trkpt><trkpt lat="44.89983312630136" lon="6.6313329398645084"><ele>1226.0</ele><time>2026-04-18T09:40:46.999Z</time></trkpt><trkpt lat="44.89970703400004" lon="6.631335822746675"><ele>1226.0</ele><time>2026-04-18T09:40:47.999Z</time></trkpt><trkpt lat="44.899615826391006" lon="6.631317703209278"><ele>1226.0</ele><time>2026-04-18T09:40:48.999Z</time></trkpt><trkpt lat="44.899530460186426" lon="6.631281182109594"><ele>1226.0</ele><time>2026-04-18T09:40:49.999Z</time></trkpt><trkpt lat="44.89946499421674" lon="6.631225543847269"><ele>1226.0</ele><time>2026-04-18T09:40:50.999Z</time></trkpt><trkpt lat="44.89941644628574" lon="6.631144323832766"><ele>1228.0</ele><time>2026-04-18T09:40:51.999Z</time></trkpt><trkpt lat="44.89943432337644" lon="6.631003427430661"><ele>1230.0</ele><time>2026-04-18T09:40:52.999Z</time></trkpt><trkpt lat="44.89943859276776" lon="6.630881401433529"><ele>1232.0</ele><time>2026-04-18T09:40:54Z</time></trkpt><trkpt lat="44.89951125451996" lon="6.630721742021781"><ele>1234.0</ele><time>2026-04-18T09:40:55Z</time></trkpt><trkpt lat="44.89954082290163" lon="6.630590754895397"><ele>1236.0</ele><time>2026-04-18T09:40:56Z</time></trkpt><trkpt lat="44.89957401804215" lon="6.630433088426991"><ele>1237.6</ele><time>2026-04-18T09:40:57Z</time></trkpt><trkpt lat="44.89958751382101" lon="6.630285663768243"><ele>1239.1999999999998</ele><time>2026-04-18T09:40:58Z</time></trkpt><trkpt lat="44.89960864346556" lon="6.630139372795431"><ele>1240.8000000000002</ele><time>2026-04-18T09:40:59Z</time></trkpt><trkpt lat="44.89959569587095" lon="6.629985674574193"><ele>1242.4</ele><time>2026-04-18T09:41:00Z</time></trkpt><trkpt lat="44.89958232727751" lon="6.629839535348463"><ele>1244.0</ele><time>2026-04-18T09:41:01Z</time></trkpt><trkpt lat="44.89959774826992" lon="6.629692182744267"><ele>1244.0</ele><time>2026-04-18T09:41:02Z</time></trkpt><trkpt lat="44.89946620133442" lon="6.629583706408552"><ele>1244.0</ele><time>2026-04-18T09:41:03Z</time></trkpt><trkpt lat="44.89939569149481" lon="6.629479559078792"><ele>1244.0</ele><time>2026-04-18T09:41:04Z</time></trkpt><trkpt lat="44.89929168072222" lon="6.629350985016802"><ele>1244.0</ele><time>2026-04-18T09:41:05Z</time></trkpt><trkpt lat="44.89917657848326" lon="6.6292996846138825"><ele>1238.6000000000001</ele><time>2026-04-18T09:41:06Z</time></trkpt><trkpt lat="44.89906973163484" lon="6.629216491132682"><ele>1233.2</ele><time>2026-04-18T09:41:07Z</time></trkpt><trkpt lat="44.89899899925237" lon="6.6291297215934915"><ele>1227.8000000000002</ele><time>2026-04-18T09:41:08Z</time></trkpt><trkpt lat="44.898922279546916" lon="6.629039468778509"><ele>1222.4</ele><time>2026-04-18T09:41:09Z</time></trkpt><trkpt lat="44.89883520383053" lon="6.6289496383053885"><ele>1217.0</ele><time>2026-04-18T09:41:10Z</time></trkpt><trkpt lat="44.898726685076845" lon="6.628880542257514"><ele>1217.0</ele><time>2026-04-18T09:41:11Z</time></trkpt><trkpt lat="44.89862543640535" lon="6.6288116012824"><ele>1217.0</ele><time>2026-04-18T09:41:12Z</time></trkpt><trkpt lat="44.898537376048175" lon="6.62872650727564"><ele>1217.0</ele><time>2026-04-18T09:41:13Z</time></trkpt><trkpt lat="44.8984653316032" lon="6.628641393892502"><ele>1217.0</ele><time>2026-04-18T09:41:14Z</time></trkpt><trkpt lat="44.89840528528042" lon="6.628565922233597"><ele>1217.0</ele><time>2026-04-18T09:41:15Z</time></trkpt><trkpt lat="44.898343141006606" lon="6.628513338512062"><ele>1216.6666666666667</ele><time>2026-04-18T09:41:16Z</time></trkpt><trkpt lat="44.89828204359286" lon="6.628491339619699"><ele>1216.3333333333335</ele><time>2026-04-18T09:41:17Z</time></trkpt><trkpt lat="44.898213751242885" lon="6.62848467160694"><ele>1216.0</ele><time>2026-04-18T09:41:18Z</time></trkpt><trkpt lat="44.89814608368055" lon="6.628498918621287"><ele>1215.6666666666667</ele><time>2026-04-18T09:41:19Z</time></trkpt><trkpt lat="44.89805845986798" lon="6.628527170122782"><ele>1215.3333333333333</ele><time>2026-04-18T09:41:20Z</time></trkpt><trkpt lat="44.898029203454556" lon="6.628666724355723"><ele>1215.0</ele><time>2026-04-18T09:41:21Z</time></trkpt><trkpt lat="44.897889352440934" lon="6.6288828736962895"><ele>1215.0</ele><time>2026-04-18T09:41:22Z</time></trkpt><trkpt lat="44.897767184614956" lon="6.629003461124684"><ele>1215.0</ele><time>2026-04-18T09:41:23Z</time></trkpt><trkpt lat="44.89764801939238" lon="6.629076762958148"><ele>1215.0</ele><time>2026-04-18T09:41:24Z</time></trkpt><trkpt lat="44.897515317476596" lon="6.62914275196074"><ele>1215.0</ele><time>2026-04-18T09:41:25Z</time></trkpt><trkpt lat="44.89739307953756" lon="6.629189872870902"><ele>1217.0</ele><time>2026-04-18T09:41:26Z</time></trkpt><trkpt lat="44.897223400286876" lon="6.629212995287824"><ele>1219.0</ele><time>2026-04-18T09:41:27Z</time></trkpt><trkpt lat="44.897092320539564" lon="6.629273596225956"><ele>1221.0</ele><time>2026-04-18T09:41:28Z</time></trkpt><trkpt lat="44.89692798771131" lon="6.629292535017561"><ele>1221.0</ele><time>2026-04-18T09:41:29Z</time></trkpt><trkpt lat="44.89676894335345" lon="6.629322343707053"><ele>1221.0</ele><time>2026-04-18T09:41:30Z</time></trkpt><trkpt lat="44.89660556444089" lon="6.629421805321946"><ele>1221.0</ele><time>2026-04-18T09:41:31Z</time></trkpt><trkpt lat="44.89646213326082" lon="6.6294273227020275"><ele>1221.5</ele><time>2026-04-18T09:41:32Z</time></trkpt><trkpt lat="44.89631601290685" lon="6.629451142370436"><ele>1222.0</ele><time>2026-04-18T09:41:33Z</time></trkpt><trkpt lat="44.89617951446618" lon="6.629473303457707"><ele>1222.5</ele><time>2026-04-18T09:41:34Z</time></trkpt><trkpt lat="44.89605034561696" lon="6.629496059684378"><ele>1223.0</ele><time>2026-04-18T09:41:35Z</time></trkpt><trkpt lat="44.8959001048577" lon="6.62953985146567"><ele>1219.25</ele><time>2026-04-18T09:41:36Z</time></trkpt><trkpt lat="44.895771287478226" lon="6.629564038175117"><ele>1215.5</ele><time>2026-04-18T09:41:37Z</time></trkpt><trkpt lat="44.89564581886115" lon="6.6295857310585875"><ele>1211.75</ele><time>2026-04-18T09:41:38Z</time></trkpt><trkpt lat="44.89552050222572" lon="6.629618474786456"><ele>1208.0</ele><time>2026-04-18T09:41:39Z</time></trkpt><trkpt lat="44.895389826674005" lon="6.6296740387526505"><ele>1208.0</ele><time>2026-04-18T09:41:40Z</time></trkpt><trkpt lat="44.89528999929755" lon="6.629698227067663"><ele>1208.0</ele><time>2026-04-18T09:41:41Z</time></trkpt><trkpt lat="44.8951844004916" lon="6.629764063240271"><ele>1208.0</ele><time>2026-04-18T09:41:42Z</time></trkpt><trkpt lat="44.89509074444254" lon="6.629828204018714"><ele>1208.0</ele><time>2026-04-18T09:41:43Z</time></trkpt><trkpt lat="44.895017925289004" lon="6.62987738203092"><ele>1208.0</ele><time>2026-04-18T09:41:44Z</time></trkpt><trkpt lat="44.894955719618416" lon="6.629921697840398"><ele>1208.6</ele><time>2026-04-18T09:41:45Z</time></trkpt><trkpt lat="44.89488202293339" lon="6.629979944687505"><ele>1209.1999999999998</ele><time>2026-04-18T09:41:47Z</time></trkpt><trkpt lat="44.894835382299696" lon="6.630067590722553"><ele>1209.8</ele><time>2026-04-18T09:41:49Z</time></trkpt><trkpt lat="44.89487697683826" lon="6.629956914696751"><ele>1210.3999999999999</ele><time>2026-04-18T09:41:51Z</time></trkpt><trkpt lat="44.894803828646076" lon="6.630006264254865"><ele>1211.0</ele><time>2026-04-18T09:42:21Z</time></trkpt><trkpt lat="44.89468083314606" lon="6.630078993091112"><ele>1211.0</ele><time>2026-04-18T09:42:23Z</time></trkpt><trkpt lat="44.894578878881795" lon="6.630090184551319"><ele>1211.0</ele><time>2026-04-18T09:42:24Z</time></trkpt><trkpt lat="44.894504878389135" lon="6.63012880322629"><ele>1211.0</ele><time>2026-04-18T09:42:25Z</time></trkpt><trkpt lat="44.89442521689471" lon="6.630131556519753"><ele>1211.0</ele><time>2026-04-18T09:42:26Z</time></trkpt><trkpt lat="44.89432202212252" lon="6.630108740360203"><ele>1211.0</ele><time>2026-04-18T09:42:27Z</time></trkpt><trkpt lat="44.894252340973814" lon="6.630076012190663"><ele>1211.0</ele><time>2026-04-18T09:42:28Z</time></trkpt><trkpt lat="44.894167280181684" lon="6.630041440466828"><ele>1210.5</ele><time>2026-04-18T09:42:29Z</time></trkpt><trkpt lat="44.8940859473045" lon="6.630016138988344"><ele>1210.0</ele><time>2026-04-18T09:42:30Z</time></trkpt><trkpt lat="44.89401596695098" lon="6.630003756503313"><ele>1209.5</ele><time>2026-04-18T09:42:31Z</time></trkpt><trkpt lat="44.89393658499909" lon="6.629985876265779"><ele>1209.0</ele><time>2026-04-18T09:42:32Z</time></trkpt><trkpt lat="44.89385918900818" lon="6.629973832901558"><ele>1208.5</ele><time>2026-04-18T09:42:33Z</time></trkpt><trkpt lat="44.8937687932022" lon="6.629875619872608"><ele>1208.0</ele><time>2026-04-18T09:42:34.999Z</time></trkpt><trkpt lat="44.893700823515296" lon="6.629930875252713"><ele>1208.0</ele><time>2026-04-18T09:42:35.999Z</time></trkpt><trkpt lat="44.89363369114309" lon="6.6299476891483895"><ele>1208.0</ele><time>2026-04-18T09:42:37.999Z</time></trkpt><trkpt lat="44.8936275264247" lon="6.629842299100928"><ele>1208.0</ele><time>2026-04-18T09:42:40.999Z</time></trkpt><trkpt lat="44.89356249086357" lon="6.629943715745419"><ele>1208.0</ele><time>2026-04-18T09:51:46Z</time></trkpt><trkpt lat="44.89355493409321" lon="6.629852918577261"><ele>1208.0</ele><time>2026-04-18T09:52:00Z</time></trkpt><trkpt lat="44.89348543412713" lon="6.62979879973043"><ele>1208.0</ele><time>2026-04-18T09:52:01Z</time></trkpt><trkpt lat="44.89342452887899" lon="6.629745277353366"><ele>1206.5</ele><time>2026-04-18T09:52:02Z</time></trkpt><trkpt lat="44.89332612599593" lon="6.629719887389176"><ele>1205.0</ele><time>2026-04-18T09:52:03Z</time></trkpt><trkpt lat="44.89321868212877" lon="6.629668065123841"><ele>1203.5</ele><time>2026-04-18T09:52:04Z</time></trkpt><trkpt lat="44.89310740915419" lon="6.629633611855409"><ele>1202.0</ele><time>2026-04-18T09:52:05Z</time></trkpt><trkpt lat="44.89295789852903" lon="6.629590268201505"><ele>1202.0</ele><time>2026-04-18T09:52:06Z</time></trkpt><trkpt lat="44.892852069266574" lon="6.629492974548102"><ele>1202.0</ele><time>2026-04-18T09:52:07Z</time></trkpt><trkpt lat="44.892742476966454" lon="6.62944291238748"><ele>1202.0</ele><time>2026-04-18T09:52:08Z</time></trkpt><trkpt lat="44.89260656480928" lon="6.629385834189367"><ele>1202.0</ele><time>2026-04-18T09:52:09Z</time></trkpt><trkpt lat="44.892446094997176" lon="6.62932356750837"><ele>1204.3333333333335</ele><time>2026-04-18T09:52:10Z</time></trkpt><trkpt lat="44.89228059343798" lon="6.629257772768843"><ele>1206.6666666666667</ele><time>2026-04-18T09:52:11Z</time></trkpt><trkpt lat="44.89212583433041" lon="6.629182189173985"><ele>1209.0</ele><time>2026-04-18T09:52:12Z</time></trkpt><trkpt lat="44.891972822803986" lon="6.629122679132023"><ele>1209.0</ele><time>2026-04-18T09:52:13Z</time></trkpt><trkpt lat="44.891818868357134" lon="6.629015584518444"><ele>1209.0</ele><time>2026-04-18T09:52:14Z</time></trkpt><trkpt lat="44.89165699940441" lon="6.628909509186793"><ele>1209.0</ele><time>2026-04-18T09:52:15Z</time></trkpt><trkpt lat="44.89148688032075" lon="6.628793636762062"><ele>1209.6666666666667</ele><time>2026-04-18T09:52:16Z</time></trkpt><trkpt lat="44.891325907653396" lon="6.628633963501467"><ele>1210.3333333333335</ele><time>2026-04-18T09:52:17Z</time></trkpt><trkpt lat="44.89116705271614" lon="6.628486197106761"><ele>1211.0</ele><time>2026-04-18T09:52:18Z</time></trkpt><trkpt lat="44.891007239298844" lon="6.628325541004948"><ele>1211.3333333333335</ele><time>2026-04-18T09:52:19Z</time></trkpt><trkpt lat="44.89084910266008" lon="6.628163422536981"><ele>1211.6666666666667</ele><time>2026-04-18T09:52:20Z</time></trkpt><trkpt lat="44.89065227630074" lon="6.6279804423924285"><ele>1212.0</ele><time>2026-04-18T09:52:21Z</time></trkpt><trkpt lat="44.8904662653957" lon="6.627775100962139"><ele>1212.0</ele><time>2026-04-18T09:52:22Z</time></trkpt><trkpt lat="44.8902894714563" lon="6.627589207828322"><ele>1212.0</ele><time>2026-04-18T09:52:23Z</time></trkpt><trkpt lat="44.89013243726684" lon="6.627372820422176"><ele>1212.0</ele><time>2026-04-18T09:52:24Z</time></trkpt><trkpt lat="44.88995680598833" lon="6.62722882007823"><ele>1212.6666666666667</ele><time>2026-04-18T09:52:25Z</time></trkpt><trkpt lat="44.88977946999307" lon="6.627061591766192"><ele>1213.3333333333335</ele><time>2026-04-18T09:52:26Z</time></trkpt><trkpt lat="44.88960876020144" lon="6.626920310501732"><ele>1214.0</ele><time>2026-04-18T09:52:27Z</time></trkpt><trkpt lat="44.889428868369535" lon="6.62678154454761"><ele>1208.0</ele><time>2026-04-18T09:52:28Z</time></trkpt><trkpt lat="44.88923078922195" lon="6.626644117057291"><ele>1202.0</ele><time>2026-04-18T09:52:29Z</time></trkpt><trkpt lat="44.88901342537306" lon="6.626500753068989"><ele>1202.0</ele><time>2026-04-18T09:52:30Z</time></trkpt><trkpt lat="44.888820231015934" lon="6.626377089267109"><ele>1202.0</ele><time>2026-04-18T09:52:31Z</time></trkpt><trkpt lat="44.88862067808548" lon="6.62625586805882"><ele>1202.0</ele><time>2026-04-18T09:52:32Z</time></trkpt><trkpt lat="44.8884446037343" lon="6.626114829879403"><ele>1203.3333333333335</ele><time>2026-04-18T09:52:33Z</time></trkpt><trkpt lat="44.888238829843075" lon="6.626023099005676"><ele>1204.6666666666667</ele><time>2026-04-18T09:52:34Z</time></trkpt><trkpt lat="44.88804756385375" lon="6.625932215159855"><ele>1206.0</ele><time>2026-04-18T09:52:35Z</time></trkpt><trkpt lat="44.88786056263998" lon="6.625829219980035"><ele>1206.0</ele><time>2026-04-18T09:52:36Z</time></trkpt><trkpt lat="44.88769060210349" lon="6.625708852073706"><ele>1206.0</ele><time>2026-04-18T09:52:37Z</time></trkpt><trkpt lat="44.887493839067766" lon="6.62563426134249"><ele>1206.0</ele><time>2026-04-18T09:52:38Z</time></trkpt><trkpt lat="44.88733843748164" lon="6.625502700023418"><ele>1207.3333333333333</ele><time>2026-04-18T09:52:39Z</time></trkpt><trkpt lat="44.88717727108696" lon="6.625340222204316"><ele>1208.6666666666665</ele><time>2026-04-18T09:52:40Z</time></trkpt><trkpt lat="44.88700368578376" lon="6.625174349096058"><ele>1210.0</ele><time>2026-04-18T09:52:41Z</time></trkpt><trkpt lat="44.886836063834934" lon="6.625020577609696"><ele>1205.0</ele><time>2026-04-18T09:52:42Z</time></trkpt><trkpt lat="44.88666993375287" lon="6.624873890022032"><ele>1200.0</ele><time>2026-04-18T09:52:43Z</time></trkpt><trkpt lat="44.886523568913496" lon="6.624705780920811"><ele>1195.0</ele><time>2026-04-18T09:52:44Z</time></trkpt><trkpt lat="44.886375954656764" lon="6.624546578305581"><ele>1196.0</ele><time>2026-04-18T09:52:45Z</time></trkpt><trkpt lat="44.88623021516919" lon="6.62442127830087"><ele>1197.0</ele><time>2026-04-18T09:52:46Z</time></trkpt><trkpt lat="44.886074405946886" lon="6.624305100283603"><ele>1198.0</ele><time>2026-04-18T09:52:47Z</time></trkpt><trkpt lat="44.88590616007225" lon="6.624206343185398"><ele>1198.0</ele><time>2026-04-18T09:52:48Z</time></trkpt><trkpt lat="44.88575658984466" lon="6.624064709452719"><ele>1198.0</ele><time>2026-04-18T09:52:49Z</time></trkpt><trkpt lat="44.885607822404694" lon="6.62395267630882"><ele>1198.0</ele><time>2026-04-18T09:52:50Z</time></trkpt><trkpt lat="44.88547683797281" lon="6.623805759953074"><ele>1198.0</ele><time>2026-04-18T09:52:51Z</time></trkpt><trkpt lat="44.885317459290995" lon="6.623698714357645"><ele>1198.0</ele><time>2026-04-18T09:52:52Z</time></trkpt><trkpt lat="44.88517900407036" lon="6.6235648147957304"><ele>1198.0</ele><time>2026-04-18T09:52:53Z</time></trkpt><trkpt lat="44.88502229305202" lon="6.623467302113169"><ele>1198.3333333333333</ele><time>2026-04-18T09:52:54Z</time></trkpt><trkpt lat="44.88487572630842" lon="6.623352198443208"><ele>1198.6666666666667</ele><time>2026-04-18T09:52:55Z</time></trkpt><trkpt lat="44.884742762095165" lon="6.623234763952519"><ele>1199.0</ele><time>2026-04-18T09:52:56Z</time></trkpt><trkpt lat="44.88460022350744" lon="6.6231277550670615"><ele>1199.0</ele><time>2026-04-18T09:52:57Z</time></trkpt><trkpt lat="44.88446962459899" lon="6.6230121996544"><ele>1199.0</ele><time>2026-04-18T09:52:58Z</time></trkpt><trkpt lat="44.88430942727001" lon="6.622911564816998"><ele>1199.0</ele><time>2026-04-18T09:52:59Z</time></trkpt><trkpt lat="44.88417643147963" lon="6.6228340228882425"><ele>1198.3333333333335</ele><time>2026-04-18T09:53:00Z</time></trkpt><trkpt lat="44.88403030828434" lon="6.622718590232674"><ele>1197.6666666666667</ele><time>2026-04-18T09:53:01Z</time></trkpt><trkpt lat="44.8838704551051" lon="6.622602754070192"><ele>1197.0</ele><time>2026-04-18T09:53:02Z</time></trkpt><trkpt lat="44.88371483928338" lon="6.622490630319368"><ele>1197.0</ele><time>2026-04-18T09:53:03Z</time></trkpt><trkpt lat="44.88356830787804" lon="6.622411157583967"><ele>1197.0</ele><time>2026-04-18T09:53:04Z</time></trkpt><trkpt lat="44.883429587148434" lon="6.622310198343684"><ele>1197.0</ele><time>2026-04-18T09:53:05Z</time></trkpt><trkpt lat="44.88329491523221" lon="6.62219116789248"><ele>1198.6666666666667</ele><time>2026-04-18T09:53:06Z</time></trkpt><trkpt lat="44.88314657820152" lon="6.622107595537244"><ele>1200.3333333333335</ele><time>2026-04-18T09:53:07Z</time></trkpt><trkpt lat="44.883009458602025" lon="6.62199578834113"><ele>1202.0</ele><time>2026-04-18T09:53:08Z</time></trkpt><trkpt lat="44.88285507256668" lon="6.6218866718465055"><ele>1202.0</ele><time>2026-04-18T09:53:09Z</time></trkpt><trkpt lat="44.882716588721856" lon="6.621784861379998"><ele>1202.0</ele><time>2026-04-18T09:53:10Z</time></trkpt><trkpt lat="44.882594817948885" lon="6.621688919531927"><ele>1202.0</ele><time>2026-04-18T09:53:11Z</time></trkpt><trkpt lat="44.8824754007194" lon="6.621591817215841"><ele>1202.0</ele><time>2026-04-18T09:53:12Z</time></trkpt><trkpt lat="44.88233713580058" lon="6.621505642137979"><ele>1199.0</ele><time>2026-04-18T09:53:13Z</time></trkpt><trkpt lat="44.88222062939596" lon="6.621434696913728"><ele>1196.0</ele><time>2026-04-18T09:53:14Z</time></trkpt><trkpt lat="44.882126947525876" lon="6.621364157018506"><ele>1193.0</ele><time>2026-04-18T09:53:15Z</time></trkpt><trkpt lat="44.88201650485113" lon="6.621283204243173"><ele>1190.0</ele><time>2026-04-18T09:53:16Z</time></trkpt><trkpt lat="44.88192206439134" lon="6.621221154386113"><ele>1190.0</ele><time>2026-04-18T09:53:17Z</time></trkpt><trkpt lat="44.88184254767467" lon="6.621171427185733"><ele>1190.0</ele><time>2026-04-18T09:53:18Z</time></trkpt><trkpt lat="44.881761920056796" lon="6.62114122901828"><ele>1190.0</ele><time>2026-04-18T09:53:19Z</time></trkpt><trkpt lat="44.881688930745455" lon="6.621102104017253"><ele>1190.0</ele><time>2026-04-18T09:53:20Z</time></trkpt><trkpt lat="44.88158385122161" lon="6.621042362988053"><ele>1190.0</ele><time>2026-04-18T09:53:21.999Z</time></trkpt><trkpt lat="44.881514142882445" lon="6.620981391983064"><ele>1190.0</ele><time>2026-04-18T09:53:23.999Z</time></trkpt><trkpt lat="44.88144720796967" lon="6.6209413435149065"><ele>1189.8</ele><time>2026-04-18T09:53:25.999Z</time></trkpt><trkpt lat="44.881370305070796" lon="6.620819339806913"><ele>1189.6</ele><time>2026-04-18T09:53:27.999Z</time></trkpt><trkpt lat="44.881327954051265" lon="6.620746828092339"><ele>1189.4</ele><time>2026-04-18T09:53:28.999Z</time></trkpt><trkpt lat="44.88120905707573" lon="6.620635539438827"><ele>1189.2</ele><time>2026-04-18T09:53:30.999Z</time></trkpt><trkpt lat="44.88112092160493" lon="6.6206271214918235"><ele>1189.0</ele><time>2026-04-18T09:53:31.999Z</time></trkpt><trkpt lat="44.88102873756772" lon="6.620578922376828"><ele>1187.75</ele><time>2026-04-18T09:53:32.999Z</time></trkpt><trkpt lat="44.88091968206543" lon="6.620506057867136"><ele>1186.5</ele><time>2026-04-18T09:53:33.999Z</time></trkpt><trkpt lat="44.880794991837256" lon="6.620422920770443"><ele>1185.25</ele><time>2026-04-18T09:53:34.999Z</time></trkpt><trkpt lat="44.88066321566055" lon="6.620288045812302"><ele>1184.0</ele><time>2026-04-18T09:53:35.999Z</time></trkpt><trkpt lat="44.880500405571084" lon="6.620152028554709"><ele>1184.0</ele><time>2026-04-18T09:53:36.999Z</time></trkpt><trkpt lat="44.88032054766803" lon="6.619977878765145"><ele>1184.0</ele><time>2026-04-18T09:53:37.999Z</time></trkpt><trkpt lat="44.880125433358764" lon="6.619813270116178"><ele>1184.0</ele><time>2026-04-18T09:53:38.999Z</time></trkpt><trkpt lat="44.87993538706501" lon="6.619629238392708"><ele>1183.0</ele><time>2026-04-18T09:53:39.999Z</time></trkpt><trkpt lat="44.879759028500466" lon="6.619464888014927"><ele>1182.0</ele><time>2026-04-18T09:53:40.999Z</time></trkpt><trkpt lat="44.879592790127646" lon="6.619285002321852"><ele>1181.0</ele><time>2026-04-18T09:53:41.999Z</time></trkpt><trkpt lat="44.87941901860371" lon="6.619115543084736"><ele>1181.0</ele><time>2026-04-18T09:53:42.999Z</time></trkpt><trkpt lat="44.87924716781296" lon="6.618978879290409"><ele>1181.0</ele><time>2026-04-18T09:53:43.999Z</time></trkpt><trkpt lat="44.879055362537905" lon="6.618848912113865"><ele>1181.0</ele><time>2026-04-18T09:53:44.999Z</time></trkpt><trkpt lat="44.87886844465897" lon="6.618704178182461"><ele>1181.0</ele><time>2026-04-18T09:53:45.999Z</time></trkpt><trkpt lat="44.87867457629769" lon="6.618566600670124"><ele>1181.0</ele><time>2026-04-18T09:53:46.999Z</time></trkpt><trkpt lat="44.87847307760326" lon="6.6184617898139715"><ele>1181.0</ele><time>2026-04-18T09:53:47.999Z</time></trkpt><trkpt lat="44.8782773437905" lon="6.618349091826011"><ele>1181.0</ele><time>2026-04-18T09:53:48.999Z</time></trkpt><trkpt lat="44.87808301337965" lon="6.618250157608889"><ele>1181.0</ele><time>2026-04-18T09:53:49.999Z</time></trkpt><trkpt lat="44.87788015849991" lon="6.618162387082582"><ele>1181.0</ele><time>2026-04-18T09:53:50.999Z</time></trkpt><trkpt lat="44.87767916199679" lon="6.618088542784437"><ele>1180.3333333333335</ele><time>2026-04-18T09:53:51.999Z</time></trkpt><trkpt lat="44.877487493433605" lon="6.618015587996404"><ele>1179.6666666666667</ele><time>2026-04-18T09:53:52.999Z</time></trkpt><trkpt lat="44.87731511636721" lon="6.617953349803332"><ele>1179.0</ele><time>2026-04-18T09:53:53.999Z</time></trkpt><trkpt lat="44.877131414923504" lon="6.617879220455997"><ele>1179.6666666666667</ele><time>2026-04-18T09:53:54.999Z</time></trkpt><trkpt lat="44.87693941737445" lon="6.617809945996479"><ele>1180.3333333333335</ele><time>2026-04-18T09:53:55.999Z</time></trkpt><trkpt lat="44.876744020414165" lon="6.617768137345865"><ele>1181.0</ele><time>2026-04-18T09:53:56.999Z</time></trkpt><trkpt lat="44.87655395659041" lon="6.617711174594885"><ele>1181.0</ele><time>2026-04-18T09:53:57.999Z</time></trkpt><trkpt lat="44.87636097608812" lon="6.6176364512424"><ele>1181.0</ele><time>2026-04-18T09:53:58.999Z</time></trkpt><trkpt lat="44.87616722893851" lon="6.617580684103931"><ele>1181.0</ele><time>2026-04-18T09:53:59.999Z</time></trkpt><trkpt lat="44.875983159738816" lon="6.617487177830336"><ele>1180.0</ele><time>2026-04-18T09:54:00.999Z</time></trkpt><trkpt lat="44.87579685445196" lon="6.617388122676296"><ele>1179.0</ele><time>2026-04-18T09:54:01.999Z</time></trkpt><trkpt lat="44.87560067557635" lon="6.617288317626729"><ele>1178.0</ele><time>2026-04-18T09:54:02.999Z</time></trkpt><trkpt lat="44.87541968790327" lon="6.617136469167596"><ele>1177.3333333333335</ele><time>2026-04-18T09:54:03.999Z</time></trkpt><trkpt lat="44.875230106284235" lon="6.6169815624013575"><ele>1176.6666666666667</ele><time>2026-04-18T09:54:04.999Z</time></trkpt><trkpt lat="44.87504349167455" lon="6.616808917677189"><ele>1176.0</ele><time>2026-04-18T09:54:05.999Z</time></trkpt><trkpt lat="44.874864362539206" lon="6.616619498895123"><ele>1176.0</ele><time>2026-04-18T09:54:06.999Z</time></trkpt><trkpt lat="44.87469207743126" lon="6.616417658710748"><ele>1176.0</ele><time>2026-04-18T09:54:07.999Z</time></trkpt><trkpt lat="44.874535871001974" lon="6.616213633791468"><ele>1176.0</ele><time>2026-04-18T09:54:08.999Z</time></trkpt><trkpt lat="44.87438490910597" lon="6.615986966628324"><ele>1176.0</ele><time>2026-04-18T09:54:09.999Z</time></trkpt><trkpt lat="44.874245817244706" lon="6.615754492914629"><ele>1176.0</ele><time>2026-04-18T09:54:10.999Z</time></trkpt><trkpt lat="44.87412106156313" lon="6.615521581493942"><ele>1176.0</ele><time>2026-04-18T09:54:11.999Z</time></trkpt><trkpt lat="44.87400732317287" lon="6.6152810062941265"><ele>1176.0</ele><time>2026-04-18T09:54:12.999Z</time></trkpt><trkpt lat="44.873898064136135" lon="6.615025345089466"><ele>1176.0</ele><time>2026-04-18T09:54:13.999Z</time></trkpt><trkpt lat="44.87380485264453" lon="6.6147712765944515"><ele>1176.0</ele><time>2026-04-18T09:54:14.999Z</time></trkpt><trkpt lat="44.8737130429071" lon="6.614491598955927"><ele>1176.0</ele><time>2026-04-18T09:54:15.999Z</time></trkpt><trkpt lat="44.873626758585985" lon="6.614212473425751"><ele>1176.0</ele><time>2026-04-18T09:54:16.999Z</time></trkpt><trkpt lat="44.87353940629656" lon="6.613925115674611"><ele>1176.0</ele><time>2026-04-18T09:54:17.999Z</time></trkpt><trkpt lat="44.873455412020206" lon="6.61365146248791"><ele>1175.3333333333333</ele><time>2026-04-18T09:54:18.999Z</time></trkpt><trkpt lat="44.873376587880976" lon="6.613398345795582"><ele>1174.6666666666665</ele><time>2026-04-18T09:54:19.999Z</time></trkpt><trkpt lat="44.87330328395426" lon="6.613157217790626"><ele>1174.0</ele><time>2026-04-18T09:54:20.999Z</time></trkpt><trkpt lat="44.87322275644789" lon="6.6129431810145824"><ele>1174.0</ele><time>2026-04-18T09:54:21.999Z</time></trkpt><trkpt lat="44.873161647520725" lon="6.612691881885823"><ele>1174.0</ele><time>2026-04-18T09:54:22.999Z</time></trkpt><trkpt lat="44.87308854995868" lon="6.612493667083368"><ele>1174.0</ele><time>2026-04-18T09:54:23.999Z</time></trkpt><trkpt lat="44.87302993225604" lon="6.6122620958892595"><ele>1174.0</ele><time>2026-04-18T09:54:24.999Z</time></trkpt><trkpt lat="44.87295813691688" lon="6.612027828233862"><ele>1174.0</ele><time>2026-04-18T09:54:25.999Z</time></trkpt><trkpt lat="44.872878668429976" lon="6.61178956420559"><ele>1174.0</ele><time>2026-04-18T09:54:26.999Z</time></trkpt><trkpt lat="44.87281259173438" lon="6.611557221330524"><ele>1173.6666666666665</ele><time>2026-04-18T09:54:27.999Z</time></trkpt><trkpt lat="44.872738634884044" lon="6.611340175852263"><ele>1173.3333333333333</ele><time>2026-04-18T09:54:28.999Z</time></trkpt><trkpt lat="44.87267251853969" lon="6.611091855009504"><ele>1173.0</ele><time>2026-04-18T09:54:29.999Z</time></trkpt><trkpt lat="44.872617315468155" lon="6.610882132267703"><ele>1172.6666666666667</ele><time>2026-04-18T09:54:30.999Z</time></trkpt><trkpt lat="44.87256992435815" lon="6.610677238665315"><ele>1172.3333333333335</ele><time>2026-04-18T09:54:31.999Z</time></trkpt><trkpt lat="44.87251360252611" lon="6.610471267611907"><ele>1172.0</ele><time>2026-04-18T09:54:32.999Z</time></trkpt><trkpt lat="44.87244239626113" lon="6.610244148290697"><ele>1172.0</ele><time>2026-04-18T09:54:33.999Z</time></trkpt><trkpt lat="44.87237145390379" lon="6.610018265359657"><ele>1172.0</ele><time>2026-04-18T09:54:34.999Z</time></trkpt><trkpt lat="44.87229963993644" lon="6.609808212673702"><ele>1172.0</ele><time>2026-04-18T09:54:35.999Z</time></trkpt><trkpt lat="44.87222405886153" lon="6.609548152093921"><ele>1172.3333333333335</ele><time>2026-04-18T09:54:36.999Z</time></trkpt><trkpt lat="44.872160418090814" lon="6.609311598096424"><ele>1172.6666666666667</ele><time>2026-04-18T09:54:37.999Z</time></trkpt><trkpt lat="44.87209200073525" lon="6.60906217150616"><ele>1173.0</ele><time>2026-04-18T09:54:38.999Z</time></trkpt><trkpt lat="44.87201653649451" lon="6.608824568690197"><ele>1172.3333333333333</ele><time>2026-04-18T09:54:39.999Z</time></trkpt><trkpt lat="44.87193890998371" lon="6.60858130689076"><ele>1171.6666666666665</ele><time>2026-04-18T09:54:40.999Z</time></trkpt><trkpt lat="44.87186789237714" lon="6.6083522938742805"><ele>1171.0</ele><time>2026-04-18T09:54:41.999Z</time></trkpt><trkpt lat="44.8718038883861" lon="6.608119866203365"><ele>1171.3333333333333</ele><time>2026-04-18T09:54:42.999Z</time></trkpt><trkpt lat="44.871718713659" lon="6.60789269902485"><ele>1171.6666666666667</ele><time>2026-04-18T09:54:43.999Z</time></trkpt><trkpt lat="44.871626616684445" lon="6.607675657502846"><ele>1172.0</ele><time>2026-04-18T09:54:44.999Z</time></trkpt><trkpt lat="44.871523802164816" lon="6.607465175113851"><ele>1171.0</ele><time>2026-04-18T09:54:45.999Z</time></trkpt><trkpt lat="44.87143855993286" lon="6.607263408860981"><ele>1170.0</ele><time>2026-04-18T09:54:46.999Z</time></trkpt><trkpt lat="44.87133834758395" lon="6.607063147866049"><ele>1169.0</ele><time>2026-04-18T09:54:47.999Z</time></trkpt><trkpt lat="44.87124941726277" lon="6.606849579632182"><ele>1168.3333333333335</ele><time>2026-04-18T09:54:48.999Z</time></trkpt><trkpt lat="44.87113201609358" lon="6.6066434530225555"><ele>1167.6666666666667</ele><time>2026-04-18T09:54:49.999Z</time></trkpt><trkpt lat="44.871036625029625" lon="6.6064890847556255"><ele>1167.0</ele><time>2026-04-18T09:54:50.999Z</time></trkpt><trkpt lat="44.87091493764365" lon="6.606295755598033"><ele>1168.0</ele><time>2026-04-18T09:54:51.999Z</time></trkpt><trkpt lat="44.8708039821491" lon="6.606098872193173"><ele>1169.0</ele><time>2026-04-18T09:54:52.999Z</time></trkpt><trkpt lat="44.870710201476804" lon="6.605907822838769"><ele>1170.0</ele><time>2026-04-18T09:54:53.999Z</time></trkpt><trkpt lat="44.87059391771924" lon="6.605695036222587"><ele>1170.0</ele><time>2026-04-18T09:54:54.999Z</time></trkpt><trkpt lat="44.87047831234916" lon="6.605483490873061"><ele>1170.0</ele><time>2026-04-18T09:54:55.999Z</time></trkpt><trkpt lat="44.87035846730506" lon="6.605264725395432"><ele>1170.0</ele><time>2026-04-18T09:54:56.999Z</time></trkpt><trkpt lat="44.870234140100905" lon="6.605068454765433"><ele>1170.3333333333333</ele><time>2026-04-18T09:54:57.999Z</time></trkpt><trkpt lat="44.87013083599364" lon="6.604836970708957"><ele>1170.6666666666665</ele><time>2026-04-18T09:54:58.999Z</time></trkpt><trkpt lat="44.87001160412033" lon="6.6046077805897605"><ele>1171.0</ele><time>2026-04-18T09:54:59.999Z</time></trkpt><trkpt lat="44.86989040979924" lon="6.604372844017659"><ele>1172.0</ele><time>2026-04-18T09:55:00.999Z</time></trkpt><trkpt lat="44.86975712001774" lon="6.604108946310248"><ele>1173.0</ele><time>2026-04-18T09:55:01.999Z</time></trkpt><trkpt lat="44.869618429603335" lon="6.603837057291088"><ele>1175.0</ele><time>2026-04-18T09:55:02.999Z</time></trkpt><trkpt lat="44.86948135992916" lon="6.603571669775014"><ele>1177.0</ele><time>2026-04-18T09:55:03.999Z</time></trkpt><trkpt lat="44.86934270434141" lon="6.6033253766153726"><ele>1176.0</ele><time>2026-04-18T09:55:04.999Z</time></trkpt><trkpt lat="44.86920309593441" lon="6.603069268206064"><ele>1175.0</ele><time>2026-04-18T09:55:05.999Z</time></trkpt><trkpt lat="44.86904517639989" lon="6.6028206453177285"><ele>1175.0</ele><time>2026-04-18T09:55:06.999Z</time></trkpt><trkpt lat="44.868923476676486" lon="6.602610321641933"><ele>1175.0</ele><time>2026-04-18T09:55:07.999Z</time></trkpt><trkpt lat="44.86877202207775" lon="6.602363937502145"><ele>1175.0</ele><time>2026-04-18T09:55:08.999Z</time></trkpt><trkpt lat="44.86863363318033" lon="6.602146515479851"><ele>1175.3333333333335</ele><time>2026-04-18T09:55:09.999Z</time></trkpt><trkpt lat="44.86842385196437" lon="6.6020145260032415"><ele>1175.6666666666667</ele><time>2026-04-18T09:55:10.999Z</time></trkpt><trkpt lat="44.86825419628842" lon="6.60182143784647"><ele>1176.0</ele><time>2026-04-18T09:55:11.999Z</time></trkpt><trkpt lat="44.86807693846739" lon="6.601663163559411"><ele>1176.0</ele><time>2026-04-18T09:55:12.999Z</time></trkpt><trkpt lat="44.86788363158778" lon="6.601502416747213"><ele>1176.0</ele><time>2026-04-18T09:55:13.999Z</time></trkpt><trkpt lat="44.867695076582066" lon="6.601336323776456"><ele>1176.0</ele><time>2026-04-18T09:55:14.999Z</time></trkpt><trkpt lat="44.86749680703003" lon="6.601184269696855"><ele>1175.5</ele><time>2026-04-18T09:55:15.999Z</time></trkpt><trkpt lat="44.86729683295491" lon="6.601036658827961"><ele>1175.0</ele><time>2026-04-18T09:55:16.999Z</time></trkpt><trkpt lat="44.86709001629365" lon="6.6008851192955404"><ele>1175.0</ele><time>2026-04-18T09:55:17.999Z</time></trkpt><trkpt lat="44.866878471093145" lon="6.600741593128734"><ele>1175.0</ele><time>2026-04-18T09:55:18.999Z</time></trkpt><trkpt lat="44.86667032076424" lon="6.600581413752032"><ele>1174.0</ele><time>2026-04-18T09:55:19.999Z</time></trkpt><trkpt lat="44.86646406657277" lon="6.600438680930948"><ele>1173.0</ele><time>2026-04-18T09:55:20.999Z</time></trkpt><trkpt lat="44.86626145820712" lon="6.600309694470937"><ele>1174.3333333333333</ele><time>2026-04-18T09:55:21.999Z</time></trkpt><trkpt lat="44.86607237188702" lon="6.600186609698168"><ele>1175.6666666666665</ele><time>2026-04-18T09:55:22.999Z</time></trkpt><trkpt lat="44.865900266063896" lon="6.600050031750354"><ele>1177.0</ele><time>2026-04-18T09:55:23.999Z</time></trkpt><trkpt lat="44.865727539232964" lon="6.599912518749164"><ele>1177.0</ele><time>2026-04-18T09:55:24.999Z</time></trkpt><trkpt lat="44.865566236279506" lon="6.599796565696571"><ele>1177.0</ele><time>2026-04-18T09:55:25.999Z</time></trkpt><trkpt lat="44.865416164939724" lon="6.599664991044942"><ele>1177.0</ele><time>2026-04-18T09:55:26.999Z</time></trkpt><trkpt lat="44.86526070726477" lon="6.599503718159021"><ele>1176.6666666666665</ele><time>2026-04-18T09:55:27.999Z</time></trkpt><trkpt lat="44.86511721031633" lon="6.599343461743897"><ele>1176.3333333333333</ele><time>2026-04-18T09:55:28.999Z</time></trkpt><trkpt lat="44.864973587349674" lon="6.599182475786651"><ele>1176.0</ele><time>2026-04-18T09:55:29.999Z</time></trkpt><trkpt lat="44.864842225994394" lon="6.59900806139964"><ele>1176.0</ele><time>2026-04-18T09:55:30.999Z</time></trkpt><trkpt lat="44.864716739863155" lon="6.598829111046459"><ele>1176.0</ele><time>2026-04-18T09:55:31.999Z</time></trkpt><trkpt lat="44.8645978722699" lon="6.598645750714954"><ele>1176.0</ele><time>2026-04-18T09:55:32.999Z</time></trkpt><trkpt lat="44.8644925443906" lon="6.5984492208269705"><ele>1176.0</ele><time>2026-04-18T09:55:33.999Z</time></trkpt><trkpt lat="44.8643783346108" lon="6.5982593448373255"><ele>1176.0</ele><time>2026-04-18T09:55:34.999Z</time></trkpt><trkpt lat="44.86427735698079" lon="6.598045263500156"><ele>1176.0</ele><time>2026-04-18T09:55:35.999Z</time></trkpt><trkpt lat="44.864184037353276" lon="6.59784773549607"><ele>1176.0</ele><time>2026-04-18T09:55:36.999Z</time></trkpt><trkpt lat="44.86408940386134" lon="6.5976536076992165"><ele>1176.0</ele><time>2026-04-18T09:55:37.999Z</time></trkpt><trkpt lat="44.864003239817755" lon="6.597454432839723"><ele>1176.0</ele><time>2026-04-18T09:55:38.999Z</time></trkpt><trkpt lat="44.86391336155284" lon="6.597266013874485"><ele>1176.0</ele><time>2026-04-18T09:55:39.999Z</time></trkpt><trkpt lat="44.86382604552266" lon="6.597093779239598"><ele>1176.0</ele><time>2026-04-18T09:55:40.999Z</time></trkpt><trkpt lat="44.863742165098195" lon="6.596900956547497"><ele>1176.0</ele><time>2026-04-18T09:55:41.999Z</time></trkpt><trkpt lat="44.86365159753374" lon="6.596717743552182"><ele>1176.6666666666667</ele><time>2026-04-18T09:55:42.999Z</time></trkpt><trkpt lat="44.86355385905871" lon="6.596513666458092"><ele>1177.3333333333335</ele><time>2026-04-18T09:55:43.999Z</time></trkpt><trkpt lat="44.86345416004785" lon="6.596317488764551"><ele>1178.0</ele><time>2026-04-18T09:55:44.999Z</time></trkpt><trkpt lat="44.863346719854924" lon="6.596120905947623"><ele>1175.6666666666667</ele><time>2026-04-18T09:55:45.999Z</time></trkpt><trkpt lat="44.8632446933316" lon="6.595914144859598"><ele>1173.3333333333333</ele><time>2026-04-18T09:55:46.999Z</time></trkpt><trkpt lat="44.86312437439344" lon="6.595716582754591"><ele>1171.0</ele><time>2026-04-18T09:55:47.999Z</time></trkpt><trkpt lat="44.86302021194144" lon="6.595499877121205"><ele>1171.6666666666665</ele><time>2026-04-18T09:55:48.999Z</time></trkpt><trkpt lat="44.86290438436526" lon="6.595297681703557"><ele>1172.3333333333333</ele><time>2026-04-18T09:55:49.999Z</time></trkpt><trkpt lat="44.862789265221146" lon="6.595067032628522"><ele>1173.0</ele><time>2026-04-18T09:55:50.999Z</time></trkpt><trkpt lat="44.86267095309969" lon="6.594848860019133"><ele>1170.3333333333333</ele><time>2026-04-18T09:55:51.999Z</time></trkpt><trkpt lat="44.86254264826857" lon="6.594616808696652"><ele>1167.6666666666665</ele><time>2026-04-18T09:55:52.999Z</time></trkpt><trkpt lat="44.862396161078465" lon="6.594380301786249"><ele>1165.0</ele><time>2026-04-18T09:55:53.999Z</time></trkpt><trkpt lat="44.862279911358065" lon="6.594130808571224"><ele>1164.6666666666665</ele><time>2026-04-18T09:55:54.999Z</time></trkpt><trkpt lat="44.86214932139717" lon="6.593887898611947"><ele>1164.3333333333333</ele><time>2026-04-18T09:55:56Z</time></trkpt><trkpt lat="44.86201069203792" lon="6.593628531916022"><ele>1164.0</ele><time>2026-04-18T09:55:57Z</time></trkpt><trkpt lat="44.86186804169925" lon="6.59335057272854"><ele>1161.5</ele><time>2026-04-18T09:55:58Z</time></trkpt><trkpt lat="44.86173802859403" lon="6.593075843701651"><ele>1159.0</ele><time>2026-04-18T09:55:59Z</time></trkpt><trkpt lat="44.86160013044564" lon="6.592808121500047"><ele>1159.0</ele><time>2026-04-18T09:56:00Z</time></trkpt><trkpt lat="44.86146167474273" lon="6.592543342112325"><ele>1159.0</ele><time>2026-04-18T09:56:01Z</time></trkpt><trkpt lat="44.8613320484698" lon="6.592275895446708"><ele>1159.0</ele><time>2026-04-18T09:56:02Z</time></trkpt><trkpt lat="44.86119723182048" lon="6.592010529939413"><ele>1159.0</ele><time>2026-04-18T09:56:03Z</time></trkpt><trkpt lat="44.86106925506252" lon="6.591753794182873"><ele>1157.6666666666665</ele><time>2026-04-18T09:56:04Z</time></trkpt><trkpt lat="44.86094349030095" lon="6.591494055594473"><ele>1156.3333333333333</ele><time>2026-04-18T09:56:05Z</time></trkpt><trkpt lat="44.8608210454198" lon="6.591248586999206"><ele>1155.0</ele><time>2026-04-18T09:56:06Z</time></trkpt><trkpt lat="44.86070556733901" lon="6.591017404873747"><ele>1155.0</ele><time>2026-04-18T09:56:07Z</time></trkpt><trkpt lat="44.86058064618344" lon="6.590783066204351"><ele>1155.0</ele><time>2026-04-18T09:56:08Z</time></trkpt><trkpt lat="44.86044619227105" lon="6.59057266884493"><ele>1155.0</ele><time>2026-04-18T09:56:09Z</time></trkpt><trkpt lat="44.8602827241753" lon="6.5903916830723155"><ele>1153.3333333333333</ele><time>2026-04-18T09:56:10Z</time></trkpt><trkpt lat="44.86011077165755" lon="6.5902069915883335"><ele>1151.6666666666665</ele><time>2026-04-18T09:56:11Z</time></trkpt><trkpt lat="44.859941237759294" lon="6.5900058863518165"><ele>1150.0</ele><time>2026-04-18T09:56:12Z</time></trkpt><trkpt lat="44.859785730953206" lon="6.589803640055333"><ele>1150.0</ele><time>2026-04-18T09:56:13Z</time></trkpt><trkpt lat="44.85960045392132" lon="6.5896078457446"><ele>1150.0</ele><time>2026-04-18T09:56:14Z</time></trkpt><trkpt lat="44.859426288227546" lon="6.589433692996139"><ele>1150.0</ele><time>2026-04-18T09:56:15Z</time></trkpt><trkpt lat="44.859254551021074" lon="6.589254585091474"><ele>1149.6666666666665</ele><time>2026-04-18T09:56:16Z</time></trkpt><trkpt lat="44.85909054472114" lon="6.5890808631708415"><ele>1149.3333333333333</ele><time>2026-04-18T09:56:17Z</time></trkpt><trkpt lat="44.858926820330225" lon="6.588897905711842"><ele>1149.0</ele><time>2026-04-18T09:56:18Z</time></trkpt><trkpt lat="44.8587646405935" lon="6.588705794951237"><ele>1149.0</ele><time>2026-04-18T09:56:19Z</time></trkpt><trkpt lat="44.85859839727811" lon="6.588524359921186"><ele>1149.0</ele><time>2026-04-18T09:56:20Z</time></trkpt><trkpt lat="44.85842169512634" lon="6.588336066847168"><ele>1149.0</ele><time>2026-04-18T09:56:21Z</time></trkpt><trkpt lat="44.85824689272154" lon="6.588157935196603"><ele>1150.0</ele><time>2026-04-18T09:56:22Z</time></trkpt><trkpt lat="44.85808408703245" lon="6.587975556988914"><ele>1151.0</ele><time>2026-04-18T09:56:23Z</time></trkpt><trkpt lat="44.857920613337576" lon="6.5877933146614325"><ele>1152.0</ele><time>2026-04-18T09:56:24Z</time></trkpt><trkpt lat="44.85776295342389" lon="6.587621602614816"><ele>1152.3333333333333</ele><time>2026-04-18T09:56:25Z</time></trkpt><trkpt lat="44.85759769593471" lon="6.587448037355494"><ele>1152.6666666666665</ele><time>2026-04-18T09:56:26Z</time></trkpt><trkpt lat="44.85744416108513" lon="6.58726374940794"><ele>1153.0</ele><time>2026-04-18T09:56:27Z</time></trkpt><trkpt lat="44.85728599928204" lon="6.587103925986658"><ele>1154.0</ele><time>2026-04-18T09:56:28Z</time></trkpt><trkpt lat="44.8571374449005" lon="6.586938674527131"><ele>1155.0</ele><time>2026-04-18T09:56:29Z</time></trkpt><trkpt lat="44.85696359273737" lon="6.586776808148022"><ele>1156.0</ele><time>2026-04-18T09:56:30Z</time></trkpt><trkpt lat="44.85680279985565" lon="6.5866034962202615"><ele>1156.3333333333333</ele><time>2026-04-18T09:56:31Z</time></trkpt><trkpt lat="44.856634050287504" lon="6.586442960920058"><ele>1156.6666666666667</ele><time>2026-04-18T09:56:32Z</time></trkpt><trkpt lat="44.85647110524536" lon="6.586271363808463"><ele>1157.0</ele><time>2026-04-18T09:56:33Z</time></trkpt><trkpt lat="44.856316045427704" lon="6.586098541672095"><ele>1158.3333333333335</ele><time>2026-04-18T09:56:34Z</time></trkpt><trkpt lat="44.85616160351388" lon="6.585924711259723"><ele>1159.6666666666667</ele><time>2026-04-18T09:56:35Z</time></trkpt><trkpt lat="44.85600597769481" lon="6.585735328946072"><ele>1161.0</ele><time>2026-04-18T09:56:36Z</time></trkpt><trkpt lat="44.85583291553751" lon="6.5855594659607455"><ele>1161.0</ele><time>2026-04-18T09:56:37Z</time></trkpt><trkpt lat="44.8556613067838" lon="6.585406312564668"><ele>1161.0</ele><time>2026-04-18T09:56:38Z</time></trkpt><trkpt lat="44.855514908309715" lon="6.5852469578385575"><ele>1161.0</ele><time>2026-04-18T09:56:39Z</time></trkpt><trkpt lat="44.8553757185507" lon="6.585068706651029"><ele>1161.3333333333333</ele><time>2026-04-18T09:56:40Z</time></trkpt><trkpt lat="44.85522222919403" lon="6.584904730928131"><ele>1161.6666666666665</ele><time>2026-04-18T09:56:41Z</time></trkpt><trkpt lat="44.85508014851122" lon="6.584745395131774"><ele>1162.0</ele><time>2026-04-18T09:56:42Z</time></trkpt><trkpt lat="44.85494836082375" lon="6.584588938090388"><ele>1164.3333333333333</ele><time>2026-04-18T09:56:43Z</time></trkpt><trkpt lat="44.85481380128528" lon="6.584448902741388"><ele>1166.6666666666667</ele><time>2026-04-18T09:56:44Z</time></trkpt><trkpt lat="44.85467345267535" lon="6.584324140910192"><ele>1169.0</ele><time>2026-04-18T09:56:45Z</time></trkpt><trkpt lat="44.854535728259975" lon="6.584178092322488"><ele>1169.0</ele><time>2026-04-18T09:56:46Z</time></trkpt><trkpt lat="44.85439935579637" lon="6.584042005058441"><ele>1169.0</ele><time>2026-04-18T09:56:47Z</time></trkpt><trkpt lat="44.85426653007112" lon="6.583920194226817"><ele>1169.0</ele><time>2026-04-18T09:56:48Z</time></trkpt><trkpt lat="44.85415639645416" lon="6.58376609281986"><ele>1170.0</ele><time>2026-04-18T09:56:49Z</time></trkpt><trkpt lat="44.8540578353641" lon="6.583593728643011"><ele>1171.0</ele><time>2026-04-18T09:56:50Z</time></trkpt><trkpt lat="44.85392851809497" lon="6.583444205927301"><ele>1172.0</ele><time>2026-04-18T09:56:51Z</time></trkpt><trkpt lat="44.85379489472389" lon="6.583324836786375"><ele>1172.0</ele><time>2026-04-18T09:56:52Z</time></trkpt><trkpt lat="44.85367406265997" lon="6.583191665830957"><ele>1172.0</ele><time>2026-04-18T09:56:53Z</time></trkpt><trkpt lat="44.85355095525463" lon="6.583054185741008"><ele>1172.0</ele><time>2026-04-18T09:56:54Z</time></trkpt><trkpt lat="44.853410555044285" lon="6.582905626015402"><ele>1171.3333333333335</ele><time>2026-04-18T09:56:55Z</time></trkpt><trkpt lat="44.853283374407496" lon="6.5827718046447785"><ele>1170.6666666666667</ele><time>2026-04-18T09:56:56Z</time></trkpt><trkpt lat="44.853163347083466" lon="6.582651239884274"><ele>1170.0</ele><time>2026-04-18T09:56:57Z</time></trkpt><trkpt lat="44.853040227894525" lon="6.582543406469696"><ele>1170.0</ele><time>2026-04-18T09:56:58Z</time></trkpt><trkpt lat="44.852915884705396" lon="6.582427352791155"><ele>1170.0</ele><time>2026-04-18T09:56:59Z</time></trkpt><trkpt lat="44.85278729310528" lon="6.582326687010279"><ele>1170.0</ele><time>2026-04-18T09:57:00Z</time></trkpt><trkpt lat="44.85265065104907" lon="6.582236779041401"><ele>1170.0</ele><time>2026-04-18T09:57:01Z</time></trkpt><trkpt lat="44.852517888481266" lon="6.582148712289003"><ele>1166.0</ele><time>2026-04-18T09:57:02Z</time></trkpt><trkpt lat="44.852340377634576" lon="6.58215263985252"><ele>1162.0</ele><time>2026-04-18T09:57:03Z</time></trkpt><trkpt lat="44.852205227438475" lon="6.582095406811107"><ele>1158.0</ele><time>2026-04-18T09:57:04Z</time></trkpt><trkpt lat="44.85207607459858" lon="6.582036234434455"><ele>1158.0</ele><time>2026-04-18T09:57:05Z</time></trkpt><trkpt lat="44.851945056779925" lon="6.581985529394955"><ele>1158.0</ele><time>2026-04-18T09:57:06Z</time></trkpt><trkpt lat="44.85181675903445" lon="6.581941451787597"><ele>1158.0</ele><time>2026-04-18T09:57:07Z</time></trkpt><trkpt lat="44.85168190795641" lon="6.581938537004315"><ele>1158.0</ele><time>2026-04-18T09:57:08Z</time></trkpt><trkpt lat="44.8515305632169" lon="6.581945397928174"><ele>1158.0</ele><time>2026-04-18T09:57:09Z</time></trkpt><trkpt lat="44.85134688283547" lon="6.5820053501133"><ele>1158.0</ele><time>2026-04-18T09:57:10Z</time></trkpt><trkpt lat="44.85118047658249" lon="6.5820564951981115"><ele>1158.0</ele><time>2026-04-18T09:57:11Z</time></trkpt><trkpt lat="44.85101217152581" lon="6.5821321465721025"><ele>1154.0</ele><time>2026-04-18T09:57:12Z</time></trkpt><trkpt lat="44.850833183928536" lon="6.582186594015957"><ele>1150.0</ele><time>2026-04-18T09:57:13Z</time></trkpt><trkpt lat="44.850665047161826" lon="6.582240915367245"><ele>1146.0</ele><time>2026-04-18T09:57:14Z</time></trkpt><trkpt lat="44.850494237294946" lon="6.58229802890842"><ele>1146.0</ele><time>2026-04-18T09:57:15Z</time></trkpt><trkpt lat="44.85033632383091" lon="6.582381933322507"><ele>1146.0</ele><time>2026-04-18T09:57:16Z</time></trkpt><trkpt lat="44.85018713523747" lon="6.582428265295011"><ele>1146.0</ele><time>2026-04-18T09:57:17Z</time></trkpt><trkpt lat="44.850030724354234" lon="6.582491399680306"><ele>1149.0</ele><time>2026-04-18T09:57:18Z</time></trkpt><trkpt lat="44.84987149253973" lon="6.582543273027156"><ele>1152.0</ele><time>2026-04-18T09:57:19Z</time></trkpt><trkpt lat="44.849707746291884" lon="6.582592712079019"><ele>1155.0</ele><time>2026-04-18T09:57:20Z</time></trkpt><trkpt lat="44.84953691707677" lon="6.582610703456979"><ele>1155.0</ele><time>2026-04-18T09:57:21Z</time></trkpt><trkpt lat="44.84936567452059" lon="6.582644263076412"><ele>1155.0</ele><time>2026-04-18T09:57:22Z</time></trkpt><trkpt lat="44.84919548939644" lon="6.582688153096801"><ele>1155.0</ele><time>2026-04-18T09:57:23Z</time></trkpt><trkpt lat="44.849021229323114" lon="6.582730597252694"><ele>1154.0</ele><time>2026-04-18T09:57:24Z</time></trkpt><trkpt lat="44.848846935487074" lon="6.582789875118039"><ele>1153.0</ele><time>2026-04-18T09:57:25Z</time></trkpt><trkpt lat="44.84866620758688" lon="6.582835555079503"><ele>1152.0</ele><time>2026-04-18T09:57:26Z</time></trkpt><trkpt lat="44.848493519087086" lon="6.58287032892794"><ele>1162.6666666666667</ele><time>2026-04-18T09:57:27Z</time></trkpt><trkpt lat="44.84829197490646" lon="6.5829498523580074"><ele>1173.3333333333335</ele><time>2026-04-18T09:57:28Z</time></trkpt><trkpt lat="44.84812282907638" lon="6.5829877494303215"><ele>1184.0</ele><time>2026-04-18T09:57:29Z</time></trkpt><trkpt lat="44.84796559645599" lon="6.583021661364274"><ele>1184.0</ele><time>2026-04-18T09:57:30Z</time></trkpt><trkpt lat="44.84780873816093" lon="6.583055825497463"><ele>1184.0</ele><time>2026-04-18T09:57:31Z</time></trkpt><trkpt lat="44.84764565655149" lon="6.583102239515766"><ele>1184.0</ele><time>2026-04-18T09:57:32Z</time></trkpt><trkpt lat="44.84749183549928" lon="6.5831191760551535"><ele>1179.0</ele><time>2026-04-18T09:57:33Z</time></trkpt><trkpt lat="44.84732732802822" lon="6.583152043284515"><ele>1174.0</ele><time>2026-04-18T09:57:34Z</time></trkpt><trkpt lat="44.84719207751714" lon="6.583153089747295"><ele>1169.0</ele><time>2026-04-18T09:57:35Z</time></trkpt><trkpt lat="44.84703614928103" lon="6.5831793167678025"><ele>1169.0</ele><time>2026-04-18T09:57:36Z</time></trkpt><trkpt lat="44.84687837622236" lon="6.583190451755259"><ele>1169.0</ele><time>2026-04-18T09:57:37Z</time></trkpt><trkpt lat="44.846715243892284" lon="6.583223260043143"><ele>1169.0</ele><time>2026-04-18T09:57:38Z</time></trkpt><trkpt lat="44.84655807427228" lon="6.583266011578823"><ele>1165.6666666666667</ele><time>2026-04-18T09:57:39Z</time></trkpt><trkpt lat="44.846390682174146" lon="6.583273807657133"><ele>1162.3333333333333</ele><time>2026-04-18T09:57:40Z</time></trkpt><trkpt lat="44.84623251909983" lon="6.583273381812033"><ele>1159.0</ele><time>2026-04-18T09:57:41Z</time></trkpt><trkpt lat="44.8460690054505" lon="6.583275917846017"><ele>1156.6666666666665</ele><time>2026-04-18T09:57:42Z</time></trkpt><trkpt lat="44.84591000873004" lon="6.583276484484859"><ele>1154.3333333333333</ele><time>2026-04-18T09:57:43Z</time></trkpt><trkpt lat="44.8457497792518" lon="6.5832505486178485"><ele>1152.0</ele><time>2026-04-18T09:57:44Z</time></trkpt><trkpt lat="44.8455892721358" lon="6.583199287778196"><ele>1152.0</ele><time>2026-04-18T09:57:45Z</time></trkpt><trkpt lat="44.84542499357387" lon="6.583141606081844"><ele>1152.0</ele><time>2026-04-18T09:57:46Z</time></trkpt><trkpt lat="44.845273148095046" lon="6.583068404426503"><ele>1152.0</ele><time>2026-04-18T09:57:47Z</time></trkpt><trkpt lat="44.84512548171391" lon="6.582996924171597"><ele>1151.6666666666667</ele><time>2026-04-18T09:57:48Z</time></trkpt><trkpt lat="44.844974981770804" lon="6.582924239305919"><ele>1151.3333333333335</ele><time>2026-04-18T09:57:49Z</time></trkpt><trkpt lat="44.844812162440185" lon="6.582838441838262"><ele>1151.0</ele><time>2026-04-18T09:57:50Z</time></trkpt><trkpt lat="44.84464568630674" lon="6.582752335522729"><ele>1151.6666666666667</ele><time>2026-04-18T09:57:51Z</time></trkpt><trkpt lat="44.84448829188493" lon="6.582685184637212"><ele>1152.3333333333333</ele><time>2026-04-18T09:57:52Z</time></trkpt><trkpt lat="44.844318573081495" lon="6.582597267191391"><ele>1153.0</ele><time>2026-04-18T09:57:53Z</time></trkpt><trkpt lat="44.84415234147118" lon="6.582540940313054"><ele>1153.0</ele><time>2026-04-18T09:57:54Z</time></trkpt><trkpt lat="44.84396509639724" lon="6.582512227328309"><ele>1153.0</ele><time>2026-04-18T09:57:55Z</time></trkpt><trkpt lat="44.84379376436371" lon="6.582477145571055"><ele>1153.0</ele><time>2026-04-18T09:57:56Z</time></trkpt><trkpt lat="44.84359812241351" lon="6.582492641121205"><ele>1153.0</ele><time>2026-04-18T09:57:57Z</time></trkpt><trkpt lat="44.84341412970654" lon="6.582501518827926"><ele>1153.0</ele><time>2026-04-18T09:57:58Z</time></trkpt><trkpt lat="44.84326099153485" lon="6.582551658472062"><ele>1153.0</ele><time>2026-04-18T09:57:59Z</time></trkpt><trkpt lat="44.843095879594756" lon="6.582601798869743"><ele>1153.0</ele><time>2026-04-18T09:58:00Z</time></trkpt><trkpt lat="44.84293224242634" lon="6.582671270401854"><ele>1153.0</ele><time>2026-04-18T09:58:01Z</time></trkpt><trkpt lat="44.84276296207496" lon="6.582757458574506"><ele>1153.0</ele><time>2026-04-18T09:58:02Z</time></trkpt><trkpt lat="44.84260088155378" lon="6.582887841870038"><ele>1153.0</ele><time>2026-04-18T09:58:03Z</time></trkpt><trkpt lat="44.84243032381815" lon="6.583024269985625"><ele>1153.0</ele><time>2026-04-18T09:58:04Z</time></trkpt><trkpt lat="44.84225940166423" lon="6.583185056233756"><ele>1153.0</ele><time>2026-04-18T09:58:05Z</time></trkpt><trkpt lat="44.84204690251136" lon="6.583358497890749"><ele>1153.0</ele><time>2026-04-18T09:58:06Z</time></trkpt><trkpt lat="44.84184603448017" lon="6.583556337760713"><ele>1153.0</ele><time>2026-04-18T09:58:07Z</time></trkpt><trkpt lat="44.84163387597148" lon="6.58372990781022"><ele>1156.0</ele><time>2026-04-18T09:58:08Z</time></trkpt><trkpt lat="44.84142019521405" lon="6.583847177506488"><ele>1159.0</ele><time>2026-04-18T09:58:09Z</time></trkpt><trkpt lat="44.841214655778586" lon="6.58394076462577"><ele>1162.0</ele><time>2026-04-18T09:58:10Z</time></trkpt><trkpt lat="44.84098614151866" lon="6.584042992080671"><ele>1154.0</ele><time>2026-04-18T09:58:11Z</time></trkpt><trkpt lat="44.84076262760519" lon="6.58411482733332"><ele>1146.0</ele><time>2026-04-18T09:58:12Z</time></trkpt><trkpt lat="44.84054798664178" lon="6.584187732792921"><ele>1146.0</ele><time>2026-04-18T09:58:13Z</time></trkpt><trkpt lat="44.84031511633618" lon="6.584237112263493"><ele>1146.0</ele><time>2026-04-18T09:58:14Z</time></trkpt><trkpt lat="44.840053132228874" lon="6.584276346556691"><ele>1144.0</ele><time>2026-04-18T09:58:15Z</time></trkpt><trkpt lat="44.83979429482817" lon="6.584290835023733"><ele>1142.0</ele><time>2026-04-18T09:58:16Z</time></trkpt><trkpt lat="44.839532556225315" lon="6.584286886869213"><ele>1141.5</ele><time>2026-04-18T09:58:17Z</time></trkpt><trkpt lat="44.83925462815213" lon="6.584267275856523"><ele>1141.0</ele><time>2026-04-18T09:58:18Z</time></trkpt><trkpt lat="44.83898608526446" lon="6.584245646849698"><ele>1141.0</ele><time>2026-04-18T09:58:19Z</time></trkpt><trkpt lat="44.83870164461227" lon="6.584224472692475"><ele>1141.0</ele><time>2026-04-18T09:58:20Z</time></trkpt><trkpt lat="44.838422935896176" lon="6.584220805503215"><ele>1142.5</ele><time>2026-04-18T09:58:21Z</time></trkpt><trkpt lat="44.838141037529546" lon="6.584246591275835"><ele>1144.0</ele><time>2026-04-18T09:58:22Z</time></trkpt><trkpt lat="44.83785196758832" lon="6.584266744212072"><ele>1148.5</ele><time>2026-04-18T09:58:23Z</time></trkpt><trkpt lat="44.83756264720923" lon="6.584265576777645"><ele>1153.0</ele><time>2026-04-18T09:58:24Z</time></trkpt><trkpt lat="44.83729192088939" lon="6.584284298084751"><ele>1153.0</ele><time>2026-04-18T09:58:25Z</time></trkpt><trkpt lat="44.837027655106056" lon="6.584320202166123"><ele>1153.0</ele><time>2026-04-18T09:58:26Z</time></trkpt><trkpt lat="44.83677022591864" lon="6.584332326472074"><ele>1156.0</ele><time>2026-04-18T09:58:27Z</time></trkpt><trkpt lat="44.83652440299456" lon="6.584347141313409"><ele>1159.0</ele><time>2026-04-18T09:58:28Z</time></trkpt><trkpt lat="44.83628378611636" lon="6.584314846992113"><ele>1159.0</ele><time>2026-04-18T09:58:29Z</time></trkpt><trkpt lat="44.836048115819416" lon="6.584311293471102"><ele>1159.0</ele><time>2026-04-18T09:58:30Z</time></trkpt><trkpt lat="44.83581135348143" lon="6.584255373421893"><ele>1165.0</ele><time>2026-04-18T09:58:31Z</time></trkpt><trkpt lat="44.83557941928908" lon="6.584169664824558"><ele>1171.0</ele><time>2026-04-18T09:58:32Z</time></trkpt><trkpt lat="44.835325111227256" lon="6.584076352412161"><ele>1176.0</ele><time>2026-04-18T09:58:33Z</time></trkpt><trkpt lat="44.83508181770232" lon="6.5839773337123555"><ele>1181.0</ele><time>2026-04-18T09:58:34Z</time></trkpt><trkpt lat="44.83484787085528" lon="6.583880943538927"><ele>1181.0</ele><time>2026-04-18T09:58:35Z</time></trkpt><trkpt lat="44.83461803914185" lon="6.58378624883266"><ele>1181.0</ele><time>2026-04-18T09:58:36Z</time></trkpt><trkpt lat="44.8343851587408" lon="6.583690298037944"><ele>1177.0</ele><time>2026-04-18T09:58:37Z</time></trkpt><trkpt lat="44.83416125344527" lon="6.583598045153134"><ele>1173.0</ele><time>2026-04-18T09:58:38Z</time></trkpt><trkpt lat="44.833943146590606" lon="6.583508124068347"><ele>1173.0</ele><time>2026-04-18T09:58:39Z</time></trkpt><trkpt lat="44.833730404155155" lon="6.5834195385329215"><ele>1173.0</ele><time>2026-04-18T09:58:40Z</time></trkpt><trkpt lat="44.833518821634456" lon="6.583334406792941"><ele>1173.0</ele><time>2026-04-18T09:58:41Z</time></trkpt><trkpt lat="44.833301403522874" lon="6.583260770301122"><ele>1175.6666666666667</ele><time>2026-04-18T09:58:42Z</time></trkpt><trkpt lat="44.83308725824585" lon="6.583203057880483"><ele>1178.3333333333335</ele><time>2026-04-18T09:58:43Z</time></trkpt><trkpt lat="44.832879810014106" lon="6.583163251812283"><ele>1181.0</ele><time>2026-04-18T09:58:44Z</time></trkpt><trkpt lat="44.832679205245775" lon="6.583137044186402"><ele>1185.0</ele><time>2026-04-18T09:58:45Z</time></trkpt><trkpt lat="44.83247476689378" lon="6.583127331320245"><ele>1189.0</ele><time>2026-04-18T09:58:46Z</time></trkpt><trkpt lat="44.83226857317531" lon="6.5831257053375545"><ele>1193.0</ele><time>2026-04-18T09:58:47Z</time></trkpt><trkpt lat="44.832068100850115" lon="6.583128523030937"><ele>1193.0</ele><time>2026-04-18T09:58:48Z</time></trkpt><trkpt lat="44.8318563226304" lon="6.583137626454544"><ele>1193.0</ele><time>2026-04-18T09:58:49Z</time></trkpt><trkpt lat="44.83165870233747" lon="6.583142735699659"><ele>1193.0</ele><time>2026-04-18T09:58:50Z</time></trkpt><trkpt lat="44.83145551493753" lon="6.5831477969191825"><ele>1195.6666666666667</ele><time>2026-04-18T09:58:51Z</time></trkpt><trkpt lat="44.83126523528403" lon="6.583153109641311"><ele>1198.3333333333333</ele><time>2026-04-18T09:58:52Z</time></trkpt><trkpt lat="44.83108176619733" lon="6.583148829003972"><ele>1201.0</ele><time>2026-04-18T09:58:53Z</time></trkpt><trkpt lat="44.83091439616181" lon="6.583128610775487"><ele>1203.0</ele><time>2026-04-18T09:58:54Z</time></trkpt><trkpt lat="44.83077385394963" lon="6.5830788724990095"><ele>1205.0</ele><time>2026-04-18T09:58:55Z</time></trkpt><trkpt lat="44.830636576801936" lon="6.583006264721038"><ele>1207.0</ele><time>2026-04-18T09:58:56Z</time></trkpt><trkpt lat="44.83051353120178" lon="6.582907983721466"><ele>1209.0</ele><time>2026-04-18T09:58:57Z</time></trkpt><trkpt lat="44.83039205709094" lon="6.582780940943528"><ele>1208.0</ele><time>2026-04-18T09:58:58Z</time></trkpt><trkpt lat="44.830283987988686" lon="6.582632634531224"><ele>1207.0</ele><time>2026-04-18T09:58:59Z</time></trkpt><trkpt lat="44.830194190874515" lon="6.582452710371309"><ele>1206.0</ele><time>2026-04-18T09:59:00Z</time></trkpt><trkpt lat="44.83009566025511" lon="6.582225107407226"><ele>1207.0</ele><time>2026-04-18T09:59:01Z</time></trkpt><trkpt lat="44.83005152019289" lon="6.581998508787527"><ele>1208.0</ele><time>2026-04-18T09:59:02Z</time></trkpt><trkpt lat="44.82999741016194" lon="6.581767929962448"><ele>1209.0</ele><time>2026-04-18T09:59:03Z</time></trkpt><trkpt lat="44.82993941355446" lon="6.581536127059941"><ele>1209.0</ele><time>2026-04-18T09:59:04Z</time></trkpt><trkpt lat="44.82986576748902" lon="6.581320941744517"><ele>1209.0</ele><time>2026-04-18T09:59:05Z</time></trkpt><trkpt lat="44.82977307594666" lon="6.581127431313583"><ele>1209.0</ele><time>2026-04-18T09:59:06Z</time></trkpt><trkpt lat="44.82965468648697" lon="6.580944718327801"><ele>1210.6666666666667</ele><time>2026-04-18T09:59:07Z</time></trkpt><trkpt lat="44.82956298044058" lon="6.580822217936038"><ele>1212.3333333333335</ele><time>2026-04-18T09:59:08Z</time></trkpt><trkpt lat="44.82943292139055" lon="6.580683375800852"><ele>1214.0</ele><time>2026-04-18T09:59:09Z</time></trkpt><trkpt lat="44.82929479475714" lon="6.5805615688071395"><ele>1214.0</ele><time>2026-04-18T09:59:10Z</time></trkpt><trkpt lat="44.82913228979669" lon="6.580458572291066"><ele>1214.0</ele><time>2026-04-18T09:59:11Z</time></trkpt><trkpt lat="44.82892852112478" lon="6.5803601034828105"><ele>1214.0</ele><time>2026-04-18T09:59:12Z</time></trkpt><trkpt lat="44.82869493019989" lon="6.5802641782679085"><ele>1214.5</ele><time>2026-04-18T09:59:13Z</time></trkpt><trkpt lat="44.8284538567876" lon="6.580195771867796"><ele>1215.0</ele><time>2026-04-18T09:59:14Z</time></trkpt><trkpt lat="44.8282285911248" lon="6.580121657393311"><ele>1215.0</ele><time>2026-04-18T09:59:15Z</time></trkpt><trkpt lat="44.82802812839945" lon="6.5800393167328615"><ele>1215.0</ele><time>2026-04-18T09:59:16Z</time></trkpt><trkpt lat="44.82783684551362" lon="6.57994677459831"><ele>1215.0</ele><time>2026-04-18T09:59:17Z</time></trkpt><trkpt lat="44.82765101398081" lon="6.57985711358663"><ele>1217.3333333333333</ele><time>2026-04-18T09:59:18Z</time></trkpt><trkpt lat="44.827475380589874" lon="6.579777042747895"><ele>1219.6666666666665</ele><time>2026-04-18T09:59:19Z</time></trkpt><trkpt lat="44.827312591839224" lon="6.579698278474232"><ele>1222.0</ele><time>2026-04-18T09:59:20Z</time></trkpt><trkpt lat="44.82714049732837" lon="6.579636685147903"><ele>1222.0</ele><time>2026-04-18T09:59:21Z</time></trkpt><trkpt lat="44.82698724126714" lon="6.579650744667214"><ele>1222.0</ele><time>2026-04-18T09:59:22Z</time></trkpt><trkpt lat="44.82681854032916" lon="6.579640268312637"><ele>1222.0</ele><time>2026-04-18T09:59:23Z</time></trkpt><trkpt lat="44.82662332393258" lon="6.579724769383804"><ele>1223.6666666666665</ele><time>2026-04-18T09:59:24Z</time></trkpt><trkpt lat="44.82642755222542" lon="6.579791893378603"><ele>1225.3333333333333</ele><time>2026-04-18T09:59:25Z</time></trkpt><trkpt lat="44.826240948656746" lon="6.579827239087669"><ele>1227.0</ele><time>2026-04-18T09:59:26Z</time></trkpt><trkpt lat="44.826064396004774" lon="6.57987003499848"><ele>1226.6666666666667</ele><time>2026-04-18T09:59:27Z</time></trkpt><trkpt lat="44.825897636431755" lon="6.579918136834692"><ele>1226.3333333333335</ele><time>2026-04-18T09:59:28Z</time></trkpt><trkpt lat="44.82574131457511" lon="6.579944289780987"><ele>1226.0</ele><time>2026-04-18T09:59:29Z</time></trkpt><trkpt lat="44.82558739236068" lon="6.579979452906581"><ele>1226.0</ele><time>2026-04-18T09:59:30Z</time></trkpt><trkpt lat="44.825441905885974" lon="6.580012496990546"><ele>1226.0</ele><time>2026-04-18T09:59:31Z</time></trkpt><trkpt lat="44.825297911978474" lon="6.580031695786691"><ele>1226.0</ele><time>2026-04-18T09:59:32Z</time></trkpt><trkpt lat="44.82516047813543" lon="6.580043571140411"><ele>1226.0</ele><time>2026-04-18T09:59:33Z</time></trkpt><trkpt lat="44.8250285468983" lon="6.580044343964241"><ele>1226.25</ele><time>2026-04-18T09:59:34Z</time></trkpt><trkpt lat="44.824897117190076" lon="6.580009808254702"><ele>1226.5</ele><time>2026-04-18T09:59:35Z</time></trkpt><trkpt lat="44.824773794548314" lon="6.579954797696715"><ele>1226.75</ele><time>2026-04-18T09:59:36Z</time></trkpt><trkpt lat="44.82464409831571" lon="6.579893574807536"><ele>1227.0</ele><time>2026-04-18T09:59:37Z</time></trkpt><trkpt lat="44.824506717871" lon="6.579818951256663"><ele>1227.0</ele><time>2026-04-18T09:59:38Z</time></trkpt><trkpt lat="44.824371912196696" lon="6.57974466383027"><ele>1227.0</ele><time>2026-04-18T09:59:39Z</time></trkpt><trkpt lat="44.82423855290861" lon="6.579671173433659"><ele>1227.0</ele><time>2026-04-18T09:59:40Z</time></trkpt><trkpt lat="44.824107434396275" lon="6.579599004489323"><ele>1227.0</ele><time>2026-04-18T09:59:41Z</time></trkpt><trkpt lat="44.8239670882396" lon="6.579545357622691"><ele>1226.25</ele><time>2026-04-18T09:59:42Z</time></trkpt><trkpt lat="44.82383969313123" lon="6.579471955803989"><ele>1225.5</ele><time>2026-04-18T09:59:43Z</time></trkpt><trkpt lat="44.823711474232596" lon="6.57939983371556"><ele>1224.75</ele><time>2026-04-18T09:59:44Z</time></trkpt><trkpt lat="44.82359141441102" lon="6.579330494880222"><ele>1224.0</ele><time>2026-04-18T09:59:45Z</time></trkpt><trkpt lat="44.82347121347503" lon="6.579265593560693"><ele>1224.0</ele><time>2026-04-18T09:59:46Z</time></trkpt><trkpt lat="44.82336377399695" lon="6.579207495898281"><ele>1224.0</ele><time>2026-04-18T09:59:47Z</time></trkpt><trkpt lat="44.82325547092699" lon="6.579142435264922"><ele>1224.0</ele><time>2026-04-18T09:59:48Z</time></trkpt><trkpt lat="44.823140265547494" lon="6.5790197281548695"><ele>1224.0</ele><time>2026-04-18T09:59:49Z</time></trkpt><trkpt lat="44.823039629330694" lon="6.5789612675611115"><ele>1224.0</ele><time>2026-04-18T09:59:50Z</time></trkpt><trkpt lat="44.822923583618035" lon="6.5788946902411904"><ele>1224.0</ele><time>2026-04-18T09:59:51Z</time></trkpt><trkpt lat="44.82280540410979" lon="6.578855576753499"><ele>1224.0</ele><time>2026-04-18T09:59:52Z</time></trkpt><trkpt lat="44.82268293043682" lon="6.578814463101766"><ele>1224.0</ele><time>2026-04-18T09:59:53Z</time></trkpt><trkpt lat="44.82255999558414" lon="6.578783083882608"><ele>1223.0</ele><time>2026-04-18T09:59:54Z</time></trkpt><trkpt lat="44.82241113994138" lon="6.578843002282979"><ele>1222.0</ele><time>2026-04-18T09:59:55Z</time></trkpt><trkpt lat="44.82225592344906" lon="6.578847508646513"><ele>1221.0</ele><time>2026-04-18T09:59:56Z</time></trkpt><trkpt lat="44.82209224704637" lon="6.578862554746337"><ele>1221.0</ele><time>2026-04-18T09:59:57Z</time></trkpt><trkpt lat="44.82193908153269" lon="6.578856067825809"><ele>1221.0</ele><time>2026-04-18T09:59:58Z</time></trkpt><trkpt lat="44.82179147988932" lon="6.578855926218286"><ele>1221.0</ele><time>2026-04-18T09:59:59Z</time></trkpt><trkpt lat="44.82162778802347" lon="6.578866072851026"><ele>1220.3333333333333</ele><time>2026-04-18T10:00:00Z</time></trkpt><trkpt lat="44.821472406695854" lon="6.578897594464178"><ele>1219.6666666666665</ele><time>2026-04-18T10:00:01Z</time></trkpt><trkpt lat="44.82131203310344" lon="6.578904975674172"><ele>1219.0</ele><time>2026-04-18T10:00:02Z</time></trkpt><trkpt lat="44.821128704906464" lon="6.578882884500296"><ele>1220.6666666666665</ele><time>2026-04-18T10:00:03Z</time></trkpt><trkpt lat="44.82094303197341" lon="6.578834558242712"><ele>1222.3333333333333</ele><time>2026-04-18T10:00:04Z</time></trkpt><trkpt lat="44.82076757145308" lon="6.578834925043442"><ele>1224.0</ele><time>2026-04-18T10:00:05Z</time></trkpt><trkpt lat="44.82059320716834" lon="6.578858662287941"><ele>1224.0</ele><time>2026-04-18T10:00:06Z</time></trkpt><trkpt lat="44.82043729135456" lon="6.578878092335496"><ele>1224.0</ele><time>2026-04-18T10:00:07Z</time></trkpt><trkpt lat="44.82029761875122" lon="6.578867496390533"><ele>1224.0</ele><time>2026-04-18T10:00:08Z</time></trkpt><trkpt lat="44.82016706778201" lon="6.578820041232515"><ele>1224.0</ele><time>2026-04-18T10:00:09Z</time></trkpt><trkpt lat="44.82006572954806" lon="6.578725272272627"><ele>1217.6666666666667</ele><time>2026-04-18T10:00:10Z</time></trkpt><trkpt lat="44.819928056467404" lon="6.578610313928935"><ele>1211.3333333333335</ele><time>2026-04-18T10:00:11Z</time></trkpt><trkpt lat="44.819802226924125" lon="6.578520888035777"><ele>1205.0</ele><time>2026-04-18T10:00:12Z</time></trkpt><trkpt lat="44.81964748813696" lon="6.578446465125382"><ele>1205.0</ele><time>2026-04-18T10:00:13Z</time></trkpt><trkpt lat="44.819480105535085" lon="6.578412873548575"><ele>1205.0</ele><time>2026-04-18T10:00:14Z</time></trkpt><trkpt lat="44.81932508841733" lon="6.578394388177692"><ele>1205.0</ele><time>2026-04-18T10:00:15Z</time></trkpt><trkpt lat="44.81918460031164" lon="6.57837488528708"><ele>1207.25</ele><time>2026-04-18T10:00:16Z</time></trkpt><trkpt lat="44.81906858637033" lon="6.578319953453121"><ele>1209.5</ele><time>2026-04-18T10:00:17Z</time></trkpt><trkpt lat="44.818946558422596" lon="6.578232043108207"><ele>1211.75</ele><time>2026-04-18T10:00:18Z</time></trkpt><trkpt lat="44.8188064482717" lon="6.578108811271113"><ele>1214.0</ele><time>2026-04-18T10:00:19Z</time></trkpt><trkpt lat="44.81865765539029" lon="6.577963790928489"><ele>1205.6666666666667</ele><time>2026-04-18T10:00:20Z</time></trkpt><trkpt lat="44.81851804774613" lon="6.577845916192675"><ele>1197.3333333333333</ele><time>2026-04-18T10:00:21Z</time></trkpt><trkpt lat="44.81836962296646" lon="6.5777554921303665"><ele>1189.0</ele><time>2026-04-18T10:00:22Z</time></trkpt><trkpt lat="44.818205792627396" lon="6.577702811202994"><ele>1189.0</ele><time>2026-04-18T10:00:23Z</time></trkpt><trkpt lat="44.81805925159731" lon="6.5776322347957015"><ele>1189.0</ele><time>2026-04-18T10:00:24Z</time></trkpt><trkpt lat="44.8178987175061" lon="6.577593273675288"><ele>1189.0</ele><time>2026-04-18T10:00:25Z</time></trkpt><trkpt lat="44.817748240003226" lon="6.577568966009207"><ele>1194.6666666666665</ele><time>2026-04-18T10:00:26Z</time></trkpt><trkpt lat="44.81760536874978" lon="6.577505581859487"><ele>1200.3333333333333</ele><time>2026-04-18T10:00:27Z</time></trkpt><trkpt lat="44.817446577983006" lon="6.577434856515469"><ele>1206.0</ele><time>2026-04-18T10:00:28Z</time></trkpt><trkpt lat="44.8172923578646" lon="6.577374026963223"><ele>1206.0</ele><time>2026-04-18T10:00:29Z</time></trkpt><trkpt lat="44.81711608052718" lon="6.577313603729439"><ele>1206.0</ele><time>2026-04-18T10:00:30Z</time></trkpt><trkpt lat="44.81694683153423" lon="6.577271756234311"><ele>1206.0</ele><time>2026-04-18T10:00:31Z</time></trkpt><trkpt lat="44.81678300457143" lon="6.577252768929947"><ele>1211.6666666666667</ele><time>2026-04-18T10:00:32Z</time></trkpt><trkpt lat="44.816636368505606" lon="6.577233792629136"><ele>1217.3333333333335</ele><time>2026-04-18T10:00:33Z</time></trkpt><trkpt lat="44.81648140088755" lon="6.577186739214549"><ele>1223.0</ele><time>2026-04-18T10:00:34Z</time></trkpt><trkpt lat="44.8163404672295" lon="6.577144829288475"><ele>1223.0</ele><time>2026-04-18T10:00:35Z</time></trkpt><trkpt lat="44.81620754478813" lon="6.577118429421051"><ele>1223.0</ele><time>2026-04-18T10:00:36Z</time></trkpt><trkpt lat="44.81606239186956" lon="6.57709989091864"><ele>1223.0</ele><time>2026-04-18T10:00:37Z</time></trkpt><trkpt lat="44.81591123306579" lon="6.577095021514497"><ele>1223.0</ele><time>2026-04-18T10:00:38Z</time></trkpt><trkpt lat="44.815763783059055" lon="6.57708619578897"><ele>1225.6666666666667</ele><time>2026-04-18T10:00:39Z</time></trkpt><trkpt lat="44.81560336281315" lon="6.577053461509414"><ele>1228.3333333333333</ele><time>2026-04-18T10:00:40Z</time></trkpt><trkpt lat="44.815448117791334" lon="6.577016676409864"><ele>1231.0</ele><time>2026-04-18T10:00:41Z</time></trkpt><trkpt lat="44.815274190774424" lon="6.576976734663093"><ele>1225.75</ele><time>2026-04-18T10:00:42Z</time></trkpt><trkpt lat="44.81512932806034" lon="6.57693917790272"><ele>1220.5</ele><time>2026-04-18T10:00:43Z</time></trkpt><trkpt lat="44.815005491976564" lon="6.576893446183937"><ele>1215.25</ele><time>2026-04-18T10:00:44Z</time></trkpt><trkpt lat="44.81490780354191" lon="6.576821556973245"><ele>1210.0</ele><time>2026-04-18T10:00:45Z</time></trkpt><trkpt lat="44.81482527400076" lon="6.576726167524543"><ele>1210.0</ele><time>2026-04-18T10:00:46Z</time></trkpt><trkpt lat="44.81475649088438" lon="6.576584733208135"><ele>1210.0</ele><time>2026-04-18T10:00:47Z</time></trkpt><trkpt lat="44.8146656901673" lon="6.576418277874353"><ele>1210.0</ele><time>2026-04-18T10:00:48Z</time></trkpt><trkpt lat="44.81456655522986" lon="6.576236544409536"><ele>1210.0</ele><time>2026-04-18T10:00:49Z</time></trkpt><trkpt lat="44.81447295961939" lon="6.576065193629602"><ele>1210.3333333333333</ele><time>2026-04-18T10:00:50Z</time></trkpt><trkpt lat="44.81436773899314" lon="6.5758815200453995"><ele>1210.6666666666667</ele><time>2026-04-18T10:00:51Z</time></trkpt><trkpt lat="44.81426039551313" lon="6.575738040084789"><ele>1211.0</ele><time>2026-04-18T10:00:52Z</time></trkpt><trkpt lat="44.814142812557584" lon="6.575628477919362"><ele>1211.0</ele><time>2026-04-18T10:00:53Z</time></trkpt><trkpt lat="44.81404400369787" lon="6.5755384761474485"><ele>1211.0</ele><time>2026-04-18T10:00:54Z</time></trkpt><trkpt lat="44.813932826227784" lon="6.5754878827341185"><ele>1211.0</ele><time>2026-04-18T10:00:55Z</time></trkpt><trkpt lat="44.81378901410032" lon="6.575424464856036"><ele>1211.0</ele><time>2026-04-18T10:00:56Z</time></trkpt><trkpt lat="44.81362962299235" lon="6.575432358268233"><ele>1214.0</ele><time>2026-04-18T10:00:57Z</time></trkpt><trkpt lat="44.81344482539866" lon="6.575426526490747"><ele>1217.0</ele><time>2026-04-18T10:00:58Z</time></trkpt><trkpt lat="44.813145589246496" lon="6.575502288378932"><ele>1217.0</ele><time>2026-04-18T10:00:59Z</time></trkpt><trkpt lat="44.81293740435392" lon="6.575484380835054"><ele>1217.0</ele><time>2026-04-18T10:01:00Z</time></trkpt><trkpt lat="44.81276003119241" lon="6.5754403048745615"><ele>1217.0</ele><time>2026-04-18T10:01:01Z</time></trkpt><trkpt lat="44.81257032909711" lon="6.575367860763554"><ele>1209.0</ele><time>2026-04-18T10:01:02Z</time></trkpt><trkpt lat="44.81240359432474" lon="6.575287017072651"><ele>1201.0</ele><time>2026-04-18T10:01:03Z</time></trkpt><trkpt lat="44.812249114291006" lon="6.575178109903554"><ele>1193.0</ele><time>2026-04-18T10:01:04Z</time></trkpt><trkpt lat="44.8121057839867" lon="6.575042488439588"><ele>1193.0</ele><time>2026-04-18T10:01:05Z</time></trkpt><trkpt lat="44.81197692179352" lon="6.574886531256214"><ele>1193.0</ele><time>2026-04-18T10:01:06Z</time></trkpt><trkpt lat="44.81186546792892" lon="6.574723579167174"><ele>1193.0</ele><time>2026-04-18T10:01:07Z</time></trkpt><trkpt lat="44.81175208645523" lon="6.574574669414629"><ele>1190.5</ele><time>2026-04-18T10:01:08Z</time></trkpt><trkpt lat="44.81160661654583" lon="6.574488089009713"><ele>1188.0</ele><time>2026-04-18T10:01:09Z</time></trkpt><trkpt lat="44.811495854289205" lon="6.574413561475334"><ele>1185.5</ele><time>2026-04-18T10:01:10Z</time></trkpt><trkpt lat="44.81137804478646" lon="6.57432618161493"><ele>1183.0</ele><time>2026-04-18T10:01:11Z</time></trkpt><trkpt lat="44.811242242765076" lon="6.574251199494368"><ele>1183.0</ele><time>2026-04-18T10:01:12Z</time></trkpt><trkpt lat="44.81105245249833" lon="6.574226002606134"><ele>1183.0</ele><time>2026-04-18T10:01:13Z</time></trkpt><trkpt lat="44.8108628253967" lon="6.574189609030873"><ele>1183.0</ele><time>2026-04-18T10:01:14Z</time></trkpt><trkpt lat="44.810694022880405" lon="6.574153830865409"><ele>1187.0</ele><time>2026-04-18T10:01:15Z</time></trkpt><trkpt lat="44.81054371767784" lon="6.574088365664941"><ele>1191.0</ele><time>2026-04-18T10:01:16Z</time></trkpt><trkpt lat="44.81038497969618" lon="6.574035780502294"><ele>1195.0</ele><time>2026-04-18T10:01:17Z</time></trkpt><trkpt lat="44.810227963465046" lon="6.573995458079311"><ele>1196.6666666666665</ele><time>2026-04-18T10:01:18Z</time></trkpt><trkpt lat="44.8100652547855" lon="6.573974147082491"><ele>1198.3333333333333</ele><time>2026-04-18T10:01:19Z</time></trkpt><trkpt lat="44.80989426845334" lon="6.5739895652345135"><ele>1200.0</ele><time>2026-04-18T10:01:20Z</time></trkpt><trkpt lat="44.809733702844504" lon="6.573994610162354"><ele>1200.0</ele><time>2026-04-18T10:01:21Z</time></trkpt><trkpt lat="44.809551840176574" lon="6.5740756635820725"><ele>1200.0</ele><time>2026-04-18T10:01:22Z</time></trkpt><trkpt lat="44.809352983214154" lon="6.574144793316584"><ele>1200.0</ele><time>2026-04-18T10:01:23Z</time></trkpt><trkpt lat="44.80918738837986" lon="6.574198431721193"><ele>1199.0</ele><time>2026-04-18T10:01:24Z</time></trkpt><trkpt lat="44.80903333137716" lon="6.574243064187974"><ele>1198.0</ele><time>2026-04-18T10:01:25Z</time></trkpt><trkpt lat="44.80887124164723" lon="6.574260613980135"><ele>1197.0</ele><time>2026-04-18T10:01:26Z</time></trkpt><trkpt lat="44.808729009256176" lon="6.574252735326478"><ele>1197.0</ele><time>2026-04-18T10:01:27Z</time></trkpt><trkpt lat="44.80863383591247" lon="6.574071449171234"><ele>1197.0</ele><time>2026-04-18T10:01:28Z</time></trkpt><trkpt lat="44.808515319445746" lon="6.5739842685086955"><ele>1197.0</ele><time>2026-04-18T10:01:29Z</time></trkpt><trkpt lat="44.80841541621063" lon="6.57386714083355"><ele>1197.0</ele><time>2026-04-18T10:01:30Z</time></trkpt><trkpt lat="44.8083160759534" lon="6.57372848358222"><ele>1192.6666666666667</ele><time>2026-04-18T10:01:31Z</time></trkpt><trkpt lat="44.80821191075941" lon="6.5735552582069845"><ele>1188.3333333333335</ele><time>2026-04-18T10:01:32Z</time></trkpt><trkpt lat="44.808122298979455" lon="6.573370306541969"><ele>1184.0</ele><time>2026-04-18T10:01:33Z</time></trkpt><trkpt lat="44.808031027317874" lon="6.573138132452552"><ele>1184.0</ele><time>2026-04-18T10:01:34Z</time></trkpt><trkpt lat="44.80794230218772" lon="6.572896126805089"><ele>1184.0</ele><time>2026-04-18T10:01:35Z</time></trkpt><trkpt lat="44.80784244814429" lon="6.572627037265278"><ele>1184.0</ele><time>2026-04-18T10:01:36Z</time></trkpt><trkpt lat="44.80774371659009" lon="6.572361118690534"><ele>1184.3333333333335</ele><time>2026-04-18T10:01:37Z</time></trkpt><trkpt lat="44.807650388245165" lon="6.572110431578911"><ele>1184.6666666666667</ele><time>2026-04-18T10:01:38Z</time></trkpt><trkpt lat="44.80754977762636" lon="6.571842792033252"><ele>1185.0</ele><time>2026-04-18T10:01:39Z</time></trkpt><trkpt lat="44.80746266455873" lon="6.571636702150289"><ele>1180.6666666666667</ele><time>2026-04-18T10:01:40Z</time></trkpt><trkpt lat="44.807374475483364" lon="6.57139526090119"><ele>1176.3333333333335</ele><time>2026-04-18T10:01:41Z</time></trkpt><trkpt lat="44.8072874603921" lon="6.5711627255431875"><ele>1172.0</ele><time>2026-04-18T10:01:42Z</time></trkpt><trkpt lat="44.807208243614184" lon="6.570923008028023"><ele>1170.0</ele><time>2026-04-18T10:01:43Z</time></trkpt><trkpt lat="44.80711722992038" lon="6.570680751397167"><ele>1168.0</ele><time>2026-04-18T10:01:44Z</time></trkpt><trkpt lat="44.807026625076986" lon="6.570452514971494"><ele>1166.0</ele><time>2026-04-18T10:01:45Z</time></trkpt><trkpt lat="44.806955795924495" lon="6.570224734228817"><ele>1164.3333333333335</ele><time>2026-04-18T10:01:46Z</time></trkpt><trkpt lat="44.80685782022885" lon="6.5699964287006045"><ele>1162.6666666666667</ele><time>2026-04-18T10:01:47Z</time></trkpt><trkpt lat="44.80676947720648" lon="6.56978396171813"><ele>1161.0</ele><time>2026-04-18T10:01:48Z</time></trkpt><trkpt lat="44.806665460712665" lon="6.569553315300619"><ele>1160.3333333333333</ele><time>2026-04-18T10:01:49Z</time></trkpt><trkpt lat="44.806544807229514" lon="6.569321278969194"><ele>1159.6666666666665</ele><time>2026-04-18T10:01:50Z</time></trkpt><trkpt lat="44.806424080418445" lon="6.569109799798212"><ele>1159.0</ele><time>2026-04-18T10:01:51Z</time></trkpt><trkpt lat="44.80629928399707" lon="6.568878163033257"><ele>1158.3333333333333</ele><time>2026-04-18T10:01:52Z</time></trkpt><trkpt lat="44.806169248248395" lon="6.568659004241727"><ele>1157.6666666666667</ele><time>2026-04-18T10:01:53Z</time></trkpt><trkpt lat="44.806044825847245" lon="6.568474432347775"><ele>1157.0</ele><time>2026-04-18T10:01:54Z</time></trkpt><trkpt lat="44.80592299043528" lon="6.568316490617142"><ele>1154.6666666666667</ele><time>2026-04-18T10:01:55Z</time></trkpt><trkpt lat="44.80578948514659" lon="6.568129012928732"><ele>1152.3333333333333</ele><time>2026-04-18T10:01:56Z</time></trkpt><trkpt lat="44.805663036544196" lon="6.567964702645251"><ele>1150.0</ele><time>2026-04-18T10:01:57Z</time></trkpt><trkpt lat="44.80554655101815" lon="6.567844095928908"><ele>1147.75</ele><time>2026-04-18T10:01:58Z</time></trkpt><trkpt lat="44.80542036780837" lon="6.567751475106688"><ele>1145.5</ele><time>2026-04-18T10:01:59Z</time></trkpt><trkpt lat="44.80525848833373" lon="6.567761449617328"><ele>1143.25</ele><time>2026-04-18T10:02:00Z</time></trkpt><trkpt lat="44.80512277942655" lon="6.567705145405081"><ele>1141.0</ele><time>2026-04-18T10:02:01Z</time></trkpt><trkpt lat="44.804967271976054" lon="6.5676806306716475"><ele>1139.6666666666665</ele><time>2026-04-18T10:02:02Z</time></trkpt><trkpt lat="44.80481397473188" lon="6.5676718076701"><ele>1138.3333333333333</ele><time>2026-04-18T10:02:03Z</time></trkpt><trkpt lat="44.80465174971647" lon="6.567699736835155"><ele>1137.0</ele><time>2026-04-18T10:02:04Z</time></trkpt><trkpt lat="44.8045126550858" lon="6.567695800826605"><ele>1137.0</ele><time>2026-04-18T10:02:05Z</time></trkpt><trkpt lat="44.804372056087956" lon="6.567708197399754"><ele>1137.0</ele><time>2026-04-18T10:02:06Z</time></trkpt><trkpt lat="44.80421656019786" lon="6.567774804005195"><ele>1137.0</ele><time>2026-04-18T10:02:07Z</time></trkpt><trkpt lat="44.804077350365944" lon="6.56782241727957"><ele>1137.0</ele><time>2026-04-18T10:02:08Z</time></trkpt><trkpt lat="44.8039484319332" lon="6.567880328553086"><ele>1138.75</ele><time>2026-04-18T10:02:09Z</time></trkpt><trkpt lat="44.80381478988964" lon="6.567968130779747"><ele>1140.5</ele><time>2026-04-18T10:02:10Z</time></trkpt><trkpt lat="44.803703889465005" lon="6.5680534710663325"><ele>1142.25</ele><time>2026-04-18T10:02:11Z</time></trkpt><trkpt lat="44.80360238579706" lon="6.568136700876519"><ele>1144.0</ele><time>2026-04-18T10:02:12Z</time></trkpt><trkpt lat="44.80353169881811" lon="6.568205022567879"><ele>1142.0</ele><time>2026-04-18T10:02:13Z</time></trkpt><trkpt lat="44.80341572749608" lon="6.568186081133618"><ele>1140.0</ele><time>2026-04-18T10:02:15Z</time></trkpt><trkpt lat="44.80337067339352" lon="6.5681058259456355"><ele>1138.0</ele><time>2026-04-18T10:02:16Z</time></trkpt><trkpt lat="44.80337073473097" lon="6.567982251748618"><ele>1136.0</ele><time>2026-04-18T10:02:17Z</time></trkpt><trkpt lat="44.80340374609391" lon="6.567857297790802"><ele>1134.0</ele><time>2026-04-18T10:02:18Z</time></trkpt><trkpt lat="44.8034590042174" lon="6.567783328987695"><ele>1132.0</ele><time>2026-04-18T10:02:19Z</time></trkpt><trkpt lat="44.80354516081772" lon="6.5677039098022325"><ele>1130.75</ele><time>2026-04-18T10:02:20Z</time></trkpt><trkpt lat="44.803632500967005" lon="6.5677049458143495"><ele>1129.5</ele><time>2026-04-18T10:02:21Z</time></trkpt><trkpt lat="44.80372536795905" lon="6.567661866771554"><ele>1128.25</ele><time>2026-04-18T10:02:22Z</time></trkpt><trkpt lat="44.80382367093154" lon="6.567646740520063"><ele>1127.0</ele><time>2026-04-18T10:02:23Z</time></trkpt><trkpt lat="44.80401124280532" lon="6.567711545812602"><ele>1127.0</ele><time>2026-04-18T10:02:24Z</time></trkpt><trkpt lat="44.80413728608904" lon="6.567695208128269"><ele>1127.0</ele><time>2026-04-18T10:02:25Z</time></trkpt><trkpt lat="44.80433682620594" lon="6.567629848640921"><ele>1127.0</ele><time>2026-04-18T10:02:26Z</time></trkpt><trkpt lat="44.80453170805892" lon="6.567573779865269"><ele>1130.3333333333335</ele><time>2026-04-18T10:02:27Z</time></trkpt><trkpt lat="44.80472771637872" lon="6.567495707862311"><ele>1133.6666666666667</ele><time>2026-04-18T10:02:28Z</time></trkpt><trkpt lat="44.80488224588881" lon="6.56746143920881"><ele>1137.0</ele><time>2026-04-18T10:02:29Z</time></trkpt><trkpt lat="44.80503297182718" lon="6.567436884328038"><ele>1138.3333333333333</ele><time>2026-04-18T10:02:30Z</time></trkpt><trkpt lat="44.80518341857846" lon="6.567405860301949"><ele>1139.6666666666665</ele><time>2026-04-18T10:02:31Z</time></trkpt><trkpt lat="44.80533205123136" lon="6.567374038555022"><ele>1141.0</ele><time>2026-04-18T10:02:32Z</time></trkpt><trkpt lat="44.8053562957022" lon="6.567092597310729"><ele>1134.3333333333333</ele><time>2026-04-18T10:02:33Z</time></trkpt><trkpt lat="44.805450037651134" lon="6.566933484332827"><ele>1127.6666666666667</ele><time>2026-04-18T10:02:34Z</time></trkpt><trkpt lat="44.80554837746316" lon="6.566767002006525"><ele>1121.0</ele><time>2026-04-18T10:02:35Z</time></trkpt><trkpt lat="44.80565120554224" lon="6.566604716597133"><ele>1121.0</ele><time>2026-04-18T10:02:36Z</time></trkpt><trkpt lat="44.80573866547878" lon="6.566436466715834"><ele>1121.0</ele><time>2026-04-18T10:02:37Z</time></trkpt><trkpt lat="44.80582721824797" lon="6.566329460275245"><ele>1121.0</ele><time>2026-04-18T10:02:38Z</time></trkpt><trkpt lat="44.80594118123338" lon="6.56623364135586"><ele>1121.0</ele><time>2026-04-18T10:02:39Z</time></trkpt><trkpt lat="44.80606179665967" lon="6.566228650569887"><ele>1118.5</ele><time>2026-04-18T10:02:40Z</time></trkpt><trkpt lat="44.80620689697693" lon="6.5662080834626355"><ele>1116.0</ele><time>2026-04-18T10:02:41Z</time></trkpt><trkpt lat="44.8063299359879" lon="6.566192539040994"><ele>1113.5</ele><time>2026-04-18T10:02:42Z</time></trkpt><trkpt lat="44.80645131404816" lon="6.566179845506722"><ele>1111.0</ele><time>2026-04-18T10:02:43Z</time></trkpt><trkpt lat="44.806569228609256" lon="6.5661363386780085"><ele>1111.0</ele><time>2026-04-18T10:02:44Z</time></trkpt><trkpt lat="44.80665695811718" lon="6.566116687688913"><ele>1111.0</ele><time>2026-04-18T10:02:45Z</time></trkpt><trkpt lat="44.806735346161254" lon="6.566125057683885"><ele>1111.0</ele><time>2026-04-18T10:02:46Z</time></trkpt><trkpt lat="44.80682769490395" lon="6.566082399670854"><ele>1111.0</ele><time>2026-04-18T10:02:47Z</time></trkpt><trkpt lat="44.80686174754061" lon="6.566005965520874"><ele>1111.0</ele><time>2026-04-18T10:02:48Z</time></trkpt><trkpt lat="44.806836633745164" lon="6.565840057154312"><ele>1111.0</ele><time>2026-04-18T10:02:50Z</time></trkpt><trkpt lat="44.80681588254345" lon="6.565755907022275"><ele>1111.0</ele><time>2026-04-18T10:02:51Z</time></trkpt><trkpt lat="44.80674198558395" lon="6.565716815996476"><ele>1111.0</ele><time>2026-04-18T10:02:53Z</time></trkpt><trkpt lat="44.80655847936834" lon="6.565631712274623"><ele>1111.0</ele><time>2026-04-18T10:02:55Z</time></trkpt><trkpt lat="44.80634092152557" lon="6.5656867941817865"><ele>1106.0</ele><time>2026-04-18T10:02:56Z</time></trkpt><trkpt lat="44.80596359649994" lon="6.5657026459676056"><ele>1101.0</ele><time>2026-04-18T10:02:57Z</time></trkpt><trkpt lat="44.80577837688779" lon="6.56566073015295"><ele>1101.0</ele><time>2026-04-18T10:02:58Z</time></trkpt><trkpt lat="44.80558815907804" lon="6.5656294353335145"><ele>1101.0</ele><time>2026-04-18T10:02:59Z</time></trkpt><trkpt lat="44.80540982762492" lon="6.565555288605581"><ele>1101.0</ele><time>2026-04-18T10:03:00Z</time></trkpt><trkpt lat="44.805233602259655" lon="6.565471914050561"><ele>1100.3333333333333</ele><time>2026-04-18T10:03:01Z</time></trkpt><trkpt lat="44.805041135041144" lon="6.565414281463358"><ele>1099.6666666666665</ele><time>2026-04-18T10:03:02Z</time></trkpt><trkpt lat="44.80484566940413" lon="6.5653557021278"><ele>1099.0</ele><time>2026-04-18T10:03:03Z</time></trkpt><trkpt lat="44.80464416940816" lon="6.5653428072054"><ele>1092.0</ele><time>2026-04-18T10:03:04Z</time></trkpt><trkpt lat="44.80446233588924" lon="6.565301370912325"><ele>1085.0</ele><time>2026-04-18T10:03:05Z</time></trkpt><trkpt lat="44.80429468934917" lon="6.565277775977734"><ele>1078.0</ele><time>2026-04-18T10:03:06Z</time></trkpt><trkpt lat="44.804121750720505" lon="6.565287914985837"><ele>1077.3333333333333</ele><time>2026-04-18T10:03:07Z</time></trkpt><trkpt lat="44.80395787112909" lon="6.56528838410488"><ele>1076.6666666666667</ele><time>2026-04-18T10:03:08Z</time></trkpt><trkpt lat="44.80378967829882" lon="6.56531666979333"><ele>1076.0</ele><time>2026-04-18T10:03:09Z</time></trkpt><trkpt lat="44.803608113768746" lon="6.565415397528755"><ele>1078.6666666666667</ele><time>2026-04-18T10:03:10Z</time></trkpt><trkpt lat="44.80344937298278" lon="6.56553934075377"><ele>1081.3333333333333</ele><time>2026-04-18T10:03:11Z</time></trkpt><trkpt lat="44.80328509098574" lon="6.565652088983917"><ele>1084.0</ele><time>2026-04-18T10:03:12Z</time></trkpt><trkpt lat="44.803136247871954" lon="6.565761686441483"><ele>1084.0</ele><time>2026-04-18T10:03:13Z</time></trkpt><trkpt lat="44.80296803925672" lon="6.565881070118491"><ele>1084.0</ele><time>2026-04-18T10:03:14Z</time></trkpt><trkpt lat="44.80279925448908" lon="6.565989644383957"><ele>1084.0</ele><time>2026-04-18T10:03:15Z</time></trkpt><trkpt lat="44.80263220225291" lon="6.566026059432244"><ele>1079.3333333333333</ele><time>2026-04-18T10:03:16Z</time></trkpt><trkpt lat="44.802455210023275" lon="6.566070522662292"><ele>1074.6666666666667</ele><time>2026-04-18T10:03:17Z</time></trkpt><trkpt lat="44.802249259588415" lon="6.566065288985603"><ele>1070.0</ele><time>2026-04-18T10:03:18Z</time></trkpt><trkpt lat="44.802051090914006" lon="6.566064876973661"><ele>1070.0</ele><time>2026-04-18T10:03:19Z</time></trkpt><trkpt lat="44.801870381593744" lon="6.5660360332738135"><ele>1070.0</ele><time>2026-04-18T10:03:20Z</time></trkpt><trkpt lat="44.80168217087657" lon="6.566019413328267"><ele>1070.0</ele><time>2026-04-18T10:03:21Z</time></trkpt><trkpt lat="44.8014812862709" lon="6.5660444221863745"><ele>1067.6666666666667</ele><time>2026-04-18T10:03:22Z</time></trkpt><trkpt lat="44.8012870560066" lon="6.566052460226118"><ele>1065.3333333333333</ele><time>2026-04-18T10:03:23Z</time></trkpt><trkpt lat="44.80109724511849" lon="6.5660414730753835"><ele>1063.0</ele><time>2026-04-18T10:03:24Z</time></trkpt><trkpt lat="44.80091150716285" lon="6.566052494907954"><ele>1061.3333333333333</ele><time>2026-04-18T10:03:25Z</time></trkpt><trkpt lat="44.80073408848845" lon="6.566057890455909"><ele>1059.6666666666667</ele><time>2026-04-18T10:03:26Z</time></trkpt><trkpt lat="44.80057995333355" lon="6.5660570766903925"><ele>1058.0</ele><time>2026-04-18T10:03:27Z</time></trkpt><trkpt lat="44.8004246809436" lon="6.566035621258613"><ele>1058.0</ele><time>2026-04-18T10:03:28Z</time></trkpt><trkpt lat="44.80026741473249" lon="6.5660220856245735"><ele>1058.0</ele><time>2026-04-18T10:03:29Z</time></trkpt><trkpt lat="44.800112392626865" lon="6.5659957942645715"><ele>1058.0</ele><time>2026-04-18T10:03:30Z</time></trkpt><trkpt lat="44.79996123692615" lon="6.565978171373261"><ele>1056.0</ele><time>2026-04-18T10:03:31Z</time></trkpt><trkpt lat="44.799812548352854" lon="6.5659472050956245"><ele>1054.0</ele><time>2026-04-18T10:03:32Z</time></trkpt><trkpt lat="44.79966220677495" lon="6.565880864170269"><ele>1052.0</ele><time>2026-04-18T10:03:33Z</time></trkpt><trkpt lat="44.79951625065408" lon="6.565825978540891"><ele>1052.0</ele><time>2026-04-18T10:03:34Z</time></trkpt><trkpt lat="44.79937578428989" lon="6.565761778371656"><ele>1052.0</ele><time>2026-04-18T10:03:35Z</time></trkpt><trkpt lat="44.799244567242724" lon="6.565683668714776"><ele>1052.0</ele><time>2026-04-18T10:03:36Z</time></trkpt><trkpt lat="44.799112458052775" lon="6.565585840894183"><ele>1052.0</ele><time>2026-04-18T10:03:37Z</time></trkpt><trkpt lat="44.79899231260318" lon="6.565478025957536"><ele>1052.0</ele><time>2026-04-18T10:03:38Z</time></trkpt><trkpt lat="44.798879583211274" lon="6.565363954519429"><ele>1052.0</ele><time>2026-04-18T10:03:39Z</time></trkpt><trkpt lat="44.79877626606103" lon="6.565237517223788"><ele>1052.0</ele><time>2026-04-18T10:03:40Z</time></trkpt><trkpt lat="44.79868107492541" lon="6.56509816096553"><ele>1052.0</ele><time>2026-04-18T10:03:41Z</time></trkpt><trkpt lat="44.79857953865029" lon="6.56494607957701"><ele>1050.6666666666667</ele><time>2026-04-18T10:03:42Z</time></trkpt><trkpt lat="44.79843981062071" lon="6.564841438839539"><ele>1049.3333333333333</ele><time>2026-04-18T10:03:43Z</time></trkpt><trkpt lat="44.79833681037477" lon="6.5646754354624495"><ele>1048.0</ele><time>2026-04-18T10:03:44Z</time></trkpt><trkpt lat="44.79823587331427" lon="6.564516951850664"><ele>1044.0</ele><time>2026-04-18T10:03:45Z</time></trkpt><trkpt lat="44.79813369810582" lon="6.564352735256991"><ele>1040.0</ele><time>2026-04-18T10:03:46Z</time></trkpt><trkpt lat="44.798054170817196" lon="6.5641642472002895"><ele>1036.0</ele><time>2026-04-18T10:03:47Z</time></trkpt><trkpt lat="44.79795385692871" lon="6.564021289176673"><ele>1036.0</ele><time>2026-04-18T10:03:48Z</time></trkpt><trkpt lat="44.79784809227751" lon="6.563892022070299"><ele>1036.0</ele><time>2026-04-18T10:03:49Z</time></trkpt><trkpt lat="44.797721979857414" lon="6.563757987233868"><ele>1036.0</ele><time>2026-04-18T10:03:50Z</time></trkpt><trkpt lat="44.79759438016454" lon="6.563644799261052"><ele>1036.0</ele><time>2026-04-18T10:03:51Z</time></trkpt><trkpt lat="44.797449396628" lon="6.563554944001648"><ele>1033.0</ele><time>2026-04-18T10:03:52Z</time></trkpt><trkpt lat="44.797296483465054" lon="6.563417371083226"><ele>1030.0</ele><time>2026-04-18T10:03:53Z</time></trkpt><trkpt lat="44.797152468385676" lon="6.563309768477718"><ele>1027.0</ele><time>2026-04-18T10:03:54Z</time></trkpt><trkpt lat="44.797010378971144" lon="6.563229693616436"><ele>1027.0</ele><time>2026-04-18T10:03:55Z</time></trkpt><trkpt lat="44.7968697640862" lon="6.5631219185174725"><ele>1027.0</ele><time>2026-04-18T10:03:56Z</time></trkpt><trkpt lat="44.79673635240225" lon="6.562995056207206"><ele>1027.0</ele><time>2026-04-18T10:03:57Z</time></trkpt><trkpt lat="44.796592726355044" lon="6.562914169557691"><ele>1024.25</ele><time>2026-04-18T10:03:58Z</time></trkpt><trkpt lat="44.79646157223575" lon="6.562853762480615"><ele>1021.5</ele><time>2026-04-18T10:03:59Z</time></trkpt><trkpt lat="44.79632400514587" lon="6.562798913388136"><ele>1018.75</ele><time>2026-04-18T10:04:00Z</time></trkpt><trkpt lat="44.796207846228796" lon="6.562760127902043"><ele>1016.0</ele><time>2026-04-18T10:04:01Z</time></trkpt><trkpt lat="44.796084865218134" lon="6.562718886864997"><ele>1015.5</ele><time>2026-04-18T10:04:02Z</time></trkpt><trkpt lat="44.79596272300033" lon="6.562693874755168"><ele>1015.0</ele><time>2026-04-18T10:04:03Z</time></trkpt><trkpt lat="44.79584376934538" lon="6.562679843056128"><ele>1014.5</ele><time>2026-04-18T10:04:04Z</time></trkpt><trkpt lat="44.79572552393981" lon="6.562665811857684"><ele>1014.0</ele><time>2026-04-18T10:04:05Z</time></trkpt><trkpt lat="44.79561376111763" lon="6.562621031019376"><ele>1014.0</ele><time>2026-04-18T10:04:06Z</time></trkpt><trkpt lat="44.79550533703192" lon="6.562614320406998"><ele>1014.0000000000001</ele><time>2026-04-18T10:04:07Z</time></trkpt><trkpt lat="44.79539849242495" lon="6.562610717475242"><ele>1014.0000000000001</ele><time>2026-04-18T10:04:08Z</time></trkpt><trkpt lat="44.795296649687366" lon="6.562570700239335"><ele>1014.0</ele><time>2026-04-18T10:04:09Z</time></trkpt><trkpt lat="44.795190486610224" lon="6.562551996515789"><ele>1014.0</ele><time>2026-04-18T10:04:10Z</time></trkpt><trkpt lat="44.79507470919407" lon="6.5625383131063915"><ele>1012.6</ele><time>2026-04-18T10:04:11Z</time></trkpt><trkpt lat="44.794957588277505" lon="6.5625151573340315"><ele>1011.2</ele><time>2026-04-18T10:04:12Z</time></trkpt><trkpt lat="44.794846137959766" lon="6.562499400867127"><ele>1009.8000000000001</ele><time>2026-04-18T10:04:13Z</time></trkpt><trkpt lat="44.79473608253587" lon="6.562521506928376"><ele>1008.4000000000001</ele><time>2026-04-18T10:04:14Z</time></trkpt><trkpt lat="44.79463682655298" lon="6.562522554358994"><ele>1007.0</ele><time>2026-04-18T10:04:15Z</time></trkpt><trkpt lat="44.79453576249376" lon="6.562535517108814"><ele>1007.0</ele><time>2026-04-18T10:04:16Z</time></trkpt><trkpt lat="44.79444452819605" lon="6.5625378287432214"><ele>1007.0</ele><time>2026-04-18T10:04:17Z</time></trkpt><trkpt lat="44.79432779763474" lon="6.562546904738003"><ele>1007.0</ele><time>2026-04-18T10:04:18Z</time></trkpt><trkpt lat="44.79420984209614" lon="6.562546799637527"><ele>1007.0</ele><time>2026-04-18T10:04:19Z</time></trkpt><trkpt lat="44.79406050525953" lon="6.562525505503203"><ele>1005.5</ele><time>2026-04-18T10:04:20Z</time></trkpt><trkpt lat="44.79393104287016" lon="6.5624741403447695"><ele>1004.0</ele><time>2026-04-18T10:04:21Z</time></trkpt><trkpt lat="44.79378161367186" lon="6.5624412391429"><ele>1002.5</ele><time>2026-04-18T10:04:22Z</time></trkpt><trkpt lat="44.79364685561354" lon="6.56241156816356"><ele>1001.0</ele><time>2026-04-18T10:04:23Z</time></trkpt><trkpt lat="44.793505860086896" lon="6.562381199857632"><ele>1001.0</ele><time>2026-04-18T10:04:24Z</time></trkpt><trkpt lat="44.793373244648016" lon="6.5623309722304235"><ele>1001.0</ele><time>2026-04-18T10:04:25Z</time></trkpt><trkpt lat="44.79323997931295" lon="6.562310875286623"><ele>1001.0</ele><time>2026-04-18T10:04:26Z</time></trkpt><trkpt lat="44.79314096800695" lon="6.562293166193594"><ele>1001.0</ele><time>2026-04-18T10:04:27Z</time></trkpt><trkpt lat="44.793014648553424" lon="6.562263976692931"><ele>1001.0</ele><time>2026-04-18T10:04:28Z</time></trkpt><trkpt lat="44.79288232420036" lon="6.562235571841759"><ele>1001.0</ele><time>2026-04-18T10:04:29Z</time></trkpt><trkpt lat="44.792745059284734" lon="6.562223847525224"><ele>1001.0</ele><time>2026-04-18T10:04:30Z</time></trkpt><trkpt lat="44.79261042787261" lon="6.562206311329714"><ele>1001.0</ele><time>2026-04-18T10:04:31Z</time></trkpt><trkpt lat="44.79247426023286" lon="6.562182182413226"><ele>1000.75</ele><time>2026-04-18T10:04:32Z</time></trkpt><trkpt lat="44.792338300024824" lon="6.562166931059447"><ele>1000.5</ele><time>2026-04-18T10:04:33Z</time></trkpt><trkpt lat="44.79220737180524" lon="6.562142713426235"><ele>1000.25</ele><time>2026-04-18T10:04:34Z</time></trkpt><trkpt lat="44.7920692408202" lon="6.562101180616392"><ele>1000.0</ele><time>2026-04-18T10:04:35Z</time></trkpt><trkpt lat="44.79193544294811" lon="6.562096386727363"><ele>998.25</ele><time>2026-04-18T10:04:36Z</time></trkpt><trkpt lat="44.79180899641776" lon="6.562060552166151"><ele>996.5</ele><time>2026-04-18T10:04:37Z</time></trkpt><trkpt lat="44.79168583125627" lon="6.562049503359213"><ele>994.75</ele><time>2026-04-18T10:04:38Z</time></trkpt><trkpt lat="44.79155446841067" lon="6.562013555313915"><ele>993.0</ele><time>2026-04-18T10:04:39Z</time></trkpt><trkpt lat="44.791426809092535" lon="6.561985561659941"><ele>991.0</ele><time>2026-04-18T10:04:40Z</time></trkpt><trkpt lat="44.79129262610388" lon="6.561967095853916"><ele>989.0</ele><time>2026-04-18T10:04:41Z</time></trkpt><trkpt lat="44.79117650060039" lon="6.561898858675727"><ele>987.0</ele><time>2026-04-18T10:04:42Z</time></trkpt><trkpt lat="44.79103942662376" lon="6.561866485697646"><ele>985.0</ele><time>2026-04-18T10:04:43Z</time></trkpt><trkpt lat="44.79090794618256" lon="6.561842618773829"><ele>983.75</ele><time>2026-04-18T10:04:44Z</time></trkpt><trkpt lat="44.79076461919437" lon="6.5618344835015865"><ele>982.5</ele><time>2026-04-18T10:04:45Z</time></trkpt><trkpt lat="44.790635652008135" lon="6.561818741802631"><ele>981.25</ele><time>2026-04-18T10:04:46Z</time></trkpt><trkpt lat="44.79050350481207" lon="6.561788312799983"><ele>980.0</ele><time>2026-04-18T10:04:47Z</time></trkpt><trkpt lat="44.79036975483418" lon="6.561756194790177"><ele>980.0</ele><time>2026-04-18T10:04:48Z</time></trkpt><trkpt lat="44.790233940236575" lon="6.561718698771653"><ele>980.0</ele><time>2026-04-18T10:04:49Z</time></trkpt><trkpt lat="44.790112098725324" lon="6.561685759802996"><ele>980.0</ele><time>2026-04-18T10:04:50Z</time></trkpt><trkpt lat="44.78997900607029" lon="6.561662890002597"><ele>980.0</ele><time>2026-04-18T10:04:51Z</time></trkpt><trkpt lat="44.78985479733791" lon="6.561636664243472"><ele>979.5</ele><time>2026-04-18T10:04:52Z</time></trkpt><trkpt lat="44.789714412293534" lon="6.561606026958649"><ele>979.0</ele><time>2026-04-18T10:04:53Z</time></trkpt><trkpt lat="44.78957664979363" lon="6.5615790552173925"><ele>978.5</ele><time>2026-04-18T10:04:54Z</time></trkpt><trkpt lat="44.789430829253945" lon="6.561553573571187"><ele>978.0</ele><time>2026-04-18T10:04:55Z</time></trkpt><trkpt lat="44.78927566487414" lon="6.561519464900775"><ele>978.0</ele><time>2026-04-18T10:04:56Z</time></trkpt><trkpt lat="44.78912544024156" lon="6.561484943265126"><ele>978.0</ele><time>2026-04-18T10:04:57Z</time></trkpt><trkpt lat="44.7889733091137" lon="6.561456531807729"><ele>978.0</ele><time>2026-04-18T10:04:58Z</time></trkpt><trkpt lat="44.78881745883632" lon="6.561430439777154"><ele>978.0</ele><time>2026-04-18T10:04:59Z</time></trkpt><trkpt lat="44.78865973791799" lon="6.561388037107196"><ele>978.0</ele><time>2026-04-18T10:05:00Z</time></trkpt><trkpt lat="44.78850177994403" lon="6.561359086596458"><ele>978.0</ele><time>2026-04-18T10:05:01Z</time></trkpt><trkpt lat="44.78833861904944" lon="6.561326240155065"><ele>978.6666666666667</ele><time>2026-04-18T10:05:02Z</time></trkpt><trkpt lat="44.788180775688964" lon="6.561275758982319"><ele>979.3333333333334</ele><time>2026-04-18T10:05:03Z</time></trkpt><trkpt lat="44.788009198775946" lon="6.561255571335544"><ele>980.0</ele><time>2026-04-18T10:05:04Z</time></trkpt><trkpt lat="44.78782503850484" lon="6.561222377790231"><ele>981.0</ele><time>2026-04-18T10:05:05Z</time></trkpt><trkpt lat="44.78763802110075" lon="6.561202004458012"><ele>982.0</ele><time>2026-04-18T10:05:06Z</time></trkpt><trkpt lat="44.78744218612502" lon="6.5611862230913625"><ele>983.0</ele><time>2026-04-18T10:05:07Z</time></trkpt><trkpt lat="44.78723244869398" lon="6.561153971195512"><ele>982.0</ele><time>2026-04-18T10:05:08Z</time></trkpt><trkpt lat="44.78701609079427" lon="6.561118284974021"><ele>981.0</ele><time>2026-04-18T10:05:09Z</time></trkpt><trkpt lat="44.786803933565764" lon="6.561086685694746"><ele>980.0</ele><time>2026-04-18T10:05:10Z</time></trkpt><trkpt lat="44.78661153689412" lon="6.561056495393983"><ele>980.0</ele><time>2026-04-18T10:05:11Z</time></trkpt><trkpt lat="44.78642065103633" lon="6.561019826940922"><ele>980.0</ele><time>2026-04-18T10:05:12Z</time></trkpt><trkpt lat="44.78624986552958" lon="6.560974707412535"><ele>980.0</ele><time>2026-04-18T10:05:13Z</time></trkpt><trkpt lat="44.78607339243257" lon="6.560943711180945"><ele>983.3333333333334</ele><time>2026-04-18T10:05:14Z</time></trkpt><trkpt lat="44.785904078221115" lon="6.560919108202942"><ele>986.6666666666667</ele><time>2026-04-18T10:05:15Z</time></trkpt><trkpt lat="44.78573897700576" lon="6.560884039777299"><ele>990.0</ele><time>2026-04-18T10:05:16Z</time></trkpt><trkpt lat="44.78556595981473" lon="6.560860018640544"><ele>990.0</ele><time>2026-04-18T10:05:17Z</time></trkpt><trkpt lat="44.785391373577276" lon="6.56081578102507"><ele>990.0</ele><time>2026-04-18T10:05:18Z</time></trkpt><trkpt lat="44.78522374470625" lon="6.560788629599108"><ele>990.0</ele><time>2026-04-18T10:05:19Z</time></trkpt><trkpt lat="44.785055936104435" lon="6.560751436944158"><ele>991.3333333333333</ele><time>2026-04-18T10:05:20Z</time></trkpt><trkpt lat="44.7848896055199" lon="6.560718166765025"><ele>992.6666666666666</ele><time>2026-04-18T10:05:21Z</time></trkpt><trkpt lat="44.78471771004289" lon="6.56069756485613"><ele>994.0</ele><time>2026-04-18T10:05:22Z</time></trkpt><trkpt lat="44.78454563209676" lon="6.5606651951530415"><ele>994.0</ele><time>2026-04-18T10:05:23Z</time></trkpt><trkpt lat="44.78437088357302" lon="6.560607751508669"><ele>994.0</ele><time>2026-04-18T10:05:24Z</time></trkpt><trkpt lat="44.78418150798177" lon="6.560578740768308"><ele>994.0</ele><time>2026-04-18T10:05:25Z</time></trkpt><trkpt lat="44.783981502233566" lon="6.5605545249340285"><ele>994.0</ele><time>2026-04-18T10:05:26Z</time></trkpt><trkpt lat="44.78377865527485" lon="6.560557182829078"><ele>994.0</ele><time>2026-04-18T10:05:27Z</time></trkpt><trkpt lat="44.78357810246816" lon="6.560545154322964"><ele>994.0</ele><time>2026-04-18T10:05:28Z</time></trkpt><trkpt lat="44.78338349537028" lon="6.56054436050157"><ele>994.0</ele><time>2026-04-18T10:05:29Z</time></trkpt><trkpt lat="44.7831953395973" lon="6.560542573230893"><ele>994.0</ele><time>2026-04-18T10:05:30Z</time></trkpt><trkpt lat="44.7829985363798" lon="6.560567745581846"><ele>994.0</ele><time>2026-04-18T10:05:31Z</time></trkpt><trkpt lat="44.78280317277083" lon="6.56059461584772"><ele>992.0</ele><time>2026-04-18T10:05:32Z</time></trkpt><trkpt lat="44.782600653147064" lon="6.5606293100494675"><ele>990.0</ele><time>2026-04-18T10:05:33Z</time></trkpt><trkpt lat="44.78240014542352" lon="6.560680767940392"><ele>988.0</ele><time>2026-04-18T10:05:34Z</time></trkpt><trkpt lat="44.78220637705502" lon="6.560744142122449"><ele>988.0</ele><time>2026-04-18T10:05:35Z</time></trkpt><trkpt lat="44.78201145920213" lon="6.560816711638932"><ele>988.0</ele><time>2026-04-18T10:05:36Z</time></trkpt><trkpt lat="44.78181699565749" lon="6.560900015394772"><ele>988.0</ele><time>2026-04-18T10:05:37Z</time></trkpt><trkpt lat="44.78164168993376" lon="6.5609696857976445"><ele>984.6666666666666</ele><time>2026-04-18T10:05:38Z</time></trkpt><trkpt lat="44.78146752763795" lon="6.561024587588669"><ele>981.3333333333333</ele><time>2026-04-18T10:05:39Z</time></trkpt><trkpt lat="44.781290995219" lon="6.561080274525981"><ele>978.0</ele><time>2026-04-18T10:05:40Z</time></trkpt><trkpt lat="44.781098420724184" lon="6.561122611515845"><ele>975.6666666666667</ele><time>2026-04-18T10:05:41Z</time></trkpt><trkpt lat="44.78089847861119" lon="6.5611195591321865"><ele>973.3333333333334</ele><time>2026-04-18T10:05:42Z</time></trkpt><trkpt lat="44.780708435788284" lon="6.561106793115066"><ele>971.0</ele><time>2026-04-18T10:05:43Z</time></trkpt><trkpt lat="44.78052044343148" lon="6.561090121880529"><ele>971.0</ele><time>2026-04-18T10:05:44Z</time></trkpt><trkpt lat="44.78033334022658" lon="6.5610513020975665"><ele>971.0</ele><time>2026-04-18T10:05:45Z</time></trkpt><trkpt lat="44.78014817487553" lon="6.560997454182633"><ele>971.0</ele><time>2026-04-18T10:05:46Z</time></trkpt><trkpt lat="44.77995189485392" lon="6.560935694146867"><ele>972.3333333333334</ele><time>2026-04-18T10:05:47Z</time></trkpt><trkpt lat="44.77975270139117" lon="6.560867350883008"><ele>973.6666666666667</ele><time>2026-04-18T10:05:48Z</time></trkpt><trkpt lat="44.77956723417625" lon="6.5607995961788195"><ele>975.0</ele><time>2026-04-18T10:05:49Z</time></trkpt><trkpt lat="44.779384484868835" lon="6.560728606954773"><ele>976.6666666666667</ele><time>2026-04-18T10:05:50Z</time></trkpt><trkpt lat="44.77921644833105" lon="6.560659971159833"><ele>978.3333333333334</ele><time>2026-04-18T10:05:51Z</time></trkpt><trkpt lat="44.77905561729678" lon="6.56059363878613"><ele>980.0</ele><time>2026-04-18T10:05:52Z</time></trkpt><trkpt lat="44.77888967508261" lon="6.56054710230447"><ele>980.0</ele><time>2026-04-18T10:05:53Z</time></trkpt><trkpt lat="44.778730597082664" lon="6.5604763608317604"><ele>980.0</ele><time>2026-04-18T10:05:54Z</time></trkpt><trkpt lat="44.778570732769964" lon="6.560407175964139"><ele>980.0</ele><time>2026-04-18T10:05:55Z</time></trkpt><trkpt lat="44.778405952263206" lon="6.560338392306294"><ele>974.0</ele><time>2026-04-18T10:05:56Z</time></trkpt><trkpt lat="44.77823992210597" lon="6.560259945466695"><ele>968.0</ele><time>2026-04-18T10:05:57Z</time></trkpt><trkpt lat="44.778083284228856" lon="6.560168082526006"><ele>962.0</ele><time>2026-04-18T10:05:58Z</time></trkpt><trkpt lat="44.777905639738194" lon="6.5601101531598935"><ele>962.0</ele><time>2026-04-18T10:05:59Z</time></trkpt><trkpt lat="44.77772887822813" lon="6.560070160527346"><ele>962.0</ele><time>2026-04-18T10:06:00Z</time></trkpt><trkpt lat="44.777560302228466" lon="6.5600296639203926"><ele>962.0</ele><time>2026-04-18T10:06:01Z</time></trkpt><trkpt lat="44.77740171576426" lon="6.55998785129633"><ele>962.5</ele><time>2026-04-18T10:06:02Z</time></trkpt><trkpt lat="44.777252579560965" lon="6.559957406152126"><ele>963.0</ele><time>2026-04-18T10:06:03Z</time></trkpt><trkpt lat="44.777111895349805" lon="6.559951719055797"><ele>963.5</ele><time>2026-04-18T10:06:04Z</time></trkpt><trkpt lat="44.77698799915812" lon="6.559935023135216"><ele>964.0</ele><time>2026-04-18T10:06:05Z</time></trkpt><trkpt lat="44.77686205835194" lon="6.5598972295605105"><ele>963.0</ele><time>2026-04-18T10:06:06Z</time></trkpt><trkpt lat="44.77671790597362" lon="6.5598900831244285"><ele>962.0</ele><time>2026-04-18T10:06:07Z</time></trkpt><trkpt lat="44.776557442368755" lon="6.559863983407207"><ele>961.0</ele><time>2026-04-18T10:06:08Z</time></trkpt><trkpt lat="44.776351813021044" lon="6.5598370826112005"><ele>961.0</ele><time>2026-04-18T10:06:09Z</time></trkpt><trkpt lat="44.776175477421035" lon="6.559811050284773"><ele>961.0</ele><time>2026-04-18T10:06:10Z</time></trkpt><trkpt lat="44.776005779474424" lon="6.559798742942161"><ele>961.0</ele><time>2026-04-18T10:06:11Z</time></trkpt><trkpt lat="44.775837808078926" lon="6.559764981560524"><ele>964.6666666666666</ele><time>2026-04-18T10:06:12Z</time></trkpt><trkpt lat="44.77568211566686" lon="6.559742492516678"><ele>968.3333333333333</ele><time>2026-04-18T10:06:13Z</time></trkpt><trkpt lat="44.77551858833289" lon="6.55973067172858"><ele>972.0</ele><time>2026-04-18T10:06:14Z</time></trkpt><trkpt lat="44.775348306844236" lon="6.559723740946832"><ele>973.3333333333333</ele><time>2026-04-18T10:06:15Z</time></trkpt><trkpt lat="44.77516925203544" lon="6.559724051655122"><ele>974.6666666666666</ele><time>2026-04-18T10:06:16Z</time></trkpt><trkpt lat="44.77494570421601" lon="6.559761909547256"><ele>976.0</ele><time>2026-04-18T10:06:17Z</time></trkpt><trkpt lat="44.774727876966" lon="6.559831244893211"><ele>976.0</ele><time>2026-04-18T10:06:18Z</time></trkpt><trkpt lat="44.774513645993046" lon="6.559886988182657"><ele>976.0</ele><time>2026-04-18T10:06:19Z</time></trkpt><trkpt lat="44.774281617290164" lon="6.559932683215381"><ele>972.5</ele><time>2026-04-18T10:06:20Z</time></trkpt><trkpt lat="44.77404992113322" lon="6.559969869971559"><ele>969.0</ele><time>2026-04-18T10:06:21Z</time></trkpt><trkpt lat="44.77378171657129" lon="6.56001379351539"><ele>964.5</ele><time>2026-04-18T10:06:22Z</time></trkpt><trkpt lat="44.77350440346754" lon="6.560067180667211"><ele>960.0</ele><time>2026-04-18T10:06:23Z</time></trkpt><trkpt lat="44.773265089486614" lon="6.5601105846779255"><ele>960.0</ele><time>2026-04-18T10:06:24Z</time></trkpt><trkpt lat="44.77302914085559" lon="6.560151737701628"><ele>960.0</ele><time>2026-04-18T10:06:25Z</time></trkpt><trkpt lat="44.77280489433598" lon="6.560196687843148"><ele>959.0</ele><time>2026-04-18T10:06:26Z</time></trkpt><trkpt lat="44.77259612473468" lon="6.560260055804824"><ele>958.0</ele><time>2026-04-18T10:06:27Z</time></trkpt><trkpt lat="44.77237949662493" lon="6.56035886391546"><ele>957.0</ele><time>2026-04-18T10:06:28Z</time></trkpt><trkpt lat="44.77217494023959" lon="6.560448880322656"><ele>957.0</ele><time>2026-04-18T10:06:29Z</time></trkpt><trkpt lat="44.77195228860948" lon="6.5605962453711895"><ele>957.0</ele><time>2026-04-18T10:06:29.999Z</time></trkpt><trkpt lat="44.77175580127216" lon="6.560737040114943"><ele>957.0</ele><time>2026-04-18T10:06:30.999Z</time></trkpt><trkpt lat="44.77155580400526" lon="6.56089886986357"><ele>957.0</ele><time>2026-04-18T10:06:31.999Z</time></trkpt><trkpt lat="44.77136671254753" lon="6.561071088069032"><ele>961.5</ele><time>2026-04-18T10:06:32.999Z</time></trkpt><trkpt lat="44.77118246643589" lon="6.5613127675405165"><ele>966.0</ele><time>2026-04-18T10:06:33.999Z</time></trkpt><trkpt lat="44.7709597743514" lon="6.561477781738943"><ele>966.0</ele><time>2026-04-18T10:06:34.999Z</time></trkpt><trkpt lat="44.77073023524299" lon="6.561627244187781"><ele>966.0</ele><time>2026-04-18T10:06:35.999Z</time></trkpt><trkpt lat="44.77051553292165" lon="6.561790951659795"><ele>966.0</ele><time>2026-04-18T10:06:36.999Z</time></trkpt><trkpt lat="44.770286211352555" lon="6.561936243205518"><ele>966.0</ele><time>2026-04-18T10:06:37.999Z</time></trkpt><trkpt lat="44.770059810962145" lon="6.562094233593392"><ele>967.0</ele><time>2026-04-18T10:06:38.999Z</time></trkpt><trkpt lat="44.76984967920747" lon="6.5622417852467185"><ele>968.0</ele><time>2026-04-18T10:06:39.999Z</time></trkpt><trkpt lat="44.7696296431591" lon="6.562395412052067"><ele>968.0</ele><time>2026-04-18T10:06:40.999Z</time></trkpt><trkpt lat="44.76940589031038" lon="6.562551403978324"><ele>968.0</ele><time>2026-04-18T10:06:41.999Z</time></trkpt><trkpt lat="44.76918147613286" lon="6.56271093118283"><ele>970.0</ele><time>2026-04-18T10:06:42.999Z</time></trkpt><trkpt lat="44.76896309311532" lon="6.56286417326529"><ele>972.0</ele><time>2026-04-18T10:06:43.999Z</time></trkpt><trkpt lat="44.76874320018594" lon="6.563018508826922"><ele>972.0</ele><time>2026-04-18T10:06:44.999Z</time></trkpt><trkpt lat="44.768531837297886" lon="6.56316717493507"><ele>972.0</ele><time>2026-04-18T10:06:45.999Z</time></trkpt><trkpt lat="44.76830438804913" lon="6.563343396774546"><ele>968.5</ele><time>2026-04-18T10:06:46.999Z</time></trkpt><trkpt lat="44.76811147366961" lon="6.563527099553203"><ele>965.0</ele><time>2026-04-18T10:06:47.999Z</time></trkpt><trkpt lat="44.76789667130155" lon="6.563713638640075"><ele>965.0</ele><time>2026-04-18T10:06:48.999Z</time></trkpt><trkpt lat="44.76769988423148" lon="6.563879497309543"><ele>965.0</ele><time>2026-04-18T10:06:49.999Z</time></trkpt><trkpt lat="44.76749467901017" lon="6.56407973026251"><ele>961.3333333333334</ele><time>2026-04-18T10:06:50.999Z</time></trkpt><trkpt lat="44.76732464316127" lon="6.56428135637678"><ele>957.6666666666667</ele><time>2026-04-18T10:06:51.999Z</time></trkpt><trkpt lat="44.76714970213903" lon="6.564481542119245"><ele>954.0</ele><time>2026-04-18T10:06:52.999Z</time></trkpt><trkpt lat="44.766964125475" lon="6.564662178418037"><ele>954.0</ele><time>2026-04-18T10:06:53.999Z</time></trkpt><trkpt lat="44.76676582924885" lon="6.564850940761833"><ele>954.0</ele><time>2026-04-18T10:06:54.999Z</time></trkpt><trkpt lat="44.766576850694" lon="6.565036841247697"><ele>954.0</ele><time>2026-04-18T10:06:55.999Z</time></trkpt><trkpt lat="44.766400286053255" lon="6.565223425800624"><ele>954.0</ele><time>2026-04-18T10:06:56.999Z</time></trkpt><trkpt lat="44.766209094324815" lon="6.565412539559374"><ele>953.5</ele><time>2026-04-18T10:06:57.999Z</time></trkpt><trkpt lat="44.76603398387865" lon="6.565600191559292"><ele>953.0</ele><time>2026-04-18T10:06:58.999Z</time></trkpt><trkpt lat="44.76583704256015" lon="6.565794124838805"><ele>953.0</ele><time>2026-04-18T10:06:59.999Z</time></trkpt><trkpt lat="44.765654779519856" lon="6.565966512193575"><ele>953.0</ele><time>2026-04-18T10:07:00.999Z</time></trkpt><trkpt lat="44.765500255689226" lon="6.566167065937531"><ele>953.0</ele><time>2026-04-18T10:07:01.999Z</time></trkpt><trkpt lat="44.76532903663296" lon="6.566377649179703"><ele>952.6666666666667</ele><time>2026-04-18T10:07:02.999Z</time></trkpt><trkpt lat="44.765163540868244" lon="6.566572731281472"><ele>952.3333333333333</ele><time>2026-04-18T10:07:03.999Z</time></trkpt><trkpt lat="44.76499517844237" lon="6.566768790189821"><ele>952.0</ele><time>2026-04-18T10:07:04.999Z</time></trkpt><trkpt lat="44.764812467037025" lon="6.566982588517827"><ele>951.0</ele><time>2026-04-18T10:07:05.999Z</time></trkpt><trkpt lat="44.76463691631011" lon="6.5671665087557045"><ele>950.0</ele><time>2026-04-18T10:07:06.999Z</time></trkpt><trkpt lat="44.7644564442494" lon="6.567365861869607"><ele>949.0</ele><time>2026-04-18T10:07:07.999Z</time></trkpt><trkpt lat="44.76427930439519" lon="6.567553901456318"><ele>949.0</ele><time>2026-04-18T10:07:08.999Z</time></trkpt><trkpt lat="44.76408864114573" lon="6.567753562324146"><ele>949.0</ele><time>2026-04-18T10:07:09.999Z</time></trkpt><trkpt lat="44.76390557461553" lon="6.567924279921026"><ele>949.0</ele><time>2026-04-18T10:07:10.999Z</time></trkpt><trkpt lat="44.76372730704605" lon="6.56810988991823"><ele>949.0</ele><time>2026-04-18T10:07:11.999Z</time></trkpt><trkpt lat="44.76354761409608" lon="6.568288363567924"><ele>949.0</ele><time>2026-04-18T10:07:12.999Z</time></trkpt><trkpt lat="44.763368238891374" lon="6.568473350001306"><ele>949.0</ele><time>2026-04-18T10:07:13.999Z</time></trkpt><trkpt lat="44.76319846970637" lon="6.568662594198578"><ele>949.0</ele><time>2026-04-18T10:07:14.999Z</time></trkpt><trkpt lat="44.76300886525396" lon="6.5688296318606785"><ele>949.0</ele><time>2026-04-18T10:07:15.999Z</time></trkpt><trkpt lat="44.76283151958611" lon="6.569015027941205"><ele>948.3333333333333</ele><time>2026-04-18T10:07:16.999Z</time></trkpt><trkpt lat="44.762653622611786" lon="6.569203946657313"><ele>947.6666666666667</ele><time>2026-04-18T10:07:17.999Z</time></trkpt><trkpt lat="44.76247488648466" lon="6.569382480556892"><ele>947.0</ele><time>2026-04-18T10:07:18.999Z</time></trkpt><trkpt lat="44.762299456267094" lon="6.569565905084019"><ele>947.0</ele><time>2026-04-18T10:07:19.999Z</time></trkpt><trkpt lat="44.76214419366962" lon="6.569735702194212"><ele>947.0</ele><time>2026-04-18T10:07:20.999Z</time></trkpt><trkpt lat="44.761968773032805" lon="6.569910333399119"><ele>947.0</ele><time>2026-04-18T10:07:21.999Z</time></trkpt><trkpt lat="44.76180561838806" lon="6.570079561268502"><ele>947.0</ele><time>2026-04-18T10:07:22.999Z</time></trkpt><trkpt lat="44.76165439132663" lon="6.570237093702295"><ele>947.0</ele><time>2026-04-18T10:07:23.999Z</time></trkpt><trkpt lat="44.76147993529952" lon="6.570397762500558"><ele>947.0</ele><time>2026-04-18T10:07:24.999Z</time></trkpt><trkpt lat="44.76131502808921" lon="6.5705641957934695"><ele>946.6666666666667</ele><time>2026-04-18T10:07:25.999Z</time></trkpt><trkpt lat="44.76114846004426" lon="6.5707183447195385"><ele>946.3333333333333</ele><time>2026-04-18T10:07:26.999Z</time></trkpt><trkpt lat="44.76098565406078" lon="6.570865574021019"><ele>946.0</ele><time>2026-04-18T10:07:27.999Z</time></trkpt><trkpt lat="44.760812488323744" lon="6.571051711172666"><ele>946.3333333333333</ele><time>2026-04-18T10:07:28.999Z</time></trkpt><trkpt lat="44.76064358470128" lon="6.571217137054463"><ele>946.6666666666667</ele><time>2026-04-18T10:07:29.999Z</time></trkpt><trkpt lat="44.76048273587023" lon="6.571392068249887"><ele>947.0</ele><time>2026-04-18T10:07:30.999Z</time></trkpt><trkpt lat="44.76031454651529" lon="6.571557008123435"><ele>946.3333333333334</ele><time>2026-04-18T10:07:31.999Z</time></trkpt><trkpt lat="44.76014733535458" lon="6.571722142996278"><ele>945.6666666666667</ele><time>2026-04-18T10:07:32.999Z</time></trkpt><trkpt lat="44.759982285594205" lon="6.571896257124592"><ele>945.0</ele><time>2026-04-18T10:07:33.999Z</time></trkpt><trkpt lat="44.75980750794917" lon="6.572084179715549"><ele>946.0</ele><time>2026-04-18T10:07:34.999Z</time></trkpt><trkpt lat="44.75963870444959" lon="6.5722323330876735"><ele>947.0</ele><time>2026-04-18T10:07:35.999Z</time></trkpt><trkpt lat="44.75945701424371" lon="6.572403108843177"><ele>948.0</ele><time>2026-04-18T10:07:36.999Z</time></trkpt><trkpt lat="44.75926179344705" lon="6.572539240995748"><ele>948.0</ele><time>2026-04-18T10:07:37.999Z</time></trkpt><trkpt lat="44.759053862514655" lon="6.572690647335079"><ele>948.0</ele><time>2026-04-18T10:07:38.999Z</time></trkpt><trkpt lat="44.758868231810546" lon="6.572797551653561"><ele>948.0</ele><time>2026-04-18T10:07:39.999Z</time></trkpt><trkpt lat="44.75867706517851" lon="6.572902279741333"><ele>946.6666666666667</ele><time>2026-04-18T10:07:40.999Z</time></trkpt><trkpt lat="44.758476621340975" lon="6.573020061394745"><ele>945.3333333333334</ele><time>2026-04-18T10:07:41.999Z</time></trkpt><trkpt lat="44.7582829102247" lon="6.57315322001315"><ele>944.0</ele><time>2026-04-18T10:07:42.999Z</time></trkpt><trkpt lat="44.75808836345611" lon="6.573274473842269"><ele>944.0</ele><time>2026-04-18T10:07:43.999Z</time></trkpt><trkpt lat="44.75789570079435" lon="6.573416876484181"><ele>944.0</ele><time>2026-04-18T10:07:44.999Z</time></trkpt><trkpt lat="44.75771407578904" lon="6.573536405379959"><ele>944.0</ele><time>2026-04-18T10:07:45.999Z</time></trkpt><trkpt lat="44.757518074417376" lon="6.573665849348794"><ele>944.3333333333334</ele><time>2026-04-18T10:07:46.999Z</time></trkpt><trkpt lat="44.75733138782233" lon="6.573772696795558"><ele>944.6666666666667</ele><time>2026-04-18T10:07:47.999Z</time></trkpt><trkpt lat="44.757139363892016" lon="6.5738879555295755"><ele>945.0</ele><time>2026-04-18T10:07:48.998Z</time></trkpt><trkpt lat="44.75695414728668" lon="6.5740074108118245"><ele>943.6666666666667</ele><time>2026-04-18T10:07:49.998Z</time></trkpt><trkpt lat="44.7567720367122" lon="6.574122519100275"><ele>942.3333333333334</ele><time>2026-04-18T10:07:50.998Z</time></trkpt><trkpt lat="44.756595689627275" lon="6.574231266379484"><ele>941.0</ele><time>2026-04-18T10:07:51.998Z</time></trkpt><trkpt lat="44.75639896895949" lon="6.574346689664051"><ele>941.0</ele><time>2026-04-18T10:07:52.998Z</time></trkpt><trkpt lat="44.75620379355486" lon="6.5744693395687435"><ele>941.0</ele><time>2026-04-18T10:07:53.998Z</time></trkpt><trkpt lat="44.756001166941495" lon="6.574593846826168"><ele>941.0</ele><time>2026-04-18T10:07:54.998Z</time></trkpt><trkpt lat="44.755806267121" lon="6.574711509659312"><ele>941.0</ele><time>2026-04-18T10:07:55.998Z</time></trkpt><trkpt lat="44.75561010305584" lon="6.574828317280037"><ele>941.0</ele><time>2026-04-18T10:07:56.998Z</time></trkpt><trkpt lat="44.755419306385924" lon="6.574947942298422"><ele>941.0</ele><time>2026-04-18T10:07:57.998Z</time></trkpt><trkpt lat="44.75522287494422" lon="6.575069118273265"><ele>940.6666666666667</ele><time>2026-04-18T10:07:58.998Z</time></trkpt><trkpt lat="44.75502009706327" lon="6.575193556019751"><ele>940.3333333333333</ele><time>2026-04-18T10:07:59.998Z</time></trkpt><trkpt lat="44.75483218590563" lon="6.575322063376721"><ele>940.0</ele><time>2026-04-18T10:08:00.998Z</time></trkpt><trkpt lat="44.754638209672414" lon="6.575448858351694"><ele>939.6666666666666</ele><time>2026-04-18T10:08:01.998Z</time></trkpt><trkpt lat="44.75445769584962" lon="6.575579193975956"><ele>939.3333333333333</ele><time>2026-04-18T10:08:02.998Z</time></trkpt><trkpt lat="44.75424948239295" lon="6.575687600643747"><ele>939.0</ele><time>2026-04-18T10:08:03.998Z</time></trkpt><trkpt lat="44.75406395264179" lon="6.575834174795556"><ele>939.0</ele><time>2026-04-18T10:08:04.998Z</time></trkpt><trkpt lat="44.75389298733754" lon="6.575963323659866"><ele>939.0</ele><time>2026-04-18T10:08:05.998Z</time></trkpt><trkpt lat="44.75372478112667" lon="6.576081315209552"><ele>939.0</ele><time>2026-04-18T10:08:06.998Z</time></trkpt><trkpt lat="44.75355441932212" lon="6.576195498162187"><ele>938.6666666666667</ele><time>2026-04-18T10:08:07.998Z</time></trkpt><trkpt lat="44.75339465699744" lon="6.576320134652393"><ele>938.3333333333334</ele><time>2026-04-18T10:08:08.998Z</time></trkpt><trkpt lat="44.75322771617227" lon="6.5764259565937815"><ele>938.0</ele><time>2026-04-18T10:08:09.998Z</time></trkpt><trkpt lat="44.75306653302591" lon="6.57652889857056"><ele>938.0</ele><time>2026-04-18T10:08:10.998Z</time></trkpt><trkpt lat="44.752895564116876" lon="6.576632063755028"><ele>938.0</ele><time>2026-04-18T10:08:11.999Z</time></trkpt><trkpt lat="44.75272291971485" lon="6.576746831588035"><ele>938.0</ele><time>2026-04-18T10:08:12.999Z</time></trkpt><trkpt lat="44.75253803934196" lon="6.576866878962443"><ele>937.6666666666667</ele><time>2026-04-18T10:08:13.999Z</time></trkpt><trkpt lat="44.7523848256538" lon="6.576977641540354"><ele>937.3333333333333</ele><time>2026-04-18T10:08:14.999Z</time></trkpt><trkpt lat="44.752232495113404" lon="6.577077816072891"><ele>937.0</ele><time>2026-04-18T10:08:15.999Z</time></trkpt><trkpt lat="44.75206331975533" lon="6.577194963240039"><ele>936.6666666666666</ele><time>2026-04-18T10:08:16.999Z</time></trkpt><trkpt lat="44.75190210801781" lon="6.577311168120837"><ele>936.3333333333333</ele><time>2026-04-18T10:08:17.999Z</time></trkpt><trkpt lat="44.75172991510934" lon="6.577408878916394"><ele>936.0</ele><time>2026-04-18T10:08:18.999Z</time></trkpt><trkpt lat="44.751567387852226" lon="6.5775151542471075"><ele>936.6666666666667</ele><time>2026-04-18T10:08:19.999Z</time></trkpt><trkpt lat="44.75139922647705" lon="6.577629660945275"><ele>937.3333333333334</ele><time>2026-04-18T10:08:20.999Z</time></trkpt><trkpt lat="44.75123861521051" lon="6.577730261293187"><ele>938.0</ele><time>2026-04-18T10:08:21.999Z</time></trkpt><trkpt lat="44.75107231942893" lon="6.577835661468116"><ele>940.6666666666667</ele><time>2026-04-18T10:08:22.999Z</time></trkpt><trkpt lat="44.750919424933215" lon="6.577945005063317"><ele>943.3333333333333</ele><time>2026-04-18T10:08:24Z</time></trkpt><trkpt lat="44.750769722685455" lon="6.57805317541784"><ele>946.0</ele><time>2026-04-18T10:08:25Z</time></trkpt><trkpt lat="44.75061594506633" lon="6.578152844934186"><ele>946.0</ele><time>2026-04-18T10:08:26Z</time></trkpt><trkpt lat="44.75047579200998" lon="6.578245444699235"><ele>946.0</ele><time>2026-04-18T10:08:27Z</time></trkpt><trkpt lat="44.750335000040245" lon="6.57833244921312"><ele>946.0</ele><time>2026-04-18T10:08:28Z</time></trkpt><trkpt lat="44.75020520953038" lon="6.5784201727288245"><ele>945.3333333333333</ele><time>2026-04-18T10:08:29Z</time></trkpt><trkpt lat="44.750077290077165" lon="6.57850283207333"><ele>944.6666666666667</ele><time>2026-04-18T10:08:30Z</time></trkpt><trkpt lat="44.74992987233756" lon="6.578580993297554"><ele>944.0</ele><time>2026-04-18T10:08:31Z</time></trkpt><trkpt lat="44.74978487205993" lon="6.578678959595842"><ele>944.3333333333334</ele><time>2026-04-18T10:08:32Z</time></trkpt><trkpt lat="44.749640163015584" lon="6.5787798770782455"><ele>944.6666666666667</ele><time>2026-04-18T10:08:33Z</time></trkpt><trkpt lat="44.74949640674129" lon="6.578871768050968"><ele>945.0</ele><time>2026-04-18T10:08:34Z</time></trkpt><trkpt lat="44.74935110456422" lon="6.578958524491569"><ele>945.0</ele><time>2026-04-18T10:08:35Z</time></trkpt><trkpt lat="44.749218354287905" lon="6.579050774700185"><ele>945.0</ele><time>2026-04-18T10:08:36Z</time></trkpt><trkpt lat="44.74908430624832" lon="6.579070747498542"><ele>945.0</ele><time>2026-04-18T10:08:37Z</time></trkpt><trkpt lat="44.748991554594795" lon="6.579145039772165"><ele>945.0</ele><time>2026-04-18T10:08:38Z</time></trkpt><trkpt lat="44.748881018400475" lon="6.579214660126519"><ele>945.0</ele><time>2026-04-18T10:08:39Z</time></trkpt><trkpt lat="44.748765899537375" lon="6.579280167218118"><ele>945.0</ele><time>2026-04-18T10:08:40Z</time></trkpt><trkpt lat="44.7486728907248" lon="6.579357476151857"><ele>945.0</ele><time>2026-04-18T10:08:41Z</time></trkpt><trkpt lat="44.74857018064376" lon="6.579421448037728"><ele>945.0</ele><time>2026-04-18T10:08:42Z</time></trkpt><trkpt lat="44.74847004992663" lon="6.579495343201275"><ele>945.6</ele><time>2026-04-18T10:08:43Z</time></trkpt><trkpt lat="44.74836431603287" lon="6.579572833005554"><ele>946.2</ele><time>2026-04-18T10:08:44Z</time></trkpt><trkpt lat="44.748282086212235" lon="6.579580601590457"><ele>946.8</ele><time>2026-04-18T10:08:45Z</time></trkpt><trkpt lat="44.74819161508742" lon="6.579584484335869"><ele>947.4</ele><time>2026-04-18T10:08:46Z</time></trkpt><trkpt lat="44.74809992840156" lon="6.579599696457301"><ele>948.0</ele><time>2026-04-18T10:08:47Z</time></trkpt><trkpt lat="44.747966560274996" lon="6.57967233543424"><ele>948.0</ele><time>2026-04-18T10:08:48Z</time></trkpt><trkpt lat="44.74790038065719" lon="6.579726908543004"><ele>948.0</ele><time>2026-04-18T10:08:49Z</time></trkpt><trkpt lat="44.74784560425116" lon="6.579773945491071"><ele>948.0</ele><time>2026-04-18T10:08:50Z</time></trkpt><trkpt lat="44.747764066328145" lon="6.5798441364828975"><ele>948.0</ele><time>2026-04-18T10:08:51Z</time></trkpt><trkpt lat="44.74765692993585" lon="6.5799488165045865"><ele>948.0</ele><time>2026-04-18T10:08:52Z</time></trkpt><trkpt lat="44.74751864585505" lon="6.580010184101699"><ele>947.0</ele><time>2026-04-18T10:08:53Z</time></trkpt><trkpt lat="44.74741990242608" lon="6.580100383650199"><ele>946.0</ele><time>2026-04-18T10:08:54Z</time></trkpt><trkpt lat="44.747289870044156" lon="6.580185430998609"><ele>945.0</ele><time>2026-04-18T10:08:55Z</time></trkpt><trkpt lat="44.747173985427416" lon="6.580268340569099"><ele>944.0</ele><time>2026-04-18T10:08:56Z</time></trkpt><trkpt lat="44.7470435066165" lon="6.580337127728782"><ele>944.25</ele><time>2026-04-18T10:08:57Z</time></trkpt><trkpt lat="44.74691124573164" lon="6.580415185028143"><ele>944.5</ele><time>2026-04-18T10:08:58Z</time></trkpt><trkpt lat="44.74676423240138" lon="6.580479614814039"><ele>944.75</ele><time>2026-04-18T10:08:59Z</time></trkpt><trkpt lat="44.74662412807961" lon="6.580549809918459"><ele>945.0</ele><time>2026-04-18T10:09:00Z</time></trkpt><trkpt lat="44.74649691280464" lon="6.58062212199644"><ele>945.0</ele><time>2026-04-18T10:09:01Z</time></trkpt><trkpt lat="44.74636712714734" lon="6.580689440172971"><ele>945.0</ele><time>2026-04-18T10:09:02Z</time></trkpt><trkpt lat="44.74623501315409" lon="6.580750500001081"><ele>945.0</ele><time>2026-04-18T10:09:03Z</time></trkpt><trkpt lat="44.74610505942445" lon="6.580826503006421"><ele>945.0</ele><time>2026-04-18T10:09:04Z</time></trkpt><trkpt lat="44.74598958492994" lon="6.580911051888601"><ele>945.5</ele><time>2026-04-18T10:09:05Z</time></trkpt><trkpt lat="44.74587891631708" lon="6.581011533081666"><ele>946.0</ele><time>2026-04-18T10:09:06Z</time></trkpt><trkpt lat="44.745784481290514" lon="6.581102756682657"><ele>946.5</ele><time>2026-04-18T10:09:07Z</time></trkpt><trkpt lat="44.74568409099141" lon="6.581192507617124"><ele>947.0</ele><time>2026-04-18T10:09:08Z</time></trkpt><trkpt lat="44.74558806928559" lon="6.581277859283621"><ele>947.0</ele><time>2026-04-18T10:09:09Z</time></trkpt><trkpt lat="44.745475156973015" lon="6.581360225710163"><ele>947.0</ele><time>2026-04-18T10:09:10Z</time></trkpt><trkpt lat="44.74533722884694" lon="6.581423321396549"><ele>947.0</ele><time>2026-04-18T10:09:11Z</time></trkpt><trkpt lat="44.7452075788602" lon="6.581511450316186"><ele>947.0</ele><time>2026-04-18T10:09:12Z</time></trkpt><trkpt lat="44.745074550148935" lon="6.581608699195252"><ele>947.75</ele><time>2026-04-18T10:09:13Z</time></trkpt><trkpt lat="44.7449600834284" lon="6.5817078434187275"><ele>948.5</ele><time>2026-04-18T10:09:14Z</time></trkpt><trkpt lat="44.744832355828486" lon="6.581736802079488"><ele>949.25</ele><time>2026-04-18T10:09:15Z</time></trkpt><trkpt lat="44.74471282719891" lon="6.581835335034433"><ele>950.0</ele><time>2026-04-18T10:09:16Z</time></trkpt><trkpt lat="44.74457836728982" lon="6.581938272781905"><ele>949.5</ele><time>2026-04-18T10:09:17Z</time></trkpt><trkpt lat="44.74445973423481" lon="6.582035335715773"><ele>949.0</ele><time>2026-04-18T10:09:18Z</time></trkpt><trkpt lat="44.74433774494611" lon="6.582129799546583"><ele>948.5</ele><time>2026-04-18T10:09:19Z</time></trkpt><trkpt lat="44.74420550272842" lon="6.5822269462863"><ele>948.0</ele><time>2026-04-18T10:09:20Z</time></trkpt><trkpt lat="44.74406882224893" lon="6.582296294520961"><ele>949.5</ele><time>2026-04-18T10:09:21Z</time></trkpt><trkpt lat="44.74391756819225" lon="6.58230753611479"><ele>951.0</ele><time>2026-04-18T10:09:22Z</time></trkpt><trkpt lat="44.74376588796869" lon="6.582333103494734"><ele>952.5</ele><time>2026-04-18T10:09:23Z</time></trkpt><trkpt lat="44.74362736120842" lon="6.582356453708008"><ele>954.0</ele><time>2026-04-18T10:09:24Z</time></trkpt><trkpt lat="44.74347697600918" lon="6.5823805698202"><ele>954.0</ele><time>2026-04-18T10:09:25Z</time></trkpt><trkpt lat="44.74332695869406" lon="6.5824044712865355"><ele>954.0</ele><time>2026-04-18T10:09:25.999Z</time></trkpt><trkpt lat="44.74315845619386" lon="6.582431529093802"><ele>954.0</ele><time>2026-04-18T10:09:26.999Z</time></trkpt><trkpt lat="44.742984041627956" lon="6.582459822604993"><ele>954.0</ele><time>2026-04-18T10:09:27.999Z</time></trkpt><trkpt lat="44.74282055086725" lon="6.582485327154681"><ele>954.0</ele><time>2026-04-18T10:09:28.999Z</time></trkpt><trkpt lat="44.74265543944495" lon="6.582536254418172"><ele>954.0</ele><time>2026-04-18T10:09:29.999Z</time></trkpt><trkpt lat="44.74248189723511" lon="6.582565824434423"><ele>951.6666666666667</ele><time>2026-04-18T10:09:30.999Z</time></trkpt><trkpt lat="44.74230676133799" lon="6.5825974027283864"><ele>949.3333333333334</ele><time>2026-04-18T10:09:31.999Z</time></trkpt><trkpt lat="44.74213361807558" lon="6.58263723518473"><ele>947.0</ele><time>2026-04-18T10:09:32.999Z</time></trkpt><trkpt lat="44.74195503194471" lon="6.582711690719993"><ele>943.0</ele><time>2026-04-18T10:09:33.999Z</time></trkpt><trkpt lat="44.74176411263536" lon="6.582781933329259"><ele>939.0</ele><time>2026-04-18T10:09:34.999Z</time></trkpt><trkpt lat="44.74156304763136" lon="6.582804712738843"><ele>935.0</ele><time>2026-04-18T10:09:35.999Z</time></trkpt><trkpt lat="44.741360628174526" lon="6.582869513654731"><ele>943.5</ele><time>2026-04-18T10:09:36.999Z</time></trkpt><trkpt lat="44.74114109582722" lon="6.582941994150812"><ele>952.0</ele><time>2026-04-18T10:09:37.999Z</time></trkpt><trkpt lat="44.74092460125773" lon="6.583041830809867"><ele>952.0</ele><time>2026-04-18T10:09:38.999Z</time></trkpt><trkpt lat="44.740700771931934" lon="6.5831006352683685"><ele>952.0</ele><time>2026-04-18T10:09:39.999Z</time></trkpt><trkpt lat="44.740488009663395" lon="6.583176636264117"><ele>952.0</ele><time>2026-04-18T10:09:40.999Z</time></trkpt><trkpt lat="44.74028639152816" lon="6.5832452639421835"><ele>947.6666666666666</ele><time>2026-04-18T10:09:41.999Z</time></trkpt><trkpt lat="44.74006425902748" lon="6.583315377786054"><ele>943.3333333333333</ele><time>2026-04-18T10:09:42.999Z</time></trkpt><trkpt lat="44.7398480552041" lon="6.583379268548858"><ele>939.0</ele><time>2026-04-18T10:09:43.999Z</time></trkpt><trkpt lat="44.73963819642045" lon="6.583434015336179"><ele>939.0</ele><time>2026-04-18T10:09:44.999Z</time></trkpt><trkpt lat="44.73942404957898" lon="6.58347667373329"><ele>939.0</ele><time>2026-04-18T10:09:45.999Z</time></trkpt><trkpt lat="44.73920688555646" lon="6.583507421361378"><ele>939.0</ele><time>2026-04-18T10:09:46.999Z</time></trkpt><trkpt lat="44.73898982553547" lon="6.583533520794565"><ele>935.6666666666667</ele><time>2026-04-18T10:09:47.999Z</time></trkpt><trkpt lat="44.73876848636829" lon="6.583559152209228"><ele>932.3333333333334</ele><time>2026-04-18T10:09:48.999Z</time></trkpt><trkpt lat="44.73855618846151" lon="6.583582296482608"><ele>929.0</ele><time>2026-04-18T10:09:49.999Z</time></trkpt><trkpt lat="44.73835306593967" lon="6.583603897008756"><ele>929.0</ele><time>2026-04-18T10:09:50.999Z</time></trkpt><trkpt lat="44.73814380946604" lon="6.583641256832105"><ele>929.0</ele><time>2026-04-18T10:09:51.999Z</time></trkpt><trkpt lat="44.737932687568524" lon="6.583654547448806"><ele>929.0</ele><time>2026-04-18T10:09:52.999Z</time></trkpt><trkpt lat="44.73772359850698" lon="6.583678276932112"><ele>930.6666666666667</ele><time>2026-04-18T10:09:53.999Z</time></trkpt><trkpt lat="44.73751290457462" lon="6.583703253530359"><ele>932.3333333333333</ele><time>2026-04-18T10:09:54.999Z</time></trkpt><trkpt lat="44.73729729353608" lon="6.583725714241287"><ele>934.0</ele><time>2026-04-18T10:09:55.999Z</time></trkpt><trkpt lat="44.73709178727142" lon="6.583751665725824"><ele>932.3333333333333</ele><time>2026-04-18T10:09:56.999Z</time></trkpt><trkpt lat="44.73687793820459" lon="6.583784220868526"><ele>930.6666666666667</ele><time>2026-04-18T10:09:57.999Z</time></trkpt><trkpt lat="44.73664492570993" lon="6.583807910893582"><ele>929.0</ele><time>2026-04-18T10:09:58.999Z</time></trkpt><trkpt lat="44.73641754777582" lon="6.5838356241872695"><ele>929.0</ele><time>2026-04-18T10:09:59.999Z</time></trkpt><trkpt lat="44.73619526443083" lon="6.583859224369792"><ele>929.0</ele><time>2026-04-18T10:10:00.999Z</time></trkpt><trkpt lat="44.73597155984188" lon="6.583893881525076"><ele>929.0</ele><time>2026-04-18T10:10:01.999Z</time></trkpt><trkpt lat="44.735744838243434" lon="6.583919492953338"><ele>928.0</ele><time>2026-04-18T10:10:02.999Z</time></trkpt><trkpt lat="44.735513840323456" lon="6.583955086555073"><ele>927.0</ele><time>2026-04-18T10:10:03.999Z</time></trkpt><trkpt lat="44.73529027864763" lon="6.583979296029413"><ele>926.0</ele><time>2026-04-18T10:10:04.999Z</time></trkpt><trkpt lat="44.735060373248146" lon="6.58400782349988"><ele>925.0</ele><time>2026-04-18T10:10:05.999Z</time></trkpt><trkpt lat="44.73483523510342" lon="6.584017476667724"><ele>925.0</ele><time>2026-04-18T10:10:06.999Z</time></trkpt><trkpt lat="44.73459123731086" lon="6.584050338379299"><ele>925.0</ele><time>2026-04-18T10:10:07.999Z</time></trkpt><trkpt lat="44.73435000885332" lon="6.584080157179785"><ele>926.5</ele><time>2026-04-18T10:10:08.999Z</time></trkpt><trkpt lat="44.73411476551047" lon="6.584127551041674"><ele>928.0</ele><time>2026-04-18T10:10:09.999Z</time></trkpt><trkpt lat="44.733871816818464" lon="6.584162144924265"><ele>928.0</ele><time>2026-04-18T10:10:10.999Z</time></trkpt><trkpt lat="44.73363790783507" lon="6.584171312450538"><ele>928.0</ele><time>2026-04-18T10:10:11.999Z</time></trkpt><trkpt lat="44.733395671728125" lon="6.584206177368618"><ele>927.0</ele><time>2026-04-18T10:10:12.999Z</time></trkpt><trkpt lat="44.73315725993277" lon="6.584249478171627"><ele>926.0</ele><time>2026-04-18T10:10:13.999Z</time></trkpt><trkpt lat="44.73292729736706" lon="6.5843052614081214"><ele>926.5</ele><time>2026-04-18T10:10:14.999Z</time></trkpt><trkpt lat="44.732699689648626" lon="6.584405802572665"><ele>927.0</ele><time>2026-04-18T10:10:15.999Z</time></trkpt><trkpt lat="44.732459360862116" lon="6.584484255297606"><ele>937.5</ele><time>2026-04-18T10:10:16.999Z</time></trkpt><trkpt lat="44.7322214273374" lon="6.584540184261588"><ele>948.0</ele><time>2026-04-18T10:10:18Z</time></trkpt><trkpt lat="44.731986715794044" lon="6.5846142708921045"><ele>941.5</ele><time>2026-04-18T10:10:19Z</time></trkpt><trkpt lat="44.73175915203878" lon="6.58468556333721"><ele>935.0</ele><time>2026-04-18T10:10:20Z</time></trkpt><trkpt lat="44.731533149189374" lon="6.584757397649037"><ele>935.0</ele><time>2026-04-18T10:10:21Z</time></trkpt><trkpt lat="44.73131077343051" lon="6.584828368639396"><ele>935.0</ele><time>2026-04-18T10:10:22Z</time></trkpt><trkpt lat="44.73108546666767" lon="6.584902817360799"><ele>932.3333333333334</ele><time>2026-04-18T10:10:23Z</time></trkpt><trkpt lat="44.73086920402562" lon="6.584974555806473"><ele>929.6666666666667</ele><time>2026-04-18T10:10:24Z</time></trkpt><trkpt lat="44.73066487950583" lon="6.585062468347262"><ele>927.0</ele><time>2026-04-18T10:10:25Z</time></trkpt><trkpt lat="44.730451360798526" lon="6.585130752110171"><ele>927.0</ele><time>2026-04-18T10:10:26Z</time></trkpt><trkpt lat="44.73023803643644" lon="6.585206640396435"><ele>927.0</ele><time>2026-04-18T10:10:27Z</time></trkpt><trkpt lat="44.73001814602329" lon="6.5852721084622745"><ele>927.0</ele><time>2026-04-18T10:10:28Z</time></trkpt><trkpt lat="44.72980666061398" lon="6.585345642081704"><ele>931.5</ele><time>2026-04-18T10:10:29Z</time></trkpt><trkpt lat="44.72957927403709" lon="6.585431505814935"><ele>936.0</ele><time>2026-04-18T10:10:30Z</time></trkpt><trkpt lat="44.72935627074548" lon="6.585493671550955"><ele>936.0</ele><time>2026-04-18T10:10:31Z</time></trkpt><trkpt lat="44.72915651044497" lon="6.585568981368998"><ele>936.0</ele><time>2026-04-18T10:10:32Z</time></trkpt><trkpt lat="44.72894291019875" lon="6.585648939546956"><ele>936.0</ele><time>2026-04-18T10:10:33Z</time></trkpt><trkpt lat="44.72873331659007" lon="6.58571553747334"><ele>932.3333333333333</ele><time>2026-04-18T10:10:34Z</time></trkpt><trkpt lat="44.728529828841765" lon="6.585763655931952"><ele>928.6666666666666</ele><time>2026-04-18T10:10:35Z</time></trkpt><trkpt lat="44.7283262079189" lon="6.58583021065334"><ele>925.0</ele><time>2026-04-18T10:10:36Z</time></trkpt><trkpt lat="44.72811197505996" lon="6.585904250635747"><ele>925.0</ele><time>2026-04-18T10:10:37Z</time></trkpt><trkpt lat="44.727890294702206" lon="6.585971115339111"><ele>925.0</ele><time>2026-04-18T10:10:38Z</time></trkpt><trkpt lat="44.7276782763276" lon="6.5860485635431845"><ele>925.0</ele><time>2026-04-18T10:10:39Z</time></trkpt><trkpt lat="44.72747602117745" lon="6.586146038869711"><ele>924.3333333333333</ele><time>2026-04-18T10:10:40Z</time></trkpt><trkpt lat="44.72727312848165" lon="6.586243294129878"><ele>923.6666666666667</ele><time>2026-04-18T10:10:41Z</time></trkpt><trkpt lat="44.72706833395244" lon="6.586361343729992"><ele>923.0</ele><time>2026-04-18T10:10:42Z</time></trkpt><trkpt lat="44.72686019670714" lon="6.5865214405760035"><ele>921.0</ele><time>2026-04-18T10:10:43Z</time></trkpt><trkpt lat="44.72665456201545" lon="6.58671821634278"><ele>919.0</ele><time>2026-04-18T10:10:44Z</time></trkpt><trkpt lat="44.72646618915564" lon="6.5868742277619905"><ele>919.6666666666666</ele><time>2026-04-18T10:10:45Z</time></trkpt><trkpt lat="44.726309884226374" lon="6.587052847125338"><ele>920.3333333333333</ele><time>2026-04-18T10:10:46Z</time></trkpt><trkpt lat="44.726141036648784" lon="6.5872330828423005"><ele>921.0</ele><time>2026-04-18T10:10:47Z</time></trkpt><trkpt lat="44.7259596512689" lon="6.587402945050778"><ele>921.0</ele><time>2026-04-18T10:10:48Z</time></trkpt><trkpt lat="44.72579363881196" lon="6.587582111166649"><ele>921.0</ele><time>2026-04-18T10:10:49Z</time></trkpt><trkpt lat="44.72563395620196" lon="6.587766793747334"><ele>921.0</ele><time>2026-04-18T10:10:50Z</time></trkpt><trkpt lat="44.72546018319785" lon="6.587950650849427"><ele>920.6666666666667</ele><time>2026-04-18T10:10:51Z</time></trkpt><trkpt lat="44.72529197866798" lon="6.588131447474559"><ele>920.3333333333334</ele><time>2026-04-18T10:10:52Z</time></trkpt><trkpt lat="44.725116685872834" lon="6.588324979181825"><ele>920.0</ele><time>2026-04-18T10:10:53Z</time></trkpt><trkpt lat="44.72494114145515" lon="6.588497939176109"><ele>920.0</ele><time>2026-04-18T10:10:54Z</time></trkpt><trkpt lat="44.72475813102755" lon="6.588670153289637"><ele>920.0</ele><time>2026-04-18T10:10:55Z</time></trkpt><trkpt lat="44.72457954215453" lon="6.58885044646764"><ele>920.0</ele><time>2026-04-18T10:10:56Z</time></trkpt><trkpt lat="44.72439238155699" lon="6.589041240144871"><ele>920.3333333333334</ele><time>2026-04-18T10:10:57Z</time></trkpt><trkpt lat="44.724217028646805" lon="6.589227778918194"><ele>920.6666666666667</ele><time>2026-04-18T10:10:58Z</time></trkpt><trkpt lat="44.72403607817657" lon="6.589414988263316"><ele>921.0</ele><time>2026-04-18T10:10:59Z</time></trkpt><trkpt lat="44.72386062415577" lon="6.589607707147369"><ele>921.0</ele><time>2026-04-18T10:11:00Z</time></trkpt><trkpt lat="44.72368005500941" lon="6.589782209481615"><ele>921.0</ele><time>2026-04-18T10:11:01Z</time></trkpt><trkpt lat="44.72349911816273" lon="6.58997129212303"><ele>921.0</ele><time>2026-04-18T10:11:02Z</time></trkpt><trkpt lat="44.72332566083197" lon="6.59014809960192"><ele>920.3333333333333</ele><time>2026-04-18T10:11:03Z</time></trkpt><trkpt lat="44.7231494767658" lon="6.590333076632525"><ele>919.6666666666666</ele><time>2026-04-18T10:11:04Z</time></trkpt><trkpt lat="44.72297205102275" lon="6.590504468421617"><ele>919.0</ele><time>2026-04-18T10:11:05Z</time></trkpt><trkpt lat="44.72281103307121" lon="6.590693031745788"><ele>919.0</ele><time>2026-04-18T10:11:06Z</time></trkpt><trkpt lat="44.722643822044304" lon="6.590862306901177"><ele>919.0</ele><time>2026-04-18T10:11:07Z</time></trkpt><trkpt lat="44.72247381357275" lon="6.591037625324946"><ele>919.0</ele><time>2026-04-18T10:11:08Z</time></trkpt><trkpt lat="44.7223103646135" lon="6.591196371976244"><ele>919.0</ele><time>2026-04-18T10:11:09Z</time></trkpt><trkpt lat="44.722127961596286" lon="6.591358658793015"><ele>919.0</ele><time>2026-04-18T10:11:10Z</time></trkpt><trkpt lat="44.72195346422588" lon="6.591528091339895"><ele>919.0</ele><time>2026-04-18T10:11:11Z</time></trkpt><trkpt lat="44.7217797837708" lon="6.591695523516624"><ele>918.3333333333333</ele><time>2026-04-18T10:11:12Z</time></trkpt><trkpt lat="44.721610120022376" lon="6.591887910107026"><ele>917.6666666666667</ele><time>2026-04-18T10:11:13Z</time></trkpt><trkpt lat="44.72143206307498" lon="6.592070257222302"><ele>917.0</ele><time>2026-04-18T10:11:14Z</time></trkpt><trkpt lat="44.721238940200905" lon="6.592245687045114"><ele>918.0</ele><time>2026-04-18T10:11:15Z</time></trkpt><trkpt lat="44.72104567224017" lon="6.5924528115594905"><ele>919.0</ele><time>2026-04-18T10:11:16Z</time></trkpt><trkpt lat="44.72086199016629" lon="6.592639769303204"><ele>919.0</ele><time>2026-04-18T10:11:17Z</time></trkpt><trkpt lat="44.720673134778814" lon="6.592823805900939"><ele>919.0</ele><time>2026-04-18T10:11:18Z</time></trkpt><trkpt lat="44.72048455056085" lon="6.593018572510824"><ele>919.3333333333333</ele><time>2026-04-18T10:11:19Z</time></trkpt><trkpt lat="44.720300215284595" lon="6.593200606849387"><ele>919.6666666666667</ele><time>2026-04-18T10:11:20Z</time></trkpt><trkpt lat="44.72012183634981" lon="6.593385043377302"><ele>920.0</ele><time>2026-04-18T10:11:21Z</time></trkpt><trkpt lat="44.71994117042162" lon="6.593570023640448"><ele>921.3333333333334</ele><time>2026-04-18T10:11:22Z</time></trkpt><trkpt lat="44.71976373846593" lon="6.59376005603944"><ele>922.6666666666667</ele><time>2026-04-18T10:11:23Z</time></trkpt><trkpt lat="44.71958362112413" lon="6.593932418717615"><ele>924.0</ele><time>2026-04-18T10:11:24Z</time></trkpt><trkpt lat="44.719408681804985" lon="6.594111089200262"><ele>924.3333333333333</ele><time>2026-04-18T10:11:25Z</time></trkpt><trkpt lat="44.71922515535255" lon="6.594286725647478"><ele>924.6666666666666</ele><time>2026-04-18T10:11:26Z</time></trkpt><trkpt lat="44.71905351400335" lon="6.5944590086489185"><ele>925.0</ele><time>2026-04-18T10:11:27Z</time></trkpt><trkpt lat="44.71889236600334" lon="6.5946276158199275"><ele>925.0</ele><time>2026-04-18T10:11:28Z</time></trkpt><trkpt lat="44.718741718080324" lon="6.594795995959204"><ele>925.0</ele><time>2026-04-18T10:11:29Z</time></trkpt><trkpt lat="44.71857157729318" lon="6.594979329796724"><ele>925.0</ele><time>2026-04-18T10:11:30Z</time></trkpt><trkpt lat="44.71840463286649" lon="6.5951462357906045"><ele>924.0</ele><time>2026-04-18T10:11:31Z</time></trkpt><trkpt lat="44.71823903922019" lon="6.595312423358816"><ele>923.0</ele><time>2026-04-18T10:11:32Z</time></trkpt><trkpt lat="44.71807539447478" lon="6.59547536351554"><ele>922.0</ele><time>2026-04-18T10:11:33Z</time></trkpt><trkpt lat="44.717901238022016" lon="6.595645370549793"><ele>922.0</ele><time>2026-04-18T10:11:34Z</time></trkpt><trkpt lat="44.71774279250761" lon="6.595795890235524"><ele>922.0</ele><time>2026-04-18T10:11:35Z</time></trkpt><trkpt lat="44.717576276572906" lon="6.595973578528935"><ele>922.0</ele><time>2026-04-18T10:11:36Z</time></trkpt><trkpt lat="44.7174070298102" lon="6.596151172275594"><ele>919.5</ele><time>2026-04-18T10:11:37Z</time></trkpt><trkpt lat="44.71721641340529" lon="6.596335150034965"><ele>917.0</ele><time>2026-04-18T10:11:38Z</time></trkpt><trkpt lat="44.717014324651" lon="6.596540237578529"><ele>914.5</ele><time>2026-04-18T10:11:39Z</time></trkpt><trkpt lat="44.71680713759531" lon="6.596765249012696"><ele>912.0</ele><time>2026-04-18T10:11:40Z</time></trkpt><trkpt lat="44.71659680629497" lon="6.596981583594678"><ele>913.0</ele><time>2026-04-18T10:11:41Z</time></trkpt><trkpt lat="44.71639923940345" lon="6.597187699824123"><ele>914.0</ele><time>2026-04-18T10:11:42Z</time></trkpt><trkpt lat="44.716197549467395" lon="6.597382727758092"><ele>912.0</ele><time>2026-04-18T10:11:43Z</time></trkpt><trkpt lat="44.71600085355135" lon="6.597584941173443"><ele>910.0</ele><time>2026-04-18T10:11:44Z</time></trkpt><trkpt lat="44.71579807801214" lon="6.597800059448933"><ele>911.0</ele><time>2026-04-18T10:11:45Z</time></trkpt><trkpt lat="44.71561130499721" lon="6.59799277467311"><ele>912.0</ele><time>2026-04-18T10:11:46Z</time></trkpt><trkpt lat="44.71541670257882" lon="6.598188764939899"><ele>910.0</ele><time>2026-04-18T10:11:47Z</time></trkpt><trkpt lat="44.715223422848034" lon="6.598381360690555"><ele>908.0</ele><time>2026-04-18T10:11:48Z</time></trkpt><trkpt lat="44.715031971481714" lon="6.5985806863636824"><ele>908.5</ele><time>2026-04-18T10:11:49Z</time></trkpt><trkpt lat="44.71485826055852" lon="6.598778378040792"><ele>909.0</ele><time>2026-04-18T10:11:50Z</time></trkpt><trkpt lat="44.714672010151446" lon="6.598965496712215"><ele>909.0</ele><time>2026-04-18T10:11:51Z</time></trkpt><trkpt lat="44.71448061535962" lon="6.599150295662342"><ele>909.0</ele><time>2026-04-18T10:11:52Z</time></trkpt><trkpt lat="44.71430095901063" lon="6.599336802707045"><ele>907.6666666666667</ele><time>2026-04-18T10:11:53Z</time></trkpt><trkpt lat="44.7141266404674" lon="6.599519606629829"><ele>906.3333333333334</ele><time>2026-04-18T10:11:54Z</time></trkpt><trkpt lat="44.71394438678838" lon="6.599697985937381"><ele>905.0</ele><time>2026-04-18T10:11:55Z</time></trkpt><trkpt lat="44.713756043231434" lon="6.5998667873347046"><ele>905.0</ele><time>2026-04-18T10:11:56Z</time></trkpt><trkpt lat="44.713576237645526" lon="6.600047517452965"><ele>905.0</ele><time>2026-04-18T10:11:57Z</time></trkpt><trkpt lat="44.713414585839715" lon="6.600234797132181"><ele>905.0</ele><time>2026-04-18T10:11:58Z</time></trkpt><trkpt lat="44.71323941432739" lon="6.600412385006436"><ele>907.3333333333334</ele><time>2026-04-18T10:11:59Z</time></trkpt><trkpt lat="44.71307454677524" lon="6.600585398583952"><ele>909.6666666666667</ele><time>2026-04-18T10:12:00Z</time></trkpt><trkpt lat="44.71291009328659" lon="6.600740794232241"><ele>912.0</ele><time>2026-04-18T10:12:01Z</time></trkpt><trkpt lat="44.712741565540995" lon="6.60090485636513"><ele>910.3333333333333</ele><time>2026-04-18T10:12:02Z</time></trkpt><trkpt lat="44.71259574395441" lon="6.601062602572163"><ele>908.6666666666666</ele><time>2026-04-18T10:12:03Z</time></trkpt><trkpt lat="44.71244163813639" lon="6.601211375025242"><ele>907.0</ele><time>2026-04-18T10:12:04Z</time></trkpt><trkpt lat="44.71228613816248" lon="6.601360678133706"><ele>908.6666666666666</ele><time>2026-04-18T10:12:05Z</time></trkpt><trkpt lat="44.71213796704694" lon="6.601519866277782"><ele>910.3333333333333</ele><time>2026-04-18T10:12:06Z</time></trkpt><trkpt lat="44.71199023677797" lon="6.601646730360842"><ele>912.0</ele><time>2026-04-18T10:12:07Z</time></trkpt><trkpt lat="44.71182904241977" lon="6.6018043164454365"><ele>912.0</ele><time>2026-04-18T10:12:08Z</time></trkpt><trkpt lat="44.71166839780253" lon="6.601948740362559"><ele>912.0</ele><time>2026-04-18T10:12:09Z</time></trkpt><trkpt lat="44.7115051227708" lon="6.602099788706056"><ele>912.0</ele><time>2026-04-18T10:12:10Z</time></trkpt><trkpt lat="44.711340491700675" lon="6.602221393072539"><ele>911.3333333333333</ele><time>2026-04-18T10:12:11Z</time></trkpt><trkpt lat="44.71116958501459" lon="6.6023299549282415"><ele>910.6666666666666</ele><time>2026-04-18T10:12:12Z</time></trkpt><trkpt lat="44.71098907373683" lon="6.602431992691376"><ele>910.0</ele><time>2026-04-18T10:12:13Z</time></trkpt><trkpt lat="44.7108120613165" lon="6.602515909676075"><ele>910.0</ele><time>2026-04-18T10:12:14Z</time></trkpt><trkpt lat="44.710616236062066" lon="6.602568806336875"><ele>910.0</ele><time>2026-04-18T10:12:15Z</time></trkpt><trkpt lat="44.710432579907376" lon="6.602648423417194"><ele>910.0</ele><time>2026-04-18T10:12:16Z</time></trkpt><trkpt lat="44.71024553710707" lon="6.602726523206782"><ele>911.0</ele><time>2026-04-18T10:12:17Z</time></trkpt><trkpt lat="44.71004960614783" lon="6.602778110723523"><ele>912.0</ele><time>2026-04-18T10:12:18Z</time></trkpt><trkpt lat="44.70985619906681" lon="6.602850285166656"><ele>913.0</ele><time>2026-04-18T10:12:19Z</time></trkpt><trkpt lat="44.709667886873085" lon="6.602920558330532"><ele>913.0</ele><time>2026-04-18T10:12:20Z</time></trkpt><trkpt lat="44.70947049132786" lon="6.602994221187202"><ele>913.0</ele><time>2026-04-18T10:12:21Z</time></trkpt><trkpt lat="44.70927932440285" lon="6.603067601061768"><ele>913.0</ele><time>2026-04-18T10:12:22Z</time></trkpt><trkpt lat="44.7090988748664" lon="6.603137063445365"><ele>910.6666666666666</ele><time>2026-04-18T10:12:23Z</time></trkpt><trkpt lat="44.70892174754058" lon="6.603205245375088"><ele>908.3333333333333</ele><time>2026-04-18T10:12:24Z</time></trkpt><trkpt lat="44.7087452206514" lon="6.603274093233358"><ele>906.0</ele><time>2026-04-18T10:12:25Z</time></trkpt><trkpt lat="44.70857028350802" lon="6.603345427716087"><ele>905.0</ele><time>2026-04-18T10:12:26Z</time></trkpt><trkpt lat="44.70839973760772" lon="6.603419493865979"><ele>904.0</ele><time>2026-04-18T10:12:27Z</time></trkpt><trkpt lat="44.70824123139044" lon="6.603493011253712"><ele>903.0</ele><time>2026-04-18T10:12:28Z</time></trkpt><trkpt lat="44.70808585153825" lon="6.603569562880181"><ele>903.0</ele><time>2026-04-18T10:12:29Z</time></trkpt><trkpt lat="44.7079348507109" lon="6.603649324631414"><ele>903.0</ele><time>2026-04-18T10:12:30Z</time></trkpt><trkpt lat="44.707801657433365" lon="6.603725441735722"><ele>903.0</ele><time>2026-04-18T10:12:31Z</time></trkpt><trkpt lat="44.70768178024176" lon="6.603818295473648"><ele>903.0</ele><time>2026-04-18T10:12:32Z</time></trkpt><trkpt lat="44.70754549370971" lon="6.6038487121879985"><ele>903.0</ele><time>2026-04-18T10:12:33Z</time></trkpt><trkpt lat="44.70742808114267" lon="6.603913248642472"><ele>903.0</ele><time>2026-04-18T10:12:34Z</time></trkpt><trkpt lat="44.7073138774153" lon="6.603989291981239"><ele>903.0</ele><time>2026-04-18T10:12:35Z</time></trkpt><trkpt lat="44.70721562702858" lon="6.604039783605394"><ele>903.0</ele><time>2026-04-18T10:12:36Z</time></trkpt><trkpt lat="44.70711927539399" lon="6.60410261478025"><ele>903.0</ele><time>2026-04-18T10:12:37Z</time></trkpt><trkpt lat="44.70703164970239" lon="6.604165625372688"><ele>903.0</ele><time>2026-04-18T10:12:38Z</time></trkpt><trkpt lat="44.706968241221894" lon="6.604234087588933"><ele>903.0</ele><time>2026-04-18T10:12:39Z</time></trkpt><trkpt lat="44.70690003943115" lon="6.60425648863159"><ele>903.0</ele><time>2026-04-18T10:12:40Z</time></trkpt><trkpt lat="44.7068411210127" lon="6.604215262578671"><ele>903.0</ele><time>2026-04-18T10:12:41Z</time></trkpt><trkpt lat="44.70675756856434" lon="6.604222176860219"><ele>903.0</ele><time>2026-04-18T10:12:42Z</time></trkpt><trkpt lat="44.70668083639577" lon="6.604249560668582"><ele>903.0</ele><time>2026-04-18T10:12:43Z</time></trkpt><trkpt lat="44.70659688597877" lon="6.604296237270208"><ele>903.0</ele><time>2026-04-18T10:12:44Z</time></trkpt><trkpt lat="44.70652664958061" lon="6.604381704724426"><ele>903.0</ele><time>2026-04-18T10:12:45Z</time></trkpt><trkpt lat="44.70645794214342" lon="6.604479045868172"><ele>903.0</ele><time>2026-04-18T10:12:46Z</time></trkpt><trkpt lat="44.7063700072756" lon="6.604545222269791"><ele>903.0</ele><time>2026-04-18T10:12:47Z</time></trkpt><trkpt lat="44.70624327225073" lon="6.604602935625761"><ele>903.3333333333333</ele><time>2026-04-18T10:12:48Z</time></trkpt><trkpt lat="44.70611474039181" lon="6.60467104982307"><ele>903.6666666666666</ele><time>2026-04-18T10:12:49Z</time></trkpt><trkpt lat="44.70596364028698" lon="6.604778002143618"><ele>904.0</ele><time>2026-04-18T10:12:50Z</time></trkpt><trkpt lat="44.70582545815522" lon="6.604871801769414"><ele>903.25</ele><time>2026-04-18T10:12:51Z</time></trkpt><trkpt lat="44.70570099126703" lon="6.604945712356269"><ele>902.5</ele><time>2026-04-18T10:12:52Z</time></trkpt><trkpt lat="44.70556099853419" lon="6.60503625808769"><ele>901.75</ele><time>2026-04-18T10:12:53Z</time></trkpt><trkpt lat="44.70544049617484" lon="6.605149960780423"><ele>901.0</ele><time>2026-04-18T10:12:54Z</time></trkpt><trkpt lat="44.7053027341896" lon="6.6052521073786785"><ele>902.3333333333333</ele><time>2026-04-18T10:12:55Z</time></trkpt><trkpt lat="44.705173761556566" lon="6.605349350199015"><ele>903.6666666666667</ele><time>2026-04-18T10:12:56Z</time></trkpt><trkpt lat="44.70502373255928" lon="6.60546337105149"><ele>905.0</ele><time>2026-04-18T10:12:57Z</time></trkpt><trkpt lat="44.70488429357297" lon="6.605562836346933"><ele>905.0</ele><time>2026-04-18T10:12:58Z</time></trkpt><trkpt lat="44.7047340814308" lon="6.605673798777013"><ele>905.0</ele><time>2026-04-18T10:12:59Z</time></trkpt><trkpt lat="44.70459023755757" lon="6.605797786581859"><ele>905.0</ele><time>2026-04-18T10:13:00Z</time></trkpt><trkpt lat="44.70441359416898" lon="6.605964785621998"><ele>905.0</ele><time>2026-04-18T10:13:01Z</time></trkpt><trkpt lat="44.7042650869988" lon="6.6060947794473135"><ele>905.0</ele><time>2026-04-18T10:13:02Z</time></trkpt><trkpt lat="44.704121809445674" lon="6.606231002931803"><ele>905.0</ele><time>2026-04-18T10:13:03Z</time></trkpt><trkpt lat="44.70396565641696" lon="6.606373378039554"><ele>904.6666666666667</ele><time>2026-04-18T10:13:04Z</time></trkpt><trkpt lat="44.70383790714487" lon="6.60648134844948"><ele>904.3333333333333</ele><time>2026-04-18T10:13:05Z</time></trkpt><trkpt lat="44.70371389251441" lon="6.606586870316147"><ele>904.0</ele><time>2026-04-18T10:13:06Z</time></trkpt><trkpt lat="44.70357081003848" lon="6.60670297774942"><ele>904.0</ele><time>2026-04-18T10:13:07Z</time></trkpt><trkpt lat="44.70344227663107" lon="6.606818437395108"><ele>904.0</ele><time>2026-04-18T10:13:08Z</time></trkpt><trkpt lat="44.70330322390962" lon="6.606956282057662"><ele>904.0</ele><time>2026-04-18T10:13:09Z</time></trkpt><trkpt lat="44.703169419713866" lon="6.607075102619898"><ele>904.3333333333333</ele><time>2026-04-18T10:13:10Z</time></trkpt><trkpt lat="44.703029774960896" lon="6.607199682686847"><ele>904.6666666666667</ele><time>2026-04-18T10:13:11Z</time></trkpt><trkpt lat="44.70288662595371" lon="6.607321037188782"><ele>905.0</ele><time>2026-04-18T10:13:12Z</time></trkpt><trkpt lat="44.702741928084315" lon="6.607431148499939"><ele>905.0</ele><time>2026-04-18T10:13:13Z</time></trkpt><trkpt lat="44.702610992444754" lon="6.607536456347522"><ele>905.0</ele><time>2026-04-18T10:13:14Z</time></trkpt><trkpt lat="44.70246450075202" lon="6.607646842732326"><ele>905.0</ele><time>2026-04-18T10:13:15Z</time></trkpt><trkpt lat="44.70232031573125" lon="6.607761382343555"><ele>905.3333333333334</ele><time>2026-04-18T10:13:16Z</time></trkpt><trkpt lat="44.70216760098256" lon="6.607866717649014"><ele>905.6666666666667</ele><time>2026-04-18T10:13:17Z</time></trkpt><trkpt lat="44.70202426251476" lon="6.608012450421617"><ele>906.0</ele><time>2026-04-18T10:13:18Z</time></trkpt><trkpt lat="44.70186266719879" lon="6.6081619235636735"><ele>905.3333333333333</ele><time>2026-04-18T10:13:19Z</time></trkpt><trkpt lat="44.701698979187604" lon="6.608287851494825"><ele>904.6666666666666</ele><time>2026-04-18T10:13:20Z</time></trkpt><trkpt lat="44.70153945827912" lon="6.60841378760866"><ele>904.0</ele><time>2026-04-18T10:13:21Z</time></trkpt><trkpt lat="44.70139038687186" lon="6.608538717537405"><ele>903.3333333333333</ele><time>2026-04-18T10:13:22Z</time></trkpt><trkpt lat="44.70122830137249" lon="6.60867009995551"><ele>902.6666666666667</ele><time>2026-04-18T10:13:23Z</time></trkpt><trkpt lat="44.70107133025133" lon="6.6088041714886"><ele>902.0</ele><time>2026-04-18T10:13:24Z</time></trkpt><trkpt lat="44.700915584794394" lon="6.6089322888189335"><ele>902.0</ele><time>2026-04-18T10:13:25Z</time></trkpt><trkpt lat="44.70075262471669" lon="6.609087384788497"><ele>902.0</ele><time>2026-04-18T10:13:26Z</time></trkpt><trkpt lat="44.70059200221807" lon="6.609232286317988"><ele>902.0</ele><time>2026-04-18T10:13:27Z</time></trkpt><trkpt lat="44.7004468651042" lon="6.609363167010082"><ele>902.0</ele><time>2026-04-18T10:13:28Z</time></trkpt><trkpt lat="44.700280489954224" lon="6.609494385381549"><ele>902.0</ele><time>2026-04-18T10:13:29Z</time></trkpt><trkpt lat="44.7001230406416" lon="6.609591663563952"><ele>902.0</ele><time>2026-04-18T10:13:30Z</time></trkpt><trkpt lat="44.69996589320036" lon="6.609691567681615"><ele>902.0</ele><time>2026-04-18T10:13:31Z</time></trkpt><trkpt lat="44.69980294114731" lon="6.609800500620047"><ele>902.0</ele><time>2026-04-18T10:13:32Z</time></trkpt><trkpt lat="44.699640488310294" lon="6.609889941913913"><ele>902.0</ele><time>2026-04-18T10:13:33Z</time></trkpt><trkpt lat="44.69946133711889" lon="6.60997504606388"><ele>901.6666666666667</ele><time>2026-04-18T10:13:34Z</time></trkpt><trkpt lat="44.699280589583665" lon="6.610039213739887"><ele>901.3333333333333</ele><time>2026-04-18T10:13:35Z</time></trkpt><trkpt lat="44.699097896272924" lon="6.610118514587526"><ele>901.0</ele><time>2026-04-18T10:13:36Z</time></trkpt><trkpt lat="44.698906041924765" lon="6.610168114017014"><ele>901.0</ele><time>2026-04-18T10:13:37Z</time></trkpt><trkpt lat="44.69874084290124" lon="6.610216599545798"><ele>901.0</ele><time>2026-04-18T10:13:38Z</time></trkpt><trkpt lat="44.69855876048302" lon="6.610270485595703"><ele>901.0</ele><time>2026-04-18T10:13:39Z</time></trkpt><trkpt lat="44.69837601162702" lon="6.61032456887247"><ele>902.3333333333333</ele><time>2026-04-18T10:13:40Z</time></trkpt><trkpt lat="44.69820135089172" lon="6.610399449476056"><ele>903.6666666666667</ele><time>2026-04-18T10:13:41Z</time></trkpt><trkpt lat="44.698024602704685" lon="6.610439776876952"><ele>905.0</ele><time>2026-04-18T10:13:42Z</time></trkpt><trkpt lat="44.69785835327066" lon="6.610490249796258"><ele>905.0</ele><time>2026-04-18T10:13:43Z</time></trkpt><trkpt lat="44.69768444987019" lon="6.610535298783083"><ele>905.0</ele><time>2026-04-18T10:13:44Z</time></trkpt><trkpt lat="44.69750513695146" lon="6.61057751481287"><ele>905.0</ele><time>2026-04-18T10:13:45Z</time></trkpt><trkpt lat="44.69733155571238" lon="6.610622849457148"><ele>905.0</ele><time>2026-04-18T10:13:46Z</time></trkpt><trkpt lat="44.69714757540335" lon="6.6106797527503565"><ele>905.0</ele><time>2026-04-18T10:13:47Z</time></trkpt><trkpt lat="44.696971532919136" lon="6.610729456660837"><ele>905.0</ele><time>2026-04-18T10:13:48Z</time></trkpt><trkpt lat="44.69678260930428" lon="6.610786293662049"><ele>905.3333333333334</ele><time>2026-04-18T10:13:49Z</time></trkpt><trkpt lat="44.69659655255338" lon="6.610834180595519"><ele>905.6666666666667</ele><time>2026-04-18T10:13:50Z</time></trkpt><trkpt lat="44.69640624495792" lon="6.610891984386596"><ele>906.0</ele><time>2026-04-18T10:13:51Z</time></trkpt><trkpt lat="44.69622145678821" lon="6.610952271919499"><ele>906.6666666666667</ele><time>2026-04-18T10:13:52Z</time></trkpt><trkpt lat="44.69604861959683" lon="6.6110055194160475"><ele>907.3333333333334</ele><time>2026-04-18T10:13:53Z</time></trkpt><trkpt lat="44.69587551945116" lon="6.611051553720786"><ele>908.0</ele><time>2026-04-18T10:13:54Z</time></trkpt><trkpt lat="44.69570644908187" lon="6.61111051071754"><ele>909.3333333333334</ele><time>2026-04-18T10:13:55Z</time></trkpt><trkpt lat="44.69553417237425" lon="6.611161232233937"><ele>910.6666666666667</ele><time>2026-04-18T10:13:56Z</time></trkpt><trkpt lat="44.69537024109742" lon="6.611208725913411"><ele>912.0</ele><time>2026-04-18T10:13:57Z</time></trkpt><trkpt lat="44.695201201444746" lon="6.611233533724927"><ele>914.0</ele><time>2026-04-18T10:13:58Z</time></trkpt><trkpt lat="44.695038554744976" lon="6.611280109798989"><ele>916.0</ele><time>2026-04-18T10:13:59Z</time></trkpt><trkpt lat="44.69487635400192" lon="6.611335826746153"><ele>918.0</ele><time>2026-04-18T10:14:00Z</time></trkpt><trkpt lat="44.69470324722046" lon="6.611376357216571"><ele>918.0</ele><time>2026-04-18T10:14:01Z</time></trkpt><trkpt lat="44.69452630644269" lon="6.611431503320348"><ele>918.0</ele><time>2026-04-18T10:14:02Z</time></trkpt><trkpt lat="44.69433739964894" lon="6.611499413309622"><ele>918.0</ele><time>2026-04-18T10:14:03Z</time></trkpt><trkpt lat="44.69416129300567" lon="6.61154703866535"><ele>918.3333333333333</ele><time>2026-04-18T10:14:04Z</time></trkpt><trkpt lat="44.693978211695246" lon="6.611600684998725"><ele>918.6666666666666</ele><time>2026-04-18T10:14:05Z</time></trkpt><trkpt lat="44.69379194626694" lon="6.6116498109457975"><ele>919.0</ele><time>2026-04-18T10:14:06Z</time></trkpt><trkpt lat="44.693613069781094" lon="6.611697795552749"><ele>919.6666666666666</ele><time>2026-04-18T10:14:07Z</time></trkpt><trkpt lat="44.69341861003793" lon="6.611753345293959"><ele>920.3333333333333</ele><time>2026-04-18T10:14:08Z</time></trkpt><trkpt lat="44.69322646465871" lon="6.611809333687912"><ele>921.0</ele><time>2026-04-18T10:14:09Z</time></trkpt><trkpt lat="44.693035703914745" lon="6.611850115116097"><ele>921.0</ele><time>2026-04-18T10:14:10Z</time></trkpt><trkpt lat="44.69285110927183" lon="6.6119019529780525"><ele>921.0</ele><time>2026-04-18T10:14:11Z</time></trkpt><trkpt lat="44.692657809534076" lon="6.611956341000649"><ele>921.0</ele><time>2026-04-18T10:14:12Z</time></trkpt><trkpt lat="44.692469993099344" lon="6.612010462425602"><ele>923.0</ele><time>2026-04-18T10:14:13Z</time></trkpt><trkpt lat="44.69229296230042" lon="6.612080699647102"><ele>925.0</ele><time>2026-04-18T10:14:14Z</time></trkpt><trkpt lat="44.692105056440795" lon="6.612120881606139"><ele>927.0</ele><time>2026-04-18T10:14:15Z</time></trkpt><trkpt lat="44.69191467860896" lon="6.612174870167361"><ele>927.0</ele><time>2026-04-18T10:14:16Z</time></trkpt><trkpt lat="44.69172872052411" lon="6.612231723524589"><ele>927.0</ele><time>2026-04-18T10:14:17Z</time></trkpt><trkpt lat="44.691547481951254" lon="6.612288216096477"><ele>927.0</ele><time>2026-04-18T10:14:18Z</time></trkpt><trkpt lat="44.69136957894399" lon="6.612343518090302"><ele>927.0</ele><time>2026-04-18T10:14:19Z</time></trkpt><trkpt lat="44.69118810146629" lon="6.612407483869246"><ele>927.0</ele><time>2026-04-18T10:14:20Z</time></trkpt><trkpt lat="44.691014143744376" lon="6.61243287659062"><ele>927.0</ele><time>2026-04-18T10:14:21Z</time></trkpt><trkpt lat="44.690851881984756" lon="6.612494246006427"><ele>926.6666666666667</ele><time>2026-04-18T10:14:22Z</time></trkpt><trkpt lat="44.690678389926205" lon="6.612541342809396"><ele>926.3333333333334</ele><time>2026-04-18T10:14:23Z</time></trkpt><trkpt lat="44.69051230689297" lon="6.6125913481119785"><ele>926.0</ele><time>2026-04-18T10:14:24Z</time></trkpt><trkpt lat="44.6903449143087" lon="6.612644954257179"><ele>926.3333333333334</ele><time>2026-04-18T10:14:25Z</time></trkpt><trkpt lat="44.69017994452525" lon="6.612686968649153"><ele>926.6666666666667</ele><time>2026-04-18T10:14:26Z</time></trkpt><trkpt lat="44.69001601661964" lon="6.612739535648151"><ele>927.0</ele><time>2026-04-18T10:14:27Z</time></trkpt><trkpt lat="44.68985557667051" lon="6.612789332815954"><ele>926.6666666666667</ele><time>2026-04-18T10:14:28Z</time></trkpt><trkpt lat="44.68969697557928" lon="6.612832412672963"><ele>926.3333333333334</ele><time>2026-04-18T10:14:29Z</time></trkpt><trkpt lat="44.68954019255403" lon="6.612878632707898"><ele>926.0</ele><time>2026-04-18T10:14:30Z</time></trkpt><trkpt lat="44.68938046244926" lon="6.612915788403404"><ele>926.0</ele><time>2026-04-18T10:14:31Z</time></trkpt><trkpt lat="44.68921126065514" lon="6.612974623390839"><ele>926.0</ele><time>2026-04-18T10:14:32Z</time></trkpt><trkpt lat="44.689042706945635" lon="6.613025421610432"><ele>926.0</ele><time>2026-04-18T10:14:33Z</time></trkpt><trkpt lat="44.68887268874214" lon="6.613072233334208"><ele>926.0</ele><time>2026-04-18T10:14:34Z</time></trkpt><trkpt lat="44.68869296601857" lon="6.6131281235206005"><ele>926.0</ele><time>2026-04-18T10:14:35Z</time></trkpt><trkpt lat="44.688525037248844" lon="6.6131793461097015"><ele>926.0</ele><time>2026-04-18T10:14:36Z</time></trkpt><trkpt lat="44.688360128684145" lon="6.613221972680056"><ele>923.0</ele><time>2026-04-18T10:14:37Z</time></trkpt><trkpt lat="44.688185855409614" lon="6.613276041141576"><ele>920.0</ele><time>2026-04-18T10:14:38Z</time></trkpt><trkpt lat="44.68801203186686" lon="6.61332274654917"><ele>917.0</ele><time>2026-04-18T10:14:39Z</time></trkpt><trkpt lat="44.68784199047043" lon="6.613369538194921"><ele>917.0</ele><time>2026-04-18T10:14:40Z</time></trkpt><trkpt lat="44.687666033196656" lon="6.613421981379149"><ele>917.0</ele><time>2026-04-18T10:14:41Z</time></trkpt><trkpt lat="44.68750331337518" lon="6.613467769754376"><ele>917.0</ele><time>2026-04-18T10:14:42Z</time></trkpt><trkpt lat="44.6873434641364" lon="6.613505111731169"><ele>917.0</ele><time>2026-04-18T10:14:43Z</time></trkpt><trkpt lat="44.68717450057728" lon="6.613548755725353"><ele>917.0</ele><time>2026-04-18T10:14:44Z</time></trkpt><trkpt lat="44.687010740864864" lon="6.613598597906768"><ele>917.0</ele><time>2026-04-18T10:14:45Z</time></trkpt><trkpt lat="44.68684493066835" lon="6.613643802951223"><ele>916.0</ele><time>2026-04-18T10:14:46Z</time></trkpt><trkpt lat="44.686671716837445" lon="6.613692911043555"><ele>915.0</ele><time>2026-04-18T10:14:47Z</time></trkpt><trkpt lat="44.686500772483996" lon="6.613738431512762"><ele>914.0</ele><time>2026-04-18T10:14:48Z</time></trkpt><trkpt lat="44.686329545559076" lon="6.6137821072480225"><ele>914.0</ele><time>2026-04-18T10:14:49Z</time></trkpt><trkpt lat="44.68615051880028" lon="6.613841064207835"><ele>914.0</ele><time>2026-04-18T10:14:50Z</time></trkpt><trkpt lat="44.6859689224435" lon="6.613895869198401"><ele>914.0</ele><time>2026-04-18T10:14:51Z</time></trkpt><trkpt lat="44.68579420588062" lon="6.613942497107131"><ele>911.6666666666667</ele><time>2026-04-18T10:14:52Z</time></trkpt><trkpt lat="44.68561352383072" lon="6.61400079087869"><ele>909.3333333333333</ele><time>2026-04-18T10:14:53Z</time></trkpt><trkpt lat="44.685430948679226" lon="6.614045081326648"><ele>907.0</ele><time>2026-04-18T10:14:54Z</time></trkpt><trkpt lat="44.68524204895962" lon="6.614099583623278"><ele>906.0</ele><time>2026-04-18T10:14:55Z</time></trkpt><trkpt lat="44.685064649477056" lon="6.614153964978306"><ele>905.0</ele><time>2026-04-18T10:14:56Z</time></trkpt><trkpt lat="44.684899521821116" lon="6.614197795585246"><ele>904.0</ele><time>2026-04-18T10:14:57Z</time></trkpt><trkpt lat="44.68473403135935" lon="6.6142558569270085"><ele>904.0</ele><time>2026-04-18T10:14:58Z</time></trkpt><trkpt lat="44.684569791855985" lon="6.614315267678552"><ele>904.0</ele><time>2026-04-18T10:14:59Z</time></trkpt><trkpt lat="44.68439765476594" lon="6.614356658254696"><ele>904.0</ele><time>2026-04-18T10:15:00Z</time></trkpt><trkpt lat="44.68422941815948" lon="6.614405212768816"><ele>903.6666666666666</ele><time>2026-04-18T10:15:01Z</time></trkpt><trkpt lat="44.684055495513334" lon="6.614462575612597"><ele>903.3333333333333</ele><time>2026-04-18T10:15:02Z</time></trkpt><trkpt lat="44.68388434200822" lon="6.614515960879853"><ele>903.0</ele><time>2026-04-18T10:15:03Z</time></trkpt><trkpt lat="44.6837183295824" lon="6.614556676725028"><ele>902.0</ele><time>2026-04-18T10:15:04Z</time></trkpt><trkpt lat="44.68354077575663" lon="6.614619673638223"><ele>901.0</ele><time>2026-04-18T10:15:05Z</time></trkpt><trkpt lat="44.6833772657237" lon="6.6146686250241045"><ele>900.0</ele><time>2026-04-18T10:15:06Z</time></trkpt><trkpt lat="44.68320971438493" lon="6.614711664222175"><ele>900.0</ele><time>2026-04-18T10:15:07Z</time></trkpt><trkpt lat="44.68303300048715" lon="6.6147453366308495"><ele>900.0</ele><time>2026-04-18T10:15:08Z</time></trkpt><trkpt lat="44.68286256501926" lon="6.614794522034645"><ele>900.0</ele><time>2026-04-18T10:15:09Z</time></trkpt><trkpt lat="44.68268588130258" lon="6.61484551058515"><ele>899.3333333333333</ele><time>2026-04-18T10:15:10Z</time></trkpt><trkpt lat="44.68251324712194" lon="6.6148953305250435"><ele>898.6666666666666</ele><time>2026-04-18T10:15:11Z</time></trkpt><trkpt lat="44.6823407873483" lon="6.614945100117683"><ele>898.0</ele><time>2026-04-18T10:15:12Z</time></trkpt><trkpt lat="44.682164328389504" lon="6.615016524121784"><ele>898.0</ele><time>2026-04-18T10:15:13Z</time></trkpt><trkpt lat="44.68198573766714" lon="6.615047562734138"><ele>898.0</ele><time>2026-04-18T10:15:14Z</time></trkpt><trkpt lat="44.68181563633398" lon="6.615096696162117"><ele>898.0</ele><time>2026-04-18T10:15:15Z</time></trkpt><trkpt lat="44.68164364693162" lon="6.615146697887631"><ele>895.0</ele><time>2026-04-18T10:15:16Z</time></trkpt><trkpt lat="44.68146218690345" lon="6.615199452927821"><ele>892.0</ele><time>2026-04-18T10:15:17Z</time></trkpt><trkpt lat="44.68127669888349" lon="6.6152533944709075"><ele>889.0</ele><time>2026-04-18T10:15:18Z</time></trkpt><trkpt lat="44.68109608789175" lon="6.615306085977366"><ele>888.6666666666666</ele><time>2026-04-18T10:15:19Z</time></trkpt><trkpt lat="44.68091639421364" lon="6.615358509887691"><ele>888.3333333333333</ele><time>2026-04-18T10:15:20Z</time></trkpt><trkpt lat="44.680750740072554" lon="6.615406837897086"><ele>888.0</ele><time>2026-04-18T10:15:21Z</time></trkpt><trkpt lat="44.6805812864295" lon="6.615456274385799"><ele>888.0</ele><time>2026-04-18T10:15:22Z</time></trkpt><trkpt lat="44.68041865929186" lon="6.615503719305062"><ele>888.0</ele><time>2026-04-18T10:15:23Z</time></trkpt><trkpt lat="44.68024951807615" lon="6.615553065275667"><ele>888.0</ele><time>2026-04-18T10:15:24Z</time></trkpt><trkpt lat="44.680083571323806" lon="6.615601478652576"><ele>888.0</ele><time>2026-04-18T10:15:25Z</time></trkpt><trkpt lat="44.67990999376278" lon="6.6156521182509485"><ele>888.0</ele><time>2026-04-18T10:15:26Z</time></trkpt><trkpt lat="44.67973814100739" lon="6.615702254650172"><ele>888.0</ele><time>2026-04-18T10:15:27Z</time></trkpt><trkpt lat="44.67957189384327" lon="6.615750597819426"><ele>888.3333333333333</ele><time>2026-04-18T10:15:28Z</time></trkpt><trkpt lat="44.67940820724575" lon="6.61579816569704"><ele>888.6666666666666</ele><time>2026-04-18T10:15:29Z</time></trkpt><trkpt lat="44.67926398364935" lon="6.61584007755741"><ele>889.0</ele><time>2026-04-18T10:15:30Z</time></trkpt><trkpt lat="44.679127853562925" lon="6.615879637423192"><ele>889.0</ele><time>2026-04-18T10:15:31Z</time></trkpt><trkpt lat="44.67898973967954" lon="6.615919773783443"><ele>889.0</ele><time>2026-04-18T10:15:32Z</time></trkpt><trkpt lat="44.6788506827097" lon="6.615960184204879"><ele>889.0</ele><time>2026-04-18T10:15:33Z</time></trkpt><trkpt lat="44.6787206040311" lon="6.615997985503945"><ele>889.0</ele><time>2026-04-18T10:15:34Z</time></trkpt><trkpt lat="44.67858862618119" lon="6.616058524938296"><ele>888.75</ele><time>2026-04-18T10:15:35Z</time></trkpt><trkpt lat="44.67845279512674" lon="6.616071187909802"><ele>888.5</ele><time>2026-04-18T10:15:36Z</time></trkpt><trkpt lat="44.678320706058514" lon="6.616105594060138"><ele>888.25</ele><time>2026-04-18T10:15:37Z</time></trkpt><trkpt lat="44.67818496559448" lon="6.616154740074629"><ele>888.0</ele><time>2026-04-18T10:15:38Z</time></trkpt><trkpt lat="44.67805744559477" lon="6.61619020917968"><ele>888.25</ele><time>2026-04-18T10:15:39Z</time></trkpt><trkpt lat="44.677932786602504" lon="6.616232401526981"><ele>888.5</ele><time>2026-04-18T10:15:40Z</time></trkpt><trkpt lat="44.67781221040252" lon="6.616266306368298"><ele>888.75</ele><time>2026-04-18T10:15:41Z</time></trkpt><trkpt lat="44.67769639825304" lon="6.616305816679186"><ele>889.0</ele><time>2026-04-18T10:15:42Z</time></trkpt><trkpt lat="44.677588794064995" lon="6.6163370869902405"><ele>889.0</ele><time>2026-04-18T10:15:43Z</time></trkpt><trkpt lat="44.6774809061881" lon="6.6163702227010965"><ele>889.0000000000001</ele><time>2026-04-18T10:15:44Z</time></trkpt><trkpt lat="44.67737265313709" lon="6.616394878067078"><ele>889.0000000000001</ele><time>2026-04-18T10:15:45Z</time></trkpt><trkpt lat="44.677268578150304" lon="6.616426695973077"><ele>889.0</ele><time>2026-04-18T10:15:46Z</time></trkpt><trkpt lat="44.677161875307625" lon="6.6164636021609295"><ele>889.0</ele><time>2026-04-18T10:15:47Z</time></trkpt><trkpt lat="44.67705768998232" lon="6.616492672502718"><ele>889.0</ele><time>2026-04-18T10:15:48Z</time></trkpt><trkpt lat="44.6769487692532" lon="6.616524375348607"><ele>889.0000000000001</ele><time>2026-04-18T10:15:49Z</time></trkpt><trkpt lat="44.67685057571586" lon="6.61655499487942"><ele>889.0000000000001</ele><time>2026-04-18T10:15:50Z</time></trkpt><trkpt lat="44.67675598401117" lon="6.616597178611471"><ele>889.0</ele><time>2026-04-18T10:15:51Z</time></trkpt><trkpt lat="44.67665084612659" lon="6.61659593273927"><ele>889.0</ele><time>2026-04-18T10:15:52Z</time></trkpt><trkpt lat="44.67654562471329" lon="6.6166280327320965"><ele>888.75</ele><time>2026-04-18T10:15:53Z</time></trkpt><trkpt lat="44.676405101144425" lon="6.616647591498858"><ele>888.5</ele><time>2026-04-18T10:15:54Z</time></trkpt><trkpt lat="44.676276626597996" lon="6.616670069537246"><ele>888.25</ele><time>2026-04-18T10:15:55Z</time></trkpt><trkpt lat="44.67617280739002" lon="6.616680612447078"><ele>888.0</ele><time>2026-04-18T10:15:56Z</time></trkpt><trkpt lat="44.67605469466" lon="6.616707977792105"><ele>887.75</ele><time>2026-04-18T10:15:57Z</time></trkpt><trkpt lat="44.67593569042642" lon="6.616735027266682"><ele>887.5</ele><time>2026-04-18T10:15:58Z</time></trkpt><trkpt lat="44.67581884798317" lon="6.6167796583468"><ele>887.25</ele><time>2026-04-18T10:15:59Z</time></trkpt><trkpt lat="44.67568210972262" lon="6.61683930864128"><ele>887.0</ele><time>2026-04-18T10:16:00Z</time></trkpt><trkpt lat="44.675563782154725" lon="6.616890508106599"><ele>887.0</ele><time>2026-04-18T10:16:01Z</time></trkpt><trkpt lat="44.67545576256165" lon="6.61694160479399"><ele>887.0</ele><time>2026-04-18T10:16:02Z</time></trkpt><trkpt lat="44.67535348290275" lon="6.6169722197509016"><ele>887.0</ele><time>2026-04-18T10:16:03Z</time></trkpt><trkpt lat="44.67524565152398" lon="6.617007162303319"><ele>887.0</ele><time>2026-04-18T10:16:04Z</time></trkpt><trkpt lat="44.67514603881706" lon="6.617033205339615"><ele>887.0</ele><time>2026-04-18T10:16:05Z</time></trkpt><trkpt lat="44.67503921441835" lon="6.6170700505971105"><ele>887.25</ele><time>2026-04-18T10:16:06Z</time></trkpt><trkpt lat="44.67493004447314" lon="6.617111359987476"><ele>887.5</ele><time>2026-04-18T10:16:07Z</time></trkpt><trkpt lat="44.674810602873414" lon="6.617137129509648"><ele>887.75</ele><time>2026-04-18T10:16:08Z</time></trkpt><trkpt lat="44.67469091537341" lon="6.617166613946482"><ele>888.0</ele><time>2026-04-18T10:16:09Z</time></trkpt><trkpt lat="44.67455467424293" lon="6.617205591935547"><ele>888.0</ele><time>2026-04-18T10:16:10Z</time></trkpt><trkpt lat="44.674407279173614" lon="6.617255765340975"><ele>888.0</ele><time>2026-04-18T10:16:11Z</time></trkpt><trkpt lat="44.674275397864115" lon="6.617290747045895"><ele>888.0</ele><time>2026-04-18T10:16:12Z</time></trkpt><trkpt lat="44.6741538903033" lon="6.617318751405148"><ele>888.0</ele><time>2026-04-18T10:16:13Z</time></trkpt><trkpt lat="44.6740381515183" lon="6.617353226917909"><ele>888.0</ele><time>2026-04-18T10:16:14Z</time></trkpt><trkpt lat="44.67390983035001" lon="6.617381257858793"><ele>888.0</ele><time>2026-04-18T10:16:15Z</time></trkpt><trkpt lat="44.673783567578695" lon="6.617432266098755"><ele>888.0</ele><time>2026-04-18T10:16:16Z</time></trkpt><trkpt lat="44.67365472114638" lon="6.617449227080347"><ele>888.0</ele><time>2026-04-18T10:16:17Z</time></trkpt><trkpt lat="44.67354357979558" lon="6.617444322869838"><ele>888.0</ele><time>2026-04-18T10:16:18Z</time></trkpt><trkpt lat="44.67344171188484" lon="6.617488620007116"><ele>888.0</ele><time>2026-04-18T10:16:19Z</time></trkpt><trkpt lat="44.67334364377791" lon="6.617526062132603"><ele>888.0</ele><time>2026-04-18T10:16:20Z</time></trkpt><trkpt lat="44.67326018406545" lon="6.617556876692842"><ele>888.0</ele><time>2026-04-18T10:16:21Z</time></trkpt><trkpt lat="44.67317015269918" lon="6.6175978768303585"><ele>888.0</ele><time>2026-04-18T10:16:22Z</time></trkpt><trkpt lat="44.673093755399805" lon="6.617617888022866"><ele>888.0</ele><time>2026-04-18T10:16:23Z</time></trkpt><trkpt lat="44.6730158455184" lon="6.617639100554436"><ele>888.0</ele><time>2026-04-18T10:16:24Z</time></trkpt><trkpt lat="44.67291931392434" lon="6.617681290990926"><ele>888.0</ele><time>2026-04-18T10:16:25Z</time></trkpt><trkpt lat="44.67284234307107" lon="6.617698213062774"><ele>888.0</ele><time>2026-04-18T10:16:26Z</time></trkpt><trkpt lat="44.67275687973665" lon="6.617721347244207"><ele>888.0</ele><time>2026-04-18T10:16:27Z</time></trkpt><trkpt lat="44.67268865897948" lon="6.617744343930373"><ele>888.0</ele><time>2026-04-18T10:16:28Z</time></trkpt><trkpt lat="44.67258284463869" lon="6.617780600222679"><ele>888.0</ele><time>2026-04-18T10:16:30Z</time></trkpt><trkpt lat="44.67250755515453" lon="6.617804617815101"><ele>888.0</ele><time>2026-04-18T10:16:32Z</time></trkpt><trkpt lat="44.672395508356445" lon="6.617773771417779"><ele>888.0</ele><time>2026-04-18T10:16:34Z</time></trkpt><trkpt lat="44.67233364592258" lon="6.617809374395933"><ele>888.0</ele><time>2026-04-18T10:16:35Z</time></trkpt><trkpt lat="44.67225757914454" lon="6.617843336256355"><ele>888.0</ele><time>2026-04-18T10:16:36Z</time></trkpt><trkpt lat="44.67219219423687" lon="6.6178688802578325"><ele>888.0</ele><time>2026-04-18T10:16:37Z</time></trkpt><trkpt lat="44.672115535576495" lon="6.617898665232189"><ele>888.0</ele><time>2026-04-18T10:16:38Z</time></trkpt><trkpt lat="44.672023755317376" lon="6.617946580764226"><ele>888.0</ele><time>2026-04-18T10:16:39Z</time></trkpt><trkpt lat="44.67193441960897" lon="6.617956734682368"><ele>888.0</ele><time>2026-04-18T10:16:40Z</time></trkpt><trkpt lat="44.671844510747185" lon="6.617981302528392"><ele>888.0</ele><time>2026-04-18T10:16:41Z</time></trkpt><trkpt lat="44.671749026641116" lon="6.618020768416378"><ele>888.0</ele><time>2026-04-18T10:16:42Z</time></trkpt><trkpt lat="44.671649275693916" lon="6.618066707763905"><ele>888.75</ele><time>2026-04-18T10:16:43Z</time></trkpt><trkpt lat="44.671538431167725" lon="6.618139045578098"><ele>889.5</ele><time>2026-04-18T10:16:44Z</time></trkpt><trkpt lat="44.67142962435804" lon="6.618190235807965"><ele>890.25</ele><time>2026-04-18T10:16:45Z</time></trkpt><trkpt lat="44.67131477372456" lon="6.6182242966819205"><ele>891.0</ele><time>2026-04-18T10:16:46Z</time></trkpt><trkpt lat="44.67118964295306" lon="6.618229606376191"><ele>890.75</ele><time>2026-04-18T10:16:47Z</time></trkpt><trkpt lat="44.67106183854424" lon="6.618233129612487"><ele>890.5</ele><time>2026-04-18T10:16:48Z</time></trkpt><trkpt lat="44.67092505224211" lon="6.6182591083871545"><ele>890.25</ele><time>2026-04-18T10:16:49Z</time></trkpt><trkpt lat="44.670790466118035" lon="6.618293332857104"><ele>890.0</ele><time>2026-04-18T10:16:50Z</time></trkpt><trkpt lat="44.67065295135567" lon="6.618328666608881"><ele>890.0</ele><time>2026-04-18T10:16:51Z</time></trkpt><trkpt lat="44.67051731825862" lon="6.618390062163573"><ele>890.0</ele><time>2026-04-18T10:16:52Z</time></trkpt><trkpt lat="44.67037349542179" lon="6.618399757057604"><ele>890.0</ele><time>2026-04-18T10:16:53Z</time></trkpt><trkpt lat="44.67022371496388" lon="6.618425564979455"><ele>890.0</ele><time>2026-04-18T10:16:54Z</time></trkpt><trkpt lat="44.67007504280011" lon="6.618445068084178"><ele>889.25</ele><time>2026-04-18T10:16:55Z</time></trkpt><trkpt lat="44.66993012367313" lon="6.618459308358394"><ele>888.5</ele><time>2026-04-18T10:16:56Z</time></trkpt><trkpt lat="44.66977817481019" lon="6.61846830577503"><ele>887.75</ele><time>2026-04-18T10:16:57Z</time></trkpt><trkpt lat="44.66962799158897" lon="6.618467774557798"><ele>887.0</ele><time>2026-04-18T10:16:58Z</time></trkpt><trkpt lat="44.669474624271494" lon="6.6184590954392215"><ele>887.3333333333334</ele><time>2026-04-18T10:16:59Z</time></trkpt><trkpt lat="44.66932229260528" lon="6.618441475401928"><ele>887.6666666666667</ele><time>2026-04-18T10:17:00Z</time></trkpt><trkpt lat="44.66916300797886" lon="6.618415194693951"><ele>888.0</ele><time>2026-04-18T10:17:01Z</time></trkpt><trkpt lat="44.669013881430644" lon="6.618385670330742"><ele>888.0</ele><time>2026-04-18T10:17:02Z</time></trkpt><trkpt lat="44.66886177022235" lon="6.618339851006588"><ele>888.0</ele><time>2026-04-18T10:17:03Z</time></trkpt><trkpt lat="44.66870337359845" lon="6.6183099046330085"><ele>888.0</ele><time>2026-04-18T10:17:04Z</time></trkpt><trkpt lat="44.66854987076521" lon="6.6182252549902145"><ele>888.0</ele><time>2026-04-18T10:17:05Z</time></trkpt><trkpt lat="44.66840042939954" lon="6.618159063309546"><ele>888.0</ele><time>2026-04-18T10:17:06Z</time></trkpt><trkpt lat="44.6682488990975" lon="6.618081988620428"><ele>888.0</ele><time>2026-04-18T10:17:07Z</time></trkpt><trkpt lat="44.66810127338514" lon="6.617998080639827"><ele>888.0</ele><time>2026-04-18T10:17:08Z</time></trkpt><trkpt lat="44.667947281760014" lon="6.617899766829839"><ele>888.0</ele><time>2026-04-18T10:17:09Z</time></trkpt><trkpt lat="44.667797601999816" lon="6.617792908743693"><ele>888.0</ele><time>2026-04-18T10:17:10Z</time></trkpt><trkpt lat="44.66764237727458" lon="6.617693083333723"><ele>888.6666666666667</ele><time>2026-04-18T10:17:11Z</time></trkpt><trkpt lat="44.6674998950841" lon="6.617566483569452"><ele>889.3333333333334</ele><time>2026-04-18T10:17:12Z</time></trkpt><trkpt lat="44.66736013273104" lon="6.617430587608389"><ele>890.0</ele><time>2026-04-18T10:17:13Z</time></trkpt><trkpt lat="44.667229486102926" lon="6.61727437508927"><ele>890.0</ele><time>2026-04-18T10:17:14Z</time></trkpt><trkpt lat="44.667098109597646" lon="6.617118003681902"><ele>890.0</ele><time>2026-04-18T10:17:15Z</time></trkpt><trkpt lat="44.66697244588836" lon="6.616954963171742"><ele>890.0</ele><time>2026-04-18T10:17:16Z</time></trkpt><trkpt lat="44.66685090318333" lon="6.616785283929701"><ele>890.3333333333334</ele><time>2026-04-18T10:17:17Z</time></trkpt><trkpt lat="44.66673743344812" lon="6.616616410455414"><ele>890.6666666666667</ele><time>2026-04-18T10:17:18Z</time></trkpt><trkpt lat="44.66662287583563" lon="6.616430458009834"><ele>891.0</ele><time>2026-04-18T10:17:19Z</time></trkpt><trkpt lat="44.66651684347482" lon="6.616242080738697"><ele>891.0</ele><time>2026-04-18T10:17:20Z</time></trkpt><trkpt lat="44.66641902537429" lon="6.616053927920776"><ele>891.0</ele><time>2026-04-18T10:17:21Z</time></trkpt><trkpt lat="44.66632841346678" lon="6.6158756748683425"><ele>891.0</ele><time>2026-04-18T10:17:22Z</time></trkpt><trkpt lat="44.666235906060976" lon="6.615694235972855"><ele>891.0</ele><time>2026-04-18T10:17:23Z</time></trkpt><trkpt lat="44.66614403091277" lon="6.6155477822505935"><ele>891.0</ele><time>2026-04-18T10:17:24Z</time></trkpt><trkpt lat="44.66605615026969" lon="6.615363800391104"><ele>891.0</ele><time>2026-04-18T10:17:25Z</time></trkpt><trkpt lat="44.6659811513988" lon="6.615190734391073"><ele>891.0</ele><time>2026-04-18T10:17:26Z</time></trkpt><trkpt lat="44.66591533638691" lon="6.615055556203591"><ele>891.0</ele><time>2026-04-18T10:17:27Z</time></trkpt><trkpt lat="44.66586425925506" lon="6.614926169734195"><ele>890.9999999999999</ele><time>2026-04-18T10:17:28Z</time></trkpt><trkpt lat="44.665835115998355" lon="6.614817523787376"><ele>890.9999999999999</ele><time>2026-04-18T10:17:29Z</time></trkpt><trkpt lat="44.665828303668455" lon="6.614699096706439"><ele>891.0</ele><time>2026-04-18T10:17:30Z</time></trkpt><trkpt lat="44.66581694426869" lon="6.6145564386034055"><ele>891.0</ele><time>2026-04-18T10:17:31Z</time></trkpt><trkpt lat="44.665781894300984" lon="6.6144442942332455"><ele>891.0</ele><time>2026-04-18T10:17:32Z</time></trkpt><trkpt lat="44.66574734212222" lon="6.614353749383828"><ele>890.9999999999999</ele><time>2026-04-18T10:17:33Z</time></trkpt><trkpt lat="44.665633846572334" lon="6.614301928186019"><ele>890.9999999999999</ele><time>2026-04-18T10:17:35Z</time></trkpt><trkpt lat="44.66557047983719" lon="6.6143051619853654"><ele>891.0</ele><time>2026-04-18T10:17:36Z</time></trkpt><trkpt lat="44.665481054740816" lon="6.614396143082933"><ele>891.0</ele><time>2026-04-18T10:17:38Z</time></trkpt><trkpt lat="44.66543833877275" lon="6.614569622492073"><ele>891.0</ele><time>2026-04-18T10:17:39Z</time></trkpt><trkpt lat="44.665394695226205" lon="6.614714542058905"><ele>891.0</ele><time>2026-04-18T10:17:40Z</time></trkpt><trkpt lat="44.66533458849509" lon="6.614840860211085"><ele>891.0</ele><time>2026-04-18T10:17:41Z</time></trkpt><trkpt lat="44.66524630712611" lon="6.61496229721278"><ele>891.0</ele><time>2026-04-18T10:17:42Z</time></trkpt><trkpt lat="44.66513872784905" lon="6.615076134392988"><ele>891.0</ele><time>2026-04-18T10:17:43Z</time></trkpt><trkpt lat="44.66504776680197" lon="6.6151921989565"><ele>891.0</ele><time>2026-04-18T10:17:44Z</time></trkpt><trkpt lat="44.66489713930409" lon="6.615311916782344"><ele>891.0</ele><time>2026-04-18T10:17:45Z</time></trkpt><trkpt lat="44.66478053044903" lon="6.615452390891083"><ele>891.0</ele><time>2026-04-18T10:17:46Z</time></trkpt><trkpt lat="44.664660169808265" lon="6.615571858848992"><ele>891.0</ele><time>2026-04-18T10:17:47Z</time></trkpt><trkpt lat="44.66453743783916" lon="6.615698452289913"><ele>891.0</ele><time>2026-04-18T10:17:48Z</time></trkpt><trkpt lat="44.66440629996545" lon="6.615851765051001"><ele>891.0</ele><time>2026-04-18T10:17:49Z</time></trkpt><trkpt lat="44.66426998764978" lon="6.615974671406667"><ele>891.3333333333333</ele><time>2026-04-18T10:17:50Z</time></trkpt><trkpt lat="44.66411546416694" lon="6.616083792319149"><ele>891.6666666666666</ele><time>2026-04-18T10:17:51Z</time></trkpt><trkpt lat="44.66397163608788" lon="6.616232156608291"><ele>892.0</ele><time>2026-04-18T10:17:52Z</time></trkpt><trkpt lat="44.663821625727685" lon="6.616390371606157"><ele>893.3333333333333</ele><time>2026-04-18T10:17:53Z</time></trkpt><trkpt lat="44.66368872660559" lon="6.616535444066974"><ele>894.6666666666667</ele><time>2026-04-18T10:17:54Z</time></trkpt><trkpt lat="44.66356200733426" lon="6.616674729353122"><ele>896.0</ele><time>2026-04-18T10:17:55Z</time></trkpt><trkpt lat="44.663415357262366" lon="6.616824028669577"><ele>896.6666666666667</ele><time>2026-04-18T10:17:56Z</time></trkpt><trkpt lat="44.66327592235311" lon="6.616958250346761"><ele>897.3333333333333</ele><time>2026-04-18T10:17:57Z</time></trkpt><trkpt lat="44.66313738026168" lon="6.617093634019507"><ele>898.0</ele><time>2026-04-18T10:17:58Z</time></trkpt><trkpt lat="44.663005428207775" lon="6.61722698417903"><ele>898.6666666666666</ele><time>2026-04-18T10:17:59Z</time></trkpt><trkpt lat="44.662877325223796" lon="6.6173607085855455"><ele>899.3333333333333</ele><time>2026-04-18T10:18:00Z</time></trkpt><trkpt lat="44.66275520178959" lon="6.617481703825871"><ele>900.0</ele><time>2026-04-18T10:18:01Z</time></trkpt><trkpt lat="44.66263468647203" lon="6.617602126254461"><ele>900.25</ele><time>2026-04-18T10:18:02Z</time></trkpt><trkpt lat="44.66250657998224" lon="6.6177236786472315"><ele>900.5</ele><time>2026-04-18T10:18:03Z</time></trkpt><trkpt lat="44.6624155881056" lon="6.61783438337284"><ele>900.75</ele><time>2026-04-18T10:18:04Z</time></trkpt><trkpt lat="44.66231367985706" lon="6.617943917406089"><ele>901.0</ele><time>2026-04-18T10:18:05Z</time></trkpt><trkpt lat="44.6622224222022" lon="6.618039644613335"><ele>900.9999999999999</ele><time>2026-04-18T10:18:06Z</time></trkpt><trkpt lat="44.66213230359387" lon="6.6181096610532695"><ele>901.0</ele><time>2026-04-18T10:18:07Z</time></trkpt><trkpt lat="44.6620666019205" lon="6.618156006249456"><ele>901.0</ele><time>2026-04-18T10:18:08Z</time></trkpt><trkpt lat="44.66197377303842" lon="6.618216395556347"><ele>901.0</ele><time>2026-04-18T10:18:10Z</time></trkpt><trkpt lat="44.661907868878565" lon="6.618172319002765"><ele>900.9999999999999</ele><time>2026-04-18T10:18:11Z</time></trkpt><trkpt lat="44.66182406796062" lon="6.618227829107916"><ele>901.0</ele><time>2026-04-18T10:18:12Z</time></trkpt><trkpt lat="44.66176165760935" lon="6.618294974680517"><ele>901.5999999999999</ele><time>2026-04-18T10:18:13Z</time></trkpt><trkpt lat="44.66172837696443" lon="6.618397081065291"><ele>902.1999999999999</ele><time>2026-04-18T10:18:14Z</time></trkpt><trkpt lat="44.661685445312564" lon="6.618542643951726"><ele>902.8000000000001</ele><time>2026-04-18T10:18:15Z</time></trkpt><trkpt lat="44.66162294668" lon="6.618638915775784"><ele>903.4000000000001</ele><time>2026-04-18T10:18:16Z</time></trkpt><trkpt lat="44.66152770044681" lon="6.61871870309784"><ele>904.0</ele><time>2026-04-18T10:18:17Z</time></trkpt><trkpt lat="44.66140664466189" lon="6.61885610104909"><ele>904.3333333333333</ele><time>2026-04-18T10:18:18Z</time></trkpt><trkpt lat="44.66126771950598" lon="6.618976816943339"><ele>904.6666666666667</ele><time>2026-04-18T10:18:19Z</time></trkpt><trkpt lat="44.661154546713746" lon="6.61909059551161"><ele>905.0</ele><time>2026-04-18T10:18:20Z</time></trkpt><trkpt lat="44.66102479093654" lon="6.619217913982492"><ele>905.3333333333334</ele><time>2026-04-18T10:18:21Z</time></trkpt><trkpt lat="44.66088621671154" lon="6.6193527939818875"><ele>905.6666666666667</ele><time>2026-04-18T10:18:22Z</time></trkpt><trkpt lat="44.66074177444144" lon="6.6194963070671236"><ele>906.0</ele><time>2026-04-18T10:18:23Z</time></trkpt><trkpt lat="44.66061320857778" lon="6.6196533921829515"><ele>906.0</ele><time>2026-04-18T10:18:24Z</time></trkpt><trkpt lat="44.66045426848372" lon="6.619816330455463"><ele>906.0</ele><time>2026-04-18T10:18:25Z</time></trkpt><trkpt lat="44.66031142515673" lon="6.6199761729633995"><ele>906.0</ele><time>2026-04-18T10:18:26Z</time></trkpt><trkpt lat="44.660173538887456" lon="6.620140326142994"><ele>906.6666666666667</ele><time>2026-04-18T10:18:27Z</time></trkpt><trkpt lat="44.66004096162529" lon="6.620314993564482"><ele>907.3333333333334</ele><time>2026-04-18T10:18:28Z</time></trkpt><trkpt lat="44.65990803901545" lon="6.620529439671855"><ele>908.0</ele><time>2026-04-18T10:18:29Z</time></trkpt><trkpt lat="44.659797130937605" lon="6.620744433108123"><ele>908.0</ele><time>2026-04-18T10:18:30Z</time></trkpt><trkpt lat="44.65969635696525" lon="6.620971002910308"><ele>908.0</ele><time>2026-04-18T10:18:31Z</time></trkpt><trkpt lat="44.65960056818955" lon="6.621196048462067"><ele>908.0</ele><time>2026-04-18T10:18:32Z</time></trkpt><trkpt lat="44.65952284798826" lon="6.621430106397718"><ele>908.0</ele><time>2026-04-18T10:18:33Z</time></trkpt><trkpt lat="44.65945979581396" lon="6.621732456836241"><ele>908.0</ele><time>2026-04-18T10:18:34Z</time></trkpt><trkpt lat="44.65941364279737" lon="6.622002124557334"><ele>908.0</ele><time>2026-04-18T10:18:35Z</time></trkpt><trkpt lat="44.65938610844085" lon="6.622280056444681"><ele>909.6666666666667</ele><time>2026-04-18T10:18:36Z</time></trkpt><trkpt lat="44.6593653185679" lon="6.622557105339473"><ele>911.3333333333333</ele><time>2026-04-18T10:18:37Z</time></trkpt><trkpt lat="44.65935845748627" lon="6.622855885484247"><ele>913.0</ele><time>2026-04-18T10:18:38Z</time></trkpt><trkpt lat="44.659373100330306" lon="6.623177798468122"><ele>913.0</ele><time>2026-04-18T10:18:39Z</time></trkpt><trkpt lat="44.659381602046075" lon="6.623499124479365"><ele>913.0</ele><time>2026-04-18T10:18:40Z</time></trkpt><trkpt lat="44.65942026523022" lon="6.623822429972405"><ele>911.6666666666666</ele><time>2026-04-18T10:18:41Z</time></trkpt><trkpt lat="44.659463817725545" lon="6.624123307313999"><ele>910.3333333333333</ele><time>2026-04-18T10:18:42Z</time></trkpt><trkpt lat="44.65947896426976" lon="6.624409135277166"><ele>909.0</ele><time>2026-04-18T10:18:43Z</time></trkpt><trkpt lat="44.65952137224687" lon="6.624737025163511"><ele>908.3333333333333</ele><time>2026-04-18T10:18:44Z</time></trkpt><trkpt lat="44.659529337968536" lon="6.625060710236633"><ele>907.6666666666666</ele><time>2026-04-18T10:18:45Z</time></trkpt><trkpt lat="44.6595473048599" lon="6.625352865406493"><ele>907.0</ele><time>2026-04-18T10:18:46Z</time></trkpt><trkpt lat="44.65956539189096" lon="6.625652499831781"><ele>908.3333333333333</ele><time>2026-04-18T10:18:47Z</time></trkpt><trkpt lat="44.65958612770676" lon="6.625944228694112"><ele>909.6666666666667</ele><time>2026-04-18T10:18:48Z</time></trkpt><trkpt lat="44.65959084217424" lon="6.6262651201529"><ele>911.0</ele><time>2026-04-18T10:18:49Z</time></trkpt><trkpt lat="44.65961411801171" lon="6.62656942730997"><ele>912.0</ele><time>2026-04-18T10:18:50Z</time></trkpt><trkpt lat="44.65964396862463" lon="6.626844312883067"><ele>913.0</ele><time>2026-04-18T10:18:51Z</time></trkpt><trkpt lat="44.65965884050257" lon="6.627113512587314"><ele>914.0</ele><time>2026-04-18T10:18:52Z</time></trkpt><trkpt lat="44.65966013809508" lon="6.627402895114817"><ele>916.0</ele><time>2026-04-18T10:18:53Z</time></trkpt><trkpt lat="44.659675898779554" lon="6.6276688513631195"><ele>918.0</ele><time>2026-04-18T10:18:54Z</time></trkpt><trkpt lat="44.65968296609726" lon="6.627937798818426"><ele>920.0</ele><time>2026-04-18T10:18:55Z</time></trkpt><trkpt lat="44.65969828383904" lon="6.628196908384191"><ele>921.3333333333334</ele><time>2026-04-18T10:18:56Z</time></trkpt><trkpt lat="44.65971988639528" lon="6.6284523176881"><ele>922.6666666666667</ele><time>2026-04-18T10:18:57Z</time></trkpt><trkpt lat="44.65973199075484" lon="6.628700014034603"><ele>924.0</ele><time>2026-04-18T10:18:58Z</time></trkpt><trkpt lat="44.65976438040823" lon="6.628939881703418"><ele>924.6666666666667</ele><time>2026-04-18T10:18:59Z</time></trkpt><trkpt lat="44.65977090324379" lon="6.629189990014717"><ele>925.3333333333334</ele><time>2026-04-18T10:19:00Z</time></trkpt><trkpt lat="44.659778240821346" lon="6.629440424176428"><ele>926.0</ele><time>2026-04-18T10:19:01Z</time></trkpt><trkpt lat="44.659792204848856" lon="6.629688445969445"><ele>928.0</ele><time>2026-04-18T10:19:02Z</time></trkpt><trkpt lat="44.65976349962817" lon="6.629935994984638"><ele>930.0</ele><time>2026-04-18T10:19:03Z</time></trkpt><trkpt lat="44.659740915396064" lon="6.630181125737798"><ele>932.0</ele><time>2026-04-18T10:19:04Z</time></trkpt><trkpt lat="44.65973088883105" lon="6.630440843743657"><ele>934.0</ele><time>2026-04-18T10:19:05Z</time></trkpt><trkpt lat="44.659676242667054" lon="6.630670318300304"><ele>936.0</ele><time>2026-04-18T10:19:06Z</time></trkpt><trkpt lat="44.65960476994639" lon="6.6309026535569675"><ele>938.0</ele><time>2026-04-18T10:19:07Z</time></trkpt><trkpt lat="44.65954487248824" lon="6.631137407343949"><ele>936.6666666666667</ele><time>2026-04-18T10:19:08Z</time></trkpt><trkpt lat="44.65943531711409" lon="6.631343732561049"><ele>935.3333333333333</ele><time>2026-04-18T10:19:09Z</time></trkpt><trkpt lat="44.659342089981145" lon="6.631556504651493"><ele>934.0</ele><time>2026-04-18T10:19:10Z</time></trkpt><trkpt lat="44.659245422501606" lon="6.6317584431016785"><ele>934.0</ele><time>2026-04-18T10:19:11Z</time></trkpt><trkpt lat="44.6591308649923" lon="6.631957385256737"><ele>934.0</ele><time>2026-04-18T10:19:12Z</time></trkpt><trkpt lat="44.65901087688588" lon="6.632136493987435"><ele>934.0</ele><time>2026-04-18T10:19:13Z</time></trkpt><trkpt lat="44.65888770227746" lon="6.632311493248678"><ele>937.0</ele><time>2026-04-18T10:19:14Z</time></trkpt><trkpt lat="44.65876377342632" lon="6.63247984972309"><ele>940.0</ele><time>2026-04-18T10:19:15Z</time></trkpt><trkpt lat="44.658637801479195" lon="6.632655049589626"><ele>943.0</ele><time>2026-04-18T10:19:16Z</time></trkpt><trkpt lat="44.65854489320288" lon="6.632834811510785"><ele>943.25</ele><time>2026-04-18T10:19:17Z</time></trkpt><trkpt lat="44.65844113571472" lon="6.63298880841437"><ele>943.5</ele><time>2026-04-18T10:19:18Z</time></trkpt><trkpt lat="44.658367545759184" lon="6.633141209778537"><ele>943.75</ele><time>2026-04-18T10:19:19Z</time></trkpt><trkpt lat="44.65833453987971" lon="6.633340499406275"><ele>944.0</ele><time>2026-04-18T10:19:20Z</time></trkpt><trkpt lat="44.658341854034134" lon="6.633554772221969"><ele>943.6666666666667</ele><time>2026-04-18T10:19:21Z</time></trkpt><trkpt lat="44.658370687598456" lon="6.633755967427974"><ele>943.3333333333333</ele><time>2026-04-18T10:19:22Z</time></trkpt><trkpt lat="44.65844360087901" lon="6.634010087686733"><ele>943.0</ele><time>2026-04-18T10:19:23Z</time></trkpt><trkpt lat="44.658517166469096" lon="6.634195513946288"><ele>943.0</ele><time>2026-04-18T10:19:24Z</time></trkpt><trkpt lat="44.65861530530398" lon="6.634421013357945"><ele>943.0</ele><time>2026-04-18T10:19:25Z</time></trkpt><trkpt lat="44.658668819435896" lon="6.6346926308937455"><ele>943.0</ele><time>2026-04-18T10:19:26Z</time></trkpt><trkpt lat="44.65878983773149" lon="6.634936662046861"><ele>945.6666666666666</ele><time>2026-04-18T10:19:27Z</time></trkpt><trkpt lat="44.65893572057689" lon="6.63516221488741"><ele>948.3333333333333</ele><time>2026-04-18T10:19:28Z</time></trkpt><trkpt lat="44.65908092462099" lon="6.635394744078112"><ele>951.0</ele><time>2026-04-18T10:19:29Z</time></trkpt><trkpt lat="44.65918614994075" lon="6.635623318463883"><ele>951.0</ele><time>2026-04-18T10:19:30Z</time></trkpt><trkpt lat="44.65927894534862" lon="6.635844984767532"><ele>951.0</ele><time>2026-04-18T10:19:31Z</time></trkpt><trkpt lat="44.659394817090885" lon="6.636050097801181"><ele>951.0</ele><time>2026-04-18T10:19:32Z</time></trkpt><trkpt lat="44.65949164396111" lon="6.636275236773065"><ele>955.3333333333333</ele><time>2026-04-18T10:19:33Z</time></trkpt><trkpt lat="44.65959376273125" lon="6.636472772040733"><ele>959.6666666666666</ele><time>2026-04-18T10:19:34Z</time></trkpt><trkpt lat="44.6596675192007" lon="6.636684190231624"><ele>964.0</ele><time>2026-04-18T10:19:35Z</time></trkpt><trkpt lat="44.65974883404443" lon="6.636878940663804"><ele>964.0</ele><time>2026-04-18T10:19:36Z</time></trkpt><trkpt lat="44.65980768444454" lon="6.637040637471146"><ele>964.0</ele><time>2026-04-18T10:19:37Z</time></trkpt><trkpt lat="44.65985411189975" lon="6.6372168453930716"><ele>964.0</ele><time>2026-04-18T10:19:38Z</time></trkpt><trkpt lat="44.65988256981908" lon="6.637392182025101"><ele>964.0</ele><time>2026-04-18T10:19:39Z</time></trkpt><trkpt lat="44.65989379739434" lon="6.637577147658755"><ele>964.0</ele><time>2026-04-18T10:19:40Z</time></trkpt><trkpt lat="44.65987968350631" lon="6.6377541026184534"><ele>964.0</ele><time>2026-04-18T10:19:41Z</time></trkpt><trkpt lat="44.65985486067724" lon="6.637921848692688"><ele>964.0</ele><time>2026-04-18T10:19:42Z</time></trkpt><trkpt lat="44.65982229508536" lon="6.638098856127272"><ele>964.0</ele><time>2026-04-18T10:19:43Z</time></trkpt><trkpt lat="44.65978978150152" lon="6.638273154796437"><ele>965.25</ele><time>2026-04-18T10:19:44Z</time></trkpt><trkpt lat="44.65976220830256" lon="6.638454793982784"><ele>966.5</ele><time>2026-04-18T10:19:45Z</time></trkpt><trkpt lat="44.65974425228197" lon="6.638659305040084"><ele>967.75</ele><time>2026-04-18T10:19:46Z</time></trkpt><trkpt lat="44.65973509737171" lon="6.638855170499665"><ele>969.0</ele><time>2026-04-18T10:19:47Z</time></trkpt><trkpt lat="44.659756647004215" lon="6.639060190511698"><ele>969.0</ele><time>2026-04-18T10:19:48Z</time></trkpt><trkpt lat="44.65978962206563" lon="6.639267350562143"><ele>969.0</ele><time>2026-04-18T10:19:49Z</time></trkpt><trkpt lat="44.65982630633574" lon="6.6394898899838495"><ele>969.0</ele><time>2026-04-18T10:19:50Z</time></trkpt><trkpt lat="44.659865855347974" lon="6.639708651433999"><ele>969.5</ele><time>2026-04-18T10:19:51Z</time></trkpt><trkpt lat="44.65989191352099" lon="6.6399094251674065"><ele>970.0</ele><time>2026-04-18T10:19:52Z</time></trkpt><trkpt lat="44.65992291919097" lon="6.640092772315439"><ele>970.5</ele><time>2026-04-18T10:19:53Z</time></trkpt><trkpt lat="44.65993910688368" lon="6.640258447574143"><ele>971.0</ele><time>2026-04-18T10:19:54Z</time></trkpt><trkpt lat="44.65992485247943" lon="6.640426016935987"><ele>972.0</ele><time>2026-04-18T10:19:55Z</time></trkpt><trkpt lat="44.65990417777277" lon="6.640570675838639"><ele>972.9999999999999</ele><time>2026-04-18T10:19:56Z</time></trkpt><trkpt lat="44.65986833096041" lon="6.640718103353976"><ele>973.9999999999999</ele><time>2026-04-18T10:19:57Z</time></trkpt><trkpt lat="44.659812290541126" lon="6.64086643359445"><ele>975.0</ele><time>2026-04-18T10:19:58Z</time></trkpt><trkpt lat="44.65976400487837" lon="6.641006382224996"><ele>976.0</ele><time>2026-04-18T10:19:59Z</time></trkpt><trkpt lat="44.65969229900096" lon="6.641096493299316"><ele>977.4</ele><time>2026-04-18T10:20:00Z</time></trkpt><trkpt lat="44.65963304833414" lon="6.641204426344744"><ele>978.8</ele><time>2026-04-18T10:20:01Z</time></trkpt><trkpt lat="44.659576904120215" lon="6.641331538685914"><ele>980.1999999999999</ele><time>2026-04-18T10:20:02Z</time></trkpt><trkpt lat="44.65954539591251" lon="6.6414156937582245"><ele>981.5999999999999</ele><time>2026-04-18T10:20:03Z</time></trkpt><trkpt lat="44.659487192088584" lon="6.64157618394487"><ele>983.0</ele><time>2026-04-18T10:20:05Z</time></trkpt><trkpt lat="44.659457960639166" lon="6.641673665003112"><ele>981.2</ele><time>2026-04-18T10:20:06Z</time></trkpt><trkpt lat="44.659398420729055" lon="6.6417497469842885"><ele>979.4</ele><time>2026-04-18T10:20:07Z</time></trkpt><trkpt lat="44.65931798197939" lon="6.6417872545610885"><ele>977.6000000000001</ele><time>2026-04-18T10:20:08Z</time></trkpt><trkpt lat="44.65925959131868" lon="6.641868997363201"><ele>975.8000000000001</ele><time>2026-04-18T10:20:09Z</time></trkpt><trkpt lat="44.659214403081094" lon="6.641993975925718"><ele>974.0</ele><time>2026-04-18T10:20:10Z</time></trkpt><trkpt lat="44.65912499578628" lon="6.642085340708512"><ele>974.0</ele><time>2026-04-18T10:20:11Z</time></trkpt><trkpt lat="44.65904682035839" lon="6.642212294724111"><ele>974.0</ele><time>2026-04-18T10:20:12Z</time></trkpt><trkpt lat="44.65893126720041" lon="6.642332596091094"><ele>974.0</ele><time>2026-04-18T10:20:13Z</time></trkpt><trkpt lat="44.658812483741734" lon="6.642483114810625"><ele>974.0</ele><time>2026-04-18T10:20:14Z</time></trkpt><trkpt lat="44.658688517022554" lon="6.642640481471484"><ele>971.3333333333334</ele><time>2026-04-18T10:20:15Z</time></trkpt><trkpt lat="44.65857157589393" lon="6.642851747356914"><ele>968.6666666666667</ele><time>2026-04-18T10:20:16Z</time></trkpt><trkpt lat="44.65848103974594" lon="6.6430106183040785"><ele>966.0</ele><time>2026-04-18T10:20:17Z</time></trkpt><trkpt lat="44.65839111486241" lon="6.643185108436689"><ele>966.0</ele><time>2026-04-18T10:20:18Z</time></trkpt><trkpt lat="44.658321024585376" lon="6.6433764739222365"><ele>966.0</ele><time>2026-04-18T10:20:19Z</time></trkpt><trkpt lat="44.658257768540665" lon="6.6435641987770815"><ele>966.0</ele><time>2026-04-18T10:20:20Z</time></trkpt><trkpt lat="44.65821643199119" lon="6.64376649762439"><ele>966.5</ele><time>2026-04-18T10:20:21Z</time></trkpt><trkpt lat="44.65817254960491" lon="6.643972462850916"><ele>967.0</ele><time>2026-04-18T10:20:22Z</time></trkpt><trkpt lat="44.65813312831804" lon="6.644156507308097"><ele>967.5</ele><time>2026-04-18T10:20:23Z</time></trkpt><trkpt lat="44.658112335777005" lon="6.644281964578443"><ele>968.0</ele><time>2026-04-18T10:20:24Z</time></trkpt><trkpt lat="44.65808191298993" lon="6.644421740080463"><ele>968.8</ele><time>2026-04-18T10:20:25Z</time></trkpt><trkpt lat="44.65805176918077" lon="6.644573673151713"><ele>969.5999999999999</ele><time>2026-04-18T10:20:26Z</time></trkpt><trkpt lat="44.65802567303175" lon="6.644712373068858"><ele>970.4000000000001</ele><time>2026-04-18T10:20:27Z</time></trkpt><trkpt lat="44.65800815849166" lon="6.644853165772561"><ele>971.2</ele><time>2026-04-18T10:20:28Z</time></trkpt><trkpt lat="44.65794678141523" lon="6.644923935475688"><ele>972.0</ele><time>2026-04-18T10:20:29Z</time></trkpt><trkpt lat="44.65791251987092" lon="6.645016797771735"><ele>972.0</ele><time>2026-04-18T10:20:30Z</time></trkpt><trkpt lat="44.65788278794435" lon="6.645148351954754"><ele>972.0</ele><time>2026-04-18T10:20:31Z</time></trkpt><trkpt lat="44.657867283573296" lon="6.645288225064653"><ele>972.0</ele><time>2026-04-18T10:20:32Z</time></trkpt><trkpt lat="44.65785029928015" lon="6.645445824061113"><ele>972.0</ele><time>2026-04-18T10:20:33Z</time></trkpt><trkpt lat="44.65783894336092" lon="6.645651315730825"><ele>974.0</ele><time>2026-04-18T10:20:34Z</time></trkpt><trkpt lat="44.65783598305094" lon="6.645873752345129"><ele>976.0</ele><time>2026-04-18T10:20:35Z</time></trkpt><trkpt lat="44.657852111883216" lon="6.646095258672913"><ele>978.0</ele><time>2026-04-18T10:20:36Z</time></trkpt><trkpt lat="44.65789027601775" lon="6.646327594241394"><ele>980.3333333333333</ele><time>2026-04-18T10:20:37Z</time></trkpt><trkpt lat="44.657942249728414" lon="6.646587735233846"><ele>982.6666666666666</ele><time>2026-04-18T10:20:38Z</time></trkpt><trkpt lat="44.65799028394518" lon="6.646862690960706"><ele>985.0</ele><time>2026-04-18T10:20:39Z</time></trkpt><trkpt lat="44.65803200172432" lon="6.647150294968977"><ele>986.6666666666666</ele><time>2026-04-18T10:20:40Z</time></trkpt><trkpt lat="44.658075263412286" lon="6.647451662488172"><ele>988.3333333333333</ele><time>2026-04-18T10:20:41Z</time></trkpt><trkpt lat="44.658119225777384" lon="6.647747947144518"><ele>990.0</ele><time>2026-04-18T10:20:42Z</time></trkpt><trkpt lat="44.65815904317086" lon="6.648069714906187"><ele>991.6666666666667</ele><time>2026-04-18T10:20:43Z</time></trkpt><trkpt lat="44.65822581596252" lon="6.648382266075126"><ele>993.3333333333334</ele><time>2026-04-18T10:20:44Z</time></trkpt><trkpt lat="44.65826372809846" lon="6.648681438097356"><ele>995.0</ele><time>2026-04-18T10:20:45Z</time></trkpt><trkpt lat="44.65829455531044" lon="6.648953967206412"><ele>997.6666666666667</ele><time>2026-04-18T10:20:46Z</time></trkpt><trkpt lat="44.658321768429715" lon="6.649249105857468"><ele>1000.3333333333333</ele><time>2026-04-18T10:20:47Z</time></trkpt><trkpt lat="44.65837484362351" lon="6.649464227168833"><ele>1003.0</ele><time>2026-04-18T10:20:48Z</time></trkpt><trkpt lat="44.65840216579602" lon="6.649695500902168"><ele>1003.75</ele><time>2026-04-18T10:20:49Z</time></trkpt><trkpt lat="44.658395264018" lon="6.649871350057099"><ele>1004.5</ele><time>2026-04-18T10:20:50Z</time></trkpt><trkpt lat="44.65838927571873" lon="6.65000768006964"><ele>1005.25</ele><time>2026-04-18T10:20:51Z</time></trkpt><trkpt lat="44.65833456269618" lon="6.650149100495669"><ele>1006.0</ele><time>2026-04-18T10:20:52Z</time></trkpt><trkpt lat="44.65827502339755" lon="6.650339722330705"><ele>1007.0</ele><time>2026-04-18T10:20:53Z</time></trkpt><trkpt lat="44.65816006740104" lon="6.6503829650682516"><ele>1008.0</ele><time>2026-04-18T10:20:54Z</time></trkpt><trkpt lat="44.65805272857492" lon="6.650457013178514"><ele>1009.0</ele><time>2026-04-18T10:20:55Z</time></trkpt><trkpt lat="44.65791284084575" lon="6.650565052372091"><ele>1010.0</ele><time>2026-04-18T10:20:56Z</time></trkpt><trkpt lat="44.65778512990113" lon="6.650665976985149"><ele>1010.6666666666667</ele><time>2026-04-18T10:20:57Z</time></trkpt><trkpt lat="44.65762909179153" lon="6.650795363413213"><ele>1011.3333333333333</ele><time>2026-04-18T10:20:58Z</time></trkpt><trkpt lat="44.65749660760781" lon="6.650906370566406"><ele>1012.0</ele><time>2026-04-18T10:20:59Z</time></trkpt><trkpt lat="44.65736138819412" lon="6.651032985120362"><ele>1013.5</ele><time>2026-04-18T10:21:00Z</time></trkpt><trkpt lat="44.65724754421195" lon="6.651150174871642"><ele>1015.0</ele><time>2026-04-18T10:21:01Z</time></trkpt><trkpt lat="44.65715166527424" lon="6.65126165743237"><ele>1016.5</ele><time>2026-04-18T10:21:02Z</time></trkpt><trkpt lat="44.65704572028549" lon="6.651301416089887"><ele>1018.0</ele><time>2026-04-18T10:21:03Z</time></trkpt><trkpt lat="44.65692578326892" lon="6.65139414136404"><ele>1018.0</ele><time>2026-04-18T10:21:04Z</time></trkpt><trkpt lat="44.65682095581689" lon="6.651433921446713"><ele>1018.0</ele><time>2026-04-18T10:21:05Z</time></trkpt><trkpt lat="44.65672144107386" lon="6.651524699638959"><ele>1018.0</ele><time>2026-04-18T10:21:06Z</time></trkpt><trkpt lat="44.65663187108431" lon="6.651608399864412"><ele>1018.0</ele><time>2026-04-18T10:21:07Z</time></trkpt><trkpt lat="44.65659290830305" lon="6.651718375565382"><ele>1018.0</ele><time>2026-04-18T10:21:08Z</time></trkpt><trkpt lat="44.6565870943905" lon="6.651833069219192"><ele>1019.8</ele><time>2026-04-18T10:21:09Z</time></trkpt><trkpt lat="44.656515758007295" lon="6.651962075952836"><ele>1021.5999999999999</ele><time>2026-04-18T10:21:10Z</time></trkpt><trkpt lat="44.65650470664201" lon="6.652091318238623"><ele>1023.4000000000001</ele><time>2026-04-18T10:21:11Z</time></trkpt><trkpt lat="44.656413308101094" lon="6.652160813114656"><ele>1025.2</ele><time>2026-04-18T10:21:12Z</time></trkpt><trkpt lat="44.65631458101111" lon="6.652226572763685"><ele>1027.0</ele><time>2026-04-18T10:21:13Z</time></trkpt><trkpt lat="44.656194105259864" lon="6.652303123132456"><ele>1027.25</ele><time>2026-04-18T10:21:14Z</time></trkpt><trkpt lat="44.65606004395268" lon="6.6523853646111615"><ele>1027.5</ele><time>2026-04-18T10:21:15Z</time></trkpt><trkpt lat="44.65593032243098" lon="6.652464943878429"><ele>1027.75</ele><time>2026-04-18T10:21:16Z</time></trkpt><trkpt lat="44.655798251248136" lon="6.652538005773675"><ele>1028.0</ele><time>2026-04-18T10:21:17Z</time></trkpt><trkpt lat="44.65569482545361" lon="6.652578868425006"><ele>1028.0</ele><time>2026-04-18T10:21:18Z</time></trkpt><trkpt lat="44.65557258286705" lon="6.65260448838452"><ele>1028.0</ele><time>2026-04-18T10:21:19Z</time></trkpt><trkpt lat="44.65547070163311" lon="6.652579548013246"><ele>1028.0</ele><time>2026-04-18T10:21:20Z</time></trkpt><trkpt lat="44.65535545315289" lon="6.652530196910623"><ele>1028.0</ele><time>2026-04-18T10:21:21Z</time></trkpt><trkpt lat="44.6552573327401" lon="6.652454252931683"><ele>1029.3333333333335</ele><time>2026-04-18T10:21:22Z</time></trkpt><trkpt lat="44.65520428752518" lon="6.6523434656177"><ele>1030.6666666666667</ele><time>2026-04-18T10:21:23Z</time></trkpt><trkpt lat="44.65514939647964" lon="6.652248748682983"><ele>1032.0</ele><time>2026-04-18T10:21:24Z</time></trkpt><trkpt lat="44.65510197068903" lon="6.652166918947277"><ele>1033.3333333333333</ele><time>2026-04-18T10:21:25Z</time></trkpt><trkpt lat="44.65503764495877" lon="6.652114463585261"><ele>1034.6666666666665</ele><time>2026-04-18T10:21:26Z</time></trkpt><trkpt lat="44.655026024861414" lon="6.652014205143492"><ele>1036.0</ele><time>2026-04-18T10:21:27Z</time></trkpt><trkpt lat="44.65503152356604" lon="6.651883052037969"><ele>1037.25</ele><time>2026-04-18T10:21:28Z</time></trkpt><trkpt lat="44.65505437038999" lon="6.65171790878986"><ele>1038.5</ele><time>2026-04-18T10:21:29Z</time></trkpt><trkpt lat="44.655065234749635" lon="6.651556085958215"><ele>1039.75</ele><time>2026-04-18T10:21:30Z</time></trkpt><trkpt lat="44.655175158622086" lon="6.651502100703953"><ele>1041.0</ele><time>2026-04-18T10:21:31Z</time></trkpt><trkpt lat="44.655268001370885" lon="6.651437932585837"><ele>1039.2</ele><time>2026-04-18T10:21:32Z</time></trkpt><trkpt lat="44.65535786295848" lon="6.651363430749709"><ele>1037.3999999999999</ele><time>2026-04-18T10:21:33Z</time></trkpt><trkpt lat="44.655467244289774" lon="6.6512945021930845"><ele>1035.6</ele><time>2026-04-18T10:21:34Z</time></trkpt><trkpt lat="44.6555688304593" lon="6.651214773719868"><ele>1033.8</ele><time>2026-04-18T10:21:35Z</time></trkpt><trkpt lat="44.655635392684864" lon="6.651116153697033"><ele>1032.0</ele><time>2026-04-18T10:21:36Z</time></trkpt><trkpt lat="44.655667554824184" lon="6.651029664931456"><ele>1032.0</ele><time>2026-04-18T10:21:37Z</time></trkpt><trkpt lat="44.655663527318396" lon="6.650885129016736"><ele>1032.0</ele><time>2026-04-18T10:21:38Z</time></trkpt><trkpt lat="44.65566862508789" lon="6.650791794761979"><ele>1032.0</ele><time>2026-04-18T10:21:39Z</time></trkpt><trkpt lat="44.65562497993208" lon="6.650682694357435"><ele>1032.0</ele><time>2026-04-18T10:21:40Z</time></trkpt><trkpt lat="44.655530559704864" lon="6.650571127879851"><ele>1032.0</ele><time>2026-04-18T10:21:41Z</time></trkpt><trkpt lat="44.65534260148795" lon="6.650354712320374"><ele>1036.6666666666667</ele><time>2026-04-18T10:21:42Z</time></trkpt><trkpt lat="44.655214249004146" lon="6.65005122536805"><ele>1041.3333333333335</ele><time>2026-04-18T10:21:43Z</time></trkpt><trkpt lat="44.65515504354408" lon="6.649881752278725"><ele>1046.0</ele><time>2026-04-18T10:21:44Z</time></trkpt><trkpt lat="44.65508495087274" lon="6.64972775901121"><ele>1046.0</ele><time>2026-04-18T10:21:45Z</time></trkpt><trkpt lat="44.65498249950625" lon="6.649628367915322"><ele>1046.0</ele><time>2026-04-18T10:21:46Z</time></trkpt><trkpt lat="44.65483933337236" lon="6.649626529266536"><ele>1046.0</ele><time>2026-04-18T10:21:47Z</time></trkpt><trkpt lat="44.654739994509384" lon="6.649569121302976"><ele>1046.0</ele><time>2026-04-18T10:21:48Z</time></trkpt><trkpt lat="44.65464247459193" lon="6.649537884441571"><ele>1046.0</ele><time>2026-04-18T10:21:49Z</time></trkpt><trkpt lat="44.654513648515795" lon="6.649546838425252"><ele>1046.0</ele><time>2026-04-18T10:21:50Z</time></trkpt><trkpt lat="44.65437283303267" lon="6.649600006550462"><ele>1046.0</ele><time>2026-04-18T10:21:51Z</time></trkpt><trkpt lat="44.65415183753565" lon="6.649514461745631"><ele>1044.5</ele><time>2026-04-18T10:21:52Z</time></trkpt><trkpt lat="44.65401160778696" lon="6.6494734646921705"><ele>1043.0</ele><time>2026-04-18T10:21:53Z</time></trkpt><trkpt lat="44.6539025476507" lon="6.649448737229916"><ele>1041.5</ele><time>2026-04-18T10:21:54Z</time></trkpt><trkpt lat="44.6538157528682" lon="6.649493376996425"><ele>1040.0</ele><time>2026-04-18T10:21:55Z</time></trkpt><trkpt lat="44.65369282268694" lon="6.649683287768243"><ele>1044.5</ele><time>2026-04-18T10:21:57Z</time></trkpt><trkpt lat="44.653676039194536" lon="6.649867799885915"><ele>1049.0</ele><time>2026-04-18T10:21:58Z</time></trkpt><trkpt lat="44.65370301402547" lon="6.650059976856283"><ele>1053.5</ele><time>2026-04-18T10:21:59Z</time></trkpt><trkpt lat="44.65376386172025" lon="6.650166138856479"><ele>1058.0</ele><time>2026-04-18T10:22:00Z</time></trkpt><trkpt lat="44.65381486506257" lon="6.650274273424117"><ele>1061.6666666666667</ele><time>2026-04-18T10:22:01Z</time></trkpt><trkpt lat="44.65393130247508" lon="6.650320023857506"><ele>1065.3333333333333</ele><time>2026-04-18T10:22:02Z</time></trkpt><trkpt lat="44.65410054857332" lon="6.650411971862644"><ele>1069.0</ele><time>2026-04-18T10:22:03Z</time></trkpt><trkpt lat="44.654237107604736" lon="6.65058194626258"><ele>1069.0</ele><time>2026-04-18T10:22:04Z</time></trkpt><trkpt lat="44.654290100807444" lon="6.650766891811502"><ele>1069.0</ele><time>2026-04-18T10:22:05Z</time></trkpt><trkpt lat="44.65427237398486" lon="6.650960063664586"><ele>1069.0</ele><time>2026-04-18T10:22:06Z</time></trkpt><trkpt lat="44.65426494255861" lon="6.651177490790726"><ele>1069.0</ele><time>2026-04-18T10:22:07Z</time></trkpt><trkpt lat="44.654256626872204" lon="6.651399688751467"><ele>1068.5</ele><time>2026-04-18T10:22:08Z</time></trkpt><trkpt lat="44.654236997425144" lon="6.651627053822482"><ele>1068.0</ele><time>2026-04-18T10:22:09Z</time></trkpt><trkpt lat="44.654151835451536" lon="6.651741955280201"><ele>1067.5</ele><time>2026-04-18T10:22:10Z</time></trkpt><trkpt lat="44.65405300182871" lon="6.651883141181417"><ele>1067.0</ele><time>2026-04-18T10:22:11Z</time></trkpt><trkpt lat="44.65392105620541" lon="6.652032543406269"><ele>1065.2</ele><time>2026-04-18T10:22:12Z</time></trkpt><trkpt lat="44.65379626601382" lon="6.652121640489871"><ele>1063.4</ele><time>2026-04-18T10:22:13Z</time></trkpt><trkpt lat="44.65367743400123" lon="6.652167000413771"><ele>1061.6</ele><time>2026-04-18T10:22:14Z</time></trkpt><trkpt lat="44.65360451209835" lon="6.652133726929249"><ele>1059.8</ele><time>2026-04-18T10:22:15Z</time></trkpt><trkpt lat="44.65351248567355" lon="6.652086713927655"><ele>1058.0</ele><time>2026-04-18T10:22:16Z</time></trkpt><trkpt lat="44.65343523039913" lon="6.651975343292417"><ele>1064.5</ele><time>2026-04-18T10:22:17Z</time></trkpt><trkpt lat="44.65336448266169" lon="6.651801648576651"><ele>1071.0</ele><time>2026-04-18T10:22:18Z</time></trkpt><trkpt lat="44.65334622677004" lon="6.65163239148069"><ele>1077.5</ele><time>2026-04-18T10:22:19Z</time></trkpt><trkpt lat="44.65331703268462" lon="6.651439078187725"><ele>1084.0</ele><time>2026-04-18T10:22:20Z</time></trkpt><trkpt lat="44.65328733076478" lon="6.651245640668612"><ele>1084.3333333333333</ele><time>2026-04-18T10:22:21Z</time></trkpt><trkpt lat="44.65325591606235" lon="6.651041353062407"><ele>1084.6666666666667</ele><time>2026-04-18T10:22:22Z</time></trkpt><trkpt lat="44.6532108609039" lon="6.650762480807941"><ele>1085.0</ele><time>2026-04-18T10:22:23Z</time></trkpt><trkpt lat="44.65316903583803" lon="6.650505889340744"><ele>1083.0</ele><time>2026-04-18T10:22:24Z</time></trkpt><trkpt lat="44.653121195085625" lon="6.650214183150943"><ele>1081.0</ele><time>2026-04-18T10:22:25Z</time></trkpt><trkpt lat="44.653071495885094" lon="6.650040981536067"><ele>1079.0</ele><time>2026-04-18T10:22:26Z</time></trkpt><trkpt lat="44.65300053632885" lon="6.6498770413631725"><ele>1079.0</ele><time>2026-04-18T10:22:27Z</time></trkpt><trkpt lat="44.65287221241189" lon="6.64972573181168"><ele>1079.0</ele><time>2026-04-18T10:22:28Z</time></trkpt><trkpt lat="44.65274396052312" lon="6.649746975353053"><ele>1079.0</ele><time>2026-04-18T10:22:29Z</time></trkpt><trkpt lat="44.652656090050925" lon="6.6497838541216865"><ele>1079.0</ele><time>2026-04-18T10:22:30Z</time></trkpt><trkpt lat="44.65259381666833" lon="6.649849591529295"><ele>1085.0</ele><time>2026-04-18T10:22:31Z</time></trkpt><trkpt lat="44.65237016683392" lon="6.65003677372229"><ele>1091.0</ele><time>2026-04-18T10:22:32Z</time></trkpt><trkpt lat="44.65217376157107" lon="6.650152109885371"><ele>1091.0</ele><time>2026-04-18T10:22:33Z</time></trkpt><trkpt lat="44.6520060112644" lon="6.650230031885846"><ele>1091.0</ele><time>2026-04-18T10:22:34Z</time></trkpt><trkpt lat="44.65181427197368" lon="6.650292513021583"><ele>1091.0</ele><time>2026-04-18T10:22:35Z</time></trkpt><trkpt lat="44.65165586397017" lon="6.650376271046036"><ele>1097.3333333333335</ele><time>2026-04-18T10:22:36Z</time></trkpt><trkpt lat="44.65149369772119" lon="6.650478045049597"><ele>1103.6666666666667</ele><time>2026-04-18T10:22:37Z</time></trkpt><trkpt lat="44.65133874602285" lon="6.650563851724955"><ele>1110.0</ele><time>2026-04-18T10:22:38Z</time></trkpt><trkpt lat="44.65120373041954" lon="6.6505841805645565"><ele>1109.5</ele><time>2026-04-18T10:22:39Z</time></trkpt><trkpt lat="44.6510445759161" lon="6.650492655546493"><ele>1109.0</ele><time>2026-04-18T10:22:40Z</time></trkpt><trkpt lat="44.65091132231021" lon="6.650457676028752"><ele>1108.5</ele><time>2026-04-18T10:22:41Z</time></trkpt><trkpt lat="44.65078592019425" lon="6.6504547312845075"><ele>1108.0</ele><time>2026-04-18T10:22:42Z</time></trkpt><trkpt lat="44.65068640799564" lon="6.650473887986012"><ele>1108.0</ele><time>2026-04-18T10:22:43Z</time></trkpt><trkpt lat="44.65058970593722" lon="6.650522375145242"><ele>1108.0</ele><time>2026-04-18T10:22:44Z</time></trkpt><trkpt lat="44.65048726409901" lon="6.650625827578005"><ele>1108.0</ele><time>2026-04-18T10:22:45Z</time></trkpt><trkpt lat="44.65040939657032" lon="6.650821058056879"><ele>1108.0</ele><time>2026-04-18T10:22:46Z</time></trkpt><trkpt lat="44.65037821105247" lon="6.650998523125436"><ele>1112.3333333333333</ele><time>2026-04-18T10:22:47Z</time></trkpt><trkpt lat="44.65037683605425" lon="6.651161847377746"><ele>1116.6666666666667</ele><time>2026-04-18T10:22:48Z</time></trkpt><trkpt lat="44.65042045220279" lon="6.651400458872197"><ele>1121.0</ele><time>2026-04-18T10:22:49Z</time></trkpt><trkpt lat="44.650491629494546" lon="6.651681808310239"><ele>1121.0</ele><time>2026-04-18T10:22:50Z</time></trkpt><trkpt lat="44.65053809759904" lon="6.651923850949972"><ele>1121.0</ele><time>2026-04-18T10:22:51Z</time></trkpt><trkpt lat="44.650548858847635" lon="6.652114791144957"><ele>1121.0</ele><time>2026-04-18T10:22:52Z</time></trkpt><trkpt lat="44.65055005157536" lon="6.65226345278757"><ele>1121.0</ele><time>2026-04-18T10:22:53Z</time></trkpt><trkpt lat="44.6504929010355" lon="6.652453005179121"><ele>1123.0</ele><time>2026-04-18T10:22:54Z</time></trkpt><trkpt lat="44.650408367712714" lon="6.65260565614879"><ele>1125.0</ele><time>2026-04-18T10:22:55Z</time></trkpt><trkpt lat="44.6503092146122" lon="6.6527042566423304"><ele>1127.0</ele><time>2026-04-18T10:22:56Z</time></trkpt><trkpt lat="44.650186134510555" lon="6.652856421069489"><ele>1129.0</ele><time>2026-04-18T10:22:57Z</time></trkpt><trkpt lat="44.65008579160761" lon="6.653059098129357"><ele>1129.0</ele><time>2026-04-18T10:22:58Z</time></trkpt><trkpt lat="44.65005769304122" lon="6.653194334801862"><ele>1129.0</ele><time>2026-04-18T10:22:59Z</time></trkpt><trkpt lat="44.65001612671271" lon="6.653358063695328"><ele>1129.0</ele><time>2026-04-18T10:23:00Z</time></trkpt><trkpt lat="44.64999844868652" lon="6.653550483124143"><ele>1129.0</ele><time>2026-04-18T10:23:01Z</time></trkpt><trkpt lat="44.65001775182999" lon="6.653806980045289"><ele>1130.5</ele><time>2026-04-18T10:23:02Z</time></trkpt><trkpt lat="44.6500105570578" lon="6.654022662741179"><ele>1132.0</ele><time>2026-04-18T10:23:03Z</time></trkpt><trkpt lat="44.64998411224021" lon="6.654175799002267"><ele>1133.5</ele><time>2026-04-18T10:23:04Z</time></trkpt><trkpt lat="44.649979004715995" lon="6.6543261145670805"><ele>1135.0</ele><time>2026-04-18T10:23:05Z</time></trkpt><trkpt lat="44.64992049797383" lon="6.654482254000082"><ele>1135.0</ele><time>2026-04-18T10:23:06Z</time></trkpt><trkpt lat="44.64980769031525" lon="6.6545576278937135"><ele>1135.0</ele><time>2026-04-18T10:23:07Z</time></trkpt><trkpt lat="44.649692147580645" lon="6.6546308908337695"><ele>1135.0</ele><time>2026-04-18T10:23:08Z</time></trkpt><trkpt lat="44.649572030436374" lon="6.654688138381681"><ele>1135.0</ele><time>2026-04-18T10:23:09Z</time></trkpt><trkpt lat="44.649417621841614" lon="6.654687191312042"><ele>1138.6666666666665</ele><time>2026-04-18T10:23:10Z</time></trkpt><trkpt lat="44.64924643383947" lon="6.6547453417857545"><ele>1142.3333333333333</ele><time>2026-04-18T10:23:11Z</time></trkpt><trkpt lat="44.64909797198179" lon="6.654870200538466"><ele>1146.0</ele><time>2026-04-18T10:23:12Z</time></trkpt><trkpt lat="44.648953584243536" lon="6.654986265839637"><ele>1146.0</ele><time>2026-04-18T10:23:13Z</time></trkpt><trkpt lat="44.648792098385634" lon="6.655089696046081"><ele>1146.0</ele><time>2026-04-18T10:23:14Z</time></trkpt><trkpt lat="44.648618994139035" lon="6.655216123548878"><ele>1146.0</ele><time>2026-04-18T10:23:15Z</time></trkpt><trkpt lat="44.648431343659304" lon="6.655297604129299"><ele>1150.0</ele><time>2026-04-18T10:23:16Z</time></trkpt><trkpt lat="44.648243420647646" lon="6.65532359552387"><ele>1154.0</ele><time>2026-04-18T10:23:17Z</time></trkpt><trkpt lat="44.6480280422203" lon="6.655339643452378"><ele>1158.0</ele><time>2026-04-18T10:23:18Z</time></trkpt><trkpt lat="44.647839410344865" lon="6.655387410703947"><ele>1163.3333333333333</ele><time>2026-04-18T10:23:19Z</time></trkpt><trkpt lat="44.647645144579435" lon="6.655482977792786"><ele>1168.6666666666665</ele><time>2026-04-18T10:23:20Z</time></trkpt><trkpt lat="44.6474343197286" lon="6.655536329198512"><ele>1174.0</ele><time>2026-04-18T10:23:21Z</time></trkpt><trkpt lat="44.647219931608994" lon="6.655573701408681"><ele>1174.0</ele><time>2026-04-18T10:23:22Z</time></trkpt><trkpt lat="44.647025211165136" lon="6.655579038344699"><ele>1174.0</ele><time>2026-04-18T10:23:23Z</time></trkpt><trkpt lat="44.64681074381208" lon="6.655585998442783"><ele>1174.0</ele><time>2026-04-18T10:23:24Z</time></trkpt><trkpt lat="44.64660488317663" lon="6.655573464676258"><ele>1177.0</ele><time>2026-04-18T10:23:25Z</time></trkpt><trkpt lat="44.64639138942732" lon="6.65553592413027"><ele>1180.0</ele><time>2026-04-18T10:23:26Z</time></trkpt><trkpt lat="44.64617702858667" lon="6.655497512879828"><ele>1183.0</ele><time>2026-04-18T10:23:27Z</time></trkpt><trkpt lat="44.64599820667412" lon="6.655468209772569"><ele>1186.6666666666665</ele><time>2026-04-18T10:23:28Z</time></trkpt><trkpt lat="44.645823340570104" lon="6.655442981423924"><ele>1190.3333333333333</ele><time>2026-04-18T10:23:29Z</time></trkpt><trkpt lat="44.64567643508579" lon="6.655437936982577"><ele>1194.0</ele><time>2026-04-18T10:23:30Z</time></trkpt><trkpt lat="44.64553772252679" lon="6.655464434203774"><ele>1194.0</ele><time>2026-04-18T10:23:31Z</time></trkpt><trkpt lat="44.645459520603765" lon="6.6555469541634835"><ele>1194.0</ele><time>2026-04-18T10:23:32Z</time></trkpt><trkpt lat="44.64536129522459" lon="6.655653453868067"><ele>1194.0</ele><time>2026-04-18T10:23:33Z</time></trkpt><trkpt lat="44.645218679352936" lon="6.655752987346063"><ele>1194.0</ele><time>2026-04-18T10:23:34Z</time></trkpt><trkpt lat="44.6450840064669" lon="6.655859336275353"><ele>1191.0</ele><time>2026-04-18T10:23:35Z</time></trkpt><trkpt lat="44.644946211965454" lon="6.656035201171554"><ele>1188.0</ele><time>2026-04-18T10:23:36Z</time></trkpt><trkpt lat="44.64478588169455" lon="6.656179781765946"><ele>1185.0</ele><time>2026-04-18T10:23:37Z</time></trkpt><trkpt lat="44.64458498100425" lon="6.656374157915934"><ele>1190.3333333333333</ele><time>2026-04-18T10:23:38Z</time></trkpt><trkpt lat="44.64439651833287" lon="6.656552821996853"><ele>1195.6666666666665</ele><time>2026-04-18T10:23:39Z</time></trkpt><trkpt lat="44.64421600452295" lon="6.656640775408661"><ele>1201.0</ele><time>2026-04-18T10:23:40Z</time></trkpt><trkpt lat="44.64403802963078" lon="6.656712865814324"><ele>1201.0</ele><time>2026-04-18T10:23:41Z</time></trkpt><trkpt lat="44.64385601801762" lon="6.656791721472521"><ele>1201.0</ele><time>2026-04-18T10:23:42Z</time></trkpt><trkpt lat="44.64370520770294" lon="6.6569211682764955"><ele>1201.0</ele><time>2026-04-18T10:23:43Z</time></trkpt><trkpt lat="44.64362865068923" lon="6.657051177014073"><ele>1202.0</ele><time>2026-04-18T10:23:44Z</time></trkpt><trkpt lat="44.64356651152236" lon="6.657161347705155"><ele>1203.0</ele><time>2026-04-18T10:23:45Z</time></trkpt><trkpt lat="44.64352764317969" lon="6.657290666340818"><ele>1204.0</ele><time>2026-04-18T10:23:46Z</time></trkpt><trkpt lat="44.643571572577514" lon="6.6574223040100975"><ele>1205.0</ele><time>2026-04-18T10:23:48Z</time></trkpt><trkpt lat="44.64372456926194" lon="6.657414739190413"><ele>1208.25</ele><time>2026-04-18T10:23:49Z</time></trkpt><trkpt lat="44.64379781857462" lon="6.657405125046408"><ele>1211.5</ele><time>2026-04-18T10:23:50Z</time></trkpt><trkpt lat="44.64391847005823" lon="6.657383585879123"><ele>1214.75</ele><time>2026-04-18T10:23:51Z</time></trkpt><trkpt lat="44.644066864840866" lon="6.657346620112981"><ele>1218.0</ele><time>2026-04-18T10:23:52Z</time></trkpt><trkpt lat="44.644237398964286" lon="6.657153149109814"><ele>1218.0</ele><time>2026-04-18T10:23:53Z</time></trkpt><trkpt lat="44.64443984217746" lon="6.657004400120046"><ele>1218.0</ele><time>2026-04-18T10:23:54Z</time></trkpt><trkpt lat="44.644608481412575" lon="6.656882706638113"><ele>1218.0</ele><time>2026-04-18T10:23:55Z</time></trkpt><trkpt lat="44.644793800811726" lon="6.656803952606882"><ele>1215.6666666666667</ele><time>2026-04-18T10:23:56Z</time></trkpt><trkpt lat="44.645016545834366" lon="6.656730593592512"><ele>1213.3333333333335</ele><time>2026-04-18T10:23:57Z</time></trkpt><trkpt lat="44.64522485860608" lon="6.656667250108485"><ele>1211.0</ele><time>2026-04-18T10:23:58Z</time></trkpt><trkpt lat="44.64539710318704" lon="6.656575782819221"><ele>1211.0</ele><time>2026-04-18T10:23:59Z</time></trkpt><trkpt lat="44.645547720301316" lon="6.656540233687517"><ele>1211.0</ele><time>2026-04-18T10:24:00Z</time></trkpt><trkpt lat="44.645669558376106" lon="6.656500364433358"><ele>1211.0</ele><time>2026-04-18T10:24:01Z</time></trkpt><trkpt lat="44.6457464383585" lon="6.656497911918534"><ele>1211.0</ele><time>2026-04-18T10:24:02Z</time></trkpt><trkpt lat="44.64583921387339" lon="6.656542553479806"><ele>1211.0</ele><time>2026-04-18T10:24:03Z</time></trkpt><trkpt lat="44.645920207174974" lon="6.656660007952699"><ele>1211.0</ele><time>2026-04-18T10:24:04Z</time></trkpt><trkpt lat="44.645925376700646" lon="6.6567906639469205"><ele>1211.0</ele><time>2026-04-18T10:24:05Z</time></trkpt><trkpt lat="44.64592299161783" lon="6.656952423010456"><ele>1211.0</ele><time>2026-04-18T10:24:06Z</time></trkpt><trkpt lat="44.645843156546746" lon="6.657046011739108"><ele>1211.0</ele><time>2026-04-18T10:24:07Z</time></trkpt><trkpt lat="44.64576771520535" lon="6.657124700425126"><ele>1212.0</ele><time>2026-04-18T10:24:08Z</time></trkpt><trkpt lat="44.645673337124066" lon="6.657251516203511"><ele>1213.0</ele><time>2026-04-18T10:24:09Z</time></trkpt><trkpt lat="44.64557506671985" lon="6.65738937850135"><ele>1214.0</ele><time>2026-04-18T10:24:10Z</time></trkpt><trkpt lat="44.64545118901229" lon="6.657648692994214"><ele>1211.3333333333335</ele><time>2026-04-18T10:24:11Z</time></trkpt><trkpt lat="44.645357995734535" lon="6.657901520936932"><ele>1208.6666666666667</ele><time>2026-04-18T10:24:12Z</time></trkpt><trkpt lat="44.64522969858834" lon="6.658197846286285"><ele>1206.0</ele><time>2026-04-18T10:24:13Z</time></trkpt><trkpt lat="44.645137934711194" lon="6.658421117154991"><ele>1211.6666666666667</ele><time>2026-04-18T10:24:14Z</time></trkpt><trkpt lat="44.64501651316461" lon="6.658574801519437"><ele>1217.3333333333335</ele><time>2026-04-18T10:24:15Z</time></trkpt><trkpt lat="44.64487684182851" lon="6.658682066433544"><ele>1223.0</ele><time>2026-04-18T10:24:16Z</time></trkpt><trkpt lat="44.644714905707225" lon="6.65881084764239"><ele>1223.0</ele><time>2026-04-18T10:24:17Z</time></trkpt><trkpt lat="44.64454391719561" lon="6.658952911032099"><ele>1223.0</ele><time>2026-04-18T10:24:18Z</time></trkpt><trkpt lat="44.64434794435456" lon="6.6590807954719695"><ele>1223.0</ele><time>2026-04-18T10:24:19Z</time></trkpt><trkpt lat="44.64419100676095" lon="6.6592060252539556"><ele>1228.3333333333335</ele><time>2026-04-18T10:24:20Z</time></trkpt><trkpt lat="44.644051476972514" lon="6.65935128395768"><ele>1233.6666666666667</ele><time>2026-04-18T10:24:21Z</time></trkpt><trkpt lat="44.643928073243295" lon="6.659501786401901"><ele>1239.0</ele><time>2026-04-18T10:24:22Z</time></trkpt><trkpt lat="44.6438054939921" lon="6.659681099505201"><ele>1240.0</ele><time>2026-04-18T10:24:23Z</time></trkpt><trkpt lat="44.64367880949084" lon="6.659908512928889"><ele>1241.0</ele><time>2026-04-18T10:24:24Z</time></trkpt><trkpt lat="44.64357118494106" lon="6.660116251222801"><ele>1242.0</ele><time>2026-04-18T10:24:25Z</time></trkpt><trkpt lat="44.643506613251986" lon="6.660321332894114"><ele>1247.25</ele><time>2026-04-18T10:24:26Z</time></trkpt><trkpt lat="44.64342339793961" lon="6.660451330242548"><ele>1252.5</ele><time>2026-04-18T10:24:27Z</time></trkpt><trkpt lat="44.64330170621695" lon="6.660583115114279"><ele>1257.75</ele><time>2026-04-18T10:24:28Z</time></trkpt><trkpt lat="44.643200549308645" lon="6.660722742273975"><ele>1263.0</ele><time>2026-04-18T10:24:29Z</time></trkpt><trkpt lat="44.643147668590714" lon="6.660907838124061"><ele>1263.0</ele><time>2026-04-18T10:24:30Z</time></trkpt><trkpt lat="44.64310415300127" lon="6.661028028849958"><ele>1263.0</ele><time>2026-04-18T10:24:31Z</time></trkpt><trkpt lat="44.64306886462203" lon="6.661195631251896"><ele>1263.0</ele><time>2026-04-18T10:24:32Z</time></trkpt><trkpt lat="44.64306806571229" lon="6.661455148167702"><ele>1263.0</ele><time>2026-04-18T10:24:33Z</time></trkpt><trkpt lat="44.643036725658064" lon="6.661631063321115"><ele>1263.8</ele><time>2026-04-18T10:24:34Z</time></trkpt><trkpt lat="44.643047507378434" lon="6.661726779392903"><ele>1264.6</ele><time>2026-04-18T10:24:35Z</time></trkpt><trkpt lat="44.64297108169526" lon="6.661797705670119"><ele>1265.4</ele><time>2026-04-18T10:24:36Z</time></trkpt><trkpt lat="44.64284583596387" lon="6.661835581386931"><ele>1266.2</ele><time>2026-04-18T10:24:37Z</time></trkpt><trkpt lat="44.642723254830734" lon="6.661911691387453"><ele>1267.0</ele><time>2026-04-18T10:24:38Z</time></trkpt><trkpt lat="44.642597012104126" lon="6.661990074754495"><ele>1276.0</ele><time>2026-04-18T10:24:39Z</time></trkpt><trkpt lat="44.6424576723858" lon="6.6620669186148085"><ele>1285.0</ele><time>2026-04-18T10:24:40Z</time></trkpt><trkpt lat="44.642304187562935" lon="6.662101464480179"><ele>1294.0</ele><time>2026-04-18T10:24:41Z</time></trkpt><trkpt lat="44.642164440295645" lon="6.662098604529572"><ele>1303.0</ele><time>2026-04-18T10:24:42Z</time></trkpt><trkpt lat="44.64200383106692" lon="6.66208389608971"><ele>1298.5</ele><time>2026-04-18T10:24:43Z</time></trkpt><trkpt lat="44.641677453651724" lon="6.662043767219022"><ele>1294.0</ele><time>2026-04-18T10:24:44Z</time></trkpt><trkpt lat="44.641506314784934" lon="6.66202166776968"><ele>1294.0</ele><time>2026-04-18T10:24:45Z</time></trkpt><trkpt lat="44.64138317197631" lon="6.6620212368943"><ele>1294.0</ele><time>2026-04-18T10:24:46Z</time></trkpt><trkpt lat="44.64125264820177" lon="6.662014546012257"><ele>1294.0</ele><time>2026-04-18T10:24:47Z</time></trkpt><trkpt lat="44.641142492756906" lon="6.662023938260414"><ele>1294.0</ele><time>2026-04-18T10:24:48Z</time></trkpt><trkpt lat="44.641019361956545" lon="6.662056631318477"><ele>1294.0</ele><time>2026-04-18T10:24:49Z</time></trkpt><trkpt lat="44.64099290010201" lon="6.662199596516072"><ele>1294.0</ele><time>2026-04-18T10:24:51Z</time></trkpt><trkpt lat="44.640974922872594" lon="6.6623216324485295"><ele>1294.0</ele><time>2026-04-18T10:24:52Z</time></trkpt><trkpt lat="44.640978128388134" lon="6.662500595192651"><ele>1294.0</ele><time>2026-04-18T10:24:53Z</time></trkpt><trkpt lat="44.64103954752251" lon="6.662604261270658"><ele>1294.0</ele><time>2026-04-18T10:24:55Z</time></trkpt><trkpt lat="44.64114072229683" lon="6.662621107702117"><ele>1294.0</ele><time>2026-04-18T10:24:56Z</time></trkpt><trkpt lat="44.64150275362155" lon="6.662701225499174"><ele>1294.0</ele><time>2026-04-18T10:24:57Z</time></trkpt><trkpt lat="44.641718157679215" lon="6.662730634115637"><ele>1294.0</ele><time>2026-04-18T10:24:58Z</time></trkpt><trkpt lat="44.64193798523528" lon="6.6627630449113555"><ele>1294.0</ele><time>2026-04-18T10:24:59Z</time></trkpt><trkpt lat="44.64214676825182" lon="6.662729923601782"><ele>1294.0</ele><time>2026-04-18T10:25:00Z</time></trkpt><trkpt lat="44.64233112425747" lon="6.66260846371493"><ele>1297.0</ele><time>2026-04-18T10:25:01Z</time></trkpt><trkpt lat="44.64248047706017" lon="6.662540461208974"><ele>1300.0</ele><time>2026-04-18T10:25:02Z</time></trkpt><trkpt lat="44.642636881664856" lon="6.662529290175626"><ele>1303.0</ele><time>2026-04-18T10:25:03Z</time></trkpt><trkpt lat="44.64279106039358" lon="6.662483379282946"><ele>1302.25</ele><time>2026-04-18T10:25:04Z</time></trkpt><trkpt lat="44.642930987010764" lon="6.662424307900638"><ele>1301.5</ele><time>2026-04-18T10:25:05Z</time></trkpt><trkpt lat="44.64307119732459" lon="6.662376632043538"><ele>1300.75</ele><time>2026-04-18T10:25:06Z</time></trkpt><trkpt lat="44.643183619717135" lon="6.662344402216434"><ele>1300.0</ele><time>2026-04-18T10:25:07Z</time></trkpt><trkpt lat="44.64325261412605" lon="6.6623720935325235"><ele>1300.0</ele><time>2026-04-18T10:25:08Z</time></trkpt><trkpt lat="44.64329444982901" lon="6.662469162603189"><ele>1300.0</ele><time>2026-04-18T10:25:09Z</time></trkpt><trkpt lat="44.64330671796823" lon="6.662632687443243"><ele>1300.0</ele><time>2026-04-18T10:25:10Z</time></trkpt><trkpt lat="44.6432750948732" lon="6.662783870296218"><ele>1300.0</ele><time>2026-04-18T10:25:11Z</time></trkpt><trkpt lat="44.64322356042612" lon="6.662919075858842"><ele>1300.0</ele><time>2026-04-18T10:25:12Z</time></trkpt><trkpt lat="44.64310814446455" lon="6.662981935315421"><ele>1298.6666666666665</ele><time>2026-04-18T10:25:13Z</time></trkpt><trkpt lat="44.643001474441576" lon="6.6630447804773745"><ele>1297.3333333333333</ele><time>2026-04-18T10:25:14Z</time></trkpt><trkpt lat="44.6428442838878" lon="6.663137500979701"><ele>1296.0</ele><time>2026-04-18T10:25:15Z</time></trkpt><trkpt lat="44.64265110400729" lon="6.663247219908467"><ele>1304.6666666666667</ele><time>2026-04-18T10:25:16Z</time></trkpt><trkpt lat="44.642461193985156" lon="6.663333413297645"><ele>1313.3333333333335</ele><time>2026-04-18T10:25:17Z</time></trkpt><trkpt lat="44.64227921129862" lon="6.663364301594941"><ele>1322.0</ele><time>2026-04-18T10:25:18Z</time></trkpt><trkpt lat="44.64213643865806" lon="6.663359438215551"><ele>1322.25</ele><time>2026-04-18T10:25:19Z</time></trkpt><trkpt lat="44.641956352536944" lon="6.663351685272892"><ele>1322.5</ele><time>2026-04-18T10:25:20Z</time></trkpt><trkpt lat="44.64183586145859" lon="6.66336882476584"><ele>1322.75</ele><time>2026-04-18T10:25:21Z</time></trkpt><trkpt lat="44.641713853312176" lon="6.663425894148714"><ele>1323.0</ele><time>2026-04-18T10:25:22Z</time></trkpt><trkpt lat="44.64164031923466" lon="6.66346720634642"><ele>1323.0</ele><time>2026-04-18T10:25:23Z</time></trkpt><trkpt lat="44.641585543122474" lon="6.663605068583585"><ele>1323.0</ele><time>2026-04-18T10:25:24Z</time></trkpt><trkpt lat="44.641546757822425" lon="6.663830194084799"><ele>1323.0</ele><time>2026-04-18T10:25:25Z</time></trkpt><trkpt lat="44.641484838503544" lon="6.664113976179713"><ele>1340.0</ele><time>2026-04-18T10:25:26Z</time></trkpt><trkpt lat="44.64140351244435" lon="6.664493697062904"><ele>1357.0</ele><time>2026-04-18T10:25:27Z</time></trkpt><trkpt lat="44.6413105483714" lon="6.664753706233081"><ele>1357.0</ele><time>2026-04-18T10:25:28Z</time></trkpt><trkpt lat="44.64123724041523" lon="6.664996625158951"><ele>1357.0</ele><time>2026-04-18T10:25:29Z</time></trkpt><trkpt lat="44.64114338562222" lon="6.665199863827179"><ele>1357.0</ele><time>2026-04-18T10:25:30Z</time></trkpt><trkpt lat="44.64106135503725" lon="6.665341542131935"><ele>1360.5</ele><time>2026-04-18T10:25:31Z</time></trkpt><trkpt lat="44.640969730394545" lon="6.665417229507597"><ele>1364.0</ele><time>2026-04-18T10:25:32Z</time></trkpt><trkpt lat="44.64081869460754" lon="6.665478944191374"><ele>1367.5</ele><time>2026-04-18T10:25:33Z</time></trkpt><trkpt lat="44.64066284014647" lon="6.665573759511118"><ele>1371.0</ele><time>2026-04-18T10:25:34Z</time></trkpt><trkpt lat="44.64047549817501" lon="6.665682314970995"><ele>1371.0</ele><time>2026-04-18T10:25:35Z</time></trkpt><trkpt lat="44.64032854057014" lon="6.66575490979914"><ele>1371.0</ele><time>2026-04-18T10:25:36Z</time></trkpt><trkpt lat="44.64020235339785" lon="6.6657697956527215"><ele>1371.0</ele><time>2026-04-18T10:25:37Z</time></trkpt><trkpt lat="44.64008903736718" lon="6.665742374272743"><ele>1371.0</ele><time>2026-04-18T10:25:38Z</time></trkpt><trkpt lat="44.63996925797659" lon="6.665669651662973"><ele>1372.6666666666667</ele><time>2026-04-18T10:25:39Z</time></trkpt><trkpt lat="44.63982750328735" lon="6.665593041519446"><ele>1374.3333333333335</ele><time>2026-04-18T10:25:40Z</time></trkpt><trkpt lat="44.639634269475806" lon="6.665510016013231"><ele>1376.0</ele><time>2026-04-18T10:25:41Z</time></trkpt><trkpt lat="44.63949202230062" lon="6.665482100202083"><ele>1380.0</ele><time>2026-04-18T10:25:42Z</time></trkpt><trkpt lat="44.63933768396303" lon="6.665506065999699"><ele>1384.0</ele><time>2026-04-18T10:25:43Z</time></trkpt><trkpt lat="44.63917276268108" lon="6.665505414858023"><ele>1388.0</ele><time>2026-04-18T10:25:44Z</time></trkpt><trkpt lat="44.63898463993574" lon="6.665529938755778"><ele>1388.0</ele><time>2026-04-18T10:25:45Z</time></trkpt><trkpt lat="44.638742608410254" lon="6.665661999184001"><ele>1388.0</ele><time>2026-04-18T10:25:46Z</time></trkpt><trkpt lat="44.638508133346534" lon="6.665706433888726"><ele>1386.6666666666667</ele><time>2026-04-18T10:25:47Z</time></trkpt><trkpt lat="44.638329915990816" lon="6.665740328305502"><ele>1385.3333333333333</ele><time>2026-04-18T10:25:48Z</time></trkpt><trkpt lat="44.638151914204336" lon="6.665728493951597"><ele>1384.0</ele><time>2026-04-18T10:25:49Z</time></trkpt><trkpt lat="44.637998678832666" lon="6.665700211279868"><ele>1384.0</ele><time>2026-04-18T10:25:50Z</time></trkpt><trkpt lat="44.63782944155946" lon="6.665682884789681"><ele>1384.0</ele><time>2026-04-18T10:25:51Z</time></trkpt><trkpt lat="44.63767343743297" lon="6.665701782585085"><ele>1384.0</ele><time>2026-04-18T10:25:52Z</time></trkpt><trkpt lat="44.63754355407882" lon="6.665717740020367"><ele>1382.6</ele><time>2026-04-18T10:25:53Z</time></trkpt><trkpt lat="44.6374281356218" lon="6.665742105121781"><ele>1381.2</ele><time>2026-04-18T10:25:54Z</time></trkpt><trkpt lat="44.63732376391699" lon="6.66576414514571"><ele>1379.8</ele><time>2026-04-18T10:25:55Z</time></trkpt><trkpt lat="44.63726654716866" lon="6.665935895162066"><ele>1378.3999999999999</ele><time>2026-04-18T10:25:57Z</time></trkpt><trkpt lat="44.63726908083239" lon="6.666055888047112"><ele>1377.0</ele><time>2026-04-18T10:25:58Z</time></trkpt><trkpt lat="44.63726340536873" lon="6.66614448403198"><ele>1384.3333333333333</ele><time>2026-04-18T10:25:59Z</time></trkpt><trkpt lat="44.63734964067109" lon="6.666239447476158"><ele>1391.6666666666665</ele><time>2026-04-18T10:26:01Z</time></trkpt><trkpt lat="44.63749984405535" lon="6.666208488556938"><ele>1399.0</ele><time>2026-04-18T10:26:02Z</time></trkpt><trkpt lat="44.637776023673624" lon="6.666212214797314"><ele>1403.3333333333333</ele><time>2026-04-18T10:26:03Z</time></trkpt><trkpt lat="44.63792955235373" lon="6.666186232376235"><ele>1407.6666666666667</ele><time>2026-04-18T10:26:04Z</time></trkpt><trkpt lat="44.638085914757674" lon="6.666206873653746"><ele>1412.0</ele><time>2026-04-18T10:26:05Z</time></trkpt><trkpt lat="44.63824968101319" lon="6.666263541690732"><ele>1412.0</ele><time>2026-04-18T10:26:06Z</time></trkpt><trkpt lat="44.638435090292475" lon="6.666348996992704"><ele>1412.0</ele><time>2026-04-18T10:26:07Z</time></trkpt><trkpt lat="44.63862882954871" lon="6.666435473522693"><ele>1412.0</ele><time>2026-04-18T10:26:08Z</time></trkpt><trkpt lat="44.638824316232686" lon="6.666522321348027"><ele>1411.6666666666667</ele><time>2026-04-18T10:26:09Z</time></trkpt><trkpt lat="44.63904609795536" lon="6.666615030979221"><ele>1411.3333333333333</ele><time>2026-04-18T10:26:10Z</time></trkpt><trkpt lat="44.639238698093635" lon="6.6666894131629375"><ele>1411.0</ele><time>2026-04-18T10:26:11Z</time></trkpt><trkpt lat="44.639406619713945" lon="6.666781017586475"><ele>1410.75</ele><time>2026-04-18T10:26:12Z</time></trkpt><trkpt lat="44.639559602445566" lon="6.666831349109712"><ele>1410.5</ele><time>2026-04-18T10:26:13Z</time></trkpt><trkpt lat="44.63967156010331" lon="6.666888023218376"><ele>1410.25</ele><time>2026-04-18T10:26:14Z</time></trkpt><trkpt lat="44.63978222493388" lon="6.66694095465667"><ele>1410.0</ele><time>2026-04-18T10:26:15Z</time></trkpt><trkpt lat="44.63987981385182" lon="6.666987038879644"><ele>1413.2</ele><time>2026-04-18T10:26:16Z</time></trkpt><trkpt lat="44.639948007806865" lon="6.667068976266531"><ele>1416.4</ele><time>2026-04-18T10:26:17Z</time></trkpt><trkpt lat="44.64000607119214" lon="6.667160001292783"><ele>1419.6</ele><time>2026-04-18T10:26:18Z</time></trkpt><trkpt lat="44.63993013977443" lon="6.667283429006399"><ele>1422.8</ele><time>2026-04-18T10:26:19Z</time></trkpt><trkpt lat="44.63987559644292" lon="6.6673988662117525"><ele>1426.0</ele><time>2026-04-18T10:26:20Z</time></trkpt><trkpt lat="44.639796199965126" lon="6.667425031264053"><ele>1426.0</ele><time>2026-04-18T10:26:21Z</time></trkpt><trkpt lat="44.63969419417919" lon="6.667399504332226"><ele>1426.0</ele><time>2026-04-18T10:26:22Z</time></trkpt><trkpt lat="44.6395915168889" lon="6.667368835612525"><ele>1426.0</ele><time>2026-04-18T10:26:23Z</time></trkpt><trkpt lat="44.63947720994795" lon="6.66733788875747"><ele>1426.0</ele><time>2026-04-18T10:26:24Z</time></trkpt><trkpt lat="44.63933773485161" lon="6.667333441105767"><ele>1427.0</ele><time>2026-04-18T10:26:25Z</time></trkpt><trkpt lat="44.63920568551584" lon="6.6673022375281406"><ele>1428.0</ele><time>2026-04-18T10:26:26Z</time></trkpt><trkpt lat="44.639069503403526" lon="6.667279655637212"><ele>1429.0</ele><time>2026-04-18T10:26:27Z</time></trkpt><trkpt lat="44.63893876048654" lon="6.667278333853446"><ele>1430.0</ele><time>2026-04-18T10:26:28Z</time></trkpt><trkpt lat="44.638821083391726" lon="6.667293768959368"><ele>1430.0</ele><time>2026-04-18T10:26:29Z</time></trkpt><trkpt lat="44.638727168181454" lon="6.6673482851679955"><ele>1430.0</ele><time>2026-04-18T10:26:30Z</time></trkpt><trkpt lat="44.63863966157257" lon="6.667441936073754"><ele>1430.0</ele><time>2026-04-18T10:26:31Z</time></trkpt><trkpt lat="44.63855503062512" lon="6.667574304366947"><ele>1430.0</ele><time>2026-04-18T10:26:32Z</time></trkpt><trkpt lat="44.63844810746285" lon="6.667793022620906"><ele>1434.0</ele><time>2026-04-18T10:26:33Z</time></trkpt><trkpt lat="44.63831690301831" lon="6.667923345778825"><ele>1438.0</ele><time>2026-04-18T10:26:34Z</time></trkpt><trkpt lat="44.638163515643114" lon="6.668029483352796"><ele>1442.0</ele><time>2026-04-18T10:26:35Z</time></trkpt><trkpt lat="44.63792173019094" lon="6.668126910753141"><ele>1442.3333333333335</ele><time>2026-04-18T10:26:36Z</time></trkpt><trkpt lat="44.637710645353955" lon="6.668219230370965"><ele>1442.6666666666667</ele><time>2026-04-18T10:26:37Z</time></trkpt><trkpt lat="44.63749215747074" lon="6.668308843798358"><ele>1443.0</ele><time>2026-04-18T10:26:38Z</time></trkpt><trkpt lat="44.63731221422675" lon="6.668410444759143"><ele>1443.0</ele><time>2026-04-18T10:26:39Z</time></trkpt><trkpt lat="44.63715004152428" lon="6.668489914421486"><ele>1443.0</ele><time>2026-04-18T10:26:40Z</time></trkpt><trkpt lat="44.636986047604815" lon="6.668514670271024"><ele>1443.0</ele><time>2026-04-18T10:26:41Z</time></trkpt><trkpt lat="44.63684684399182" lon="6.668503198883192"><ele>1443.75</ele><time>2026-04-18T10:26:42Z</time></trkpt><trkpt lat="44.63669412498092" lon="6.66844040195764"><ele>1444.5</ele><time>2026-04-18T10:26:43Z</time></trkpt><trkpt lat="44.6365415963378" lon="6.668388275233276"><ele>1445.25</ele><time>2026-04-18T10:26:44Z</time></trkpt><trkpt lat="44.63642111354642" lon="6.6683436186293505"><ele>1446.0</ele><time>2026-04-18T10:26:45Z</time></trkpt><trkpt lat="44.636315035205314" lon="6.668338076994197"><ele>1446.0</ele><time>2026-04-18T10:26:46Z</time></trkpt><trkpt lat="44.636225686487194" lon="6.668347988340007"><ele>1446.0</ele><time>2026-04-18T10:26:47Z</time></trkpt><trkpt lat="44.636172746467516" lon="6.668403159389381"><ele>1446.0</ele><time>2026-04-18T10:26:48Z</time></trkpt><trkpt lat="44.63613184326774" lon="6.668491239872539"><ele>1446.0</ele><time>2026-04-18T10:26:49Z</time></trkpt><trkpt lat="44.636111721774476" lon="6.66864375450874"><ele>1446.0</ele><time>2026-04-18T10:26:50Z</time></trkpt><trkpt lat="44.63611596449185" lon="6.668785474410646"><ele>1446.0</ele><time>2026-04-18T10:26:51Z</time></trkpt><trkpt lat="44.63615489470887" lon="6.6689134630933795"><ele>1448.5</ele><time>2026-04-18T10:26:52Z</time></trkpt><trkpt lat="44.63620467961555" lon="6.6690228524443285"><ele>1451.0</ele><time>2026-04-18T10:26:53Z</time></trkpt><trkpt lat="44.63633533432134" lon="6.66908312855908"><ele>1453.5</ele><time>2026-04-18T10:26:54Z</time></trkpt><trkpt lat="44.63652121225626" lon="6.669149677993115"><ele>1456.0</ele><time>2026-04-18T10:26:55Z</time></trkpt><trkpt lat="44.636690576359" lon="6.6692331918486305"><ele>1456.0</ele><time>2026-04-18T10:26:56Z</time></trkpt><trkpt lat="44.63683910402411" lon="6.669331894839467"><ele>1456.0</ele><time>2026-04-18T10:26:57Z</time></trkpt><trkpt lat="44.636986615756555" lon="6.669392084852989"><ele>1456.0</ele><time>2026-04-18T10:26:58Z</time></trkpt><trkpt lat="44.637147243306146" lon="6.669410696981827"><ele>1456.0</ele><time>2026-04-18T10:26:59Z</time></trkpt><trkpt lat="44.63730859403994" lon="6.669395266984677"><ele>1456.0</ele><time>2026-04-18T10:27:00Z</time></trkpt><trkpt lat="44.637462912061636" lon="6.669390366107709"><ele>1456.0</ele><time>2026-04-18T10:27:01Z</time></trkpt><trkpt lat="44.637569033892404" lon="6.669377679366529"><ele>1456.0</ele><time>2026-04-18T10:27:02Z</time></trkpt><trkpt lat="44.63764985413112" lon="6.669393024810174"><ele>1457.1666666666665</ele><time>2026-04-18T10:27:03Z</time></trkpt><trkpt lat="44.637703241764484" lon="6.669496624269795"><ele>1458.3333333333333</ele><time>2026-04-18T10:27:04Z</time></trkpt><trkpt lat="44.63773093023878" lon="6.669595087117736"><ele>1459.5</ele><time>2026-04-18T10:27:05Z</time></trkpt><trkpt lat="44.63769119096811" lon="6.6697264286868405"><ele>1460.6666666666667</ele><time>2026-04-18T10:27:06Z</time></trkpt><trkpt lat="44.63763087703919" lon="6.669821186855988"><ele>1461.8333333333335</ele><time>2026-04-18T10:27:07Z</time></trkpt><trkpt lat="44.63755086665496" lon="6.66986498289361"><ele>1463.0</ele><time>2026-04-18T10:27:08Z</time></trkpt><trkpt lat="44.63744865590997" lon="6.669849523804591"><ele>1463.0</ele><time>2026-04-18T10:27:09Z</time></trkpt><trkpt lat="44.637325630326224" lon="6.669864136555238"><ele>1463.0</ele><time>2026-04-18T10:27:10Z</time></trkpt><trkpt lat="44.63719368260576" lon="6.669898685369635"><ele>1463.0</ele><time>2026-04-18T10:27:11Z</time></trkpt><trkpt lat="44.63704504703992" lon="6.669912430936823"><ele>1463.0</ele><time>2026-04-18T10:27:12Z</time></trkpt><trkpt lat="44.63687662987206" lon="6.669938088054024"><ele>1467.0</ele><time>2026-04-18T10:27:13Z</time></trkpt><trkpt lat="44.63671025683472" lon="6.6699715184396275"><ele>1471.0</ele><time>2026-04-18T10:27:14Z</time></trkpt><trkpt lat="44.636536969901776" lon="6.669951047215283"><ele>1475.0</ele><time>2026-04-18T10:27:15Z</time></trkpt><trkpt lat="44.636362159914114" lon="6.669964872549018"><ele>1475.0</ele><time>2026-04-18T10:27:16Z</time></trkpt><trkpt lat="44.63619315182906" lon="6.669938250903081"><ele>1475.0</ele><time>2026-04-18T10:27:17Z</time></trkpt><trkpt lat="44.63602181326152" lon="6.669892607594112"><ele>1475.0</ele><time>2026-04-18T10:27:18Z</time></trkpt><trkpt lat="44.63584631205149" lon="6.669849736458269"><ele>1479.0</ele><time>2026-04-18T10:27:19Z</time></trkpt><trkpt lat="44.635676147374895" lon="6.669793491963746"><ele>1483.0</ele><time>2026-04-18T10:27:20Z</time></trkpt><trkpt lat="44.63550800397181" lon="6.669725086431901"><ele>1487.0</ele><time>2026-04-18T10:27:21Z</time></trkpt><trkpt lat="44.63535110871346" lon="6.669664663319404"><ele>1488.75</ele><time>2026-04-18T10:27:22Z</time></trkpt><trkpt lat="44.635216774349985" lon="6.669615909399713"><ele>1490.5</ele><time>2026-04-18T10:27:23Z</time></trkpt><trkpt lat="44.63508987523816" lon="6.6695999114550695"><ele>1492.25</ele><time>2026-04-18T10:27:24Z</time></trkpt><trkpt lat="44.63497388030125" lon="6.669599817317281"><ele>1494.0</ele><time>2026-04-18T10:27:25Z</time></trkpt><trkpt lat="44.634861193542676" lon="6.669641306401946"><ele>1494.0</ele><time>2026-04-18T10:27:26Z</time></trkpt><trkpt lat="44.63474109185706" lon="6.669699031570356"><ele>1494.0</ele><time>2026-04-18T10:27:27Z</time></trkpt><trkpt lat="44.63460838169959" lon="6.669850622287361"><ele>1494.0</ele><time>2026-04-18T10:27:28Z</time></trkpt><trkpt lat="44.63446978234355" lon="6.6699805015462434"><ele>1490.3333333333333</ele><time>2026-04-18T10:27:29Z</time></trkpt><trkpt lat="44.634326498640064" lon="6.670097668747951"><ele>1486.6666666666665</ele><time>2026-04-18T10:27:30Z</time></trkpt><trkpt lat="44.63414675485523" lon="6.6702720054397195"><ele>1483.0</ele><time>2026-04-18T10:27:31Z</time></trkpt><trkpt lat="44.633916327110065" lon="6.670437555999629"><ele>1488.3333333333333</ele><time>2026-04-18T10:27:32Z</time></trkpt><trkpt lat="44.63373308305397" lon="6.670589183363822"><ele>1493.6666666666667</ele><time>2026-04-18T10:27:33Z</time></trkpt><trkpt lat="44.63357362652752" lon="6.670710327240358"><ele>1499.0</ele><time>2026-04-18T10:27:34Z</time></trkpt><trkpt lat="44.633429430346794" lon="6.670813324850819"><ele>1499.0</ele><time>2026-04-18T10:27:35Z</time></trkpt><trkpt lat="44.633305634986314" lon="6.67089468094442"><ele>1499.0</ele><time>2026-04-18T10:27:36Z</time></trkpt><trkpt lat="44.633182215881426" lon="6.671004569347918"><ele>1499.0</ele><time>2026-04-18T10:27:37Z</time></trkpt><trkpt lat="44.63309095330686" lon="6.671126405360968"><ele>1499.0</ele><time>2026-04-18T10:27:38Z</time></trkpt><trkpt lat="44.63305651979305" lon="6.6712419202370405"><ele>1500.5</ele><time>2026-04-18T10:27:39Z</time></trkpt><trkpt lat="44.63300419448539" lon="6.671418948359774"><ele>1502.0</ele><time>2026-04-18T10:27:40Z</time></trkpt><trkpt lat="44.63298581593053" lon="6.671609780031556"><ele>1503.5</ele><time>2026-04-18T10:27:41Z</time></trkpt><trkpt lat="44.632967405219134" lon="6.671757514289866"><ele>1505.0</ele><time>2026-04-18T10:27:42Z</time></trkpt><trkpt lat="44.633028083840586" lon="6.67185369075536"><ele>1499.0</ele><time>2026-04-18T10:27:43Z</time></trkpt><trkpt lat="44.63312184962219" lon="6.6719937945206835"><ele>1493.0</ele><time>2026-04-18T10:27:44Z</time></trkpt><trkpt lat="44.63322717130988" lon="6.672055429028915"><ele>1487.0</ele><time>2026-04-18T10:27:45Z</time></trkpt><trkpt lat="44.63333423516829" lon="6.672061889706364"><ele>1481.0</ele><time>2026-04-18T10:27:46Z</time></trkpt><trkpt lat="44.633438255622245" lon="6.672067784404078"><ele>1491.0</ele><time>2026-04-18T10:27:47Z</time></trkpt><trkpt lat="44.633646335323185" lon="6.672111323769716"><ele>1501.0</ele><time>2026-04-18T10:27:48Z</time></trkpt><trkpt lat="44.633823223967454" lon="6.672253281027167"><ele>1511.0</ele><time>2026-04-18T10:27:49Z</time></trkpt><trkpt lat="44.63395793930149" lon="6.672399513027469"><ele>1511.0</ele><time>2026-04-18T10:27:50Z</time></trkpt><trkpt lat="44.63411117644685" lon="6.6725450988934"><ele>1511.0</ele><time>2026-04-18T10:27:51Z</time></trkpt><trkpt lat="44.63426120115385" lon="6.672704664928621"><ele>1511.0</ele><time>2026-04-18T10:27:52Z</time></trkpt><trkpt lat="44.634396433077214" lon="6.67285355359557"><ele>1515.3333333333335</ele><time>2026-04-18T10:27:53Z</time></trkpt><trkpt lat="44.63449239202633" lon="6.673007328537917"><ele>1519.6666666666667</ele><time>2026-04-18T10:27:54Z</time></trkpt><trkpt lat="44.634568768636576" lon="6.673229301933632"><ele>1524.0</ele><time>2026-04-18T10:27:55Z</time></trkpt><trkpt lat="44.63460878186069" lon="6.673448771420057"><ele>1523.3333333333333</ele><time>2026-04-18T10:27:56Z</time></trkpt><trkpt lat="44.634644621034205" lon="6.673703209396274"><ele>1522.6666666666665</ele><time>2026-04-18T10:27:57Z</time></trkpt><trkpt lat="44.63466258891216" lon="6.674044446393764"><ele>1522.0</ele><time>2026-04-18T10:27:58Z</time></trkpt><trkpt lat="44.63468228526141" lon="6.674288152723459"><ele>1523.25</ele><time>2026-04-18T10:27:59Z</time></trkpt><trkpt lat="44.63468143217147" lon="6.674494791550716"><ele>1524.5</ele><time>2026-04-18T10:28:00Z</time></trkpt><trkpt lat="44.63463463478574" lon="6.674692060206855"><ele>1525.75</ele><time>2026-04-18T10:28:01Z</time></trkpt><trkpt lat="44.634589495887454" lon="6.674890368040031"><ele>1527.0</ele><time>2026-04-18T10:28:02Z</time></trkpt><trkpt lat="44.634515419545906" lon="6.67508423094172"><ele>1524.6666666666667</ele><time>2026-04-18T10:28:03Z</time></trkpt><trkpt lat="44.63440146768492" lon="6.675249851902156"><ele>1522.3333333333335</ele><time>2026-04-18T10:28:04Z</time></trkpt><trkpt lat="44.63426849235408" lon="6.675432700943054"><ele>1520.0</ele><time>2026-04-18T10:28:05Z</time></trkpt><trkpt lat="44.63412679234845" lon="6.67564948608476"><ele>1525.0</ele><time>2026-04-18T10:28:06Z</time></trkpt><trkpt lat="44.633954014573675" lon="6.675854343785651"><ele>1530.0</ele><time>2026-04-18T10:28:07Z</time></trkpt><trkpt lat="44.63382014277206" lon="6.6760640971402925"><ele>1535.0</ele><time>2026-04-18T10:28:08Z</time></trkpt><trkpt lat="44.63368972545104" lon="6.6762521340780845"><ele>1540.0</ele><time>2026-04-18T10:28:09Z</time></trkpt><trkpt lat="44.63356293917706" lon="6.67642065460086"><ele>1545.0</ele><time>2026-04-18T10:28:10Z</time></trkpt><trkpt lat="44.63345805667158" lon="6.676557535032922"><ele>1550.0</ele><time>2026-04-18T10:28:11Z</time></trkpt><trkpt lat="44.63332807424615" lon="6.676659435803479"><ele>1550.0</ele><time>2026-04-18T10:28:12Z</time></trkpt><trkpt lat="44.63318598027377" lon="6.67672468541435"><ele>1550.0</ele><time>2026-04-18T10:28:13Z</time></trkpt><trkpt lat="44.633023788588446" lon="6.6767632446753264"><ele>1550.0</ele><time>2026-04-18T10:28:14Z</time></trkpt><trkpt lat="44.63285377491407" lon="6.676779970665697"><ele>1553.0</ele><time>2026-04-18T10:28:15Z</time></trkpt><trkpt lat="44.632685883518576" lon="6.676716404371955"><ele>1556.0</ele><time>2026-04-18T10:28:16Z</time></trkpt><trkpt lat="44.63251405482337" lon="6.676632244655586"><ele>1559.0</ele><time>2026-04-18T10:28:17Z</time></trkpt><trkpt lat="44.63236302631004" lon="6.6765909004186"><ele>1559.0</ele><time>2026-04-18T10:28:18Z</time></trkpt><trkpt lat="44.632218399833036" lon="6.676539118146316"><ele>1559.0</ele><time>2026-04-18T10:28:19Z</time></trkpt><trkpt lat="44.632056239923564" lon="6.676531025547659"><ele>1559.0</ele><time>2026-04-18T10:28:20Z</time></trkpt><trkpt lat="44.6319106437659" lon="6.676557728314353"><ele>1558.5</ele><time>2026-04-18T10:28:21Z</time></trkpt><trkpt lat="44.63178902451231" lon="6.676631105223905"><ele>1558.0</ele><time>2026-04-18T10:28:22Z</time></trkpt><trkpt lat="44.63166401291198" lon="6.6767330087139225"><ele>1557.5</ele><time>2026-04-18T10:28:23Z</time></trkpt><trkpt lat="44.63155355010107" lon="6.676872979373762"><ele>1557.0</ele><time>2026-04-18T10:28:24Z</time></trkpt><trkpt lat="44.63144764742191" lon="6.677060727584953"><ele>1560.5</ele><time>2026-04-18T10:28:25Z</time></trkpt><trkpt lat="44.63134212987458" lon="6.677229479594075"><ele>1564.0</ele><time>2026-04-18T10:28:26Z</time></trkpt><trkpt lat="44.631249804691066" lon="6.6773682791009"><ele>1567.5</ele><time>2026-04-18T10:28:27Z</time></trkpt><trkpt lat="44.63112111017593" lon="6.67737336061425"><ele>1571.0</ele><time>2026-04-18T10:28:28Z</time></trkpt><trkpt lat="44.63096543396441" lon="6.677359064081977"><ele>1571.0</ele><time>2026-04-18T10:28:29Z</time></trkpt><trkpt lat="44.63083003797725" lon="6.677379293434786"><ele>1571.0</ele><time>2026-04-18T10:28:30Z</time></trkpt><trkpt lat="44.63069269135135" lon="6.677454776072383"><ele>1571.0</ele><time>2026-04-18T10:28:31Z</time></trkpt><trkpt lat="44.630547285393725" lon="6.6775606170014"><ele>1571.0</ele><time>2026-04-18T10:28:32Z</time></trkpt><trkpt lat="44.63040451662823" lon="6.677704101035745"><ele>1575.6666666666665</ele><time>2026-04-18T10:28:33Z</time></trkpt><trkpt lat="44.63024404472432" lon="6.67787814381822"><ele>1580.3333333333335</ele><time>2026-04-18T10:28:34Z</time></trkpt><trkpt lat="44.63006629605453" lon="6.67807345453295"><ele>1585.0</ele><time>2026-04-18T10:28:35Z</time></trkpt><trkpt lat="44.629866894822065" lon="6.678336525140758"><ele>1585.0</ele><time>2026-04-18T10:28:36Z</time></trkpt><trkpt lat="44.62970076298183" lon="6.67851714626179"><ele>1585.0</ele><time>2026-04-18T10:28:37Z</time></trkpt><trkpt lat="44.62954955347803" lon="6.67868422914463"><ele>1585.0</ele><time>2026-04-18T10:28:38Z</time></trkpt><trkpt lat="44.629414310413175" lon="6.678847608386748"><ele>1584.25</ele><time>2026-04-18T10:28:39Z</time></trkpt><trkpt lat="44.6292932851466" lon="6.6789769470830045"><ele>1583.5</ele><time>2026-04-18T10:28:40Z</time></trkpt><trkpt lat="44.629259103627746" lon="6.679066598044587"><ele>1582.75</ele><time>2026-04-18T10:28:41Z</time></trkpt><trkpt lat="44.62919898848401" lon="6.679256661491609"><ele>1582.0</ele><time>2026-04-18T10:28:42Z</time></trkpt><trkpt lat="44.62916032905273" lon="6.679455144320206"><ele>1593.0</ele><time>2026-04-18T10:28:43Z</time></trkpt><trkpt lat="44.62908241641834" lon="6.67963935416173"><ele>1604.0</ele><time>2026-04-18T10:28:44Z</time></trkpt><trkpt lat="44.62897149161424" lon="6.6798777785520445"><ele>1615.0</ele><time>2026-04-18T10:28:45Z</time></trkpt><trkpt lat="44.62881991995586" lon="6.680078044284833"><ele>1614.0</ele><time>2026-04-18T10:28:46Z</time></trkpt><trkpt lat="44.628668500846864" lon="6.680316596522408"><ele>1613.0</ele><time>2026-04-18T10:28:47Z</time></trkpt><trkpt lat="44.62856057615198" lon="6.680511080336801"><ele>1612.0</ele><time>2026-04-18T10:28:48Z</time></trkpt><trkpt lat="44.62842818100757" lon="6.680668027678411"><ele>1612.0</ele><time>2026-04-18T10:28:49Z</time></trkpt><trkpt lat="44.62830288089496" lon="6.680797373803854"><ele>1612.0</ele><time>2026-04-18T10:28:50Z</time></trkpt><trkpt lat="44.628168927817" lon="6.680913126826674"><ele>1612.0</ele><time>2026-04-18T10:28:51Z</time></trkpt><trkpt lat="44.62804138155077" lon="6.681016811419638"><ele>1612.0</ele><time>2026-04-18T10:28:52Z</time></trkpt><trkpt lat="44.62792124086651" lon="6.681095194566543"><ele>1612.0</ele><time>2026-04-18T10:28:53Z</time></trkpt><trkpt lat="44.62782315920848" lon="6.681105819633302"><ele>1612.0</ele><time>2026-04-18T10:28:54Z</time></trkpt><trkpt lat="44.6276928224298" lon="6.681042745853427"><ele>1612.0</ele><time>2026-04-18T10:28:56Z</time></trkpt><trkpt lat="44.62763638509122" lon="6.680931351784043"><ele>1610.1999999999998</ele><time>2026-04-18T10:28:57Z</time></trkpt><trkpt lat="44.62758176338272" lon="6.68081260270348"><ele>1608.4</ele><time>2026-04-18T10:28:58Z</time></trkpt><trkpt lat="44.62751603463996" lon="6.680696316990827"><ele>1606.6</ele><time>2026-04-18T10:28:59Z</time></trkpt><trkpt lat="44.62744827765078" lon="6.68055179387858"><ele>1604.8000000000002</ele><time>2026-04-18T10:29:00Z</time></trkpt><trkpt lat="44.627410904297115" lon="6.6804291711687345"><ele>1603.0</ele><time>2026-04-18T10:29:01Z</time></trkpt><trkpt lat="44.62731008747693" lon="6.680223828226513"><ele>1603.0</ele><time>2026-04-18T10:29:02Z</time></trkpt><trkpt lat="44.62718364649326" lon="6.680113222573934"><ele>1603.0</ele><time>2026-04-18T10:29:03Z</time></trkpt><trkpt lat="44.62704515990919" lon="6.680075972317154"><ele>1603.0</ele><time>2026-04-18T10:29:04Z</time></trkpt><trkpt lat="44.6269143660324" lon="6.680050127154884"><ele>1603.0</ele><time>2026-04-18T10:29:05Z</time></trkpt><trkpt lat="44.626690618058525" lon="6.680015251761256"><ele>1607.6666666666667</ele><time>2026-04-18T10:29:06Z</time></trkpt><trkpt lat="44.626536546250335" lon="6.6799901880871735"><ele>1612.3333333333335</ele><time>2026-04-18T10:29:07Z</time></trkpt><trkpt lat="44.62640040107547" lon="6.68000483174113"><ele>1617.0</ele><time>2026-04-18T10:29:08Z</time></trkpt><trkpt lat="44.62622121420556" lon="6.680071537702249"><ele>1618.0</ele><time>2026-04-18T10:29:09Z</time></trkpt><trkpt lat="44.626044506017244" lon="6.6801772862672095"><ele>1619.0</ele><time>2026-04-18T10:29:10Z</time></trkpt><trkpt lat="44.62589705559174" lon="6.680330099852373"><ele>1620.0</ele><time>2026-04-18T10:29:11Z</time></trkpt><trkpt lat="44.62575114811564" lon="6.680445235884514"><ele>1620.0</ele><time>2026-04-18T10:29:12Z</time></trkpt><trkpt lat="44.625651727841706" lon="6.680556636616397"><ele>1620.0</ele><time>2026-04-18T10:29:13Z</time></trkpt><trkpt lat="44.62555697276951" lon="6.680651438995104"><ele>1620.0</ele><time>2026-04-18T10:29:14Z</time></trkpt><trkpt lat="44.62551211264592" lon="6.680765735957047"><ele>1620.0</ele><time>2026-04-18T10:29:15Z</time></trkpt><trkpt lat="44.62550891803006" lon="6.680883902752233"><ele>1620.0</ele><time>2026-04-18T10:29:16Z</time></trkpt><trkpt lat="44.62556691295462" lon="6.681146182535663"><ele>1624.0</ele><time>2026-04-18T10:29:17Z</time></trkpt><trkpt lat="44.6255991470554" lon="6.681294268402125"><ele>1628.0</ele><time>2026-04-18T10:29:18Z</time></trkpt><trkpt lat="44.62561867311537" lon="6.681460867454733"><ele>1632.0</ele><time>2026-04-18T10:29:19Z</time></trkpt><trkpt lat="44.62566989274392" lon="6.6816512175426706"><ele>1636.0</ele><time>2026-04-18T10:29:20Z</time></trkpt><trkpt lat="44.625609488029646" lon="6.68178370617432"><ele>1636.0</ele><time>2026-04-18T10:29:21Z</time></trkpt><trkpt lat="44.625522180007046" lon="6.681887654217458"><ele>1636.0</ele><time>2026-04-18T10:29:22Z</time></trkpt><trkpt lat="44.62542125112862" lon="6.68206401997052"><ele>1636.0</ele><time>2026-04-18T10:29:23Z</time></trkpt><trkpt lat="44.62533613736338" lon="6.682222569658116"><ele>1636.0</ele><time>2026-04-18T10:29:24Z</time></trkpt><trkpt lat="44.62521014818848" lon="6.682461854996104"><ele>1635.0</ele><time>2026-04-18T10:29:25Z</time></trkpt><trkpt lat="44.62506804199565" lon="6.682724417580047"><ele>1634.0</ele><time>2026-04-18T10:29:26Z</time></trkpt><trkpt lat="44.624920076698956" lon="6.682977374348307"><ele>1634.0</ele><time>2026-04-18T10:29:27Z</time></trkpt><trkpt lat="44.624814068172554" lon="6.68317663803738"><ele>1634.0</ele><time>2026-04-18T10:29:28Z</time></trkpt><trkpt lat="44.62465964769936" lon="6.683279631995706"><ele>1634.0</ele><time>2026-04-18T10:29:29Z</time></trkpt><trkpt lat="44.62451966865598" lon="6.683377300316897"><ele>1632.4</ele><time>2026-04-18T10:29:30Z</time></trkpt><trkpt lat="44.62441230203854" lon="6.683434887315291"><ele>1630.8000000000002</ele><time>2026-04-18T10:29:31Z</time></trkpt><trkpt lat="44.62428469885549" lon="6.683422300288795"><ele>1629.1999999999998</ele><time>2026-04-18T10:29:32Z</time></trkpt><trkpt lat="44.624185706937325" lon="6.683383250647693"><ele>1627.6</ele><time>2026-04-18T10:29:33Z</time></trkpt><trkpt lat="44.62412866640217" lon="6.683345803684168"><ele>1626.0</ele><time>2026-04-18T10:29:34Z</time></trkpt><trkpt lat="44.62397967393314" lon="6.683257822326221"><ele>1626.0</ele><time>2026-04-18T10:29:36Z</time></trkpt><trkpt lat="44.62386205888806" lon="6.683218595663363"><ele>1626.0</ele><time>2026-04-18T10:29:37Z</time></trkpt><trkpt lat="44.62373993688285" lon="6.68319371566078"><ele>1626.0</ele><time>2026-04-18T10:29:38Z</time></trkpt><trkpt lat="44.623630016033" lon="6.683185055764616"><ele>1626.0</ele><time>2026-04-18T10:29:39Z</time></trkpt><trkpt lat="44.62343790081706" lon="6.683149960339627"><ele>1628.0</ele><time>2026-04-18T10:29:40Z</time></trkpt><trkpt lat="44.623243235397254" lon="6.6831514219599075"><ele>1630.0</ele><time>2026-04-18T10:29:41Z</time></trkpt><trkpt lat="44.62304276661797" lon="6.6830824439005045"><ele>1632.0</ele><time>2026-04-18T10:29:42Z</time></trkpt><trkpt lat="44.62285776594387" lon="6.6830657928167705"><ele>1632.3333333333335</ele><time>2026-04-18T10:29:43Z</time></trkpt><trkpt lat="44.62264515978326" lon="6.6830285557088835"><ele>1632.6666666666667</ele><time>2026-04-18T10:29:44Z</time></trkpt><trkpt lat="44.62244058528088" lon="6.683014030138049"><ele>1633.0</ele><time>2026-04-18T10:29:45Z</time></trkpt><trkpt lat="44.62226881053844" lon="6.68299439993438"><ele>1633.0</ele><time>2026-04-18T10:29:46Z</time></trkpt><trkpt lat="44.62209931364708" lon="6.682969658206179"><ele>1633.0</ele><time>2026-04-18T10:29:47Z</time></trkpt><trkpt lat="44.6219683464486" lon="6.682938694656543"><ele>1633.0</ele><time>2026-04-18T10:29:48Z</time></trkpt><trkpt lat="44.6218786559388" lon="6.682877519409863"><ele>1633.0</ele><time>2026-04-18T10:29:49Z</time></trkpt><trkpt lat="44.621737907587416" lon="6.682882078153061"><ele>1633.5</ele><time>2026-04-18T10:29:50Z</time></trkpt><trkpt lat="44.62165745251308" lon="6.682988382843794"><ele>1634.0</ele><time>2026-04-18T10:29:51Z</time></trkpt><trkpt lat="44.62156584478089" lon="6.683066755861319"><ele>1634.5</ele><time>2026-04-18T10:29:52Z</time></trkpt><trkpt lat="44.621474632111834" lon="6.683178221439171"><ele>1635.0</ele><time>2026-04-18T10:29:53Z</time></trkpt><trkpt lat="44.62136762277835" lon="6.683365954670152"><ele>1638.25</ele><time>2026-04-18T10:29:54Z</time></trkpt><trkpt lat="44.62132797421303" lon="6.683608605397149"><ele>1641.5</ele><time>2026-04-18T10:29:55Z</time></trkpt><trkpt lat="44.62126487940945" lon="6.6837860869662515"><ele>1644.75</ele><time>2026-04-18T10:29:56Z</time></trkpt><trkpt lat="44.62117702040271" lon="6.683921992096871"><ele>1648.0</ele><time>2026-04-18T10:29:57Z</time></trkpt><trkpt lat="44.6210493639283" lon="6.6840244985746775"><ele>1648.0</ele><time>2026-04-18T10:29:58Z</time></trkpt><trkpt lat="44.620946871467055" lon="6.6840781005265315"><ele>1648.0</ele><time>2026-04-18T10:29:59Z</time></trkpt><trkpt lat="44.62083225297437" lon="6.684106683806129"><ele>1648.0</ele><time>2026-04-18T10:30:00Z</time></trkpt><trkpt lat="44.6207640930023" lon="6.6840871627063025"><ele>1648.0</ele><time>2026-04-18T10:30:01Z</time></trkpt><trkpt lat="44.62061989156887" lon="6.68404551558792"><ele>1648.0</ele><time>2026-04-18T10:30:02Z</time></trkpt><trkpt lat="44.62042999383763" lon="6.683961005858388"><ele>1652.3333333333335</ele><time>2026-04-18T10:30:03Z</time></trkpt><trkpt lat="44.620246282923134" lon="6.683864258440076"><ele>1656.6666666666665</ele><time>2026-04-18T10:30:04Z</time></trkpt><trkpt lat="44.62007365387054" lon="6.6837665566672735"><ele>1661.0</ele><time>2026-04-18T10:30:05Z</time></trkpt><trkpt lat="44.61993487686571" lon="6.683690593271319"><ele>1661.0</ele><time>2026-04-18T10:30:06Z</time></trkpt><trkpt lat="44.61980807001941" lon="6.68362783254104"><ele>1661.0</ele><time>2026-04-18T10:30:07Z</time></trkpt><trkpt lat="44.61968173903642" lon="6.683589720047084"><ele>1661.0</ele><time>2026-04-18T10:30:08Z</time></trkpt><trkpt lat="44.61955280510325" lon="6.683591396239919"><ele>1661.0</ele><time>2026-04-18T10:30:09Z</time></trkpt><trkpt lat="44.61943202041377" lon="6.683634824730383"><ele>1662.5</ele><time>2026-04-18T10:30:10Z</time></trkpt><trkpt lat="44.61933009063634" lon="6.683685651187762"><ele>1664.0</ele><time>2026-04-18T10:30:11Z</time></trkpt><trkpt lat="44.61918116217813" lon="6.683791164974879"><ele>1665.5</ele><time>2026-04-18T10:30:12Z</time></trkpt><trkpt lat="44.619029814251626" lon="6.683869221780809"><ele>1667.0</ele><time>2026-04-18T10:30:13Z</time></trkpt><trkpt lat="44.61886507363227" lon="6.68392987990433"><ele>1667.0</ele><time>2026-04-18T10:30:14Z</time></trkpt><trkpt lat="44.61872960560297" lon="6.683896614101684"><ele>1667.0</ele><time>2026-04-18T10:30:15Z</time></trkpt><trkpt lat="44.61858544953152" lon="6.6839329123419375"><ele>1667.0</ele><time>2026-04-18T10:30:16Z</time></trkpt><trkpt lat="44.61843240444044" lon="6.683971308893745"><ele>1667.0</ele><time>2026-04-18T10:30:17Z</time></trkpt><trkpt lat="44.6182884087799" lon="6.684054478051083"><ele>1664.3333333333333</ele><time>2026-04-18T10:30:18Z</time></trkpt><trkpt lat="44.6181359208136" lon="6.684144783032327"><ele>1661.6666666666665</ele><time>2026-04-18T10:30:19Z</time></trkpt><trkpt lat="44.617975042860145" lon="6.684221889601562"><ele>1659.0</ele><time>2026-04-18T10:30:20Z</time></trkpt><trkpt lat="44.61782482875191" lon="6.68433133980644"><ele>1660.0</ele><time>2026-04-18T10:30:21Z</time></trkpt><trkpt lat="44.61765950981522" lon="6.68445602037112"><ele>1661.0</ele><time>2026-04-18T10:30:22Z</time></trkpt><trkpt lat="44.61751020787397" lon="6.684618388622974"><ele>1662.0</ele><time>2026-04-18T10:30:23Z</time></trkpt><trkpt lat="44.61735097540812" lon="6.684811186493773"><ele>1662.0</ele><time>2026-04-18T10:30:24Z</time></trkpt><trkpt lat="44.61718708954815" lon="6.684961412254982"><ele>1662.0</ele><time>2026-04-18T10:30:25Z</time></trkpt><trkpt lat="44.61702652486986" lon="6.685102148588186"><ele>1662.0</ele><time>2026-04-18T10:30:26Z</time></trkpt><trkpt lat="44.61688249843794" lon="6.685223479368248"><ele>1667.3333333333335</ele><time>2026-04-18T10:30:27Z</time></trkpt><trkpt lat="44.616720050371065" lon="6.685254549153602"><ele>1672.6666666666667</ele><time>2026-04-18T10:30:28Z</time></trkpt><trkpt lat="44.616551639232185" lon="6.685322422734191"><ele>1678.0</ele><time>2026-04-18T10:30:29Z</time></trkpt><trkpt lat="44.616409838242014" lon="6.685362487467141"><ele>1678.0</ele><time>2026-04-18T10:30:30Z</time></trkpt><trkpt lat="44.61627198212259" lon="6.685366018365419"><ele>1678.0</ele><time>2026-04-18T10:30:31Z</time></trkpt><trkpt lat="44.61619270677447" lon="6.685442146025733"><ele>1678.0</ele><time>2026-04-18T10:30:32Z</time></trkpt><trkpt lat="44.61610259471544" lon="6.685534672667873"><ele>1678.0</ele><time>2026-04-18T10:30:33Z</time></trkpt><trkpt lat="44.61600341648733" lon="6.68561682900731"><ele>1672.25</ele><time>2026-04-18T10:30:34Z</time></trkpt><trkpt lat="44.61586672271362" lon="6.685695493682301"><ele>1666.5</ele><time>2026-04-18T10:30:35Z</time></trkpt><trkpt lat="44.615724115829686" lon="6.685755927192916"><ele>1660.75</ele><time>2026-04-18T10:30:36Z</time></trkpt><trkpt lat="44.615583281967766" lon="6.685775795706113"><ele>1655.0</ele><time>2026-04-18T10:30:37Z</time></trkpt><trkpt lat="44.61543767655186" lon="6.6857735503533595"><ele>1654.3333333333333</ele><time>2026-04-18T10:30:38Z</time></trkpt><trkpt lat="44.615238754462084" lon="6.685730532925358"><ele>1653.6666666666665</ele><time>2026-04-18T10:30:39Z</time></trkpt><trkpt lat="44.61507400914712" lon="6.685666138407356"><ele>1653.0</ele><time>2026-04-18T10:30:40Z</time></trkpt><trkpt lat="44.6148996172155" lon="6.685636417420516"><ele>1653.0</ele><time>2026-04-18T10:30:41Z</time></trkpt><trkpt lat="44.61474467860953" lon="6.685616060109681"><ele>1653.0</ele><time>2026-04-18T10:30:42Z</time></trkpt><trkpt lat="44.61458264102011" lon="6.685621426715603"><ele>1653.0</ele><time>2026-04-18T10:30:43Z</time></trkpt><trkpt lat="44.614425083313726" lon="6.685679842287978"><ele>1649.0</ele><time>2026-04-18T10:30:44Z</time></trkpt><trkpt lat="44.61423575421032" lon="6.685754486293101"><ele>1645.0</ele><time>2026-04-18T10:30:45Z</time></trkpt><trkpt lat="44.6140687339357" lon="6.685838790315054"><ele>1641.0</ele><time>2026-04-18T10:30:46Z</time></trkpt><trkpt lat="44.61391111957009" lon="6.685914789252304"><ele>1641.0</ele><time>2026-04-18T10:30:47Z</time></trkpt><trkpt lat="44.613769162369685" lon="6.686034818524126"><ele>1641.0</ele><time>2026-04-18T10:30:48Z</time></trkpt><trkpt lat="44.613644980444775" lon="6.686167580234758"><ele>1641.0</ele><time>2026-04-18T10:30:49Z</time></trkpt><trkpt lat="44.613541493475914" lon="6.686315853378873"><ele>1638.3333333333335</ele><time>2026-04-18T10:30:50Z</time></trkpt><trkpt lat="44.613478618968884" lon="6.686552821242537"><ele>1635.6666666666667</ele><time>2026-04-18T10:30:51Z</time></trkpt><trkpt lat="44.61338266589754" lon="6.686720515182321"><ele>1633.0</ele><time>2026-04-18T10:30:52Z</time></trkpt><trkpt lat="44.613263478709996" lon="6.686852697647174"><ele>1633.0</ele><time>2026-04-18T10:30:53Z</time></trkpt><trkpt lat="44.613137311493816" lon="6.68691435896419"><ele>1633.0</ele><time>2026-04-18T10:30:54Z</time></trkpt><trkpt lat="44.61299132396853" lon="6.686960494802914"><ele>1633.0</ele><time>2026-04-18T10:30:55Z</time></trkpt><trkpt lat="44.6128406725453" lon="6.686985669391999"><ele>1633.0</ele><time>2026-04-18T10:30:56Z</time></trkpt><trkpt lat="44.61267227349479" lon="6.687015198906092"><ele>1636.5</ele><time>2026-04-18T10:30:57Z</time></trkpt><trkpt lat="44.61253906275303" lon="6.687009544444801"><ele>1640.0</ele><time>2026-04-18T10:30:58Z</time></trkpt><trkpt lat="44.61238063256349" lon="6.6870389708659825"><ele>1643.5</ele><time>2026-04-18T10:30:59Z</time></trkpt><trkpt lat="44.61223871834151" lon="6.687108745870291"><ele>1647.0</ele><time>2026-04-18T10:31:00Z</time></trkpt><trkpt lat="44.61210182420429" lon="6.687163193249357"><ele>1646.0</ele><time>2026-04-18T10:31:01Z</time></trkpt><trkpt lat="44.611965625941465" lon="6.687217933556379"><ele>1645.0</ele><time>2026-04-18T10:31:02Z</time></trkpt><trkpt lat="44.61183761287727" lon="6.687273768653682"><ele>1644.0</ele><time>2026-04-18T10:31:03Z</time></trkpt><trkpt lat="44.6117233371516" lon="6.687330351665131"><ele>1643.0</ele><time>2026-04-18T10:31:04Z</time></trkpt><trkpt lat="44.61160825381648" lon="6.687378906950887"><ele>1643.0</ele><time>2026-04-18T10:31:05Z</time></trkpt><trkpt lat="44.61152025233682" lon="6.687422898737769"><ele>1643.0</ele><time>2026-04-18T10:31:06Z</time></trkpt><trkpt lat="44.611427825944915" lon="6.687455425161964"><ele>1643.0</ele><time>2026-04-18T10:31:07Z</time></trkpt><trkpt lat="44.61133583077835" lon="6.687502469204487"><ele>1643.0</ele><time>2026-04-18T10:31:08Z</time></trkpt><trkpt lat="44.611252879330735" lon="6.687532687174735"><ele>1643.0</ele><time>2026-04-18T10:31:09Z</time></trkpt><trkpt lat="44.611163855998115" lon="6.687587008647663"><ele>1643.8000000000002</ele><time>2026-04-18T10:31:10Z</time></trkpt><trkpt lat="44.6110632783685" lon="6.687646354166385"><ele>1644.6</ele><time>2026-04-18T10:31:11Z</time></trkpt><trkpt lat="44.61095775151327" lon="6.687700227596514"><ele>1645.4</ele><time>2026-04-18T10:31:12Z</time></trkpt><trkpt lat="44.610861828108234" lon="6.687748422700717"><ele>1646.1999999999998</ele><time>2026-04-18T10:31:13Z</time></trkpt><trkpt lat="44.61075813424656" lon="6.68780228130588"><ele>1647.0</ele><time>2026-04-18T10:31:14Z</time></trkpt><trkpt lat="44.61066164799529" lon="6.687853714190334"><ele>1647.0</ele><time>2026-04-18T10:31:15Z</time></trkpt><trkpt lat="44.610582393574745" lon="6.687906560283858"><ele>1647.0</ele><time>2026-04-18T10:31:16Z</time></trkpt><trkpt lat="44.61049313789088" lon="6.68795321938117"><ele>1647.0</ele><time>2026-04-18T10:31:17Z</time></trkpt><trkpt lat="44.6104130700009" lon="6.687988616495101"><ele>1647.0</ele><time>2026-04-18T10:31:18.001Z</time></trkpt><trkpt lat="44.610327159038945" lon="6.688016853043103"><ele>1647.0</ele><time>2026-04-18T10:31:19.001Z</time></trkpt><trkpt lat="44.61024047870256" lon="6.687993988752145"><ele>1647.0</ele><time>2026-04-18T10:31:20.001Z</time></trkpt><trkpt lat="44.61015378749919" lon="6.688009867794488"><ele>1646.3333333333333</ele><time>2026-04-18T10:31:21.001Z</time></trkpt><trkpt lat="44.61008350870692" lon="6.688047091213801"><ele>1645.6666666666665</ele><time>2026-04-18T10:31:22.001Z</time></trkpt><trkpt lat="44.61001114082778" lon="6.688080750542631"><ele>1645.0</ele><time>2026-04-18T10:31:23Z</time></trkpt><trkpt lat="44.609935213873705" lon="6.688158245522408"><ele>1644.3333333333333</ele><time>2026-04-18T10:31:24Z</time></trkpt><trkpt lat="44.60991471776891" lon="6.688292536506562"><ele>1643.6666666666665</ele><time>2026-04-18T10:31:25Z</time></trkpt><trkpt lat="44.609849831118105" lon="6.688365076982409"><ele>1643.0</ele><time>2026-04-18T10:31:26Z</time></trkpt><trkpt lat="44.60980011666057" lon="6.688514259383414"><ele>1643.0</ele><time>2026-04-18T10:31:28Z</time></trkpt><trkpt lat="44.609717907200654" lon="6.688494128011561"><ele>1643.0</ele><time>2026-04-18T10:31:29Z</time></trkpt><trkpt lat="44.609652635739714" lon="6.688465068644248"><ele>1643.0</ele><time>2026-04-18T10:31:30Z</time></trkpt><trkpt lat="44.60947586792413" lon="6.688442864125586"><ele>1643.0</ele><time>2026-04-18T10:31:32Z</time></trkpt><trkpt lat="44.609359991046475" lon="6.688458281642342"><ele>1643.0</ele><time>2026-04-18T10:31:33Z</time></trkpt><trkpt lat="44.609282621562016" lon="6.688494781212117"><ele>1642.1666666666665</ele><time>2026-04-18T10:31:34Z</time></trkpt><trkpt lat="44.60918439350811" lon="6.688487264319107"><ele>1641.3333333333333</ele><time>2026-04-18T10:31:35Z</time></trkpt><trkpt lat="44.60910220338864" lon="6.688489700044387"><ele>1640.5</ele><time>2026-04-18T10:31:36Z</time></trkpt><trkpt lat="44.60901072401621" lon="6.688486394891563"><ele>1639.6666666666665</ele><time>2026-04-18T10:31:37Z</time></trkpt><trkpt lat="44.60892783390264" lon="6.688473936613464"><ele>1638.8333333333333</ele><time>2026-04-18T10:31:38Z</time></trkpt><trkpt lat="44.60886283292154" lon="6.6884563506321655"><ele>1638.0</ele><time>2026-04-18T10:31:39Z</time></trkpt><trkpt lat="44.60874685272795" lon="6.688452998450278"><ele>1638.0</ele><time>2026-04-18T10:31:41Z</time></trkpt><trkpt lat="44.60867392172431" lon="6.6884362560070105"><ele>1638.0</ele><time>2026-04-18T10:31:42Z</time></trkpt><trkpt lat="44.60860365675987" lon="6.688389147805911"><ele>1638.0</ele><time>2026-04-18T10:31:43Z</time></trkpt><trkpt lat="44.60850433876767" lon="6.688345226274588"><ele>1638.0</ele><time>2026-04-18T10:31:44Z</time></trkpt><trkpt lat="44.608420501408645" lon="6.688335632658925"><ele>1638.0</ele><time>2026-04-18T10:31:45Z</time></trkpt><trkpt lat="44.60831404377451" lon="6.6883861989366356"><ele>1637.6000000000001</ele><time>2026-04-18T10:31:46Z</time></trkpt><trkpt lat="44.608225880811204" lon="6.688429295917617"><ele>1637.2</ele><time>2026-04-18T10:31:47Z</time></trkpt><trkpt lat="44.60814073718247" lon="6.68843965680394"><ele>1636.8</ele><time>2026-04-18T10:31:48Z</time></trkpt><trkpt lat="44.60804493833096" lon="6.688447507476261"><ele>1636.4</ele><time>2026-04-18T10:31:49Z</time></trkpt><trkpt lat="44.607950227262045" lon="6.688413546586035"><ele>1636.0</ele><time>2026-04-18T10:31:50Z</time></trkpt><trkpt lat="44.60782726923087" lon="6.688428100645274"><ele>1634.75</ele><time>2026-04-18T10:31:51Z</time></trkpt><trkpt lat="44.607696648556555" lon="6.688372172291238"><ele>1633.5</ele><time>2026-04-18T10:31:52Z</time></trkpt><trkpt lat="44.60754905317154" lon="6.6883501153043055"><ele>1632.25</ele><time>2026-04-18T10:31:53Z</time></trkpt><trkpt lat="44.60741570654496" lon="6.688357619749608"><ele>1631.0</ele><time>2026-04-18T10:31:54Z</time></trkpt><trkpt lat="44.60728112453672" lon="6.688409392416075"><ele>1631.0</ele><time>2026-04-18T10:31:55Z</time></trkpt><trkpt lat="44.607124024490815" lon="6.6885014136848495"><ele>1631.0</ele><time>2026-04-18T10:31:56Z</time></trkpt><trkpt lat="44.60691475297588" lon="6.68858299574051"><ele>1631.0</ele><time>2026-04-18T10:31:57Z</time></trkpt><trkpt lat="44.606733563133474" lon="6.688655418249539"><ele>1634.6666666666665</ele><time>2026-04-18T10:31:58Z</time></trkpt><trkpt lat="44.60652957755064" lon="6.688737828584306"><ele>1638.3333333333335</ele><time>2026-04-18T10:31:59Z</time></trkpt><trkpt lat="44.60633254572099" lon="6.688820181850522"><ele>1642.0</ele><time>2026-04-18T10:32:00Z</time></trkpt><trkpt lat="44.6061668948509" lon="6.688965988107587"><ele>1638.3333333333335</ele><time>2026-04-18T10:32:01Z</time></trkpt><trkpt lat="44.605994139142595" lon="6.689060728454921"><ele>1634.6666666666665</ele><time>2026-04-18T10:32:02Z</time></trkpt><trkpt lat="44.605833263937214" lon="6.689126270458877"><ele>1631.0</ele><time>2026-04-18T10:32:03Z</time></trkpt><trkpt lat="44.60567278834793" lon="6.689190723385083"><ele>1631.0</ele><time>2026-04-18T10:32:04Z</time></trkpt><trkpt lat="44.60549477426603" lon="6.689216512560326"><ele>1631.0</ele><time>2026-04-18T10:32:05Z</time></trkpt><trkpt lat="44.60534071114484" lon="6.6892900820514205"><ele>1631.0</ele><time>2026-04-18T10:32:06Z</time></trkpt><trkpt lat="44.605205469830196" lon="6.689347542035681"><ele>1630.75</ele><time>2026-04-18T10:32:07Z</time></trkpt><trkpt lat="44.60507806842263" lon="6.689361075198105"><ele>1630.5</ele><time>2026-04-18T10:32:08Z</time></trkpt><trkpt lat="44.6049801791118" lon="6.689330483955852"><ele>1630.25</ele><time>2026-04-18T10:32:09Z</time></trkpt><trkpt lat="44.60485913618454" lon="6.689257362802576"><ele>1630.0</ele><time>2026-04-18T10:32:10Z</time></trkpt><trkpt lat="44.60476213158641" lon="6.689141087645604"><ele>1630.0</ele><time>2026-04-18T10:32:11Z</time></trkpt><trkpt lat="44.604667240004424" lon="6.689002935436784"><ele>1630.0</ele><time>2026-04-18T10:32:12Z</time></trkpt><trkpt lat="44.60455708703799" lon="6.688864703520984"><ele>1630.0</ele><time>2026-04-18T10:32:13Z</time></trkpt><trkpt lat="44.60443849359597" lon="6.688765797290631"><ele>1630.0</ele><time>2026-04-18T10:32:14Z</time></trkpt><trkpt lat="44.60431152661724" lon="6.68868410532328"><ele>1627.6666666666667</ele><time>2026-04-18T10:32:15Z</time></trkpt><trkpt lat="44.60417246302865" lon="6.688614132649275"><ele>1625.3333333333335</ele><time>2026-04-18T10:32:16Z</time></trkpt><trkpt lat="44.604015933787856" lon="6.688538801964235"><ele>1623.0</ele><time>2026-04-18T10:32:17Z</time></trkpt><trkpt lat="44.603822941148884" lon="6.688518250751491"><ele>1624.3333333333335</ele><time>2026-04-18T10:32:18Z</time></trkpt><trkpt lat="44.60364336598884" lon="6.688574270226053"><ele>1625.6666666666667</ele><time>2026-04-18T10:32:19Z</time></trkpt><trkpt lat="44.603484390359334" lon="6.688580012007595"><ele>1627.0</ele><time>2026-04-18T10:32:20Z</time></trkpt><trkpt lat="44.603328125169604" lon="6.688594499754887"><ele>1634.6666666666667</ele><time>2026-04-18T10:32:21Z</time></trkpt><trkpt lat="44.60317511737092" lon="6.688689998886696"><ele>1642.3333333333335</ele><time>2026-04-18T10:32:22Z</time></trkpt><trkpt lat="44.60302504234448" lon="6.688765158253527"><ele>1650.0</ele><time>2026-04-18T10:32:23Z</time></trkpt><trkpt lat="44.60288697456999" lon="6.688835674072991"><ele>1650.0</ele><time>2026-04-18T10:32:24Z</time></trkpt><trkpt lat="44.60277419625632" lon="6.688934063550799"><ele>1650.0</ele><time>2026-04-18T10:32:25Z</time></trkpt><trkpt lat="44.60263993071035" lon="6.689024252596559"><ele>1650.0</ele><time>2026-04-18T10:32:26Z</time></trkpt><trkpt lat="44.602490549406696" lon="6.689022768513406"><ele>1650.0</ele><time>2026-04-18T10:32:27Z</time></trkpt><trkpt lat="44.60235068506934" lon="6.688976678871041"><ele>1650.0</ele><time>2026-04-18T10:32:28Z</time></trkpt><trkpt lat="44.60219612070907" lon="6.688941614127768"><ele>1650.0</ele><time>2026-04-18T10:32:29Z</time></trkpt><trkpt lat="44.60204035915714" lon="6.688942017831857"><ele>1650.0</ele><time>2026-04-18T10:32:30Z</time></trkpt><trkpt lat="44.60188035898269" lon="6.688957062710428"><ele>1650.3333333333335</ele><time>2026-04-18T10:32:31Z</time></trkpt><trkpt lat="44.60171847022835" lon="6.688969975222569"><ele>1650.6666666666667</ele><time>2026-04-18T10:32:32Z</time></trkpt><trkpt lat="44.60155406760629" lon="6.689049136010626"><ele>1651.0</ele><time>2026-04-18T10:32:33Z</time></trkpt><trkpt lat="44.601362875871594" lon="6.6891126736573225"><ele>1646.5</ele><time>2026-04-18T10:32:34Z</time></trkpt><trkpt lat="44.60115623192519" lon="6.6892068731585885"><ele>1642.0</ele><time>2026-04-18T10:32:35Z</time></trkpt><trkpt lat="44.60093579289148" lon="6.689365072143669"><ele>1649.6666666666667</ele><time>2026-04-18T10:32:36Z</time></trkpt><trkpt lat="44.60074189221153" lon="6.689452091585206"><ele>1657.3333333333335</ele><time>2026-04-18T10:32:37Z</time></trkpt><trkpt lat="44.600558193431226" lon="6.689542584163898"><ele>1665.0</ele><time>2026-04-18T10:32:38Z</time></trkpt><trkpt lat="44.60038243954591" lon="6.689624300802347"><ele>1664.0</ele><time>2026-04-18T10:32:39Z</time></trkpt><trkpt lat="44.60021377559285" lon="6.689701603294431"><ele>1663.0</ele><time>2026-04-18T10:32:40Z</time></trkpt><trkpt lat="44.600041398240215" lon="6.689778019548176"><ele>1662.0</ele><time>2026-04-18T10:32:41Z</time></trkpt><trkpt lat="44.599884947015234" lon="6.689845869472849"><ele>1662.0</ele><time>2026-04-18T10:32:42Z</time></trkpt><trkpt lat="44.599711005551406" lon="6.689874941473497"><ele>1662.0</ele><time>2026-04-18T10:32:43Z</time></trkpt><trkpt lat="44.59954468315279" lon="6.689854159626429"><ele>1662.0</ele><time>2026-04-18T10:32:44Z</time></trkpt><trkpt lat="44.5993616941861" lon="6.689826405569519"><ele>1662.6666666666665</ele><time>2026-04-18T10:32:45Z</time></trkpt><trkpt lat="44.599172946991295" lon="6.689792194326145"><ele>1663.3333333333333</ele><time>2026-04-18T10:32:46Z</time></trkpt><trkpt lat="44.599006983546985" lon="6.689764801884447"><ele>1664.0</ele><time>2026-04-18T10:32:47Z</time></trkpt><trkpt lat="44.59882975919657" lon="6.689736842329347"><ele>1664.6666666666665</ele><time>2026-04-18T10:32:48Z</time></trkpt><trkpt lat="44.598657590161366" lon="6.689716369720225"><ele>1665.3333333333335</ele><time>2026-04-18T10:32:49Z</time></trkpt><trkpt lat="44.59849215721718" lon="6.689715180541222"><ele>1666.0</ele><time>2026-04-18T10:32:50Z</time></trkpt><trkpt lat="44.59832731670747" lon="6.6897390506328405"><ele>1666.0</ele><time>2026-04-18T10:32:51Z</time></trkpt><trkpt lat="44.59816136646999" lon="6.6897549916844605"><ele>1666.0</ele><time>2026-04-18T10:32:52Z</time></trkpt><trkpt lat="44.59798778900298" lon="6.689774947386911"><ele>1666.0</ele><time>2026-04-18T10:32:53Z</time></trkpt><trkpt lat="44.59782702496608" lon="6.689766602928795"><ele>1666.0</ele><time>2026-04-18T10:32:54Z</time></trkpt><trkpt lat="44.59767729520494" lon="6.689776059544901"><ele>1666.0</ele><time>2026-04-18T10:32:55Z</time></trkpt><trkpt lat="44.59753529324873" lon="6.689785360078167"><ele>1666.0</ele><time>2026-04-18T10:32:56Z</time></trkpt><trkpt lat="44.59740250509379" lon="6.689802748389384"><ele>1666.0</ele><time>2026-04-18T10:32:57Z</time></trkpt><trkpt lat="44.5972665876287" lon="6.689845071631279"><ele>1666.0</ele><time>2026-04-18T10:32:58Z</time></trkpt><trkpt lat="44.597116845791234" lon="6.689897535564801"><ele>1666.0</ele><time>2026-04-18T10:32:59Z</time></trkpt><trkpt lat="44.59696671898283" lon="6.689928366398501"><ele>1666.0</ele><time>2026-04-18T10:33:00Z</time></trkpt><trkpt lat="44.596814172123715" lon="6.689950741249638"><ele>1664.6666666666667</ele><time>2026-04-18T10:33:01Z</time></trkpt><trkpt lat="44.59665795576358" lon="6.689976622956452"><ele>1663.3333333333335</ele><time>2026-04-18T10:33:02Z</time></trkpt><trkpt lat="44.59651107488784" lon="6.689978610216061"><ele>1662.0</ele><time>2026-04-18T10:33:03Z</time></trkpt><trkpt lat="44.59635055402879" lon="6.6899533766495125"><ele>1662.0</ele><time>2026-04-18T10:33:04Z</time></trkpt><trkpt lat="44.596202938653086" lon="6.689920323983584"><ele>1662.0</ele><time>2026-04-18T10:33:05Z</time></trkpt><trkpt lat="44.59605715504036" lon="6.68989010134928"><ele>1662.0</ele><time>2026-04-18T10:33:06Z</time></trkpt><trkpt lat="44.59592256751727" lon="6.689878709577807"><ele>1662.0</ele><time>2026-04-18T10:33:07Z</time></trkpt><trkpt lat="44.59580170897787" lon="6.689892374379811"><ele>1662.5</ele><time>2026-04-18T10:33:08Z</time></trkpt><trkpt lat="44.59566858988718" lon="6.689898088707546"><ele>1663.0</ele><time>2026-04-18T10:33:09Z</time></trkpt><trkpt lat="44.59554512808032" lon="6.68987186378916"><ele>1663.5</ele><time>2026-04-18T10:33:10Z</time></trkpt><trkpt lat="44.59542588904088" lon="6.6898762845156385"><ele>1664.0</ele><time>2026-04-18T10:33:11Z</time></trkpt><trkpt lat="44.595319171540645" lon="6.689885963080924"><ele>1662.8000000000002</ele><time>2026-04-18T10:33:12Z</time></trkpt><trkpt lat="44.5952143670659" lon="6.689887745921549"><ele>1661.6000000000001</ele><time>2026-04-18T10:33:13Z</time></trkpt><trkpt lat="44.59511650902251" lon="6.689878858840099"><ele>1660.4</ele><time>2026-04-18T10:33:14Z</time></trkpt><trkpt lat="44.59501772053202" lon="6.68988960518068"><ele>1659.2</ele><time>2026-04-18T10:33:15Z</time></trkpt><trkpt lat="44.5949147845381" lon="6.689902913992839"><ele>1658.0</ele><time>2026-04-18T10:33:16Z</time></trkpt><trkpt lat="44.594812101803214" lon="6.689901872924091"><ele>1658.0</ele><time>2026-04-18T10:33:17Z</time></trkpt><trkpt lat="44.59470871411897" lon="6.689888315651282"><ele>1658.0</ele><time>2026-04-18T10:33:18Z</time></trkpt><trkpt lat="44.59461251238657" lon="6.689868525055044"><ele>1658.0</ele><time>2026-04-18T10:33:19Z</time></trkpt><trkpt lat="44.59452692697496" lon="6.689837680112813"><ele>1658.0</ele><time>2026-04-18T10:33:20Z</time></trkpt><trkpt lat="44.59444406161287" lon="6.689768134519655"><ele>1658.0</ele><time>2026-04-18T10:33:21Z</time></trkpt><trkpt lat="44.59435147255097" lon="6.689690093969312"><ele>1658.2</ele><time>2026-04-18T10:33:22Z</time></trkpt><trkpt lat="44.594263213421954" lon="6.689619227783283"><ele>1658.4</ele><time>2026-04-18T10:33:23Z</time></trkpt><trkpt lat="44.594172606721706" lon="6.6895522277610855"><ele>1658.6000000000001</ele><time>2026-04-18T10:33:24Z</time></trkpt><trkpt lat="44.59407852368273" lon="6.689501484232502"><ele>1658.8000000000002</ele><time>2026-04-18T10:33:25Z</time></trkpt><trkpt lat="44.593978665239185" lon="6.689454703569414"><ele>1659.0</ele><time>2026-04-18T10:33:26Z</time></trkpt><trkpt lat="44.593870636944324" lon="6.689427864648077"><ele>1659.6</ele><time>2026-04-18T10:33:27Z</time></trkpt><trkpt lat="44.59374955488337" lon="6.689423063120914"><ele>1660.2</ele><time>2026-04-18T10:33:28Z</time></trkpt><trkpt lat="44.59363355048012" lon="6.689414011518489"><ele>1660.8</ele><time>2026-04-18T10:33:29Z</time></trkpt><trkpt lat="44.593527660063536" lon="6.689396086677868"><ele>1661.3999999999999</ele><time>2026-04-18T10:33:30Z</time></trkpt><trkpt lat="44.59343545098842" lon="6.689376021142182"><ele>1662.0</ele><time>2026-04-18T10:33:31Z</time></trkpt><trkpt lat="44.59335846686077" lon="6.689367207325492"><ele>1662.0</ele><time>2026-04-18T10:33:32Z</time></trkpt><trkpt lat="44.59329398390512" lon="6.689313584820664"><ele>1662.0</ele><time>2026-04-18T10:33:33Z</time></trkpt><trkpt lat="44.593193999486466" lon="6.689340829285853"><ele>1662.0</ele><time>2026-04-18T10:33:34Z</time></trkpt><trkpt lat="44.59308191439843" lon="6.689376888017262"><ele>1662.0</ele><time>2026-04-18T10:33:35Z</time></trkpt><trkpt lat="44.59297640083348" lon="6.6893773002864725"><ele>1662.0</ele><time>2026-04-18T10:33:36Z</time></trkpt><trkpt lat="44.59285948698609" lon="6.689370459111821"><ele>1663.25</ele><time>2026-04-18T10:33:37Z</time></trkpt><trkpt lat="44.59274366447236" lon="6.689349385034272"><ele>1664.5</ele><time>2026-04-18T10:33:38Z</time></trkpt><trkpt lat="44.59263858500726" lon="6.689276462789397"><ele>1665.75</ele><time>2026-04-18T10:33:39Z</time></trkpt><trkpt lat="44.59252620444322" lon="6.689182294786594"><ele>1667.0</ele><time>2026-04-18T10:33:40Z</time></trkpt><trkpt lat="44.592417848421924" lon="6.689077719151547"><ele>1667.0</ele><time>2026-04-18T10:33:41Z</time></trkpt><trkpt lat="44.59229827099484" lon="6.688978679350124"><ele>1667.0</ele><time>2026-04-18T10:33:42Z</time></trkpt><trkpt lat="44.59216853615696" lon="6.6888966052183045"><ele>1667.0</ele><time>2026-04-18T10:33:43Z</time></trkpt><trkpt lat="44.592041946581645" lon="6.688843263709522"><ele>1667.0</ele><time>2026-04-18T10:33:44Z</time></trkpt><trkpt lat="44.59190188821835" lon="6.688809829767394"><ele>1668.0</ele><time>2026-04-18T10:33:45Z</time></trkpt><trkpt lat="44.591756722642806" lon="6.688791487306759"><ele>1669.0</ele><time>2026-04-18T10:33:46Z</time></trkpt><trkpt lat="44.59162476884417" lon="6.688776700360529"><ele>1670.0</ele><time>2026-04-18T10:33:47Z</time></trkpt><trkpt lat="44.591510535295946" lon="6.688775441714444"><ele>1671.0</ele><time>2026-04-18T10:33:48Z</time></trkpt><trkpt lat="44.591424412357114" lon="6.688773276356809"><ele>1671.0</ele><time>2026-04-18T10:33:49Z</time></trkpt><trkpt lat="44.5913385158316" lon="6.688770495362302"><ele>1671.0</ele><time>2026-04-18T10:33:50Z</time></trkpt><trkpt lat="44.5912611991896" lon="6.688697732409134"><ele>1671.0</ele><time>2026-04-18T10:33:51Z</time></trkpt><trkpt lat="44.591185503695115" lon="6.688591570141137"><ele>1671.0</ele><time>2026-04-18T10:33:52Z</time></trkpt><trkpt lat="44.591133580828156" lon="6.688451183601423"><ele>1671.0</ele><time>2026-04-18T10:33:53Z</time></trkpt><trkpt lat="44.59111537638527" lon="6.688285021589584"><ele>1672.5</ele><time>2026-04-18T10:33:54Z</time></trkpt><trkpt lat="44.59108823521515" lon="6.688117904172264"><ele>1674.0</ele><time>2026-04-18T10:33:55Z</time></trkpt><trkpt lat="44.59103722858386" lon="6.687971168669427"><ele>1675.5</ele><time>2026-04-18T10:33:56Z</time></trkpt><trkpt lat="44.59096227555833" lon="6.687858916990937"><ele>1677.0</ele><time>2026-04-18T10:33:57Z</time></trkpt><trkpt lat="44.590852606416696" lon="6.687768031202951"><ele>1681.3333333333335</ele><time>2026-04-18T10:33:58Z</time></trkpt><trkpt lat="44.59074590438911" lon="6.687703836468137"><ele>1685.6666666666667</ele><time>2026-04-18T10:33:59Z</time></trkpt><trkpt lat="44.59055756558983" lon="6.687684089242309"><ele>1690.0</ele><time>2026-04-18T10:34:00Z</time></trkpt><trkpt lat="44.59039807168729" lon="6.687672932018909"><ele>1691.6666666666667</ele><time>2026-04-18T10:34:01Z</time></trkpt><trkpt lat="44.590239077881215" lon="6.687678003087547"><ele>1693.3333333333335</ele><time>2026-04-18T10:34:02Z</time></trkpt><trkpt lat="44.59007258162286" lon="6.687725394895718"><ele>1695.0</ele><time>2026-04-18T10:34:03Z</time></trkpt><trkpt lat="44.58991288437478" lon="6.687794595281345"><ele>1692.0</ele><time>2026-04-18T10:34:04Z</time></trkpt><trkpt lat="44.58975108242876" lon="6.6878251879074515"><ele>1689.0</ele><time>2026-04-18T10:34:05Z</time></trkpt><trkpt lat="44.5895790803141" lon="6.6878240324648175"><ele>1686.0</ele><time>2026-04-18T10:34:06Z</time></trkpt><trkpt lat="44.589390396020654" lon="6.6878071594157955"><ele>1686.0</ele><time>2026-04-18T10:34:07Z</time></trkpt><trkpt lat="44.58921583049504" lon="6.687786783368772"><ele>1686.0</ele><time>2026-04-18T10:34:08Z</time></trkpt><trkpt lat="44.58904040638719" lon="6.687765804822989"><ele>1686.0</ele><time>2026-04-18T10:34:09Z</time></trkpt><trkpt lat="44.588889956738285" lon="6.687750033891669"><ele>1690.0</ele><time>2026-04-18T10:34:10Z</time></trkpt><trkpt lat="44.58875715856859" lon="6.687707346236263"><ele>1694.0</ele><time>2026-04-18T10:34:11Z</time></trkpt><trkpt lat="44.588630178809495" lon="6.687672342161586"><ele>1698.0</ele><time>2026-04-18T10:34:12Z</time></trkpt><trkpt lat="44.58847634208032" lon="6.68760862916499"><ele>1702.0</ele><time>2026-04-18T10:34:13Z</time></trkpt><trkpt lat="44.58832005889369" lon="6.687531138539599"><ele>1702.3333333333335</ele><time>2026-04-18T10:34:14Z</time></trkpt><trkpt lat="44.58815792937833" lon="6.687444229667845"><ele>1702.6666666666665</ele><time>2026-04-18T10:34:15Z</time></trkpt><trkpt lat="44.587990104275804" lon="6.687354722834662"><ele>1703.0</ele><time>2026-04-18T10:34:16Z</time></trkpt><trkpt lat="44.58783234576399" lon="6.68726970559214"><ele>1703.0</ele><time>2026-04-18T10:34:17Z</time></trkpt><trkpt lat="44.58767271178101" lon="6.6871830631779945"><ele>1703.0</ele><time>2026-04-18T10:34:18Z</time></trkpt><trkpt lat="44.58751399934976" lon="6.6870969197726335"><ele>1703.0</ele><time>2026-04-18T10:34:19Z</time></trkpt><trkpt lat="44.587352916654815" lon="6.6870108041333545"><ele>1703.0</ele><time>2026-04-18T10:34:20Z</time></trkpt><trkpt lat="44.58718670066428" lon="6.686947268334387"><ele>1703.0</ele><time>2026-04-18T10:34:21Z</time></trkpt><trkpt lat="44.587031902242416" lon="6.686866008749057"><ele>1703.0</ele><time>2026-04-18T10:34:22Z</time></trkpt><trkpt lat="44.586888555425084" lon="6.686795526030583"><ele>1707.0</ele><time>2026-04-18T10:34:23Z</time></trkpt><trkpt lat="44.58676395470034" lon="6.686730512276656"><ele>1711.0</ele><time>2026-04-18T10:34:24Z</time></trkpt><trkpt lat="44.5866536819777" lon="6.686669250179944"><ele>1715.0</ele><time>2026-04-18T10:34:25Z</time></trkpt><trkpt lat="44.58656269941321" lon="6.686604862425824"><ele>1719.0</ele><time>2026-04-18T10:34:26Z</time></trkpt><trkpt lat="44.58647117426248" lon="6.686502167131892"><ele>1719.0</ele><time>2026-04-18T10:34:27Z</time></trkpt><trkpt lat="44.586387397504154" lon="6.686365883410861"><ele>1719.0</ele><time>2026-04-18T10:34:28Z</time></trkpt><trkpt lat="44.58632972039803" lon="6.68617728785271"><ele>1719.0</ele><time>2026-04-18T10:34:29Z</time></trkpt><trkpt lat="44.586246175494786" lon="6.685999551241253"><ele>1719.0</ele><time>2026-04-18T10:34:30Z</time></trkpt><trkpt lat="44.58616144667102" lon="6.685822097427239"><ele>1720.6666666666665</ele><time>2026-04-18T10:34:31Z</time></trkpt><trkpt lat="44.586067521286225" lon="6.6856467599464064"><ele>1722.3333333333333</ele><time>2026-04-18T10:34:32Z</time></trkpt><trkpt lat="44.585961521319966" lon="6.685489240221639"><ele>1724.0</ele><time>2026-04-18T10:34:33Z</time></trkpt><trkpt lat="44.58584628873288" lon="6.685328310833482"><ele>1730.6666666666665</ele><time>2026-04-18T10:34:34Z</time></trkpt><trkpt lat="44.585728330465315" lon="6.685161115464804"><ele>1737.3333333333335</ele><time>2026-04-18T10:34:35Z</time></trkpt><trkpt lat="44.585608409629316" lon="6.6849911376529825"><ele>1744.0</ele><time>2026-04-18T10:34:36Z</time></trkpt><trkpt lat="44.585473289458136" lon="6.684831474315093"><ele>1746.6666666666667</ele><time>2026-04-18T10:34:37Z</time></trkpt><trkpt lat="44.58534356724844" lon="6.684645031048369"><ele>1749.3333333333335</ele><time>2026-04-18T10:34:38Z</time></trkpt><trkpt lat="44.585194104501326" lon="6.684504042170211"><ele>1752.0</ele><time>2026-04-18T10:34:39Z</time></trkpt><trkpt lat="44.58505901756565" lon="6.6843329243505405"><ele>1752.0</ele><time>2026-04-18T10:34:40Z</time></trkpt><trkpt lat="44.58493825100456" lon="6.684183973461125"><ele>1752.0</ele><time>2026-04-18T10:34:41Z</time></trkpt><trkpt lat="44.58484441152283" lon="6.684024705575378"><ele>1752.0</ele><time>2026-04-18T10:34:42Z</time></trkpt><trkpt lat="44.5847553379423" lon="6.683858768628325"><ele>1752.0</ele><time>2026-04-18T10:34:43Z</time></trkpt><trkpt lat="44.5846509356043" lon="6.683714698168599"><ele>1752.0</ele><time>2026-04-18T10:34:44Z</time></trkpt><trkpt lat="44.584543164580275" lon="6.683588102826562"><ele>1752.0</ele><time>2026-04-18T10:34:45Z</time></trkpt><trkpt lat="44.58441613919766" lon="6.68348091043875"><ele>1752.0</ele><time>2026-04-18T10:34:46Z</time></trkpt><trkpt lat="44.58427167738289" lon="6.683394609167177"><ele>1753.0</ele><time>2026-04-18T10:34:47Z</time></trkpt><trkpt lat="44.584098012479465" lon="6.683257617254612"><ele>1754.0</ele><time>2026-04-18T10:34:48Z</time></trkpt><trkpt lat="44.58393176138456" lon="6.6831328231403715"><ele>1755.0</ele><time>2026-04-18T10:34:49Z</time></trkpt><trkpt lat="44.58378420962994" lon="6.683018976326158"><ele>1755.75</ele><time>2026-04-18T10:34:50Z</time></trkpt><trkpt lat="44.58364338523441" lon="6.682911027276353"><ele>1756.5</ele><time>2026-04-18T10:34:51Z</time></trkpt><trkpt lat="44.583506252925325" lon="6.68282460561226"><ele>1757.25</ele><time>2026-04-18T10:34:52Z</time></trkpt><trkpt lat="44.58337688554017" lon="6.68279031174033"><ele>1758.0</ele><time>2026-04-18T10:34:53Z</time></trkpt><trkpt lat="44.58325368380481" lon="6.6827820297427"><ele>1758.0</ele><time>2026-04-18T10:34:54Z</time></trkpt><trkpt lat="44.58311198995522" lon="6.682801410699595"><ele>1758.0</ele><time>2026-04-18T10:34:55Z</time></trkpt><trkpt lat="44.58296708810253" lon="6.682854286884618"><ele>1758.0</ele><time>2026-04-18T10:34:56Z</time></trkpt><trkpt lat="44.582823168994835" lon="6.6829595392512156"><ele>1760.6666666666665</ele><time>2026-04-18T10:34:57Z</time></trkpt><trkpt lat="44.58268094014824" lon="6.683078011248731"><ele>1763.3333333333333</ele><time>2026-04-18T10:34:58Z</time></trkpt><trkpt lat="44.58253247837857" lon="6.683217077057652"><ele>1766.0</ele><time>2026-04-18T10:34:59Z</time></trkpt><trkpt lat="44.58238283670741" lon="6.683348622413314"><ele>1766.0</ele><time>2026-04-18T10:35:00Z</time></trkpt><trkpt lat="44.582205363430184" lon="6.683437642628262"><ele>1766.0</ele><time>2026-04-18T10:35:01Z</time></trkpt><trkpt lat="44.58204237833604" lon="6.683514995099845"><ele>1766.0</ele><time>2026-04-18T10:35:02Z</time></trkpt><trkpt lat="44.58187508481592" lon="6.6835804448579905"><ele>1766.0</ele><time>2026-04-18T10:35:03Z</time></trkpt><trkpt lat="44.58170821600644" lon="6.683648474307646"><ele>1766.0</ele><time>2026-04-18T10:35:04Z</time></trkpt><trkpt lat="44.581543324658675" lon="6.683724104406878"><ele>1766.0</ele><time>2026-04-18T10:35:05Z</time></trkpt><trkpt lat="44.58140412962304" lon="6.683799342071086"><ele>1766.0</ele><time>2026-04-18T10:35:06Z</time></trkpt><trkpt lat="44.581267185183506" lon="6.683916760145906"><ele>1766.0</ele><time>2026-04-18T10:35:07Z</time></trkpt><trkpt lat="44.581124231142475" lon="6.684013402897748"><ele>1766.0</ele><time>2026-04-18T10:35:08Z</time></trkpt><trkpt lat="44.58098989888902" lon="6.684131476127502"><ele>1768.5</ele><time>2026-04-18T10:35:09Z</time></trkpt><trkpt lat="44.580874251476814" lon="6.684237264797294"><ele>1771.0</ele><time>2026-04-18T10:35:10Z</time></trkpt><trkpt lat="44.5807566485406" lon="6.684312166531695"><ele>1773.5</ele><time>2026-04-18T10:35:11Z</time></trkpt><trkpt lat="44.580629115719695" lon="6.6843884923549455"><ele>1776.0</ele><time>2026-04-18T10:35:12Z</time></trkpt><trkpt lat="44.580510520175416" lon="6.684475349062435"><ele>1776.0</ele><time>2026-04-18T10:35:13Z</time></trkpt><trkpt lat="44.58037937271827" lon="6.684507790385268"><ele>1776.0</ele><time>2026-04-18T10:35:14Z</time></trkpt><trkpt lat="44.58024192631038" lon="6.684467947386953"><ele>1776.0</ele><time>2026-04-18T10:35:15Z</time></trkpt><trkpt lat="44.58009792159256" lon="6.684435993028057"><ele>1776.0</ele><time>2026-04-18T10:35:16Z</time></trkpt><trkpt lat="44.57994424427078" lon="6.684387134130581"><ele>1779.3333333333335</ele><time>2026-04-18T10:35:17Z</time></trkpt><trkpt lat="44.579774044456116" lon="6.684357178947126"><ele>1782.6666666666667</ele><time>2026-04-18T10:35:18Z</time></trkpt><trkpt lat="44.57962402995381" lon="6.684326843553988"><ele>1786.0</ele><time>2026-04-18T10:35:19Z</time></trkpt><trkpt lat="44.57948507184746" lon="6.6842914842418315"><ele>1786.0</ele><time>2026-04-18T10:35:20Z</time></trkpt><trkpt lat="44.57934756724334" lon="6.684247090890903"><ele>1786.0</ele><time>2026-04-18T10:35:21Z</time></trkpt><trkpt lat="44.579213289938046" lon="6.684178699567307"><ele>1786.0</ele><time>2026-04-18T10:35:22Z</time></trkpt><trkpt lat="44.57909775402986" lon="6.684073661326275"><ele>1786.0</ele><time>2026-04-18T10:35:23Z</time></trkpt><trkpt lat="44.57899399691679" lon="6.683953859301928"><ele>1786.0</ele><time>2026-04-18T10:35:24Z</time></trkpt><trkpt lat="44.5789134400908" lon="6.683803462737184"><ele>1786.0</ele><time>2026-04-18T10:35:25Z</time></trkpt><trkpt lat="44.578829308047425" lon="6.683642880183726"><ele>1786.0</ele><time>2026-04-18T10:35:26Z</time></trkpt><trkpt lat="44.57874638369937" lon="6.6834715179268995"><ele>1786.0</ele><time>2026-04-18T10:35:27Z</time></trkpt><trkpt lat="44.57865966748736" lon="6.683307421763001"><ele>1788.0</ele><time>2026-04-18T10:35:28Z</time></trkpt><trkpt lat="44.57856668014628" lon="6.6831544017103965"><ele>1790.0</ele><time>2026-04-18T10:35:29Z</time></trkpt><trkpt lat="44.57847897928861" lon="6.683007362489546"><ele>1792.0</ele><time>2026-04-18T10:35:30Z</time></trkpt><trkpt lat="44.57838564496312" lon="6.682882687516641"><ele>1794.0</ele><time>2026-04-18T10:35:31Z</time></trkpt><trkpt lat="44.578288921223475" lon="6.682839545752702"><ele>1794.0</ele><time>2026-04-18T10:35:32Z</time></trkpt><trkpt lat="44.57818601105148" lon="6.682800238518564"><ele>1794.0</ele><time>2026-04-18T10:35:33Z</time></trkpt><trkpt lat="44.57807673123829" lon="6.682838626713687"><ele>1794.0</ele><time>2026-04-18T10:35:34Z</time></trkpt><trkpt lat="44.577959853789196" lon="6.682861062647926"><ele>1794.0</ele><time>2026-04-18T10:35:35Z</time></trkpt><trkpt lat="44.57781170473748" lon="6.682900535110041"><ele>1795.0</ele><time>2026-04-18T10:35:36Z</time></trkpt><trkpt lat="44.57769553412219" lon="6.682938835523297"><ele>1796.0</ele><time>2026-04-18T10:35:37Z</time></trkpt><trkpt lat="44.57757006111559" lon="6.682912875953742"><ele>1797.0</ele><time>2026-04-18T10:35:38Z</time></trkpt><trkpt lat="44.57744383537317" lon="6.682836588848736"><ele>1798.0</ele><time>2026-04-18T10:35:39Z</time></trkpt><trkpt lat="44.5773031226805" lon="6.682742917603949"><ele>1802.6666666666667</ele><time>2026-04-18T10:35:40Z</time></trkpt><trkpt lat="44.577162844606605" lon="6.682566400257722"><ele>1807.3333333333335</ele><time>2026-04-18T10:35:41Z</time></trkpt><trkpt lat="44.57701674713643" lon="6.682455410824576"><ele>1812.0</ele><time>2026-04-18T10:35:42Z</time></trkpt><trkpt lat="44.57687306405856" lon="6.682327628245668"><ele>1812.0</ele><time>2026-04-18T10:35:43Z</time></trkpt><trkpt lat="44.57673631393402" lon="6.682217206745247"><ele>1812.0</ele><time>2026-04-18T10:35:44Z</time></trkpt><trkpt lat="44.57661255562237" lon="6.682105927421055"><ele>1812.0</ele><time>2026-04-18T10:35:45Z</time></trkpt><trkpt lat="44.576500374586935" lon="6.682031463791926"><ele>1812.0</ele><time>2026-04-18T10:35:46Z</time></trkpt><trkpt lat="44.576397008916494" lon="6.68198169043657"><ele>1812.0</ele><time>2026-04-18T10:35:47Z</time></trkpt><trkpt lat="44.57629419401615" lon="6.681954017407672"><ele>1812.0</ele><time>2026-04-18T10:35:48Z</time></trkpt><trkpt lat="44.5761668435159" lon="6.681959274176874"><ele>1812.0</ele><time>2026-04-18T10:35:49Z</time></trkpt><trkpt lat="44.576003405719014" lon="6.68208422024383"><ele>1812.0</ele><time>2026-04-18T10:35:50Z</time></trkpt><trkpt lat="44.57585755105611" lon="6.682121766321442"><ele>1813.3333333333335</ele><time>2026-04-18T10:35:51Z</time></trkpt><trkpt lat="44.57570714739436" lon="6.6820971591748615"><ele>1814.6666666666667</ele><time>2026-04-18T10:35:52Z</time></trkpt><trkpt lat="44.57555368563889" lon="6.682064629410529"><ele>1816.0</ele><time>2026-04-18T10:35:53Z</time></trkpt><trkpt lat="44.575404973127064" lon="6.6820029039373505"><ele>1816.75</ele><time>2026-04-18T10:35:54Z</time></trkpt><trkpt lat="44.57525920112239" lon="6.681956725405185"><ele>1817.5</ele><time>2026-04-18T10:35:55Z</time></trkpt><trkpt lat="44.57513212587904" lon="6.681881167321948"><ele>1818.25</ele><time>2026-04-18T10:35:56Z</time></trkpt><trkpt lat="44.57500385313164" lon="6.681824284025601"><ele>1819.0</ele><time>2026-04-18T10:35:57Z</time></trkpt><trkpt lat="44.57488520145855" lon="6.681777949800642"><ele>1822.5</ele><time>2026-04-18T10:35:58Z</time></trkpt><trkpt lat="44.5747527613194" lon="6.6817738657256704"><ele>1826.0</ele><time>2026-04-18T10:35:59Z</time></trkpt><trkpt lat="44.57461383097237" lon="6.681815842542123"><ele>1829.5</ele><time>2026-04-18T10:36:00Z</time></trkpt><trkpt lat="44.57447102431105" lon="6.681847165279374"><ele>1833.0</ele><time>2026-04-18T10:36:01Z</time></trkpt><trkpt lat="44.57432780218036" lon="6.681868326609894"><ele>1832.25</ele><time>2026-04-18T10:36:02Z</time></trkpt><trkpt lat="44.574186540217724" lon="6.681910034576529"><ele>1831.5</ele><time>2026-04-18T10:36:03Z</time></trkpt><trkpt lat="44.57405877898277" lon="6.681941598673868"><ele>1830.75</ele><time>2026-04-18T10:36:04Z</time></trkpt><trkpt lat="44.57393407112263" lon="6.681971381353423"><ele>1830.0</ele><time>2026-04-18T10:36:05Z</time></trkpt><trkpt lat="44.57381665148125" lon="6.6819855228725356"><ele>1830.0</ele><time>2026-04-18T10:36:06Z</time></trkpt><trkpt lat="44.57370533161194" lon="6.681955673514195"><ele>1830.0</ele><time>2026-04-18T10:36:07Z</time></trkpt><trkpt lat="44.57360100528018" lon="6.681935124387944"><ele>1830.0</ele><time>2026-04-18T10:36:08Z</time></trkpt><trkpt lat="44.57350943433431" lon="6.681865882739855"><ele>1830.0</ele><time>2026-04-18T10:36:09Z</time></trkpt><trkpt lat="44.57342852121747" lon="6.681813466205267"><ele>1830.0</ele><time>2026-04-18T10:36:10Z</time></trkpt><trkpt lat="44.57339889131757" lon="6.681704078122213"><ele>1832.5</ele><time>2026-04-18T10:36:11Z</time></trkpt><trkpt lat="44.573354106924704" lon="6.681639080590566"><ele>1835.0</ele><time>2026-04-18T10:36:12Z</time></trkpt><trkpt lat="44.573314509824826" lon="6.681474119781816"><ele>1837.5</ele><time>2026-04-18T10:36:14Z</time></trkpt><trkpt lat="44.573282373359376" lon="6.681373814072437"><ele>1840.0</ele><time>2026-04-18T10:36:15Z</time></trkpt><trkpt lat="44.57325259741283" lon="6.681277207190049"><ele>1842.5</ele><time>2026-04-18T10:36:16Z</time></trkpt><trkpt lat="44.57319718009099" lon="6.681158556884469"><ele>1845.0</ele><time>2026-04-18T10:36:17Z</time></trkpt><trkpt lat="44.573191495247" lon="6.681017565024145"><ele>1846.25</ele><time>2026-04-18T10:36:18Z</time></trkpt><trkpt lat="44.57313577799794" lon="6.680843268768455"><ele>1847.5</ele><time>2026-04-18T10:36:19Z</time></trkpt><trkpt lat="44.57308718878207" lon="6.6806946744048386"><ele>1848.75</ele><time>2026-04-18T10:36:20Z</time></trkpt><trkpt lat="44.57305143032073" lon="6.680555742694803"><ele>1850.0</ele><time>2026-04-18T10:36:21Z</time></trkpt><trkpt lat="44.573006338855514" lon="6.680418804528822"><ele>1850.0</ele><time>2026-04-18T10:36:22Z</time></trkpt><trkpt lat="44.57295521659138" lon="6.680279819885814"><ele>1850.0</ele><time>2026-04-18T10:36:23Z</time></trkpt><trkpt lat="44.57289523029572" lon="6.6801455815490955"><ele>1850.0</ele><time>2026-04-18T10:36:24Z</time></trkpt><trkpt lat="44.57283748407372" lon="6.680034456548716"><ele>1850.0</ele><time>2026-04-18T10:36:25Z</time></trkpt><trkpt lat="44.572726123098285" lon="6.679988042149441"><ele>1850.0</ele><time>2026-04-18T10:36:26Z</time></trkpt><trkpt lat="44.572623980667466" lon="6.679961362669869"><ele>1851.75</ele><time>2026-04-18T10:36:27Z</time></trkpt><trkpt lat="44.572516405871006" lon="6.679936538675244"><ele>1853.5</ele><time>2026-04-18T10:36:28Z</time></trkpt><trkpt lat="44.572373326202204" lon="6.67996740897787"><ele>1855.25</ele><time>2026-04-18T10:36:29Z</time></trkpt><trkpt lat="44.572239760144946" lon="6.679987010038442"><ele>1857.0</ele><time>2026-04-18T10:36:30Z</time></trkpt><trkpt lat="44.57210773167331" lon="6.680008931131606"><ele>1858.6</ele><time>2026-04-18T10:36:31Z</time></trkpt><trkpt lat="44.57199885931112" lon="6.6800321279605654"><ele>1860.1999999999998</ele><time>2026-04-18T10:36:32Z</time></trkpt><trkpt lat="44.57190338562207" lon="6.68008453571276"><ele>1861.8</ele><time>2026-04-18T10:36:33Z</time></trkpt><trkpt lat="44.571814785555894" lon="6.680181366837928"><ele>1863.4</ele><time>2026-04-18T10:36:34Z</time></trkpt><trkpt lat="44.571751591322624" lon="6.68029680972396"><ele>1865.0</ele><time>2026-04-18T10:36:35Z</time></trkpt><trkpt lat="44.57170150178856" lon="6.680428901367878"><ele>1866.0</ele><time>2026-04-18T10:36:36Z</time></trkpt><trkpt lat="44.57166240656386" lon="6.680606041323711"><ele>1867.0</ele><time>2026-04-18T10:36:37Z</time></trkpt><trkpt lat="44.57165800748291" lon="6.680783767871976"><ele>1868.0</ele><time>2026-04-18T10:36:38Z</time></trkpt><trkpt lat="44.57165235738016" lon="6.680966470356482"><ele>1869.0</ele><time>2026-04-18T10:36:39Z</time></trkpt><trkpt lat="44.571664673239376" lon="6.681169163232171"><ele>1869.75</ele><time>2026-04-18T10:36:40Z</time></trkpt><trkpt lat="44.57170546628865" lon="6.681364836228482"><ele>1870.5</ele><time>2026-04-18T10:36:41Z</time></trkpt><trkpt lat="44.57170544881505" lon="6.681552552283333"><ele>1871.25</ele><time>2026-04-18T10:36:42Z</time></trkpt><trkpt lat="44.571697187118986" lon="6.6817049567364695"><ele>1872.0</ele><time>2026-04-18T10:36:43Z</time></trkpt><trkpt lat="44.57163179345649" lon="6.681837942373184"><ele>1871.75</ele><time>2026-04-18T10:36:44Z</time></trkpt><trkpt lat="44.57156252553612" lon="6.681967122111247"><ele>1871.5</ele><time>2026-04-18T10:36:45Z</time></trkpt><trkpt lat="44.571464164878435" lon="6.682105196609463"><ele>1871.25</ele><time>2026-04-18T10:36:46Z</time></trkpt><trkpt lat="44.571364453254866" lon="6.682247749818765"><ele>1871.0</ele><time>2026-04-18T10:36:47Z</time></trkpt><trkpt lat="44.5712577623323" lon="6.682395855747983"><ele>1874.5</ele><time>2026-04-18T10:36:48Z</time></trkpt><trkpt lat="44.57114668777277" lon="6.682544880953968"><ele>1878.0</ele><time>2026-04-18T10:36:49Z</time></trkpt><trkpt lat="44.57103619975593" lon="6.682644992266452"><ele>1881.5</ele><time>2026-04-18T10:36:50Z</time></trkpt><trkpt lat="44.570924268791465" lon="6.682707278473793"><ele>1885.0</ele><time>2026-04-18T10:36:51Z</time></trkpt><trkpt lat="44.5708081540655" lon="6.682749386682457"><ele>1885.0</ele><time>2026-04-18T10:36:52Z</time></trkpt><trkpt lat="44.57067104310018" lon="6.682793567583779"><ele>1885.0</ele><time>2026-04-18T10:36:53Z</time></trkpt><trkpt lat="44.57054059534499" lon="6.682741565759809"><ele>1885.0</ele><time>2026-04-18T10:36:54Z</time></trkpt><trkpt lat="44.57039972986638" lon="6.682701242716612"><ele>1885.0</ele><time>2026-04-18T10:36:55Z</time></trkpt><trkpt lat="44.57026086873853" lon="6.682664777612834"><ele>1886.5</ele><time>2026-04-18T10:36:56Z</time></trkpt><trkpt lat="44.57012355844969" lon="6.682614500152706"><ele>1888.0</ele><time>2026-04-18T10:36:57Z</time></trkpt><trkpt lat="44.569993492289626" lon="6.682568366888769"><ele>1889.5</ele><time>2026-04-18T10:36:58Z</time></trkpt><trkpt lat="44.56987630119959" lon="6.682538200620275"><ele>1891.0</ele><time>2026-04-18T10:36:59Z</time></trkpt><trkpt lat="44.56976385767462" lon="6.682532319807157"><ele>1891.0</ele><time>2026-04-18T10:37:00Z</time></trkpt><trkpt lat="44.56964989831946" lon="6.682571990061375"><ele>1891.0</ele><time>2026-04-18T10:37:01Z</time></trkpt><trkpt lat="44.569571685032884" lon="6.682644406599168"><ele>1891.0</ele><time>2026-04-18T10:37:02Z</time></trkpt><trkpt lat="44.56949259551219" lon="6.682726485488269"><ele>1891.0</ele><time>2026-04-18T10:37:03Z</time></trkpt><trkpt lat="44.56942075095471" lon="6.682796806242955"><ele>1891.0</ele><time>2026-04-18T10:37:04Z</time></trkpt><trkpt lat="44.56935427124264" lon="6.682885179794389"><ele>1893.0</ele><time>2026-04-18T10:37:05Z</time></trkpt><trkpt lat="44.56929741465019" lon="6.682958330512786"><ele>1895.0</ele><time>2026-04-18T10:37:06Z</time></trkpt><trkpt lat="44.56923999821495" lon="6.68302152335011"><ele>1897.0</ele><time>2026-04-18T10:37:07Z</time></trkpt><trkpt lat="44.56916060740682" lon="6.6831718771461075"><ele>1899.0</ele><time>2026-04-18T10:37:09Z</time></trkpt><trkpt lat="44.56913452696856" lon="6.683275607896133"><ele>1901.0</ele><time>2026-04-18T10:37:10Z</time></trkpt><trkpt lat="44.569129212004825" lon="6.6834123747435505"><ele>1901.0</ele><time>2026-04-18T10:37:11Z</time></trkpt><trkpt lat="44.56916122080273" lon="6.683543814753242"><ele>1901.0</ele><time>2026-04-18T10:37:12Z</time></trkpt><trkpt lat="44.56919176667286" lon="6.6836959940482865"><ele>1901.0</ele><time>2026-04-18T10:37:13Z</time></trkpt><trkpt lat="44.56924852363679" lon="6.683820974800104"><ele>1901.0</ele><time>2026-04-18T10:37:14Z</time></trkpt><trkpt lat="44.56931527030783" lon="6.683928828831952"><ele>1901.0</ele><time>2026-04-18T10:37:15Z</time></trkpt><trkpt lat="44.56940885555058" lon="6.684022994499898"><ele>1901.9999999999998</ele><time>2026-04-18T10:37:16Z</time></trkpt><trkpt lat="44.56943425915391" lon="6.684131799791328"><ele>1903.0</ele><time>2026-04-18T10:37:17Z</time></trkpt><trkpt lat="44.56941579212889" lon="6.684245388748526"><ele>1904.0</ele><time>2026-04-18T10:37:18Z</time></trkpt><trkpt lat="44.56936742243732" lon="6.68435158721134"><ele>1905.0</ele><time>2026-04-18T10:37:19Z</time></trkpt><trkpt lat="44.56930503602812" lon="6.684452013039319"><ele>1905.9999999999998</ele><time>2026-04-18T10:37:20Z</time></trkpt><trkpt lat="44.56922377185569" lon="6.684532405308664"><ele>1907.0</ele><time>2026-04-18T10:37:21Z</time></trkpt><trkpt lat="44.56912264594081" lon="6.684596564062565"><ele>1907.0</ele><time>2026-04-18T10:37:22Z</time></trkpt><trkpt lat="44.56900440189435" lon="6.684644473972754"><ele>1907.0</ele><time>2026-04-18T10:37:23Z</time></trkpt><trkpt lat="44.568873258729234" lon="6.684737979928496"><ele>1907.0</ele><time>2026-04-18T10:37:24Z</time></trkpt><trkpt lat="44.568735929976306" lon="6.684800698422744"><ele>1907.0</ele><time>2026-04-18T10:37:25Z</time></trkpt><trkpt lat="44.568575598299" lon="6.684851422177861"><ele>1910.5</ele><time>2026-04-18T10:37:26Z</time></trkpt><trkpt lat="44.56843004203476" lon="6.684929626490776"><ele>1914.0</ele><time>2026-04-18T10:37:27Z</time></trkpt><trkpt lat="44.56828260900381" lon="6.684979421858431"><ele>1917.5</ele><time>2026-04-18T10:37:28Z</time></trkpt><trkpt lat="44.56814563482083" lon="6.685003412562047"><ele>1921.0</ele><time>2026-04-18T10:37:29Z</time></trkpt><trkpt lat="44.56800482439156" lon="6.685032911659702"><ele>1921.0</ele><time>2026-04-18T10:37:30Z</time></trkpt><trkpt lat="44.56786197828234" lon="6.6850396989593195"><ele>1921.0</ele><time>2026-04-18T10:37:31Z</time></trkpt><trkpt lat="44.567709766432706" lon="6.685034228777243"><ele>1921.0</ele><time>2026-04-18T10:37:32Z</time></trkpt><trkpt lat="44.56756620315348" lon="6.684985971794785"><ele>1921.0</ele><time>2026-04-18T10:37:33Z</time></trkpt><trkpt lat="44.56740676140567" lon="6.684959350794186"><ele>1922.5</ele><time>2026-04-18T10:37:34Z</time></trkpt><trkpt lat="44.567260229484994" lon="6.684947854328913"><ele>1924.0</ele><time>2026-04-18T10:37:35Z</time></trkpt><trkpt lat="44.567136663943664" lon="6.684976671648473"><ele>1925.5</ele><time>2026-04-18T10:37:36Z</time></trkpt><trkpt lat="44.56701507286165" lon="6.685040980256493"><ele>1927.0</ele><time>2026-04-18T10:37:37Z</time></trkpt><trkpt lat="44.566909600318056" lon="6.685127333655496"><ele>1928.25</ele><time>2026-04-18T10:37:38Z</time></trkpt><trkpt lat="44.56682103352307" lon="6.6852361655916415"><ele>1929.5</ele><time>2026-04-18T10:37:39Z</time></trkpt><trkpt lat="44.56673383825701" lon="6.68542939663411"><ele>1930.75</ele><time>2026-04-18T10:37:40Z</time></trkpt><trkpt lat="44.566648765600675" lon="6.6856029462695865"><ele>1932.0</ele><time>2026-04-18T10:37:41Z</time></trkpt><trkpt lat="44.566557580833894" lon="6.685762765955218"><ele>1932.0</ele><time>2026-04-18T10:37:42Z</time></trkpt><trkpt lat="44.56645254389146" lon="6.685873003152388"><ele>1932.0</ele><time>2026-04-18T10:37:43Z</time></trkpt><trkpt lat="44.566343947366484" lon="6.686005541856922"><ele>1932.0</ele><time>2026-04-18T10:37:44Z</time></trkpt><trkpt lat="44.56623274793488" lon="6.686127271699158"><ele>1932.0</ele><time>2026-04-18T10:37:45Z</time></trkpt><trkpt lat="44.56610877546603" lon="6.686249030920691"><ele>1932.0</ele><time>2026-04-18T10:37:46Z</time></trkpt><trkpt lat="44.56597472868628" lon="6.686371021232114"><ele>1932.0</ele><time>2026-04-18T10:37:47Z</time></trkpt><trkpt lat="44.565836772697665" lon="6.686512174190186"><ele>1932.0</ele><time>2026-04-18T10:37:48Z</time></trkpt><trkpt lat="44.5656993884885" lon="6.686631654632847"><ele>1932.0</ele><time>2026-04-18T10:37:49Z</time></trkpt><trkpt lat="44.5655700466463" lon="6.68678465258196"><ele>1932.0</ele><time>2026-04-18T10:37:50Z</time></trkpt><trkpt lat="44.56544274629716" lon="6.686955427416063"><ele>1932.0</ele><time>2026-04-18T10:37:51Z</time></trkpt><trkpt lat="44.565322007931556" lon="6.6871559792596615"><ele>1934.0</ele><time>2026-04-18T10:37:52Z</time></trkpt><trkpt lat="44.565192540371605" lon="6.687286708175866"><ele>1936.0</ele><time>2026-04-18T10:37:53Z</time></trkpt><trkpt lat="44.565063780092636" lon="6.687416403170703"><ele>1938.0</ele><time>2026-04-18T10:37:54Z</time></trkpt><trkpt lat="44.564927214884804" lon="6.687477199517597"><ele>1938.0</ele><time>2026-04-18T10:37:55Z</time></trkpt><trkpt lat="44.56478946531473" lon="6.687516602300001"><ele>1938.0</ele><time>2026-04-18T10:37:56Z</time></trkpt><trkpt lat="44.56464342000958" lon="6.687551593111576"><ele>1938.0</ele><time>2026-04-18T10:37:57Z</time></trkpt><trkpt lat="44.56446586150041" lon="6.687594299028623"><ele>1939.5</ele><time>2026-04-18T10:37:58Z</time></trkpt><trkpt lat="44.56431437559382" lon="6.687659804243855"><ele>1941.0</ele><time>2026-04-18T10:37:59Z</time></trkpt><trkpt lat="44.564177650529395" lon="6.6877158326880775"><ele>1942.5</ele><time>2026-04-18T10:38:00Z</time></trkpt><trkpt lat="44.56405034578763" lon="6.687808514556901"><ele>1944.0</ele><time>2026-04-18T10:38:01Z</time></trkpt><trkpt lat="44.563914625556755" lon="6.687938578553951"><ele>1946.3333333333335</ele><time>2026-04-18T10:38:02Z</time></trkpt><trkpt lat="44.56378665095552" lon="6.6881112969902095"><ele>1948.6666666666667</ele><time>2026-04-18T10:38:03Z</time></trkpt><trkpt lat="44.56366408833775" lon="6.6883400516605835"><ele>1951.0</ele><time>2026-04-18T10:38:04Z</time></trkpt><trkpt lat="44.5635193608741" lon="6.688549028586114"><ele>1951.0</ele><time>2026-04-18T10:38:05Z</time></trkpt><trkpt lat="44.56339127042799" lon="6.688734381163609"><ele>1951.0</ele><time>2026-04-18T10:38:06Z</time></trkpt><trkpt lat="44.56327107526568" lon="6.688890664294095"><ele>1951.0</ele><time>2026-04-18T10:38:07Z</time></trkpt><trkpt lat="44.56315434085796" lon="6.689035253518379"><ele>1951.0</ele><time>2026-04-18T10:38:08Z</time></trkpt><trkpt lat="44.56303871279856" lon="6.689199957580953"><ele>1951.0</ele><time>2026-04-18T10:38:09Z</time></trkpt><trkpt lat="44.5628973915201" lon="6.6893065777416725"><ele>1951.0</ele><time>2026-04-18T10:38:10Z</time></trkpt><trkpt lat="44.562754554416" lon="6.689425977343158"><ele>1947.0</ele><time>2026-04-18T10:38:11Z</time></trkpt><trkpt lat="44.56259187974533" lon="6.6894714091154155"><ele>1943.0</ele><time>2026-04-18T10:38:12Z</time></trkpt><trkpt lat="44.562417247314485" lon="6.689523090857816"><ele>1939.0</ele><time>2026-04-18T10:38:13Z</time></trkpt><trkpt lat="44.562232019430546" lon="6.6895758992248044"><ele>1939.0</ele><time>2026-04-18T10:38:14Z</time></trkpt><trkpt lat="44.56203786527694" lon="6.68958748665878"><ele>1939.0</ele><time>2026-04-18T10:38:15Z</time></trkpt><trkpt lat="44.56185644744192" lon="6.689664848815531"><ele>1939.0</ele><time>2026-04-18T10:38:16Z</time></trkpt><trkpt lat="44.56168011709734" lon="6.6897917331878345"><ele>1942.3333333333335</ele><time>2026-04-18T10:38:17Z</time></trkpt><trkpt lat="44.56149402411233" lon="6.689930626226671"><ele>1945.6666666666665</ele><time>2026-04-18T10:38:18Z</time></trkpt><trkpt lat="44.56131590915214" lon="6.6900931095405145"><ele>1949.0</ele><time>2026-04-18T10:38:19Z</time></trkpt><trkpt lat="44.56112771518418" lon="6.6902558703203745"><ele>1950.0</ele><time>2026-04-18T10:38:20Z</time></trkpt><trkpt lat="44.56093717481228" lon="6.690407586188663"><ele>1951.0</ele><time>2026-04-18T10:38:21Z</time></trkpt><trkpt lat="44.56076953551355" lon="6.690544829028348"><ele>1952.0</ele><time>2026-04-18T10:38:22Z</time></trkpt><trkpt lat="44.56061830558494" lon="6.690684201311587"><ele>1952.0</ele><time>2026-04-18T10:38:23Z</time></trkpt><trkpt lat="44.56048146460451" lon="6.690828299719562"><ele>1952.0</ele><time>2026-04-18T10:38:24Z</time></trkpt><trkpt lat="44.560390488482" lon="6.69097763361826"><ele>1952.0</ele><time>2026-04-18T10:38:25Z</time></trkpt><trkpt lat="44.56032584345396" lon="6.691170428576533"><ele>1955.5</ele><time>2026-04-18T10:38:26Z</time></trkpt><trkpt lat="44.56027336030965" lon="6.691379666054852"><ele>1959.0</ele><time>2026-04-18T10:38:27Z</time></trkpt><trkpt lat="44.56023507267302" lon="6.691581463433195"><ele>1962.5</ele><time>2026-04-18T10:38:28Z</time></trkpt><trkpt lat="44.56017819972659" lon="6.691744290875336"><ele>1966.0</ele><time>2026-04-18T10:38:29Z</time></trkpt><trkpt lat="44.56007346516121" lon="6.691867068943519"><ele>1973.6666666666667</ele><time>2026-04-18T10:38:30Z</time></trkpt><trkpt lat="44.55995262955108" lon="6.692008541829379"><ele>1981.3333333333335</ele><time>2026-04-18T10:38:31Z</time></trkpt><trkpt lat="44.559815459127314" lon="6.692152336003927"><ele>1989.0</ele><time>2026-04-18T10:38:32Z</time></trkpt><trkpt lat="44.55967855082215" lon="6.692323216127062"><ele>1987.6666666666665</ele><time>2026-04-18T10:38:33Z</time></trkpt><trkpt lat="44.55952719263895" lon="6.69248031247776"><ele>1986.3333333333333</ele><time>2026-04-18T10:38:34Z</time></trkpt><trkpt lat="44.55937817632239" lon="6.692625915486107"><ele>1985.0</ele><time>2026-04-18T10:38:35Z</time></trkpt><trkpt lat="44.559222860182125" lon="6.692778178041435"><ele>1989.0</ele><time>2026-04-18T10:38:36Z</time></trkpt><trkpt lat="44.559050219467366" lon="6.6929222396167125"><ele>1993.0</ele><time>2026-04-18T10:38:37Z</time></trkpt><trkpt lat="44.55887694676721" lon="6.693055624959604"><ele>1997.0</ele><time>2026-04-18T10:38:38Z</time></trkpt><trkpt lat="44.558708357507776" lon="6.6931816186545126"><ele>1994.6666666666665</ele><time>2026-04-18T10:38:39Z</time></trkpt><trkpt lat="44.55853532840946" lon="6.693315462497742"><ele>1992.3333333333335</ele><time>2026-04-18T10:38:40Z</time></trkpt><trkpt lat="44.55838704934916" lon="6.693440286645439"><ele>1990.0</ele><time>2026-04-18T10:38:41Z</time></trkpt><trkpt lat="44.558238913160245" lon="6.693568397904936"><ele>1989.6666666666667</ele><time>2026-04-18T10:38:42Z</time></trkpt><trkpt lat="44.558094584630204" lon="6.6936969668684485"><ele>1989.3333333333335</ele><time>2026-04-18T10:38:43Z</time></trkpt><trkpt lat="44.55793918585568" lon="6.6938541663269815"><ele>1989.0</ele><time>2026-04-18T10:38:44Z</time></trkpt><trkpt lat="44.55778627314986" lon="6.6939802563225586"><ele>1989.0</ele><time>2026-04-18T10:38:45Z</time></trkpt><trkpt lat="44.5576432768118" lon="6.694112611553235"><ele>1989.0</ele><time>2026-04-18T10:38:46Z</time></trkpt><trkpt lat="44.55751677220353" lon="6.694253580553063"><ele>1989.0</ele><time>2026-04-18T10:38:47Z</time></trkpt><trkpt lat="44.55739678956799" lon="6.694419652959296"><ele>1990.6666666666665</ele><time>2026-04-18T10:38:48Z</time></trkpt><trkpt lat="44.55728608238502" lon="6.694612998945433"><ele>1992.3333333333333</ele><time>2026-04-18T10:38:49Z</time></trkpt><trkpt lat="44.55717858798844" lon="6.69480837268371"><ele>1994.0</ele><time>2026-04-18T10:38:50Z</time></trkpt><trkpt lat="44.55707373864899" lon="6.695020449685011"><ele>1993.3333333333333</ele><time>2026-04-18T10:38:51Z</time></trkpt><trkpt lat="44.55698858902505" lon="6.69523885881903"><ele>1992.6666666666665</ele><time>2026-04-18T10:38:52Z</time></trkpt><trkpt lat="44.556912589745586" lon="6.695457575352893"><ele>1992.0</ele><time>2026-04-18T10:38:53Z</time></trkpt><trkpt lat="44.55684308894346" lon="6.695671872670334"><ele>1991.6666666666665</ele><time>2026-04-18T10:38:54Z</time></trkpt><trkpt lat="44.556791840748836" lon="6.695896851577045"><ele>1991.3333333333333</ele><time>2026-04-18T10:38:55Z</time></trkpt><trkpt lat="44.556728450623346" lon="6.696127286071771"><ele>1991.0</ele><time>2026-04-18T10:38:56Z</time></trkpt><trkpt lat="44.556650715445535" lon="6.69634056176217"><ele>1991.0</ele><time>2026-04-18T10:38:57Z</time></trkpt><trkpt lat="44.55658660365171" lon="6.696558077991474"><ele>1991.0</ele><time>2026-04-18T10:38:58Z</time></trkpt><trkpt lat="44.556523269964806" lon="6.696766686837187"><ele>1991.0</ele><time>2026-04-18T10:38:59Z</time></trkpt><trkpt lat="44.55645892164316" lon="6.696975818058344"><ele>1991.0</ele><time>2026-04-18T10:39:00Z</time></trkpt><trkpt lat="44.55640470443176" lon="6.6972002963315065"><ele>1991.0</ele><time>2026-04-18T10:39:01Z</time></trkpt><trkpt lat="44.55629904006867" lon="6.697383188701817"><ele>1991.0</ele><time>2026-04-18T10:39:02Z</time></trkpt><trkpt lat="44.55618856051976" lon="6.697557197704513"><ele>1991.0</ele><time>2026-04-18T10:39:03Z</time></trkpt><trkpt lat="44.55605825768566" lon="6.697746075203505"><ele>1991.0</ele><time>2026-04-18T10:39:04Z</time></trkpt><trkpt lat="44.55593127939463" lon="6.697928811429586"><ele>1991.0</ele><time>2026-04-18T10:39:05Z</time></trkpt><trkpt lat="44.5558057958798" lon="6.698107877688513"><ele>1993.6666666666665</ele><time>2026-04-18T10:39:06Z</time></trkpt><trkpt lat="44.55567275647604" lon="6.698267119657052"><ele>1996.3333333333335</ele><time>2026-04-18T10:39:07Z</time></trkpt><trkpt lat="44.55553664693632" lon="6.698401819908903"><ele>1999.0</ele><time>2026-04-18T10:39:08Z</time></trkpt><trkpt lat="44.55538974944328" lon="6.698523822695506"><ele>2001.6666666666667</ele><time>2026-04-18T10:39:09Z</time></trkpt><trkpt lat="44.55522210660043" lon="6.698630702747013"><ele>2004.3333333333335</ele><time>2026-04-18T10:39:10Z</time></trkpt><trkpt lat="44.55504289954011" lon="6.698715759280821"><ele>2007.0</ele><time>2026-04-18T10:39:11Z</time></trkpt><trkpt lat="44.554850395924994" lon="6.698787705822757"><ele>2007.0</ele><time>2026-04-18T10:39:12Z</time></trkpt><trkpt lat="44.55466379025346" lon="6.698800771542147"><ele>2007.0</ele><time>2026-04-18T10:39:13Z</time></trkpt><trkpt lat="44.55445295874154" lon="6.698854943518703"><ele>2007.0</ele><time>2026-04-18T10:39:14Z</time></trkpt><trkpt lat="44.554242707865555" lon="6.698908193135576"><ele>2005.0</ele><time>2026-04-18T10:39:15Z</time></trkpt><trkpt lat="44.554011166841065" lon="6.698955856271058"><ele>2003.0</ele><time>2026-04-18T10:39:16Z</time></trkpt><trkpt lat="44.55379127561624" lon="6.698996253106924"><ele>2001.6666666666665</ele><time>2026-04-18T10:39:17Z</time></trkpt><trkpt lat="44.55358958327704" lon="6.699050012271141"><ele>2000.3333333333335</ele><time>2026-04-18T10:39:18Z</time></trkpt><trkpt lat="44.553396768852835" lon="6.6991361303640335"><ele>1999.0</ele><time>2026-04-18T10:39:19Z</time></trkpt><trkpt lat="44.55320360875493" lon="6.699226993234492"><ele>1999.0</ele><time>2026-04-18T10:39:20Z</time></trkpt><trkpt lat="44.55303446519701" lon="6.699312655083584"><ele>1999.0</ele><time>2026-04-18T10:39:21Z</time></trkpt><trkpt lat="44.55291396210524" lon="6.699434824226955"><ele>1999.0</ele><time>2026-04-18T10:39:22Z</time></trkpt><trkpt lat="44.55279080832511" lon="6.699544262752396"><ele>2001.25</ele><time>2026-04-18T10:39:23Z</time></trkpt><trkpt lat="44.552729827030355" lon="6.699664789287774"><ele>2003.5</ele><time>2026-04-18T10:39:24Z</time></trkpt><trkpt lat="44.55266461197643" lon="6.699870120543935"><ele>2005.75</ele><time>2026-04-18T10:39:25Z</time></trkpt><trkpt lat="44.55259214208137" lon="6.700099317938433"><ele>2008.0</ele><time>2026-04-18T10:39:26Z</time></trkpt><trkpt lat="44.55253704897727" lon="6.700271391550063"><ele>2011.75</ele><time>2026-04-18T10:39:27Z</time></trkpt><trkpt lat="44.55246574347189" lon="6.700401144987513"><ele>2015.5</ele><time>2026-04-18T10:39:28Z</time></trkpt><trkpt lat="44.55237551238215" lon="6.700488419677831"><ele>2019.25</ele><time>2026-04-18T10:39:29Z</time></trkpt><trkpt lat="44.55223433246328" lon="6.700500669132884"><ele>2023.0</ele><time>2026-04-18T10:39:30Z</time></trkpt><trkpt lat="44.552126056792176" lon="6.7004850487905285"><ele>2023.25</ele><time>2026-04-18T10:39:31Z</time></trkpt><trkpt lat="44.55200880395165" lon="6.700468051296908"><ele>2023.5</ele><time>2026-04-18T10:39:32Z</time></trkpt><trkpt lat="44.55187333513831" lon="6.700443502066236"><ele>2023.75</ele><time>2026-04-18T10:39:33Z</time></trkpt><trkpt lat="44.55169273699942" lon="6.700399592996842"><ele>2024.0</ele><time>2026-04-18T10:39:34Z</time></trkpt><trkpt lat="44.55154707789541" lon="6.700371779393435"><ele>2024.0</ele><time>2026-04-18T10:39:35Z</time></trkpt><trkpt lat="44.551403922569776" lon="6.700383614974485"><ele>2024.0</ele><time>2026-04-18T10:39:36Z</time></trkpt><trkpt lat="44.551269362022545" lon="6.700410860030926"><ele>2024.0</ele><time>2026-04-18T10:39:37Z</time></trkpt><trkpt lat="44.55114732601527" lon="6.700483219231257"><ele>2024.0</ele><time>2026-04-18T10:39:38Z</time></trkpt><trkpt lat="44.55101619852689" lon="6.700563133287143"><ele>2026.0</ele><time>2026-04-18T10:39:39Z</time></trkpt><trkpt lat="44.550879319249745" lon="6.700664496672661"><ele>2028.0</ele><time>2026-04-18T10:39:40Z</time></trkpt><trkpt lat="44.55072942337141" lon="6.700823181633498"><ele>2030.0</ele><time>2026-04-18T10:39:41Z</time></trkpt><trkpt lat="44.55056546011073" lon="6.700982501094065"><ele>2035.0</ele><time>2026-04-18T10:39:42Z</time></trkpt><trkpt lat="44.550413387383564" lon="6.701084019815244"><ele>2040.0</ele><time>2026-04-18T10:39:43Z</time></trkpt><trkpt lat="44.5502224835912" lon="6.701147540174749"><ele>2045.0</ele><time>2026-04-18T10:39:44Z</time></trkpt><trkpt lat="44.550037686357065" lon="6.701254254357675"><ele>2045.6666666666665</ele><time>2026-04-18T10:39:45Z</time></trkpt><trkpt lat="44.5498773348666" lon="6.701369133150629"><ele>2046.3333333333335</ele><time>2026-04-18T10:39:46Z</time></trkpt><trkpt lat="44.549703721727575" lon="6.7015029890509"><ele>2047.0</ele><time>2026-04-18T10:39:47Z</time></trkpt><trkpt lat="44.5495377009664" lon="6.701640119239887"><ele>2047.0</ele><time>2026-04-18T10:39:48Z</time></trkpt><trkpt lat="44.54936577977893" lon="6.701796472261069"><ele>2047.0</ele><time>2026-04-18T10:39:49Z</time></trkpt><trkpt lat="44.54919212978266" lon="6.70193226624828"><ele>2047.0</ele><time>2026-04-18T10:39:50Z</time></trkpt><trkpt lat="44.54902416591654" lon="6.70203517370544"><ele>2049.0</ele><time>2026-04-18T10:39:51Z</time></trkpt><trkpt lat="44.548858525795076" lon="6.702139312222956"><ele>2051.0</ele><time>2026-04-18T10:39:52Z</time></trkpt><trkpt lat="44.54869988760572" lon="6.702265194432764"><ele>2053.0</ele><time>2026-04-18T10:39:53Z</time></trkpt><trkpt lat="44.54854906175198" lon="6.702412964289399"><ele>2053.0</ele><time>2026-04-18T10:39:54Z</time></trkpt><trkpt lat="44.54841165860869" lon="6.70254572982312"><ele>2053.0</ele><time>2026-04-18T10:39:55Z</time></trkpt><trkpt lat="44.548279632873694" lon="6.702675580442063"><ele>2053.0</ele><time>2026-04-18T10:39:56Z</time></trkpt><trkpt lat="44.54814326629492" lon="6.702736301975991"><ele>2055.75</ele><time>2026-04-18T10:39:57Z</time></trkpt><trkpt lat="44.54803512085238" lon="6.7027792242419775"><ele>2058.5</ele><time>2026-04-18T10:39:58Z</time></trkpt><trkpt lat="44.547913795108116" lon="6.702963822611793"><ele>2061.25</ele><time>2026-04-18T10:39:59Z</time></trkpt><trkpt lat="44.54779261219569" lon="6.702867754829108"><ele>2064.0</ele><time>2026-04-18T10:40:00Z</time></trkpt><trkpt lat="44.547656314454606" lon="6.7028015716179885"><ele>2060.6666666666665</ele><time>2026-04-18T10:40:01Z</time></trkpt><trkpt lat="44.547513249287256" lon="6.7026922430836215"><ele>2057.333333333333</ele><time>2026-04-18T10:40:02Z</time></trkpt><trkpt lat="44.547358558644966" lon="6.702609414730434"><ele>2054.0</ele><time>2026-04-18T10:40:03Z</time></trkpt><trkpt lat="44.54721933517558" lon="6.702431661421086"><ele>2058.0</ele><time>2026-04-18T10:40:04Z</time></trkpt><trkpt lat="44.54703278777982" lon="6.702368046905687"><ele>2062.0</ele><time>2026-04-18T10:40:05Z</time></trkpt><trkpt lat="44.54686744376714" lon="6.7023310733694865"><ele>2066.0</ele><time>2026-04-18T10:40:06Z</time></trkpt><trkpt lat="44.546687151430724" lon="6.702335924836825"><ele>2066.0</ele><time>2026-04-18T10:40:07Z</time></trkpt><trkpt lat="44.54651077074129" lon="6.7023110557911245"><ele>2066.0</ele><time>2026-04-18T10:40:08Z</time></trkpt><trkpt lat="44.54632468878524" lon="6.702281133440469"><ele>2066.0</ele><time>2026-04-18T10:40:09Z</time></trkpt><trkpt lat="44.54614191839289" lon="6.702230553456316"><ele>2069.333333333333</ele><time>2026-04-18T10:40:10Z</time></trkpt><trkpt lat="44.54598294477253" lon="6.70223210702856"><ele>2072.6666666666665</ele><time>2026-04-18T10:40:11Z</time></trkpt><trkpt lat="44.54581972420984" lon="6.702241338746789"><ele>2076.0</ele><time>2026-04-18T10:40:12Z</time></trkpt><trkpt lat="44.54564600988622" lon="6.702222602596324"><ele>2076.0</ele><time>2026-04-18T10:40:13Z</time></trkpt><trkpt lat="44.545475955747925" lon="6.702166218114729"><ele>2076.0</ele><time>2026-04-18T10:40:14Z</time></trkpt><trkpt lat="44.545302714246155" lon="6.70218600285792"><ele>2076.0</ele><time>2026-04-18T10:40:15Z</time></trkpt><trkpt lat="44.545127229868115" lon="6.70223481329212"><ele>2077.0</ele><time>2026-04-18T10:40:16Z</time></trkpt><trkpt lat="44.544941947766304" lon="6.702300013423154"><ele>2078.0</ele><time>2026-04-18T10:40:17Z</time></trkpt><trkpt lat="44.5447427791321" lon="6.7023870115844515"><ele>2079.0</ele><time>2026-04-18T10:40:18Z</time></trkpt><trkpt lat="44.54456427673384" lon="6.702443022219603"><ele>2080.3333333333335</ele><time>2026-04-18T10:40:19Z</time></trkpt><trkpt lat="44.544390176690335" lon="6.702457831242069"><ele>2081.666666666667</ele><time>2026-04-18T10:40:20Z</time></trkpt><trkpt lat="44.54422626670673" lon="6.702443951560688"><ele>2083.0</ele><time>2026-04-18T10:40:21Z</time></trkpt><trkpt lat="44.544064768462356" lon="6.702453235977977"><ele>2083.0</ele><time>2026-04-18T10:40:22Z</time></trkpt><trkpt lat="44.54390634932757" lon="6.702455546573577"><ele>2083.0</ele><time>2026-04-18T10:40:23Z</time></trkpt><trkpt lat="44.543754031988925" lon="6.702498066086161"><ele>2083.0</ele><time>2026-04-18T10:40:24Z</time></trkpt><trkpt lat="44.54358952457123" lon="6.702588454528542"><ele>2084.0</ele><time>2026-04-18T10:40:25Z</time></trkpt><trkpt lat="44.543447970504765" lon="6.702668253183225"><ele>2085.0</ele><time>2026-04-18T10:40:26Z</time></trkpt><trkpt lat="44.54329205549831" lon="6.702675764125422"><ele>2086.0</ele><time>2026-04-18T10:40:27Z</time></trkpt><trkpt lat="44.54313540155477" lon="6.7026573677575465"><ele>2086.0</ele><time>2026-04-18T10:40:28Z</time></trkpt><trkpt lat="44.54298131806314" lon="6.702672388968148"><ele>2086.0</ele><time>2026-04-18T10:40:29Z</time></trkpt><trkpt lat="44.54283869711747" lon="6.702740578744801"><ele>2086.0</ele><time>2026-04-18T10:40:30Z</time></trkpt><trkpt lat="44.542691346519895" lon="6.702798945774824"><ele>2089.5</ele><time>2026-04-18T10:40:31Z</time></trkpt><trkpt lat="44.542558120326554" lon="6.702876575031691"><ele>2093.0</ele><time>2026-04-18T10:40:32Z</time></trkpt><trkpt lat="44.54242180310018" lon="6.702916439031565"><ele>2096.5</ele><time>2026-04-18T10:40:33Z</time></trkpt><trkpt lat="44.54228999900658" lon="6.702886095495082"><ele>2100.0</ele><time>2026-04-18T10:40:34Z</time></trkpt><trkpt lat="44.54217023499789" lon="6.702833360056873"><ele>2097.75</ele><time>2026-04-18T10:40:35Z</time></trkpt><trkpt lat="44.54204518321798" lon="6.702750119301492"><ele>2095.5</ele><time>2026-04-18T10:40:36Z</time></trkpt><trkpt lat="44.541904317224486" lon="6.702659002443581"><ele>2093.25</ele><time>2026-04-18T10:40:37Z</time></trkpt><trkpt lat="44.541757401845246" lon="6.702592655511237"><ele>2091.0</ele><time>2026-04-18T10:40:38Z</time></trkpt><trkpt lat="44.541605390618344" lon="6.702553557805508"><ele>2091.0</ele><time>2026-04-18T10:40:39Z</time></trkpt><trkpt lat="44.5414372514741" lon="6.702532604905951"><ele>2091.0</ele><time>2026-04-18T10:40:40Z</time></trkpt><trkpt lat="44.54126657717751" lon="6.702503353752564"><ele>2091.0</ele><time>2026-04-18T10:40:41Z</time></trkpt><trkpt lat="44.54108338895828" lon="6.7025285383263205"><ele>2092.3333333333335</ele><time>2026-04-18T10:40:42Z</time></trkpt><trkpt lat="44.54091677037002" lon="6.7025352032136665"><ele>2093.666666666667</ele><time>2026-04-18T10:40:43Z</time></trkpt><trkpt lat="44.54074614862259" lon="6.702505731929474"><ele>2095.0</ele><time>2026-04-18T10:40:44Z</time></trkpt><trkpt lat="44.54058551803228" lon="6.702478939015997"><ele>2095.0</ele><time>2026-04-18T10:40:45Z</time></trkpt><trkpt lat="44.54044771092454" lon="6.702436602383416"><ele>2095.0</ele><time>2026-04-18T10:40:46Z</time></trkpt><trkpt lat="44.54033509863668" lon="6.702360359535955"><ele>2095.0</ele><time>2026-04-18T10:40:47Z</time></trkpt><trkpt lat="44.54021754441624" lon="6.702268390505588"><ele>2095.0</ele><time>2026-04-18T10:40:48Z</time></trkpt><trkpt lat="44.540089204646726" lon="6.7022032656493"><ele>2097.2</ele><time>2026-04-18T10:40:49Z</time></trkpt><trkpt lat="44.539998814900784" lon="6.702188155007643"><ele>2099.4</ele><time>2026-04-18T10:40:50Z</time></trkpt><trkpt lat="44.539902179976316" lon="6.70220497388447"><ele>2101.6</ele><time>2026-04-18T10:40:51Z</time></trkpt><trkpt lat="44.53981704888921" lon="6.7022242618524555"><ele>2103.8</ele><time>2026-04-18T10:40:52Z</time></trkpt><trkpt lat="44.53973186501802" lon="6.702277657196599"><ele>2106.0</ele><time>2026-04-18T10:40:53Z</time></trkpt><trkpt lat="44.53964604160185" lon="6.702275605348194"><ele>2106.0</ele><time>2026-04-18T10:40:54Z</time></trkpt><trkpt lat="44.53956658641813" lon="6.7022947806415365"><ele>2106.0</ele><time>2026-04-18T10:40:55Z</time></trkpt><trkpt lat="44.53948807614761" lon="6.702317564340933"><ele>2106.0</ele><time>2026-04-18T10:40:56Z</time></trkpt><trkpt lat="44.53938385582284" lon="6.702375978368117"><ele>2106.0</ele><time>2026-04-18T10:40:58Z</time></trkpt><trkpt lat="44.53928224867399" lon="6.702401391580126"><ele>2106.0</ele><time>2026-04-18T10:41:00Z</time></trkpt><trkpt lat="44.53921997156718" lon="6.702427145650213"><ele>2106.0</ele><time>2026-04-18T10:41:03Z</time></trkpt><trkpt lat="44.539268550075334" lon="6.70235917619523"><ele>2109.0</ele><time>2026-04-18T10:41:24Z</time></trkpt></trkseg><trkseg><trkpt lat="44.53920810707759" lon="6.702508625812754"><ele>2109.0</ele><time>2026-04-18T10:54:08.999Z</time></trkpt><trkpt lat="44.53914508498056" lon="6.702562780620911"><ele>2109.0</ele><time>2026-04-18T10:54:09.999Z</time></trkpt><trkpt lat="44.53905638118735" lon="6.702586951761111"><ele>2109.0</ele><time>2026-04-18T10:54:10.999Z</time></trkpt><trkpt lat="44.538988692954305" lon="6.702669695021025"><ele>2109.0</ele><time>2026-04-18T10:54:11.999Z</time></trkpt><trkpt lat="44.53890568276109" lon="6.7027400557299295"><ele>2109.0</ele><time>2026-04-18T10:54:12.999Z</time></trkpt><trkpt lat="44.53882867114097" lon="6.702807280300133"><ele>2109.0</ele><time>2026-04-18T10:54:13.999Z</time></trkpt><trkpt lat="44.53872778541416" lon="6.702860493253311"><ele>2111.0</ele><time>2026-04-18T10:54:14.999Z</time></trkpt><trkpt lat="44.53862588860908" lon="6.702922004596294"><ele>2113.0</ele><time>2026-04-18T10:54:15.999Z</time></trkpt><trkpt lat="44.538502003001945" lon="6.7029453351906225"><ele>2115.0</ele><time>2026-04-18T10:54:16.999Z</time></trkpt><trkpt lat="44.53835433658236" lon="6.702943347328393"><ele>2117.0</ele><time>2026-04-18T10:54:17.999Z</time></trkpt><trkpt lat="44.538144283799504" lon="6.702970102828505"><ele>2117.0</ele><time>2026-04-18T10:54:18.999Z</time></trkpt><trkpt lat="44.537937073358066" lon="6.702982309485207"><ele>2117.0</ele><time>2026-04-18T10:54:19.999Z</time></trkpt><trkpt lat="44.537748721354774" lon="6.702980433324254"><ele>2117.0</ele><time>2026-04-18T10:54:20.999Z</time></trkpt><trkpt lat="44.53758790721991" lon="6.702978857935376"><ele>2113.0</ele><time>2026-04-18T10:54:21.999Z</time></trkpt><trkpt lat="44.537430862840736" lon="6.703011691537212"><ele>2109.0</ele><time>2026-04-18T10:54:22.999Z</time></trkpt><trkpt lat="44.53727439467873" lon="6.7030554294506075"><ele>2105.0</ele><time>2026-04-18T10:54:24Z</time></trkpt><trkpt lat="44.5371279640959" lon="6.703160972152204"><ele>2101.75</ele><time>2026-04-18T10:54:25Z</time></trkpt><trkpt lat="44.53698827591872" lon="6.703224459120793"><ele>2098.5</ele><time>2026-04-18T10:54:26Z</time></trkpt><trkpt lat="44.53684949388361" lon="6.703276008344852"><ele>2095.25</ele><time>2026-04-18T10:54:27Z</time></trkpt><trkpt lat="44.53670600189302" lon="6.7033052364202605"><ele>2092.0</ele><time>2026-04-18T10:54:28Z</time></trkpt><trkpt lat="44.53655739215829" lon="6.70332533231917"><ele>2092.0</ele><time>2026-04-18T10:54:29Z</time></trkpt><trkpt lat="44.536415017433356" lon="6.703344585090529"><ele>2092.0</ele><time>2026-04-18T10:54:30Z</time></trkpt><trkpt lat="44.53628009158469" lon="6.703378704553703"><ele>2092.0</ele><time>2026-04-18T10:54:31Z</time></trkpt><trkpt lat="44.53616118275806" lon="6.703444896245504"><ele>2092.0</ele><time>2026-04-18T10:54:32Z</time></trkpt><trkpt lat="44.536052256772834" lon="6.703522485734212"><ele>2089.25</ele><time>2026-04-18T10:54:33Z</time></trkpt><trkpt lat="44.535964872185794" lon="6.703623831850227"><ele>2086.5</ele><time>2026-04-18T10:54:34Z</time></trkpt><trkpt lat="44.535870036554435" lon="6.7037561595582575"><ele>2083.75</ele><time>2026-04-18T10:54:35Z</time></trkpt><trkpt lat="44.53576116761488" lon="6.7038711955479044"><ele>2081.0</ele><time>2026-04-18T10:54:36Z</time></trkpt><trkpt lat="44.53568037891574" lon="6.704023217114982"><ele>2081.0</ele><time>2026-04-18T10:54:37Z</time></trkpt><trkpt lat="44.53557843729106" lon="6.704224097505173"><ele>2081.0</ele><time>2026-04-18T10:54:38Z</time></trkpt><trkpt lat="44.53549471904597" lon="6.704377925549408"><ele>2081.0</ele><time>2026-04-18T10:54:39Z</time></trkpt><trkpt lat="44.53540414530182" lon="6.704531546088656"><ele>2077.25</ele><time>2026-04-18T10:54:40Z</time></trkpt><trkpt lat="44.53531205140376" lon="6.704660921659449"><ele>2073.5</ele><time>2026-04-18T10:54:41Z</time></trkpt><trkpt lat="44.535206649612086" lon="6.704770541751739"><ele>2069.75</ele><time>2026-04-18T10:54:42Z</time></trkpt><trkpt lat="44.53508768603555" lon="6.704817850333042"><ele>2066.0</ele><time>2026-04-18T10:54:43Z</time></trkpt><trkpt lat="44.53497593495048" lon="6.704860966751614"><ele>2066.0</ele><time>2026-04-18T10:54:44Z</time></trkpt><trkpt lat="44.53483789053453" lon="6.704866222091123"><ele>2066.0</ele><time>2026-04-18T10:54:45Z</time></trkpt><trkpt lat="44.53472049646663" lon="6.704849990990399"><ele>2066.0</ele><time>2026-04-18T10:54:46Z</time></trkpt><trkpt lat="44.53460268861123" lon="6.7047809651129935"><ele>2066.0</ele><time>2026-04-18T10:54:47Z</time></trkpt><trkpt lat="44.5344763872555" lon="6.7046963964981945"><ele>2062.25</ele><time>2026-04-18T10:54:48Z</time></trkpt><trkpt lat="44.534358312116865" lon="6.704612344492247"><ele>2058.5</ele><time>2026-04-18T10:54:49Z</time></trkpt><trkpt lat="44.53422647853088" lon="6.704534033764019"><ele>2054.75</ele><time>2026-04-18T10:54:50Z</time></trkpt><trkpt lat="44.53410394064083" lon="6.70448350167064"><ele>2051.0</ele><time>2026-04-18T10:54:51Z</time></trkpt><trkpt lat="44.53396889192398" lon="6.704472261992023"><ele>2051.0</ele><time>2026-04-18T10:54:52Z</time></trkpt><trkpt lat="44.53382102376797" lon="6.704509932774918"><ele>2051.0</ele><time>2026-04-18T10:54:53Z</time></trkpt><trkpt lat="44.5336739441745" lon="6.704586374156769"><ele>2051.0</ele><time>2026-04-18T10:54:54Z</time></trkpt><trkpt lat="44.53353783361565" lon="6.704673930128819"><ele>2049.2</ele><time>2026-04-18T10:54:55Z</time></trkpt><trkpt lat="44.533417341697515" lon="6.704718848557433"><ele>2047.3999999999999</ele><time>2026-04-18T10:54:56Z</time></trkpt><trkpt lat="44.53330524008086" lon="6.704718229227888"><ele>2045.6</ele><time>2026-04-18T10:54:57Z</time></trkpt><trkpt lat="44.53320607437899" lon="6.704690799161205"><ele>2043.8</ele><time>2026-04-18T10:54:58Z</time></trkpt><trkpt lat="44.533121293799255" lon="6.704623319182955"><ele>2042.0</ele><time>2026-04-18T10:54:59Z</time></trkpt><trkpt lat="44.53304508597187" lon="6.704550383438395"><ele>2044.25</ele><time>2026-04-18T10:55:00Z</time></trkpt><trkpt lat="44.533022826206015" lon="6.70440465244984"><ele>2046.5</ele><time>2026-04-18T10:55:01Z</time></trkpt><trkpt lat="44.53298392656624" lon="6.704250901137374"><ele>2048.75</ele><time>2026-04-18T10:55:02Z</time></trkpt><trkpt lat="44.53294724055002" lon="6.704068953092262"><ele>2051.0</ele><time>2026-04-18T10:55:03Z</time></trkpt><trkpt lat="44.532912233038346" lon="6.703857905420806"><ele>2044.0</ele><time>2026-04-18T10:55:04Z</time></trkpt><trkpt lat="44.532859525924415" lon="6.703655861826373"><ele>2037.0</ele><time>2026-04-18T10:55:05Z</time></trkpt><trkpt lat="44.532781937851816" lon="6.7034674249583475"><ele>2030.0</ele><time>2026-04-18T10:55:06Z</time></trkpt><trkpt lat="44.53269057840986" lon="6.703291186526254"><ele>2030.0</ele><time>2026-04-18T10:55:07Z</time></trkpt><trkpt lat="44.53259185777536" lon="6.703137198834971"><ele>2030.0</ele><time>2026-04-18T10:55:08Z</time></trkpt><trkpt lat="44.532508527005696" lon="6.702968320731742"><ele>2030.0</ele><time>2026-04-18T10:55:09Z</time></trkpt><trkpt lat="44.53244684602231" lon="6.702784001600342"><ele>2030.0</ele><time>2026-04-18T10:55:10Z</time></trkpt><trkpt lat="44.532395499763126" lon="6.702604879136821"><ele>2032.5</ele><time>2026-04-18T10:55:11Z</time></trkpt><trkpt lat="44.53233654058522" lon="6.702406820238167"><ele>2035.0</ele><time>2026-04-18T10:55:12Z</time></trkpt><trkpt lat="44.532291485177616" lon="6.702208073249875"><ele>2037.5</ele><time>2026-04-18T10:55:13Z</time></trkpt><trkpt lat="44.53224177711531" lon="6.702026103340326"><ele>2040.0</ele><time>2026-04-18T10:55:14Z</time></trkpt><trkpt lat="44.532195604520574" lon="6.701858518778665"><ele>2043.2</ele><time>2026-04-18T10:55:15Z</time></trkpt><trkpt lat="44.532149300477656" lon="6.701702503690232"><ele>2046.4</ele><time>2026-04-18T10:55:16Z</time></trkpt><trkpt lat="44.532100652799194" lon="6.701563249604274"><ele>2049.6</ele><time>2026-04-18T10:55:17Z</time></trkpt><trkpt lat="44.53206528458849" lon="6.701457009627565"><ele>2052.8</ele><time>2026-04-18T10:55:18Z</time></trkpt><trkpt lat="44.53199824601128" lon="6.701408881909259"><ele>2056.0</ele><time>2026-04-18T10:55:20Z</time></trkpt><trkpt lat="44.531946463704465" lon="6.701352412254032"><ele>2048.8</ele><time>2026-04-18T10:55:21Z</time></trkpt><trkpt lat="44.53187423804371" lon="6.701352133848855"><ele>2041.6</ele><time>2026-04-18T10:55:22Z</time></trkpt><trkpt lat="44.531765318534966" lon="6.701456305640134"><ele>2034.4</ele><time>2026-04-18T10:55:24Z</time></trkpt><trkpt lat="44.53173221529621" lon="6.701550109167327"><ele>2027.2</ele><time>2026-04-18T10:55:25Z</time></trkpt><trkpt lat="44.53176788564121" lon="6.701726233544364"><ele>2020.0</ele><time>2026-04-18T10:55:27Z</time></trkpt><trkpt lat="44.53181010737259" lon="6.7018519047260785"><ele>2015.0</ele><time>2026-04-18T10:55:28Z</time></trkpt><trkpt lat="44.5318518453654" lon="6.702021301023232"><ele>2010.0</ele><time>2026-04-18T10:55:29Z</time></trkpt><trkpt lat="44.53192158045225" lon="6.70216964788638"><ele>2005.0</ele><time>2026-04-18T10:55:30Z</time></trkpt><trkpt lat="44.532024234812106" lon="6.702416191863539"><ele>2013.3333333333335</ele><time>2026-04-18T10:55:31Z</time></trkpt><trkpt lat="44.53208751795692" lon="6.702629558985574"><ele>2021.6666666666665</ele><time>2026-04-18T10:55:32Z</time></trkpt><trkpt lat="44.53214004059933" lon="6.702835543471034"><ele>2030.0</ele><time>2026-04-18T10:55:33Z</time></trkpt><trkpt lat="44.53216423273253" lon="6.703097256799237"><ele>2030.0</ele><time>2026-04-18T10:55:34Z</time></trkpt><trkpt lat="44.53216693538214" lon="6.7033481666897075"><ele>2030.0</ele><time>2026-04-18T10:55:35Z</time></trkpt><trkpt lat="44.53214563349941" lon="6.703581999720117"><ele>2030.0</ele><time>2026-04-18T10:55:36Z</time></trkpt><trkpt lat="44.53213629270795" lon="6.703832465878132"><ele>2027.6666666666665</ele><time>2026-04-18T10:55:37Z</time></trkpt><trkpt lat="44.532107594511096" lon="6.704063951349756"><ele>2025.3333333333335</ele><time>2026-04-18T10:55:38Z</time></trkpt><trkpt lat="44.53209184177001" lon="6.704279664405409"><ele>2023.0</ele><time>2026-04-18T10:55:39Z</time></trkpt><trkpt lat="44.53208228057606" lon="6.704479551649899"><ele>2021.0</ele><time>2026-04-18T10:55:40Z</time></trkpt><trkpt lat="44.5320866629248" lon="6.704639655583807"><ele>2019.0</ele><time>2026-04-18T10:55:40.999Z</time></trkpt><trkpt lat="44.53210211244627" lon="6.704796452848563"><ele>2017.0</ele><time>2026-04-18T10:55:41.999Z</time></trkpt><trkpt lat="44.53213347763192" lon="6.704992555489952"><ele>2015.0</ele><time>2026-04-18T10:55:42.999Z</time></trkpt><trkpt lat="44.532191742050216" lon="6.705209741061335"><ele>2011.0</ele><time>2026-04-18T10:55:43.999Z</time></trkpt><trkpt lat="44.53226166171386" lon="6.7054597910444285"><ele>2007.0</ele><time>2026-04-18T10:55:44.999Z</time></trkpt><trkpt lat="44.5322888150434" lon="6.705731018536736"><ele>2003.0</ele><time>2026-04-18T10:55:45.999Z</time></trkpt><trkpt lat="44.53230007294184" lon="6.706023466559688"><ele>2001.0</ele><time>2026-04-18T10:55:46.999Z</time></trkpt><trkpt lat="44.53227691888145" lon="6.706348786929476"><ele>1999.0</ele><time>2026-04-18T10:55:47.999Z</time></trkpt><trkpt lat="44.532289615927944" lon="6.706625931858559"><ele>1997.0</ele><time>2026-04-18T10:55:48.999Z</time></trkpt><trkpt lat="44.53228862354301" lon="6.706863503136577"><ele>1994.5</ele><time>2026-04-18T10:55:49.999Z</time></trkpt><trkpt lat="44.53227896779786" lon="6.7070659681060265"><ele>1992.0</ele><time>2026-04-18T10:55:50.999Z</time></trkpt><trkpt lat="44.532282722015985" lon="6.70725161087968"><ele>1989.5</ele><time>2026-04-18T10:55:51.999Z</time></trkpt><trkpt lat="44.532304897308165" lon="6.7073997683693065"><ele>1987.0</ele><time>2026-04-18T10:55:52.999Z</time></trkpt><trkpt lat="44.53234214097752" lon="6.707528487452602"><ele>1987.0</ele><time>2026-04-18T10:55:53.999Z</time></trkpt><trkpt lat="44.53239643097195" lon="6.707646068394591"><ele>1986.9999999999998</ele><time>2026-04-18T10:55:54.999Z</time></trkpt><trkpt lat="44.53250621417779" lon="6.707739150418827"><ele>1986.9999999999998</ele><time>2026-04-18T10:55:55.999Z</time></trkpt><trkpt lat="44.53260960649484" lon="6.707806577822588"><ele>1987.0</ele><time>2026-04-18T10:55:56.999Z</time></trkpt><trkpt lat="44.532688057398346" lon="6.707832259960256"><ele>1987.0</ele><time>2026-04-18T10:55:57.999Z</time></trkpt><trkpt lat="44.532771246938964" lon="6.70792880665127"><ele>1989.1999999999998</ele><time>2026-04-18T10:55:58.999Z</time></trkpt><trkpt lat="44.532849915494744" lon="6.70803217047067"><ele>1991.3999999999999</ele><time>2026-04-18T10:55:59.999Z</time></trkpt><trkpt lat="44.53290687151211" lon="6.708171649685855"><ele>1993.6000000000001</ele><time>2026-04-18T10:56:00.999Z</time></trkpt><trkpt lat="44.53290640011674" lon="6.7083257712968924"><ele>1995.8000000000002</ele><time>2026-04-18T10:56:01.999Z</time></trkpt><trkpt lat="44.5328783999782" lon="6.708481592924625"><ele>1998.0</ele><time>2026-04-18T10:56:02.999Z</time></trkpt><trkpt lat="44.53280814034323" lon="6.708663536148116"><ele>1991.25</ele><time>2026-04-18T10:56:03.999Z</time></trkpt><trkpt lat="44.53271455972166" lon="6.708746432259013"><ele>1984.5</ele><time>2026-04-18T10:56:04.999Z</time></trkpt><trkpt lat="44.532623000325266" lon="6.708890754473684"><ele>1977.75</ele><time>2026-04-18T10:56:05.999Z</time></trkpt><trkpt lat="44.53254948108092" lon="6.709035362725184"><ele>1971.0</ele><time>2026-04-18T10:56:06.999Z</time></trkpt><trkpt lat="44.532442060998626" lon="6.709229876336019"><ele>1973.0</ele><time>2026-04-18T10:56:07.999Z</time></trkpt><trkpt lat="44.532350349409" lon="6.709427521616834"><ele>1975.0</ele><time>2026-04-18T10:56:08.999Z</time></trkpt><trkpt lat="44.53226337422995" lon="6.7095814427661296"><ele>1977.0</ele><time>2026-04-18T10:56:09.999Z</time></trkpt><trkpt lat="44.53215088341797" lon="6.709687351011051"><ele>1979.0</ele><time>2026-04-18T10:56:10.999Z</time></trkpt><trkpt lat="44.53201302547286" lon="6.7098071173307074"><ele>1969.6666666666665</ele><time>2026-04-18T10:56:11.999Z</time></trkpt><trkpt lat="44.53188206990816" lon="6.709921865752336"><ele>1960.3333333333335</ele><time>2026-04-18T10:56:12.999Z</time></trkpt><trkpt lat="44.53174432744819" lon="6.710033771960167"><ele>1951.0</ele><time>2026-04-18T10:56:13.999Z</time></trkpt><trkpt lat="44.531624554025896" lon="6.7101545836051555"><ele>1952.25</ele><time>2026-04-18T10:56:14.999Z</time></trkpt><trkpt lat="44.53151144339292" lon="6.710264354749087"><ele>1953.5</ele><time>2026-04-18T10:56:15.999Z</time></trkpt><trkpt lat="44.53141373610701" lon="6.710369586559818"><ele>1954.75</ele><time>2026-04-18T10:56:16.999Z</time></trkpt><trkpt lat="44.53132692936359" lon="6.7105104668016144"><ele>1956.0</ele><time>2026-04-18T10:56:17.999Z</time></trkpt><trkpt lat="44.53124800411812" lon="6.710661171236509"><ele>1950.0</ele><time>2026-04-18T10:56:18.999Z</time></trkpt><trkpt lat="44.531182874951824" lon="6.710837064235447"><ele>1944.0</ele><time>2026-04-18T10:56:19.999Z</time></trkpt><trkpt lat="44.53113840740537" lon="6.711011504089756"><ele>1938.0</ele><time>2026-04-18T10:56:20.999Z</time></trkpt><trkpt lat="44.53109996183303" lon="6.7111812637778"><ele>1932.0</ele><time>2026-04-18T10:56:21.999Z</time></trkpt><trkpt lat="44.531075554963934" lon="6.711369167449052"><ele>1932.0</ele><time>2026-04-18T10:56:22.999Z</time></trkpt><trkpt lat="44.53107240964641" lon="6.71155779261828"><ele>1932.0</ele><time>2026-04-18T10:56:23.999Z</time></trkpt><trkpt lat="44.53109912151612" lon="6.711756286814363"><ele>1932.0</ele><time>2026-04-18T10:56:24.999Z</time></trkpt><trkpt lat="44.531144932541274" lon="6.711965719227469"><ele>1932.0</ele><time>2026-04-18T10:56:25.999Z</time></trkpt><trkpt lat="44.53118354042547" lon="6.712139946806293"><ele>1935.75</ele><time>2026-04-18T10:56:26.999Z</time></trkpt><trkpt lat="44.5312425811167" lon="6.712339736117875"><ele>1939.5</ele><time>2026-04-18T10:56:27.999Z</time></trkpt><trkpt lat="44.53133669671253" lon="6.712524346820878"><ele>1943.25</ele><time>2026-04-18T10:56:28.999Z</time></trkpt><trkpt lat="44.531385818620414" lon="6.712670265557263"><ele>1947.0</ele><time>2026-04-18T10:56:30Z</time></trkpt><trkpt lat="44.531402005088864" lon="6.712823244323717"><ele>1947.6</ele><time>2026-04-18T10:56:31Z</time></trkpt><trkpt lat="44.53137211381083" lon="6.712957504126299"><ele>1948.1999999999998</ele><time>2026-04-18T10:56:32Z</time></trkpt><trkpt lat="44.53130540774732" lon="6.713047425559067"><ele>1948.8</ele><time>2026-04-18T10:56:33Z</time></trkpt><trkpt lat="44.53121364579324" lon="6.713083941892633"><ele>1949.4</ele><time>2026-04-18T10:56:34Z</time></trkpt><trkpt lat="44.53114003664137" lon="6.713133927599791"><ele>1950.0</ele><time>2026-04-18T10:56:35Z</time></trkpt><trkpt lat="44.53104409004319" lon="6.713076400119665"><ele>1943.75</ele><time>2026-04-18T10:56:36Z</time></trkpt><trkpt lat="44.530925291142005" lon="6.71295507913655"><ele>1937.5</ele><time>2026-04-18T10:56:37Z</time></trkpt><trkpt lat="44.53085647229419" lon="6.712821853659601"><ele>1931.25</ele><time>2026-04-18T10:56:38Z</time></trkpt><trkpt lat="44.53078791569814" lon="6.712666798039429"><ele>1925.0</ele><time>2026-04-18T10:56:39Z</time></trkpt><trkpt lat="44.53071566956487" lon="6.712470522548249"><ele>1925.0</ele><time>2026-04-18T10:56:40Z</time></trkpt><trkpt lat="44.530631680704694" lon="6.712278234647782"><ele>1925.0</ele><time>2026-04-18T10:56:41Z</time></trkpt><trkpt lat="44.53055146665344" lon="6.712098384581049"><ele>1925.0</ele><time>2026-04-18T10:56:42Z</time></trkpt><trkpt lat="44.530486874427766" lon="6.711912961514215"><ele>1926.75</ele><time>2026-04-18T10:56:43Z</time></trkpt><trkpt lat="44.530436440539475" lon="6.711719567486045"><ele>1928.5</ele><time>2026-04-18T10:56:44Z</time></trkpt><trkpt lat="44.53040100634154" lon="6.711526452168203"><ele>1930.25</ele><time>2026-04-18T10:56:45Z</time></trkpt><trkpt lat="44.530389875166605" lon="6.711320639169289"><ele>1932.0</ele><time>2026-04-18T10:56:46Z</time></trkpt><trkpt lat="44.53041333402533" lon="6.711126765477464"><ele>1931.0</ele><time>2026-04-18T10:56:47Z</time></trkpt><trkpt lat="44.530456342639084" lon="6.710951057835632"><ele>1930.0</ele><time>2026-04-18T10:56:48Z</time></trkpt><trkpt lat="44.530509907963975" lon="6.710789230571038"><ele>1929.0</ele><time>2026-04-18T10:56:49Z</time></trkpt><trkpt lat="44.53057806831284" lon="6.71063782598373"><ele>1928.0</ele><time>2026-04-18T10:56:50Z</time></trkpt><trkpt lat="44.53066635768711" lon="6.710497217206486"><ele>1928.0</ele><time>2026-04-18T10:56:51Z</time></trkpt><trkpt lat="44.53073770045179" lon="6.71035309712677"><ele>1928.0000000000002</ele><time>2026-04-18T10:56:52Z</time></trkpt><trkpt lat="44.53081391589616" lon="6.710227723714526"><ele>1928.0000000000002</ele><time>2026-04-18T10:56:53Z</time></trkpt><trkpt lat="44.53084217131419" lon="6.71014324063939"><ele>1928.0</ele><time>2026-04-18T10:56:54Z</time></trkpt><trkpt lat="44.530866501342054" lon="6.710057099774073"><ele>1928.0</ele><time>2026-04-18T10:56:55Z</time></trkpt><trkpt lat="44.53081825638878" lon="6.709892666327528"><ele>1928.0</ele><time>2026-04-18T10:56:57Z</time></trkpt><trkpt lat="44.53075091621263" lon="6.709836750442272"><ele>1928.0</ele><time>2026-04-18T10:56:58Z</time></trkpt><trkpt lat="44.53063303623947" lon="6.70985321142709"><ele>1928.0</ele><time>2026-04-18T10:57:00Z</time></trkpt><trkpt lat="44.53049882527377" lon="6.710077581338485"><ele>1928.0</ele><time>2026-04-18T10:57:02Z</time></trkpt><trkpt lat="44.53042502619715" lon="6.7103022957371685"><ele>1914.3333333333333</ele><time>2026-04-18T10:57:03Z</time></trkpt><trkpt lat="44.5303379581454" lon="6.7105146808440015"><ele>1900.6666666666665</ele><time>2026-04-18T10:57:04Z</time></trkpt><trkpt lat="44.5302172133611" lon="6.710688253433483"><ele>1887.0</ele><time>2026-04-18T10:57:05Z</time></trkpt><trkpt lat="44.530088770601175" lon="6.710873372706532"><ele>1887.0</ele><time>2026-04-18T10:57:06Z</time></trkpt><trkpt lat="44.52996322510928" lon="6.71106890630124"><ele>1887.0</ele><time>2026-04-18T10:57:07Z</time></trkpt><trkpt lat="44.52984259525018" lon="6.711257066432664"><ele>1887.0</ele><time>2026-04-18T10:57:08Z</time></trkpt><trkpt lat="44.52973965917757" lon="6.711419213015619"><ele>1891.0</ele><time>2026-04-18T10:57:09Z</time></trkpt><trkpt lat="44.529658797658634" lon="6.711593310122192"><ele>1895.0</ele><time>2026-04-18T10:57:10Z</time></trkpt><trkpt lat="44.52958607416729" lon="6.711793541183566"><ele>1899.0</ele><time>2026-04-18T10:57:11Z</time></trkpt><trkpt lat="44.529541467280886" lon="6.711996321930773"><ele>1887.0</ele><time>2026-04-18T10:57:12Z</time></trkpt><trkpt lat="44.52950482264454" lon="6.712199548320301"><ele>1875.0</ele><time>2026-04-18T10:57:13Z</time></trkpt><trkpt lat="44.52947695534361" lon="6.7124208249025115"><ele>1863.0</ele><time>2026-04-18T10:57:14Z</time></trkpt><trkpt lat="44.529461735898124" lon="6.71263064908756"><ele>1861.3333333333335</ele><time>2026-04-18T10:57:15Z</time></trkpt><trkpt lat="44.52948496329655" lon="6.712837224489395"><ele>1859.6666666666667</ele><time>2026-04-18T10:57:16Z</time></trkpt><trkpt lat="44.52951429917226" lon="6.713052730407538"><ele>1858.0</ele><time>2026-04-18T10:57:17Z</time></trkpt><trkpt lat="44.52954368660158" lon="6.713255671330884"><ele>1856.5</ele><time>2026-04-18T10:57:18Z</time></trkpt><trkpt lat="44.529590393398315" lon="6.713449279676767"><ele>1855.0</ele><time>2026-04-18T10:57:19Z</time></trkpt><trkpt lat="44.52961634438767" lon="6.713638677703553"><ele>1853.5</ele><time>2026-04-18T10:57:20Z</time></trkpt><trkpt lat="44.529571854434515" lon="6.713822418618561"><ele>1852.0</ele><time>2026-04-18T10:57:21Z</time></trkpt><trkpt lat="44.5295156019565" lon="6.714038697121098"><ele>1852.0</ele><time>2026-04-18T10:57:22Z</time></trkpt><trkpt lat="44.52948016703643" lon="6.714264488930085"><ele>1852.0</ele><time>2026-04-18T10:57:23Z</time></trkpt><trkpt lat="44.529458286600736" lon="6.714494541879127"><ele>1852.0</ele><time>2026-04-18T10:57:24Z</time></trkpt><trkpt lat="44.52944115667504" lon="6.714764762785117"><ele>1852.0</ele><time>2026-04-18T10:57:25Z</time></trkpt><trkpt lat="44.529411171958664" lon="6.7150459516099295"><ele>1852.0</ele><time>2026-04-18T10:57:26Z</time></trkpt><trkpt lat="44.52939360423549" lon="6.715332598123897"><ele>1852.0</ele><time>2026-04-18T10:57:27Z</time></trkpt><trkpt lat="44.52936668352207" lon="6.715592742403665"><ele>1852.0</ele><time>2026-04-18T10:57:28Z</time></trkpt><trkpt lat="44.52933523085714" lon="6.715827439805876"><ele>1852.0</ele><time>2026-04-18T10:57:29Z</time></trkpt><trkpt lat="44.52930922255875" lon="6.716052874963368"><ele>1852.0</ele><time>2026-04-18T10:57:30Z</time></trkpt><trkpt lat="44.52929870263876" lon="6.716261523540371"><ele>1850.0</ele><time>2026-04-18T10:57:31Z</time></trkpt><trkpt lat="44.52931533963643" lon="6.71648133752259"><ele>1848.0</ele><time>2026-04-18T10:57:32Z</time></trkpt><trkpt lat="44.52933815799089" lon="6.716688282190203"><ele>1846.0</ele><time>2026-04-18T10:57:33Z</time></trkpt><trkpt lat="44.529371326821085" lon="6.716910067100806"><ele>1843.0</ele><time>2026-04-18T10:57:34Z</time></trkpt><trkpt lat="44.52940789103398" lon="6.717130176725457"><ele>1840.0</ele><time>2026-04-18T10:57:35Z</time></trkpt><trkpt lat="44.52935611567294" lon="6.717333037938322"><ele>1837.0</ele><time>2026-04-18T10:57:36Z</time></trkpt><trkpt lat="44.529308438282094" lon="6.717574250095467"><ele>1837.6666666666667</ele><time>2026-04-18T10:57:37Z</time></trkpt><trkpt lat="44.52928125955547" lon="6.717846404685079"><ele>1838.3333333333335</ele><time>2026-04-18T10:57:37.999Z</time></trkpt><trkpt lat="44.52925030233495" lon="6.718174284641118"><ele>1839.0</ele><time>2026-04-18T10:57:38.999Z</time></trkpt><trkpt lat="44.52921766077994" lon="6.7185116465964425"><ele>1838.6666666666665</ele><time>2026-04-18T10:57:39.999Z</time></trkpt><trkpt lat="44.52918677042366" lon="6.718807034323174"><ele>1838.3333333333333</ele><time>2026-04-18T10:57:40.999Z</time></trkpt><trkpt lat="44.52914820497021" lon="6.7190955020657235"><ele>1838.0</ele><time>2026-04-18T10:57:41.999Z</time></trkpt><trkpt lat="44.5291051509989" lon="6.719385174483776"><ele>1837.6666666666665</ele><time>2026-04-18T10:57:42.999Z</time></trkpt><trkpt lat="44.52906618718836" lon="6.7196751673266"><ele>1837.3333333333335</ele><time>2026-04-18T10:57:43.999Z</time></trkpt><trkpt lat="44.52904420131795" lon="6.719959739905291"><ele>1837.0</ele><time>2026-04-18T10:57:44.999Z</time></trkpt><trkpt lat="44.529004022335975" lon="6.7202292178663265"><ele>1836.6666666666667</ele><time>2026-04-18T10:57:45.999Z</time></trkpt><trkpt lat="44.52898296221049" lon="6.720483906931785"><ele>1836.3333333333335</ele><time>2026-04-18T10:57:46.999Z</time></trkpt><trkpt lat="44.528955685131706" lon="6.7207053490608955"><ele>1836.0</ele><time>2026-04-18T10:57:47.999Z</time></trkpt><trkpt lat="44.52892233152734" lon="6.720932614054789"><ele>1835.5</ele><time>2026-04-18T10:57:48.999Z</time></trkpt><trkpt lat="44.52888060999185" lon="6.721144165106447"><ele>1835.0</ele><time>2026-04-18T10:57:49.999Z</time></trkpt><trkpt lat="44.528840346836844" lon="6.721342152793431"><ele>1834.5</ele><time>2026-04-18T10:57:50.999Z</time></trkpt><trkpt lat="44.52881438448516" lon="6.72152653917606"><ele>1834.0</ele><time>2026-04-18T10:57:51.999Z</time></trkpt><trkpt lat="44.52881270660531" lon="6.721712297588716"><ele>1834.0</ele><time>2026-04-18T10:57:52.999Z</time></trkpt><trkpt lat="44.52881699906045" lon="6.721875839471419"><ele>1834.0</ele><time>2026-04-18T10:57:53.999Z</time></trkpt><trkpt lat="44.528823317628834" lon="6.722028253385624"><ele>1834.0</ele><time>2026-04-18T10:57:54.999Z</time></trkpt><trkpt lat="44.528832619462015" lon="6.7221574932348815"><ele>1834.0</ele><time>2026-04-18T10:57:55.999Z</time></trkpt><trkpt lat="44.5288032380617" lon="6.7222572280357"><ele>1834.0</ele><time>2026-04-18T10:57:56.999Z</time></trkpt><trkpt lat="44.52870270423902" lon="6.722270786591066"><ele>1823.75</ele><time>2026-04-18T10:57:58.999Z</time></trkpt><trkpt lat="44.52862563608274" lon="6.722110515358741"><ele>1813.5</ele><time>2026-04-18T10:58:00.999Z</time></trkpt><trkpt lat="44.528640132731596" lon="6.721980758573777"><ele>1803.25</ele><time>2026-04-18T10:58:01.999Z</time></trkpt><trkpt lat="44.52864625082555" lon="6.721860630891472"><ele>1793.0</ele><time>2026-04-18T10:58:02.999Z</time></trkpt><trkpt lat="44.528668535923096" lon="6.7216753698199705"><ele>1793.0</ele><time>2026-04-18T10:58:03.999Z</time></trkpt><trkpt lat="44.52867509023145" lon="6.721476166937283"><ele>1793.0</ele><time>2026-04-18T10:58:04.999Z</time></trkpt><trkpt lat="44.528646342237025" lon="6.721265825606089"><ele>1793.0</ele><time>2026-04-18T10:58:05.999Z</time></trkpt><trkpt lat="44.52858640334705" lon="6.72101021711139"><ele>1793.0</ele><time>2026-04-18T10:58:06.999Z</time></trkpt><trkpt lat="44.52854796612066" lon="6.720733039378343"><ele>1793.0</ele><time>2026-04-18T10:58:07.999Z</time></trkpt><trkpt lat="44.528508586315276" lon="6.720456161469286"><ele>1793.0</ele><time>2026-04-18T10:58:08.999Z</time></trkpt><trkpt lat="44.52846904437959" lon="6.720178460932416"><ele>1792.3333333333333</ele><time>2026-04-18T10:58:09.999Z</time></trkpt><trkpt lat="44.52841991732784" lon="6.719890241194088"><ele>1791.6666666666665</ele><time>2026-04-18T10:58:10.999Z</time></trkpt><trkpt lat="44.52836687923461" lon="6.719601596151939"><ele>1791.0</ele><time>2026-04-18T10:58:11.999Z</time></trkpt><trkpt lat="44.52831107587636" lon="6.7193402971723835"><ele>1790.3333333333335</ele><time>2026-04-18T10:58:12.999Z</time></trkpt><trkpt lat="44.52827032546438" lon="6.719083090486996"><ele>1789.6666666666667</ele><time>2026-04-18T10:58:13.999Z</time></trkpt><trkpt lat="44.528209153983354" lon="6.718834652469584"><ele>1789.0</ele><time>2026-04-18T10:58:14.999Z</time></trkpt><trkpt lat="44.52814731077238" lon="6.718589523840331"><ele>1789.5</ele><time>2026-04-18T10:58:15.999Z</time></trkpt><trkpt lat="44.528089072322864" lon="6.718354118478938"><ele>1790.0</ele><time>2026-04-18T10:58:16.999Z</time></trkpt><trkpt lat="44.52805645722228" lon="6.7181440582920615"><ele>1790.5</ele><time>2026-04-18T10:58:17.999Z</time></trkpt><trkpt lat="44.52806456060797" lon="6.717987540502078"><ele>1791.0</ele><time>2026-04-18T10:58:18.999Z</time></trkpt><trkpt lat="44.52808250231597" lon="6.717791598185137"><ele>1790.75</ele><time>2026-04-18T10:58:19.999Z</time></trkpt><trkpt lat="44.528074028154364" lon="6.717594374611676"><ele>1790.5</ele><time>2026-04-18T10:58:20.999Z</time></trkpt><trkpt lat="44.52805357927942" lon="6.7174607462187765"><ele>1790.25</ele><time>2026-04-18T10:58:21.999Z</time></trkpt><trkpt lat="44.52801408910709" lon="6.717281816020078"><ele>1790.0</ele><time>2026-04-18T10:58:22.999Z</time></trkpt><trkpt lat="44.52794639957018" lon="6.71712062599365"><ele>1782.5</ele><time>2026-04-18T10:58:23.999Z</time></trkpt><trkpt lat="44.52789298577378" lon="6.716975676375537"><ele>1775.0</ele><time>2026-04-18T10:58:24.999Z</time></trkpt><trkpt lat="44.527792631445635" lon="6.716870825289782"><ele>1767.5</ele><time>2026-04-18T10:58:25.999Z</time></trkpt><trkpt lat="44.52771667092318" lon="6.716729468152895"><ele>1760.0</ele><time>2026-04-18T10:58:26.999Z</time></trkpt><trkpt lat="44.52763008861396" lon="6.71655498060768"><ele>1760.0</ele><time>2026-04-18T10:58:27.999Z</time></trkpt><trkpt lat="44.52756775055715" lon="6.7163601920585965"><ele>1760.0</ele><time>2026-04-18T10:58:28.999Z</time></trkpt><trkpt lat="44.52749779760436" lon="6.716172546876463"><ele>1760.0</ele><time>2026-04-18T10:58:29.999Z</time></trkpt><trkpt lat="44.527425223313635" lon="6.715994388585501"><ele>1760.0</ele><time>2026-04-18T10:58:30.999Z</time></trkpt><trkpt lat="44.527360979623495" lon="6.715819018673754"><ele>1761.4</ele><time>2026-04-18T10:58:31.999Z</time></trkpt><trkpt lat="44.52729040561116" lon="6.715647945694786"><ele>1762.8</ele><time>2026-04-18T10:58:32.999Z</time></trkpt><trkpt lat="44.52724165191789" lon="6.715513086918124"><ele>1764.1999999999998</ele><time>2026-04-18T10:58:33.999Z</time></trkpt><trkpt lat="44.52722552169816" lon="6.715387333087141"><ele>1765.6</ele><time>2026-04-18T10:58:34.999Z</time></trkpt><trkpt lat="44.52724674300604" lon="6.715263607314554"><ele>1767.0</ele><time>2026-04-18T10:58:36Z</time></trkpt><trkpt lat="44.527238146375986" lon="6.715153507180595"><ele>1768.6</ele><time>2026-04-18T10:58:37Z</time></trkpt><trkpt lat="44.527216956791335" lon="6.715038252762598"><ele>1770.1999999999998</ele><time>2026-04-18T10:58:38Z</time></trkpt><trkpt lat="44.5271512174699" lon="6.71496430082605"><ele>1771.8</ele><time>2026-04-18T10:58:39Z</time></trkpt><trkpt lat="44.52702177525243" lon="6.715009930436035"><ele>1773.4</ele><time>2026-04-18T10:58:41Z</time></trkpt><trkpt lat="44.52691001609928" lon="6.71507485322285"><ele>1775.0</ele><time>2026-04-18T10:58:43Z</time></trkpt><trkpt lat="44.52693428694316" lon="6.7154295774293455"><ele>1763.0</ele><time>2026-04-18T10:58:45Z</time></trkpt><trkpt lat="44.52695791718214" lon="6.715549305631983"><ele>1751.0</ele><time>2026-04-18T10:58:46Z</time></trkpt><trkpt lat="44.526966247913656" lon="6.715790519381112"><ele>1739.0</ele><time>2026-04-18T10:58:47Z</time></trkpt><trkpt lat="44.52692435240342" lon="6.715996119583156"><ele>1727.0</ele><time>2026-04-18T10:58:48Z</time></trkpt><trkpt lat="44.52691907630679" lon="6.716205778237945"><ele>1726.0</ele><time>2026-04-18T10:58:49Z</time></trkpt><trkpt lat="44.52691931171562" lon="6.716432611576885"><ele>1725.0</ele><time>2026-04-18T10:58:50Z</time></trkpt><trkpt lat="44.526903590915374" lon="6.716653993038363"><ele>1724.0</ele><time>2026-04-18T10:58:51Z</time></trkpt><trkpt lat="44.526876628807905" lon="6.716868549422522"><ele>1721.5</ele><time>2026-04-18T10:58:52Z</time></trkpt><trkpt lat="44.526852262139926" lon="6.717055015857516"><ele>1719.0</ele><time>2026-04-18T10:58:53Z</time></trkpt><trkpt lat="44.52684142177564" lon="6.71723667954988"><ele>1716.5</ele><time>2026-04-18T10:58:54Z</time></trkpt><trkpt lat="44.5268381251034" lon="6.717404963075119"><ele>1714.0</ele><time>2026-04-18T10:58:55Z</time></trkpt><trkpt lat="44.52683748960541" lon="6.717506326025213"><ele>1714.0</ele><time>2026-04-18T10:58:56Z</time></trkpt><trkpt lat="44.526844248324345" lon="6.717607357419034"><ele>1714.0</ele><time>2026-04-18T10:58:57Z</time></trkpt><trkpt lat="44.52693730927039" lon="6.717685414148001"><ele>1714.0</ele><time>2026-04-18T10:58:58Z</time></trkpt><trkpt lat="44.52703136209535" lon="6.717764719504158"><ele>1714.0</ele><time>2026-04-18T10:58:59Z</time></trkpt><trkpt lat="44.527083485578416" lon="6.717871254730883"><ele>1714.0</ele><time>2026-04-18T10:59:00Z</time></trkpt><trkpt lat="44.52715752005869" lon="6.717933032229426"><ele>1712.5</ele><time>2026-04-18T10:59:01Z</time></trkpt><trkpt lat="44.527137432760775" lon="6.718092664727817"><ele>1711.0</ele><time>2026-04-18T10:59:03Z</time></trkpt><trkpt lat="44.52704865249206" lon="6.7181114315973565"><ele>1709.5</ele><time>2026-04-18T10:59:04Z</time></trkpt><trkpt lat="44.52691483162517" lon="6.718184281553212"><ele>1708.0</ele><time>2026-04-18T10:59:06Z</time></trkpt><trkpt lat="44.52677352446604" lon="6.718305911116831"><ele>1708.0</ele><time>2026-04-18T10:59:07Z</time></trkpt><trkpt lat="44.52668692742548" lon="6.718411240372998"><ele>1708.0</ele><time>2026-04-18T10:59:08Z</time></trkpt><trkpt lat="44.52665599821825" lon="6.71863224356391"><ele>1708.0</ele><time>2026-04-18T10:59:09Z</time></trkpt><trkpt lat="44.52663384803346" lon="6.7187850086936285"><ele>1708.0</ele><time>2026-04-18T10:59:10Z</time></trkpt><trkpt lat="44.52659962331531" lon="6.718953948585278"><ele>1707.6666666666667</ele><time>2026-04-18T10:59:11Z</time></trkpt><trkpt lat="44.52655144819023" lon="6.719150003401767"><ele>1707.3333333333335</ele><time>2026-04-18T10:59:12Z</time></trkpt><trkpt lat="44.52651298007589" lon="6.719360357564597"><ele>1707.0</ele><time>2026-04-18T10:59:13Z</time></trkpt><trkpt lat="44.52646499039367" lon="6.719577742767453"><ele>1710.3333333333335</ele><time>2026-04-18T10:59:14Z</time></trkpt><trkpt lat="44.5263603092444" lon="6.7197558245728946"><ele>1713.6666666666667</ele><time>2026-04-18T10:59:15Z</time></trkpt><trkpt lat="44.52626257929487" lon="6.719953399258512"><ele>1717.0</ele><time>2026-04-18T10:59:16Z</time></trkpt><trkpt lat="44.526169883078474" lon="6.720193900252163"><ele>1706.6666666666667</ele><time>2026-04-18T10:59:17Z</time></trkpt><trkpt lat="44.52610382411537" lon="6.720407484006669"><ele>1696.3333333333335</ele><time>2026-04-18T10:59:18Z</time></trkpt><trkpt lat="44.526042556805116" lon="6.720625304575369"><ele>1686.0</ele><time>2026-04-18T10:59:19Z</time></trkpt><trkpt lat="44.525975426418924" lon="6.72085699359567"><ele>1687.6666666666665</ele><time>2026-04-18T10:59:20Z</time></trkpt><trkpt lat="44.52590035079776" lon="6.721076695705075"><ele>1689.3333333333333</ele><time>2026-04-18T10:59:21Z</time></trkpt><trkpt lat="44.52583130328323" lon="6.721299423291805"><ele>1691.0</ele><time>2026-04-18T10:59:22Z</time></trkpt><trkpt lat="44.52577107319013" lon="6.721538417686835"><ele>1691.0</ele><time>2026-04-18T10:59:23Z</time></trkpt><trkpt lat="44.52571728450296" lon="6.721767629405579"><ele>1691.0</ele><time>2026-04-18T10:59:24Z</time></trkpt><trkpt lat="44.5256745365803" lon="6.722006508464991"><ele>1691.0</ele><time>2026-04-18T10:59:25Z</time></trkpt><trkpt lat="44.52561491388078" lon="6.722204438146694"><ele>1691.6666666666665</ele><time>2026-04-18T10:59:26Z</time></trkpt><trkpt lat="44.52554722128323" lon="6.7223997580004715"><ele>1692.3333333333335</ele><time>2026-04-18T10:59:27Z</time></trkpt><trkpt lat="44.52550301228645" lon="6.722607745484823"><ele>1693.0</ele><time>2026-04-18T10:59:28Z</time></trkpt><trkpt lat="44.525486980888445" lon="6.722820213014089"><ele>1689.6666666666667</ele><time>2026-04-18T10:59:29Z</time></trkpt><trkpt lat="44.52545806654121" lon="6.723042544349228"><ele>1686.3333333333335</ele><time>2026-04-18T10:59:30Z</time></trkpt><trkpt lat="44.52541756230973" lon="6.723250699086465"><ele>1683.0</ele><time>2026-04-18T10:59:31Z</time></trkpt><trkpt lat="44.52538333065186" lon="6.723465018948448"><ele>1681.5</ele><time>2026-04-18T10:59:32Z</time></trkpt><trkpt lat="44.52536643009714" lon="6.723677368567332"><ele>1680.0</ele><time>2026-04-18T10:59:33Z</time></trkpt><trkpt lat="44.525347683135" lon="6.723869307844076"><ele>1678.5</ele><time>2026-04-18T10:59:34Z</time></trkpt><trkpt lat="44.52536939023748" lon="6.724075556470699"><ele>1677.0</ele><time>2026-04-18T10:59:35Z</time></trkpt><trkpt lat="44.52539776695459" lon="6.724305705192061"><ele>1679.0</ele><time>2026-04-18T10:59:36Z</time></trkpt><trkpt lat="44.525411637660135" lon="6.724545363410787"><ele>1681.0</ele><time>2026-04-18T10:59:37Z</time></trkpt><trkpt lat="44.525435441687215" lon="6.724751827014302"><ele>1683.0</ele><time>2026-04-18T10:59:38Z</time></trkpt><trkpt lat="44.52541222790392" lon="6.724936445154772"><ele>1683.0</ele><time>2026-04-18T10:59:39Z</time></trkpt><trkpt lat="44.52541655592167" lon="6.725114490862442"><ele>1683.0</ele><time>2026-04-18T10:59:40Z</time></trkpt><trkpt lat="44.52541826846997" lon="6.725289202132992"><ele>1683.0</ele><time>2026-04-18T10:59:41Z</time></trkpt><trkpt lat="44.525453318666194" lon="6.725482142970705"><ele>1683.0</ele><time>2026-04-18T10:59:42Z</time></trkpt><trkpt lat="44.52548754777346" lon="6.725674437876015"><ele>1680.0</ele><time>2026-04-18T10:59:43Z</time></trkpt><trkpt lat="44.52552412327502" lon="6.725831219645718"><ele>1677.0</ele><time>2026-04-18T10:59:44Z</time></trkpt><trkpt lat="44.52557951117546" lon="6.725976399841714"><ele>1674.0</ele><time>2026-04-18T10:59:44.999Z</time></trkpt><trkpt lat="44.52569890110395" lon="6.726116275095388"><ele>1671.0</ele><time>2026-04-18T10:59:45.999Z</time></trkpt><trkpt lat="44.5258009266354" lon="6.72614093537484"><ele>1669.0</ele><time>2026-04-18T10:59:46.999Z</time></trkpt><trkpt lat="44.52590530596566" lon="6.726127644781614"><ele>1667.0</ele><time>2026-04-18T10:59:47.999Z</time></trkpt><trkpt lat="44.526041151370876" lon="6.726123783016981"><ele>1665.0</ele><time>2026-04-18T10:59:48.999Z</time></trkpt><trkpt lat="44.526125529044805" lon="6.726138845250964"><ele>1663.0</ele><time>2026-04-18T10:59:49.999Z</time></trkpt><trkpt lat="44.526210283386625" lon="6.726127909407743"><ele>1661.0</ele><time>2026-04-18T10:59:50.999Z</time></trkpt><trkpt lat="44.52631428058608" lon="6.726088223300014"><ele>1661.0</ele><time>2026-04-18T10:59:51.999Z</time></trkpt><trkpt lat="44.52636320193939" lon="6.72618459997166"><ele>1661.0</ele><time>2026-04-18T10:59:52.999Z</time></trkpt><trkpt lat="44.52633343713137" lon="6.726297976051982"><ele>1661.0</ele><time>2026-04-18T10:59:53.999Z</time></trkpt><trkpt lat="44.526324481752404" lon="6.726397029602971"><ele>1661.0</ele><time>2026-04-18T10:59:54.999Z</time></trkpt><trkpt lat="44.526261665828976" lon="6.726499663237078"><ele>1661.0</ele><time>2026-04-18T10:59:55.999Z</time></trkpt><trkpt lat="44.52617272664588" lon="6.7266203821846995"><ele>1661.0</ele><time>2026-04-18T10:59:56.999Z</time></trkpt><trkpt lat="44.52609896441742" lon="6.726696237408277"><ele>1661.0</ele><time>2026-04-18T10:59:57.999Z</time></trkpt><trkpt lat="44.52597883864417" lon="6.726769957804859"><ele>1661.0</ele><time>2026-04-18T10:59:58.999Z</time></trkpt><trkpt lat="44.52584102155698" lon="6.726807101026881"><ele>1661.0</ele><time>2026-04-18T10:59:59.999Z</time></trkpt><trkpt lat="44.525707862309616" lon="6.726825455994873"><ele>1661.0</ele><time>2026-04-18T11:00:00.999Z</time></trkpt><trkpt lat="44.5256139390346" lon="6.726877716242665"><ele>1661.0</ele><time>2026-04-18T11:00:01.999Z</time></trkpt><trkpt lat="44.52549363751415" lon="6.726925949419768"><ele>1661.0</ele><time>2026-04-18T11:00:02.999Z</time></trkpt><trkpt lat="44.52541921503923" lon="6.727021487564016"><ele>1661.0</ele><time>2026-04-18T11:00:03.999Z</time></trkpt><trkpt lat="44.52535300407879" lon="6.727125057022437"><ele>1661.0</ele><time>2026-04-18T11:00:04.999Z</time></trkpt><trkpt lat="44.525314446757434" lon="6.727274599758345"><ele>1658.6666666666665</ele><time>2026-04-18T11:00:05.999Z</time></trkpt><trkpt lat="44.52531055763754" lon="6.727512045619996"><ele>1656.3333333333335</ele><time>2026-04-18T11:00:06.999Z</time></trkpt><trkpt lat="44.52527181946364" lon="6.727774091579968"><ele>1654.0</ele><time>2026-04-18T11:00:07.999Z</time></trkpt><trkpt lat="44.52524903985988" lon="6.72800143207016"><ele>1654.0</ele><time>2026-04-18T11:00:08.999Z</time></trkpt><trkpt lat="44.52519382382957" lon="6.7281910670611325"><ele>1654.0</ele><time>2026-04-18T11:00:09.999Z</time></trkpt><trkpt lat="44.52512107013139" lon="6.728362257112295"><ele>1654.0</ele><time>2026-04-18T11:00:10.999Z</time></trkpt><trkpt lat="44.52506273258727" lon="6.728526650080099"><ele>1654.0</ele><time>2026-04-18T11:00:11.999Z</time></trkpt><trkpt lat="44.5250246858557" lon="6.7286879592781155"><ele>1656.3333333333335</ele><time>2026-04-18T11:00:12.999Z</time></trkpt><trkpt lat="44.524988981417884" lon="6.728881291148321"><ele>1658.6666666666665</ele><time>2026-04-18T11:00:13.999Z</time></trkpt><trkpt lat="44.52498796174942" lon="6.729094394915426"><ele>1661.0</ele><time>2026-04-18T11:00:14.999Z</time></trkpt><trkpt lat="44.524982568752606" lon="6.7293601435370025"><ele>1661.0</ele><time>2026-04-18T11:00:15.999Z</time></trkpt><trkpt lat="44.52498173396272" lon="6.729628833954115"><ele>1661.0</ele><time>2026-04-18T11:00:16.999Z</time></trkpt><trkpt lat="44.524992862375086" lon="6.729908751532785"><ele>1661.0</ele><time>2026-04-18T11:00:17.999Z</time></trkpt><trkpt lat="44.525007944650284" lon="6.730157604492509"><ele>1659.3333333333333</ele><time>2026-04-18T11:00:18.999Z</time></trkpt><trkpt lat="44.52501356894953" lon="6.730403116697294"><ele>1657.6666666666665</ele><time>2026-04-18T11:00:19.999Z</time></trkpt><trkpt lat="44.52500142030948" lon="6.730639775002897"><ele>1656.0</ele><time>2026-04-18T11:00:20.999Z</time></trkpt><trkpt lat="44.524965152625896" lon="6.730885049576713"><ele>1654.6666666666665</ele><time>2026-04-18T11:00:21.999Z</time></trkpt><trkpt lat="44.52492561792784" lon="6.731125780509066"><ele>1653.3333333333333</ele><time>2026-04-18T11:00:22.999Z</time></trkpt><trkpt lat="44.524903252662824" lon="6.731371089205943"><ele>1652.0</ele><time>2026-04-18T11:00:23.999Z</time></trkpt><trkpt lat="44.524884307557556" lon="6.731604604989444"><ele>1652.0</ele><time>2026-04-18T11:00:24.999Z</time></trkpt><trkpt lat="44.524876825056744" lon="6.731812676920004"><ele>1652.0</ele><time>2026-04-18T11:00:25.999Z</time></trkpt><trkpt lat="44.52487166417784" lon="6.731977554516985"><ele>1652.0</ele><time>2026-04-18T11:00:26.999Z</time></trkpt><trkpt lat="44.52485629009935" lon="6.7321139044861456"><ele>1652.0</ele><time>2026-04-18T11:00:27.999Z</time></trkpt><trkpt lat="44.52483863529346" lon="6.7322353245736"><ele>1650.75</ele><time>2026-04-18T11:00:28.999Z</time></trkpt><trkpt lat="44.52474029912501" lon="6.732336877686278"><ele>1649.5</ele><time>2026-04-18T11:00:29.999Z</time></trkpt><trkpt lat="44.52463498934594" lon="6.732386039983345"><ele>1648.25</ele><time>2026-04-18T11:00:30.999Z</time></trkpt><trkpt lat="44.52453113035696" lon="6.732426181960102"><ele>1647.0</ele><time>2026-04-18T11:00:31.999Z</time></trkpt><trkpt lat="44.524401336055234" lon="6.732460997156448"><ele>1647.0</ele><time>2026-04-18T11:00:32.999Z</time></trkpt><trkpt lat="44.524277555555" lon="6.732516333939346"><ele>1647.0</ele><time>2026-04-18T11:00:33.999Z</time></trkpt><trkpt lat="44.52417280448534" lon="6.732538973848954"><ele>1647.0</ele><time>2026-04-18T11:00:34.999Z</time></trkpt><trkpt lat="44.52404293440452" lon="6.732611426579651"><ele>1647.0</ele><time>2026-04-18T11:00:35.999Z</time></trkpt><trkpt lat="44.523911964791914" lon="6.732705744710045"><ele>1644.5</ele><time>2026-04-18T11:00:36.999Z</time></trkpt><trkpt lat="44.523792162455486" lon="6.732827159418106"><ele>1642.0</ele><time>2026-04-18T11:00:37.999Z</time></trkpt><trkpt lat="44.52369859106665" lon="6.732952578294116"><ele>1639.5</ele><time>2026-04-18T11:00:38.999Z</time></trkpt><trkpt lat="44.523609732127575" lon="6.733099791969271"><ele>1637.0</ele><time>2026-04-18T11:00:39.999Z</time></trkpt><trkpt lat="44.52352509908617" lon="6.7332433827013025"><ele>1637.0</ele><time>2026-04-18T11:00:40.999Z</time></trkpt><trkpt lat="44.52346067834359" lon="6.73337911284629"><ele>1637.0</ele><time>2026-04-18T11:00:42Z</time></trkpt><trkpt lat="44.52338376407507" lon="6.733515001690954"><ele>1637.0</ele><time>2026-04-18T11:00:43Z</time></trkpt><trkpt lat="44.523333068078976" lon="6.7336511308251525"><ele>1637.0</ele><time>2026-04-18T11:00:44Z</time></trkpt><trkpt lat="44.52329087927482" lon="6.733802123443773"><ele>1637.75</ele><time>2026-04-18T11:00:45Z</time></trkpt><trkpt lat="44.52324870107152" lon="6.733978830620628"><ele>1638.5</ele><time>2026-04-18T11:00:46Z</time></trkpt><trkpt lat="44.523220404819405" lon="6.734174721067247"><ele>1639.25</ele><time>2026-04-18T11:00:47Z</time></trkpt><trkpt lat="44.523218565415554" lon="6.734355449525941"><ele>1640.0</ele><time>2026-04-18T11:00:48Z</time></trkpt><trkpt lat="44.52322032500533" lon="6.734524688148969"><ele>1640.0</ele><time>2026-04-18T11:00:49Z</time></trkpt><trkpt lat="44.523234277622606" lon="6.73468869709753"><ele>1640.0</ele><time>2026-04-18T11:00:50Z</time></trkpt><trkpt lat="44.52325213725729" lon="6.734847369322889"><ele>1640.0</ele><time>2026-04-18T11:00:51Z</time></trkpt><trkpt lat="44.52331210333128" lon="6.7349763928600215"><ele>1640.0</ele><time>2026-04-18T11:00:52Z</time></trkpt><trkpt lat="44.52332498795776" lon="6.735107052958282"><ele>1640.0</ele><time>2026-04-18T11:00:53Z</time></trkpt><trkpt lat="44.523341462424106" lon="6.735221609366313"><ele>1639.8</ele><time>2026-04-18T11:00:54Z</time></trkpt><trkpt lat="44.5233513948015" lon="6.735340512712895"><ele>1639.6</ele><time>2026-04-18T11:00:55Z</time></trkpt><trkpt lat="44.523334763213605" lon="6.735471789509121"><ele>1639.4</ele><time>2026-04-18T11:00:56Z</time></trkpt><trkpt lat="44.52330434504775" lon="6.735648141906918"><ele>1639.2</ele><time>2026-04-18T11:00:57Z</time></trkpt><trkpt lat="44.523267071811574" lon="6.735836983792981"><ele>1639.0</ele><time>2026-04-18T11:00:58Z</time></trkpt><trkpt lat="44.523197924260174" lon="6.7360586770513855"><ele>1639.6666666666667</ele><time>2026-04-18T11:00:59Z</time></trkpt><trkpt lat="44.52313415897841" lon="6.736327521895501"><ele>1640.3333333333335</ele><time>2026-04-18T11:01:00Z</time></trkpt><trkpt lat="44.523080978631235" lon="6.736551738964683"><ele>1641.0</ele><time>2026-04-18T11:01:01Z</time></trkpt><trkpt lat="44.523019163029865" lon="6.736769432140224"><ele>1641.25</ele><time>2026-04-18T11:01:02Z</time></trkpt><trkpt lat="44.52296548416311" lon="6.736953301977552"><ele>1641.5</ele><time>2026-04-18T11:01:03Z</time></trkpt><trkpt lat="44.522911936571056" lon="6.737150194754442"><ele>1641.75</ele><time>2026-04-18T11:01:04Z</time></trkpt><trkpt lat="44.52288534011408" lon="6.737329990111815"><ele>1642.0</ele><time>2026-04-18T11:01:05Z</time></trkpt><trkpt lat="44.52289359421289" lon="6.737489749134747"><ele>1642.0</ele><time>2026-04-18T11:01:06Z</time></trkpt><trkpt lat="44.522931080032315" lon="6.737663677621122"><ele>1642.0</ele><time>2026-04-18T11:01:07Z</time></trkpt><trkpt lat="44.5229679267794" lon="6.737840222058791"><ele>1642.0</ele><time>2026-04-18T11:01:08Z</time></trkpt><trkpt lat="44.5230097395501" lon="6.738020723508643"><ele>1642.0</ele><time>2026-04-18T11:01:09Z</time></trkpt><trkpt lat="44.52306440732959" lon="6.7381765919290135"><ele>1640.0</ele><time>2026-04-18T11:01:10Z</time></trkpt><trkpt lat="44.523109404198976" lon="6.7383376578697"><ele>1638.0</ele><time>2026-04-18T11:01:11Z</time></trkpt><trkpt lat="44.523121938386815" lon="6.73851690719432"><ele>1636.0</ele><time>2026-04-18T11:01:12Z</time></trkpt><trkpt lat="44.52310664878775" lon="6.738691260904925"><ele>1634.0</ele><time>2026-04-18T11:01:13Z</time></trkpt><trkpt lat="44.52308055328926" lon="6.738862405311479"><ele>1634.0</ele><time>2026-04-18T11:01:14Z</time></trkpt><trkpt lat="44.522997547081886" lon="6.73903027345485"><ele>1634.0</ele><time>2026-04-18T11:01:15Z</time></trkpt><trkpt lat="44.52291474853458" lon="6.7391899941329045"><ele>1634.0</ele><time>2026-04-18T11:01:16Z</time></trkpt><trkpt lat="44.52283720322934" lon="6.739302032632666"><ele>1634.0</ele><time>2026-04-18T11:01:17Z</time></trkpt><trkpt lat="44.522719630831" lon="6.739358051888128"><ele>1628.5</ele><time>2026-04-18T11:01:18Z</time></trkpt><trkpt lat="44.5226165735505" lon="6.739384982470202"><ele>1623.0</ele><time>2026-04-18T11:01:19Z</time></trkpt><trkpt lat="44.522465360203995" lon="6.739411381311776"><ele>1617.5</ele><time>2026-04-18T11:01:20Z</time></trkpt><trkpt lat="44.5223132770194" lon="6.739435770737427"><ele>1612.0</ele><time>2026-04-18T11:01:21Z</time></trkpt><trkpt lat="44.522182713923385" lon="6.73947069809281"><ele>1612.0</ele><time>2026-04-18T11:01:22Z</time></trkpt><trkpt lat="44.522081496536366" lon="6.739513002367667"><ele>1612.0</ele><time>2026-04-18T11:01:23Z</time></trkpt><trkpt lat="44.52197855574157" lon="6.739604603653485"><ele>1612.0</ele><time>2026-04-18T11:01:24Z</time></trkpt><trkpt lat="44.5218717299277" lon="6.739682116139315"><ele>1612.0</ele><time>2026-04-18T11:01:25Z</time></trkpt><trkpt lat="44.52179771616888" lon="6.7398374549499716"><ele>1607.6666666666667</ele><time>2026-04-18T11:01:26Z</time></trkpt><trkpt lat="44.52173513359662" lon="6.740058034048193"><ele>1603.3333333333335</ele><time>2026-04-18T11:01:27Z</time></trkpt><trkpt lat="44.52165491713232" lon="6.740220027197976"><ele>1599.0</ele><time>2026-04-18T11:01:28Z</time></trkpt><trkpt lat="44.52156374353716" lon="6.740382759228029"><ele>1599.0</ele><time>2026-04-18T11:01:29Z</time></trkpt><trkpt lat="44.52146385666088" lon="6.7404941402751035"><ele>1599.0</ele><time>2026-04-18T11:01:30Z</time></trkpt><trkpt lat="44.521352461130896" lon="6.740579473729735"><ele>1599.0</ele><time>2026-04-18T11:01:31Z</time></trkpt><trkpt lat="44.52123823436213" lon="6.740611132192213"><ele>1599.0</ele><time>2026-04-18T11:01:32Z</time></trkpt><trkpt lat="44.52109739708929" lon="6.740594663713108"><ele>1598.25</ele><time>2026-04-18T11:01:33Z</time></trkpt><trkpt lat="44.52096202897154" lon="6.740567768795083"><ele>1597.5</ele><time>2026-04-18T11:01:34Z</time></trkpt><trkpt lat="44.52084093053031" lon="6.740532171316608"><ele>1596.75</ele><time>2026-04-18T11:01:35Z</time></trkpt><trkpt lat="44.520705108438044" lon="6.740500745254996"><ele>1596.0</ele><time>2026-04-18T11:01:36Z</time></trkpt><trkpt lat="44.52056358242142" lon="6.740473911038503"><ele>1596.0</ele><time>2026-04-18T11:01:37Z</time></trkpt><trkpt lat="44.52044690782622" lon="6.740502036865867"><ele>1596.0</ele><time>2026-04-18T11:01:38Z</time></trkpt><trkpt lat="44.520365073057654" lon="6.740490415279539"><ele>1596.0</ele><time>2026-04-18T11:01:39Z</time></trkpt><trkpt lat="44.52025399093922" lon="6.740580841825742"><ele>1596.0</ele><time>2026-04-18T11:01:40Z</time></trkpt><trkpt lat="44.52017720263264" lon="6.740719569354123"><ele>1592.5</ele><time>2026-04-18T11:01:41Z</time></trkpt><trkpt lat="44.520102030471506" lon="6.740853026041228"><ele>1589.0</ele><time>2026-04-18T11:01:42Z</time></trkpt><trkpt lat="44.52005473850984" lon="6.740996274578698"><ele>1585.5</ele><time>2026-04-18T11:01:43Z</time></trkpt><trkpt lat="44.520021466676106" lon="6.741142190410268"><ele>1582.0</ele><time>2026-04-18T11:01:44Z</time></trkpt><trkpt lat="44.5200640242469" lon="6.741320147146918"><ele>1581.25</ele><time>2026-04-18T11:01:45Z</time></trkpt><trkpt lat="44.520091231703354" lon="6.741482192970062"><ele>1580.5</ele><time>2026-04-18T11:01:46Z</time></trkpt><trkpt lat="44.52011712155491" lon="6.741657189142193"><ele>1579.75</ele><time>2026-04-18T11:01:47Z</time></trkpt><trkpt lat="44.520167807844025" lon="6.741857998062793"><ele>1579.0</ele><time>2026-04-18T11:01:48Z</time></trkpt><trkpt lat="44.5202270926061" lon="6.742067623674671"><ele>1577.0</ele><time>2026-04-18T11:01:49Z</time></trkpt><trkpt lat="44.52026994442582" lon="6.742280120221278"><ele>1575.0</ele><time>2026-04-18T11:01:50Z</time></trkpt><trkpt lat="44.52030022897418" lon="6.742486617782549"><ele>1573.0</ele><time>2026-04-18T11:01:51Z</time></trkpt><trkpt lat="44.520336219152675" lon="6.742692452768497"><ele>1573.25</ele><time>2026-04-18T11:01:52Z</time></trkpt><trkpt lat="44.520351741059244" lon="6.742879421022021"><ele>1573.5</ele><time>2026-04-18T11:01:53Z</time></trkpt><trkpt lat="44.52034682773135" lon="6.7430641044454855"><ele>1573.75</ele><time>2026-04-18T11:01:54Z</time></trkpt><trkpt lat="44.52032052047079" lon="6.743243970166088"><ele>1574.0</ele><time>2026-04-18T11:01:55Z</time></trkpt><trkpt lat="44.520265306648525" lon="6.743419654273458"><ele>1576.6666666666665</ele><time>2026-04-18T11:01:56Z</time></trkpt><trkpt lat="44.520207118745866" lon="6.743617935591602"><ele>1579.3333333333335</ele><time>2026-04-18T11:01:57Z</time></trkpt><trkpt lat="44.52010046942229" lon="6.743768875603909"><ele>1582.0</ele><time>2026-04-18T11:01:57.999Z</time></trkpt><trkpt lat="44.51998692847195" lon="6.743906896913906"><ele>1582.0</ele><time>2026-04-18T11:01:58.999Z</time></trkpt><trkpt lat="44.519868819079974" lon="6.744057421461277"><ele>1582.0</ele><time>2026-04-18T11:01:59.999Z</time></trkpt><trkpt lat="44.519738510926786" lon="6.7442035839824355"><ele>1582.0</ele><time>2026-04-18T11:02:00.999Z</time></trkpt><trkpt lat="44.519605025007664" lon="6.744328361523432"><ele>1578.0</ele><time>2026-04-18T11:02:01.999Z</time></trkpt><trkpt lat="44.51945418419943" lon="6.7444536988050094"><ele>1574.0</ele><time>2026-04-18T11:02:02.999Z</time></trkpt><trkpt lat="44.51930907762185" lon="6.7445831336223465"><ele>1570.0</ele><time>2026-04-18T11:02:03.999Z</time></trkpt><trkpt lat="44.51915307361417" lon="6.744722288753278"><ele>1570.0</ele><time>2026-04-18T11:02:04.999Z</time></trkpt><trkpt lat="44.51900949312788" lon="6.744850362111577"><ele>1570.0</ele><time>2026-04-18T11:02:05.999Z</time></trkpt><trkpt lat="44.51885190536002" lon="6.744986603182745"><ele>1570.0</ele><time>2026-04-18T11:02:06.999Z</time></trkpt><trkpt lat="44.51870244032438" lon="6.745117060150947"><ele>1565.6666666666667</ele><time>2026-04-18T11:02:07.999Z</time></trkpt><trkpt lat="44.518560164503185" lon="6.745248826203683"><ele>1561.3333333333335</ele><time>2026-04-18T11:02:08.999Z</time></trkpt><trkpt lat="44.518434925462536" lon="6.7453695587201326"><ele>1557.0</ele><time>2026-04-18T11:02:09.999Z</time></trkpt><trkpt lat="44.51831713772103" lon="6.745489698573862"><ele>1557.0</ele><time>2026-04-18T11:02:10.999Z</time></trkpt><trkpt lat="44.51818689644161" lon="6.74564521071173"><ele>1557.0</ele><time>2026-04-18T11:02:11.999Z</time></trkpt><trkpt lat="44.51809116701565" lon="6.745818840383065"><ele>1557.0</ele><time>2026-04-18T11:02:12.999Z</time></trkpt><trkpt lat="44.51797189551503" lon="6.7459947168406025"><ele>1550.6666666666665</ele><time>2026-04-18T11:02:13.999Z</time></trkpt><trkpt lat="44.5178738573522" lon="6.7462060133889"><ele>1544.3333333333333</ele><time>2026-04-18T11:02:14.999Z</time></trkpt><trkpt lat="44.51775359391878" lon="6.746409215854779"><ele>1538.0</ele><time>2026-04-18T11:02:15.999Z</time></trkpt><trkpt lat="44.51763066759086" lon="6.746661527387128"><ele>1538.3333333333333</ele><time>2026-04-18T11:02:16.999Z</time></trkpt><trkpt lat="44.51752372291494" lon="6.746881566460879"><ele>1538.6666666666665</ele><time>2026-04-18T11:02:17.999Z</time></trkpt><trkpt lat="44.51741132527521" lon="6.747076573981734"><ele>1539.0</ele><time>2026-04-18T11:02:18.999Z</time></trkpt><trkpt lat="44.517325266039016" lon="6.747287746896406"><ele>1539.0</ele><time>2026-04-18T11:02:19.999Z</time></trkpt><trkpt lat="44.51725544348148" lon="6.747488486012728"><ele>1539.0</ele><time>2026-04-18T11:02:20.999Z</time></trkpt><trkpt lat="44.51718919617951" lon="6.747672980521758"><ele>1539.0</ele><time>2026-04-18T11:02:21.999Z</time></trkpt><trkpt lat="44.517137170058554" lon="6.7478903010932365"><ele>1538.6666666666665</ele><time>2026-04-18T11:02:22.999Z</time></trkpt><trkpt lat="44.517103402169646" lon="6.748104201048593"><ele>1538.3333333333333</ele><time>2026-04-18T11:02:23.999Z</time></trkpt><trkpt lat="44.51708711456463" lon="6.7483292575918075"><ele>1538.0</ele><time>2026-04-18T11:02:24.999Z</time></trkpt><trkpt lat="44.51707290306607" lon="6.748555786433286"><ele>1536.0</ele><time>2026-04-18T11:02:25.999Z</time></trkpt><trkpt lat="44.51708445105478" lon="6.748787157153203"><ele>1534.0</ele><time>2026-04-18T11:02:26.999Z</time></trkpt><trkpt lat="44.517087854440845" lon="6.7490125189824814"><ele>1532.0</ele><time>2026-04-18T11:02:27.999Z</time></trkpt><trkpt lat="44.51711773427591" lon="6.749234753778138"><ele>1529.0</ele><time>2026-04-18T11:02:28.999Z</time></trkpt><trkpt lat="44.51716756181486" lon="6.7494573809479945"><ele>1526.0</ele><time>2026-04-18T11:02:29.999Z</time></trkpt><trkpt lat="44.51722624745011" lon="6.749673087719531"><ele>1523.0</ele><time>2026-04-18T11:02:30.999Z</time></trkpt><trkpt lat="44.51728649345461" lon="6.749904948797566"><ele>1523.0</ele><time>2026-04-18T11:02:31.999Z</time></trkpt><trkpt lat="44.5173848467017" lon="6.750147027164953"><ele>1523.0</ele><time>2026-04-18T11:02:32.999Z</time></trkpt><trkpt lat="44.51748099857084" lon="6.750386441468354"><ele>1523.0</ele><time>2026-04-18T11:02:33.999Z</time></trkpt><trkpt lat="44.517579185901184" lon="6.7506101384757775"><ele>1518.6666666666667</ele><time>2026-04-18T11:02:34.999Z</time></trkpt><trkpt lat="44.517662813408606" lon="6.7508122848633665"><ele>1514.3333333333333</ele><time>2026-04-18T11:02:35.999Z</time></trkpt><trkpt lat="44.51774641773767" lon="6.7510143668464515"><ele>1510.0</ele><time>2026-04-18T11:02:36.999Z</time></trkpt><trkpt lat="44.51782824692937" lon="6.751198965210956"><ele>1511.5</ele><time>2026-04-18T11:02:37.999Z</time></trkpt><trkpt lat="44.51790268142885" lon="6.75136825597133"><ele>1513.0</ele><time>2026-04-18T11:02:38.999Z</time></trkpt><trkpt lat="44.51796785908305" lon="6.751535474003501"><ele>1514.5</ele><time>2026-04-18T11:02:39.999Z</time></trkpt><trkpt lat="44.518005761841344" lon="6.7517203391618485"><ele>1516.0</ele><time>2026-04-18T11:02:40.999Z</time></trkpt><trkpt lat="44.51802302548202" lon="6.751891858423135"><ele>1516.0</ele><time>2026-04-18T11:02:41.999Z</time></trkpt><trkpt lat="44.51802752247288" lon="6.752052696455353"><ele>1516.0</ele><time>2026-04-18T11:02:42.999Z</time></trkpt><trkpt lat="44.51802459852462" lon="6.752180428245004"><ele>1516.0</ele><time>2026-04-18T11:02:43.999Z</time></trkpt><trkpt lat="44.51801451533712" lon="6.752333154539044"><ele>1516.0</ele><time>2026-04-18T11:02:44.999Z</time></trkpt><trkpt lat="44.517998002351895" lon="6.752454574212793"><ele>1516.0</ele><time>2026-04-18T11:02:45.999Z</time></trkpt><trkpt lat="44.51797786334495" lon="6.752573999474155"><ele>1514.6</ele><time>2026-04-18T11:02:46.999Z</time></trkpt><trkpt lat="44.51790230332178" lon="6.752719532063067"><ele>1513.1999999999998</ele><time>2026-04-18T11:02:49Z</time></trkpt><trkpt lat="44.51783539302589" lon="6.752784027920176"><ele>1511.8000000000002</ele><time>2026-04-18T11:02:50Z</time></trkpt><trkpt lat="44.517749281810175" lon="6.752725237685382"><ele>1510.4</ele><time>2026-04-18T11:02:51Z</time></trkpt><trkpt lat="44.51766651410852" lon="6.752642101881376"><ele>1509.0</ele><time>2026-04-18T11:02:52Z</time></trkpt><trkpt lat="44.51761633973578" lon="6.752521856488004"><ele>1507.0</ele><time>2026-04-18T11:02:53Z</time></trkpt><trkpt lat="44.517617237288256" lon="6.752369209844451"><ele>1505.0</ele><time>2026-04-18T11:02:54Z</time></trkpt><trkpt lat="44.51762965723815" lon="6.7522360003236574"><ele>1503.0</ele><time>2026-04-18T11:02:55Z</time></trkpt><trkpt lat="44.51762977178471" lon="6.75209845749051"><ele>1501.0</ele><time>2026-04-18T11:02:56Z</time></trkpt><trkpt lat="44.51761884045385" lon="6.75194892047261"><ele>1499.0</ele><time>2026-04-18T11:02:57Z</time></trkpt><trkpt lat="44.517578413627085" lon="6.751770593944231"><ele>1499.0</ele><time>2026-04-18T11:02:58Z</time></trkpt><trkpt lat="44.51754582868026" lon="6.751604122512085"><ele>1499.0</ele><time>2026-04-18T11:02:59Z</time></trkpt><trkpt lat="44.51746311046452" lon="6.751424766025061"><ele>1499.0</ele><time>2026-04-18T11:03:00Z</time></trkpt><trkpt lat="44.51737312699883" lon="6.751265726476844"><ele>1499.0</ele><time>2026-04-18T11:03:01Z</time></trkpt><trkpt lat="44.5172825513869" lon="6.751145964388798"><ele>1499.0</ele><time>2026-04-18T11:03:02Z</time></trkpt><trkpt lat="44.51716893906919" lon="6.751057903627624"><ele>1499.0</ele><time>2026-04-18T11:03:03Z</time></trkpt><trkpt lat="44.51702494016693" lon="6.750992419452993"><ele>1499.0</ele><time>2026-04-18T11:03:04Z</time></trkpt><trkpt lat="44.51685923327248" lon="6.7509663031955975"><ele>1499.0</ele><time>2026-04-18T11:03:05Z</time></trkpt><trkpt lat="44.51671057138987" lon="6.750941495880297"><ele>1496.0</ele><time>2026-04-18T11:03:06Z</time></trkpt><trkpt lat="44.51654988686654" lon="6.750900899159909"><ele>1493.0</ele><time>2026-04-18T11:03:07Z</time></trkpt><trkpt lat="44.516395348014726" lon="6.750875188669481"><ele>1490.0</ele><time>2026-04-18T11:03:08Z</time></trkpt><trkpt lat="44.51624162260014" lon="6.750840309645131"><ele>1488.0</ele><time>2026-04-18T11:03:09Z</time></trkpt><trkpt lat="44.5160891587867" lon="6.750795532859992"><ele>1486.0</ele><time>2026-04-18T11:03:10Z</time></trkpt><trkpt lat="44.51595131273852" lon="6.750752725738861"><ele>1484.0</ele><time>2026-04-18T11:03:11Z</time></trkpt><trkpt lat="44.515822226070235" lon="6.750688552402231"><ele>1482.0</ele><time>2026-04-18T11:03:12Z</time></trkpt><trkpt lat="44.51569065665776" lon="6.750603887342179"><ele>1482.0</ele><time>2026-04-18T11:03:13Z</time></trkpt><trkpt lat="44.5155601082457" lon="6.750501006854377"><ele>1482.0</ele><time>2026-04-18T11:03:14Z</time></trkpt><trkpt lat="44.51543759355933" lon="6.750391865398203"><ele>1482.0</ele><time>2026-04-18T11:03:15Z</time></trkpt><trkpt lat="44.51533590991277" lon="6.7502700487010445"><ele>1482.0</ele><time>2026-04-18T11:03:16Z</time></trkpt><trkpt lat="44.515242749137066" lon="6.7501412630889055"><ele>1480.3333333333333</ele><time>2026-04-18T11:03:17Z</time></trkpt><trkpt lat="44.51514952294661" lon="6.749994113768961"><ele>1478.6666666666665</ele><time>2026-04-18T11:03:18Z</time></trkpt><trkpt lat="44.51507643155309" lon="6.749798799818959"><ele>1477.0</ele><time>2026-04-18T11:03:19Z</time></trkpt><trkpt lat="44.51499225176656" lon="6.749614185575452"><ele>1477.0</ele><time>2026-04-18T11:03:20Z</time></trkpt><trkpt lat="44.514904468765934" lon="6.7494180745582515"><ele>1477.0</ele><time>2026-04-18T11:03:21Z</time></trkpt><trkpt lat="44.51480578885874" lon="6.749240479310591"><ele>1477.0</ele><time>2026-04-18T11:03:22Z</time></trkpt><trkpt lat="44.5147353866676" lon="6.749060995778547"><ele>1477.0</ele><time>2026-04-18T11:03:23Z</time></trkpt><trkpt lat="44.514658701532916" lon="6.748880265148417"><ele>1477.0</ele><time>2026-04-18T11:03:24Z</time></trkpt><trkpt lat="44.51460470857117" lon="6.748703324564417"><ele>1477.0</ele><time>2026-04-18T11:03:25Z</time></trkpt><trkpt lat="44.5145913457023" lon="6.748538648877797"><ele>1477.0</ele><time>2026-04-18T11:03:26Z</time></trkpt><trkpt lat="44.51459859826872" lon="6.7483360055008905"><ele>1477.0</ele><time>2026-04-18T11:03:27Z</time></trkpt><trkpt lat="44.51460729718964" lon="6.748127454681611"><ele>1477.0</ele><time>2026-04-18T11:03:28Z</time></trkpt><trkpt lat="44.51462753140248" lon="6.747914122909933"><ele>1477.0</ele><time>2026-04-18T11:03:29Z</time></trkpt><trkpt lat="44.51465270354928" lon="6.747690344280977"><ele>1476.6666666666665</ele><time>2026-04-18T11:03:30Z</time></trkpt><trkpt lat="44.51467861547106" lon="6.747451722519234"><ele>1476.3333333333333</ele><time>2026-04-18T11:03:31Z</time></trkpt><trkpt lat="44.51470665334861" lon="6.747208926989344"><ele>1476.0</ele><time>2026-04-18T11:03:32Z</time></trkpt><trkpt lat="44.51473049180375" lon="6.746979057584945"><ele>1473.75</ele><time>2026-04-18T11:03:33Z</time></trkpt><trkpt lat="44.51475888794585" lon="6.746788802247113"><ele>1471.5</ele><time>2026-04-18T11:03:34Z</time></trkpt><trkpt lat="44.5147863485719" lon="6.746683969486112"><ele>1469.25</ele><time>2026-04-18T11:03:35Z</time></trkpt><trkpt lat="44.51487026431225" lon="6.746508839491226"><ele>1467.0</ele><time>2026-04-18T11:03:36Z</time></trkpt><trkpt lat="44.51495643019222" lon="6.746348130994804"><ele>1467.0</ele><time>2026-04-18T11:03:37Z</time></trkpt><trkpt lat="44.515050788266905" lon="6.746164607364978"><ele>1467.0</ele><time>2026-04-18T11:03:38Z</time></trkpt><trkpt lat="44.51517007597646" lon="6.745991157798286"><ele>1467.0</ele><time>2026-04-18T11:03:39Z</time></trkpt><trkpt lat="44.515262369398144" lon="6.745817470488057"><ele>1463.6666666666667</ele><time>2026-04-18T11:03:40Z</time></trkpt><trkpt lat="44.51533910631412" lon="6.745628100021223"><ele>1460.3333333333335</ele><time>2026-04-18T11:03:41Z</time></trkpt><trkpt lat="44.51538766857416" lon="6.745426600634825"><ele>1457.0</ele><time>2026-04-18T11:03:42Z</time></trkpt><trkpt lat="44.51544449841171" lon="6.745200967209929"><ele>1462.75</ele><time>2026-04-18T11:03:43Z</time></trkpt><trkpt lat="44.51550362556352" lon="6.745004266303522"><ele>1468.5</ele><time>2026-04-18T11:03:44Z</time></trkpt><trkpt lat="44.51554993508606" lon="6.744822992632339"><ele>1474.25</ele><time>2026-04-18T11:03:45Z</time></trkpt><trkpt lat="44.5156059511492" lon="6.744679762564777"><ele>1480.0</ele><time>2026-04-18T11:03:46Z</time></trkpt><trkpt lat="44.51567090744197" lon="6.744569350856507"><ele>1480.0</ele><time>2026-04-18T11:03:47Z</time></trkpt><trkpt lat="44.515697572905076" lon="6.744421261524007"><ele>1480.0</ele><time>2026-04-18T11:03:48Z</time></trkpt><trkpt lat="44.51562632777794" lon="6.744204851371315"><ele>1480.0</ele><time>2026-04-18T11:03:50Z</time></trkpt><trkpt lat="44.51554212004634" lon="6.7440942868360825"><ele>1480.0</ele><time>2026-04-18T11:03:51Z</time></trkpt><trkpt lat="44.51545655282992" lon="6.743988275522033"><ele>1476.5</ele><time>2026-04-18T11:03:52Z</time></trkpt><trkpt lat="44.515355266762406" lon="6.743917592916836"><ele>1473.0</ele><time>2026-04-18T11:03:53Z</time></trkpt><trkpt lat="44.515265058372314" lon="6.743936695291527"><ele>1469.5</ele><time>2026-04-18T11:03:54Z</time></trkpt><trkpt lat="44.51513398969281" lon="6.743948421196556"><ele>1466.0</ele><time>2026-04-18T11:03:55Z</time></trkpt><trkpt lat="44.515016511484355" lon="6.74395564688643"><ele>1466.0</ele><time>2026-04-18T11:03:56Z</time></trkpt><trkpt lat="44.51479542910876" lon="6.743976230951002"><ele>1466.0</ele><time>2026-04-18T11:03:57Z</time></trkpt><trkpt lat="44.51461574834067" lon="6.743993510666628"><ele>1466.0</ele><time>2026-04-18T11:03:58Z</time></trkpt><trkpt lat="44.514437342323696" lon="6.744008001013292"><ele>1465.3333333333335</ele><time>2026-04-18T11:03:59Z</time></trkpt><trkpt lat="44.51425364319032" lon="6.74400055225915"><ele>1464.6666666666667</ele><time>2026-04-18T11:04:00Z</time></trkpt><trkpt lat="44.514077001877574" lon="6.744021197586493"><ele>1464.0</ele><time>2026-04-18T11:04:01Z</time></trkpt><trkpt lat="44.513901723945125" lon="6.7440304642255215"><ele>1463.0</ele><time>2026-04-18T11:04:02Z</time></trkpt><trkpt lat="44.5137095113382" lon="6.744047413095728"><ele>1462.0</ele><time>2026-04-18T11:04:03Z</time></trkpt><trkpt lat="44.513525615069106" lon="6.744071124411048"><ele>1461.0</ele><time>2026-04-18T11:04:04Z</time></trkpt><trkpt lat="44.51335485668319" lon="6.74409137378958"><ele>1461.0</ele><time>2026-04-18T11:04:05Z</time></trkpt><trkpt lat="44.5131671314395" lon="6.744117573342328"><ele>1461.0</ele><time>2026-04-18T11:04:06Z</time></trkpt><trkpt lat="44.51297978852644" lon="6.744140922167764"><ele>1461.0</ele><time>2026-04-18T11:04:07Z</time></trkpt><trkpt lat="44.51279725451622" lon="6.744168523235436"><ele>1462.6666666666667</ele><time>2026-04-18T11:04:08Z</time></trkpt><trkpt lat="44.51262060180378" lon="6.744193709690899"><ele>1464.3333333333335</ele><time>2026-04-18T11:04:09Z</time></trkpt><trkpt lat="44.51245008368323" lon="6.744209398073654"><ele>1466.0</ele><time>2026-04-18T11:04:10Z</time></trkpt><trkpt lat="44.5122917522251" lon="6.744225884888102"><ele>1466.0</ele><time>2026-04-18T11:04:10.999Z</time></trkpt><trkpt lat="44.51213358441191" lon="6.744242838520266"><ele>1466.0</ele><time>2026-04-18T11:04:11.999Z</time></trkpt><trkpt lat="44.512000009704835" lon="6.744226608877505"><ele>1466.0</ele><time>2026-04-18T11:04:12.999Z</time></trkpt><trkpt lat="44.511858112748364" lon="6.744218934690109"><ele>1466.0</ele><time>2026-04-18T11:04:13.999Z</time></trkpt><trkpt lat="44.51171144024073" lon="6.74420144455164"><ele>1464.5</ele><time>2026-04-18T11:04:14.999Z</time></trkpt><trkpt lat="44.51157015759475" lon="6.744193777426602"><ele>1463.0</ele><time>2026-04-18T11:04:15.999Z</time></trkpt><trkpt lat="44.511436436052925" lon="6.744181614588638"><ele>1461.5</ele><time>2026-04-18T11:04:16.999Z</time></trkpt><trkpt lat="44.511310050802514" lon="6.744219186653078"><ele>1460.0</ele><time>2026-04-18T11:04:17.999Z</time></trkpt><trkpt lat="44.51117695691217" lon="6.74427207618834"><ele>1458.3333333333335</ele><time>2026-04-18T11:04:18.999Z</time></trkpt><trkpt lat="44.511042614760235" lon="6.744366174677238"><ele>1456.6666666666667</ele><time>2026-04-18T11:04:19.999Z</time></trkpt><trkpt lat="44.51092540962582" lon="6.744463133367316"><ele>1455.0</ele><time>2026-04-18T11:04:20.999Z</time></trkpt><trkpt lat="44.5108146204634" lon="6.74465346210385"><ele>1450.25</ele><time>2026-04-18T11:04:21.999Z</time></trkpt><trkpt lat="44.510729171645366" lon="6.744799379337349"><ele>1445.5</ele><time>2026-04-18T11:04:22.999Z</time></trkpt><trkpt lat="44.510620056106546" lon="6.744935079431833"><ele>1440.75</ele><time>2026-04-18T11:04:23.999Z</time></trkpt><trkpt lat="44.5105266123487" lon="6.745079816455175"><ele>1436.0</ele><time>2026-04-18T11:04:24.999Z</time></trkpt><trkpt lat="44.51045229562118" lon="6.74521386781617"><ele>1436.0</ele><time>2026-04-18T11:04:25.999Z</time></trkpt><trkpt lat="44.51037110799035" lon="6.745417427997459"><ele>1436.0</ele><time>2026-04-18T11:04:26.999Z</time></trkpt><trkpt lat="44.51030937415553" lon="6.745606996020504"><ele>1436.0</ele><time>2026-04-18T11:04:27.999Z</time></trkpt><trkpt lat="44.51027130446635" lon="6.7457805850638275"><ele>1436.0</ele><time>2026-04-18T11:04:28.999Z</time></trkpt><trkpt lat="44.51025209461156" lon="6.745964863339635"><ele>1432.5</ele><time>2026-04-18T11:04:29.999Z</time></trkpt><trkpt lat="44.51023874854503" lon="6.746146858631051"><ele>1429.0</ele><time>2026-04-18T11:04:30.999Z</time></trkpt><trkpt lat="44.510216656396" lon="6.7463140041852006"><ele>1425.5</ele><time>2026-04-18T11:04:31.999Z</time></trkpt><trkpt lat="44.510178310238345" lon="6.746466802345153"><ele>1422.0</ele><time>2026-04-18T11:04:32.999Z</time></trkpt><trkpt lat="44.51007797479839" lon="6.74657961318769"><ele>1422.0</ele><time>2026-04-18T11:04:33.999Z</time></trkpt><trkpt lat="44.50998026971182" lon="6.746646784280127"><ele>1422.0</ele><time>2026-04-18T11:04:34.999Z</time></trkpt><trkpt lat="44.509885448375414" lon="6.746684000996671"><ele>1422.0</ele><time>2026-04-18T11:04:35.999Z</time></trkpt><trkpt lat="44.50976502187832" lon="6.746676935939755"><ele>1422.0</ele><time>2026-04-18T11:04:36.999Z</time></trkpt><trkpt lat="44.50968015960701" lon="6.746634925287992"><ele>1422.0</ele><time>2026-04-18T11:04:37.999Z</time></trkpt><trkpt lat="44.50954997208545" lon="6.746586754105356"><ele>1420.3333333333333</ele><time>2026-04-18T11:04:38.999Z</time></trkpt><trkpt lat="44.50939949019952" lon="6.74653154029179"><ele>1418.6666666666665</ele><time>2026-04-18T11:04:39.999Z</time></trkpt><trkpt lat="44.509245470838565" lon="6.746475747383633"><ele>1417.0</ele><time>2026-04-18T11:04:40.999Z</time></trkpt><trkpt lat="44.509080839408206" lon="6.746416324762308"><ele>1417.0</ele><time>2026-04-18T11:04:41.999Z</time></trkpt><trkpt lat="44.5089173782836" lon="6.746358240535147"><ele>1417.0</ele><time>2026-04-18T11:04:42.999Z</time></trkpt><trkpt lat="44.50876019348731" lon="6.746325654753363"><ele>1417.0</ele><time>2026-04-18T11:04:43.999Z</time></trkpt><trkpt lat="44.5086187428949" lon="6.746228920485398"><ele>1421.6666666666665</ele><time>2026-04-18T11:04:44.999Z</time></trkpt><trkpt lat="44.50847084404727" lon="6.7461510984937485"><ele>1426.3333333333333</ele><time>2026-04-18T11:04:46.017Z</time></trkpt><trkpt lat="44.50832028901347" lon="6.746077242584955"><ele>1431.0</ele><time>2026-04-18T11:04:47.014Z</time></trkpt><trkpt lat="44.50817030575626" lon="6.746010472794359"><ele>1431.0</ele><time>2026-04-18T11:04:48.017Z</time></trkpt><trkpt lat="44.508022430625594" lon="6.745940040774996"><ele>1431.0</ele><time>2026-04-18T11:04:49.012Z</time></trkpt><trkpt lat="44.50625695292326" lon="6.745253093546951"><ele>1428.3333333333333</ele><time>2026-04-18T11:04:57.999Z</time></trkpt><trkpt lat="44.50607855348656" lon="6.745174117752912"><ele>1425.6666666666665</ele><time>2026-04-18T11:04:58.999Z</time></trkpt><trkpt lat="44.50590916560493" lon="6.745212181004218"><ele>1423.0</ele><time>2026-04-18T11:04:59.999Z</time></trkpt><trkpt lat="44.50571812291721" lon="6.745196018091539"><ele>1423.0</ele><time>2026-04-18T11:05:00.999Z</time></trkpt><trkpt lat="44.50552472948521" lon="6.745109988984279"><ele>1423.0</ele><time>2026-04-18T11:05:01.999Z</time></trkpt><trkpt lat="44.50535742245894" lon="6.745073523711263"><ele>1423.0</ele><time>2026-04-18T11:05:02.999Z</time></trkpt><trkpt lat="44.50518576198402" lon="6.74499089391956"><ele>1418.8000000000002</ele><time>2026-04-18T11:05:05Z</time></trkpt><trkpt lat="44.50507649677247" lon="6.744980855450238"><ele>1414.6</ele><time>2026-04-18T11:05:06Z</time></trkpt><trkpt lat="44.50499866886041" lon="6.744919242067215"><ele>1410.4</ele><time>2026-04-18T11:05:07Z</time></trkpt><trkpt lat="44.504909645760804" lon="6.7448263231124015"><ele>1406.1999999999998</ele><time>2026-04-18T11:05:08Z</time></trkpt><trkpt lat="44.50483060329645" lon="6.744722690418964"><ele>1402.0</ele><time>2026-04-18T11:05:09Z</time></trkpt><trkpt lat="44.50476572224352" lon="6.744612814414493"><ele>1402.0</ele><time>2026-04-18T11:05:10.02Z</time></trkpt><trkpt lat="44.504714361628096" lon="6.744503658015265"><ele>1402.0</ele><time>2026-04-18T11:05:11.012Z</time></trkpt><trkpt lat="44.50462922834439" lon="6.744361306269562"><ele>1402.0</ele><time>2026-04-18T11:05:13.013Z</time></trkpt><trkpt lat="44.503569505218884" lon="6.743278484797798"><ele>1404.75</ele><time>2026-04-18T11:05:26Z</time></trkpt><trkpt lat="44.50347600645571" lon="6.74318282643015"><ele>1407.5</ele><time>2026-04-18T11:05:27Z</time></trkpt><trkpt lat="44.50335786561739" lon="6.7430594433928635"><ele>1410.25</ele><time>2026-04-18T11:05:28Z</time></trkpt><trkpt lat="44.50323510855932" lon="6.743015289258416"><ele>1413.0</ele><time>2026-04-18T11:05:29Z</time></trkpt><trkpt lat="44.50311748568255" lon="6.74294261952277"><ele>1413.0</ele><time>2026-04-18T11:05:30Z</time></trkpt><trkpt lat="44.503019550284854" lon="6.742787320967412"><ele>1413.0</ele><time>2026-04-18T11:05:32Z</time></trkpt><trkpt lat="44.502966216732986" lon="6.742602031347162"><ele>1413.0</ele><time>2026-04-18T11:05:33Z</time></trkpt><trkpt lat="44.50295426806854" lon="6.742444344491163"><ele>1413.0</ele><time>2026-04-18T11:05:34Z</time></trkpt><trkpt lat="44.502929212368755" lon="6.742261785668153"><ele>1410.0</ele><time>2026-04-18T11:05:35Z</time></trkpt><trkpt lat="44.502902974017395" lon="6.742065519099743"><ele>1407.0</ele><time>2026-04-18T11:05:36Z</time></trkpt><trkpt lat="44.50287470558327" lon="6.741861351825612"><ele>1404.0</ele><time>2026-04-18T11:05:37Z</time></trkpt><trkpt lat="44.50284734957045" lon="6.74167700158863"><ele>1401.0</ele><time>2026-04-18T11:05:38Z</time></trkpt><trkpt lat="44.50279590593329" lon="6.7414936268472765"><ele>1398.5</ele><time>2026-04-18T11:05:39Z</time></trkpt><trkpt lat="44.50275326645692" lon="6.741280025890743"><ele>1396.0</ele><time>2026-04-18T11:05:40Z</time></trkpt><trkpt lat="44.50269364941757" lon="6.741159280430838"><ele>1393.5</ele><time>2026-04-18T11:05:41Z</time></trkpt><trkpt lat="44.502574892533154" lon="6.7409854952855595"><ele>1391.0</ele><time>2026-04-18T11:05:42Z</time></trkpt><trkpt lat="44.502451762175795" lon="6.740828741447637"><ele>1389.0</ele><time>2026-04-18T11:05:43Z</time></trkpt><trkpt lat="44.502288437485085" lon="6.740709188432804"><ele>1387.0</ele><time>2026-04-18T11:05:44Z</time></trkpt><trkpt lat="44.502139050786155" lon="6.740593970273451"><ele>1385.0</ele><time>2026-04-18T11:05:45Z</time></trkpt><trkpt lat="44.5019766396543" lon="6.740550309469429"><ele>1385.0</ele><time>2026-04-18T11:05:46Z</time></trkpt><trkpt lat="44.50183392000569" lon="6.740507814497329"><ele>1385.0</ele><time>2026-04-18T11:05:47Z</time></trkpt><trkpt lat="44.5016591839014" lon="6.740514526110729"><ele>1385.0</ele><time>2026-04-18T11:05:48Z</time></trkpt><trkpt lat="44.501495145056126" lon="6.740530834168126"><ele>1385.0</ele><time>2026-04-18T11:05:49Z</time></trkpt><trkpt lat="44.501307975049556" lon="6.740548774573574"><ele>1385.0</ele><time>2026-04-18T11:05:50Z</time></trkpt><trkpt lat="44.501139116263715" lon="6.740542397480728"><ele>1385.0</ele><time>2026-04-18T11:05:51Z</time></trkpt><trkpt lat="44.50096102093314" lon="6.740540610920007"><ele>1384.6666666666667</ele><time>2026-04-18T11:05:52Z</time></trkpt><trkpt lat="44.50078667365691" lon="6.740485089007582"><ele>1384.3333333333333</ele><time>2026-04-18T11:05:53Z</time></trkpt><trkpt lat="44.500619807131876" lon="6.740372639061695"><ele>1384.0</ele><time>2026-04-18T11:05:54Z</time></trkpt><trkpt lat="44.50045481456436" lon="6.74025880973201"><ele>1383.0</ele><time>2026-04-18T11:05:55Z</time></trkpt><trkpt lat="44.50028033259373" lon="6.740132837818853"><ele>1382.0</ele><time>2026-04-18T11:05:56Z</time></trkpt><trkpt lat="44.50008727225288" lon="6.739974491120559"><ele>1381.0</ele><time>2026-04-18T11:05:57Z</time></trkpt><trkpt lat="44.49992206887869" lon="6.739824169114838"><ele>1381.0</ele><time>2026-04-18T11:05:58Z</time></trkpt><trkpt lat="44.49975045119881" lon="6.739666912512969"><ele>1381.0</ele><time>2026-04-18T11:05:59Z</time></trkpt><trkpt lat="44.49959167653519" lon="6.739532492571619"><ele>1381.0</ele><time>2026-04-18T11:06:00Z</time></trkpt><trkpt lat="44.49941920808585" lon="6.739417966684298"><ele>1384.6666666666665</ele><time>2026-04-18T11:06:01Z</time></trkpt><trkpt lat="44.4992496695383" lon="6.739345808958423"><ele>1388.3333333333333</ele><time>2026-04-18T11:06:02Z</time></trkpt><trkpt lat="44.499064783417566" lon="6.739288143252908"><ele>1392.0</ele><time>2026-04-18T11:06:03Z</time></trkpt><trkpt lat="44.498866003266805" lon="6.739229760401159"><ele>1391.0</ele><time>2026-04-18T11:06:04Z</time></trkpt><trkpt lat="44.498674151410846" lon="6.739174354053203"><ele>1390.0</ele><time>2026-04-18T11:06:05Z</time></trkpt><trkpt lat="44.49848476154693" lon="6.739123600167364"><ele>1389.0</ele><time>2026-04-18T11:06:06Z</time></trkpt><trkpt lat="44.498325040306916" lon="6.7391251749823295"><ele>1389.0</ele><time>2026-04-18T11:06:07Z</time></trkpt><trkpt lat="44.49820271007402" lon="6.739173334931504"><ele>1389.0</ele><time>2026-04-18T11:06:08Z</time></trkpt><trkpt lat="44.49805109427103" lon="6.739055396757809"><ele>1389.0</ele><time>2026-04-18T11:06:09Z</time></trkpt><trkpt lat="44.49784081413575" lon="6.739055223910079"><ele>1389.0</ele><time>2026-04-18T11:06:10Z</time></trkpt><trkpt lat="44.49761866341066" lon="6.739166992327537"><ele>1389.0</ele><time>2026-04-18T11:06:11Z</time></trkpt><trkpt lat="44.49744437991921" lon="6.739435009764434"><ele>1385.5</ele><time>2026-04-18T11:06:12Z</time></trkpt><trkpt lat="44.49722902153284" lon="6.739566811014948"><ele>1382.0</ele><time>2026-04-18T11:06:13Z</time></trkpt><trkpt lat="44.497059165489674" lon="6.739798188657532"><ele>1382.0</ele><time>2026-04-18T11:06:14Z</time></trkpt><trkpt lat="44.496842411940435" lon="6.740009232720989"><ele>1382.0</ele><time>2026-04-18T11:06:15Z</time></trkpt><trkpt lat="44.4966466092429" lon="6.740172897928155"><ele>1379.0</ele><time>2026-04-18T11:06:16Z</time></trkpt><trkpt lat="44.49646202818668" lon="6.740298843064759"><ele>1376.0</ele><time>2026-04-18T11:06:17Z</time></trkpt><trkpt lat="44.496278346335444" lon="6.7404918524730135"><ele>1373.0</ele><time>2026-04-18T11:06:18Z</time></trkpt><trkpt lat="44.49607690466797" lon="6.740642923701521"><ele>1373.0</ele><time>2026-04-18T11:06:19Z</time></trkpt><trkpt lat="44.49586839053068" lon="6.740758364032201"><ele>1373.0</ele><time>2026-04-18T11:06:20Z</time></trkpt><trkpt lat="44.495651325101534" lon="6.740829714206551"><ele>1373.0</ele><time>2026-04-18T11:06:21Z</time></trkpt><trkpt lat="44.495425956956076" lon="6.740908849272248"><ele>1373.6666666666667</ele><time>2026-04-18T11:06:22Z</time></trkpt><trkpt lat="44.495206471903245" lon="6.740996086670366"><ele>1374.3333333333333</ele><time>2026-04-18T11:06:23Z</time></trkpt><trkpt lat="44.49501170025432" lon="6.741048364405763"><ele>1375.0</ele><time>2026-04-18T11:06:24Z</time></trkpt><trkpt lat="44.49479566429707" lon="6.741100189085105"><ele>1371.3333333333333</ele><time>2026-04-18T11:06:25Z</time></trkpt><trkpt lat="44.49458476686234" lon="6.741160642579535"><ele>1367.6666666666667</ele><time>2026-04-18T11:06:26Z</time></trkpt><trkpt lat="44.49436024403581" lon="6.7412287472873835"><ele>1364.0</ele><time>2026-04-18T11:06:27Z</time></trkpt><trkpt lat="44.49413719462727" lon="6.741325287771315"><ele>1364.0</ele><time>2026-04-18T11:06:28Z</time></trkpt><trkpt lat="44.49391893289212" lon="6.741404796067792"><ele>1364.0</ele><time>2026-04-18T11:06:29Z</time></trkpt><trkpt lat="44.493717176322235" lon="6.741484642647864"><ele>1364.0</ele><time>2026-04-18T11:06:30Z</time></trkpt><trkpt lat="44.49350479187188" lon="6.741574857408682"><ele>1365.0</ele><time>2026-04-18T11:06:31Z</time></trkpt><trkpt lat="44.493316666454106" lon="6.741666055027667"><ele>1366.0</ele><time>2026-04-18T11:06:32Z</time></trkpt><trkpt lat="44.49313745209568" lon="6.741761699740174"><ele>1367.0</ele><time>2026-04-18T11:06:33Z</time></trkpt><trkpt lat="44.49298831353633" lon="6.741881105830057"><ele>1365.0</ele><time>2026-04-18T11:06:34Z</time></trkpt><trkpt lat="44.4928361892392" lon="6.742008213137498"><ele>1363.0</ele><time>2026-04-18T11:06:35Z</time></trkpt><trkpt lat="44.49266754983026" lon="6.742057262374703"><ele>1361.0</ele><time>2026-04-18T11:06:36Z</time></trkpt><trkpt lat="44.49249188438302" lon="6.742076656628977"><ele>1361.0</ele><time>2026-04-18T11:06:37Z</time></trkpt><trkpt lat="44.49230504624324" lon="6.742075039409632"><ele>1361.0</ele><time>2026-04-18T11:06:38Z</time></trkpt><trkpt lat="44.49211922330965" lon="6.742074845410046"><ele>1361.0</ele><time>2026-04-18T11:06:39Z</time></trkpt><trkpt lat="44.49195073412673" lon="6.742074845409797"><ele>1360.0</ele><time>2026-04-18T11:06:40Z</time></trkpt><trkpt lat="44.49174554857812" lon="6.742080218638331"><ele>1359.0</ele><time>2026-04-18T11:06:41Z</time></trkpt><trkpt lat="44.49156880035702" lon="6.742089569724394"><ele>1358.0</ele><time>2026-04-18T11:06:42Z</time></trkpt><trkpt lat="44.491428204141585" lon="6.742115240052048"><ele>1358.0</ele><time>2026-04-18T11:06:43Z</time></trkpt><trkpt lat="44.49125762935585" lon="6.742142730273581"><ele>1358.0</ele><time>2026-04-18T11:06:44Z</time></trkpt><trkpt lat="44.49111648742642" lon="6.742214767228281"><ele>1358.0</ele><time>2026-04-18T11:06:45Z</time></trkpt><trkpt lat="44.49098839658531" lon="6.7423490120531415"><ele>1359.3333333333335</ele><time>2026-04-18T11:06:46Z</time></trkpt><trkpt lat="44.49085921690427" lon="6.742512198224486"><ele>1360.6666666666667</ele><time>2026-04-18T11:06:47Z</time></trkpt><trkpt lat="44.49071345136654" lon="6.7426837850181105"><ele>1362.0</ele><time>2026-04-18T11:06:48Z</time></trkpt><trkpt lat="44.49057610656947" lon="6.742823115722842"><ele>1358.6666666666667</ele><time>2026-04-18T11:06:49Z</time></trkpt><trkpt lat="44.490425118467215" lon="6.7429437650513995"><ele>1355.3333333333335</ele><time>2026-04-18T11:06:50Z</time></trkpt><trkpt lat="44.49027344133836" lon="6.743044509351647"><ele>1352.0</ele><time>2026-04-18T11:06:51Z</time></trkpt><trkpt lat="44.490123402649246" lon="6.743133454339951"><ele>1352.0</ele><time>2026-04-18T11:06:52Z</time></trkpt><trkpt lat="44.489961778256976" lon="6.743212800952303"><ele>1352.0</ele><time>2026-04-18T11:06:53Z</time></trkpt><trkpt lat="44.48979709040843" lon="6.743240052797781"><ele>1352.0</ele><time>2026-04-18T11:06:54Z</time></trkpt><trkpt lat="44.489643124992426" lon="6.743296191976687"><ele>1351.0</ele><time>2026-04-18T11:06:55Z</time></trkpt><trkpt lat="44.489502756983136" lon="6.743381862608187"><ele>1350.0</ele><time>2026-04-18T11:06:56Z</time></trkpt><trkpt lat="44.489331992745726" lon="6.7434677567653525"><ele>1349.0</ele><time>2026-04-18T11:06:57Z</time></trkpt><trkpt lat="44.48920892074215" lon="6.7435928164397625"><ele>1349.0</ele><time>2026-04-18T11:06:58Z</time></trkpt><trkpt lat="44.48909246402873" lon="6.743781071323871"><ele>1349.0</ele><time>2026-04-18T11:06:58.999Z</time></trkpt><trkpt lat="44.488987216716964" lon="6.743975747107436"><ele>1349.0</ele><time>2026-04-18T11:06:59.999Z</time></trkpt><trkpt lat="44.488894961645634" lon="6.744270913677827"><ele>1347.0</ele><time>2026-04-18T11:07:00.999Z</time></trkpt><trkpt lat="44.488769937985204" lon="6.744465668165277"><ele>1345.0</ele><time>2026-04-18T11:07:01.999Z</time></trkpt><trkpt lat="44.48865128895418" lon="6.744660095158846"><ele>1343.0</ele><time>2026-04-18T11:07:02.999Z</time></trkpt><trkpt lat="44.48853758844698" lon="6.744860869188029"><ele>1343.6666666666667</ele><time>2026-04-18T11:07:03.999Z</time></trkpt><trkpt lat="44.48842741043797" lon="6.745041859791525"><ele>1344.3333333333333</ele><time>2026-04-18T11:07:04.999Z</time></trkpt><trkpt lat="44.48828335110401" lon="6.745227232153062"><ele>1345.0</ele><time>2026-04-18T11:07:05.999Z</time></trkpt><trkpt lat="44.48816438170374" lon="6.7454471464799886"><ele>1345.6666666666665</ele><time>2026-04-18T11:07:06.999Z</time></trkpt><trkpt lat="44.487926370545544" lon="6.745509452610381"><ele>1346.3333333333333</ele><time>2026-04-18T11:07:07.999Z</time></trkpt><trkpt lat="44.48775045323063" lon="6.7456126190270345"><ele>1347.0</ele><time>2026-04-18T11:07:08.999Z</time></trkpt><trkpt lat="44.48758521105593" lon="6.74574351235465"><ele>1347.0</ele><time>2026-04-18T11:07:10Z</time></trkpt><trkpt lat="44.487422593207846" lon="6.7458433150448585"><ele>1347.0</ele><time>2026-04-18T11:07:11Z</time></trkpt><trkpt lat="44.48726460717977" lon="6.745903908549328"><ele>1347.0</ele><time>2026-04-18T11:07:12Z</time></trkpt><trkpt lat="44.48711193355424" lon="6.745972344298799"><ele>1345.3333333333333</ele><time>2026-04-18T11:07:13Z</time></trkpt><trkpt lat="44.486983071226646" lon="6.746117745529691"><ele>1343.6666666666665</ele><time>2026-04-18T11:07:14Z</time></trkpt><trkpt lat="44.48684093432758" lon="6.74629302909642"><ele>1342.0</ele><time>2026-04-18T11:07:15Z</time></trkpt><trkpt lat="44.48671932686927" lon="6.746504761855475"><ele>1342.0</ele><time>2026-04-18T11:07:16Z</time></trkpt><trkpt lat="44.48658317667345" lon="6.746687003157209"><ele>1342.0</ele><time>2026-04-18T11:07:17Z</time></trkpt><trkpt lat="44.48644470143957" lon="6.746886094600644"><ele>1342.0</ele><time>2026-04-18T11:07:18Z</time></trkpt><trkpt lat="44.48632387414862" lon="6.747070205038822"><ele>1341.3333333333333</ele><time>2026-04-18T11:07:19Z</time></trkpt><trkpt lat="44.48621795374856" lon="6.747273159264095"><ele>1340.6666666666667</ele><time>2026-04-18T11:07:20Z</time></trkpt><trkpt lat="44.486108609837935" lon="6.74743650986712"><ele>1340.0</ele><time>2026-04-18T11:07:21Z</time></trkpt><trkpt lat="44.48600732489231" lon="6.747559413014091"><ele>1340.0</ele><time>2026-04-18T11:07:22Z</time></trkpt><trkpt lat="44.485895374824864" lon="6.747585271602219"><ele>1340.0</ele><time>2026-04-18T11:07:23Z</time></trkpt><trkpt lat="44.48576196257744" lon="6.747672943426411"><ele>1340.0</ele><time>2026-04-18T11:07:24Z</time></trkpt><trkpt lat="44.485604226956475" lon="6.747755051215883"><ele>1340.0</ele><time>2026-04-18T11:07:25Z</time></trkpt><trkpt lat="44.48542929635832" lon="6.747809263009345"><ele>1338.3333333333335</ele><time>2026-04-18T11:07:26Z</time></trkpt><trkpt lat="44.48521694866719" lon="6.747874700871204"><ele>1336.6666666666667</ele><time>2026-04-18T11:07:27Z</time></trkpt><trkpt lat="44.48503392684556" lon="6.747987144157301"><ele>1335.0</ele><time>2026-04-18T11:07:28Z</time></trkpt><trkpt lat="44.48482886298758" lon="6.748152422264772"><ele>1335.0</ele><time>2026-04-18T11:07:29Z</time></trkpt><trkpt lat="44.48465378796872" lon="6.748267964737842"><ele>1335.0</ele><time>2026-04-18T11:07:30Z</time></trkpt><trkpt lat="44.48448226390549" lon="6.748400672435267"><ele>1335.0</ele><time>2026-04-18T11:07:31Z</time></trkpt><trkpt lat="44.48432338936122" lon="6.748538119413343"><ele>1334.3333333333333</ele><time>2026-04-18T11:07:32Z</time></trkpt><trkpt lat="44.484170601653744" lon="6.748681516204687"><ele>1333.6666666666665</ele><time>2026-04-18T11:07:33Z</time></trkpt><trkpt lat="44.48402608138859" lon="6.748857009150315"><ele>1333.0</ele><time>2026-04-18T11:07:34Z</time></trkpt><trkpt lat="44.48390807348121" lon="6.749051654331107"><ele>1333.0</ele><time>2026-04-18T11:07:35Z</time></trkpt><trkpt lat="44.483782877000124" lon="6.749252994371721"><ele>1333.0</ele><time>2026-04-18T11:07:36Z</time></trkpt><trkpt lat="44.48367208808791" lon="6.749439429271873"><ele>1333.0</ele><time>2026-04-18T11:07:37Z</time></trkpt><trkpt lat="44.48355114313951" lon="6.749613022560403"><ele>1332.0</ele><time>2026-04-18T11:07:38Z</time></trkpt><trkpt lat="44.48342764501387" lon="6.749797763219595"><ele>1331.0</ele><time>2026-04-18T11:07:39Z</time></trkpt><trkpt lat="44.483302154974865" lon="6.749957989180684"><ele>1330.0</ele><time>2026-04-18T11:07:40Z</time></trkpt><trkpt lat="44.48311166534716" lon="6.750079935578444"><ele>1330.0</ele><time>2026-04-18T11:07:41Z</time></trkpt><trkpt lat="44.482943477506495" lon="6.75024234072343"><ele>1330.0</ele><time>2026-04-18T11:07:42Z</time></trkpt><trkpt lat="44.482758754010085" lon="6.7503769924933845"><ele>1330.0</ele><time>2026-04-18T11:07:43Z</time></trkpt><trkpt lat="44.482624132258984" lon="6.750559867431581"><ele>1330.0</ele><time>2026-04-18T11:07:44Z</time></trkpt><trkpt lat="44.48247409901951" lon="6.750756410871718"><ele>1330.0</ele><time>2026-04-18T11:07:45Z</time></trkpt><trkpt lat="44.48231459403632" lon="6.750956213790608"><ele>1330.0</ele><time>2026-04-18T11:07:46Z</time></trkpt><trkpt lat="44.48215928791445" lon="6.751119394101462"><ele>1331.6666666666665</ele><time>2026-04-18T11:07:47Z</time></trkpt><trkpt lat="44.48199041777291" lon="6.7512802437997195"><ele>1333.3333333333333</ele><time>2026-04-18T11:07:48Z</time></trkpt><trkpt lat="44.481836493780236" lon="6.751443340269731"><ele>1335.0</ele><time>2026-04-18T11:07:49Z</time></trkpt><trkpt lat="44.481681299022505" lon="6.751617292582172"><ele>1335.0</ele><time>2026-04-18T11:07:50Z</time></trkpt><trkpt lat="44.48152397681368" lon="6.75181389363891"><ele>1335.0</ele><time>2026-04-18T11:07:51Z</time></trkpt><trkpt lat="44.48137661871822" lon="6.752026621190858"><ele>1335.0</ele><time>2026-04-18T11:07:52Z</time></trkpt><trkpt lat="44.48122337306112" lon="6.752237752429597"><ele>1338.3333333333333</ele><time>2026-04-18T11:07:53Z</time></trkpt><trkpt lat="44.48107989850287" lon="6.75246581948122"><ele>1341.6666666666665</ele><time>2026-04-18T11:07:54Z</time></trkpt><trkpt lat="44.48098822636146" lon="6.752678620745405"><ele>1345.0</ele><time>2026-04-18T11:07:55Z</time></trkpt><trkpt lat="44.48085991463278" lon="6.752870878819322"><ele>1338.3333333333333</ele><time>2026-04-18T11:07:56Z</time></trkpt><trkpt lat="44.480732830790096" lon="6.753069422846656"><ele>1331.6666666666667</ele><time>2026-04-18T11:07:57Z</time></trkpt><trkpt lat="44.48062416011119" lon="6.753252164290439"><ele>1325.0</ele><time>2026-04-18T11:07:58Z</time></trkpt><trkpt lat="44.48053270938378" lon="6.753420597083801"><ele>1325.0</ele><time>2026-04-18T11:07:59Z</time></trkpt><trkpt lat="44.48046566039083" lon="6.753626927520659"><ele>1325.0</ele><time>2026-04-18T11:08:00Z</time></trkpt><trkpt lat="44.48042714450931" lon="6.753871558904436"><ele>1325.0</ele><time>2026-04-18T11:08:01Z</time></trkpt><trkpt lat="44.48037135501579" lon="6.754106252214948"><ele>1322.6666666666667</ele><time>2026-04-18T11:08:02Z</time></trkpt><trkpt lat="44.48032184579762" lon="6.75437914034387"><ele>1320.3333333333333</ele><time>2026-04-18T11:08:03Z</time></trkpt><trkpt lat="44.48026984472267" lon="6.754659884459435"><ele>1318.0</ele><time>2026-04-18T11:08:04Z</time></trkpt><trkpt lat="44.48022012700236" lon="6.754929134889297"><ele>1318.0</ele><time>2026-04-18T11:08:05Z</time></trkpt><trkpt lat="44.48014447650251" lon="6.755178594563809"><ele>1318.0</ele><time>2026-04-18T11:08:06Z</time></trkpt><trkpt lat="44.48004380849658" lon="6.7554301776184955"><ele>1318.0</ele><time>2026-04-18T11:08:07Z</time></trkpt><trkpt lat="44.479936598186974" lon="6.755690023283357"><ele>1319.3333333333333</ele><time>2026-04-18T11:08:08Z</time></trkpt><trkpt lat="44.47981438409745" lon="6.755916673236276"><ele>1320.6666666666667</ele><time>2026-04-18T11:08:09Z</time></trkpt><trkpt lat="44.479668221522985" lon="6.756127664525026"><ele>1322.0</ele><time>2026-04-18T11:08:10Z</time></trkpt><trkpt lat="44.479516020863734" lon="6.756334999722918"><ele>1322.0</ele><time>2026-04-18T11:08:11Z</time></trkpt><trkpt lat="44.47936060538309" lon="6.756511820654681"><ele>1322.0</ele><time>2026-04-18T11:08:12Z</time></trkpt><trkpt lat="44.47920416467011" lon="6.756687186970995"><ele>1322.0</ele><time>2026-04-18T11:08:13Z</time></trkpt><trkpt lat="44.47903711366493" lon="6.756849297492834"><ele>1323.0</ele><time>2026-04-18T11:08:14Z</time></trkpt><trkpt lat="44.47886624162057" lon="6.757003173164534"><ele>1324.0</ele><time>2026-04-18T11:08:15Z</time></trkpt><trkpt lat="44.47869537227337" lon="6.757155712461047"><ele>1325.0</ele><time>2026-04-18T11:08:16Z</time></trkpt><trkpt lat="44.47853597794289" lon="6.757315920627635"><ele>1322.3333333333335</ele><time>2026-04-18T11:08:17Z</time></trkpt><trkpt lat="44.47836646048792" lon="6.757484150291668"><ele>1319.6666666666667</ele><time>2026-04-18T11:08:18Z</time></trkpt><trkpt lat="44.478215530094275" lon="6.757682012761572"><ele>1317.0</ele><time>2026-04-18T11:08:19Z</time></trkpt><trkpt lat="44.47806959127126" lon="6.75786680814272"><ele>1317.0</ele><time>2026-04-18T11:08:20Z</time></trkpt><trkpt lat="44.47793599593331" lon="6.758074440233411"><ele>1317.0</ele><time>2026-04-18T11:08:21Z</time></trkpt><trkpt lat="44.477819296823895" lon="6.758305228233878"><ele>1317.0</ele><time>2026-04-18T11:08:22Z</time></trkpt><trkpt lat="44.47770523729196" lon="6.7585264258319935"><ele>1314.3333333333333</ele><time>2026-04-18T11:08:23Z</time></trkpt><trkpt lat="44.47760941992144" lon="6.7587340150127915"><ele>1311.6666666666665</ele><time>2026-04-18T11:08:24Z</time></trkpt><trkpt lat="44.47750181030256" lon="6.7589512120030815"><ele>1309.0</ele><time>2026-04-18T11:08:25Z</time></trkpt><trkpt lat="44.47740363574966" lon="6.759170245314117"><ele>1310.6666666666665</ele><time>2026-04-18T11:08:26Z</time></trkpt><trkpt lat="44.4773034550352" lon="6.759398931274666"><ele>1312.3333333333333</ele><time>2026-04-18T11:08:27Z</time></trkpt><trkpt lat="44.477214653949126" lon="6.759618979859214"><ele>1314.0</ele><time>2026-04-18T11:08:28Z</time></trkpt><trkpt lat="44.4771233647887" lon="6.759817093164849"><ele>1312.3333333333333</ele><time>2026-04-18T11:08:29Z</time></trkpt><trkpt lat="44.477030779946524" lon="6.760023527038842"><ele>1310.6666666666665</ele><time>2026-04-18T11:08:30Z</time></trkpt><trkpt lat="44.47693999652321" lon="6.7602370819898345"><ele>1309.0</ele><time>2026-04-18T11:08:31Z</time></trkpt><trkpt lat="44.47682745336162" lon="6.760418789985801"><ele>1309.0</ele><time>2026-04-18T11:08:32Z</time></trkpt><trkpt lat="44.47668765317114" lon="6.760550494442409"><ele>1309.0</ele><time>2026-04-18T11:08:33Z</time></trkpt><trkpt lat="44.47654152954164" lon="6.7606543729924455"><ele>1309.0</ele><time>2026-04-18T11:08:34Z</time></trkpt><trkpt lat="44.47638020483998" lon="6.760742234828635"><ele>1309.6666666666665</ele><time>2026-04-18T11:08:35Z</time></trkpt><trkpt lat="44.47621785864373" lon="6.760839000383306"><ele>1310.3333333333333</ele><time>2026-04-18T11:08:36Z</time></trkpt><trkpt lat="44.47606358155334" lon="6.760935281195268"><ele>1311.0</ele><time>2026-04-18T11:08:37Z</time></trkpt><trkpt lat="44.47589792549138" lon="6.761048732163687"><ele>1311.3333333333333</ele><time>2026-04-18T11:08:38Z</time></trkpt><trkpt lat="44.47570839935929" lon="6.761127062668692"><ele>1311.6666666666665</ele><time>2026-04-18T11:08:39Z</time></trkpt><trkpt lat="44.47554083572603" lon="6.761210293480811"><ele>1312.0</ele><time>2026-04-18T11:08:40Z</time></trkpt><trkpt lat="44.47538094508613" lon="6.761309418507914"><ele>1310.6666666666665</ele><time>2026-04-18T11:08:41Z</time></trkpt><trkpt lat="44.47522347090988" lon="6.761403196887137"><ele>1309.3333333333333</ele><time>2026-04-18T11:08:42Z</time></trkpt><trkpt lat="44.4750635742359" lon="6.7614959922228435"><ele>1308.0</ele><time>2026-04-18T11:08:43Z</time></trkpt><trkpt lat="44.47489364663353" lon="6.761555942026379"><ele>1308.0</ele><time>2026-04-18T11:08:44Z</time></trkpt><trkpt lat="44.47473581744871" lon="6.761645199285964"><ele>1308.0</ele><time>2026-04-18T11:08:45Z</time></trkpt><trkpt lat="44.4745737210012" lon="6.761733608579973"><ele>1308.0</ele><time>2026-04-18T11:08:46Z</time></trkpt><trkpt lat="44.474431304087105" lon="6.761840589871859"><ele>1309.0</ele><time>2026-04-18T11:08:47Z</time></trkpt><trkpt lat="44.47427766323257" lon="6.761953905164662"><ele>1310.0</ele><time>2026-04-18T11:08:48Z</time></trkpt><trkpt lat="44.47413232114775" lon="6.762006110402191"><ele>1311.0</ele><time>2026-04-18T11:08:49Z</time></trkpt><trkpt lat="44.473983320084024" lon="6.762093840789655"><ele>1311.0</ele><time>2026-04-18T11:08:50Z</time></trkpt><trkpt lat="44.473830661223644" lon="6.762189400721322"><ele>1311.0</ele><time>2026-04-18T11:08:51Z</time></trkpt><trkpt lat="44.47368122473515" lon="6.762275558657902"><ele>1311.0</ele><time>2026-04-18T11:08:52Z</time></trkpt><trkpt lat="44.47352604189893" lon="6.762359803704864"><ele>1310.25</ele><time>2026-04-18T11:08:53Z</time></trkpt><trkpt lat="44.47338620131829" lon="6.762439404512325"><ele>1309.5</ele><time>2026-04-18T11:08:54Z</time></trkpt><trkpt lat="44.4732446389618" lon="6.762525577809272"><ele>1308.75</ele><time>2026-04-18T11:08:55Z</time></trkpt><trkpt lat="44.473133530781006" lon="6.762544117702515"><ele>1308.0</ele><time>2026-04-18T11:08:56Z</time></trkpt><trkpt lat="44.47301963685252" lon="6.762604683125998"><ele>1308.25</ele><time>2026-04-18T11:08:57Z</time></trkpt><trkpt lat="44.47289992892805" lon="6.762687953709789"><ele>1308.5</ele><time>2026-04-18T11:08:58Z</time></trkpt><trkpt lat="44.472794025291265" lon="6.762757724907978"><ele>1308.75</ele><time>2026-04-18T11:08:59Z</time></trkpt><trkpt lat="44.47268124200342" lon="6.762819142787547"><ele>1309.0</ele><time>2026-04-18T11:09:00Z</time></trkpt><trkpt lat="44.47259255052313" lon="6.762887773150492"><ele>1309.0</ele><time>2026-04-18T11:09:01Z</time></trkpt><trkpt lat="44.4725248380036" lon="6.762959193127501"><ele>1309.0</ele><time>2026-04-18T11:09:02Z</time></trkpt><trkpt lat="44.472490841498484" lon="6.7630453943413205"><ele>1309.0</ele><time>2026-04-18T11:09:03Z</time></trkpt><trkpt lat="44.47246555640942" lon="6.763155248171165"><ele>1309.0</ele><time>2026-04-18T11:09:05Z</time></trkpt><trkpt lat="44.47228084772236" lon="6.763164113329728"><ele>1309.0</ele><time>2026-04-18T11:09:07Z</time></trkpt><trkpt lat="44.47218471391225" lon="6.763205961173452"><ele>1308.25</ele><time>2026-04-18T11:09:08Z</time></trkpt><trkpt lat="44.47206069217991" lon="6.763257131819005"><ele>1307.5</ele><time>2026-04-18T11:09:08.999Z</time></trkpt><trkpt lat="44.471940982326146" lon="6.763327893613853"><ele>1306.75</ele><time>2026-04-18T11:09:09.999Z</time></trkpt><trkpt lat="44.47182702889531" lon="6.763427955206843"><ele>1306.0</ele><time>2026-04-18T11:09:10.999Z</time></trkpt><trkpt lat="44.471686771625855" lon="6.763528383803281"><ele>1306.5</ele><time>2026-04-18T11:09:11.999Z</time></trkpt><trkpt lat="44.471571966149305" lon="6.763596815221806"><ele>1307.0</ele><time>2026-04-18T11:09:12.999Z</time></trkpt><trkpt lat="44.47145603672499" lon="6.76367817893924"><ele>1307.5</ele><time>2026-04-18T11:09:13.999Z</time></trkpt><trkpt lat="44.471324980668136" lon="6.763745000690084"><ele>1308.0</ele><time>2026-04-18T11:09:14.999Z</time></trkpt><trkpt lat="44.47118940012888" lon="6.763774460937183"><ele>1310.75</ele><time>2026-04-18T11:09:16Z</time></trkpt><trkpt lat="44.47107579572792" lon="6.763763822367324"><ele>1313.5</ele><time>2026-04-18T11:09:17Z</time></trkpt><trkpt lat="44.47096026111878" lon="6.763731019996096"><ele>1316.25</ele><time>2026-04-18T11:09:18Z</time></trkpt><trkpt lat="44.470825556827066" lon="6.763666338305302"><ele>1319.0</ele><time>2026-04-18T11:09:19Z</time></trkpt><trkpt lat="44.4706899427289" lon="6.763572208984601"><ele>1316.0</ele><time>2026-04-18T11:09:20Z</time></trkpt><trkpt lat="44.47056524274067" lon="6.763433904261077"><ele>1313.0</ele><time>2026-04-18T11:09:21Z</time></trkpt><trkpt lat="44.47042883315096" lon="6.763323864294493"><ele>1310.0</ele><time>2026-04-18T11:09:22Z</time></trkpt><trkpt lat="44.47028218394099" lon="6.763224624115594"><ele>1310.0</ele><time>2026-04-18T11:09:23Z</time></trkpt><trkpt lat="44.47007872325285" lon="6.763115620497714"><ele>1310.0</ele><time>2026-04-18T11:09:24Z</time></trkpt><trkpt lat="44.469885805446395" lon="6.763017389713071"><ele>1310.0</ele><time>2026-04-18T11:09:25Z</time></trkpt><trkpt lat="44.46969539888315" lon="6.762921629411683"><ele>1316.5</ele><time>2026-04-18T11:09:26Z</time></trkpt><trkpt lat="44.469480818876846" lon="6.762813711681027"><ele>1323.0</ele><time>2026-04-18T11:09:27Z</time></trkpt><trkpt lat="44.46927061451115" lon="6.762707994574901"><ele>1319.3333333333333</ele><time>2026-04-18T11:09:28Z</time></trkpt><trkpt lat="44.469077524186446" lon="6.762611066515414"><ele>1315.6666666666665</ele><time>2026-04-18T11:09:29Z</time></trkpt><trkpt lat="44.468875732831044" lon="6.762529236679931"><ele>1312.0</ele><time>2026-04-18T11:09:30Z</time></trkpt><trkpt lat="44.468670879595585" lon="6.762420625191149"><ele>1312.0</ele><time>2026-04-18T11:09:31Z</time></trkpt><trkpt lat="44.46847878400047" lon="6.762322723104102"><ele>1312.0</ele><time>2026-04-18T11:09:32Z</time></trkpt><trkpt lat="44.46828892231308" lon="6.762219431979593"><ele>1312.0</ele><time>2026-04-18T11:09:33Z</time></trkpt><trkpt lat="44.46810726290342" lon="6.76214064347312"><ele>1314.0</ele><time>2026-04-18T11:09:34Z</time></trkpt><trkpt lat="44.46793524858413" lon="6.762053231251627"><ele>1316.0</ele><time>2026-04-18T11:09:35Z</time></trkpt><trkpt lat="44.46776676331832" lon="6.761949737753905"><ele>1318.0</ele><time>2026-04-18T11:09:36Z</time></trkpt><trkpt lat="44.46759648570426" lon="6.761866044736549"><ele>1313.25</ele><time>2026-04-18T11:09:37Z</time></trkpt><trkpt lat="44.46745122394067" lon="6.761766077969973"><ele>1308.5</ele><time>2026-04-18T11:09:38Z</time></trkpt><trkpt lat="44.46734295663472" lon="6.761656217475975"><ele>1303.75</ele><time>2026-04-18T11:09:39Z</time></trkpt><trkpt lat="44.46723899854487" lon="6.761498643614244"><ele>1299.0</ele><time>2026-04-18T11:09:40Z</time></trkpt><trkpt lat="44.46714451928686" lon="6.761296430050159"><ele>1301.0</ele><time>2026-04-18T11:09:41Z</time></trkpt><trkpt lat="44.467047093113976" lon="6.761082179088371"><ele>1303.0</ele><time>2026-04-18T11:09:42Z</time></trkpt><trkpt lat="44.466939621868285" lon="6.760842062106629"><ele>1305.0</ele><time>2026-04-18T11:09:43Z</time></trkpt><trkpt lat="44.466827747889404" lon="6.760602238463796"><ele>1305.0</ele><time>2026-04-18T11:09:44Z</time></trkpt><trkpt lat="44.46670146065582" lon="6.760350579195867"><ele>1305.0</ele><time>2026-04-18T11:09:45Z</time></trkpt><trkpt lat="44.46656234643973" lon="6.7601104616424665"><ele>1305.0</ele><time>2026-04-18T11:09:46Z</time></trkpt><trkpt lat="44.466419396793015" lon="6.7598810960044"><ele>1306.3333333333333</ele><time>2026-04-18T11:09:47Z</time></trkpt><trkpt lat="44.46627754111639" lon="6.759650167829939"><ele>1307.6666666666665</ele><time>2026-04-18T11:09:48Z</time></trkpt><trkpt lat="44.46614131410214" lon="6.759403659417793"><ele>1309.0</ele><time>2026-04-18T11:09:49Z</time></trkpt><trkpt lat="44.46600720126782" lon="6.759140502135525"><ele>1309.0</ele><time>2026-04-18T11:09:50Z</time></trkpt><trkpt lat="44.465883158349385" lon="6.7588853154103665"><ele>1309.0</ele><time>2026-04-18T11:09:51Z</time></trkpt><trkpt lat="44.465755499048186" lon="6.7586265671910555"><ele>1309.0</ele><time>2026-04-18T11:09:52Z</time></trkpt><trkpt lat="44.465636228643035" lon="6.758387633653293"><ele>1305.3333333333333</ele><time>2026-04-18T11:09:53Z</time></trkpt><trkpt lat="44.46551581438057" lon="6.758146408693971"><ele>1301.6666666666667</ele><time>2026-04-18T11:09:54Z</time></trkpt><trkpt lat="44.46540240404987" lon="6.757919631023452"><ele>1298.0</ele><time>2026-04-18T11:09:55Z</time></trkpt><trkpt lat="44.4652945913097" lon="6.757704157179063"><ele>1300.0</ele><time>2026-04-18T11:09:56Z</time></trkpt><trkpt lat="44.46518992567793" lon="6.757493296739444"><ele>1302.0</ele><time>2026-04-18T11:09:57Z</time></trkpt><trkpt lat="44.46509729585017" lon="6.757293756578305"><ele>1304.0</ele><time>2026-04-18T11:09:58Z</time></trkpt><trkpt lat="44.465025226620604" lon="6.757097142722188"><ele>1304.0</ele><time>2026-04-18T11:09:59Z</time></trkpt><trkpt lat="44.464972816636426" lon="6.756882301155798"><ele>1304.0</ele><time>2026-04-18T11:10:00Z</time></trkpt><trkpt lat="44.46494872240513" lon="6.75665000241817"><ele>1304.0</ele><time>2026-04-18T11:10:01Z</time></trkpt><trkpt lat="44.46494364509307" lon="6.7564139714096925"><ele>1300.0</ele><time>2026-04-18T11:10:02Z</time></trkpt><trkpt lat="44.46495187982508" lon="6.756165333599054"><ele>1296.0</ele><time>2026-04-18T11:10:03Z</time></trkpt><trkpt lat="44.46499887954712" lon="6.755907507959351"><ele>1292.0</ele><time>2026-04-18T11:10:04Z</time></trkpt><trkpt lat="44.46504290643118" lon="6.755645090926794"><ele>1290.6666666666667</ele><time>2026-04-18T11:10:05Z</time></trkpt><trkpt lat="44.46507752899816" lon="6.755382941372518"><ele>1289.3333333333333</ele><time>2026-04-18T11:10:06Z</time></trkpt><trkpt lat="44.46511012772957" lon="6.755129557234551"><ele>1288.0</ele><time>2026-04-18T11:10:07Z</time></trkpt><trkpt lat="44.465150188970036" lon="6.754879584440842"><ele>1287.6666666666665</ele><time>2026-04-18T11:10:08Z</time></trkpt><trkpt lat="44.46519024572442" lon="6.75463031133312"><ele>1287.3333333333333</ele><time>2026-04-18T11:10:09Z</time></trkpt><trkpt lat="44.46522966853273" lon="6.754382766667999"><ele>1287.0</ele><time>2026-04-18T11:10:10Z</time></trkpt><trkpt lat="44.46526858667867" lon="6.754131530980686"><ele>1287.0</ele><time>2026-04-18T11:10:11Z</time></trkpt><trkpt lat="44.46529608564587" lon="6.753892139991448"><ele>1287.0</ele><time>2026-04-18T11:10:12Z</time></trkpt><trkpt lat="44.46531131594751" lon="6.753657943135533"><ele>1287.0</ele><time>2026-04-18T11:10:13Z</time></trkpt><trkpt lat="44.46530970994298" lon="6.753404049474605"><ele>1288.0</ele><time>2026-04-18T11:10:14Z</time></trkpt><trkpt lat="44.46529456362266" lon="6.7531761212268915"><ele>1289.0</ele><time>2026-04-18T11:10:15Z</time></trkpt><trkpt lat="44.46524547864256" lon="6.752961408661123"><ele>1290.0</ele><time>2026-04-18T11:10:16Z</time></trkpt><trkpt lat="44.46513364240479" lon="6.752742005078882"><ele>1294.0</ele><time>2026-04-18T11:10:17Z</time></trkpt><trkpt lat="44.46499125481434" lon="6.752513041757468"><ele>1298.0</ele><time>2026-04-18T11:10:18Z</time></trkpt><trkpt lat="44.464837570296865" lon="6.752288831812842"><ele>1302.0</ele><time>2026-04-18T11:10:19Z</time></trkpt><trkpt lat="44.46470953421294" lon="6.752050402072827"><ele>1298.6666666666667</ele><time>2026-04-18T11:10:20Z</time></trkpt><trkpt lat="44.46455424961943" lon="6.751856880998624"><ele>1295.3333333333335</ele><time>2026-04-18T11:10:21Z</time></trkpt><trkpt lat="44.46440179504812" lon="6.751654300577048"><ele>1292.0</ele><time>2026-04-18T11:10:22Z</time></trkpt><trkpt lat="44.46423792595449" lon="6.751456478132112"><ele>1292.0</ele><time>2026-04-18T11:10:23Z</time></trkpt><trkpt lat="44.46408520519919" lon="6.751250156706373"><ele>1292.0</ele><time>2026-04-18T11:10:24Z</time></trkpt><trkpt lat="44.46391718477222" lon="6.751081537638822"><ele>1292.0</ele><time>2026-04-18T11:10:25Z</time></trkpt><trkpt lat="44.46376755253893" lon="6.750892713797396"><ele>1293.0</ele><time>2026-04-18T11:10:26Z</time></trkpt><trkpt lat="44.4636292219985" lon="6.750704067305155"><ele>1294.0</ele><time>2026-04-18T11:10:27Z</time></trkpt><trkpt lat="44.46349199604725" lon="6.7505350496631085"><ele>1295.0</ele><time>2026-04-18T11:10:28Z</time></trkpt><trkpt lat="44.463361732109426" lon="6.750383473631501"><ele>1295.0</ele><time>2026-04-18T11:10:29Z</time></trkpt><trkpt lat="44.46321457219431" lon="6.750256950377431"><ele>1295.0</ele><time>2026-04-18T11:10:30Z</time></trkpt><trkpt lat="44.46305803421574" lon="6.750142205020359"><ele>1295.0</ele><time>2026-04-18T11:10:31Z</time></trkpt><trkpt lat="44.462858557948934" lon="6.7501460556502115"><ele>1295.0</ele><time>2026-04-18T11:10:32Z</time></trkpt><trkpt lat="44.46266319825705" lon="6.750129851186168"><ele>1295.0</ele><time>2026-04-18T11:10:33Z</time></trkpt><trkpt lat="44.462515106405064" lon="6.750040651715456"><ele>1295.0</ele><time>2026-04-18T11:10:34Z</time></trkpt><trkpt lat="44.46236047096945" lon="6.749926912478226"><ele>1295.0</ele><time>2026-04-18T11:10:35Z</time></trkpt><trkpt lat="44.46221291412203" lon="6.749778227669867"><ele>1295.0</ele><time>2026-04-18T11:10:36Z</time></trkpt><trkpt lat="44.462078271129194" lon="6.749580984930246"><ele>1295.0</ele><time>2026-04-18T11:10:37Z</time></trkpt><trkpt lat="44.46192644711943" lon="6.749396146378755"><ele>1294.0</ele><time>2026-04-18T11:10:38Z</time></trkpt><trkpt lat="44.46178086473444" lon="6.749198870797807"><ele>1293.0</ele><time>2026-04-18T11:10:39Z</time></trkpt><trkpt lat="44.46164260440538" lon="6.748982174534808"><ele>1292.0</ele><time>2026-04-18T11:10:40Z</time></trkpt><trkpt lat="44.46149330334092" lon="6.748781907972699"><ele>1292.0</ele><time>2026-04-18T11:10:41Z</time></trkpt><trkpt lat="44.46135201233206" lon="6.748578572137394"><ele>1292.0</ele><time>2026-04-18T11:10:42Z</time></trkpt><trkpt lat="44.4612146354193" lon="6.748360188591895"><ele>1292.0</ele><time>2026-04-18T11:10:43Z</time></trkpt><trkpt lat="44.461092756376175" lon="6.748145284883784"><ele>1290.6666666666667</ele><time>2026-04-18T11:10:44Z</time></trkpt><trkpt lat="44.4609740250814" lon="6.747946029820876"><ele>1289.3333333333333</ele><time>2026-04-18T11:10:45Z</time></trkpt><trkpt lat="44.46084791159489" lon="6.747757912504193"><ele>1288.0</ele><time>2026-04-18T11:10:46Z</time></trkpt><trkpt lat="44.46070809109218" lon="6.7476029814930945"><ele>1286.0</ele><time>2026-04-18T11:10:47Z</time></trkpt><trkpt lat="44.460557168424245" lon="6.747444364163432"><ele>1284.0</ele><time>2026-04-18T11:10:48Z</time></trkpt><trkpt lat="44.46040475769745" lon="6.747255822203289"><ele>1282.0</ele><time>2026-04-18T11:10:49Z</time></trkpt><trkpt lat="44.46023201072755" lon="6.747124235916849"><ele>1282.0</ele><time>2026-04-18T11:10:50Z</time></trkpt><trkpt lat="44.46005267276241" lon="6.747007736409934"><ele>1282.0</ele><time>2026-04-18T11:10:51Z</time></trkpt><trkpt lat="44.45987227448195" lon="6.746896782522233"><ele>1282.0</ele><time>2026-04-18T11:10:52Z</time></trkpt><trkpt lat="44.459683214103464" lon="6.746809254536064"><ele>1286.6666666666665</ele><time>2026-04-18T11:10:53Z</time></trkpt><trkpt lat="44.45949092297089" lon="6.746734320311604"><ele>1291.3333333333333</ele><time>2026-04-18T11:10:54Z</time></trkpt><trkpt lat="44.45929125553257" lon="6.746685788490814"><ele>1296.0</ele><time>2026-04-18T11:10:55Z</time></trkpt><trkpt lat="44.459111836720076" lon="6.746655015532908"><ele>1296.0</ele><time>2026-04-18T11:10:56Z</time></trkpt><trkpt lat="44.45893275547786" lon="6.746654933204672"><ele>1296.0</ele><time>2026-04-18T11:10:57Z</time></trkpt><trkpt lat="44.45878325709174" lon="6.746643216811152"><ele>1296.0</ele><time>2026-04-18T11:10:58Z</time></trkpt><trkpt lat="44.45865506023998" lon="6.746649770407437"><ele>1293.8</ele><time>2026-04-18T11:10:59Z</time></trkpt><trkpt lat="44.45854037654392" lon="6.746608003203"><ele>1291.6</ele><time>2026-04-18T11:11:00Z</time></trkpt><trkpt lat="44.45844838703457" lon="6.746574957284771"><ele>1289.4</ele><time>2026-04-18T11:11:01Z</time></trkpt><trkpt lat="44.45836311697832" lon="6.746490788035896"><ele>1287.2</ele><time>2026-04-18T11:11:02Z</time></trkpt><trkpt lat="44.458285823587524" lon="6.7463896725748524"><ele>1285.0</ele><time>2026-04-18T11:11:03Z</time></trkpt><trkpt lat="44.45822663485588" lon="6.746259249992065"><ele>1285.0</ele><time>2026-04-18T11:11:04Z</time></trkpt><trkpt lat="44.45821724724777" lon="6.746106536697516"><ele>1285.0</ele><time>2026-04-18T11:11:05Z</time></trkpt><trkpt lat="44.45819797130938" lon="6.745935799052179"><ele>1285.0</ele><time>2026-04-18T11:11:06Z</time></trkpt><trkpt lat="44.45816346412996" lon="6.745762695340807"><ele>1285.0</ele><time>2026-04-18T11:11:07Z</time></trkpt><trkpt lat="44.458159710805795" lon="6.745578044537345"><ele>1286.0</ele><time>2026-04-18T11:11:08Z</time></trkpt><trkpt lat="44.458129238614596" lon="6.745416470334729"><ele>1287.0</ele><time>2026-04-18T11:11:09Z</time></trkpt><trkpt lat="44.458092123293824" lon="6.7452591791909615"><ele>1288.0</ele><time>2026-04-18T11:11:10Z</time></trkpt><trkpt lat="44.45803504126906" lon="6.745114801999122"><ele>1289.0</ele><time>2026-04-18T11:11:11Z</time></trkpt><trkpt lat="44.45795959183522" lon="6.744990300528209"><ele>1288.5</ele><time>2026-04-18T11:11:12Z</time></trkpt><trkpt lat="44.457879931925206" lon="6.744875556335356"><ele>1288.0</ele><time>2026-04-18T11:11:13Z</time></trkpt><trkpt lat="44.45778458783473" lon="6.744764511398081"><ele>1287.5</ele><time>2026-04-18T11:11:14Z</time></trkpt><trkpt lat="44.45766664585776" lon="6.744682151222528"><ele>1287.0</ele><time>2026-04-18T11:11:15Z</time></trkpt><trkpt lat="44.45754754063456" lon="6.744577459326188"><ele>1287.0</ele><time>2026-04-18T11:11:16Z</time></trkpt><trkpt lat="44.45741775707036" lon="6.7444864312113095"><ele>1287.0</ele><time>2026-04-18T11:11:17Z</time></trkpt><trkpt lat="44.45728137472712" lon="6.744386867982906"><ele>1287.0</ele><time>2026-04-18T11:11:18Z</time></trkpt><trkpt lat="44.457145171086076" lon="6.74428286547856"><ele>1287.25</ele><time>2026-04-18T11:11:19Z</time></trkpt><trkpt lat="44.45701172990706" lon="6.744201293541613"><ele>1287.5</ele><time>2026-04-18T11:11:20Z</time></trkpt><trkpt lat="44.45687510843735" lon="6.744123898653008"><ele>1287.75</ele><time>2026-04-18T11:11:21Z</time></trkpt><trkpt lat="44.45673843707185" lon="6.744077405349561"><ele>1288.0</ele><time>2026-04-18T11:11:22Z</time></trkpt><trkpt lat="44.45657623001935" lon="6.74404983844209"><ele>1288.0</ele><time>2026-04-18T11:11:23Z</time></trkpt><trkpt lat="44.45641554918494" lon="6.744037199738509"><ele>1288.0</ele><time>2026-04-18T11:11:24Z</time></trkpt><trkpt lat="44.45625011191988" lon="6.74404313022606"><ele>1288.0</ele><time>2026-04-18T11:11:25Z</time></trkpt><trkpt lat="44.45608748826239" lon="6.744054943471613"><ele>1287.0</ele><time>2026-04-18T11:11:26Z</time></trkpt><trkpt lat="44.4559341067405" lon="6.744050161023236"><ele>1286.0</ele><time>2026-04-18T11:11:27Z</time></trkpt><trkpt lat="44.45579355460911" lon="6.743999420468724"><ele>1285.0</ele><time>2026-04-18T11:11:28Z</time></trkpt><trkpt lat="44.455659636489735" lon="6.74391954213797"><ele>1284.0</ele><time>2026-04-18T11:11:29Z</time></trkpt><trkpt lat="44.4555048099117" lon="6.743814162752833"><ele>1283.0</ele><time>2026-04-18T11:11:30Z</time></trkpt><trkpt lat="44.45533717672408" lon="6.7437445628759205"><ele>1282.0</ele><time>2026-04-18T11:11:31Z</time></trkpt><trkpt lat="44.45517453548758" lon="6.743666178879668"><ele>1281.0</ele><time>2026-04-18T11:11:32Z</time></trkpt><trkpt lat="44.45498667267994" lon="6.7436293173818065"><ele>1277.0</ele><time>2026-04-18T11:11:33Z</time></trkpt><trkpt lat="44.45480131203278" lon="6.743498413657156"><ele>1273.0</ele><time>2026-04-18T11:11:34Z</time></trkpt><trkpt lat="44.454553154823195" lon="6.743607364111073"><ele>1273.0</ele><time>2026-04-18T11:11:35Z</time></trkpt><trkpt lat="44.45434455395772" lon="6.743586167574274"><ele>1273.0</ele><time>2026-04-18T11:11:36Z</time></trkpt><trkpt lat="44.45415268889556" lon="6.743624436503698"><ele>1273.0</ele><time>2026-04-18T11:11:37Z</time></trkpt><trkpt lat="44.45397939623258" lon="6.743626303347"><ele>1273.0</ele><time>2026-04-18T11:11:38Z</time></trkpt><trkpt lat="44.45382429093953" lon="6.743654521981125"><ele>1273.0</ele><time>2026-04-18T11:11:39Z</time></trkpt><trkpt lat="44.45367435025105" lon="6.74372480429693"><ele>1273.0</ele><time>2026-04-18T11:11:40Z</time></trkpt><trkpt lat="44.45354951403751" lon="6.743814454077974"><ele>1272.75</ele><time>2026-04-18T11:11:41Z</time></trkpt><trkpt lat="44.453411028169235" lon="6.743866116382586"><ele>1272.5</ele><time>2026-04-18T11:11:42Z</time></trkpt><trkpt lat="44.4532803517595" lon="6.743831479581673"><ele>1272.25</ele><time>2026-04-18T11:11:43Z</time></trkpt><trkpt lat="44.453140910041654" lon="6.7437900937696975"><ele>1272.0</ele><time>2026-04-18T11:11:44Z</time></trkpt><trkpt lat="44.453017040213794" lon="6.74374084751314"><ele>1271.75</ele><time>2026-04-18T11:11:45Z</time></trkpt><trkpt lat="44.4529266796147" lon="6.743589791976983"><ele>1271.5</ele><time>2026-04-18T11:11:46Z</time></trkpt><trkpt lat="44.4528403178922" lon="6.743447910281971"><ele>1271.25</ele><time>2026-04-18T11:11:47Z</time></trkpt><trkpt lat="44.452743976053135" lon="6.743298117801149"><ele>1271.0</ele><time>2026-04-18T11:11:48Z</time></trkpt><trkpt lat="44.452613948852004" lon="6.743128952712985"><ele>1271.0</ele><time>2026-04-18T11:11:49Z</time></trkpt><trkpt lat="44.45247604461717" lon="6.743023794238442"><ele>1271.0</ele><time>2026-04-18T11:11:50Z</time></trkpt><trkpt lat="44.45234158937936" lon="6.742907947734756"><ele>1271.0</ele><time>2026-04-18T11:11:51Z</time></trkpt><trkpt lat="44.4521624281013" lon="6.742822026101171"><ele>1274.0</ele><time>2026-04-18T11:11:52Z</time></trkpt><trkpt lat="44.451971312150654" lon="6.7427290341129025"><ele>1277.0</ele><time>2026-04-18T11:11:53Z</time></trkpt><trkpt lat="44.45180542839751" lon="6.742614343504817"><ele>1280.0</ele><time>2026-04-18T11:11:54Z</time></trkpt><trkpt lat="44.45162726985587" lon="6.742476750216394"><ele>1280.0</ele><time>2026-04-18T11:11:55Z</time></trkpt><trkpt lat="44.451455933892795" lon="6.7423431655821835"><ele>1280.0</ele><time>2026-04-18T11:11:56Z</time></trkpt><trkpt lat="44.45128746848803" lon="6.7422010690026255"><ele>1280.0</ele><time>2026-04-18T11:11:57Z</time></trkpt><trkpt lat="44.45112916782527" lon="6.742039516585634"><ele>1277.0</ele><time>2026-04-18T11:11:58Z</time></trkpt><trkpt lat="44.45097496156711" lon="6.741871334646555"><ele>1274.0</ele><time>2026-04-18T11:11:59Z</time></trkpt><trkpt lat="44.45082327516251" lon="6.7417014991065995"><ele>1271.0</ele><time>2026-04-18T11:12:00Z</time></trkpt><trkpt lat="44.450682265492524" lon="6.741541918245916"><ele>1271.0</ele><time>2026-04-18T11:12:01Z</time></trkpt><trkpt lat="44.45053321198959" lon="6.74137485583505"><ele>1271.0</ele><time>2026-04-18T11:12:02Z</time></trkpt><trkpt lat="44.45037494369643" lon="6.741226038895508"><ele>1271.0</ele><time>2026-04-18T11:12:03Z</time></trkpt><trkpt lat="44.45022639659946" lon="6.74103820329974"><ele>1271.0</ele><time>2026-04-18T11:12:04Z</time></trkpt><trkpt lat="44.45007624639889" lon="6.74088376550992"><ele>1271.0</ele><time>2026-04-18T11:12:05Z</time></trkpt><trkpt lat="44.44992480468609" lon="6.7407572375800475"><ele>1271.0</ele><time>2026-04-18T11:12:06Z</time></trkpt><trkpt lat="44.44980066948956" lon="6.740647700852987"><ele>1271.0</ele><time>2026-04-18T11:12:07Z</time></trkpt><trkpt lat="44.44962695249522" lon="6.74057645278386"><ele>1271.0</ele><time>2026-04-18T11:12:08Z</time></trkpt><trkpt lat="44.44942542226636" lon="6.740571281479598"><ele>1271.0</ele><time>2026-04-18T11:12:09Z</time></trkpt><trkpt lat="44.449225455094556" lon="6.740509024327055"><ele>1268.6666666666667</ele><time>2026-04-18T11:12:10Z</time></trkpt><trkpt lat="44.44900526097561" lon="6.740511881111526"><ele>1266.3333333333333</ele><time>2026-04-18T11:12:11Z</time></trkpt><trkpt lat="44.448813368623405" lon="6.740444070002542"><ele>1264.0</ele><time>2026-04-18T11:12:12Z</time></trkpt><trkpt lat="44.44862420725284" lon="6.740389071650165"><ele>1263.6666666666665</ele><time>2026-04-18T11:12:13Z</time></trkpt><trkpt lat="44.448441438091464" lon="6.740329365878344"><ele>1263.3333333333333</ele><time>2026-04-18T11:12:14Z</time></trkpt><trkpt lat="44.4482658904324" lon="6.740273492575055"><ele>1263.0</ele><time>2026-04-18T11:12:15Z</time></trkpt><trkpt lat="44.448090359437586" lon="6.740250771372513"><ele>1266.6666666666667</ele><time>2026-04-18T11:12:16Z</time></trkpt><trkpt lat="44.44791168587278" lon="6.740193926919339"><ele>1270.3333333333335</ele><time>2026-04-18T11:12:17Z</time></trkpt><trkpt lat="44.447740676051815" lon="6.74017840041303"><ele>1274.0</ele><time>2026-04-18T11:12:18Z</time></trkpt><trkpt lat="44.44757778073934" lon="6.7401863812811404"><ele>1272.0</ele><time>2026-04-18T11:12:19Z</time></trkpt><trkpt lat="44.44741469645711" lon="6.740222321740652"><ele>1270.0</ele><time>2026-04-18T11:12:20Z</time></trkpt><trkpt lat="44.44723780857353" lon="6.74030131797533"><ele>1268.0</ele><time>2026-04-18T11:12:21Z</time></trkpt><trkpt lat="44.44708164493143" lon="6.740415137798477"><ele>1268.0</ele><time>2026-04-18T11:12:22Z</time></trkpt><trkpt lat="44.44693084945479" lon="6.740559543067116"><ele>1268.0</ele><time>2026-04-18T11:12:23Z</time></trkpt><trkpt lat="44.446764824588485" lon="6.740693382596805"><ele>1268.0</ele><time>2026-04-18T11:12:24Z</time></trkpt><trkpt lat="44.44660121880352" lon="6.740947604432324"><ele>1268.0</ele><time>2026-04-18T11:12:25Z</time></trkpt><trkpt lat="44.446412379752665" lon="6.741147339663965"><ele>1268.0</ele><time>2026-04-18T11:12:26Z</time></trkpt><trkpt lat="44.44623787244358" lon="6.741324799120751"><ele>1268.0</ele><time>2026-04-18T11:12:27Z</time></trkpt><trkpt lat="44.44606394334834" lon="6.7414997916581845"><ele>1268.0</ele><time>2026-04-18T11:12:28Z</time></trkpt><trkpt lat="44.44588615638409" lon="6.741662078186925"><ele>1268.0</ele><time>2026-04-18T11:12:29Z</time></trkpt><trkpt lat="44.44571668735319" lon="6.741833319806738"><ele>1267.3333333333335</ele><time>2026-04-18T11:12:30Z</time></trkpt><trkpt lat="44.445530127903844" lon="6.741974241798543"><ele>1266.6666666666667</ele><time>2026-04-18T11:12:31Z</time></trkpt><trkpt lat="44.445358108687444" lon="6.742099959328157"><ele>1266.0</ele><time>2026-04-18T11:12:32Z</time></trkpt><trkpt lat="44.44516101230773" lon="6.7422213442305585"><ele>1266.0</ele><time>2026-04-18T11:12:33Z</time></trkpt><trkpt lat="44.4449816828803" lon="6.742335216440208"><ele>1266.0</ele><time>2026-04-18T11:12:34Z</time></trkpt><trkpt lat="44.44481154593631" lon="6.7424436369992975"><ele>1266.0</ele><time>2026-04-18T11:12:35Z</time></trkpt><trkpt lat="44.444639172616405" lon="6.742559895192077"><ele>1269.0</ele><time>2026-04-18T11:12:36Z</time></trkpt><trkpt lat="44.44445644418197" lon="6.742610601871977"><ele>1272.0</ele><time>2026-04-18T11:12:37Z</time></trkpt><trkpt lat="44.44429844931031" lon="6.742626392975343"><ele>1275.0</ele><time>2026-04-18T11:12:38Z</time></trkpt><trkpt lat="44.44413342833544" lon="6.742616158860664"><ele>1275.0</ele><time>2026-04-18T11:12:39Z</time></trkpt><trkpt lat="44.44402598477852" lon="6.742592347109984"><ele>1275.0</ele><time>2026-04-18T11:12:40Z</time></trkpt><trkpt lat="44.44386365768314" lon="6.742521671794587"><ele>1275.0</ele><time>2026-04-18T11:12:41Z</time></trkpt><trkpt lat="44.443687380431186" lon="6.742413731964967"><ele>1272.0</ele><time>2026-04-18T11:12:42Z</time></trkpt><trkpt lat="44.44351623432102" lon="6.74229635037351"><ele>1269.0</ele><time>2026-04-18T11:12:43Z</time></trkpt><trkpt lat="44.44335201909815" lon="6.742200178111328"><ele>1266.0</ele><time>2026-04-18T11:12:44Z</time></trkpt><trkpt lat="44.44317694307264" lon="6.742143805536266"><ele>1266.0</ele><time>2026-04-18T11:12:45Z</time></trkpt><trkpt lat="44.442989102602034" lon="6.742079771526725"><ele>1266.0</ele><time>2026-04-18T11:12:46Z</time></trkpt><trkpt lat="44.44276255032095" lon="6.742058404759468"><ele>1266.0</ele><time>2026-04-18T11:12:47Z</time></trkpt><trkpt lat="44.44255081222641" lon="6.742050868322035"><ele>1265.0</ele><time>2026-04-18T11:12:48Z</time></trkpt><trkpt lat="44.44234089153765" lon="6.742018940030314"><ele>1264.0</ele><time>2026-04-18T11:12:49Z</time></trkpt><trkpt lat="44.44214793782946" lon="6.741997088838495"><ele>1263.0</ele><time>2026-04-18T11:12:50Z</time></trkpt><trkpt lat="44.441966208075804" lon="6.741953525430562"><ele>1261.3333333333333</ele><time>2026-04-18T11:12:51Z</time></trkpt><trkpt lat="44.44180166075572" lon="6.741915225801918"><ele>1259.6666666666665</ele><time>2026-04-18T11:12:52Z</time></trkpt><trkpt lat="44.44164870752752" lon="6.741874226404879"><ele>1258.0</ele><time>2026-04-18T11:12:53Z</time></trkpt><trkpt lat="44.44150095847655" lon="6.7419090486431035"><ele>1258.0</ele><time>2026-04-18T11:12:54Z</time></trkpt><trkpt lat="44.441355694905674" lon="6.74195598726282"><ele>1258.0</ele><time>2026-04-18T11:12:55Z</time></trkpt><trkpt lat="44.44122626861962" lon="6.742118873503639"><ele>1258.0</ele><time>2026-04-18T11:12:56Z</time></trkpt><trkpt lat="44.441104678138316" lon="6.7422652381035775"><ele>1261.0</ele><time>2026-04-18T11:12:57Z</time></trkpt><trkpt lat="44.44096195083226" lon="6.742382043809036"><ele>1264.0</ele><time>2026-04-18T11:12:58Z</time></trkpt><trkpt lat="44.44079385760748" lon="6.742544414861972"><ele>1267.0</ele><time>2026-04-18T11:12:59Z</time></trkpt><trkpt lat="44.44066647540139" lon="6.742675754154401"><ele>1264.0</ele><time>2026-04-18T11:13:00Z</time></trkpt><trkpt lat="44.440527074468775" lon="6.742749653396246"><ele>1261.0</ele><time>2026-04-18T11:13:01Z</time></trkpt><trkpt lat="44.44035017449328" lon="6.742760696041864"><ele>1258.0</ele><time>2026-04-18T11:13:02Z</time></trkpt><trkpt lat="44.44015989931121" lon="6.742736163052815"><ele>1258.0</ele><time>2026-04-18T11:13:03Z</time></trkpt><trkpt lat="44.43999901291363" lon="6.74273026229958"><ele>1258.0</ele><time>2026-04-18T11:13:04Z</time></trkpt><trkpt lat="44.43985365901118" lon="6.742783557681121"><ele>1258.0</ele><time>2026-04-18T11:13:05Z</time></trkpt><trkpt lat="44.43973452385298" lon="6.742824331768254"><ele>1258.0</ele><time>2026-04-18T11:13:06Z</time></trkpt><trkpt lat="44.43961258739832" lon="6.742920079518545"><ele>1263.0</ele><time>2026-04-18T11:13:07Z</time></trkpt><trkpt lat="44.4394940840741" lon="6.74312812728171"><ele>1268.0</ele><time>2026-04-18T11:13:08Z</time></trkpt><trkpt lat="44.43939077279053" lon="6.743307473699008"><ele>1273.0</ele><time>2026-04-18T11:13:09Z</time></trkpt><trkpt lat="44.43927047195077" lon="6.743491722356806"><ele>1268.5</ele><time>2026-04-18T11:13:10Z</time></trkpt><trkpt lat="44.439203622375835" lon="6.74364658951227"><ele>1264.0</ele><time>2026-04-18T11:13:11Z</time></trkpt><trkpt lat="44.43909048796627" lon="6.743745377919742"><ele>1259.5</ele><time>2026-04-18T11:13:12Z</time></trkpt><trkpt lat="44.43895339745996" lon="6.743834301780257"><ele>1255.0</ele><time>2026-04-18T11:13:13Z</time></trkpt><trkpt lat="44.43878930015423" lon="6.743914518803731"><ele>1254.75</ele><time>2026-04-18T11:13:14Z</time></trkpt><trkpt lat="44.43865430956068" lon="6.743936863231802"><ele>1254.5</ele><time>2026-04-18T11:13:15Z</time></trkpt><trkpt lat="44.43851880911113" lon="6.743931166152171"><ele>1254.25</ele><time>2026-04-18T11:13:16Z</time></trkpt><trkpt lat="44.43839196718984" lon="6.743858879355243"><ele>1254.0</ele><time>2026-04-18T11:13:16.999Z</time></trkpt><trkpt lat="44.438187932571815" lon="6.743823381721758"><ele>1254.0</ele><time>2026-04-18T11:13:17.999Z</time></trkpt><trkpt lat="44.43804120789537" lon="6.74384880729878"><ele>1254.0</ele><time>2026-04-18T11:13:18.999Z</time></trkpt><trkpt lat="44.43789907034298" lon="6.743922850650684"><ele>1254.0</ele><time>2026-04-18T11:13:19.999Z</time></trkpt><trkpt lat="44.43774864520538" lon="6.74400870322273"><ele>1254.0</ele><time>2026-04-18T11:13:20.999Z</time></trkpt><trkpt lat="44.437603074305095" lon="6.744067233789865"><ele>1254.0</ele><time>2026-04-18T11:13:21.999Z</time></trkpt><trkpt lat="44.43748185987682" lon="6.744075789615011"><ele>1254.0</ele><time>2026-04-18T11:13:22.999Z</time></trkpt><trkpt lat="44.437331229366194" lon="6.744058039764487"><ele>1254.0</ele><time>2026-04-18T11:13:23.999Z</time></trkpt><trkpt lat="44.43717906552248" lon="6.743990711455226"><ele>1253.6666666666667</ele><time>2026-04-18T11:13:24.999Z</time></trkpt><trkpt lat="44.437022087996226" lon="6.74393572200867"><ele>1253.3333333333335</ele><time>2026-04-18T11:13:25.999Z</time></trkpt><trkpt lat="44.43683867929091" lon="6.743877280918456"><ele>1253.0</ele><time>2026-04-18T11:13:26.999Z</time></trkpt><trkpt lat="44.43666564282276" lon="6.743825933561584"><ele>1253.0</ele><time>2026-04-18T11:13:28Z</time></trkpt><trkpt lat="44.436523396572184" lon="6.743755317284397"><ele>1253.0</ele><time>2026-04-18T11:13:29Z</time></trkpt><trkpt lat="44.43637983363214" lon="6.743681364065128"><ele>1253.0</ele><time>2026-04-18T11:13:30Z</time></trkpt><trkpt lat="44.43623666200854" lon="6.743641563686805"><ele>1252.3333333333335</ele><time>2026-04-18T11:13:31Z</time></trkpt><trkpt lat="44.436086908816684" lon="6.74365530541271"><ele>1251.6666666666667</ele><time>2026-04-18T11:13:32Z</time></trkpt><trkpt lat="44.43595336400781" lon="6.743696639944083"><ele>1251.0</ele><time>2026-04-18T11:13:33Z</time></trkpt><trkpt lat="44.43582042162494" lon="6.7438367470657345"><ele>1251.0</ele><time>2026-04-18T11:13:34Z</time></trkpt><trkpt lat="44.43569996920881" lon="6.743964790879008"><ele>1251.0</ele><time>2026-04-18T11:13:35Z</time></trkpt><trkpt lat="44.43555484146537" lon="6.744027758175903"><ele>1251.0</ele><time>2026-04-18T11:13:36Z</time></trkpt><trkpt lat="44.43541028982962" lon="6.74404959459593"><ele>1251.0</ele><time>2026-04-18T11:13:37Z</time></trkpt><trkpt lat="44.435258112677026" lon="6.7440436040111065"><ele>1252.3333333333333</ele><time>2026-04-18T11:13:38Z</time></trkpt><trkpt lat="44.435089592388216" lon="6.744028265748295"><ele>1253.6666666666665</ele><time>2026-04-18T11:13:39Z</time></trkpt><trkpt lat="44.43492087065248" lon="6.744004874143043"><ele>1255.0</ele><time>2026-04-18T11:13:40Z</time></trkpt><trkpt lat="44.43475697884046" lon="6.743980959315919"><ele>1253.0</ele><time>2026-04-18T11:13:41Z</time></trkpt><trkpt lat="44.434624188635006" lon="6.743949783159331"><ele>1251.0</ele><time>2026-04-18T11:13:42Z</time></trkpt><trkpt lat="44.43449806144754" lon="6.743894366381023"><ele>1249.0</ele><time>2026-04-18T11:13:43Z</time></trkpt><trkpt lat="44.43442150148421" lon="6.743832556841333"><ele>1247.0</ele><time>2026-04-18T11:13:44Z</time></trkpt><trkpt lat="44.434332517434406" lon="6.7437017621169115"><ele>1248.3333333333335</ele><time>2026-04-18T11:13:45Z</time></trkpt><trkpt lat="44.43427893177826" lon="6.743544328327814"><ele>1249.6666666666667</ele><time>2026-04-18T11:13:46Z</time></trkpt><trkpt lat="44.4342249952341" lon="6.7433521955717"><ele>1251.0</ele><time>2026-04-18T11:13:47Z</time></trkpt><trkpt lat="44.434166488505156" lon="6.743097601561426"><ele>1251.0</ele><time>2026-04-18T11:13:48Z</time></trkpt><trkpt lat="44.43409897612031" lon="6.742873809277856"><ele>1251.0</ele><time>2026-04-18T11:13:49Z</time></trkpt><trkpt lat="44.43403725599603" lon="6.742646697624612"><ele>1251.0</ele><time>2026-04-18T11:13:50Z</time></trkpt><trkpt lat="44.43397227510394" lon="6.742391524569089"><ele>1251.3333333333333</ele><time>2026-04-18T11:13:51Z</time></trkpt><trkpt lat="44.43388093430007" lon="6.742096588756566"><ele>1251.6666666666665</ele><time>2026-04-18T11:13:52Z</time></trkpt><trkpt lat="44.433814221025514" lon="6.741835575041147"><ele>1252.0</ele><time>2026-04-18T11:13:53Z</time></trkpt><trkpt lat="44.433744387661164" lon="6.741615340901975"><ele>1249.3333333333333</ele><time>2026-04-18T11:13:54Z</time></trkpt><trkpt lat="44.43367788921401" lon="6.741388169913658"><ele>1246.6666666666667</ele><time>2026-04-18T11:13:55Z</time></trkpt><trkpt lat="44.4335895224044" lon="6.741211985763722"><ele>1244.0</ele><time>2026-04-18T11:13:56Z</time></trkpt><trkpt lat="44.43348153852106" lon="6.741038608533369"><ele>1244.0</ele><time>2026-04-18T11:13:57Z</time></trkpt><trkpt lat="44.433350829487715" lon="6.740891141462058"><ele>1244.0</ele><time>2026-04-18T11:13:58Z</time></trkpt><trkpt lat="44.433190895874056" lon="6.740744948395072"><ele>1244.0</ele><time>2026-04-18T11:13:59Z</time></trkpt><trkpt lat="44.43298935664587" lon="6.740633799379423"><ele>1242.6666666666667</ele><time>2026-04-18T11:14:00Z</time></trkpt><trkpt lat="44.43283235775432" lon="6.740515625025639"><ele>1241.3333333333333</ele><time>2026-04-18T11:14:01Z</time></trkpt><trkpt lat="44.43270500534113" lon="6.740383843538703"><ele>1240.0</ele><time>2026-04-18T11:14:02Z</time></trkpt><trkpt lat="44.43258796664468" lon="6.740228296031354"><ele>1243.3333333333333</ele><time>2026-04-18T11:14:03Z</time></trkpt><trkpt lat="44.43247481694457" lon="6.740038689972763"><ele>1246.6666666666667</ele><time>2026-04-18T11:14:04Z</time></trkpt><trkpt lat="44.43236984357178" lon="6.739833359875009"><ele>1250.0</ele><time>2026-04-18T11:14:05Z</time></trkpt><trkpt lat="44.43225848139098" lon="6.739617750092973"><ele>1247.0</ele><time>2026-04-18T11:14:06Z</time></trkpt><trkpt lat="44.43213353825414" lon="6.7393749491986705"><ele>1244.0</ele><time>2026-04-18T11:14:07Z</time></trkpt><trkpt lat="44.43202207436465" lon="6.739136426709853"><ele>1241.0</ele><time>2026-04-18T11:14:08Z</time></trkpt><trkpt lat="44.4318882573127" lon="6.738905662789903"><ele>1241.0</ele><time>2026-04-18T11:14:09Z</time></trkpt><trkpt lat="44.43173439666649" lon="6.73875121574724"><ele>1241.0</ele><time>2026-04-18T11:14:10Z</time></trkpt><trkpt lat="44.43158563535904" lon="6.738627704680088"><ele>1241.0</ele><time>2026-04-18T11:14:11Z</time></trkpt><trkpt lat="44.43145902366735" lon="6.738578083791376"><ele>1241.3333333333335</ele><time>2026-04-18T11:14:12Z</time></trkpt><trkpt lat="44.431256029095" lon="6.738528220354982"><ele>1241.6666666666667</ele><time>2026-04-18T11:14:13Z</time></trkpt><trkpt lat="44.431103659696994" lon="6.7384665313731515"><ele>1242.0</ele><time>2026-04-18T11:14:14Z</time></trkpt><trkpt lat="44.43099070743969" lon="6.738384837671639"><ele>1242.0</ele><time>2026-04-18T11:14:15Z</time></trkpt><trkpt lat="44.43086806544802" lon="6.738269488164768"><ele>1242.0</ele><time>2026-04-18T11:14:16Z</time></trkpt><trkpt lat="44.43073941355829" lon="6.738098399372833"><ele>1242.0</ele><time>2026-04-18T11:14:17Z</time></trkpt><trkpt lat="44.43064128802506" lon="6.737906368889331"><ele>1240.0</ele><time>2026-04-18T11:14:18Z</time></trkpt><trkpt lat="44.43053156189185" lon="6.737693446664742"><ele>1238.0</ele><time>2026-04-18T11:14:19Z</time></trkpt><trkpt lat="44.43042342685655" lon="6.7374866053734035"><ele>1236.0</ele><time>2026-04-18T11:14:20Z</time></trkpt><trkpt lat="44.43031198201702" lon="6.737279739277372"><ele>1236.0</ele><time>2026-04-18T11:14:21Z</time></trkpt><trkpt lat="44.43017481689231" lon="6.73705345600853"><ele>1236.0</ele><time>2026-04-18T11:14:22Z</time></trkpt><trkpt lat="44.4300498910605" lon="6.736879642074282"><ele>1236.0</ele><time>2026-04-18T11:14:23Z</time></trkpt><trkpt lat="44.429906234500066" lon="6.7367089167485545"><ele>1234.6666666666667</ele><time>2026-04-18T11:14:24Z</time></trkpt><trkpt lat="44.4297532831435" lon="6.736569799575242"><ele>1233.3333333333335</ele><time>2026-04-18T11:14:25Z</time></trkpt><trkpt lat="44.429591117973466" lon="6.736460253380772"><ele>1232.0</ele><time>2026-04-18T11:14:26Z</time></trkpt><trkpt lat="44.42940058817384" lon="6.736371411879468"><ele>1232.0</ele><time>2026-04-18T11:14:27Z</time></trkpt><trkpt lat="44.42922445369791" lon="6.736336316695642"><ele>1232.0</ele><time>2026-04-18T11:14:28Z</time></trkpt><trkpt lat="44.429038894181595" lon="6.736306519250347"><ele>1232.0</ele><time>2026-04-18T11:14:29Z</time></trkpt><trkpt lat="44.42884625768232" lon="6.736285333169701"><ele>1232.3333333333335</ele><time>2026-04-18T11:14:30Z</time></trkpt><trkpt lat="44.4286579356086" lon="6.736339129896099"><ele>1232.6666666666667</ele><time>2026-04-18T11:14:31Z</time></trkpt><trkpt lat="44.42847666932161" lon="6.736375148005617"><ele>1233.0</ele><time>2026-04-18T11:14:32Z</time></trkpt><trkpt lat="44.42829045158208" lon="6.736435363713452"><ele>1233.0</ele><time>2026-04-18T11:14:33Z</time></trkpt><trkpt lat="44.42809435935907" lon="6.736517144058722"><ele>1233.0</ele><time>2026-04-18T11:14:34Z</time></trkpt><trkpt lat="44.42790968572181" lon="6.736644181018969"><ele>1233.0</ele><time>2026-04-18T11:14:35Z</time></trkpt><trkpt lat="44.427735863856306" lon="6.736741430098466"><ele>1233.0</ele><time>2026-04-18T11:14:36Z</time></trkpt><trkpt lat="44.427553853803815" lon="6.736811143526575"><ele>1233.0</ele><time>2026-04-18T11:14:37Z</time></trkpt><trkpt lat="44.42737134913163" lon="6.736876666879435"><ele>1233.0</ele><time>2026-04-18T11:14:38Z</time></trkpt><trkpt lat="44.42718711269148" lon="6.736914603316065"><ele>1232.0</ele><time>2026-04-18T11:14:39Z</time></trkpt><trkpt lat="44.42697640412507" lon="6.736936219681152"><ele>1231.0</ele><time>2026-04-18T11:14:40Z</time></trkpt><trkpt lat="44.42677708384935" lon="6.73697257666009"><ele>1230.0</ele><time>2026-04-18T11:14:41Z</time></trkpt><trkpt lat="44.42658383677551" lon="6.73695974865883"><ele>1230.0</ele><time>2026-04-18T11:14:42Z</time></trkpt><trkpt lat="44.42639106828239" lon="6.7369759195793915"><ele>1230.0</ele><time>2026-04-18T11:14:43Z</time></trkpt><trkpt lat="44.42619284977109" lon="6.736980937596792"><ele>1230.0</ele><time>2026-04-18T11:14:44Z</time></trkpt><trkpt lat="44.42600013356285" lon="6.736990873202489"><ele>1229.6666666666667</ele><time>2026-04-18T11:14:45Z</time></trkpt><trkpt lat="44.42580232835173" lon="6.736993549130076"><ele>1229.3333333333335</ele><time>2026-04-18T11:14:46Z</time></trkpt><trkpt lat="44.42562011228408" lon="6.736988740863576"><ele>1229.0</ele><time>2026-04-18T11:14:47Z</time></trkpt><trkpt lat="44.425444209907496" lon="6.736993575849621"><ele>1229.0</ele><time>2026-04-18T11:14:48Z</time></trkpt><trkpt lat="44.42525993017839" lon="6.73700920628363"><ele>1229.0</ele><time>2026-04-18T11:14:49Z</time></trkpt><trkpt lat="44.42509090022964" lon="6.737021899610843"><ele>1229.0</ele><time>2026-04-18T11:14:50Z</time></trkpt><trkpt lat="44.424909442688126" lon="6.737033885811454"><ele>1229.0</ele><time>2026-04-18T11:14:51Z</time></trkpt><trkpt lat="44.424733203833995" lon="6.737044370312518"><ele>1229.0</ele><time>2026-04-18T11:14:52Z</time></trkpt><trkpt lat="44.42453953523267" lon="6.737078852906864"><ele>1229.0</ele><time>2026-04-18T11:14:53Z</time></trkpt><trkpt lat="44.424380499644876" lon="6.737072565377095"><ele>1229.0</ele><time>2026-04-18T11:14:54Z</time></trkpt><trkpt lat="44.4242455579969" lon="6.7370816354640315"><ele>1229.0</ele><time>2026-04-18T11:14:55Z</time></trkpt><trkpt lat="44.42409542127761" lon="6.737090288338857"><ele>1229.0</ele><time>2026-04-18T11:14:56Z</time></trkpt><trkpt lat="44.42395644631997" lon="6.7371174904881475"><ele>1229.0</ele><time>2026-04-18T11:14:57Z</time></trkpt><trkpt lat="44.42380839768861" lon="6.73713634280099"><ele>1227.75</ele><time>2026-04-18T11:14:58Z</time></trkpt><trkpt lat="44.423667799870245" lon="6.7371525693124"><ele>1226.5</ele><time>2026-04-18T11:14:59Z</time></trkpt><trkpt lat="44.423520440497086" lon="6.73715853317957"><ele>1225.25</ele><time>2026-04-18T11:15:00Z</time></trkpt><trkpt lat="44.42337154478812" lon="6.737160047737884"><ele>1224.0</ele><time>2026-04-18T11:15:01Z</time></trkpt><trkpt lat="44.42321617507395" lon="6.73715139679879"><ele>1224.0</ele><time>2026-04-18T11:15:02Z</time></trkpt><trkpt lat="44.42306336846952" lon="6.737174910906739"><ele>1224.0</ele><time>2026-04-18T11:15:03Z</time></trkpt><trkpt lat="44.4229016502455" lon="6.737168111866069"><ele>1224.0</ele><time>2026-04-18T11:15:04Z</time></trkpt><trkpt lat="44.42274200621871" lon="6.737190185327662"><ele>1225.0</ele><time>2026-04-18T11:15:05Z</time></trkpt><trkpt lat="44.42256902178492" lon="6.737196506121087"><ele>1226.0</ele><time>2026-04-18T11:15:06Z</time></trkpt><trkpt lat="44.422392583071606" lon="6.737186771219212"><ele>1227.0</ele><time>2026-04-18T11:15:07Z</time></trkpt><trkpt lat="44.42221743749499" lon="6.7371797061505045"><ele>1225.0</ele><time>2026-04-18T11:15:08Z</time></trkpt><trkpt lat="44.42205301215308" lon="6.73715649501122"><ele>1223.0</ele><time>2026-04-18T11:15:09Z</time></trkpt><trkpt lat="44.421900119599506" lon="6.73712546761237"><ele>1221.0</ele><time>2026-04-18T11:15:10Z</time></trkpt><trkpt lat="44.421738887164246" lon="6.737083048472182"><ele>1221.0</ele><time>2026-04-18T11:15:11Z</time></trkpt><trkpt lat="44.42160047842078" lon="6.737050980379025"><ele>1221.0</ele><time>2026-04-18T11:15:12Z</time></trkpt><trkpt lat="44.42146650341443" lon="6.736994913658716"><ele>1221.0</ele><time>2026-04-18T11:15:13Z</time></trkpt><trkpt lat="44.42133381145663" lon="6.7369595977838665"><ele>1221.0</ele><time>2026-04-18T11:15:14Z</time></trkpt><trkpt lat="44.421201288792844" lon="6.736910153114657"><ele>1220.5</ele><time>2026-04-18T11:15:15Z</time></trkpt><trkpt lat="44.42108089651542" lon="6.736851294320882"><ele>1220.0</ele><time>2026-04-18T11:15:16Z</time></trkpt><trkpt lat="44.42095481309585" lon="6.736813403210757"><ele>1219.5</ele><time>2026-04-18T11:15:17Z</time></trkpt><trkpt lat="44.42084364595371" lon="6.736750278851474"><ele>1219.0</ele><time>2026-04-18T11:15:18Z</time></trkpt><trkpt lat="44.42074229076379" lon="6.736686608987573"><ele>1219.0</ele><time>2026-04-18T11:15:19Z</time></trkpt><trkpt lat="44.420630050611265" lon="6.736635416968672"><ele>1219.0</ele><time>2026-04-18T11:15:20Z</time></trkpt><trkpt lat="44.42053039203155" lon="6.736568658010368"><ele>1219.0</ele><time>2026-04-18T11:15:21Z</time></trkpt><trkpt lat="44.42045627912492" lon="6.7364936246657585"><ele>1219.0</ele><time>2026-04-18T11:15:22Z</time></trkpt><trkpt lat="44.420369845892864" lon="6.736422301187394"><ele>1219.0</ele><time>2026-04-18T11:15:23Z</time></trkpt><trkpt lat="44.42029205744237" lon="6.736353318770019"><ele>1219.1666666666665</ele><time>2026-04-18T11:15:24Z</time></trkpt><trkpt lat="44.4202187045365" lon="6.736280584265386"><ele>1219.3333333333333</ele><time>2026-04-18T11:15:25Z</time></trkpt><trkpt lat="44.42016581935855" lon="6.736178958623412"><ele>1219.5</ele><time>2026-04-18T11:15:26Z</time></trkpt><trkpt lat="44.420100732618586" lon="6.736089968306208"><ele>1219.6666666666667</ele><time>2026-04-18T11:15:27Z</time></trkpt><trkpt lat="44.42008826904797" lon="6.735971459482891"><ele>1219.8333333333335</ele><time>2026-04-18T11:15:27.999Z</time></trkpt><trkpt lat="44.42007151102548" lon="6.735850795433125"><ele>1220.0</ele><time>2026-04-18T11:15:28.999Z</time></trkpt><trkpt lat="44.42007413301336" lon="6.735692726284865"><ele>1220.0</ele><time>2026-04-18T11:15:29.999Z</time></trkpt><trkpt lat="44.42012528023199" lon="6.735571660068058"><ele>1220.0</ele><time>2026-04-18T11:15:30.999Z</time></trkpt><trkpt lat="44.42010692059321" lon="6.735462470647842"><ele>1220.0</ele><time>2026-04-18T11:15:31.999Z</time></trkpt><trkpt lat="44.42006929349114" lon="6.735350695254833"><ele>1220.0</ele><time>2026-04-18T11:15:32.999Z</time></trkpt><trkpt lat="44.42003731650795" lon="6.735247163303484"><ele>1220.0</ele><time>2026-04-18T11:15:34Z</time></trkpt><trkpt lat="44.42000262810038" lon="6.735134013789276"><ele>1220.0</ele><time>2026-04-18T11:15:35Z</time></trkpt><trkpt lat="44.41994838283003" lon="6.7350023133014485"><ele>1220.0</ele><time>2026-04-18T11:15:36Z</time></trkpt><trkpt lat="44.419900128510974" lon="6.734882922238351"><ele>1220.0</ele><time>2026-04-18T11:15:37Z</time></trkpt><trkpt lat="44.41987370149941" lon="6.7347676672112256"><ele>1220.0</ele><time>2026-04-18T11:15:38Z</time></trkpt><trkpt lat="44.4198455995377" lon="6.734651538418404"><ele>1220.0</ele><time>2026-04-18T11:15:39Z</time></trkpt><trkpt lat="44.419806631966495" lon="6.734549573389678"><ele>1220.0</ele><time>2026-04-18T11:15:40Z</time></trkpt><trkpt lat="44.41977158388418" lon="6.734460939665626"><ele>1220.0</ele><time>2026-04-18T11:15:41Z</time></trkpt><trkpt lat="44.41972031653967" lon="6.734363106455804"><ele>1220.3333333333335</ele><time>2026-04-18T11:15:42Z</time></trkpt><trkpt lat="44.41967256657995" lon="6.7342710823401735"><ele>1220.6666666666667</ele><time>2026-04-18T11:15:43Z</time></trkpt><trkpt lat="44.41963359334498" lon="6.7341991674189785"><ele>1221.0</ele><time>2026-04-18T11:15:44Z</time></trkpt><trkpt lat="44.4195618155206" lon="6.734056614852007"><ele>1221.3333333333333</ele><time>2026-04-18T11:15:46Z</time></trkpt><trkpt lat="44.41954245113631" lon="6.733963184463246"><ele>1221.6666666666665</ele><time>2026-04-18T11:15:47Z</time></trkpt><trkpt lat="44.41950479568437" lon="6.733879958929113"><ele>1222.0</ele><time>2026-04-18T11:15:48Z</time></trkpt><trkpt lat="44.41947088792423" lon="6.733791381179906"><ele>1222.0000000000002</ele><time>2026-04-18T11:15:49Z</time></trkpt><trkpt lat="44.4194387103957" lon="6.733708542926609"><ele>1222.0</ele><time>2026-04-18T11:15:50Z</time></trkpt><trkpt lat="44.41938683278755" lon="6.733625672283909"><ele>1222.0</ele><time>2026-04-18T11:15:51Z</time></trkpt><trkpt lat="44.41933675046852" lon="6.733566719281999"><ele>1222.0</ele><time>2026-04-18T11:15:52Z</time></trkpt><trkpt lat="44.4192792912415" lon="6.733513791385321"><ele>1222.0</ele><time>2026-04-18T11:15:53Z</time></trkpt><trkpt lat="44.4192073114906" lon="6.733483702569478"><ele>1222.0000000000002</ele><time>2026-04-18T11:15:54Z</time></trkpt><trkpt lat="44.41913561642278" lon="6.733427170631669"><ele>1222.0</ele><time>2026-04-18T11:15:55Z</time></trkpt><trkpt lat="44.41907374941834" lon="6.7333791173892905"><ele>1221.4</ele><time>2026-04-18T11:15:56Z</time></trkpt><trkpt lat="44.418997850319336" lon="6.733319789787079"><ele>1220.8000000000002</ele><time>2026-04-18T11:15:57Z</time></trkpt><trkpt lat="44.41891710169477" lon="6.733251550684649"><ele>1220.2</ele><time>2026-04-18T11:15:58Z</time></trkpt><trkpt lat="44.41883895047123" lon="6.733181867064579"><ele>1219.6000000000001</ele><time>2026-04-18T11:15:59Z</time></trkpt><trkpt lat="44.4187773867138" lon="6.733092086767675"><ele>1219.0</ele><time>2026-04-18T11:16:00Z</time></trkpt><trkpt lat="44.41871963780048" lon="6.732955668040106"><ele>1218.75</ele><time>2026-04-18T11:16:01Z</time></trkpt><trkpt lat="44.4187018349979" lon="6.732815672430743"><ele>1218.5</ele><time>2026-04-18T11:16:02Z</time></trkpt><trkpt lat="44.41866640340968" lon="6.732642510074196"><ele>1218.25</ele><time>2026-04-18T11:16:03Z</time></trkpt><trkpt lat="44.41863044991279" lon="6.732475509010291"><ele>1218.0</ele><time>2026-04-18T11:16:04Z</time></trkpt><trkpt lat="44.418582869834665" lon="6.7322556869114525"><ele>1217.25</ele><time>2026-04-18T11:16:05Z</time></trkpt><trkpt lat="44.41854504779935" lon="6.732080946263806"><ele>1216.5</ele><time>2026-04-18T11:16:06Z</time></trkpt><trkpt lat="44.41849968005773" lon="6.731877075199817"><ele>1215.75</ele><time>2026-04-18T11:16:07Z</time></trkpt><trkpt lat="44.41845985882255" lon="6.731701900573109"><ele>1215.0</ele><time>2026-04-18T11:16:08Z</time></trkpt><trkpt lat="44.41841399165703" lon="6.731505566944609"><ele>1215.2</ele><time>2026-04-18T11:16:09Z</time></trkpt><trkpt lat="44.418373833519574" lon="6.7313496570254046"><ele>1215.4</ele><time>2026-04-18T11:16:10Z</time></trkpt><trkpt lat="44.418327704388055" lon="6.73120685126673"><ele>1215.6</ele><time>2026-04-18T11:16:11Z</time></trkpt><trkpt lat="44.41828640504569" lon="6.731103670931973"><ele>1215.8</ele><time>2026-04-18T11:16:12Z</time></trkpt><trkpt lat="44.418242854070066" lon="6.731006169286604"><ele>1216.0</ele><time>2026-04-18T11:16:13Z</time></trkpt><trkpt lat="44.418188334978176" lon="6.7308997226017935"><ele>1216.0</ele><time>2026-04-18T11:16:14Z</time></trkpt><trkpt lat="44.41812314505419" lon="6.730786147219082"><ele>1216.0</ele><time>2026-04-18T11:16:15Z</time></trkpt><trkpt lat="44.418048631392566" lon="6.730677415234146"><ele>1216.0</ele><time>2026-04-18T11:16:16Z</time></trkpt><trkpt lat="44.41797802494703" lon="6.730576208675749"><ele>1216.0</ele><time>2026-04-18T11:16:17Z</time></trkpt><trkpt lat="44.417908239011254" lon="6.730473432652383"><ele>1216.0</ele><time>2026-04-18T11:16:18Z</time></trkpt><trkpt lat="44.417835602355865" lon="6.73036832496506"><ele>1215.25</ele><time>2026-04-18T11:16:19Z</time></trkpt><trkpt lat="44.41775987193184" lon="6.730256619080194"><ele>1214.5</ele><time>2026-04-18T11:16:20Z</time></trkpt><trkpt lat="44.41767558685315" lon="6.730132911727972"><ele>1213.75</ele><time>2026-04-18T11:16:21Z</time></trkpt><trkpt lat="44.41757605295328" lon="6.730020370523313"><ele>1213.0</ele><time>2026-04-18T11:16:22Z</time></trkpt><trkpt lat="44.41748493252977" lon="6.72988299756629"><ele>1212.75</ele><time>2026-04-18T11:16:23Z</time></trkpt><trkpt lat="44.41740301045332" lon="6.7297543160903945"><ele>1212.5</ele><time>2026-04-18T11:16:24Z</time></trkpt><trkpt lat="44.41731314169534" lon="6.7296241856454015"><ele>1212.25</ele><time>2026-04-18T11:16:25Z</time></trkpt><trkpt lat="44.41723020667231" lon="6.72950110182749"><ele>1212.0</ele><time>2026-04-18T11:16:26Z</time></trkpt><trkpt lat="44.417152877868716" lon="6.7293777629725"><ele>1212.5</ele><time>2026-04-18T11:16:27Z</time></trkpt><trkpt lat="44.417080185475" lon="6.729228571292414"><ele>1213.0</ele><time>2026-04-18T11:16:28Z</time></trkpt><trkpt lat="44.416992171848385" lon="6.729108944962332"><ele>1213.5</ele><time>2026-04-18T11:16:29Z</time></trkpt><trkpt lat="44.41690522782005" lon="6.728987402699075"><ele>1214.0</ele><time>2026-04-18T11:16:30Z</time></trkpt><trkpt lat="44.41680970699322" lon="6.728860350411263"><ele>1214.0</ele><time>2026-04-18T11:16:31Z</time></trkpt><trkpt lat="44.416706517260224" lon="6.7287439638182365"><ele>1214.0</ele><time>2026-04-18T11:16:32Z</time></trkpt><trkpt lat="44.41659101228239" lon="6.7286413615163765"><ele>1214.0</ele><time>2026-04-18T11:16:33Z</time></trkpt><trkpt lat="44.41647479868955" lon="6.728561177991341"><ele>1214.0</ele><time>2026-04-18T11:16:34Z</time></trkpt><trkpt lat="44.416365009938474" lon="6.728492871624058"><ele>1214.5</ele><time>2026-04-18T11:16:35Z</time></trkpt><trkpt lat="44.41625858657476" lon="6.728411623997717"><ele>1215.0</ele><time>2026-04-18T11:16:36Z</time></trkpt><trkpt lat="44.416143648871326" lon="6.728359546229463"><ele>1215.5</ele><time>2026-04-18T11:16:37Z</time></trkpt><trkpt lat="44.41601919400211" lon="6.728332160133632"><ele>1216.0</ele><time>2026-04-18T11:16:38Z</time></trkpt><trkpt lat="44.41590411741641" lon="6.72830435447707"><ele>1216.0</ele><time>2026-04-18T11:16:39Z</time></trkpt><trkpt lat="44.415786350178024" lon="6.728274408432482"><ele>1216.0</ele><time>2026-04-18T11:16:40Z</time></trkpt><trkpt lat="44.41567194873798" lon="6.728241107950868"><ele>1216.0</ele><time>2026-04-18T11:16:41Z</time></trkpt><trkpt lat="44.41555995523326" lon="6.728220032998444"><ele>1216.0</ele><time>2026-04-18T11:16:42Z</time></trkpt><trkpt lat="44.415440947817864" lon="6.728206151098815"><ele>1216.0</ele><time>2026-04-18T11:16:43Z</time></trkpt><trkpt lat="44.41532562365287" lon="6.728184227750368"><ele>1216.0</ele><time>2026-04-18T11:16:44Z</time></trkpt><trkpt lat="44.41520334580991" lon="6.728178077347915"><ele>1216.0</ele><time>2026-04-18T11:16:45Z</time></trkpt><trkpt lat="44.41507157865638" lon="6.728216971942825"><ele>1216.0</ele><time>2026-04-18T11:16:46Z</time></trkpt><trkpt lat="44.4149451005725" lon="6.7282540531003034"><ele>1216.0</ele><time>2026-04-18T11:16:47Z</time></trkpt><trkpt lat="44.41481941933475" lon="6.72831027058082"><ele>1216.0</ele><time>2026-04-18T11:16:48Z</time></trkpt><trkpt lat="44.41468196164506" lon="6.72837987724281"><ele>1216.0</ele><time>2026-04-18T11:16:49Z</time></trkpt><trkpt lat="44.41454055120773" lon="6.728440580086785"><ele>1216.0</ele><time>2026-04-18T11:16:50Z</time></trkpt><trkpt lat="44.414408711418936" lon="6.728484639576548"><ele>1216.25</ele><time>2026-04-18T11:16:51Z</time></trkpt><trkpt lat="44.414279739400065" lon="6.728533259368249"><ele>1216.5</ele><time>2026-04-18T11:16:52Z</time></trkpt><trkpt lat="44.41416420854868" lon="6.728590915051633"><ele>1216.75</ele><time>2026-04-18T11:16:53Z</time></trkpt><trkpt lat="44.41404429611726" lon="6.728650678007241"><ele>1217.0</ele><time>2026-04-18T11:16:54Z</time></trkpt><trkpt lat="44.41392980481148" lon="6.728699384691819"><ele>1216.5</ele><time>2026-04-18T11:16:55Z</time></trkpt><trkpt lat="44.41381489886133" lon="6.728732699341036"><ele>1216.0</ele><time>2026-04-18T11:16:56Z</time></trkpt><trkpt lat="44.41370035874334" lon="6.728781748423604"><ele>1215.5</ele><time>2026-04-18T11:16:57Z</time></trkpt><trkpt lat="44.41359830983113" lon="6.72882089768964"><ele>1215.0</ele><time>2026-04-18T11:16:58Z</time></trkpt><trkpt lat="44.413496062301064" lon="6.72887915480111"><ele>1215.0</ele><time>2026-04-18T11:16:59Z</time></trkpt><trkpt lat="44.41337102853801" lon="6.728931234485206"><ele>1215.0</ele><time>2026-04-18T11:17:00Z</time></trkpt><trkpt lat="44.41326148238803" lon="6.728953986604718"><ele>1215.0</ele><time>2026-04-18T11:17:01Z</time></trkpt><trkpt lat="44.41314294805675" lon="6.7289801368386275"><ele>1215.0</ele><time>2026-04-18T11:17:02Z</time></trkpt><trkpt lat="44.413028412608845" lon="6.7290090591278915"><ele>1214.75</ele><time>2026-04-18T11:17:03Z</time></trkpt><trkpt lat="44.41290720181018" lon="6.729025879068135"><ele>1214.5</ele><time>2026-04-18T11:17:04Z</time></trkpt><trkpt lat="44.412784376056266" lon="6.729025245232096"><ele>1214.25</ele><time>2026-04-18T11:17:05Z</time></trkpt><trkpt lat="44.41266061281321" lon="6.729016598255744"><ele>1214.0</ele><time>2026-04-18T11:17:06Z</time></trkpt><trkpt lat="44.412532439025405" lon="6.728986463776515"><ele>1214.0</ele><time>2026-04-18T11:17:07Z</time></trkpt><trkpt lat="44.412389996103244" lon="6.728954610619574"><ele>1214.0</ele><time>2026-04-18T11:17:08Z</time></trkpt><trkpt lat="44.412259462511756" lon="6.728919362095533"><ele>1214.0</ele><time>2026-04-18T11:17:09Z</time></trkpt><trkpt lat="44.41213020826592" lon="6.728883596371577"><ele>1214.0</ele><time>2026-04-18T11:17:10Z</time></trkpt><trkpt lat="44.411977220562875" lon="6.728838972193091"><ele>1213.3333333333335</ele><time>2026-04-18T11:17:11Z</time></trkpt><trkpt lat="44.411827259546776" lon="6.728814868881452"><ele>1212.6666666666667</ele><time>2026-04-18T11:17:12Z</time></trkpt><trkpt lat="44.41168158976315" lon="6.728769226644199"><ele>1212.0</ele><time>2026-04-18T11:17:13Z</time></trkpt><trkpt lat="44.41153428859051" lon="6.7287064042727485"><ele>1212.0</ele><time>2026-04-18T11:17:14Z</time></trkpt><trkpt lat="44.41137374747577" lon="6.728670385855601"><ele>1212.0</ele><time>2026-04-18T11:17:15Z</time></trkpt><trkpt lat="44.41121532973392" lon="6.728608911122266"><ele>1212.0</ele><time>2026-04-18T11:17:16Z</time></trkpt><trkpt lat="44.41106498383212" lon="6.7285242005029575"><ele>1213.3333333333333</ele><time>2026-04-18T11:17:17Z</time></trkpt><trkpt lat="44.41091186918521" lon="6.7284447754800025"><ele>1214.6666666666665</ele><time>2026-04-18T11:17:18Z</time></trkpt><trkpt lat="44.41074809729203" lon="6.728338949028599"><ele>1216.0</ele><time>2026-04-18T11:17:19Z</time></trkpt><trkpt lat="44.410592693659574" lon="6.728224704313575"><ele>1214.6666666666665</ele><time>2026-04-18T11:17:20Z</time></trkpt><trkpt lat="44.41045395913139" lon="6.728111929332978"><ele>1213.3333333333333</ele><time>2026-04-18T11:17:21Z</time></trkpt><trkpt lat="44.410314506452714" lon="6.728005682962712"><ele>1212.0</ele><time>2026-04-18T11:17:22Z</time></trkpt><trkpt lat="44.410192575961524" lon="6.727852491616447"><ele>1213.3333333333333</ele><time>2026-04-18T11:17:23Z</time></trkpt><trkpt lat="44.41006790241228" lon="6.727719405499625"><ele>1214.6666666666665</ele><time>2026-04-18T11:17:24Z</time></trkpt><trkpt lat="44.40995123585379" lon="6.72758754113826"><ele>1216.0</ele><time>2026-04-18T11:17:25Z</time></trkpt><trkpt lat="44.40984737907377" lon="6.727444627046476"><ele>1216.0</ele><time>2026-04-18T11:17:26Z</time></trkpt><trkpt lat="44.40974187242004" lon="6.727292776234016"><ele>1216.0</ele><time>2026-04-18T11:17:27Z</time></trkpt><trkpt lat="44.40962718246484" lon="6.727153659832302"><ele>1216.0</ele><time>2026-04-18T11:17:28Z</time></trkpt><trkpt lat="44.40951144372055" lon="6.726999917199219"><ele>1214.6666666666665</ele><time>2026-04-18T11:17:29Z</time></trkpt><trkpt lat="44.40940532198685" lon="6.726834122011471"><ele>1213.3333333333333</ele><time>2026-04-18T11:17:30Z</time></trkpt><trkpt lat="44.40929981197736" lon="6.726670280296695"><ele>1212.0</ele><time>2026-04-18T11:17:30.999Z</time></trkpt><trkpt lat="44.409192800200834" lon="6.726488674972852"><ele>1212.0</ele><time>2026-04-18T11:17:31.999Z</time></trkpt><trkpt lat="44.40908780898365" lon="6.726303709275309"><ele>1212.0</ele><time>2026-04-18T11:17:32.999Z</time></trkpt><trkpt lat="44.408981429987996" lon="6.726101646192286"><ele>1212.0</ele><time>2026-04-18T11:17:33.999Z</time></trkpt><trkpt lat="44.40888072643581" lon="6.725864776008308"><ele>1212.0</ele><time>2026-04-18T11:17:34.999Z</time></trkpt><trkpt lat="44.40876797113221" lon="6.725624805406647"><ele>1212.0</ele><time>2026-04-18T11:17:35.999Z</time></trkpt><trkpt lat="44.408647842863324" lon="6.725367041138793"><ele>1212.0</ele><time>2026-04-18T11:17:36.999Z</time></trkpt><trkpt lat="44.40852190231468" lon="6.725094835552664"><ele>1212.0</ele><time>2026-04-18T11:17:37.999Z</time></trkpt><trkpt lat="44.408400473240825" lon="6.72483238060943"><ele>1212.0</ele><time>2026-04-18T11:17:38.999Z</time></trkpt><trkpt lat="44.408276809565564" lon="6.72456487626137"><ele>1213.0</ele><time>2026-04-18T11:17:40Z</time></trkpt><trkpt lat="44.40814419362756" lon="6.724276062233492"><ele>1214.0</ele><time>2026-04-18T11:17:41Z</time></trkpt><trkpt lat="44.408007155081776" lon="6.723977616567282"><ele>1212.0</ele><time>2026-04-18T11:17:42Z</time></trkpt><trkpt lat="44.40786958176953" lon="6.723682024900938"><ele>1210.0</ele><time>2026-04-18T11:17:43Z</time></trkpt><trkpt lat="44.40772400785846" lon="6.723403517184944"><ele>1210.0</ele><time>2026-04-18T11:17:44Z</time></trkpt><trkpt lat="44.407602841646266" lon="6.723131731106275"><ele>1210.0</ele><time>2026-04-18T11:17:45Z</time></trkpt><trkpt lat="44.4074793496952" lon="6.722873650171934"><ele>1210.6666666666665</ele><time>2026-04-18T11:17:46Z</time></trkpt><trkpt lat="44.40735632123701" lon="6.722621180421529"><ele>1211.3333333333333</ele><time>2026-04-18T11:17:47Z</time></trkpt><trkpt lat="44.40724221403724" lon="6.7223863487108915"><ele>1212.0</ele><time>2026-04-18T11:17:48Z</time></trkpt><trkpt lat="44.407146799643265" lon="6.722149332318031"><ele>1211.3333333333333</ele><time>2026-04-18T11:17:49Z</time></trkpt><trkpt lat="44.407063412620175" lon="6.72190167568517"><ele>1210.6666666666665</ele><time>2026-04-18T11:17:50Z</time></trkpt><trkpt lat="44.40698703095954" lon="6.721641698971681"><ele>1210.0</ele><time>2026-04-18T11:17:51Z</time></trkpt><trkpt lat="44.40690023907886" lon="6.721375523218364"><ele>1210.0</ele><time>2026-04-18T11:17:52Z</time></trkpt><trkpt lat="44.40681504836618" lon="6.721100886137106"><ele>1210.0</ele><time>2026-04-18T11:17:53Z</time></trkpt><trkpt lat="44.40673969718502" lon="6.720829983565559"><ele>1210.0</ele><time>2026-04-18T11:17:54Z</time></trkpt><trkpt lat="44.40666143573952" lon="6.720570693961259"><ele>1210.3333333333333</ele><time>2026-04-18T11:17:55Z</time></trkpt><trkpt lat="44.40657793891495" lon="6.720318724544074"><ele>1210.6666666666667</ele><time>2026-04-18T11:17:56Z</time></trkpt><trkpt lat="44.406499027552215" lon="6.720063425265428"><ele>1211.0</ele><time>2026-04-18T11:17:57Z</time></trkpt><trkpt lat="44.40641264288792" lon="6.719798898478004"><ele>1211.3333333333335</ele><time>2026-04-18T11:17:58Z</time></trkpt><trkpt lat="44.40633611390282" lon="6.719547567218945"><ele>1211.6666666666667</ele><time>2026-04-18T11:17:59Z</time></trkpt><trkpt lat="44.40627264347303" lon="6.719281052795985"><ele>1212.0</ele><time>2026-04-18T11:18:00Z</time></trkpt><trkpt lat="44.406195066833924" lon="6.71902482770558"><ele>1209.0</ele><time>2026-04-18T11:18:01Z</time></trkpt><trkpt lat="44.40610271238256" lon="6.718781900177511"><ele>1206.0</ele><time>2026-04-18T11:18:02Z</time></trkpt><trkpt lat="44.40603104553149" lon="6.718533765891129"><ele>1203.0</ele><time>2026-04-18T11:18:03Z</time></trkpt><trkpt lat="44.40596008914224" lon="6.718288854253031"><ele>1202.6666666666667</ele><time>2026-04-18T11:18:04Z</time></trkpt><trkpt lat="44.40589410842646" lon="6.718059955705253"><ele>1202.3333333333335</ele><time>2026-04-18T11:18:05Z</time></trkpt><trkpt lat="44.40585883416855" lon="6.717811399129464"><ele>1202.0</ele><time>2026-04-18T11:18:06Z</time></trkpt><trkpt lat="44.40580785096984" lon="6.717555286826947"><ele>1203.0</ele><time>2026-04-18T11:18:07Z</time></trkpt><trkpt lat="44.405760264675436" lon="6.717287598681698"><ele>1204.0</ele><time>2026-04-18T11:18:08Z</time></trkpt><trkpt lat="44.40572641694271" lon="6.717012881766848"><ele>1205.0</ele><time>2026-04-18T11:18:09Z</time></trkpt><trkpt lat="44.40567958114807" lon="6.716748863462711"><ele>1205.0</ele><time>2026-04-18T11:18:10Z</time></trkpt><trkpt lat="44.40564738016976" lon="6.716468726138521"><ele>1205.0</ele><time>2026-04-18T11:18:11Z</time></trkpt><trkpt lat="44.405596975433035" lon="6.716211401179354"><ele>1205.0</ele><time>2026-04-18T11:18:12Z</time></trkpt><trkpt lat="44.405559453276375" lon="6.715955289687762"><ele>1204.6666666666667</ele><time>2026-04-18T11:18:13Z</time></trkpt><trkpt lat="44.40551570152307" lon="6.715699505327864"><ele>1204.3333333333333</ele><time>2026-04-18T11:18:14Z</time></trkpt><trkpt lat="44.40549381802536" lon="6.715445809030539"><ele>1204.0</ele><time>2026-04-18T11:18:15Z</time></trkpt><trkpt lat="44.40544594861455" lon="6.715213065918687"><ele>1200.0</ele><time>2026-04-18T11:18:16Z</time></trkpt><trkpt lat="44.40541387813369" lon="6.7149711584283605"><ele>1196.0</ele><time>2026-04-18T11:18:17Z</time></trkpt><trkpt lat="44.405380416065356" lon="6.714726751750577"><ele>1192.0</ele><time>2026-04-18T11:18:18Z</time></trkpt><trkpt lat="44.40533918141683" lon="6.714481449984306"><ele>1192.0</ele><time>2026-04-18T11:18:19Z</time></trkpt><trkpt lat="44.40530170934302" lon="6.714247586874214"><ele>1192.0</ele><time>2026-04-18T11:18:20Z</time></trkpt><trkpt lat="44.40525777732058" lon="6.7140192477052665"><ele>1192.0</ele><time>2026-04-18T11:18:21Z</time></trkpt><trkpt lat="44.405222261409676" lon="6.713789053084946"><ele>1192.0</ele><time>2026-04-18T11:18:22Z</time></trkpt><trkpt lat="44.405188707385044" lon="6.713561205819694"><ele>1192.0</ele><time>2026-04-18T11:18:23Z</time></trkpt><trkpt lat="44.405157944656345" lon="6.713324561214411"><ele>1192.0</ele><time>2026-04-18T11:18:24Z</time></trkpt><trkpt lat="44.40511926499539" lon="6.713081382654665"><ele>1192.0</ele><time>2026-04-18T11:18:25Z</time></trkpt><trkpt lat="44.40507504493386" lon="6.712841398828825"><ele>1192.0</ele><time>2026-04-18T11:18:26Z</time></trkpt><trkpt lat="44.40505163979472" lon="6.712597629444014"><ele>1192.0</ele><time>2026-04-18T11:18:27Z</time></trkpt><trkpt lat="44.405013280629596" lon="6.712354278099908"><ele>1192.3333333333333</ele><time>2026-04-18T11:18:28Z</time></trkpt><trkpt lat="44.40497470237516" lon="6.71210953686721"><ele>1192.6666666666667</ele><time>2026-04-18T11:18:29Z</time></trkpt><trkpt lat="44.40491882852522" lon="6.711879081852397"><ele>1193.0</ele><time>2026-04-18T11:18:30Z</time></trkpt><trkpt lat="44.404886617849" lon="6.711645846864959"><ele>1193.0</ele><time>2026-04-18T11:18:31Z</time></trkpt><trkpt lat="44.40486621176486" lon="6.711409419777261"><ele>1193.0</ele><time>2026-04-18T11:18:32Z</time></trkpt><trkpt lat="44.40484771341383" lon="6.711168575833684"><ele>1193.0</ele><time>2026-04-18T11:18:33Z</time></trkpt><trkpt lat="44.4048506995724" lon="6.710920046376864"><ele>1192.3333333333335</ele><time>2026-04-18T11:18:34Z</time></trkpt><trkpt lat="44.40485240353315" lon="6.710661676843019"><ele>1191.6666666666667</ele><time>2026-04-18T11:18:35Z</time></trkpt><trkpt lat="44.40484985484592" lon="6.710397279726887"><ele>1191.0</ele><time>2026-04-18T11:18:36Z</time></trkpt><trkpt lat="44.40485201972824" lon="6.710131631316045"><ele>1191.0</ele><time>2026-04-18T11:18:37Z</time></trkpt><trkpt lat="44.40485217244142" lon="6.709865454583191"><ele>1191.0</ele><time>2026-04-18T11:18:38Z</time></trkpt><trkpt lat="44.404857478915886" lon="6.709606367076742"><ele>1191.0</ele><time>2026-04-18T11:18:39Z</time></trkpt><trkpt lat="44.40485249461817" lon="6.70932970012467"><ele>1190.3333333333333</ele><time>2026-04-18T11:18:40Z</time></trkpt><trkpt lat="44.404847797438805" lon="6.709048751229538"><ele>1189.6666666666665</ele><time>2026-04-18T11:18:41Z</time></trkpt><trkpt lat="44.40484856048309" lon="6.708781986794434"><ele>1189.0</ele><time>2026-04-18T11:18:42Z</time></trkpt><trkpt lat="44.40484962305189" lon="6.708511242216615"><ele>1187.6666666666665</ele><time>2026-04-18T11:18:43Z</time></trkpt><trkpt lat="44.40484508009074" lon="6.708242975545493"><ele>1186.3333333333333</ele><time>2026-04-18T11:18:44Z</time></trkpt><trkpt lat="44.40484953705883" lon="6.70797973381611"><ele>1185.0</ele><time>2026-04-18T11:18:45Z</time></trkpt><trkpt lat="44.40484550049685" lon="6.707707651858445"><ele>1184.3333333333333</ele><time>2026-04-18T11:18:46Z</time></trkpt><trkpt lat="44.40484263783632" lon="6.707442007856738"><ele>1183.6666666666665</ele><time>2026-04-18T11:18:47Z</time></trkpt><trkpt lat="44.404844752047325" lon="6.707184480776574"><ele>1183.0</ele><time>2026-04-18T11:18:48Z</time></trkpt><trkpt lat="44.40484039356877" lon="6.706928015488057"><ele>1182.0</ele><time>2026-04-18T11:18:49Z</time></trkpt><trkpt lat="44.404827263953976" lon="6.706666069206899"><ele>1181.0</ele><time>2026-04-18T11:18:50Z</time></trkpt><trkpt lat="44.40484318103418" lon="6.706419450231376"><ele>1180.0</ele><time>2026-04-18T11:18:51Z</time></trkpt><trkpt lat="44.40484406865562" lon="6.706168175724484"><ele>1179.0</ele><time>2026-04-18T11:18:52Z</time></trkpt><trkpt lat="44.4048383892637" lon="6.7059276323109005"><ele>1178.0</ele><time>2026-04-18T11:18:53Z</time></trkpt><trkpt lat="44.40482994046077" lon="6.705703668149698"><ele>1177.0</ele><time>2026-04-18T11:18:54Z</time></trkpt><trkpt lat="44.404767792290045" lon="6.7054706498798335"><ele>1177.0</ele><time>2026-04-18T11:18:55Z</time></trkpt><trkpt lat="44.40472428438599" lon="6.705258090967581"><ele>1177.0</ele><time>2026-04-18T11:18:56Z</time></trkpt><trkpt lat="44.40467752380493" lon="6.70504024835708"><ele>1177.0</ele><time>2026-04-18T11:18:57Z</time></trkpt><trkpt lat="44.40463021731826" lon="6.704831622902971"><ele>1178.3333333333333</ele><time>2026-04-18T11:18:58Z</time></trkpt><trkpt lat="44.40457686897685" lon="6.704613635761058"><ele>1179.6666666666667</ele><time>2026-04-18T11:18:59Z</time></trkpt><trkpt lat="44.404519451727424" lon="6.704392447421178"><ele>1181.0</ele><time>2026-04-18T11:19:00Z</time></trkpt><trkpt lat="44.404452205322634" lon="6.704171299865085"><ele>1181.0</ele><time>2026-04-18T11:19:01Z</time></trkpt><trkpt lat="44.4043979709914" lon="6.70394824626938"><ele>1181.0</ele><time>2026-04-18T11:19:02Z</time></trkpt><trkpt lat="44.40433684155688" lon="6.703734589579146"><ele>1181.0</ele><time>2026-04-18T11:19:03Z</time></trkpt><trkpt lat="44.40427121054756" lon="6.703501193911998"><ele>1181.0</ele><time>2026-04-18T11:19:04Z</time></trkpt><trkpt lat="44.40422243814181" lon="6.703286626410981"><ele>1181.0</ele><time>2026-04-18T11:19:05Z</time></trkpt><trkpt lat="44.40415328207836" lon="6.703056806255068"><ele>1181.0</ele><time>2026-04-18T11:19:06Z</time></trkpt><trkpt lat="44.40409654649135" lon="6.702840333446925"><ele>1181.6666666666667</ele><time>2026-04-18T11:19:07Z</time></trkpt><trkpt lat="44.40403630343983" lon="6.7026158351008815"><ele>1182.3333333333333</ele><time>2026-04-18T11:19:08Z</time></trkpt><trkpt lat="44.40398044981393" lon="6.702421827828703"><ele>1183.0</ele><time>2026-04-18T11:19:09Z</time></trkpt><trkpt lat="44.40389530057804" lon="6.702230626438447"><ele>1182.3333333333333</ele><time>2026-04-18T11:19:10Z</time></trkpt><trkpt lat="44.40378933661579" lon="6.702067028479599"><ele>1181.6666666666667</ele><time>2026-04-18T11:19:11Z</time></trkpt><trkpt lat="44.40366442481185" lon="6.701944545231441"><ele>1181.0</ele><time>2026-04-18T11:19:12Z</time></trkpt><trkpt lat="44.40352170977407" lon="6.701811846152614"><ele>1183.0</ele><time>2026-04-18T11:19:13Z</time></trkpt><trkpt lat="44.40335831847906" lon="6.701726221892345"><ele>1185.0</ele><time>2026-04-18T11:19:14Z</time></trkpt><trkpt lat="44.40319476856339" lon="6.7016619336357"><ele>1187.0</ele><time>2026-04-18T11:19:15Z</time></trkpt><trkpt lat="44.40301054930451" lon="6.701662426487485"><ele>1187.6666666666667</ele><time>2026-04-18T11:19:16Z</time></trkpt><trkpt lat="44.402847679229865" lon="6.701601577172409"><ele>1188.3333333333333</ele><time>2026-04-18T11:19:17Z</time></trkpt><trkpt lat="44.40268277770733" lon="6.701550671955535"><ele>1189.0</ele><time>2026-04-18T11:19:18Z</time></trkpt><trkpt lat="44.4025280414007" lon="6.70149994809101"><ele>1189.0</ele><time>2026-04-18T11:19:19Z</time></trkpt><trkpt lat="44.402373136366755" lon="6.701445736159522"><ele>1189.0</ele><time>2026-04-18T11:19:20Z</time></trkpt><trkpt lat="44.40223871829334" lon="6.701391972797391"><ele>1189.0</ele><time>2026-04-18T11:19:21Z</time></trkpt><trkpt lat="44.402117503580904" lon="6.701271307709517"><ele>1189.0</ele><time>2026-04-18T11:19:22Z</time></trkpt><trkpt lat="44.40201437388779" lon="6.701140398977427"><ele>1188.3333333333333</ele><time>2026-04-18T11:19:23Z</time></trkpt><trkpt lat="44.40189639284293" lon="6.7009754820881975"><ele>1187.6666666666667</ele><time>2026-04-18T11:19:24Z</time></trkpt><trkpt lat="44.40181151352131" lon="6.700778667004169"><ele>1187.0</ele><time>2026-04-18T11:19:25Z</time></trkpt><trkpt lat="44.401712525311886" lon="6.700558174524746"><ele>1187.0</ele><time>2026-04-18T11:19:26Z</time></trkpt><trkpt lat="44.40164703561386" lon="6.700312153484908"><ele>1187.0</ele><time>2026-04-18T11:19:27Z</time></trkpt><trkpt lat="44.40155802122152" lon="6.700085220433834"><ele>1187.0</ele><time>2026-04-18T11:19:28Z</time></trkpt><trkpt lat="44.401471417630006" lon="6.699828554720211"><ele>1187.6666666666667</ele><time>2026-04-18T11:19:29Z</time></trkpt><trkpt lat="44.40138522610955" lon="6.6995718003295"><ele>1188.3333333333333</ele><time>2026-04-18T11:19:30Z</time></trkpt><trkpt lat="44.40129751644548" lon="6.699319435769455"><ele>1189.0</ele><time>2026-04-18T11:19:31Z</time></trkpt><trkpt lat="44.40121168948456" lon="6.699078222741932"><ele>1187.6666666666665</ele><time>2026-04-18T11:19:32Z</time></trkpt><trkpt lat="44.4011157029264" lon="6.698824172317486"><ele>1186.3333333333333</ele><time>2026-04-18T11:19:33Z</time></trkpt><trkpt lat="44.40103148244502" lon="6.698580143846576"><ele>1185.0</ele><time>2026-04-18T11:19:34Z</time></trkpt><trkpt lat="44.40094607211489" lon="6.698324529932995"><ele>1184.6666666666667</ele><time>2026-04-18T11:19:35Z</time></trkpt><trkpt lat="44.400861415405046" lon="6.698074129164384"><ele>1184.3333333333335</ele><time>2026-04-18T11:19:36Z</time></trkpt><trkpt lat="44.40077745405623" lon="6.697800253887703"><ele>1184.0</ele><time>2026-04-18T11:19:37Z</time></trkpt><trkpt lat="44.40067684294491" lon="6.697559560005596"><ele>1184.0</ele><time>2026-04-18T11:19:38Z</time></trkpt><trkpt lat="44.40059650618627" lon="6.69730245919691"><ele>1184.0</ele><time>2026-04-18T11:19:39Z</time></trkpt><trkpt lat="44.40051386061773" lon="6.69705970668422"><ele>1184.0</ele><time>2026-04-18T11:19:40Z</time></trkpt><trkpt lat="44.40043070641968" lon="6.696829334944501"><ele>1180.3333333333335</ele><time>2026-04-18T11:19:41Z</time></trkpt><trkpt lat="44.40034520090224" lon="6.696605419957804"><ele>1176.6666666666667</ele><time>2026-04-18T11:19:42Z</time></trkpt><trkpt lat="44.40026121481555" lon="6.696368891998533"><ele>1173.0</ele><time>2026-04-18T11:19:43Z</time></trkpt><trkpt lat="44.40017147800766" lon="6.6961222916011005"><ele>1174.6666666666667</ele><time>2026-04-18T11:19:44Z</time></trkpt><trkpt lat="44.40010259710074" lon="6.695873313234966"><ele>1176.3333333333335</ele><time>2026-04-18T11:19:45Z</time></trkpt><trkpt lat="44.40001922375904" lon="6.695631991662404"><ele>1178.0</ele><time>2026-04-18T11:19:46Z</time></trkpt><trkpt lat="44.39993379597575" lon="6.69538634676594"><ele>1177.6666666666667</ele><time>2026-04-18T11:19:47Z</time></trkpt><trkpt lat="44.39983581491056" lon="6.6951491747405"><ele>1177.3333333333333</ele><time>2026-04-18T11:19:48Z</time></trkpt><trkpt lat="44.399753147970856" lon="6.694909481342501"><ele>1177.0</ele><time>2026-04-18T11:19:49Z</time></trkpt><trkpt lat="44.39967941552943" lon="6.694666416166164"><ele>1177.0</ele><time>2026-04-18T11:19:50Z</time></trkpt><trkpt lat="44.39958522525065" lon="6.694462643898123"><ele>1177.0</ele><time>2026-04-18T11:19:51Z</time></trkpt><trkpt lat="44.39949593261314" lon="6.694259680235813"><ele>1177.0</ele><time>2026-04-18T11:19:52Z</time></trkpt><trkpt lat="44.399379472219636" lon="6.694070462662581"><ele>1177.0</ele><time>2026-04-18T11:19:53Z</time></trkpt><trkpt lat="44.39924204821795" lon="6.693901251108748"><ele>1177.0</ele><time>2026-04-18T11:19:54Z</time></trkpt><trkpt lat="44.39908882639477" lon="6.693752143542908"><ele>1177.0</ele><time>2026-04-18T11:19:55Z</time></trkpt><trkpt lat="44.39891613980725" lon="6.693650694815771"><ele>1178.3333333333333</ele><time>2026-04-18T11:19:56Z</time></trkpt><trkpt lat="44.398747141213605" lon="6.6935452166931055"><ele>1179.6666666666667</ele><time>2026-04-18T11:19:57Z</time></trkpt><trkpt lat="44.39858702028255" lon="6.693409543211176"><ele>1181.0</ele><time>2026-04-18T11:19:58Z</time></trkpt><trkpt lat="44.398416866063705" lon="6.693268030472712"><ele>1181.0</ele><time>2026-04-18T11:19:59Z</time></trkpt><trkpt lat="44.39824767618651" lon="6.693127319760743"><ele>1181.0</ele><time>2026-04-18T11:20:00Z</time></trkpt><trkpt lat="44.39807300978797" lon="6.692983905984958"><ele>1181.0</ele><time>2026-04-18T11:20:01Z</time></trkpt><trkpt lat="44.39790361029847" lon="6.692844906205839"><ele>1180.0</ele><time>2026-04-18T11:20:02Z</time></trkpt><trkpt lat="44.39772407217937" lon="6.692719583480893"><ele>1179.0</ele><time>2026-04-18T11:20:03Z</time></trkpt><trkpt lat="44.39755329097041" lon="6.692577752180174"><ele>1178.0</ele><time>2026-04-18T11:20:04Z</time></trkpt><trkpt lat="44.397380208077635" lon="6.692433269308844"><ele>1178.0</ele><time>2026-04-18T11:20:05Z</time></trkpt><trkpt lat="44.39722079180107" lon="6.692293685954193"><ele>1178.0</ele><time>2026-04-18T11:20:06Z</time></trkpt><trkpt lat="44.39706762001384" lon="6.69216102965736"><ele>1178.0</ele><time>2026-04-18T11:20:07Z</time></trkpt><trkpt lat="44.3969218140526" lon="6.692034824930716"><ele>1178.0</ele><time>2026-04-18T11:20:08Z</time></trkpt><trkpt lat="44.396769831259505" lon="6.691911837562815"><ele>1178.0</ele><time>2026-04-18T11:20:09Z</time></trkpt><trkpt lat="44.396610694414974" lon="6.691779905057349"><ele>1178.0</ele><time>2026-04-18T11:20:10Z</time></trkpt><trkpt lat="44.396446646296404" lon="6.691646632645389"><ele>1177.3333333333335</ele><time>2026-04-18T11:20:11Z</time></trkpt><trkpt lat="44.396286457240535" lon="6.691487355699642"><ele>1176.6666666666667</ele><time>2026-04-18T11:20:12Z</time></trkpt><trkpt lat="44.396115488504414" lon="6.691343359780368"><ele>1176.0</ele><time>2026-04-18T11:20:13Z</time></trkpt><trkpt lat="44.39594840266191" lon="6.6911970362793625"><ele>1175.3333333333333</ele><time>2026-04-18T11:20:14Z</time></trkpt><trkpt lat="44.39578138163072" lon="6.691049206644938"><ele>1174.6666666666665</ele><time>2026-04-18T11:20:15Z</time></trkpt><trkpt lat="44.39561405044432" lon="6.690880899995954"><ele>1174.0</ele><time>2026-04-18T11:20:16Z</time></trkpt><trkpt lat="44.395463389845716" lon="6.690693039882411"><ele>1174.0</ele><time>2026-04-18T11:20:17Z</time></trkpt><trkpt lat="44.39530205044146" lon="6.6905269604723205"><ele>1174.0</ele><time>2026-04-18T11:20:18Z</time></trkpt><trkpt lat="44.39515013161656" lon="6.690352472130825"><ele>1174.0</ele><time>2026-04-18T11:20:19Z</time></trkpt><trkpt lat="44.39499988693261" lon="6.690181469482987"><ele>1174.0</ele><time>2026-04-18T11:20:20Z</time></trkpt><trkpt lat="44.39484477360522" lon="6.690009055328529"><ele>1174.0</ele><time>2026-04-18T11:20:21Z</time></trkpt><trkpt lat="44.39469515283006" lon="6.689815442350666"><ele>1174.0</ele><time>2026-04-18T11:20:22Z</time></trkpt><trkpt lat="44.39455084327399" lon="6.689638233986485"><ele>1172.3333333333333</ele><time>2026-04-18T11:20:23Z</time></trkpt><trkpt lat="44.39441108510366" lon="6.689448780337653"><ele>1170.6666666666667</ele><time>2026-04-18T11:20:24Z</time></trkpt><trkpt lat="44.39428201155515" lon="6.68924846503059"><ele>1169.0</ele><time>2026-04-18T11:20:25Z</time></trkpt><trkpt lat="44.394148328432294" lon="6.689033345705533"><ele>1169.0</ele><time>2026-04-18T11:20:26Z</time></trkpt><trkpt lat="44.39402374561582" lon="6.688817449934932"><ele>1169.0</ele><time>2026-04-18T11:20:27Z</time></trkpt><trkpt lat="44.39389972823445" lon="6.6886098144036845"><ele>1169.0</ele><time>2026-04-18T11:20:28Z</time></trkpt><trkpt lat="44.393773428975315" lon="6.68840442460256"><ele>1168.3333333333335</ele><time>2026-04-18T11:20:29Z</time></trkpt><trkpt lat="44.393656339380826" lon="6.688196369497566"><ele>1167.6666666666667</ele><time>2026-04-18T11:20:30Z</time></trkpt><trkpt lat="44.39352681518528" lon="6.6880181666975655"><ele>1167.0</ele><time>2026-04-18T11:20:31Z</time></trkpt><trkpt lat="44.393405935250115" lon="6.687819013715845"><ele>1167.6666666666667</ele><time>2026-04-18T11:20:32Z</time></trkpt><trkpt lat="44.39329811011806" lon="6.687615391870098"><ele>1168.3333333333335</ele><time>2026-04-18T11:20:33Z</time></trkpt><trkpt lat="44.39318095903489" lon="6.687425342112145"><ele>1169.0</ele><time>2026-04-18T11:20:34Z</time></trkpt><trkpt lat="44.3930651807808" lon="6.687236950708949"><ele>1168.3333333333335</ele><time>2026-04-18T11:20:35Z</time></trkpt><trkpt lat="44.392946904496455" lon="6.687042254917318"><ele>1167.6666666666667</ele><time>2026-04-18T11:20:36Z</time></trkpt><trkpt lat="44.39283360922226" lon="6.686855357302997"><ele>1167.0</ele><time>2026-04-18T11:20:37Z</time></trkpt><trkpt lat="44.392723312946686" lon="6.68666937289169"><ele>1167.0</ele><time>2026-04-18T11:20:38Z</time></trkpt><trkpt lat="44.39262151360334" lon="6.686485949705344"><ele>1167.0</ele><time>2026-04-18T11:20:39Z</time></trkpt><trkpt lat="44.392514391723516" lon="6.686289254404914"><ele>1167.0</ele><time>2026-04-18T11:20:40Z</time></trkpt><trkpt lat="44.392448878829946" lon="6.686054031574055"><ele>1168.0</ele><time>2026-04-18T11:20:41Z</time></trkpt><trkpt lat="44.39237890658364" lon="6.685799790728391"><ele>1169.0</ele><time>2026-04-18T11:20:42Z</time></trkpt><trkpt lat="44.39230849373716" lon="6.685541748229311"><ele>1170.0</ele><time>2026-04-18T11:20:43Z</time></trkpt><trkpt lat="44.392237897514235" lon="6.685283033316372"><ele>1167.3333333333333</ele><time>2026-04-18T11:20:44Z</time></trkpt><trkpt lat="44.392153892849976" lon="6.6850256757857265"><ele>1164.6666666666665</ele><time>2026-04-18T11:20:45Z</time></trkpt><trkpt lat="44.39207843702026" lon="6.684760414359296"><ele>1162.0</ele><time>2026-04-18T11:20:46Z</time></trkpt><trkpt lat="44.392021317163895" lon="6.6844911650800025"><ele>1163.3333333333333</ele><time>2026-04-18T11:20:47Z</time></trkpt><trkpt lat="44.391938976549405" lon="6.684240362861271"><ele>1164.6666666666667</ele><time>2026-04-18T11:20:48Z</time></trkpt><trkpt lat="44.39187406160033" lon="6.683990288446493"><ele>1166.0</ele><time>2026-04-18T11:20:49Z</time></trkpt><trkpt lat="44.391806943725925" lon="6.6837324554091735"><ele>1166.0</ele><time>2026-04-18T11:20:50Z</time></trkpt><trkpt lat="44.39174176697681" lon="6.68349146914271"><ele>1166.0</ele><time>2026-04-18T11:20:51Z</time></trkpt><trkpt lat="44.3916884981036" lon="6.6832625099561636"><ele>1166.0</ele><time>2026-04-18T11:20:52Z</time></trkpt><trkpt lat="44.39165629742288" lon="6.683026892999375"><ele>1166.0</ele><time>2026-04-18T11:20:53Z</time></trkpt><trkpt lat="44.39163335992787" lon="6.6828015598725115"><ele>1166.0</ele><time>2026-04-18T11:20:54Z</time></trkpt><trkpt lat="44.39162043144646" lon="6.682526691604609"><ele>1166.0</ele><time>2026-04-18T11:20:55Z</time></trkpt><trkpt lat="44.39160245953412" lon="6.682249484389318"><ele>1166.0</ele><time>2026-04-18T11:20:56Z</time></trkpt><trkpt lat="44.39159607228405" lon="6.681961012271329"><ele>1166.0</ele><time>2026-04-18T11:20:57Z</time></trkpt><trkpt lat="44.391597434396" lon="6.681661302240722"><ele>1166.0</ele><time>2026-04-18T11:20:58Z</time></trkpt><trkpt lat="44.39157942551704" lon="6.681361246724826"><ele>1166.3333333333335</ele><time>2026-04-18T11:20:59Z</time></trkpt><trkpt lat="44.39157293033932" lon="6.681063532010857"><ele>1166.6666666666667</ele><time>2026-04-18T11:21:00Z</time></trkpt><trkpt lat="44.391576660756265" lon="6.680771209554174"><ele>1167.0</ele><time>2026-04-18T11:21:01Z</time></trkpt><trkpt lat="44.39157021004943" lon="6.68048764076317"><ele>1167.3333333333333</ele><time>2026-04-18T11:21:02Z</time></trkpt><trkpt lat="44.391563793513676" lon="6.680205072456394"><ele>1167.6666666666665</ele><time>2026-04-18T11:21:03Z</time></trkpt><trkpt lat="44.391557385058675" lon="6.679922859891283"><ele>1168.0</ele><time>2026-04-18T11:21:04Z</time></trkpt><trkpt lat="44.391551293435434" lon="6.6796266319964035"><ele>1167.0</ele><time>2026-04-18T11:21:05Z</time></trkpt><trkpt lat="44.39154683025788" lon="6.67934252060395"><ele>1166.0</ele><time>2026-04-18T11:21:06Z</time></trkpt><trkpt lat="44.39154095674987" lon="6.6790695250241265"><ele>1165.0</ele><time>2026-04-18T11:21:07Z</time></trkpt><trkpt lat="44.39152698737768" lon="6.678794555096218"><ele>1164.6666666666665</ele><time>2026-04-18T11:21:08Z</time></trkpt><trkpt lat="44.391518541272916" lon="6.678517947695522"><ele>1164.3333333333333</ele><time>2026-04-18T11:21:09Z</time></trkpt><trkpt lat="44.39151706264334" lon="6.678240453082503"><ele>1164.0</ele><time>2026-04-18T11:21:10Z</time></trkpt><trkpt lat="44.39150278983375" lon="6.677958284951758"><ele>1163.6666666666667</ele><time>2026-04-18T11:21:11Z</time></trkpt><trkpt lat="44.3914933773172" lon="6.6776730634723025"><ele>1163.3333333333335</ele><time>2026-04-18T11:21:12Z</time></trkpt><trkpt lat="44.39150293222894" lon="6.6773752109319435"><ele>1163.0</ele><time>2026-04-18T11:21:13Z</time></trkpt><trkpt lat="44.39149672766769" lon="6.67707999720875"><ele>1162.6666666666667</ele><time>2026-04-18T11:21:14Z</time></trkpt><trkpt lat="44.39149017093881" lon="6.676784164971773"><ele>1162.3333333333333</ele><time>2026-04-18T11:21:15Z</time></trkpt><trkpt lat="44.3914840249187" lon="6.676495461364152"><ele>1162.0</ele><time>2026-04-18T11:21:16Z</time></trkpt><trkpt lat="44.39147870290932" lon="6.676205359152711"><ele>1162.3333333333333</ele><time>2026-04-18T11:21:17Z</time></trkpt><trkpt lat="44.39147343720281" lon="6.675918325923319"><ele>1162.6666666666667</ele><time>2026-04-18T11:21:18Z</time></trkpt><trkpt lat="44.39146814921543" lon="6.675630078259212"><ele>1163.0</ele><time>2026-04-18T11:21:19Z</time></trkpt><trkpt lat="44.391462381196746" lon="6.675342659311183"><ele>1162.6666666666667</ele><time>2026-04-18T11:21:20Z</time></trkpt><trkpt lat="44.39145592848944" lon="6.675056463850757"><ele>1162.3333333333333</ele><time>2026-04-18T11:21:21Z</time></trkpt><trkpt lat="44.39144947225597" lon="6.674770112077257"><ele>1162.0</ele><time>2026-04-18T11:21:22Z</time></trkpt><trkpt lat="44.391443130992315" lon="6.674488859299288"><ele>1162.3333333333333</ele><time>2026-04-18T11:21:23Z</time></trkpt><trkpt lat="44.39143099019828" lon="6.6742187395583334"><ele>1162.6666666666667</ele><time>2026-04-18T11:21:24Z</time></trkpt><trkpt lat="44.391415926742724" lon="6.673940726039439"><ele>1163.0</ele><time>2026-04-18T11:21:25Z</time></trkpt><trkpt lat="44.39142034913265" lon="6.673669462928303"><ele>1162.6666666666667</ele><time>2026-04-18T11:21:26Z</time></trkpt><trkpt lat="44.391421316341386" lon="6.673404411638153"><ele>1162.3333333333333</ele><time>2026-04-18T11:21:27Z</time></trkpt><trkpt lat="44.391408626121574" lon="6.673142736546666"><ele>1162.0</ele><time>2026-04-18T11:21:28Z</time></trkpt><trkpt lat="44.39139728152572" lon="6.672895684546749"><ele>1160.6666666666665</ele><time>2026-04-18T11:21:29Z</time></trkpt><trkpt lat="44.391396825850634" lon="6.672657211232257"><ele>1159.3333333333333</ele><time>2026-04-18T11:21:30Z</time></trkpt><trkpt lat="44.39140748835878" lon="6.6723951928167695"><ele>1158.0</ele><time>2026-04-18T11:21:31Z</time></trkpt><trkpt lat="44.391388745140006" lon="6.6721273149983915"><ele>1158.0</ele><time>2026-04-18T11:21:32Z</time></trkpt><trkpt lat="44.391389652550934" lon="6.671873363710251"><ele>1158.0</ele><time>2026-04-18T11:21:33Z</time></trkpt><trkpt lat="44.391388290473515" lon="6.671619500866467"><ele>1158.0</ele><time>2026-04-18T11:21:34Z</time></trkpt><trkpt lat="44.39138164909516" lon="6.671371166013384"><ele>1158.0</ele><time>2026-04-18T11:21:35Z</time></trkpt><trkpt lat="44.39138615097689" lon="6.671143416166903"><ele>1158.0</ele><time>2026-04-18T11:21:36Z</time></trkpt><trkpt lat="44.39135346637963" lon="6.670916216863957"><ele>1158.0</ele><time>2026-04-18T11:21:37Z</time></trkpt><trkpt lat="44.3913025719879" lon="6.670694417895952"><ele>1155.6666666666667</ele><time>2026-04-18T11:21:38Z</time></trkpt><trkpt lat="44.39121138340285" lon="6.670525765998659"><ele>1153.3333333333335</ele><time>2026-04-18T11:21:39Z</time></trkpt><trkpt lat="44.391103709568725" lon="6.670336901608371"><ele>1151.0</ele><time>2026-04-18T11:21:40Z</time></trkpt><trkpt lat="44.39097133032603" lon="6.670183419770506"><ele>1151.0</ele><time>2026-04-18T11:21:41Z</time></trkpt><trkpt lat="44.39083716621721" lon="6.670049997382747"><ele>1151.0</ele><time>2026-04-18T11:21:42Z</time></trkpt><trkpt lat="44.3907016686268" lon="6.669918190026381"><ele>1151.0</ele><time>2026-04-18T11:21:43Z</time></trkpt><trkpt lat="44.39058651021632" lon="6.669802266797081"><ele>1150.5</ele><time>2026-04-18T11:21:44Z</time></trkpt><trkpt lat="44.39049050436917" lon="6.669706935151586"><ele>1150.0</ele><time>2026-04-18T11:21:45Z</time></trkpt><trkpt lat="44.390410456156374" lon="6.669593085807782"><ele>1149.5</ele><time>2026-04-18T11:21:46Z</time></trkpt><trkpt lat="44.39034800792971" lon="6.669410211963128"><ele>1149.0</ele><time>2026-04-18T11:21:47Z</time></trkpt><trkpt lat="44.39030060986856" lon="6.66923550064154"><ele>1149.0</ele><time>2026-04-18T11:21:48Z</time></trkpt><trkpt lat="44.390260306787816" lon="6.669056124390148"><ele>1149.0</ele><time>2026-04-18T11:21:49Z</time></trkpt><trkpt lat="44.39021704810954" lon="6.668874921277151"><ele>1149.0</ele><time>2026-04-18T11:21:50Z</time></trkpt><trkpt lat="44.39016553575732" lon="6.6686733311739586"><ele>1149.0</ele><time>2026-04-18T11:21:51Z</time></trkpt><trkpt lat="44.39012640069713" lon="6.668514512645341"><ele>1148.8</ele><time>2026-04-18T11:21:52Z</time></trkpt><trkpt lat="44.39007514592746" lon="6.668358139210372"><ele>1148.6000000000001</ele><time>2026-04-18T11:21:53Z</time></trkpt><trkpt lat="44.39003888604121" lon="6.668218168180286"><ele>1148.4</ele><time>2026-04-18T11:21:54Z</time></trkpt><trkpt lat="44.390023320501385" lon="6.6680880585998485"><ele>1148.2</ele><time>2026-04-18T11:21:55Z</time></trkpt><trkpt lat="44.390000374225394" lon="6.6679631198679274"><ele>1148.0</ele><time>2026-04-18T11:21:56Z</time></trkpt><trkpt lat="44.39000174646293" lon="6.667858583019473"><ele>1148.0</ele><time>2026-04-18T11:21:57Z</time></trkpt><trkpt lat="44.389842951086635" lon="6.667811169713259"><ele>1148.0</ele><time>2026-04-18T11:22:01Z</time></trkpt><trkpt lat="44.38976964511527" lon="6.667794893037932"><ele>1148.0</ele><time>2026-04-18T11:22:02Z</time></trkpt><trkpt lat="44.38969166919644" lon="6.667772164254541"><ele>1148.0</ele><time>2026-04-18T11:22:03Z</time></trkpt><trkpt lat="44.38959598198288" lon="6.6677187180186355"><ele>1148.0</ele><time>2026-04-18T11:22:04Z</time></trkpt><trkpt lat="44.38949948432593" lon="6.667666369815111"><ele>1147.2</ele><time>2026-04-18T11:22:05Z</time></trkpt><trkpt lat="44.389402532603164" lon="6.667607517229757"><ele>1146.4</ele><time>2026-04-18T11:22:06Z</time></trkpt><trkpt lat="44.38930591030883" lon="6.667551713261454"><ele>1145.6000000000001</ele><time>2026-04-18T11:22:07Z</time></trkpt><trkpt lat="44.38922349669883" lon="6.667452314076131"><ele>1144.8</ele><time>2026-04-18T11:22:08Z</time></trkpt><trkpt lat="44.38913831204769" lon="6.667377029299247"><ele>1144.0</ele><time>2026-04-18T11:22:09Z</time></trkpt><trkpt lat="44.38909091779807" lon="6.667272903916283"><ele>1144.0</ele><time>2026-04-18T11:22:10Z</time></trkpt><trkpt lat="44.38903279391556" lon="6.667182781398846"><ele>1144.0</ele><time>2026-04-18T11:22:11Z</time></trkpt><trkpt lat="44.3889734885544" lon="6.6670930429463455"><ele>1144.0</ele><time>2026-04-18T11:22:12Z</time></trkpt><trkpt lat="44.38892502526429" lon="6.667005969751716"><ele>1144.0</ele><time>2026-04-18T11:22:13Z</time></trkpt><trkpt lat="44.38885980896408" lon="6.66691709611365"><ele>1144.0</ele><time>2026-04-18T11:22:14Z</time></trkpt><trkpt lat="44.38878908563533" lon="6.666820031420944"><ele>1144.0</ele><time>2026-04-18T11:22:15Z</time></trkpt><trkpt lat="44.3886962728354" lon="6.666693717107034"><ele>1144.0</ele><time>2026-04-18T11:22:16Z</time></trkpt><trkpt lat="44.38860651622663" lon="6.666552898601841"><ele>1144.0</ele><time>2026-04-18T11:22:17Z</time></trkpt><trkpt lat="44.38851657730491" lon="6.666403241435791"><ele>1144.0</ele><time>2026-04-18T11:22:18Z</time></trkpt><trkpt lat="44.38841501751319" lon="6.666249340324155"><ele>1144.0</ele><time>2026-04-18T11:22:19Z</time></trkpt><trkpt lat="44.388300642049536" lon="6.666099487110437"><ele>1144.6666666666665</ele><time>2026-04-18T11:22:20Z</time></trkpt><trkpt lat="44.38818977821615" lon="6.665934826130743"><ele>1145.3333333333333</ele><time>2026-04-18T11:22:21Z</time></trkpt><trkpt lat="44.38809172168807" lon="6.665762912578738"><ele>1146.0</ele><time>2026-04-18T11:22:22Z</time></trkpt><trkpt lat="44.38797449765423" lon="6.665586730577534"><ele>1146.0</ele><time>2026-04-18T11:22:23Z</time></trkpt><trkpt lat="44.38785570188842" lon="6.665408674110185"><ele>1146.0</ele><time>2026-04-18T11:22:24Z</time></trkpt><trkpt lat="44.38774007605847" lon="6.665235369623717"><ele>1146.0</ele><time>2026-04-18T11:22:25Z</time></trkpt><trkpt lat="44.3876245323032" lon="6.665062186955773"><ele>1145.6666666666667</ele><time>2026-04-18T11:22:26Z</time></trkpt><trkpt lat="44.38751325728406" lon="6.664895402583074"><ele>1145.3333333333335</ele><time>2026-04-18T11:22:27Z</time></trkpt><trkpt lat="44.387395021202074" lon="6.664718184780591"><ele>1145.0</ele><time>2026-04-18T11:22:28Z</time></trkpt><trkpt lat="44.387282630302984" lon="6.664549727887593"><ele>1144.3333333333335</ele><time>2026-04-18T11:22:29Z</time></trkpt><trkpt lat="44.387164762754544" lon="6.664373959122185"><ele>1143.6666666666667</ele><time>2026-04-18T11:22:30Z</time></trkpt><trkpt lat="44.387046983659246" lon="6.664198528490535"><ele>1143.0</ele><time>2026-04-18T11:22:31Z</time></trkpt><trkpt lat="44.386931579357864" lon="6.6640240617098145"><ele>1143.0</ele><time>2026-04-18T11:22:32Z</time></trkpt><trkpt lat="44.38682832547237" lon="6.663863984896836"><ele>1143.0</ele><time>2026-04-18T11:22:33Z</time></trkpt><trkpt lat="44.386711207166194" lon="6.66370417030591"><ele>1143.0</ele><time>2026-04-18T11:22:34Z</time></trkpt><trkpt lat="44.38660252943236" lon="6.663527711545269"><ele>1143.0</ele><time>2026-04-18T11:22:35Z</time></trkpt><trkpt lat="44.38649300423843" lon="6.663361364945288"><ele>1143.0</ele><time>2026-04-18T11:22:36Z</time></trkpt><trkpt lat="44.38638899135845" lon="6.6631869441181735"><ele>1143.0</ele><time>2026-04-18T11:22:37Z</time></trkpt><trkpt lat="44.38627922664093" lon="6.663018486621001"><ele>1143.0</ele><time>2026-04-18T11:22:38Z</time></trkpt><trkpt lat="44.38615826464454" lon="6.662836142177965"><ele>1143.0</ele><time>2026-04-18T11:22:39Z</time></trkpt><trkpt lat="44.386051052346396" lon="6.662680332089353"><ele>1143.0</ele><time>2026-04-18T11:22:40Z</time></trkpt><trkpt lat="44.38595315152154" lon="6.662522178247488"><ele>1142.0</ele><time>2026-04-18T11:22:41Z</time></trkpt><trkpt lat="44.385835379706016" lon="6.662366363741232"><ele>1141.0</ele><time>2026-04-18T11:22:42Z</time></trkpt><trkpt lat="44.38572546679726" lon="6.662196186230274"><ele>1140.0</ele><time>2026-04-18T11:22:43Z</time></trkpt><trkpt lat="44.38561902323304" lon="6.6620336800060675"><ele>1140.0</ele><time>2026-04-18T11:22:44Z</time></trkpt><trkpt lat="44.385515646854415" lon="6.661843374851506"><ele>1140.0</ele><time>2026-04-18T11:22:45Z</time></trkpt><trkpt lat="44.38541656935571" lon="6.661664643252079"><ele>1140.0</ele><time>2026-04-18T11:22:46Z</time></trkpt><trkpt lat="44.385316022206304" lon="6.661481668243665"><ele>1140.0</ele><time>2026-04-18T11:22:47Z</time></trkpt><trkpt lat="44.38521313190285" lon="6.661309646948043"><ele>1140.0</ele><time>2026-04-18T11:22:48Z</time></trkpt><trkpt lat="44.38511956945606" lon="6.661130779668012"><ele>1140.0</ele><time>2026-04-18T11:22:49Z</time></trkpt><trkpt lat="44.385023454301816" lon="6.660947455314208"><ele>1140.3333333333333</ele><time>2026-04-18T11:22:50Z</time></trkpt><trkpt lat="44.38492352257841" lon="6.6607539137524645"><ele>1140.6666666666665</ele><time>2026-04-18T11:22:51Z</time></trkpt><trkpt lat="44.384829261248484" lon="6.660576242970355"><ele>1141.0</ele><time>2026-04-18T11:22:52Z</time></trkpt><trkpt lat="44.38473130183108" lon="6.660402120930386"><ele>1141.3333333333333</ele><time>2026-04-18T11:22:53Z</time></trkpt><trkpt lat="44.38462791307574" lon="6.660216011793249"><ele>1141.6666666666667</ele><time>2026-04-18T11:22:54Z</time></trkpt><trkpt lat="44.38453245701178" lon="6.660037383175146"><ele>1142.0</ele><time>2026-04-18T11:22:55Z</time></trkpt><trkpt lat="44.384463818432465" lon="6.659830822085952"><ele>1142.0</ele><time>2026-04-18T11:22:56Z</time></trkpt><trkpt lat="44.384382170136014" lon="6.6596378742977995"><ele>1142.0</ele><time>2026-04-18T11:22:57Z</time></trkpt><trkpt lat="44.384310509001374" lon="6.659430472547994"><ele>1142.0</ele><time>2026-04-18T11:22:58Z</time></trkpt><trkpt lat="44.384255551224285" lon="6.6592323188075175"><ele>1141.5</ele><time>2026-04-18T11:22:59Z</time></trkpt><trkpt lat="44.38419048217892" lon="6.659047231367422"><ele>1141.0</ele><time>2026-04-18T11:23:00Z</time></trkpt><trkpt lat="44.38416099996796" lon="6.658845910697682"><ele>1140.5</ele><time>2026-04-18T11:23:01Z</time></trkpt><trkpt lat="44.3841242189837" lon="6.6586485074536865"><ele>1140.0</ele><time>2026-04-18T11:23:02Z</time></trkpt><trkpt lat="44.38409619959668" lon="6.658462449998374"><ele>1140.0</ele><time>2026-04-18T11:23:03Z</time></trkpt><trkpt lat="44.38408850453116" lon="6.658286772584075"><ele>1140.0</ele><time>2026-04-18T11:23:04Z</time></trkpt><trkpt lat="44.384073455061596" lon="6.658115261947781"><ele>1140.0</ele><time>2026-04-18T11:23:05Z</time></trkpt><trkpt lat="44.384052808229235" lon="6.657915874679202"><ele>1140.0</ele><time>2026-04-18T11:23:06Z</time></trkpt><trkpt lat="44.38404631265672" lon="6.657729244382451"><ele>1140.0</ele><time>2026-04-18T11:23:07Z</time></trkpt><trkpt lat="44.38403617237635" lon="6.6575425513271"><ele>1140.0</ele><time>2026-04-18T11:23:08Z</time></trkpt><trkpt lat="44.38402327377261" lon="6.6573398865635385"><ele>1140.0</ele><time>2026-04-18T11:23:09Z</time></trkpt><trkpt lat="44.38403205066532" lon="6.6571361761979695"><ele>1140.0</ele><time>2026-04-18T11:23:10Z</time></trkpt><trkpt lat="44.384029784696786" lon="6.656934360403429"><ele>1139.0</ele><time>2026-04-18T11:23:11Z</time></trkpt><trkpt lat="44.38404183807971" lon="6.65674411711424"><ele>1138.0</ele><time>2026-04-18T11:23:12Z</time></trkpt><trkpt lat="44.384051491381115" lon="6.65654619472709"><ele>1137.0</ele><time>2026-04-18T11:23:13Z</time></trkpt><trkpt lat="44.384061085186666" lon="6.656345641827573"><ele>1136.0</ele><time>2026-04-18T11:23:14Z</time></trkpt><trkpt lat="44.38407746855031" lon="6.656147649730866"><ele>1137.0</ele><time>2026-04-18T11:23:15Z</time></trkpt><trkpt lat="44.384084440333616" lon="6.655955371666708"><ele>1138.0</ele><time>2026-04-18T11:23:16Z</time></trkpt><trkpt lat="44.38409366400378" lon="6.655771759689137"><ele>1139.0</ele><time>2026-04-18T11:23:17Z</time></trkpt><trkpt lat="44.38410399521513" lon="6.6555850241938135"><ele>1140.0</ele><time>2026-04-18T11:23:18Z</time></trkpt><trkpt lat="44.38410593695874" lon="6.655401051429743"><ele>1140.75</ele><time>2026-04-18T11:23:19Z</time></trkpt><trkpt lat="44.38410370471894" lon="6.655225073054268"><ele>1141.5</ele><time>2026-04-18T11:23:20Z</time></trkpt><trkpt lat="44.38412334594463" lon="6.65506019177789"><ele>1142.25</ele><time>2026-04-18T11:23:21Z</time></trkpt><trkpt lat="44.38413225397463" lon="6.654885310717684"><ele>1143.0</ele><time>2026-04-18T11:23:22Z</time></trkpt><trkpt lat="44.384142192368266" lon="6.654717821453706"><ele>1143.0</ele><time>2026-04-18T11:23:23Z</time></trkpt><trkpt lat="44.38415593678387" lon="6.654550075446847"><ele>1143.0</ele><time>2026-04-18T11:23:24Z</time></trkpt><trkpt lat="44.38416851767799" lon="6.654380737253314"><ele>1143.0</ele><time>2026-04-18T11:23:25Z</time></trkpt><trkpt lat="44.38417709875243" lon="6.654206845069058"><ele>1143.0</ele><time>2026-04-18T11:23:26Z</time></trkpt><trkpt lat="44.384226885345484" lon="6.654043750498464"><ele>1142.5</ele><time>2026-04-18T11:23:27Z</time></trkpt><trkpt lat="44.38424268291895" lon="6.653865104751939"><ele>1142.0</ele><time>2026-04-18T11:23:28Z</time></trkpt><trkpt lat="44.38425632903619" lon="6.6536927937794115"><ele>1141.5</ele><time>2026-04-18T11:23:29Z</time></trkpt><trkpt lat="44.384270866383254" lon="6.653527126239911"><ele>1141.0</ele><time>2026-04-18T11:23:30Z</time></trkpt><trkpt lat="44.38428089137265" lon="6.653366812278685"><ele>1140.6</ele><time>2026-04-18T11:23:31Z</time></trkpt><trkpt lat="44.3842985787559" lon="6.653220550209209"><ele>1140.1999999999998</ele><time>2026-04-18T11:23:32Z</time></trkpt><trkpt lat="44.38430597300281" lon="6.653075506829339"><ele>1139.8000000000002</ele><time>2026-04-18T11:23:33Z</time></trkpt><trkpt lat="44.38432746043016" lon="6.652936605873403"><ele>1139.4</ele><time>2026-04-18T11:23:34Z</time></trkpt><trkpt lat="44.3843294553842" lon="6.652795311341354"><ele>1139.0</ele><time>2026-04-18T11:23:35Z</time></trkpt><trkpt lat="44.384329059878816" lon="6.652652588050563"><ele>1138.6000000000001</ele><time>2026-04-18T11:23:36Z</time></trkpt><trkpt lat="44.384337231212214" lon="6.6525182043956415"><ele>1138.2</ele><time>2026-04-18T11:23:37Z</time></trkpt><trkpt lat="44.384348539908096" lon="6.652395953738497"><ele>1137.8000000000002</ele><time>2026-04-18T11:23:38Z</time></trkpt><trkpt lat="44.384355868312525" lon="6.652285565325473"><ele>1137.4</ele><time>2026-04-18T11:23:39Z</time></trkpt><trkpt lat="44.384357807374236" lon="6.652188233395814"><ele>1137.0</ele><time>2026-04-18T11:23:40Z</time></trkpt><trkpt lat="44.38437568122738" lon="6.652019344159282"><ele>1137.0</ele><time>2026-04-18T11:23:42Z</time></trkpt><trkpt lat="44.38439430835527" lon="6.651850283404076"><ele>1137.0</ele><time>2026-04-18T11:23:44Z</time></trkpt><trkpt lat="44.384429551832" lon="6.651721247902798"><ele>1137.0</ele><time>2026-04-18T11:23:46Z</time></trkpt><trkpt lat="44.3844657785149" lon="6.6516372483942146"><ele>1137.0</ele><time>2026-04-18T11:23:48Z</time></trkpt><trkpt lat="44.384515339299526" lon="6.651561363080575"><ele>1137.0</ele><time>2026-04-18T11:23:53Z</time></trkpt><trkpt lat="44.38456332064292" lon="6.651451891502928"><ele>1137.0</ele><time>2026-04-18T11:23:56Z</time></trkpt><trkpt lat="44.384565944045754" lon="6.6513616514031435"><ele>1137.0</ele><time>2026-04-18T11:23:57Z</time></trkpt><trkpt lat="44.38455632503765" lon="6.651264857716202"><ele>1137.0</ele><time>2026-04-18T11:23:58Z</time></trkpt><trkpt lat="44.384529633189636" lon="6.651167075082556"><ele>1137.0</ele><time>2026-04-18T11:23:59Z</time></trkpt><trkpt lat="44.38450365145544" lon="6.651030194792411"><ele>1137.0</ele><time>2026-04-18T11:24:00Z</time></trkpt><trkpt lat="44.38452239451499" lon="6.650871085750347"><ele>1137.0</ele><time>2026-04-18T11:24:02Z</time></trkpt><trkpt lat="44.38451964908763" lon="6.650777088912772"><ele>1137.0</ele><time>2026-04-18T11:24:03Z</time></trkpt><trkpt lat="44.384538406551705" lon="6.650688227426743"><ele>1137.0</ele><time>2026-04-18T11:24:04Z</time></trkpt><trkpt lat="44.384538001710695" lon="6.650582958616866"><ele>1137.0</ele><time>2026-04-18T11:24:05Z</time></trkpt><trkpt lat="44.38455764697129" lon="6.650482366211681"><ele>1137.0</ele><time>2026-04-18T11:24:06Z</time></trkpt><trkpt lat="44.384592538676884" lon="6.65036242290893"><ele>1137.0</ele><time>2026-04-18T11:24:07Z</time></trkpt><trkpt lat="44.3846180679054" lon="6.650239053119981"><ele>1137.0</ele><time>2026-04-18T11:24:08Z</time></trkpt><trkpt lat="44.38465067957734" lon="6.6501163539245916"><ele>1137.0</ele><time>2026-04-18T11:24:09Z</time></trkpt><trkpt lat="44.3846844156529" lon="6.649963928104378"><ele>1137.0</ele><time>2026-04-18T11:24:10Z</time></trkpt><trkpt lat="44.38469137966914" lon="6.649809591922507"><ele>1137.0</ele><time>2026-04-18T11:24:11Z</time></trkpt><trkpt lat="44.384718983926795" lon="6.649694879990755"><ele>1137.0</ele><time>2026-04-18T11:24:12Z</time></trkpt><trkpt lat="44.38473949709096" lon="6.649575713760633"><ele>1137.0</ele><time>2026-04-18T11:24:13Z</time></trkpt><trkpt lat="44.38477963168998" lon="6.649482494044602"><ele>1137.0</ele><time>2026-04-18T11:24:14Z</time></trkpt><trkpt lat="44.38480132802809" lon="6.6493745230245365"><ele>1137.0</ele><time>2026-04-18T11:24:15Z</time></trkpt><trkpt lat="44.384822969030935" lon="6.649190183322356"><ele>1137.0</ele><time>2026-04-18T11:24:17Z</time></trkpt><trkpt lat="44.38483925190234" lon="6.6491031322937655"><ele>1137.0</ele><time>2026-04-18T11:24:18Z</time></trkpt><trkpt lat="44.384867585492465" lon="6.648962453747417"><ele>1137.0</ele><time>2026-04-18T11:24:20Z</time></trkpt><trkpt lat="44.38492585205041" lon="6.648908519482165"><ele>1137.0</ele><time>2026-04-18T11:24:21Z</time></trkpt><trkpt lat="44.38496948554621" lon="6.648829652164384"><ele>1137.0</ele><time>2026-04-18T11:24:22Z</time></trkpt><trkpt lat="44.385013450567016" lon="6.648742763300806"><ele>1137.0</ele><time>2026-04-18T11:24:23Z</time></trkpt><trkpt lat="44.385043509929616" lon="6.648644899641084"><ele>1137.0</ele><time>2026-04-18T11:24:24Z</time></trkpt><trkpt lat="44.385049296029045" lon="6.648525193300023"><ele>1137.0</ele><time>2026-04-18T11:24:25Z</time></trkpt><trkpt lat="44.38506652268696" lon="6.648371591608689"><ele>1137.0</ele><time>2026-04-18T11:24:26Z</time></trkpt><trkpt lat="44.38507631807648" lon="6.648225949545818"><ele>1136.25</ele><time>2026-04-18T11:24:27Z</time></trkpt><trkpt lat="44.38510531469051" lon="6.648081152714939"><ele>1135.5</ele><time>2026-04-18T11:24:28Z</time></trkpt><trkpt lat="44.38514870282659" lon="6.647907503839733"><ele>1134.75</ele><time>2026-04-18T11:24:29Z</time></trkpt><trkpt lat="44.38518523270614" lon="6.64772659495571"><ele>1134.0</ele><time>2026-04-18T11:24:30Z</time></trkpt><trkpt lat="44.38522352385505" lon="6.6475895183908005"><ele>1134.0</ele><time>2026-04-18T11:24:31Z</time></trkpt><trkpt lat="44.3852585896139" lon="6.6474412347121365"><ele>1134.0</ele><time>2026-04-18T11:24:32Z</time></trkpt><trkpt lat="44.38528560104622" lon="6.647291145108948"><ele>1134.0</ele><time>2026-04-18T11:24:33Z</time></trkpt><trkpt lat="44.385323540753205" lon="6.647149977227551"><ele>1134.0</ele><time>2026-04-18T11:24:34Z</time></trkpt><trkpt lat="44.385351979475196" lon="6.647015744461644"><ele>1134.0</ele><time>2026-04-18T11:24:35Z</time></trkpt><trkpt lat="44.38538563088263" lon="6.646883149137314"><ele>1134.25</ele><time>2026-04-18T11:24:36Z</time></trkpt><trkpt lat="44.38541079149141" lon="6.646732687987581"><ele>1134.5</ele><time>2026-04-18T11:24:37Z</time></trkpt><trkpt lat="44.385481580940585" lon="6.646608423253636"><ele>1134.75</ele><time>2026-04-18T11:24:38Z</time></trkpt><trkpt lat="44.38552442729132" lon="6.646446714349498"><ele>1135.0</ele><time>2026-04-18T11:24:39Z</time></trkpt><trkpt lat="44.38556717125185" lon="6.646288120921956"><ele>1134.75</ele><time>2026-04-18T11:24:40Z</time></trkpt><trkpt lat="44.385596860623544" lon="6.646118759194842"><ele>1134.5</ele><time>2026-04-18T11:24:41Z</time></trkpt><trkpt lat="44.38562801765983" lon="6.645948332136695"><ele>1134.25</ele><time>2026-04-18T11:24:42Z</time></trkpt><trkpt lat="44.38566000608907" lon="6.645798789691461"><ele>1134.0</ele><time>2026-04-18T11:24:43Z</time></trkpt><trkpt lat="44.38569527721415" lon="6.645622452218749"><ele>1134.0</ele><time>2026-04-18T11:24:44Z</time></trkpt><trkpt lat="44.38571326910063" lon="6.6454766046778655"><ele>1134.0</ele><time>2026-04-18T11:24:45Z</time></trkpt><trkpt lat="44.3857316926813" lon="6.645303745027595"><ele>1134.0</ele><time>2026-04-18T11:24:46Z</time></trkpt><trkpt lat="44.385754917556135" lon="6.645169414584668"><ele>1134.0</ele><time>2026-04-18T11:24:47Z</time></trkpt><trkpt lat="44.385791497476674" lon="6.645016834392765"><ele>1134.0</ele><time>2026-04-18T11:24:48Z</time></trkpt><trkpt lat="44.38580584142778" lon="6.644862250111938"><ele>1133.6000000000001</ele><time>2026-04-18T11:24:49Z</time></trkpt><trkpt lat="44.38583600561793" lon="6.644713171268146"><ele>1133.2</ele><time>2026-04-18T11:24:50Z</time></trkpt><trkpt lat="44.38585410388621" lon="6.644559917598858"><ele>1132.8000000000002</ele><time>2026-04-18T11:24:51Z</time></trkpt><trkpt lat="44.38587856955291" lon="6.644416469723239"><ele>1132.4</ele><time>2026-04-18T11:24:52Z</time></trkpt><trkpt lat="44.38591850121216" lon="6.644289234787281"><ele>1132.0</ele><time>2026-04-18T11:24:53Z</time></trkpt><trkpt lat="44.38594192623895" lon="6.644149769593526"><ele>1132.0</ele><time>2026-04-18T11:24:54Z</time></trkpt><trkpt lat="44.385965195686545" lon="6.644007059379299"><ele>1132.0</ele><time>2026-04-18T11:24:55Z</time></trkpt><trkpt lat="44.38598815924753" lon="6.643867366150408"><ele>1132.0</ele><time>2026-04-18T11:24:56Z</time></trkpt><trkpt lat="44.386000934949955" lon="6.643740908731707"><ele>1132.0</ele><time>2026-04-18T11:24:57Z</time></trkpt><trkpt lat="44.38601693349967" lon="6.643620030597304"><ele>1132.0</ele><time>2026-04-18T11:24:58Z</time></trkpt><trkpt lat="44.386035949791925" lon="6.643495353944162"><ele>1132.0</ele><time>2026-04-18T11:24:59Z</time></trkpt><trkpt lat="44.38605337950694" lon="6.643378459097523"><ele>1132.0</ele><time>2026-04-18T11:25:00Z</time></trkpt><trkpt lat="44.38606884879774" lon="6.6432577746641615"><ele>1132.0</ele><time>2026-04-18T11:25:01Z</time></trkpt><trkpt lat="44.38610503864283" lon="6.643165225570979"><ele>1132.0</ele><time>2026-04-18T11:25:02Z</time></trkpt><trkpt lat="44.38613129397049" lon="6.643001357208791"><ele>1132.0</ele><time>2026-04-18T11:25:04Z</time></trkpt><trkpt lat="44.386152569890804" lon="6.642858143787479"><ele>1132.2</ele><time>2026-04-18T11:25:06Z</time></trkpt><trkpt lat="44.386218876929185" lon="6.642760957450143"><ele>1132.4</ele><time>2026-04-18T11:25:08Z</time></trkpt><trkpt lat="44.38628781422125" lon="6.642662935314728"><ele>1132.6</ele><time>2026-04-18T11:25:10Z</time></trkpt><trkpt lat="44.38629969264125" lon="6.642457946549155"><ele>1132.8</ele><time>2026-04-18T11:25:12Z</time></trkpt><trkpt lat="44.386289927559474" lon="6.642319892839953"><ele>1133.0</ele><time>2026-04-18T11:25:13Z</time></trkpt><trkpt lat="44.38628730050826" lon="6.642111900515244"><ele>1132.75</ele><time>2026-04-18T11:25:14Z</time></trkpt><trkpt lat="44.386327050141446" lon="6.641960110027053"><ele>1132.5</ele><time>2026-04-18T11:25:15Z</time></trkpt><trkpt lat="44.386335823053464" lon="6.641781602973411"><ele>1132.25</ele><time>2026-04-18T11:25:16Z</time></trkpt><trkpt lat="44.38634174582495" lon="6.641586739535289"><ele>1132.0</ele><time>2026-04-18T11:25:17Z</time></trkpt><trkpt lat="44.38633795797148" lon="6.641380866577823"><ele>1132.0</ele><time>2026-04-18T11:25:18Z</time></trkpt><trkpt lat="44.38634530061282" lon="6.641143727711164"><ele>1132.0</ele><time>2026-04-18T11:25:19Z</time></trkpt><trkpt lat="44.386322921031706" lon="6.640820862080469"><ele>1132.0</ele><time>2026-04-18T11:25:20Z</time></trkpt><trkpt lat="44.3863535716896" lon="6.640540650023499"><ele>1132.6666666666665</ele><time>2026-04-18T11:25:21Z</time></trkpt><trkpt lat="44.386346178409546" lon="6.640257952681742"><ele>1133.3333333333333</ele><time>2026-04-18T11:25:22Z</time></trkpt><trkpt lat="44.38635959047106" lon="6.639958575848379"><ele>1134.0</ele><time>2026-04-18T11:25:23Z</time></trkpt><trkpt lat="44.386368865333544" lon="6.639674621063896"><ele>1133.3333333333333</ele><time>2026-04-18T11:25:24Z</time></trkpt><trkpt lat="44.386368143943066" lon="6.639395344773402"><ele>1132.6666666666665</ele><time>2026-04-18T11:25:25Z</time></trkpt><trkpt lat="44.386376395330764" lon="6.639120100041419"><ele>1132.0</ele><time>2026-04-18T11:25:26Z</time></trkpt><trkpt lat="44.3863698380225" lon="6.638835411562721"><ele>1132.3333333333333</ele><time>2026-04-18T11:25:27Z</time></trkpt><trkpt lat="44.38635885249636" lon="6.638557137000275"><ele>1132.6666666666667</ele><time>2026-04-18T11:25:28Z</time></trkpt><trkpt lat="44.38634827616868" lon="6.638278908022868"><ele>1133.0</ele><time>2026-04-18T11:25:29Z</time></trkpt><trkpt lat="44.3863665623016" lon="6.638006824160384"><ele>1132.3333333333335</ele><time>2026-04-18T11:25:30Z</time></trkpt><trkpt lat="44.386369306676045" lon="6.637744072921232"><ele>1131.6666666666667</ele><time>2026-04-18T11:25:31Z</time></trkpt><trkpt lat="44.38635659412769" lon="6.637469649542346"><ele>1131.0</ele><time>2026-04-18T11:25:32Z</time></trkpt><trkpt lat="44.38634259519822" lon="6.63721027114365"><ele>1130.3333333333333</ele><time>2026-04-18T11:25:33Z</time></trkpt><trkpt lat="44.38632136743658" lon="6.636945587776088"><ele>1129.6666666666665</ele><time>2026-04-18T11:25:34Z</time></trkpt><trkpt lat="44.386316652914346" lon="6.636679240402881"><ele>1129.0</ele><time>2026-04-18T11:25:35Z</time></trkpt><trkpt lat="44.38631530225509" lon="6.636427671543719"><ele>1129.0</ele><time>2026-04-18T11:25:36Z</time></trkpt><trkpt lat="44.386300315471324" lon="6.636171967145789"><ele>1129.0</ele><time>2026-04-18T11:25:37Z</time></trkpt><trkpt lat="44.386302418008505" lon="6.635919400707337"><ele>1129.0</ele><time>2026-04-18T11:25:38Z</time></trkpt><trkpt lat="44.38630095781465" lon="6.635670867387998"><ele>1128.6666666666665</ele><time>2026-04-18T11:25:39Z</time></trkpt><trkpt lat="44.38630162277919" lon="6.635421990211831"><ele>1128.3333333333333</ele><time>2026-04-18T11:25:40Z</time></trkpt><trkpt lat="44.386296672610634" lon="6.635169665182915"><ele>1128.0</ele><time>2026-04-18T11:25:41Z</time></trkpt><trkpt lat="44.38630101808085" lon="6.634921020952786"><ele>1128.3333333333333</ele><time>2026-04-18T11:25:42Z</time></trkpt><trkpt lat="44.386287344022286" lon="6.634678908502225"><ele>1128.6666666666665</ele><time>2026-04-18T11:25:43Z</time></trkpt><trkpt lat="44.386301348197605" lon="6.634414913592665"><ele>1129.0</ele><time>2026-04-18T11:25:44Z</time></trkpt><trkpt lat="44.386301521486146" lon="6.6341492457703035"><ele>1129.0</ele><time>2026-04-18T11:25:45Z</time></trkpt><trkpt lat="44.38630168390667" lon="6.633900247165952"><ele>1129.0</ele><time>2026-04-18T11:25:46Z</time></trkpt><trkpt lat="44.38630201122057" lon="6.633649548187706"><ele>1129.0</ele><time>2026-04-18T11:25:47Z</time></trkpt><trkpt lat="44.386302418324256" lon="6.633410484941165"><ele>1128.6666666666665</ele><time>2026-04-18T11:25:48Z</time></trkpt><trkpt lat="44.386302645767614" lon="6.633168455703697"><ele>1128.3333333333333</ele><time>2026-04-18T11:25:49Z</time></trkpt><trkpt lat="44.386302800445705" lon="6.632938420310925"><ele>1128.0</ele><time>2026-04-18T11:25:50Z</time></trkpt><trkpt lat="44.38630300328931" lon="6.632701985693345"><ele>1127.6666666666667</ele><time>2026-04-18T11:25:51Z</time></trkpt><trkpt lat="44.386303193149" lon="6.632480684626836"><ele>1127.3333333333335</ele><time>2026-04-18T11:25:52Z</time></trkpt><trkpt lat="44.38630337733088" lon="6.632266003248184"><ele>1127.0</ele><time>2026-04-18T11:25:53Z</time></trkpt><trkpt lat="44.386303562102796" lon="6.632050630061176"><ele>1127.3333333333335</ele><time>2026-04-18T11:25:54Z</time></trkpt><trkpt lat="44.38630425990276" lon="6.631837873118027"><ele>1127.6666666666667</ele><time>2026-04-18T11:25:55Z</time></trkpt><trkpt lat="44.38630541467481" lon="6.631621050267415"><ele>1128.0</ele><time>2026-04-18T11:25:56Z</time></trkpt><trkpt lat="44.386306626735355" lon="6.631393469836269"><ele>1128.0</ele><time>2026-04-18T11:25:57Z</time></trkpt><trkpt lat="44.38630713390339" lon="6.63117478609193"><ele>1128.0</ele><time>2026-04-18T11:25:58Z</time></trkpt><trkpt lat="44.386306066619966" lon="6.630953240063881"><ele>1128.0</ele><time>2026-04-18T11:25:59Z</time></trkpt><trkpt lat="44.386299552884786" lon="6.6307389253947155"><ele>1128.5</ele><time>2026-04-18T11:26:00Z</time></trkpt><trkpt lat="44.38630692237949" lon="6.630525801885076"><ele>1129.0</ele><time>2026-04-18T11:26:01Z</time></trkpt><trkpt lat="44.38631033633492" lon="6.630335651600554"><ele>1129.5</ele><time>2026-04-18T11:26:02Z</time></trkpt><trkpt lat="44.386316880223866" lon="6.630160836112879"><ele>1130.0</ele><time>2026-04-18T11:26:03Z</time></trkpt><trkpt lat="44.386329737248396" lon="6.629995881795337"><ele>1129.4</ele><time>2026-04-18T11:26:03.999Z</time></trkpt><trkpt lat="44.38633246982206" lon="6.629838961642522"><ele>1128.8</ele><time>2026-04-18T11:26:04.999Z</time></trkpt><trkpt lat="44.3863559235866" lon="6.629707690845178"><ele>1128.2</ele><time>2026-04-18T11:26:05.999Z</time></trkpt><trkpt lat="44.38637736824876" lon="6.629602765357822"><ele>1127.6</ele><time>2026-04-18T11:26:06.999Z</time></trkpt><trkpt lat="44.38641157033635" lon="6.629511283331573"><ele>1127.0</ele><time>2026-04-18T11:26:07.999Z</time></trkpt><trkpt lat="44.386517345405785" lon="6.629384723756955"><ele>1127.0</ele><time>2026-04-18T11:26:10Z</time></trkpt><trkpt lat="44.386549806940955" lon="6.629298662971343"><ele>1127.0</ele><time>2026-04-18T11:26:11Z</time></trkpt><trkpt lat="44.386565847852566" lon="6.629187465094485"><ele>1127.0</ele><time>2026-04-18T11:26:12Z</time></trkpt><trkpt lat="44.38653066316093" lon="6.629095563602283"><ele>1127.0</ele><time>2026-04-18T11:26:13Z</time></trkpt><trkpt lat="44.38645880105771" lon="6.629016734894319"><ele>1127.0</ele><time>2026-04-18T11:26:14Z</time></trkpt><trkpt lat="44.38641353763525" lon="6.6289113657783725"><ele>1127.0</ele><time>2026-04-18T11:26:15Z</time></trkpt><trkpt lat="44.38638025542951" lon="6.6287803187366805"><ele>1127.25</ele><time>2026-04-18T11:26:16Z</time></trkpt><trkpt lat="44.38632194692249" lon="6.628630904861946"><ele>1127.5</ele><time>2026-04-18T11:26:17Z</time></trkpt><trkpt lat="44.386333925936135" lon="6.628447287312926"><ele>1127.75</ele><time>2026-04-18T11:26:18Z</time></trkpt><trkpt lat="44.38632220151289" lon="6.62827887593435"><ele>1128.0</ele><time>2026-04-18T11:26:19Z</time></trkpt><trkpt lat="44.3863150643298" lon="6.628049873784449"><ele>1128.0</ele><time>2026-04-18T11:26:20Z</time></trkpt><trkpt lat="44.386312556323176" lon="6.627868453431961"><ele>1128.0</ele><time>2026-04-18T11:26:21Z</time></trkpt><trkpt lat="44.386310135224726" lon="6.627654690508184"><ele>1128.0</ele><time>2026-04-18T11:26:22Z</time></trkpt><trkpt lat="44.386308997862045" lon="6.627428143283523"><ele>1128.0</ele><time>2026-04-18T11:26:23Z</time></trkpt><trkpt lat="44.386315691127464" lon="6.627181926016992"><ele>1127.6666666666667</ele><time>2026-04-18T11:26:24Z</time></trkpt><trkpt lat="44.38630893848729" lon="6.6269046944418175"><ele>1127.3333333333335</ele><time>2026-04-18T11:26:25Z</time></trkpt><trkpt lat="44.386312072028005" lon="6.626633882075361"><ele>1127.0</ele><time>2026-04-18T11:26:26Z</time></trkpt><trkpt lat="44.38631189279055" lon="6.626349668798243"><ele>1126.6666666666667</ele><time>2026-04-18T11:26:27Z</time></trkpt><trkpt lat="44.386314323707126" lon="6.62606256654883"><ele>1126.3333333333333</ele><time>2026-04-18T11:26:28Z</time></trkpt><trkpt lat="44.386309004114025" lon="6.625774643148618"><ele>1126.0</ele><time>2026-04-18T11:26:29Z</time></trkpt><trkpt lat="44.38631144310543" lon="6.625476198586503"><ele>1125.0</ele><time>2026-04-18T11:26:30Z</time></trkpt><trkpt lat="44.38630584010207" lon="6.625177922460617"><ele>1124.0</ele><time>2026-04-18T11:26:31Z</time></trkpt><trkpt lat="44.38630742778623" lon="6.624864758738652"><ele>1123.0</ele><time>2026-04-18T11:26:32Z</time></trkpt><trkpt lat="44.38630821664743" lon="6.62456313703653"><ele>1122.6666666666665</ele><time>2026-04-18T11:26:33Z</time></trkpt><trkpt lat="44.38630144953175" lon="6.624264003803716"><ele>1122.3333333333333</ele><time>2026-04-18T11:26:34Z</time></trkpt><trkpt lat="44.386307157964744" lon="6.623954241406876"><ele>1122.0</ele><time>2026-04-18T11:26:35Z</time></trkpt><trkpt lat="44.386310284719954" lon="6.623658270888961"><ele>1121.6666666666667</ele><time>2026-04-18T11:26:36Z</time></trkpt><trkpt lat="44.38630215139895" lon="6.623359215540645"><ele>1121.3333333333335</ele><time>2026-04-18T11:26:37Z</time></trkpt><trkpt lat="44.38630022345381" lon="6.623068797939235"><ele>1121.0</ele><time>2026-04-18T11:26:38Z</time></trkpt><trkpt lat="44.386295313210596" lon="6.6227808561121115"><ele>1120.6666666666667</ele><time>2026-04-18T11:26:39Z</time></trkpt><trkpt lat="44.386317276680366" lon="6.622498908454521"><ele>1120.3333333333333</ele><time>2026-04-18T11:26:40Z</time></trkpt><trkpt lat="44.38631942915561" lon="6.622205774834863"><ele>1120.0</ele><time>2026-04-18T11:26:41Z</time></trkpt><trkpt lat="44.38632569767975" lon="6.6219281620792865"><ele>1120.0</ele><time>2026-04-18T11:26:42Z</time></trkpt><trkpt lat="44.386315502996794" lon="6.621641509393992"><ele>1120.0</ele><time>2026-04-18T11:26:43Z</time></trkpt><trkpt lat="44.38631476265325" lon="6.62136837897994"><ele>1120.0</ele><time>2026-04-18T11:26:44Z</time></trkpt><trkpt lat="44.3863045860289" lon="6.621093098162155"><ele>1119.6666666666665</ele><time>2026-04-18T11:26:45Z</time></trkpt><trkpt lat="44.38631426902714" lon="6.620800695938243"><ele>1119.3333333333333</ele><time>2026-04-18T11:26:46Z</time></trkpt><trkpt lat="44.38630027861038" lon="6.620517789201931"><ele>1119.0</ele><time>2026-04-18T11:26:47Z</time></trkpt><trkpt lat="44.38630465459775" lon="6.620225705253928"><ele>1118.6666666666667</ele><time>2026-04-18T11:26:48Z</time></trkpt><trkpt lat="44.38630675271647" lon="6.619940922753853"><ele>1118.3333333333335</ele><time>2026-04-18T11:26:49Z</time></trkpt><trkpt lat="44.38631627419597" lon="6.61964060328197"><ele>1118.0</ele><time>2026-04-18T11:26:50Z</time></trkpt><trkpt lat="44.38631645371211" lon="6.619356105003915"><ele>1117.6666666666667</ele><time>2026-04-18T11:26:51Z</time></trkpt><trkpt lat="44.38630418987162" lon="6.619064638021774"><ele>1117.3333333333333</ele><time>2026-04-18T11:26:52Z</time></trkpt><trkpt lat="44.38631404983734" lon="6.618766714590836"><ele>1117.0</ele><time>2026-04-18T11:26:53Z</time></trkpt><trkpt lat="44.38631366557333" lon="6.618467705502575"><ele>1117.0</ele><time>2026-04-18T11:26:54Z</time></trkpt><trkpt lat="44.38631446159627" lon="6.618172867424316"><ele>1117.0</ele><time>2026-04-18T11:26:55Z</time></trkpt><trkpt lat="44.3863138169914" lon="6.617871246859037"><ele>1117.0</ele><time>2026-04-18T11:26:56Z</time></trkpt><trkpt lat="44.38630654541834" lon="6.617565432694291"><ele>1117.0</ele><time>2026-04-18T11:26:57Z</time></trkpt><trkpt lat="44.38630304885197" lon="6.61725813143101"><ele>1117.0</ele><time>2026-04-18T11:26:58Z</time></trkpt><trkpt lat="44.386317976135935" lon="6.616943397842707"><ele>1117.0</ele><time>2026-04-18T11:26:59Z</time></trkpt><trkpt lat="44.386317564609875" lon="6.616642556482665"><ele>1116.6666666666665</ele><time>2026-04-18T11:27:00Z</time></trkpt><trkpt lat="44.38631630949024" lon="6.616348306228247"><ele>1116.3333333333333</ele><time>2026-04-18T11:27:01Z</time></trkpt><trkpt lat="44.38631317010511" lon="6.61604645421904"><ele>1116.0</ele><time>2026-04-18T11:27:02Z</time></trkpt><trkpt lat="44.38630970201377" lon="6.615763226867788"><ele>1116.0</ele><time>2026-04-18T11:27:03Z</time></trkpt><trkpt lat="44.386289594539285" lon="6.615487161763771"><ele>1116.0</ele><time>2026-04-18T11:27:04Z</time></trkpt><trkpt lat="44.386281858680604" lon="6.615215351387277"><ele>1116.0</ele><time>2026-04-18T11:27:05Z</time></trkpt><trkpt lat="44.38626668684666" lon="6.61496426740223"><ele>1116.3333333333333</ele><time>2026-04-18T11:27:06Z</time></trkpt><trkpt lat="44.38622875680942" lon="6.614722556576836"><ele>1116.6666666666665</ele><time>2026-04-18T11:27:07Z</time></trkpt><trkpt lat="44.38618714441527" lon="6.614483174730742"><ele>1117.0</ele><time>2026-04-18T11:27:08Z</time></trkpt><trkpt lat="44.38612628047714" lon="6.614242771126503"><ele>1117.3333333333333</ele><time>2026-04-18T11:27:09Z</time></trkpt><trkpt lat="44.38604601693835" lon="6.614020978870536"><ele>1117.6666666666667</ele><time>2026-04-18T11:27:10Z</time></trkpt><trkpt lat="44.38598902258198" lon="6.613780468730924"><ele>1118.0</ele><time>2026-04-18T11:27:11Z</time></trkpt><trkpt lat="44.385928779070795" lon="6.61352974367292"><ele>1118.6666666666667</ele><time>2026-04-18T11:27:12Z</time></trkpt><trkpt lat="44.3858636731629" lon="6.613279116108812"><ele>1119.3333333333333</ele><time>2026-04-18T11:27:13Z</time></trkpt><trkpt lat="44.38581463913" lon="6.613048471894606"><ele>1120.0</ele><time>2026-04-18T11:27:14Z</time></trkpt><trkpt lat="44.385758901278344" lon="6.612787887798623"><ele>1121.3333333333333</ele><time>2026-04-18T11:27:15Z</time></trkpt><trkpt lat="44.38570332921992" lon="6.612535640964682"><ele>1122.6666666666667</ele><time>2026-04-18T11:27:16Z</time></trkpt><trkpt lat="44.3856518209898" lon="6.6122872617768556"><ele>1124.0</ele><time>2026-04-18T11:27:17Z</time></trkpt><trkpt lat="44.3856148595139" lon="6.612043167480686"><ele>1124.6666666666667</ele><time>2026-04-18T11:27:18Z</time></trkpt><trkpt lat="44.38556676392822" lon="6.611777225462753"><ele>1125.3333333333333</ele><time>2026-04-18T11:27:19Z</time></trkpt><trkpt lat="44.38553767518886" lon="6.611506238430033"><ele>1126.0</ele><time>2026-04-18T11:27:20Z</time></trkpt><trkpt lat="44.38551106109312" lon="6.611248715137685"><ele>1123.6666666666665</ele><time>2026-04-18T11:27:21Z</time></trkpt><trkpt lat="44.38550399797211" lon="6.610985725606147"><ele>1121.3333333333333</ele><time>2026-04-18T11:27:22Z</time></trkpt><trkpt lat="44.3854773160033" lon="6.610747219238099"><ele>1119.0</ele><time>2026-04-18T11:27:23Z</time></trkpt><trkpt lat="44.385455662700274" lon="6.610503784268902"><ele>1119.3333333333333</ele><time>2026-04-18T11:27:24Z</time></trkpt><trkpt lat="44.385440948351075" lon="6.610267975809337"><ele>1119.6666666666665</ele><time>2026-04-18T11:27:25Z</time></trkpt><trkpt lat="44.385440684836425" lon="6.610036420067026"><ele>1120.0</ele><time>2026-04-18T11:27:26Z</time></trkpt><trkpt lat="44.38542524486717" lon="6.609789593814901"><ele>1120.0</ele><time>2026-04-18T11:27:27Z</time></trkpt><trkpt lat="44.38541345610356" lon="6.609540937897483"><ele>1120.0</ele><time>2026-04-18T11:27:28Z</time></trkpt><trkpt lat="44.3853938385615" lon="6.609299098564114"><ele>1120.0</ele><time>2026-04-18T11:27:29Z</time></trkpt><trkpt lat="44.385385328710875" lon="6.6090406228242475"><ele>1120.0</ele><time>2026-04-18T11:27:30Z</time></trkpt><trkpt lat="44.385371058137586" lon="6.6087931618777205"><ele>1120.0</ele><time>2026-04-18T11:27:31Z</time></trkpt><trkpt lat="44.38536945843633" lon="6.608546665771117"><ele>1120.0</ele><time>2026-04-18T11:27:32Z</time></trkpt><trkpt lat="44.38536693458032" lon="6.608281567158495"><ele>1119.6666666666665</ele><time>2026-04-18T11:27:33Z</time></trkpt><trkpt lat="44.38537148491958" lon="6.608015417138412"><ele>1119.3333333333333</ele><time>2026-04-18T11:27:34Z</time></trkpt><trkpt lat="44.38537732647101" lon="6.6077517747677526"><ele>1119.0</ele><time>2026-04-18T11:27:35Z</time></trkpt><trkpt lat="44.38540300186717" lon="6.607486539815233"><ele>1118.6666666666667</ele><time>2026-04-18T11:27:36Z</time></trkpt><trkpt lat="44.38542446345154" lon="6.607211455708683"><ele>1118.3333333333335</ele><time>2026-04-18T11:27:37Z</time></trkpt><trkpt lat="44.385454185549925" lon="6.606943804888075"><ele>1118.0</ele><time>2026-04-18T11:27:38Z</time></trkpt><trkpt lat="44.38549096860062" lon="6.6066735575251325"><ele>1119.6666666666667</ele><time>2026-04-18T11:27:39Z</time></trkpt><trkpt lat="44.38552858176626" lon="6.606412819570298"><ele>1121.3333333333333</ele><time>2026-04-18T11:27:40Z</time></trkpt><trkpt lat="44.38556972282898" lon="6.606153137467757"><ele>1123.0</ele><time>2026-04-18T11:27:41Z</time></trkpt><trkpt lat="44.385614120294754" lon="6.60589550634318"><ele>1123.0</ele><time>2026-04-18T11:27:42Z</time></trkpt><trkpt lat="44.38565655545872" lon="6.605644646575689"><ele>1123.0</ele><time>2026-04-18T11:27:43Z</time></trkpt><trkpt lat="44.38569970792148" lon="6.605392310360393"><ele>1123.0</ele><time>2026-04-18T11:27:44Z</time></trkpt><trkpt lat="44.385749235949014" lon="6.605132039794892"><ele>1122.6666666666665</ele><time>2026-04-18T11:27:45Z</time></trkpt><trkpt lat="44.385810703128385" lon="6.604883999281528"><ele>1122.3333333333333</ele><time>2026-04-18T11:27:46Z</time></trkpt><trkpt lat="44.38587235395771" lon="6.604657934488851"><ele>1122.0</ele><time>2026-04-18T11:27:47Z</time></trkpt><trkpt lat="44.38594355398792" lon="6.6044131003161075"><ele>1121.3333333333333</ele><time>2026-04-18T11:27:48Z</time></trkpt><trkpt lat="44.38601550828321" lon="6.604136093985633"><ele>1120.6666666666665</ele><time>2026-04-18T11:27:49Z</time></trkpt><trkpt lat="44.38609380884498" lon="6.603873400933275"><ele>1120.0</ele><time>2026-04-18T11:27:50Z</time></trkpt><trkpt lat="44.386181205177806" lon="6.603597199509291"><ele>1120.0</ele><time>2026-04-18T11:27:51Z</time></trkpt><trkpt lat="44.386265496381995" lon="6.603332677236226"><ele>1120.0</ele><time>2026-04-18T11:27:52Z</time></trkpt><trkpt lat="44.38634762100753" lon="6.603056410042302"><ele>1120.0</ele><time>2026-04-18T11:27:53Z</time></trkpt><trkpt lat="44.38643909572374" lon="6.602780890604193"><ele>1120.0</ele><time>2026-04-18T11:27:54Z</time></trkpt><trkpt lat="44.38651885209648" lon="6.602481497985588"><ele>1120.0</ele><time>2026-04-18T11:27:55Z</time></trkpt><trkpt lat="44.38660742623552" lon="6.6021948297831985"><ele>1119.5</ele><time>2026-04-18T11:27:56Z</time></trkpt><trkpt lat="44.386693291070245" lon="6.601904025897379"><ele>1119.0</ele><time>2026-04-18T11:27:57Z</time></trkpt><trkpt lat="44.38677920358283" lon="6.601605490310537"><ele>1119.0</ele><time>2026-04-18T11:27:58Z</time></trkpt><trkpt lat="44.38688133880294" lon="6.6013066959080655"><ele>1119.0</ele><time>2026-04-18T11:27:59Z</time></trkpt><trkpt lat="44.38696605337208" lon="6.6009963084487335"><ele>1117.5</ele><time>2026-04-18T11:28:00Z</time></trkpt><trkpt lat="44.38706416875561" lon="6.600688336659236"><ele>1116.0</ele><time>2026-04-18T11:28:01Z</time></trkpt><trkpt lat="44.38714305279005" lon="6.600386558288732"><ele>1116.5</ele><time>2026-04-18T11:28:02Z</time></trkpt><trkpt lat="44.38722373350217" lon="6.600078622698804"><ele>1117.0</ele><time>2026-04-18T11:28:03Z</time></trkpt><trkpt lat="44.387308478759785" lon="6.599784361340578"><ele>1117.0</ele><time>2026-04-18T11:28:04Z</time></trkpt><trkpt lat="44.387404988539444" lon="6.599502996915175"><ele>1117.0</ele><time>2026-04-18T11:28:05Z</time></trkpt><trkpt lat="44.38748777702795" lon="6.59920971225008"><ele>1117.0</ele><time>2026-04-18T11:28:06Z</time></trkpt><trkpt lat="44.38757410138942" lon="6.5989356180224625"><ele>1116.6666666666665</ele><time>2026-04-18T11:28:07Z</time></trkpt><trkpt lat="44.387655173428314" lon="6.598647469238434"><ele>1116.3333333333333</ele><time>2026-04-18T11:28:08Z</time></trkpt><trkpt lat="44.387742254208746" lon="6.598371432130631"><ele>1116.0</ele><time>2026-04-18T11:28:09Z</time></trkpt><trkpt lat="44.387832200882976" lon="6.598082541900564"><ele>1115.6666666666667</ele><time>2026-04-18T11:28:10Z</time></trkpt><trkpt lat="44.38792374164411" lon="6.597797378693612"><ele>1115.3333333333335</ele><time>2026-04-18T11:28:11Z</time></trkpt><trkpt lat="44.38802179534608" lon="6.597514367045116"><ele>1115.0</ele><time>2026-04-18T11:28:12Z</time></trkpt><trkpt lat="44.38810941919478" lon="6.597218264607186"><ele>1115.5</ele><time>2026-04-18T11:28:13Z</time></trkpt><trkpt lat="44.38819809296156" lon="6.596910686672087"><ele>1116.0</ele><time>2026-04-18T11:28:14Z</time></trkpt><trkpt lat="44.3882903976224" lon="6.596615506122447"><ele>1116.0</ele><time>2026-04-18T11:28:15Z</time></trkpt><trkpt lat="44.38839927222416" lon="6.596309711903424"><ele>1116.0</ele><time>2026-04-18T11:28:16Z</time></trkpt><trkpt lat="44.38848679278326" lon="6.596013532515174"><ele>1114.0</ele><time>2026-04-18T11:28:17Z</time></trkpt><trkpt lat="44.38856255857963" lon="6.595718789744231"><ele>1112.0</ele><time>2026-04-18T11:28:18Z</time></trkpt><trkpt lat="44.38867219680913" lon="6.5954405607034925"><ele>1110.5</ele><time>2026-04-18T11:28:19Z</time></trkpt><trkpt lat="44.38878730262882" lon="6.595148375726479"><ele>1109.0</ele><time>2026-04-18T11:28:20Z</time></trkpt><trkpt lat="44.38890169463523" lon="6.594869113170178"><ele>1110.5</ele><time>2026-04-18T11:28:21Z</time></trkpt><trkpt lat="44.38901568736673" lon="6.594580674957792"><ele>1112.0</ele><time>2026-04-18T11:28:22Z</time></trkpt><trkpt lat="44.38912406247534" lon="6.594286516097198"><ele>1112.0</ele><time>2026-04-18T11:28:23Z</time></trkpt><trkpt lat="44.38924175044657" lon="6.594007370504523"><ele>1112.0</ele><time>2026-04-18T11:28:24Z</time></trkpt><trkpt lat="44.38934419358124" lon="6.593718449132465"><ele>1110.5</ele><time>2026-04-18T11:28:25Z</time></trkpt><trkpt lat="44.38945115850188" lon="6.593426157303754"><ele>1109.0</ele><time>2026-04-18T11:28:26Z</time></trkpt><trkpt lat="44.38957202231098" lon="6.593115465562917"><ele>1109.0</ele><time>2026-04-18T11:28:27Z</time></trkpt><trkpt lat="44.38968835806177" lon="6.592831610384606"><ele>1109.0</ele><time>2026-04-18T11:28:28Z</time></trkpt><trkpt lat="44.389803576064764" lon="6.592522745182811"><ele>1109.0</ele><time>2026-04-18T11:28:29Z</time></trkpt><trkpt lat="44.389918180355146" lon="6.59223242173567"><ele>1109.0</ele><time>2026-04-18T11:28:30Z</time></trkpt><trkpt lat="44.390034542069294" lon="6.591937646486075"><ele>1107.0</ele><time>2026-04-18T11:28:31Z</time></trkpt><trkpt lat="44.390149618737794" lon="6.591646533234089"><ele>1105.0</ele><time>2026-04-18T11:28:32Z</time></trkpt><trkpt lat="44.39026071594831" lon="6.591367667536354"><ele>1105.3333333333333</ele><time>2026-04-18T11:28:33Z</time></trkpt><trkpt lat="44.39036842807341" lon="6.591091933978447"><ele>1105.6666666666667</ele><time>2026-04-18T11:28:34Z</time></trkpt><trkpt lat="44.39045286408163" lon="6.590837244293776"><ele>1106.0</ele><time>2026-04-18T11:28:35Z</time></trkpt><trkpt lat="44.390568556241504" lon="6.5905777183537255"><ele>1105.3333333333335</ele><time>2026-04-18T11:28:36Z</time></trkpt><trkpt lat="44.390646018077" lon="6.5903037975622825"><ele>1104.6666666666667</ele><time>2026-04-18T11:28:37Z</time></trkpt><trkpt lat="44.39071743045944" lon="6.590046754269247"><ele>1104.0</ele><time>2026-04-18T11:28:38Z</time></trkpt><trkpt lat="44.390767682863284" lon="6.589783230158561"><ele>1104.3333333333333</ele><time>2026-04-18T11:28:39Z</time></trkpt><trkpt lat="44.39079223946729" lon="6.589492478586548"><ele>1104.6666666666665</ele><time>2026-04-18T11:28:40Z</time></trkpt><trkpt lat="44.39080822898498" lon="6.589215621239717"><ele>1105.0</ele><time>2026-04-18T11:28:41Z</time></trkpt><trkpt lat="44.3908114203899" lon="6.588945484038063"><ele>1104.6666666666665</ele><time>2026-04-18T11:28:42Z</time></trkpt><trkpt lat="44.39079732535424" lon="6.588657772208189"><ele>1104.3333333333333</ele><time>2026-04-18T11:28:43Z</time></trkpt><trkpt lat="44.39076232241519" lon="6.588350333260007"><ele>1104.0</ele><time>2026-04-18T11:28:44Z</time></trkpt><trkpt lat="44.390725726140055" lon="6.5880604705560755"><ele>1103.3333333333333</ele><time>2026-04-18T11:28:45Z</time></trkpt><trkpt lat="44.39066310287478" lon="6.587757495437642"><ele>1102.6666666666665</ele><time>2026-04-18T11:28:46Z</time></trkpt><trkpt lat="44.39060932698649" lon="6.587467432197033"><ele>1102.0</ele><time>2026-04-18T11:28:47Z</time></trkpt><trkpt lat="44.390500939832776" lon="6.587172208860155"><ele>1103.6666666666665</ele><time>2026-04-18T11:28:48Z</time></trkpt><trkpt lat="44.39041614983973" lon="6.586891052812837"><ele>1105.3333333333333</ele><time>2026-04-18T11:28:49Z</time></trkpt><trkpt lat="44.39033225987188" lon="6.586618786519975"><ele>1107.0</ele><time>2026-04-18T11:28:50Z</time></trkpt><trkpt lat="44.39025079188628" lon="6.58634375836583"><ele>1108.0</ele><time>2026-04-18T11:28:51Z</time></trkpt><trkpt lat="44.390161047441794" lon="6.586053214234829"><ele>1109.0</ele><time>2026-04-18T11:28:52Z</time></trkpt><trkpt lat="44.39009801695755" lon="6.5857778072744"><ele>1110.0</ele><time>2026-04-18T11:28:53Z</time></trkpt><trkpt lat="44.39005271404389" lon="6.585485100104615"><ele>1110.3333333333333</ele><time>2026-04-18T11:28:54Z</time></trkpt><trkpt lat="44.390065707957206" lon="6.585263460920421"><ele>1110.6666666666665</ele><time>2026-04-18T11:28:55Z</time></trkpt><trkpt lat="44.390029581739306" lon="6.584988149804624"><ele>1111.0</ele><time>2026-04-18T11:28:56Z</time></trkpt><trkpt lat="44.39001166561552" lon="6.584717016905091"><ele>1111.0</ele><time>2026-04-18T11:28:57Z</time></trkpt><trkpt lat="44.38997782547879" lon="6.584443466972942"><ele>1111.0</ele><time>2026-04-18T11:28:58Z</time></trkpt><trkpt lat="44.38997921516504" lon="6.584210201332377"><ele>1111.0</ele><time>2026-04-18T11:28:59Z</time></trkpt><trkpt lat="44.38994964877116" lon="6.583934744525632"><ele>1111.0</ele><time>2026-04-18T11:29:00Z</time></trkpt><trkpt lat="44.38995653872009" lon="6.58366526647298"><ele>1111.0</ele><time>2026-04-18T11:29:01Z</time></trkpt><trkpt lat="44.38996733758303" lon="6.583383845890899"><ele>1111.0</ele><time>2026-04-18T11:29:02Z</time></trkpt><trkpt lat="44.38998307368696" lon="6.583098027059844"><ele>1111.0</ele><time>2026-04-18T11:29:03Z</time></trkpt><trkpt lat="44.38999737852528" lon="6.582819321860146"><ele>1111.0</ele><time>2026-04-18T11:29:04Z</time></trkpt><trkpt lat="44.390015735610504" lon="6.582536788806294"><ele>1111.0</ele><time>2026-04-18T11:29:05Z</time></trkpt><trkpt lat="44.39002806243406" lon="6.582266212307315"><ele>1111.0</ele><time>2026-04-18T11:29:06Z</time></trkpt><trkpt lat="44.39004389958425" lon="6.582016731216704"><ele>1111.0</ele><time>2026-04-18T11:29:07Z</time></trkpt><trkpt lat="44.390060029808645" lon="6.581766561743584"><ele>1111.0</ele><time>2026-04-18T11:29:08Z</time></trkpt><trkpt lat="44.39008073192267" lon="6.581535610592022"><ele>1111.0</ele><time>2026-04-18T11:29:09Z</time></trkpt><trkpt lat="44.39011071408925" lon="6.581298430667789"><ele>1111.0</ele><time>2026-04-18T11:29:10Z</time></trkpt><trkpt lat="44.39017291939987" lon="6.5810797481936465"><ele>1111.0</ele><time>2026-04-18T11:29:11Z</time></trkpt><trkpt lat="44.39029054655873" lon="6.580874747192898"><ele>1110.6666666666665</ele><time>2026-04-18T11:29:12Z</time></trkpt><trkpt lat="44.3904187987088" lon="6.580642365720191"><ele>1110.3333333333333</ele><time>2026-04-18T11:29:13Z</time></trkpt><trkpt lat="44.39054804384013" lon="6.580408183108271"><ele>1110.0</ele><time>2026-04-18T11:29:14Z</time></trkpt><trkpt lat="44.390671853079716" lon="6.5801838499294165"><ele>1110.6666666666667</ele><time>2026-04-18T11:29:15Z</time></trkpt><trkpt lat="44.3907753440294" lon="6.57993096701933"><ele>1111.3333333333335</ele><time>2026-04-18T11:29:16Z</time></trkpt><trkpt lat="44.39090018591194" lon="6.579688146381914"><ele>1112.0</ele><time>2026-04-18T11:29:17Z</time></trkpt><trkpt lat="44.391057636365716" lon="6.579426406680559"><ele>1110.0</ele><time>2026-04-18T11:29:18Z</time></trkpt><trkpt lat="44.39120512569701" lon="6.579168442665055"><ele>1108.0</ele><time>2026-04-18T11:29:19Z</time></trkpt><trkpt lat="44.39134643429775" lon="6.5789234141637465"><ele>1106.5</ele><time>2026-04-18T11:29:20Z</time></trkpt><trkpt lat="44.391481280910675" lon="6.5786630092695395"><ele>1105.0</ele><time>2026-04-18T11:29:21Z</time></trkpt><trkpt lat="44.39162205910838" lon="6.578395207363312"><ele>1105.0</ele><time>2026-04-18T11:29:22Z</time></trkpt><trkpt lat="44.391763220589546" lon="6.578134770772515"><ele>1105.0</ele><time>2026-04-18T11:29:23Z</time></trkpt><trkpt lat="44.39189507181691" lon="6.577866982396317"><ele>1103.0</ele><time>2026-04-18T11:29:24Z</time></trkpt><trkpt lat="44.392022649242705" lon="6.577604599106349"><ele>1101.0</ele><time>2026-04-18T11:29:25Z</time></trkpt><trkpt lat="44.392145371007466" lon="6.577340220897797"><ele>1101.0</ele><time>2026-04-18T11:29:26Z</time></trkpt><trkpt lat="44.39226745580503" lon="6.5770921885331015"><ele>1101.0</ele><time>2026-04-18T11:29:27Z</time></trkpt><trkpt lat="44.39239869143014" lon="6.576848595720022"><ele>1101.0</ele><time>2026-04-18T11:29:28Z</time></trkpt><trkpt lat="44.39251729583466" lon="6.576614327416648"><ele>1101.0</ele><time>2026-04-18T11:29:29Z</time></trkpt><trkpt lat="44.39263167574691" lon="6.576396302088727"><ele>1101.0</ele><time>2026-04-18T11:29:30Z</time></trkpt><trkpt lat="44.392740150695964" lon="6.576180161899251"><ele>1101.0</ele><time>2026-04-18T11:29:31Z</time></trkpt><trkpt lat="44.39284072146172" lon="6.575961250641779"><ele>1100.5</ele><time>2026-04-18T11:29:32Z</time></trkpt><trkpt lat="44.39292853606465" lon="6.5757552285813174"><ele>1100.0</ele><time>2026-04-18T11:29:33Z</time></trkpt><trkpt lat="44.39300089117503" lon="6.575570654333782"><ele>1099.5</ele><time>2026-04-18T11:29:34Z</time></trkpt><trkpt lat="44.3930417810124" lon="6.575434685958114"><ele>1099.0</ele><time>2026-04-18T11:29:35Z</time></trkpt><trkpt lat="44.39307724052831" lon="6.575318052917653"><ele>1100.1666666666665</ele><time>2026-04-18T11:29:36Z</time></trkpt><trkpt lat="44.39310003730807" lon="6.575196934055465"><ele>1101.3333333333333</ele><time>2026-04-18T11:29:38Z</time></trkpt><trkpt lat="44.393097895474476" lon="6.575089863595425"><ele>1102.5</ele><time>2026-04-18T11:29:41Z</time></trkpt><trkpt lat="44.3931057263845" lon="6.574954462219095"><ele>1103.6666666666667</ele><time>2026-04-18T11:29:43Z</time></trkpt><trkpt lat="44.39311659165594" lon="6.574848612102557"><ele>1104.8333333333335</ele><time>2026-04-18T11:29:44Z</time></trkpt><trkpt lat="44.393140982092454" lon="6.5747432264398205"><ele>1106.0</ele><time>2026-04-18T11:29:45Z</time></trkpt><trkpt lat="44.39316026084817" lon="6.574619883123184"><ele>1106.2</ele><time>2026-04-18T11:29:46Z</time></trkpt><trkpt lat="44.39317905478277" lon="6.5744893348208056"><ele>1106.3999999999999</ele><time>2026-04-18T11:29:47Z</time></trkpt><trkpt lat="44.3931972082219" lon="6.574354945997464"><ele>1106.6</ele><time>2026-04-18T11:29:48Z</time></trkpt><trkpt lat="44.3932292732224" lon="6.574213915317248"><ele>1106.8</ele><time>2026-04-18T11:29:49Z</time></trkpt><trkpt lat="44.39325269648132" lon="6.57405715889685"><ele>1107.0</ele><time>2026-04-18T11:29:50Z</time></trkpt><trkpt lat="44.39327730400191" lon="6.57390788782747"><ele>1107.0</ele><time>2026-04-18T11:29:51Z</time></trkpt><trkpt lat="44.39329853071011" lon="6.573752235919521"><ele>1107.0</ele><time>2026-04-18T11:29:52Z</time></trkpt><trkpt lat="44.39331407904992" lon="6.573607463347691"><ele>1107.0</ele><time>2026-04-18T11:29:53Z</time></trkpt><trkpt lat="44.39334553427112" lon="6.573456141354985"><ele>1107.0</ele><time>2026-04-18T11:29:54Z</time></trkpt><trkpt lat="44.39337450397467" lon="6.5733106318428876"><ele>1107.0</ele><time>2026-04-18T11:29:55Z</time></trkpt><trkpt lat="44.393401689817765" lon="6.5731596405685515"><ele>1106.8</ele><time>2026-04-18T11:29:56Z</time></trkpt><trkpt lat="44.3934259754719" lon="6.573015086063658"><ele>1106.6</ele><time>2026-04-18T11:29:57Z</time></trkpt><trkpt lat="44.39344827463723" lon="6.572867365441586"><ele>1106.3999999999999</ele><time>2026-04-18T11:29:58Z</time></trkpt><trkpt lat="44.393473209425615" lon="6.572728716404231"><ele>1106.2</ele><time>2026-04-18T11:29:59Z</time></trkpt><trkpt lat="44.39349538330934" lon="6.572579853716023"><ele>1106.0</ele><time>2026-04-18T11:30:00Z</time></trkpt><trkpt lat="44.39350876747852" lon="6.572438742368471"><ele>1105.8</ele><time>2026-04-18T11:30:01Z</time></trkpt><trkpt lat="44.39352865439651" lon="6.572304600270681"><ele>1105.6</ele><time>2026-04-18T11:30:02Z</time></trkpt><trkpt lat="44.393551136365275" lon="6.572178006812702"><ele>1105.4</ele><time>2026-04-18T11:30:03Z</time></trkpt><trkpt lat="44.39354602203424" lon="6.572036105423987"><ele>1105.2</ele><time>2026-04-18T11:30:04Z</time></trkpt><trkpt lat="44.39354219426307" lon="6.57189740006426"><ele>1105.0</ele><time>2026-04-18T11:30:05Z</time></trkpt><trkpt lat="44.39351930638006" lon="6.571762020298776"><ele>1105.6</ele><time>2026-04-18T11:30:06Z</time></trkpt><trkpt lat="44.39350032260826" lon="6.571627287655397"><ele>1106.2</ele><time>2026-04-18T11:30:07Z</time></trkpt><trkpt lat="44.39347594450277" lon="6.571489436501526"><ele>1106.8</ele><time>2026-04-18T11:30:08Z</time></trkpt><trkpt lat="44.39344907530411" lon="6.571343685012139"><ele>1107.4</ele><time>2026-04-18T11:30:09Z</time></trkpt><trkpt lat="44.393425184266036" lon="6.5712027927308965"><ele>1108.0</ele><time>2026-04-18T11:30:10Z</time></trkpt><trkpt lat="44.393403130723485" lon="6.571072152703613"><ele>1108.75</ele><time>2026-04-18T11:30:11Z</time></trkpt><trkpt lat="44.39330939288359" lon="6.570909944027517"><ele>1109.5</ele><time>2026-04-18T11:30:12Z</time></trkpt><trkpt lat="44.393258891197895" lon="6.570746740948486"><ele>1110.25</ele><time>2026-04-18T11:30:13Z</time></trkpt><trkpt lat="44.39326489299319" lon="6.570627269704521"><ele>1111.0</ele><time>2026-04-18T11:30:14Z</time></trkpt><trkpt lat="44.39325060462547" lon="6.570486465730971"><ele>1112.0</ele><time>2026-04-18T11:30:15Z</time></trkpt><trkpt lat="44.39328013540254" lon="6.570310136329263"><ele>1113.0</ele><time>2026-04-18T11:30:16Z</time></trkpt><trkpt lat="44.393251330581194" lon="6.570151024437297"><ele>1114.0</ele><time>2026-04-18T11:30:17Z</time></trkpt><trkpt lat="44.39322216865156" lon="6.56999099217221"><ele>1115.0</ele><time>2026-04-18T11:30:18Z</time></trkpt><trkpt lat="44.393193652144255" lon="6.569834501713044"><ele>1115.0</ele><time>2026-04-18T11:30:19Z</time></trkpt><trkpt lat="44.39315863175279" lon="6.569636134077154"><ele>1115.0</ele><time>2026-04-18T11:30:20Z</time></trkpt><trkpt lat="44.39312766174256" lon="6.569449959107051"><ele>1115.0</ele><time>2026-04-18T11:30:21Z</time></trkpt><trkpt lat="44.393099061312" lon="6.569268290883464"><ele>1115.0</ele><time>2026-04-18T11:30:22Z</time></trkpt><trkpt lat="44.393069794288216" lon="6.569081293022444"><ele>1115.5</ele><time>2026-04-18T11:30:23Z</time></trkpt><trkpt lat="44.393040701181725" lon="6.568895406335659"><ele>1116.0</ele><time>2026-04-18T11:30:24Z</time></trkpt><trkpt lat="44.393011139032936" lon="6.568706521227997"><ele>1116.5</ele><time>2026-04-18T11:30:25Z</time></trkpt><trkpt lat="44.39298088171391" lon="6.568512108846632"><ele>1117.0</ele><time>2026-04-18T11:30:26Z</time></trkpt><trkpt lat="44.392945307507176" lon="6.5682836923272445"><ele>1114.0</ele><time>2026-04-18T11:30:27Z</time></trkpt><trkpt lat="44.39291124734494" lon="6.568061961049677"><ele>1111.0</ele><time>2026-04-18T11:30:28Z</time></trkpt><trkpt lat="44.39288173347916" lon="6.5678690785336675"><ele>1108.0</ele><time>2026-04-18T11:30:29Z</time></trkpt><trkpt lat="44.39284966158911" lon="6.567659478817327"><ele>1108.0</ele><time>2026-04-18T11:30:30Z</time></trkpt><trkpt lat="44.39281618455456" lon="6.567447408323941"><ele>1108.0</ele><time>2026-04-18T11:30:31Z</time></trkpt><trkpt lat="44.39278152197536" lon="6.567230621292899"><ele>1108.0</ele><time>2026-04-18T11:30:32Z</time></trkpt><trkpt lat="44.39274574847271" lon="6.567009037706788"><ele>1105.6666666666665</ele><time>2026-04-18T11:30:33Z</time></trkpt><trkpt lat="44.39271094687788" lon="6.566793527068561"><ele>1103.3333333333333</ele><time>2026-04-18T11:30:34Z</time></trkpt><trkpt lat="44.39267643297626" lon="6.566580833814007"><ele>1101.0</ele><time>2026-04-18T11:30:35Z</time></trkpt><trkpt lat="44.39264150389878" lon="6.566368081329335"><ele>1103.6666666666667</ele><time>2026-04-18T11:30:36Z</time></trkpt><trkpt lat="44.392605972627976" lon="6.566151660862773"><ele>1106.3333333333335</ele><time>2026-04-18T11:30:37Z</time></trkpt><trkpt lat="44.392557950497604" lon="6.565938534899215"><ele>1109.0</ele><time>2026-04-18T11:30:38Z</time></trkpt><trkpt lat="44.392558996644304" lon="6.565734270819675"><ele>1109.0</ele><time>2026-04-18T11:30:39Z</time></trkpt><trkpt lat="44.392521436087144" lon="6.565531416197556"><ele>1109.0</ele><time>2026-04-18T11:30:40Z</time></trkpt><trkpt lat="44.39249076024882" lon="6.565326424427202"><ele>1109.0</ele><time>2026-04-18T11:30:41Z</time></trkpt><trkpt lat="44.39247818034546" lon="6.565136655536096"><ele>1109.0</ele><time>2026-04-18T11:30:42Z</time></trkpt><trkpt lat="44.39248974474512" lon="6.56491916641549"><ele>1109.3333333333335</ele><time>2026-04-18T11:30:43Z</time></trkpt><trkpt lat="44.392490765117884" lon="6.564695993331171"><ele>1109.6666666666667</ele><time>2026-04-18T11:30:44Z</time></trkpt><trkpt lat="44.39250761990317" lon="6.564457768294195"><ele>1110.0</ele><time>2026-04-18T11:30:45Z</time></trkpt><trkpt lat="44.392533571192004" lon="6.564217785384245"><ele>1109.0</ele><time>2026-04-18T11:30:46Z</time></trkpt><trkpt lat="44.39256194171816" lon="6.563967418085956"><ele>1108.0</ele><time>2026-04-18T11:30:47Z</time></trkpt><trkpt lat="44.392585655895786" lon="6.563708866923028"><ele>1107.0</ele><time>2026-04-18T11:30:48Z</time></trkpt><trkpt lat="44.39262120355637" lon="6.563438818992994"><ele>1106.6666666666667</ele><time>2026-04-18T11:30:49Z</time></trkpt><trkpt lat="44.3926749004787" lon="6.563175359374907"><ele>1106.3333333333335</ele><time>2026-04-18T11:30:50Z</time></trkpt><trkpt lat="44.39273826897909" lon="6.5629077719038165"><ele>1106.0</ele><time>2026-04-18T11:30:51Z</time></trkpt><trkpt lat="44.39281285160671" lon="6.562639025082633"><ele>1106.6666666666667</ele><time>2026-04-18T11:30:52Z</time></trkpt><trkpt lat="44.39288627562533" lon="6.562362860751871"><ele>1107.3333333333333</ele><time>2026-04-18T11:30:53Z</time></trkpt><trkpt lat="44.392953160810144" lon="6.5620816774454225"><ele>1108.0</ele><time>2026-04-18T11:30:54Z</time></trkpt><trkpt lat="44.3930257222785" lon="6.561794844602129"><ele>1108.0</ele><time>2026-04-18T11:30:55Z</time></trkpt><trkpt lat="44.39309240907673" lon="6.561513678775157"><ele>1108.0</ele><time>2026-04-18T11:30:56Z</time></trkpt><trkpt lat="44.39315259788435" lon="6.5612374279953665"><ele>1108.0</ele><time>2026-04-18T11:30:57Z</time></trkpt><trkpt lat="44.39320543982372" lon="6.5609627734858185"><ele>1107.0</ele><time>2026-04-18T11:30:58Z</time></trkpt><trkpt lat="44.393261168544484" lon="6.5606836565994815"><ele>1106.0</ele><time>2026-04-18T11:30:59Z</time></trkpt><trkpt lat="44.39332501772753" lon="6.560417234728949"><ele>1105.0</ele><time>2026-04-18T11:31:00Z</time></trkpt><trkpt lat="44.393398621618346" lon="6.560129302342095"><ele>1102.3333333333333</ele><time>2026-04-18T11:31:01Z</time></trkpt><trkpt lat="44.39346332760938" lon="6.559870766757445"><ele>1099.6666666666667</ele><time>2026-04-18T11:31:02Z</time></trkpt><trkpt lat="44.39351603441099" lon="6.55962297756367"><ele>1097.0</ele><time>2026-04-18T11:31:03Z</time></trkpt><trkpt lat="44.393573738159944" lon="6.559388641392215"><ele>1094.0</ele><time>2026-04-18T11:31:04Z</time></trkpt><trkpt lat="44.39361358132109" lon="6.559159767694758"><ele>1091.0</ele><time>2026-04-18T11:31:05Z</time></trkpt><trkpt lat="44.39364739627063" lon="6.5589433070922105"><ele>1088.0</ele><time>2026-04-18T11:31:06Z</time></trkpt><trkpt lat="44.39366304454323" lon="6.558741068473559"><ele>1088.3333333333335</ele><time>2026-04-18T11:31:07Z</time></trkpt><trkpt lat="44.39366580620822" lon="6.558536911014581"><ele>1088.6666666666667</ele><time>2026-04-18T11:31:08Z</time></trkpt><trkpt lat="44.39358028919908" lon="6.558268745664367"><ele>1089.0</ele><time>2026-04-18T11:31:09Z</time></trkpt><trkpt lat="44.39351305553883" lon="6.558059713848873"><ele>1090.3333333333333</ele><time>2026-04-18T11:31:10Z</time></trkpt><trkpt lat="44.39343027218873" lon="6.5578309858799155"><ele>1091.6666666666665</ele><time>2026-04-18T11:31:11Z</time></trkpt><trkpt lat="44.39335981305568" lon="6.557584658603433"><ele>1093.0</ele><time>2026-04-18T11:31:12Z</time></trkpt><trkpt lat="44.39329636830178" lon="6.557338341728052"><ele>1093.0</ele><time>2026-04-18T11:31:13Z</time></trkpt><trkpt lat="44.393254871209926" lon="6.557082202938806"><ele>1093.0</ele><time>2026-04-18T11:31:14Z</time></trkpt><trkpt lat="44.39321436965762" lon="6.556831736567266"><ele>1093.0</ele><time>2026-04-18T11:31:15Z</time></trkpt><trkpt lat="44.39317750305868" lon="6.556580879477409"><ele>1093.6666666666665</ele><time>2026-04-18T11:31:16Z</time></trkpt><trkpt lat="44.3931558087041" lon="6.55633875815066"><ele>1094.3333333333333</ele><time>2026-04-18T11:31:17Z</time></trkpt><trkpt lat="44.39314666020521" lon="6.556119279488491"><ele>1095.0</ele><time>2026-04-18T11:31:18Z</time></trkpt><trkpt lat="44.3931492769895" lon="6.555900985069113"><ele>1095.0</ele><time>2026-04-18T11:31:19Z</time></trkpt><trkpt lat="44.39317590097719" lon="6.555673602528455"><ele>1095.0</ele><time>2026-04-18T11:31:20Z</time></trkpt><trkpt lat="44.393224825133615" lon="6.555427169854164"><ele>1095.0</ele><time>2026-04-18T11:31:21Z</time></trkpt><trkpt lat="44.39329058640685" lon="6.555157614296354"><ele>1092.6666666666667</ele><time>2026-04-18T11:31:22Z</time></trkpt><trkpt lat="44.39337764551293" lon="6.554878788182106"><ele>1090.3333333333335</ele><time>2026-04-18T11:31:23Z</time></trkpt><trkpt lat="44.39345598004852" lon="6.554600611673157"><ele>1088.0</ele><time>2026-04-18T11:31:24Z</time></trkpt><trkpt lat="44.39352944673424" lon="6.554311344254743"><ele>1085.0</ele><time>2026-04-18T11:31:25Z</time></trkpt><trkpt lat="44.393599942130336" lon="6.554024994455566"><ele>1082.0</ele><time>2026-04-18T11:31:26Z</time></trkpt><trkpt lat="44.39367247297277" lon="6.553744996941709"><ele>1079.0</ele><time>2026-04-18T11:31:27Z</time></trkpt><trkpt lat="44.39373850609885" lon="6.5534762101875"><ele>1078.3333333333335</ele><time>2026-04-18T11:31:28Z</time></trkpt><trkpt lat="44.39379836902965" lon="6.553233923333376"><ele>1077.6666666666667</ele><time>2026-04-18T11:31:29Z</time></trkpt><trkpt lat="44.393840004193024" lon="6.552989269741039"><ele>1077.0</ele><time>2026-04-18T11:31:30Z</time></trkpt><trkpt lat="44.39383591397353" lon="6.552726466471315"><ele>1075.6666666666667</ele><time>2026-04-18T11:31:31Z</time></trkpt><trkpt lat="44.39384990589552" lon="6.552455885699769"><ele>1074.3333333333335</ele><time>2026-04-18T11:31:32Z</time></trkpt><trkpt lat="44.39384597884061" lon="6.552189346416655"><ele>1073.0</ele><time>2026-04-18T11:31:33Z</time></trkpt><trkpt lat="44.393837896547204" lon="6.551944779818344"><ele>1081.0</ele><time>2026-04-18T11:31:34Z</time></trkpt><trkpt lat="44.393845263021575" lon="6.551723824507493"><ele>1089.0</ele><time>2026-04-18T11:31:35Z</time></trkpt><trkpt lat="44.393873569083524" lon="6.551506914696733"><ele>1097.0</ele><time>2026-04-18T11:31:36Z</time></trkpt><trkpt lat="44.393943131863466" lon="6.5512925391318335"><ele>1094.6666666666667</ele><time>2026-04-18T11:31:37Z</time></trkpt><trkpt lat="44.39402973165561" lon="6.55108327584848"><ele>1092.3333333333333</ele><time>2026-04-18T11:31:38Z</time></trkpt><trkpt lat="44.39414106550224" lon="6.550901701475509"><ele>1090.0</ele><time>2026-04-18T11:31:39Z</time></trkpt><trkpt lat="44.39425728548557" lon="6.550712125340408"><ele>1090.0</ele><time>2026-04-18T11:31:40Z</time></trkpt><trkpt lat="44.39437921712216" lon="6.550497248576192"><ele>1090.0</ele><time>2026-04-18T11:31:41Z</time></trkpt><trkpt lat="44.39449154093941" lon="6.550282206278283"><ele>1090.0</ele><time>2026-04-18T11:31:42Z</time></trkpt><trkpt lat="44.394597895691895" lon="6.550042544919369"><ele>1089.6666666666665</ele><time>2026-04-18T11:31:43Z</time></trkpt><trkpt lat="44.39469247261753" lon="6.549791378405134"><ele>1089.3333333333333</ele><time>2026-04-18T11:31:44Z</time></trkpt><trkpt lat="44.39479017141001" lon="6.549553377200572"><ele>1089.0</ele><time>2026-04-18T11:31:45Z</time></trkpt><trkpt lat="44.39491845641885" lon="6.549367218463225"><ele>1089.0</ele><time>2026-04-18T11:31:46Z</time></trkpt><trkpt lat="44.39504910254547" lon="6.549164555061087"><ele>1089.0</ele><time>2026-04-18T11:31:47Z</time></trkpt><trkpt lat="44.39519225542295" lon="6.548959211465393"><ele>1089.0</ele><time>2026-04-18T11:31:48Z</time></trkpt><trkpt lat="44.39535020349545" lon="6.548749328393802"><ele>1093.0</ele><time>2026-04-18T11:31:49Z</time></trkpt><trkpt lat="44.39551696819786" lon="6.548537623268202"><ele>1097.0</ele><time>2026-04-18T11:31:50Z</time></trkpt><trkpt lat="44.395670375906825" lon="6.548310405522507"><ele>1101.0</ele><time>2026-04-18T11:31:51Z</time></trkpt><trkpt lat="44.395830996603415" lon="6.548100029299528"><ele>1101.0</ele><time>2026-04-18T11:31:52Z</time></trkpt><trkpt lat="44.39598600376174" lon="6.547882784731509"><ele>1101.0</ele><time>2026-04-18T11:31:53Z</time></trkpt><trkpt lat="44.396131416855496" lon="6.54767404865337"><ele>1101.0</ele><time>2026-04-18T11:31:54Z</time></trkpt><trkpt lat="44.396260983844286" lon="6.5474190331669275"><ele>1102.6666666666667</ele><time>2026-04-18T11:31:55Z</time></trkpt><trkpt lat="44.39639803575465" lon="6.547172495866832"><ele>1104.3333333333335</ele><time>2026-04-18T11:31:56Z</time></trkpt><trkpt lat="44.39649427683577" lon="6.54693185247392"><ele>1106.0</ele><time>2026-04-18T11:31:57Z</time></trkpt><trkpt lat="44.39658483987992" lon="6.546670381295152"><ele>1100.3333333333335</ele><time>2026-04-18T11:31:58Z</time></trkpt><trkpt lat="44.39664637656351" lon="6.546433736927865"><ele>1094.6666666666667</ele><time>2026-04-18T11:31:59Z</time></trkpt><trkpt lat="44.396721111914644" lon="6.546194893140559"><ele>1089.0</ele><time>2026-04-18T11:32:00Z</time></trkpt><trkpt lat="44.396829431726" lon="6.545992271614761"><ele>1090.6666666666667</ele><time>2026-04-18T11:32:01Z</time></trkpt><trkpt lat="44.39695400493619" lon="6.545796367873731"><ele>1092.3333333333335</ele><time>2026-04-18T11:32:02Z</time></trkpt><trkpt lat="44.397094114629255" lon="6.545610232486883"><ele>1094.0</ele><time>2026-04-18T11:32:03Z</time></trkpt><trkpt lat="44.3972389324396" lon="6.545442532230638"><ele>1088.0</ele><time>2026-04-18T11:32:04Z</time></trkpt><trkpt lat="44.3973800002416" lon="6.545316456166251"><ele>1082.0</ele><time>2026-04-18T11:32:05Z</time></trkpt><trkpt lat="44.397532713337434" lon="6.545227680822684"><ele>1076.0</ele><time>2026-04-18T11:32:06Z</time></trkpt><trkpt lat="44.3976979134421" lon="6.545153991764873"><ele>1076.0</ele><time>2026-04-18T11:32:07Z</time></trkpt><trkpt lat="44.39785213805041" lon="6.545081859600569"><ele>1076.0</ele><time>2026-04-18T11:32:08Z</time></trkpt><trkpt lat="44.39800959689488" lon="6.545006091910871"><ele>1076.0</ele><time>2026-04-18T11:32:09Z</time></trkpt><trkpt lat="44.398164602394424" lon="6.544933225213598"><ele>1077.0</ele><time>2026-04-18T11:32:10Z</time></trkpt><trkpt lat="44.39829585109795" lon="6.544831756705058"><ele>1078.0</ele><time>2026-04-18T11:32:11Z</time></trkpt><trkpt lat="44.398390965047966" lon="6.544668921501307"><ele>1079.0</ele><time>2026-04-18T11:32:12Z</time></trkpt><trkpt lat="44.3984960306327" lon="6.54449394354651"><ele>1079.0</ele><time>2026-04-18T11:32:13Z</time></trkpt><trkpt lat="44.39859075726948" lon="6.544291178133703"><ele>1079.0</ele><time>2026-04-18T11:32:14Z</time></trkpt><trkpt lat="44.39868540968355" lon="6.544092018272459"><ele>1079.0</ele><time>2026-04-18T11:32:15Z</time></trkpt><trkpt lat="44.39877332363941" lon="6.543882880646336"><ele>1080.0</ele><time>2026-04-18T11:32:16Z</time></trkpt><trkpt lat="44.39885358908027" lon="6.543696225958301"><ele>1081.0</ele><time>2026-04-18T11:32:17Z</time></trkpt><trkpt lat="44.39892574976566" lon="6.543480665412608"><ele>1082.0</ele><time>2026-04-18T11:32:18Z</time></trkpt><trkpt lat="44.399009050929166" lon="6.543259570988824"><ele>1082.0</ele><time>2026-04-18T11:32:19Z</time></trkpt><trkpt lat="44.39910897583221" lon="6.543050116670251"><ele>1082.0</ele><time>2026-04-18T11:32:20Z</time></trkpt><trkpt lat="44.39925119624264" lon="6.542864801859485"><ele>1082.0</ele><time>2026-04-18T11:32:21Z</time></trkpt><trkpt lat="44.399379696135824" lon="6.542665555466551"><ele>1082.6666666666667</ele><time>2026-04-18T11:32:22Z</time></trkpt><trkpt lat="44.399503666612915" lon="6.5424599634830125"><ele>1083.3333333333333</ele><time>2026-04-18T11:32:23Z</time></trkpt><trkpt lat="44.3996062291442" lon="6.542252211081272"><ele>1084.0</ele><time>2026-04-18T11:32:24Z</time></trkpt><trkpt lat="44.39969942774314" lon="6.542036383817263"><ele>1084.0</ele><time>2026-04-18T11:32:25Z</time></trkpt><trkpt lat="44.399764010402656" lon="6.541774838791479"><ele>1084.0</ele><time>2026-04-18T11:32:26Z</time></trkpt><trkpt lat="44.399814568416865" lon="6.541524388103637"><ele>1084.0</ele><time>2026-04-18T11:32:27Z</time></trkpt><trkpt lat="44.39980846140731" lon="6.541210822213412"><ele>1086.5</ele><time>2026-04-18T11:32:28Z</time></trkpt><trkpt lat="44.39981780285849" lon="6.540900820613745"><ele>1089.0</ele><time>2026-04-18T11:32:29Z</time></trkpt><trkpt lat="44.39981814497753" lon="6.540555373694251"><ele>1086.5</ele><time>2026-04-18T11:32:30Z</time></trkpt><trkpt lat="44.399801967710076" lon="6.540163520159218"><ele>1084.0</ele><time>2026-04-18T11:32:31Z</time></trkpt><trkpt lat="44.399808580145304" lon="6.539819705336935"><ele>1085.5</ele><time>2026-04-18T11:32:32Z</time></trkpt><trkpt lat="44.39981468883871" lon="6.539480288540698"><ele>1087.0</ele><time>2026-04-18T11:32:33Z</time></trkpt><trkpt lat="44.39980658654003" lon="6.53914044320426"><ele>1087.0</ele><time>2026-04-18T11:32:34Z</time></trkpt><trkpt lat="44.39980629263112" lon="6.538804246073488"><ele>1087.0</ele><time>2026-04-18T11:32:35Z</time></trkpt><trkpt lat="44.399785605624416" lon="6.538462427451162"><ele>1090.5</ele><time>2026-04-18T11:32:36Z</time></trkpt><trkpt lat="44.39976222927021" lon="6.538133343211613"><ele>1094.0</ele><time>2026-04-18T11:32:37Z</time></trkpt><trkpt lat="44.39969881706599" lon="6.537810437470231"><ele>1079.0</ele><time>2026-04-18T11:32:38Z</time></trkpt><trkpt lat="44.39959452788899" lon="6.5374798989619105"><ele>1064.0</ele><time>2026-04-18T11:32:39Z</time></trkpt><trkpt lat="44.39949078849609" lon="6.537171207726443"><ele>1071.0</ele><time>2026-04-18T11:32:40Z</time></trkpt><trkpt lat="44.39938543718419" lon="6.536833446901885"><ele>1078.0</ele><time>2026-04-18T11:32:41Z</time></trkpt><trkpt lat="44.39927131298446" lon="6.5365175773666335"><ele>1083.5</ele><time>2026-04-18T11:32:42Z</time></trkpt><trkpt lat="44.399173195049386" lon="6.536204496931947"><ele>1089.0</ele><time>2026-04-18T11:32:43Z</time></trkpt><trkpt lat="44.39907881185673" lon="6.535891774330428"><ele>1089.0</ele><time>2026-04-18T11:32:44Z</time></trkpt><trkpt lat="44.3990105013545" lon="6.535565077583126"><ele>1089.0</ele><time>2026-04-18T11:32:45Z</time></trkpt><trkpt lat="44.39893498912132" lon="6.53524775777026"><ele>1095.0</ele><time>2026-04-18T11:32:46Z</time></trkpt><trkpt lat="44.3988677170948" lon="6.534932333635986"><ele>1101.0</ele><time>2026-04-18T11:32:47Z</time></trkpt><trkpt lat="44.398807960914084" lon="6.534625820994855"><ele>1100.3333333333333</ele><time>2026-04-18T11:32:48Z</time></trkpt><trkpt lat="44.39880124050485" lon="6.5343404152775815"><ele>1099.6666666666665</ele><time>2026-04-18T11:32:49Z</time></trkpt><trkpt lat="44.398816537584004" lon="6.534115715840172"><ele>1099.0</ele><time>2026-04-18T11:32:50Z</time></trkpt><trkpt lat="44.398861655778624" lon="6.533879330206038"><ele>1094.0</ele><time>2026-04-18T11:32:51Z</time></trkpt><trkpt lat="44.3989396085945" lon="6.533641757392097"><ele>1089.0</ele><time>2026-04-18T11:32:52Z</time></trkpt><trkpt lat="44.399055748424274" lon="6.533407824632919"><ele>1084.0</ele><time>2026-04-18T11:32:53Z</time></trkpt><trkpt lat="44.39918025945837" lon="6.533203178044277"><ele>1084.0</ele><time>2026-04-18T11:32:54Z</time></trkpt><trkpt lat="44.39930245285409" lon="6.532990534684568"><ele>1084.0</ele><time>2026-04-18T11:32:55Z</time></trkpt><trkpt lat="44.399434074988605" lon="6.5327906340343525"><ele>1084.0</ele><time>2026-04-18T11:32:56Z</time></trkpt><trkpt lat="44.3995555879006" lon="6.532583393158535"><ele>1080.6666666666665</ele><time>2026-04-18T11:32:57Z</time></trkpt><trkpt lat="44.39963780271695" lon="6.532361134427755"><ele>1077.3333333333333</ele><time>2026-04-18T11:32:58Z</time></trkpt><trkpt lat="44.39963181758893" lon="6.53207207652395"><ele>1074.0</ele><time>2026-04-18T11:32:59Z</time></trkpt><trkpt lat="44.39964938387695" lon="6.531815259215159"><ele>1075.6666666666667</ele><time>2026-04-18T11:33:00Z</time></trkpt><trkpt lat="44.399669638514524" lon="6.531559500245831"><ele>1077.3333333333335</ele><time>2026-04-18T11:33:01Z</time></trkpt><trkpt lat="44.399690266519784" lon="6.531305268917648"><ele>1079.0</ele><time>2026-04-18T11:33:02Z</time></trkpt><trkpt lat="44.399708926675466" lon="6.5310421692360245"><ele>1079.6666666666667</ele><time>2026-04-18T11:33:03Z</time></trkpt><trkpt lat="44.39972736047653" lon="6.53080419885113"><ele>1080.3333333333333</ele><time>2026-04-18T11:33:04Z</time></trkpt><trkpt lat="44.399756971659656" lon="6.530586454743431"><ele>1081.0</ele><time>2026-04-18T11:33:05Z</time></trkpt><trkpt lat="44.39978226990285" lon="6.53039311446984"><ele>1079.6666666666665</ele><time>2026-04-18T11:33:06Z</time></trkpt><trkpt lat="44.39986545900936" lon="6.530211094917291"><ele>1078.3333333333333</ele><time>2026-04-18T11:33:07Z</time></trkpt><trkpt lat="44.39998558227477" lon="6.530045807457786"><ele>1077.0</ele><time>2026-04-18T11:33:08Z</time></trkpt><trkpt lat="44.40011685510385" lon="6.529872887089924"><ele>1077.0</ele><time>2026-04-18T11:33:09Z</time></trkpt><trkpt lat="44.40026231890211" lon="6.529676779629314"><ele>1077.0</ele><time>2026-04-18T11:33:10Z</time></trkpt><trkpt lat="44.40043937611242" lon="6.529421080376525"><ele>1083.0</ele><time>2026-04-18T11:33:11Z</time></trkpt><trkpt lat="44.400596776470486" lon="6.529177739650664"><ele>1089.0</ele><time>2026-04-18T11:33:12Z</time></trkpt><trkpt lat="44.400736688666264" lon="6.52891846217588"><ele>1081.5</ele><time>2026-04-18T11:33:13Z</time></trkpt><trkpt lat="44.40088371629173" lon="6.52866720285076"><ele>1074.0</ele><time>2026-04-18T11:33:14Z</time></trkpt><trkpt lat="44.40102922674468" lon="6.528416902603796"><ele>1074.0</ele><time>2026-04-18T11:33:15Z</time></trkpt><trkpt lat="44.40114492469359" lon="6.528162577951546"><ele>1074.0</ele><time>2026-04-18T11:33:16Z</time></trkpt><trkpt lat="44.40125250173112" lon="6.52793422358636"><ele>1074.0</ele><time>2026-04-18T11:33:17Z</time></trkpt><trkpt lat="44.40134750333181" lon="6.527676935474897"><ele>1074.0</ele><time>2026-04-18T11:33:18Z</time></trkpt><trkpt lat="44.4014090827485" lon="6.527411551303815"><ele>1074.0</ele><time>2026-04-18T11:33:19Z</time></trkpt><trkpt lat="44.401456646639836" lon="6.527111493368408"><ele>1074.0</ele><time>2026-04-18T11:33:20Z</time></trkpt><trkpt lat="44.401478567292486" lon="6.526821688668305"><ele>1074.0</ele><time>2026-04-18T11:33:21Z</time></trkpt><trkpt lat="44.40147885836491" lon="6.526515783933563"><ele>1074.0</ele><time>2026-04-18T11:33:22Z</time></trkpt><trkpt lat="44.40143463548467" lon="6.526205176057832"><ele>1074.0</ele><time>2026-04-18T11:33:23Z</time></trkpt><trkpt lat="44.40137274367739" lon="6.525855195467994"><ele>1063.5</ele><time>2026-04-18T11:33:24Z</time></trkpt><trkpt lat="44.401316576637804" lon="6.5254960486680105"><ele>1053.0</ele><time>2026-04-18T11:33:25Z</time></trkpt><trkpt lat="44.40121782164772" lon="6.52511585838462"><ele>1053.0</ele><time>2026-04-18T11:33:26Z</time></trkpt><trkpt lat="44.401152503743546" lon="6.5247798485653465"><ele>1053.0</ele><time>2026-04-18T11:33:27Z</time></trkpt><trkpt lat="44.40108265741971" lon="6.524450882034374"><ele>1057.0</ele><time>2026-04-18T11:33:28Z</time></trkpt><trkpt lat="44.40100468112303" lon="6.524119909918063"><ele>1061.0</ele><time>2026-04-18T11:33:29Z</time></trkpt><trkpt lat="44.40093400984534" lon="6.523809761472487"><ele>1068.0</ele><time>2026-04-18T11:33:30Z</time></trkpt><trkpt lat="44.40085805761443" lon="6.523492647171485"><ele>1075.0</ele><time>2026-04-18T11:33:31Z</time></trkpt><trkpt lat="44.40076239896527" lon="6.523184558455807"><ele>1075.3333333333333</ele><time>2026-04-18T11:33:32Z</time></trkpt><trkpt lat="44.400681452963866" lon="6.522895501314464"><ele>1075.6666666666667</ele><time>2026-04-18T11:33:33Z</time></trkpt><trkpt lat="44.400609990369645" lon="6.522621346558733"><ele>1076.0</ele><time>2026-04-18T11:33:34Z</time></trkpt><trkpt lat="44.40058797559676" lon="6.522356087174248"><ele>1078.0</ele><time>2026-04-18T11:33:35Z</time></trkpt><trkpt lat="44.40056499268472" lon="6.522040752270651"><ele>1080.0</ele><time>2026-04-18T11:33:36Z</time></trkpt><trkpt lat="44.40053761923855" lon="6.521717534866131"><ele>1080.0</ele><time>2026-04-18T11:33:37Z</time></trkpt><trkpt lat="44.40052939890972" lon="6.521393652991271"><ele>1080.0</ele><time>2026-04-18T11:33:38Z</time></trkpt><trkpt lat="44.400531308950725" lon="6.521078292528193"><ele>1079.6666666666667</ele><time>2026-04-18T11:33:39Z</time></trkpt><trkpt lat="44.40055417000176" lon="6.520766351640898"><ele>1079.3333333333335</ele><time>2026-04-18T11:33:40Z</time></trkpt><trkpt lat="44.40059380350733" lon="6.520471990269373"><ele>1079.0</ele><time>2026-04-18T11:33:41Z</time></trkpt><trkpt lat="44.40063653809813" lon="6.520156811372469"><ele>1071.5</ele><time>2026-04-18T11:33:42Z</time></trkpt><trkpt lat="44.400705102722284" lon="6.51984752204839"><ele>1064.0</ele><time>2026-04-18T11:33:43Z</time></trkpt><trkpt lat="44.4007579171651" lon="6.519536617530089"><ele>1061.3333333333335</ele><time>2026-04-18T11:33:44Z</time></trkpt><trkpt lat="44.40080541837986" lon="6.519223379479005"><ele>1058.6666666666667</ele><time>2026-04-18T11:33:45Z</time></trkpt><trkpt lat="44.40084352249489" lon="6.518925404845743"><ele>1056.0</ele><time>2026-04-18T11:33:46Z</time></trkpt><trkpt lat="44.40086915656288" lon="6.518616679424719"><ele>1053.6666666666667</ele><time>2026-04-18T11:33:47Z</time></trkpt><trkpt lat="44.40087652240463" lon="6.5183033914161115"><ele>1051.3333333333335</ele><time>2026-04-18T11:33:48Z</time></trkpt><trkpt lat="44.400850314357605" lon="6.518000125382335"><ele>1049.0</ele><time>2026-04-18T11:33:49Z</time></trkpt><trkpt lat="44.40077825785783" lon="6.517684903267421"><ele>1048.0</ele><time>2026-04-18T11:33:50Z</time></trkpt><trkpt lat="44.400715097800465" lon="6.517399465438863"><ele>1047.0</ele><time>2026-04-18T11:33:51Z</time></trkpt><trkpt lat="44.400682186696066" lon="6.517133287204549"><ele>1046.0</ele><time>2026-04-18T11:33:52Z</time></trkpt><trkpt lat="44.400678948406835" lon="6.51690182342159"><ele>1046.0</ele><time>2026-04-18T11:33:53Z</time></trkpt><trkpt lat="44.40069066002801" lon="6.516699461407889"><ele>1046.0</ele><time>2026-04-18T11:33:54Z</time></trkpt><trkpt lat="44.40073648173417" lon="6.516496978787064"><ele>1046.0</ele><time>2026-04-18T11:33:55Z</time></trkpt><trkpt lat="44.40081533451265" lon="6.516288693082336"><ele>1044.6666666666667</ele><time>2026-04-18T11:33:56Z</time></trkpt><trkpt lat="44.4008972373418" lon="6.516063408635191"><ele>1043.3333333333333</ele><time>2026-04-18T11:33:57Z</time></trkpt><trkpt lat="44.40096298045819" lon="6.51582306898663"><ele>1042.0</ele><time>2026-04-18T11:33:58Z</time></trkpt><trkpt lat="44.401029461574936" lon="6.515592952602935"><ele>1041.3333333333333</ele><time>2026-04-18T11:33:59Z</time></trkpt><trkpt lat="44.40107202079482" lon="6.515349585782475"><ele>1040.6666666666667</ele><time>2026-04-18T11:34:00Z</time></trkpt><trkpt lat="44.401091996590864" lon="6.515095652753226"><ele>1040.0</ele><time>2026-04-18T11:34:01Z</time></trkpt><trkpt lat="44.4010860087713" lon="6.514861165193508"><ele>1040.0</ele><time>2026-04-18T11:34:02Z</time></trkpt><trkpt lat="44.40105612255694" lon="6.514640024472742"><ele>1040.0</ele><time>2026-04-18T11:34:03Z</time></trkpt><trkpt lat="44.40103856854895" lon="6.514430527333069"><ele>1040.0</ele><time>2026-04-18T11:34:04Z</time></trkpt><trkpt lat="44.40102348407395" lon="6.514244197201943"><ele>1040.0</ele><time>2026-04-18T11:34:05Z</time></trkpt><trkpt lat="44.4010565491091" lon="6.5140631416286485"><ele>1039.5</ele><time>2026-04-18T11:34:06Z</time></trkpt><trkpt lat="44.40110534546947" lon="6.5138941542182796"><ele>1039.0</ele><time>2026-04-18T11:34:07Z</time></trkpt><trkpt lat="44.40116145523449" lon="6.513718650045529"><ele>1038.5</ele><time>2026-04-18T11:34:08Z</time></trkpt><trkpt lat="44.401214350837996" lon="6.513538669117915"><ele>1038.0</ele><time>2026-04-18T11:34:09Z</time></trkpt><trkpt lat="44.40125850624114" lon="6.513362455841921"><ele>1037.0</ele><time>2026-04-18T11:34:10Z</time></trkpt><trkpt lat="44.40131359793148" lon="6.513189789345302"><ele>1036.0</ele><time>2026-04-18T11:34:11Z</time></trkpt><trkpt lat="44.401355107604" lon="6.513007487543235"><ele>1035.0</ele><time>2026-04-18T11:34:12Z</time></trkpt><trkpt lat="44.40139667132578" lon="6.512823659700466"><ele>1034.0</ele><time>2026-04-18T11:34:13Z</time></trkpt><trkpt lat="44.40144401665188" lon="6.512644467792412"><ele>1035.75</ele><time>2026-04-18T11:34:14Z</time></trkpt><trkpt lat="44.40148409928245" lon="6.512457331855498"><ele>1037.5</ele><time>2026-04-18T11:34:15Z</time></trkpt><trkpt lat="44.40152856396288" lon="6.512279852644008"><ele>1039.25</ele><time>2026-04-18T11:34:16Z</time></trkpt><trkpt lat="44.401568305631706" lon="6.51211341846637"><ele>1041.0</ele><time>2026-04-18T11:34:17Z</time></trkpt><trkpt lat="44.401609103161924" lon="6.511952621348584"><ele>1041.0</ele><time>2026-04-18T11:34:18Z</time></trkpt><trkpt lat="44.4016514270833" lon="6.511803149331327"><ele>1041.0</ele><time>2026-04-18T11:34:19Z</time></trkpt><trkpt lat="44.4016910732784" lon="6.511650647017579"><ele>1041.0</ele><time>2026-04-18T11:34:20Z</time></trkpt><trkpt lat="44.40171681348249" lon="6.511488169379136"><ele>1041.0</ele><time>2026-04-18T11:34:21Z</time></trkpt><trkpt lat="44.40171152358115" lon="6.511319010482344"><ele>1041.0</ele><time>2026-04-18T11:34:22Z</time></trkpt><trkpt lat="44.40170666456669" lon="6.511131087136526"><ele>1041.0</ele><time>2026-04-18T11:34:23Z</time></trkpt><trkpt lat="44.401695070595764" lon="6.510963019527336"><ele>1041.0</ele><time>2026-04-18T11:34:24Z</time></trkpt><trkpt lat="44.40167151909562" lon="6.5107947261409285"><ele>1041.0</ele><time>2026-04-18T11:34:25Z</time></trkpt><trkpt lat="44.401662839689294" lon="6.510633551247672"><ele>1041.0</ele><time>2026-04-18T11:34:26Z</time></trkpt><trkpt lat="44.40165475488037" lon="6.510470733911528"><ele>1041.0</ele><time>2026-04-18T11:34:27Z</time></trkpt><trkpt lat="44.40163893345198" lon="6.510289084381542"><ele>1041.0</ele><time>2026-04-18T11:34:28Z</time></trkpt><trkpt lat="44.40162631082763" lon="6.51012424514904"><ele>1041.0</ele><time>2026-04-18T11:34:29Z</time></trkpt><trkpt lat="44.40160397436789" lon="6.509961092654627"><ele>1041.0</ele><time>2026-04-18T11:34:30Z</time></trkpt><trkpt lat="44.40159622323403" lon="6.509803058473956"><ele>1041.0</ele><time>2026-04-18T11:34:31Z</time></trkpt><trkpt lat="44.40158586547863" lon="6.509640189390725"><ele>1041.0</ele><time>2026-04-18T11:34:32Z</time></trkpt><trkpt lat="44.40158656944" lon="6.5094515643059125"><ele>1041.0</ele><time>2026-04-18T11:34:33Z</time></trkpt><trkpt lat="44.40159989405267" lon="6.50924876943779"><ele>1041.0</ele><time>2026-04-18T11:34:34Z</time></trkpt><trkpt lat="44.401615138160494" lon="6.509027364393073"><ele>1041.0</ele><time>2026-04-18T11:34:35Z</time></trkpt><trkpt lat="44.401643965047576" lon="6.508812067191265"><ele>1041.0</ele><time>2026-04-18T11:34:36Z</time></trkpt><trkpt lat="44.401661643142035" lon="6.508601274357959"><ele>1042.0</ele><time>2026-04-18T11:34:37Z</time></trkpt><trkpt lat="44.40166185049706" lon="6.508380107322327"><ele>1043.0</ele><time>2026-04-18T11:34:38Z</time></trkpt><trkpt lat="44.40163893310269" lon="6.508155891477895"><ele>1044.0</ele><time>2026-04-18T11:34:39Z</time></trkpt><trkpt lat="44.40161363053232" lon="6.507947375963339"><ele>1048.3333333333333</ele><time>2026-04-18T11:34:40Z</time></trkpt><trkpt lat="44.4015419290215" lon="6.507726425839263"><ele>1052.6666666666665</ele><time>2026-04-18T11:34:41Z</time></trkpt><trkpt lat="44.40149459988963" lon="6.507523850470067"><ele>1057.0</ele><time>2026-04-18T11:34:42Z</time></trkpt><trkpt lat="44.40144968323897" lon="6.507308405702063"><ele>1057.0</ele><time>2026-04-18T11:34:43Z</time></trkpt><trkpt lat="44.40141468801864" lon="6.50708559405129"><ele>1057.0</ele><time>2026-04-18T11:34:44Z</time></trkpt><trkpt lat="44.40139825649566" lon="6.506856969735937"><ele>1057.0</ele><time>2026-04-18T11:34:45Z</time></trkpt><trkpt lat="44.40138296663312" lon="6.506645624406498"><ele>1059.5</ele><time>2026-04-18T11:34:46Z</time></trkpt><trkpt lat="44.401362429912886" lon="6.506457091152103"><ele>1062.0</ele><time>2026-04-18T11:34:47Z</time></trkpt><trkpt lat="44.401315616529686" lon="6.50626678010843"><ele>1064.5</ele><time>2026-04-18T11:34:48Z</time></trkpt><trkpt lat="44.40126219445735" lon="6.506072781694272"><ele>1067.0</ele><time>2026-04-18T11:34:49Z</time></trkpt><trkpt lat="44.40117038769359" lon="6.505890215995775"><ele>1064.0</ele><time>2026-04-18T11:34:50Z</time></trkpt><trkpt lat="44.40108228432343" lon="6.505715690689704"><ele>1061.0</ele><time>2026-04-18T11:34:51Z</time></trkpt><trkpt lat="44.40098888015715" lon="6.505545175174489"><ele>1058.0</ele><time>2026-04-18T11:34:52Z</time></trkpt><trkpt lat="44.400900783181015" lon="6.505386987639052"><ele>1055.0</ele><time>2026-04-18T11:34:53Z</time></trkpt><trkpt lat="44.40081389220491" lon="6.5052356782141985"><ele>1055.0</ele><time>2026-04-18T11:34:54Z</time></trkpt><trkpt lat="44.40071882465093" lon="6.505088160944007"><ele>1055.0</ele><time>2026-04-18T11:34:55Z</time></trkpt><trkpt lat="44.40062899450885" lon="6.504949689538559"><ele>1055.0</ele><time>2026-04-18T11:34:56Z</time></trkpt><trkpt lat="44.400547078777336" lon="6.504808076415976"><ele>1055.0</ele><time>2026-04-18T11:34:57Z</time></trkpt><trkpt lat="44.4004601105131" lon="6.504652942288895"><ele>1050.25</ele><time>2026-04-18T11:34:58Z</time></trkpt><trkpt lat="44.40039436234243" lon="6.504489368671016"><ele>1045.5</ele><time>2026-04-18T11:34:59Z</time></trkpt><trkpt lat="44.40035506919839" lon="6.504299730426944"><ele>1040.75</ele><time>2026-04-18T11:35:00Z</time></trkpt><trkpt lat="44.40032189031099" lon="6.504094480880592"><ele>1036.0</ele><time>2026-04-18T11:35:01Z</time></trkpt><trkpt lat="44.4003137108343" lon="6.5038775247565495"><ele>1032.6666666666665</ele><time>2026-04-18T11:35:02Z</time></trkpt><trkpt lat="44.400340461989856" lon="6.503648684062581"><ele>1029.3333333333333</ele><time>2026-04-18T11:35:03Z</time></trkpt><trkpt lat="44.40037565764682" lon="6.503425396572231"><ele>1026.0</ele><time>2026-04-18T11:35:04Z</time></trkpt><trkpt lat="44.40044227411299" lon="6.503201105730457"><ele>1030.3333333333333</ele><time>2026-04-18T11:35:05Z</time></trkpt><trkpt lat="44.40050803236127" lon="6.502971418352536"><ele>1034.6666666666665</ele><time>2026-04-18T11:35:06Z</time></trkpt><trkpt lat="44.40057076724157" lon="6.502745832414904"><ele>1039.0</ele><time>2026-04-18T11:35:07Z</time></trkpt><trkpt lat="44.4006573863753" lon="6.502535330825168"><ele>1039.0</ele><time>2026-04-18T11:35:08Z</time></trkpt><trkpt lat="44.40072637360294" lon="6.5023326299807"><ele>1039.0</ele><time>2026-04-18T11:35:09Z</time></trkpt><trkpt lat="44.400758952408445" lon="6.502090235204126"><ele>1039.0</ele><time>2026-04-18T11:35:10Z</time></trkpt><trkpt lat="44.400775351507775" lon="6.501829742792109"><ele>1034.3333333333333</ele><time>2026-04-18T11:35:11Z</time></trkpt><trkpt lat="44.400792424728124" lon="6.501561166379773"><ele>1029.6666666666667</ele><time>2026-04-18T11:35:12Z</time></trkpt><trkpt lat="44.40079854599187" lon="6.5012821648872565"><ele>1025.0</ele><time>2026-04-18T11:35:13Z</time></trkpt><trkpt lat="44.4007947139175" lon="6.501010343696936"><ele>1025.3333333333335</ele><time>2026-04-18T11:35:14Z</time></trkpt><trkpt lat="44.40080649471672" lon="6.500738454022512"><ele>1025.6666666666667</ele><time>2026-04-18T11:35:15Z</time></trkpt><trkpt lat="44.40081256233343" lon="6.500475478188182"><ele>1026.0</ele><time>2026-04-18T11:35:16Z</time></trkpt><trkpt lat="44.4008235149646" lon="6.500220487193856"><ele>1026.0</ele><time>2026-04-18T11:35:17Z</time></trkpt><trkpt lat="44.40080818140941" lon="6.49997200750348"><ele>1026.0</ele><time>2026-04-18T11:35:18Z</time></trkpt><trkpt lat="44.40077304235177" lon="6.4997243779331715"><ele>1026.0</ele><time>2026-04-18T11:35:19Z</time></trkpt><trkpt lat="44.40071174673151" lon="6.4995041280813854"><ele>1026.3333333333333</ele><time>2026-04-18T11:35:20Z</time></trkpt><trkpt lat="44.40064018864955" lon="6.499284495151433"><ele>1026.6666666666665</ele><time>2026-04-18T11:35:21Z</time></trkpt><trkpt lat="44.40061076268297" lon="6.49907137605877"><ele>1027.0</ele><time>2026-04-18T11:35:22Z</time></trkpt><trkpt lat="44.400601395716926" lon="6.4988454063880985"><ele>1028.3333333333333</ele><time>2026-04-18T11:35:23Z</time></trkpt><trkpt lat="44.40061147466293" lon="6.498606886941621"><ele>1029.6666666666667</ele><time>2026-04-18T11:35:24Z</time></trkpt><trkpt lat="44.40064442624841" lon="6.49834866990518"><ele>1031.0</ele><time>2026-04-18T11:35:25Z</time></trkpt><trkpt lat="44.4006595547577" lon="6.498081770407323"><ele>1031.0</ele><time>2026-04-18T11:35:26Z</time></trkpt><trkpt lat="44.40066226192533" lon="6.497801049718801"><ele>1031.0</ele><time>2026-04-18T11:35:27Z</time></trkpt><trkpt lat="44.400648473572936" lon="6.497521815386736"><ele>1031.0</ele><time>2026-04-18T11:35:28Z</time></trkpt><trkpt lat="44.400619787453266" lon="6.497238525683671"><ele>1029.3333333333335</ele><time>2026-04-18T11:35:29Z</time></trkpt><trkpt lat="44.40060317334373" lon="6.496954725875666"><ele>1027.6666666666667</ele><time>2026-04-18T11:35:30Z</time></trkpt><trkpt lat="44.40059615012906" lon="6.496693049095333"><ele>1026.0</ele><time>2026-04-18T11:35:31Z</time></trkpt><trkpt lat="44.40057748432132" lon="6.496441101187913"><ele>1029.3333333333333</ele><time>2026-04-18T11:35:32Z</time></trkpt><trkpt lat="44.40054417445233" lon="6.496198445183304"><ele>1032.6666666666665</ele><time>2026-04-18T11:35:33Z</time></trkpt><trkpt lat="44.40047857190975" lon="6.495959218499747"><ele>1036.0</ele><time>2026-04-18T11:35:34Z</time></trkpt><trkpt lat="44.4003571642815" lon="6.495734368116159"><ele>1027.0</ele><time>2026-04-18T11:35:35Z</time></trkpt><trkpt lat="44.40022272290454" lon="6.495495315739291"><ele>1018.0</ele><time>2026-04-18T11:35:36Z</time></trkpt><trkpt lat="44.40011550684801" lon="6.495251945802525"><ele>1009.0</ele><time>2026-04-18T11:35:37Z</time></trkpt><trkpt lat="44.40000959141082" lon="6.495015004441492"><ele>1009.0</ele><time>2026-04-18T11:35:38Z</time></trkpt><trkpt lat="44.399915527622966" lon="6.494807951821387"><ele>1009.0</ele><time>2026-04-18T11:35:39Z</time></trkpt><trkpt lat="44.399808615755475" lon="6.494633599376664"><ele>1009.0</ele><time>2026-04-18T11:35:40Z</time></trkpt><trkpt lat="44.39965437335108" lon="6.494555560729172"><ele>1006.6666666666666</ele><time>2026-04-18T11:35:41Z</time></trkpt><trkpt lat="44.39949045920284" lon="6.494495529846628"><ele>1004.3333333333333</ele><time>2026-04-18T11:35:42Z</time></trkpt><trkpt lat="44.39933859367569" lon="6.494437214107042"><ele>1002.0</ele><time>2026-04-18T11:35:43Z</time></trkpt><trkpt lat="44.39918674849781" lon="6.494369088643125"><ele>1002.0</ele><time>2026-04-18T11:35:44Z</time></trkpt><trkpt lat="44.39904267855688" lon="6.494270342286286"><ele>1002.0</ele><time>2026-04-18T11:35:45Z</time></trkpt><trkpt lat="44.39891065169426" lon="6.494107863145583"><ele>1002.0</ele><time>2026-04-18T11:35:46Z</time></trkpt><trkpt lat="44.398813861957834" lon="6.493913244889994"><ele>997.0</ele><time>2026-04-18T11:35:47Z</time></trkpt><trkpt lat="44.39872212395363" lon="6.4937317152573995"><ele>992.0</ele><time>2026-04-18T11:35:48Z</time></trkpt><trkpt lat="44.39867686191423" lon="6.493518288316972"><ele>987.0</ele><time>2026-04-18T11:35:49Z</time></trkpt><trkpt lat="44.39865667440512" lon="6.4932865320858735"><ele>987.0</ele><time>2026-04-18T11:35:50Z</time></trkpt><trkpt lat="44.39867572925906" lon="6.493036476030802"><ele>987.0</ele><time>2026-04-18T11:35:51Z</time></trkpt><trkpt lat="44.3986825208401" lon="6.4927706181507"><ele>987.0</ele><time>2026-04-18T11:35:52Z</time></trkpt><trkpt lat="44.398673536094634" lon="6.492499289911544"><ele>988.5</ele><time>2026-04-18T11:35:53Z</time></trkpt><trkpt lat="44.39864409682375" lon="6.492205324401276"><ele>990.0</ele><time>2026-04-18T11:35:54Z</time></trkpt><trkpt lat="44.39860824642303" lon="6.491871226122256"><ele>990.0</ele><time>2026-04-18T11:35:55Z</time></trkpt><trkpt lat="44.398565043640794" lon="6.491544215833997"><ele>990.0</ele><time>2026-04-18T11:35:56Z</time></trkpt><trkpt lat="44.39850701390644" lon="6.491174436157529"><ele>989.5</ele><time>2026-04-18T11:35:57Z</time></trkpt><trkpt lat="44.398480137482885" lon="6.490803602480216"><ele>989.0</ele><time>2026-04-18T11:35:58Z</time></trkpt><trkpt lat="44.39842891181318" lon="6.490451457390211"><ele>991.5</ele><time>2026-04-18T11:35:59Z</time></trkpt><trkpt lat="44.39839117161365" lon="6.490115804067427"><ele>994.0</ele><time>2026-04-18T11:36:00Z</time></trkpt><trkpt lat="44.39835631647659" lon="6.489800401572367"><ele>993.5</ele><time>2026-04-18T11:36:01Z</time></trkpt><trkpt lat="44.3983241815434" lon="6.489474390133789"><ele>993.0</ele><time>2026-04-18T11:36:02Z</time></trkpt><trkpt lat="44.39830260115192" lon="6.489161604920937"><ele>993.0</ele><time>2026-04-18T11:36:03Z</time></trkpt><trkpt lat="44.39828707010757" lon="6.4888472868242495"><ele>993.0</ele><time>2026-04-18T11:36:04Z</time></trkpt><trkpt lat="44.39825965528524" lon="6.4885495888140765"><ele>993.0</ele><time>2026-04-18T11:36:05Z</time></trkpt><trkpt lat="44.39823495654927" lon="6.488259083104794"><ele>992.6666666666667</ele><time>2026-04-18T11:36:06Z</time></trkpt><trkpt lat="44.39818216556277" lon="6.4879952097328655"><ele>992.3333333333334</ele><time>2026-04-18T11:36:07Z</time></trkpt><trkpt lat="44.39811175527828" lon="6.4877402851863515"><ele>992.0</ele><time>2026-04-18T11:36:08Z</time></trkpt><trkpt lat="44.39801500710693" lon="6.487502901293611"><ele>985.6666666666667</ele><time>2026-04-18T11:36:09Z</time></trkpt><trkpt lat="44.39791568935686" lon="6.4872736166297695"><ele>979.3333333333333</ele><time>2026-04-18T11:36:10Z</time></trkpt><trkpt lat="44.39778475530438" lon="6.4870526212693145"><ele>973.0</ele><time>2026-04-18T11:36:11Z</time></trkpt><trkpt lat="44.39764114056809" lon="6.486826183681318"><ele>973.0</ele><time>2026-04-18T11:36:12Z</time></trkpt><trkpt lat="44.39748489985669" lon="6.486628394686353"><ele>973.0</ele><time>2026-04-18T11:36:13Z</time></trkpt><trkpt lat="44.39731679284172" lon="6.48643738582503"><ele>973.0</ele><time>2026-04-18T11:36:14Z</time></trkpt><trkpt lat="44.39715882861419" lon="6.486239741865376"><ele>970.0</ele><time>2026-04-18T11:36:15Z</time></trkpt><trkpt lat="44.397030085272924" lon="6.485999499693934"><ele>967.0</ele><time>2026-04-18T11:36:16Z</time></trkpt><trkpt lat="44.39692015075028" lon="6.485766223481137"><ele>964.0</ele><time>2026-04-18T11:36:17Z</time></trkpt><trkpt lat="44.39684253859957" lon="6.485508947540141"><ele>966.0</ele><time>2026-04-18T11:36:18Z</time></trkpt><trkpt lat="44.396781435772446" lon="6.485254158840674"><ele>968.0</ele><time>2026-04-18T11:36:19Z</time></trkpt><trkpt lat="44.39673859680687" lon="6.484989587752289"><ele>970.0</ele><time>2026-04-18T11:36:20Z</time></trkpt><trkpt lat="44.39671932130169" lon="6.484716386006278"><ele>970.0</ele><time>2026-04-18T11:36:21Z</time></trkpt><trkpt lat="44.396716718958835" lon="6.484421420621424"><ele>970.0</ele><time>2026-04-18T11:36:22Z</time></trkpt><trkpt lat="44.39673953691262" lon="6.484165400131615"><ele>970.0</ele><time>2026-04-18T11:36:23Z</time></trkpt><trkpt lat="44.39677631059682" lon="6.483889975993058"><ele>968.0</ele><time>2026-04-18T11:36:24Z</time></trkpt><trkpt lat="44.39684761980938" lon="6.483600222510585"><ele>966.0</ele><time>2026-04-18T11:36:25Z</time></trkpt><trkpt lat="44.39692334774644" lon="6.4833174617129945"><ele>964.0</ele><time>2026-04-18T11:36:26Z</time></trkpt><trkpt lat="44.397013702490625" lon="6.4830440608776465"><ele>962.0</ele><time>2026-04-18T11:36:27Z</time></trkpt><trkpt lat="44.3971070540646" lon="6.482775697730334"><ele>960.0</ele><time>2026-04-18T11:36:28Z</time></trkpt><trkpt lat="44.39717072270379" lon="6.482494424849402"><ele>958.0</ele><time>2026-04-18T11:36:29Z</time></trkpt><trkpt lat="44.397216709217595" lon="6.482202162679673"><ele>959.0</ele><time>2026-04-18T11:36:30Z</time></trkpt><trkpt lat="44.39724972991109" lon="6.4819247814446355"><ele>960.0</ele><time>2026-04-18T11:36:31Z</time></trkpt><trkpt lat="44.39723999862459" lon="6.48163258096933"><ele>961.0</ele><time>2026-04-18T11:36:32Z</time></trkpt><trkpt lat="44.39723231761914" lon="6.481352206451651"><ele>960.3333333333333</ele><time>2026-04-18T11:36:33Z</time></trkpt><trkpt lat="44.39721289323848" lon="6.4810893900619595"><ele>959.6666666666667</ele><time>2026-04-18T11:36:34Z</time></trkpt><trkpt lat="44.39719821203113" lon="6.480843309750826"><ele>959.0</ele><time>2026-04-18T11:36:35Z</time></trkpt><trkpt lat="44.39715957524567" lon="6.480605614224816"><ele>959.3333333333334</ele><time>2026-04-18T11:36:36Z</time></trkpt><trkpt lat="44.39714547468936" lon="6.480392446496601"><ele>959.6666666666667</ele><time>2026-04-18T11:36:37Z</time></trkpt><trkpt lat="44.3971059751832" lon="6.480169806069198"><ele>960.0</ele><time>2026-04-18T11:36:38Z</time></trkpt><trkpt lat="44.39708330259498" lon="6.4799576285171465"><ele>960.0</ele><time>2026-04-18T11:36:39Z</time></trkpt><trkpt lat="44.397090683294934" lon="6.479780848368121"><ele>960.0</ele><time>2026-04-18T11:36:40Z</time></trkpt><trkpt lat="44.39706527120627" lon="6.479568379276966"><ele>960.0</ele><time>2026-04-18T11:36:41Z</time></trkpt><trkpt lat="44.397051115916305" lon="6.479364129706037"><ele>960.0</ele><time>2026-04-18T11:36:42Z</time></trkpt><trkpt lat="44.39703026367474" lon="6.4791626164507345"><ele>960.5</ele><time>2026-04-18T11:36:43Z</time></trkpt><trkpt lat="44.39701283539229" lon="6.478958283172941"><ele>961.0</ele><time>2026-04-18T11:36:44Z</time></trkpt><trkpt lat="44.3969883293894" lon="6.47876555776142"><ele>961.5</ele><time>2026-04-18T11:36:45Z</time></trkpt><trkpt lat="44.39697759037361" lon="6.4785799459392495"><ele>962.0</ele><time>2026-04-18T11:36:46Z</time></trkpt><trkpt lat="44.39696678292221" lon="6.478405754103742"><ele>963.0</ele><time>2026-04-18T11:36:47Z</time></trkpt><trkpt lat="44.396934075074796" lon="6.478210135983374"><ele>964.0</ele><time>2026-04-18T11:36:48Z</time></trkpt><trkpt lat="44.39689400608334" lon="6.478022598915535"><ele>965.0</ele><time>2026-04-18T11:36:49Z</time></trkpt><trkpt lat="44.3968669222704" lon="6.477852219412953"><ele>966.0</ele><time>2026-04-18T11:36:50Z</time></trkpt><trkpt lat="44.396843408442024" lon="6.477686167086969"><ele>967.25</ele><time>2026-04-18T11:36:51Z</time></trkpt><trkpt lat="44.396813918391196" lon="6.477511574059396"><ele>968.5</ele><time>2026-04-18T11:36:52Z</time></trkpt><trkpt lat="44.39680281217754" lon="6.477340734498873"><ele>969.75</ele><time>2026-04-18T11:36:53Z</time></trkpt><trkpt lat="44.396794819925056" lon="6.477192572393069"><ele>971.0</ele><time>2026-04-18T11:36:54Z</time></trkpt><trkpt lat="44.39678219897692" lon="6.477035669048844"><ele>971.75</ele><time>2026-04-18T11:36:55Z</time></trkpt><trkpt lat="44.396775109720835" lon="6.476869516101713"><ele>972.5</ele><time>2026-04-18T11:36:56Z</time></trkpt><trkpt lat="44.39677443627187" lon="6.4767073831834"><ele>973.25</ele><time>2026-04-18T11:36:57Z</time></trkpt><trkpt lat="44.396761464122235" lon="6.476513989499882"><ele>974.0</ele><time>2026-04-18T11:36:58Z</time></trkpt><trkpt lat="44.39676631975835" lon="6.476327679143235"><ele>974.75</ele><time>2026-04-18T11:36:59Z</time></trkpt><trkpt lat="44.3967777955603" lon="6.47614206376218"><ele>975.5</ele><time>2026-04-18T11:37:00Z</time></trkpt><trkpt lat="44.396806632903164" lon="6.475945720143041"><ele>976.25</ele><time>2026-04-18T11:37:01Z</time></trkpt><trkpt lat="44.396839992612215" lon="6.475748604833642"><ele>977.0</ele><time>2026-04-18T11:37:02Z</time></trkpt><trkpt lat="44.39688141824384" lon="6.475546078704954"><ele>979.3333333333334</ele><time>2026-04-18T11:37:03Z</time></trkpt><trkpt lat="44.39694308844683" lon="6.4753582804849525"><ele>981.6666666666667</ele><time>2026-04-18T11:37:04Z</time></trkpt><trkpt lat="44.39700825625861" lon="6.475165255936028"><ele>984.0</ele><time>2026-04-18T11:37:05Z</time></trkpt><trkpt lat="44.39708516350187" lon="6.474971021632592"><ele>983.0</ele><time>2026-04-18T11:37:06Z</time></trkpt><trkpt lat="44.397184097369355" lon="6.474787107208883"><ele>982.0</ele><time>2026-04-18T11:37:07Z</time></trkpt><trkpt lat="44.397287423078396" lon="6.474606631228843"><ele>981.0</ele><time>2026-04-18T11:37:08Z</time></trkpt><trkpt lat="44.39741787010138" lon="6.474447871632512"><ele>981.0</ele><time>2026-04-18T11:37:09Z</time></trkpt><trkpt lat="44.39753838021075" lon="6.474279224554195"><ele>981.0</ele><time>2026-04-18T11:37:10Z</time></trkpt><trkpt lat="44.39766097237271" lon="6.474096346221552"><ele>981.0</ele><time>2026-04-18T11:37:11Z</time></trkpt><trkpt lat="44.39778170286981" lon="6.473918464069603"><ele>978.3333333333333</ele><time>2026-04-18T11:37:12Z</time></trkpt><trkpt lat="44.39789530589183" lon="6.4737204588110275"><ele>975.6666666666666</ele><time>2026-04-18T11:37:13Z</time></trkpt><trkpt lat="44.39800372656788" lon="6.473483233062209"><ele>973.0</ele><time>2026-04-18T11:37:14Z</time></trkpt><trkpt lat="44.39810308796001" lon="6.473225618785251"><ele>973.0</ele><time>2026-04-18T11:37:15Z</time></trkpt><trkpt lat="44.3982034415103" lon="6.472977812669451"><ele>973.0</ele><time>2026-04-18T11:37:16Z</time></trkpt><trkpt lat="44.39830608716795" lon="6.472737168252785"><ele>973.0</ele><time>2026-04-18T11:37:17Z</time></trkpt><trkpt lat="44.39841035610184" lon="6.472493964929038"><ele>973.0</ele><time>2026-04-18T11:37:18Z</time></trkpt><trkpt lat="44.39850735071371" lon="6.47225176722023"><ele>973.0</ele><time>2026-04-18T11:37:19Z</time></trkpt><trkpt lat="44.39860176856875" lon="6.472021003810232"><ele>973.0</ele><time>2026-04-18T11:37:20Z</time></trkpt><trkpt lat="44.39869596825705" lon="6.471794338116086"><ele>976.6666666666666</ele><time>2026-04-18T11:37:21Z</time></trkpt><trkpt lat="44.398798281705176" lon="6.471581795699164"><ele>980.3333333333333</ele><time>2026-04-18T11:37:22Z</time></trkpt><trkpt lat="44.398914152753015" lon="6.4713999236120685"><ele>984.0</ele><time>2026-04-18T11:37:23Z</time></trkpt><trkpt lat="44.399034308046716" lon="6.4712336467557705"><ele>984.0</ele><time>2026-04-18T11:37:24Z</time></trkpt><trkpt lat="44.39915813737866" lon="6.4710901704995365"><ele>984.0</ele><time>2026-04-18T11:37:25Z</time></trkpt><trkpt lat="44.399294333580734" lon="6.470959633525613"><ele>984.0</ele><time>2026-04-18T11:37:26Z</time></trkpt><trkpt lat="44.39943888416918" lon="6.470849436387908"><ele>984.0</ele><time>2026-04-18T11:37:27Z</time></trkpt><trkpt lat="44.39959256738026" lon="6.470757481312306"><ele>984.0</ele><time>2026-04-18T11:37:28Z</time></trkpt><trkpt lat="44.399751827532334" lon="6.470686364020503"><ele>984.0</ele><time>2026-04-18T11:37:29Z</time></trkpt><trkpt lat="44.39992404334553" lon="6.470627749691951"><ele>985.3333333333333</ele><time>2026-04-18T11:37:30Z</time></trkpt><trkpt lat="44.40010337648606" lon="6.470576369518942"><ele>986.6666666666666</ele><time>2026-04-18T11:37:31Z</time></trkpt><trkpt lat="44.400291436881844" lon="6.470509783590025"><ele>988.0</ele><time>2026-04-18T11:37:32Z</time></trkpt><trkpt lat="44.40047367514926" lon="6.470421562712213"><ele>978.3333333333333</ele><time>2026-04-18T11:37:33Z</time></trkpt><trkpt lat="44.40066736998855" lon="6.470299243627413"><ele>968.6666666666667</ele><time>2026-04-18T11:37:34Z</time></trkpt><trkpt lat="44.400837521039605" lon="6.470138123337637"><ele>959.0</ele><time>2026-04-18T11:37:35Z</time></trkpt><trkpt lat="44.40098927632542" lon="6.4699730268952"><ele>959.0</ele><time>2026-04-18T11:37:36Z</time></trkpt><trkpt lat="44.401138377028886" lon="6.469780830457646"><ele>959.0</ele><time>2026-04-18T11:37:37Z</time></trkpt><trkpt lat="44.40127646915523" lon="6.469580582500182"><ele>959.0</ele><time>2026-04-18T11:37:38Z</time></trkpt><trkpt lat="44.40138727516551" lon="6.469336024128731"><ele>958.6666666666667</ele><time>2026-04-18T11:37:39Z</time></trkpt><trkpt lat="44.40148831458906" lon="6.469080780953149"><ele>958.3333333333333</ele><time>2026-04-18T11:37:40Z</time></trkpt><trkpt lat="44.40158498027567" lon="6.468810404727929"><ele>958.0</ele><time>2026-04-18T11:37:41Z</time></trkpt><trkpt lat="44.40167854367448" lon="6.468535003721796"><ele>958.0</ele><time>2026-04-18T11:37:42Z</time></trkpt><trkpt lat="44.40177438272142" lon="6.468226881967651"><ele>958.0</ele><time>2026-04-18T11:37:43Z</time></trkpt><trkpt lat="44.40186718390409" lon="6.467927033570533"><ele>965.6666666666666</ele><time>2026-04-18T11:37:44Z</time></trkpt><trkpt lat="44.40196757792724" lon="6.467646987955384"><ele>973.3333333333333</ele><time>2026-04-18T11:37:45Z</time></trkpt><trkpt lat="44.4020536758198" lon="6.467359397916661"><ele>981.0</ele><time>2026-04-18T11:37:46Z</time></trkpt><trkpt lat="44.4021520202554" lon="6.467075139045111"><ele>961.0</ele><time>2026-04-18T11:37:47Z</time></trkpt><trkpt lat="44.40221038885085" lon="6.46677144321686"><ele>941.0</ele><time>2026-04-18T11:37:48Z</time></trkpt><trkpt lat="44.402258680065" lon="6.46646008370158"><ele>940.0</ele><time>2026-04-18T11:37:49Z</time></trkpt><trkpt lat="44.402266407546094" lon="6.466157302499516"><ele>939.0</ele><time>2026-04-18T11:37:50Z</time></trkpt><trkpt lat="44.402289689356294" lon="6.465845946347236"><ele>938.0</ele><time>2026-04-18T11:37:51Z</time></trkpt><trkpt lat="44.402311038325976" lon="6.465550777918096"><ele>940.0</ele><time>2026-04-18T11:37:52Z</time></trkpt><trkpt lat="44.40236584494212" lon="6.465256857861045"><ele>942.0</ele><time>2026-04-18T11:37:53Z</time></trkpt><trkpt lat="44.40241587540396" lon="6.464984062239555"><ele>944.0</ele><time>2026-04-18T11:37:54Z</time></trkpt><trkpt lat="44.40248482357682" lon="6.464709623595559"><ele>949.3333333333334</ele><time>2026-04-18T11:37:55Z</time></trkpt><trkpt lat="44.40256879336657" lon="6.464455394333"><ele>954.6666666666667</ele><time>2026-04-18T11:37:56Z</time></trkpt><trkpt lat="44.402657121421804" lon="6.464215229297917"><ele>960.0</ele><time>2026-04-18T11:37:57Z</time></trkpt><trkpt lat="44.40275568397093" lon="6.46398666583041"><ele>957.0</ele><time>2026-04-18T11:37:58Z</time></trkpt><trkpt lat="44.40287344650654" lon="6.463765969827912"><ele>954.0</ele><time>2026-04-18T11:37:59Z</time></trkpt><trkpt lat="44.402999097713035" lon="6.463568397261281"><ele>951.0</ele><time>2026-04-18T11:38:00Z</time></trkpt><trkpt lat="44.40313890957533" lon="6.463371735198233"><ele>951.0</ele><time>2026-04-18T11:38:01Z</time></trkpt><trkpt lat="44.40328903150548" lon="6.463187897820536"><ele>951.0</ele><time>2026-04-18T11:38:02Z</time></trkpt><trkpt lat="44.40345320772357" lon="6.463006866563303"><ele>951.0</ele><time>2026-04-18T11:38:03Z</time></trkpt><trkpt lat="44.40363498617302" lon="6.462855072906599"><ele>948.6666666666667</ele><time>2026-04-18T11:38:04Z</time></trkpt><trkpt lat="44.403820435124004" lon="6.462696452050259"><ele>946.3333333333334</ele><time>2026-04-18T11:38:05Z</time></trkpt><trkpt lat="44.403996431515495" lon="6.462525818703349"><ele>944.0</ele><time>2026-04-18T11:38:06Z</time></trkpt><trkpt lat="44.40415725830751" lon="6.4623462516749655"><ele>944.0</ele><time>2026-04-18T11:38:07Z</time></trkpt><trkpt lat="44.40430638130462" lon="6.462155934123451"><ele>944.0</ele><time>2026-04-18T11:38:08Z</time></trkpt><trkpt lat="44.404450696911894" lon="6.461946411005933"><ele>944.0</ele><time>2026-04-18T11:38:09Z</time></trkpt><trkpt lat="44.40459196467661" lon="6.461738379042579"><ele>941.0</ele><time>2026-04-18T11:38:10Z</time></trkpt><trkpt lat="44.40473329971508" lon="6.461530248009041"><ele>938.0</ele><time>2026-04-18T11:38:11Z</time></trkpt><trkpt lat="44.404782849700105" lon="6.461191560535349"><ele>938.0</ele><time>2026-04-18T11:38:12Z</time></trkpt><trkpt lat="44.404883509002495" lon="6.460908385014971"><ele>938.0</ele><time>2026-04-18T11:38:13Z</time></trkpt><trkpt lat="44.40499380888426" lon="6.460607781899809"><ele>941.0</ele><time>2026-04-18T11:38:14Z</time></trkpt><trkpt lat="44.40510075715361" lon="6.460299317926106"><ele>944.0</ele><time>2026-04-18T11:38:15Z</time></trkpt><trkpt lat="44.40521710883628" lon="6.460007861280904"><ele>944.0</ele><time>2026-04-18T11:38:16Z</time></trkpt><trkpt lat="44.40531893668926" lon="6.459724394114312"><ele>944.0</ele><time>2026-04-18T11:38:17Z</time></trkpt><trkpt lat="44.40543185098254" lon="6.459429229089417"><ele>935.0</ele><time>2026-04-18T11:38:18Z</time></trkpt><trkpt lat="44.40556522695948" lon="6.459148744381179"><ele>926.0</ele><time>2026-04-18T11:38:19Z</time></trkpt><trkpt lat="44.405735428581536" lon="6.458889672833067"><ele>932.5</ele><time>2026-04-18T11:38:20Z</time></trkpt><trkpt lat="44.405913020041694" lon="6.458627684719251"><ele>939.0</ele><time>2026-04-18T11:38:21Z</time></trkpt><trkpt lat="44.406084632298835" lon="6.458347738460877"><ele>939.0</ele><time>2026-04-18T11:38:22Z</time></trkpt><trkpt lat="44.40623606654119" lon="6.458052428325059"><ele>939.0</ele><time>2026-04-18T11:38:23Z</time></trkpt><trkpt lat="44.40637774303754" lon="6.457727082053122"><ele>933.0</ele><time>2026-04-18T11:38:24Z</time></trkpt><trkpt lat="44.406489292827985" lon="6.457423107125473"><ele>927.0</ele><time>2026-04-18T11:38:25Z</time></trkpt><trkpt lat="44.406616647282455" lon="6.4571346941977374"><ele>932.5</ele><time>2026-04-18T11:38:26Z</time></trkpt><trkpt lat="44.40674798711157" lon="6.45686205135639"><ele>938.0</ele><time>2026-04-18T11:38:27Z</time></trkpt><trkpt lat="44.406883672224055" lon="6.4565989705918225"><ele>938.0</ele><time>2026-04-18T11:38:28Z</time></trkpt><trkpt lat="44.40701798536413" lon="6.456335406938085"><ele>938.0</ele><time>2026-04-18T11:38:29Z</time></trkpt><trkpt lat="44.40715151504409" lon="6.456086822984174"><ele>935.0</ele><time>2026-04-18T11:38:30Z</time></trkpt><trkpt lat="44.407299577122366" lon="6.455839289031605"><ele>932.0</ele><time>2026-04-18T11:38:31Z</time></trkpt><trkpt lat="44.40745556213855" lon="6.45560097416377"><ele>939.5</ele><time>2026-04-18T11:38:32Z</time></trkpt><trkpt lat="44.40762132599626" lon="6.455372882202593"><ele>947.0</ele><time>2026-04-18T11:38:33Z</time></trkpt><trkpt lat="44.40778543454702" lon="6.4551588003164255"><ele>947.0</ele><time>2026-04-18T11:38:34Z</time></trkpt><trkpt lat="44.4079495984862" lon="6.4549703342844"><ele>947.0</ele><time>2026-04-18T11:38:35Z</time></trkpt><trkpt lat="44.408106403017065" lon="6.454773036041884"><ele>947.0</ele><time>2026-04-18T11:38:36Z</time></trkpt><trkpt lat="44.40829091739834" lon="6.454596468634374"><ele>947.5</ele><time>2026-04-18T11:38:37Z</time></trkpt><trkpt lat="44.40852839166429" lon="6.454489260352872"><ele>948.0</ele><time>2026-04-18T11:38:38Z</time></trkpt><trkpt lat="44.40873316811223" lon="6.454348812757058"><ele>943.6666666666667</ele><time>2026-04-18T11:38:39Z</time></trkpt><trkpt lat="44.4089319963509" lon="6.4542213238033135"><ele>939.3333333333334</ele><time>2026-04-18T11:38:40Z</time></trkpt><trkpt lat="44.40912713840554" lon="6.454098230551131"><ele>935.0</ele><time>2026-04-18T11:38:41Z</time></trkpt><trkpt lat="44.409323329497845" lon="6.453991798130217"><ele>935.0</ele><time>2026-04-18T11:38:42Z</time></trkpt><trkpt lat="44.40951183680097" lon="6.4538831975419875"><ele>935.0</ele><time>2026-04-18T11:38:43Z</time></trkpt><trkpt lat="44.40967648861938" lon="6.4538003615815365"><ele>935.0</ele><time>2026-04-18T11:38:44Z</time></trkpt><trkpt lat="44.409832885240746" lon="6.453710149427635"><ele>936.0</ele><time>2026-04-18T11:38:45Z</time></trkpt><trkpt lat="44.40996790999425" lon="6.4536300401738105"><ele>937.0</ele><time>2026-04-18T11:38:46Z</time></trkpt><trkpt lat="44.41013691387716" lon="6.4535880001649195"><ele>938.0</ele><time>2026-04-18T11:38:47Z</time></trkpt><trkpt lat="44.41031363418574" lon="6.453545633656168"><ele>937.0</ele><time>2026-04-18T11:38:48Z</time></trkpt><trkpt lat="44.410494836621865" lon="6.453526398865365"><ele>936.0</ele><time>2026-04-18T11:38:49Z</time></trkpt><trkpt lat="44.41067155904195" lon="6.453549964604992"><ele>935.0</ele><time>2026-04-18T11:38:50Z</time></trkpt><trkpt lat="44.410840336624446" lon="6.453542032986799"><ele>935.0</ele><time>2026-04-18T11:38:51Z</time></trkpt><trkpt lat="44.41100091749757" lon="6.453507590836459"><ele>935.0</ele><time>2026-04-18T11:38:52Z</time></trkpt><trkpt lat="44.41115140968844" lon="6.453435692740101"><ele>935.0</ele><time>2026-04-18T11:38:53Z</time></trkpt><trkpt lat="44.41130190068941" lon="6.453328970059931"><ele>933.3333333333334</ele><time>2026-04-18T11:38:54Z</time></trkpt><trkpt lat="44.411424994606925" lon="6.453185917742021"><ele>931.6666666666667</ele><time>2026-04-18T11:38:55Z</time></trkpt><trkpt lat="44.411555603385395" lon="6.453032352684645"><ele>930.0</ele><time>2026-04-18T11:38:56Z</time></trkpt><trkpt lat="44.41165729345146" lon="6.452839178960532"><ele>930.0</ele><time>2026-04-18T11:38:57Z</time></trkpt><trkpt lat="44.411736519154466" lon="6.452620166891838"><ele>930.0</ele><time>2026-04-18T11:38:58Z</time></trkpt><trkpt lat="44.41179429542291" lon="6.452380603235878"><ele>930.0</ele><time>2026-04-18T11:38:59Z</time></trkpt><trkpt lat="44.41183490749531" lon="6.452153652033802"><ele>932.0</ele><time>2026-04-18T11:39:00Z</time></trkpt><trkpt lat="44.41185189417826" lon="6.451890054510901"><ele>934.0</ele><time>2026-04-18T11:39:01Z</time></trkpt><trkpt lat="44.41184517052423" lon="6.4516232189316325"><ele>936.0</ele><time>2026-04-18T11:39:02Z</time></trkpt><trkpt lat="44.41181207149668" lon="6.451375668680658"><ele>937.0</ele><time>2026-04-18T11:39:03Z</time></trkpt><trkpt lat="44.411793048732676" lon="6.451104910246231"><ele>938.0</ele><time>2026-04-18T11:39:04Z</time></trkpt><trkpt lat="44.41180665850143" lon="6.450840248367551"><ele>939.0</ele><time>2026-04-18T11:39:05Z</time></trkpt><trkpt lat="44.41185024845364" lon="6.450578070458962"><ele>942.0</ele><time>2026-04-18T11:39:06Z</time></trkpt><trkpt lat="44.411917236227694" lon="6.4503097545970345"><ele>945.0</ele><time>2026-04-18T11:39:07Z</time></trkpt><trkpt lat="44.41202285376291" lon="6.450063181993953"><ele>948.0</ele><time>2026-04-18T11:39:08Z</time></trkpt><trkpt lat="44.412139308197744" lon="6.449806201467092"><ele>941.6666666666667</ele><time>2026-04-18T11:39:09Z</time></trkpt><trkpt lat="44.41224776678274" lon="6.449565705319496"><ele>935.3333333333334</ele><time>2026-04-18T11:39:10Z</time></trkpt><trkpt lat="44.41234332080547" lon="6.449331155142084"><ele>929.0</ele><time>2026-04-18T11:39:11Z</time></trkpt><trkpt lat="44.41244272995893" lon="6.449127389351467"><ele>929.0</ele><time>2026-04-18T11:39:12Z</time></trkpt><trkpt lat="44.412545061449954" lon="6.448932858900683"><ele>929.0</ele><time>2026-04-18T11:39:13Z</time></trkpt><trkpt lat="44.412664034082574" lon="6.448746399303303"><ele>929.0</ele><time>2026-04-18T11:39:14Z</time></trkpt><trkpt lat="44.41279653045313" lon="6.448565541537982"><ele>929.3333333333334</ele><time>2026-04-18T11:39:15Z</time></trkpt><trkpt lat="44.41300298045912" lon="6.448454109619914"><ele>929.6666666666667</ele><time>2026-04-18T11:39:16Z</time></trkpt><trkpt lat="44.41320139452894" lon="6.448375760297263"><ele>930.0</ele><time>2026-04-18T11:39:17Z</time></trkpt><trkpt lat="44.413363392951915" lon="6.448240426775376"><ele>930.0</ele><time>2026-04-18T11:39:18Z</time></trkpt><trkpt lat="44.41352716606381" lon="6.448143814485421"><ele>930.0</ele><time>2026-04-18T11:39:19Z</time></trkpt><trkpt lat="44.41371509852032" lon="6.448084481056157"><ele>930.0</ele><time>2026-04-18T11:39:20Z</time></trkpt><trkpt lat="44.41390669353777" lon="6.448024265993711"><ele>924.0</ele><time>2026-04-18T11:39:21Z</time></trkpt><trkpt lat="44.414085458395036" lon="6.4479926965042615"><ele>918.0</ele><time>2026-04-18T11:39:22Z</time></trkpt><trkpt lat="44.414295252484635" lon="6.448001408037566"><ele>912.0</ele><time>2026-04-18T11:39:23Z</time></trkpt><trkpt lat="44.414496433684036" lon="6.44801117621748"><ele>910.0</ele><time>2026-04-18T11:39:24Z</time></trkpt><trkpt lat="44.414697388989545" lon="6.448000351523065"><ele>908.0</ele><time>2026-04-18T11:39:25Z</time></trkpt><trkpt lat="44.41490513417273" lon="6.447969787352531"><ele>906.0</ele><time>2026-04-18T11:39:26Z</time></trkpt><trkpt lat="44.415182483268424" lon="6.447908333616354"><ele>919.0</ele><time>2026-04-18T11:39:27Z</time></trkpt><trkpt lat="44.41542071037765" lon="6.44789598023187"><ele>932.0</ele><time>2026-04-18T11:39:28Z</time></trkpt><trkpt lat="44.41564469285988" lon="6.447882939421778"><ele>932.0</ele><time>2026-04-18T11:39:29Z</time></trkpt><trkpt lat="44.41586776912033" lon="6.447858905598729"><ele>932.0</ele><time>2026-04-18T11:39:30Z</time></trkpt><trkpt lat="44.4160828076677" lon="6.447821795292439"><ele>932.0</ele><time>2026-04-18T11:39:31Z</time></trkpt><trkpt lat="44.4162732173943" lon="6.44777046429325"><ele>927.3333333333334</ele><time>2026-04-18T11:39:32Z</time></trkpt><trkpt lat="44.416501092762125" lon="6.447744660533196"><ele>922.6666666666667</ele><time>2026-04-18T11:39:33Z</time></trkpt><trkpt lat="44.41669706497611" lon="6.447681562466581"><ele>918.0</ele><time>2026-04-18T11:39:34Z</time></trkpt><trkpt lat="44.416898916685355" lon="6.447581314934106"><ele>918.0</ele><time>2026-04-18T11:39:35Z</time></trkpt><trkpt lat="44.417111069358306" lon="6.447462653015134"><ele>918.0</ele><time>2026-04-18T11:39:36Z</time></trkpt><trkpt lat="44.417336262690306" lon="6.447335665931996"><ele>922.5</ele><time>2026-04-18T11:39:37Z</time></trkpt><trkpt lat="44.41757650866244" lon="6.44721526997746"><ele>927.0</ele><time>2026-04-18T11:39:38Z</time></trkpt><trkpt lat="44.417807593251624" lon="6.447118188162443"><ele>922.0</ele><time>2026-04-18T11:39:39Z</time></trkpt><trkpt lat="44.4180423040842" lon="6.4470497523849115"><ele>917.0</ele><time>2026-04-18T11:39:40Z</time></trkpt><trkpt lat="44.41826552091219" lon="6.446986293078811"><ele>917.0</ele><time>2026-04-18T11:39:41Z</time></trkpt><trkpt lat="44.41848459716971" lon="6.446907152725538"><ele>917.0</ele><time>2026-04-18T11:39:42Z</time></trkpt><trkpt lat="44.41867462021526" lon="6.446819016172849"><ele>917.0</ele><time>2026-04-18T11:39:43Z</time></trkpt><trkpt lat="44.41885847441248" lon="6.446727743861505"><ele>917.0</ele><time>2026-04-18T11:39:44Z</time></trkpt><trkpt lat="44.41904861261804" lon="6.446610060754787"><ele>917.0</ele><time>2026-04-18T11:39:45Z</time></trkpt><trkpt lat="44.41920709614398" lon="6.446420374632874"><ele>917.0</ele><time>2026-04-18T11:39:46Z</time></trkpt><trkpt lat="44.4193520626391" lon="6.44624377345056"><ele>917.0</ele><time>2026-04-18T11:39:47Z</time></trkpt><trkpt lat="44.41950020008899" lon="6.4460233283379385"><ele>917.0</ele><time>2026-04-18T11:39:48Z</time></trkpt><trkpt lat="44.41964095475497" lon="6.445795319432453"><ele>917.0</ele><time>2026-04-18T11:39:49Z</time></trkpt><trkpt lat="44.41978828821859" lon="6.445546476514999"><ele>915.6666666666667</ele><time>2026-04-18T11:39:50Z</time></trkpt><trkpt lat="44.419939042492295" lon="6.4453059885321755"><ele>914.3333333333333</ele><time>2026-04-18T11:39:51Z</time></trkpt><trkpt lat="44.42009307047726" lon="6.445118942912946"><ele>913.0</ele><time>2026-04-18T11:39:52Z</time></trkpt><trkpt lat="44.4202538699701" lon="6.444934983672351"><ele>913.0</ele><time>2026-04-18T11:39:53Z</time></trkpt><trkpt lat="44.42043559829782" lon="6.444753579951361"><ele>913.0</ele><time>2026-04-18T11:39:54Z</time></trkpt><trkpt lat="44.42063741104348" lon="6.444611604125846"><ele>913.0</ele><time>2026-04-18T11:39:55Z</time></trkpt><trkpt lat="44.42085180995923" lon="6.444474909412601"><ele>912.5</ele><time>2026-04-18T11:39:56Z</time></trkpt><trkpt lat="44.421068647752996" lon="6.44434237770805"><ele>912.0</ele><time>2026-04-18T11:39:57Z</time></trkpt><trkpt lat="44.42127389113639" lon="6.444199822732605"><ele>903.0</ele><time>2026-04-18T11:39:58Z</time></trkpt><trkpt lat="44.42148570094436" lon="6.444057517824036"><ele>894.0</ele><time>2026-04-18T11:39:59Z</time></trkpt><trkpt lat="44.421685183992004" lon="6.443913440338358"><ele>895.6666666666667</ele><time>2026-04-18T11:40:00Z</time></trkpt><trkpt lat="44.42188627630333" lon="6.4437698534707515"><ele>897.3333333333334</ele><time>2026-04-18T11:40:01Z</time></trkpt><trkpt lat="44.42208031796021" lon="6.443640588718756"><ele>899.0</ele><time>2026-04-18T11:40:02Z</time></trkpt><trkpt lat="44.42227499397584" lon="6.443509191224474"><ele>899.0</ele><time>2026-04-18T11:40:03Z</time></trkpt><trkpt lat="44.42245839302436" lon="6.44338477169702"><ele>899.0</ele><time>2026-04-18T11:40:04Z</time></trkpt><trkpt lat="44.42263040540912" lon="6.4432341134365725"><ele>899.0</ele><time>2026-04-18T11:40:05Z</time></trkpt><trkpt lat="44.42280059398487" lon="6.443090841673763"><ele>897.0</ele><time>2026-04-18T11:40:06Z</time></trkpt><trkpt lat="44.422924995741546" lon="6.44288804675473"><ele>895.0</ele><time>2026-04-18T11:40:07Z</time></trkpt><trkpt lat="44.42306357078107" lon="6.442663612898354"><ele>893.0</ele><time>2026-04-18T11:40:08Z</time></trkpt><trkpt lat="44.4231812636546" lon="6.442406430520826"><ele>896.0</ele><time>2026-04-18T11:40:09Z</time></trkpt><trkpt lat="44.42326286056402" lon="6.442115753759153"><ele>899.0</ele><time>2026-04-18T11:40:10Z</time></trkpt><trkpt lat="44.4233509509744" lon="6.441830765642669"><ele>902.0</ele><time>2026-04-18T11:40:11Z</time></trkpt><trkpt lat="44.4234330069159" lon="6.4415496746861"><ele>907.0</ele><time>2026-04-18T11:40:12Z</time></trkpt><trkpt lat="44.42351379196558" lon="6.441251324501481"><ele>912.0</ele><time>2026-04-18T11:40:13Z</time></trkpt><trkpt lat="44.423598924670046" lon="6.440962284942325"><ele>912.0</ele><time>2026-04-18T11:40:14Z</time></trkpt><trkpt lat="44.423702888423264" lon="6.440689919812316"><ele>912.0</ele><time>2026-04-18T11:40:15Z</time></trkpt><trkpt lat="44.42382259219642" lon="6.440429282102635"><ele>912.0</ele><time>2026-04-18T11:40:16Z</time></trkpt><trkpt lat="44.423965122191284" lon="6.440186730891076"><ele>912.6666666666667</ele><time>2026-04-18T11:40:17Z</time></trkpt><trkpt lat="44.42410810965494" lon="6.439946692077731"><ele>913.3333333333334</ele><time>2026-04-18T11:40:18Z</time></trkpt><trkpt lat="44.424250806087116" lon="6.439720412184108"><ele>914.0</ele><time>2026-04-18T11:40:19Z</time></trkpt><trkpt lat="44.424395416489624" lon="6.439495464786865"><ele>914.0</ele><time>2026-04-18T11:40:20Z</time></trkpt><trkpt lat="44.42453539624821" lon="6.4392741975001"><ele>914.0</ele><time>2026-04-18T11:40:21Z</time></trkpt><trkpt lat="44.424668980295735" lon="6.439049992182648"><ele>914.0</ele><time>2026-04-18T11:40:22Z</time></trkpt><trkpt lat="44.424797622273104" lon="6.438829983733552"><ele>910.3333333333334</ele><time>2026-04-18T11:40:23Z</time></trkpt><trkpt lat="44.4249302096411" lon="6.438610053279283"><ele>906.6666666666667</ele><time>2026-04-18T11:40:24Z</time></trkpt><trkpt lat="44.42505331266969" lon="6.438407605699407"><ele>903.0</ele><time>2026-04-18T11:40:25Z</time></trkpt><trkpt lat="44.42517398939246" lon="6.438201267581256"><ele>903.0</ele><time>2026-04-18T11:40:26Z</time></trkpt><trkpt lat="44.425296679978565" lon="6.438008621990397"><ele>903.0</ele><time>2026-04-18T11:40:27Z</time></trkpt><trkpt lat="44.42541631910891" lon="6.437839647688291"><ele>903.0</ele><time>2026-04-18T11:40:28Z</time></trkpt><trkpt lat="44.42554982846623" lon="6.437682366797154"><ele>902.6666666666667</ele><time>2026-04-18T11:40:29Z</time></trkpt><trkpt lat="44.425684884806905" lon="6.437547538127721"><ele>902.3333333333334</ele><time>2026-04-18T11:40:30Z</time></trkpt><trkpt lat="44.4258191568285" lon="6.437425247859204"><ele>902.0</ele><time>2026-04-18T11:40:31Z</time></trkpt><trkpt lat="44.42595247747892" lon="6.437319817384345"><ele>902.0</ele><time>2026-04-18T11:40:32Z</time></trkpt><trkpt lat="44.42607242709214" lon="6.437210937274893"><ele>902.0</ele><time>2026-04-18T11:40:33Z</time></trkpt><trkpt lat="44.42619419057474" lon="6.437113535202932"><ele>902.0</ele><time>2026-04-18T11:40:34Z</time></trkpt><trkpt lat="44.42631491982921" lon="6.437030210264416"><ele>902.0</ele><time>2026-04-18T11:40:35Z</time></trkpt><trkpt lat="44.426431268697804" lon="6.436966365552467"><ele>902.5</ele><time>2026-04-18T11:40:36Z</time></trkpt><trkpt lat="44.42655001340043" lon="6.436904552950452"><ele>903.0</ele><time>2026-04-18T11:40:37Z</time></trkpt><trkpt lat="44.42667104520418" lon="6.436886812111723"><ele>903.5</ele><time>2026-04-18T11:40:38Z</time></trkpt><trkpt lat="44.4267950773791" lon="6.436835475691059"><ele>904.0</ele><time>2026-04-18T11:40:39Z</time></trkpt><trkpt lat="44.426921238772955" lon="6.436755408686948"><ele>904.0</ele><time>2026-04-18T11:40:40Z</time></trkpt><trkpt lat="44.42703894434407" lon="6.436673605871648"><ele>904.0</ele><time>2026-04-18T11:40:41Z</time></trkpt><trkpt lat="44.427156014999845" lon="6.43656673608742"><ele>904.0</ele><time>2026-04-18T11:40:42Z</time></trkpt><trkpt lat="44.427263885714716" lon="6.4364475903854075"><ele>904.0</ele><time>2026-04-18T11:40:43Z</time></trkpt><trkpt lat="44.427368235217784" lon="6.436341540105647"><ele>904.0</ele><time>2026-04-18T11:40:44Z</time></trkpt><trkpt lat="44.427467210975394" lon="6.436235236271958"><ele>904.0000000000001</ele><time>2026-04-18T11:40:45Z</time></trkpt><trkpt lat="44.42755637142009" lon="6.436134464398504"><ele>904.0000000000001</ele><time>2026-04-18T11:40:46Z</time></trkpt><trkpt lat="44.42763158464239" lon="6.436047528046471"><ele>904.0</ele><time>2026-04-18T11:40:47Z</time></trkpt><trkpt lat="44.4277208458833" lon="6.435978409593717"><ele>904.0</ele><time>2026-04-18T11:40:48Z</time></trkpt><trkpt lat="44.427788947490164" lon="6.435883756249449"><ele>904.0</ele><time>2026-04-18T11:40:49Z</time></trkpt><trkpt lat="44.42785074174514" lon="6.435771752305455"><ele>904.0000000000001</ele><time>2026-04-18T11:40:50Z</time></trkpt><trkpt lat="44.4279075302505" lon="6.435640991511023"><ele>904.0000000000001</ele><time>2026-04-18T11:40:51Z</time></trkpt><trkpt lat="44.427965972145756" lon="6.435521760582253"><ele>904.0</ele><time>2026-04-18T11:40:52Z</time></trkpt><trkpt lat="44.42802050851148" lon="6.4354049390186425"><ele>904.0</ele><time>2026-04-18T11:40:53Z</time></trkpt><trkpt lat="44.42808249247426" lon="6.435298661408927"><ele>904.8000000000001</ele><time>2026-04-18T11:40:54Z</time></trkpt><trkpt lat="44.42814066222054" lon="6.435197206498785"><ele>905.6000000000001</ele><time>2026-04-18T11:40:55Z</time></trkpt><trkpt lat="44.42819639472314" lon="6.435099280425997"><ele>906.4</ele><time>2026-04-18T11:40:56Z</time></trkpt><trkpt lat="44.42825727458058" lon="6.435014358378083"><ele>907.2</ele><time>2026-04-18T11:40:57Z</time></trkpt><trkpt lat="44.42831432622736" lon="6.434906892120543"><ele>908.0</ele><time>2026-04-18T11:40:58Z</time></trkpt><trkpt lat="44.42837145606218" lon="6.434798898583894"><ele>908.0</ele><time>2026-04-18T11:40:59Z</time></trkpt><trkpt lat="44.42841694869033" lon="6.4346805929746855"><ele>908.0</ele><time>2026-04-18T11:41:00Z</time></trkpt><trkpt lat="44.42845359705579" lon="6.4345536971888535"><ele>908.0</ele><time>2026-04-18T11:41:01Z</time></trkpt><trkpt lat="44.42849253699304" lon="6.434419524157971"><ele>908.0</ele><time>2026-04-18T11:41:02Z</time></trkpt><trkpt lat="44.428522715427775" lon="6.434291314876013"><ele>908.0</ele><time>2026-04-18T11:41:03Z</time></trkpt><trkpt lat="44.42858012708926" lon="6.434164212292422"><ele>907.0</ele><time>2026-04-18T11:41:04Z</time></trkpt><trkpt lat="44.42864304160089" lon="6.434056973230923"><ele>906.0</ele><time>2026-04-18T11:41:05Z</time></trkpt><trkpt lat="44.428699142401705" lon="6.433947061294016"><ele>905.0</ele><time>2026-04-18T11:41:06Z</time></trkpt><trkpt lat="44.428733874784406" lon="6.433831551951229"><ele>904.0</ele><time>2026-04-18T11:41:07Z</time></trkpt><trkpt lat="44.428739198454544" lon="6.433702712022093"><ele>903.0</ele><time>2026-04-18T11:41:08Z</time></trkpt><trkpt lat="44.42872237013128" lon="6.4335563055965075"><ele>902.8</ele><time>2026-04-18T11:41:09Z</time></trkpt><trkpt lat="44.428712159234486" lon="6.433418450918059"><ele>902.5999999999999</ele><time>2026-04-18T11:41:10Z</time></trkpt><trkpt lat="44.428673971043295" lon="6.433269124041438"><ele>902.4000000000001</ele><time>2026-04-18T11:41:11Z</time></trkpt><trkpt lat="44.428702252659875" lon="6.433128051739798"><ele>902.2</ele><time>2026-04-18T11:41:12Z</time></trkpt><trkpt lat="44.428735746994626" lon="6.432984919346892"><ele>902.0</ele><time>2026-04-18T11:41:13Z</time></trkpt><trkpt lat="44.42877614579795" lon="6.432839421880875"><ele>904.5</ele><time>2026-04-18T11:41:14Z</time></trkpt><trkpt lat="44.42881989782691" lon="6.432688292175677"><ele>907.0</ele><time>2026-04-18T11:41:15Z</time></trkpt><trkpt lat="44.4288799537929" lon="6.43254851272984"><ele>909.5</ele><time>2026-04-18T11:41:16Z</time></trkpt><trkpt lat="44.42895893050021" lon="6.4324209338029"><ele>912.0</ele><time>2026-04-18T11:41:17Z</time></trkpt><trkpt lat="44.429022881683565" lon="6.432277579190769"><ele>911.25</ele><time>2026-04-18T11:41:18Z</time></trkpt><trkpt lat="44.42908929288524" lon="6.432131058615988"><ele>910.5</ele><time>2026-04-18T11:41:19Z</time></trkpt><trkpt lat="44.42914492788211" lon="6.43197358376761"><ele>909.75</ele><time>2026-04-18T11:41:20Z</time></trkpt><trkpt lat="44.42921608386233" lon="6.431830255206624"><ele>909.0</ele><time>2026-04-18T11:41:21Z</time></trkpt><trkpt lat="44.429286422967465" lon="6.431683896146514"><ele>909.0</ele><time>2026-04-18T11:41:22Z</time></trkpt><trkpt lat="44.42935707727745" lon="6.431535650478371"><ele>909.0</ele><time>2026-04-18T11:41:23Z</time></trkpt><trkpt lat="44.42942202640379" lon="6.431397614484607"><ele>909.0</ele><time>2026-04-18T11:41:24Z</time></trkpt><trkpt lat="44.42948215795378" lon="6.43126741740344"><ele>909.0</ele><time>2026-04-18T11:41:25Z</time></trkpt><trkpt lat="44.429556132246105" lon="6.431174600493935"><ele>909.25</ele><time>2026-04-18T11:41:26Z</time></trkpt><trkpt lat="44.429611154846874" lon="6.431041135837625"><ele>909.5</ele><time>2026-04-18T11:41:27Z</time></trkpt><trkpt lat="44.429688726581276" lon="6.430916268627968"><ele>909.75</ele><time>2026-04-18T11:41:28Z</time></trkpt><trkpt lat="44.429766769123766" lon="6.430773526440506"><ele>910.0</ele><time>2026-04-18T11:41:29Z</time></trkpt><trkpt lat="44.429841552327176" lon="6.430637720867986"><ele>910.0</ele><time>2026-04-18T11:41:30Z</time></trkpt><trkpt lat="44.42990454269014" lon="6.430476261827752"><ele>910.0</ele><time>2026-04-18T11:41:31Z</time></trkpt><trkpt lat="44.42994879953834" lon="6.430310371480634"><ele>910.0</ele><time>2026-04-18T11:41:32Z</time></trkpt><trkpt lat="44.42998553713805" lon="6.4301172379587515"><ele>910.0</ele><time>2026-04-18T11:41:33Z</time></trkpt><trkpt lat="44.430053464749236" lon="6.429945598303878"><ele>912.0</ele><time>2026-04-18T11:41:34Z</time></trkpt><trkpt lat="44.43014295602178" lon="6.429763741689402"><ele>914.0</ele><time>2026-04-18T11:41:35Z</time></trkpt><trkpt lat="44.43026190136328" lon="6.429605403516795"><ele>916.0</ele><time>2026-04-18T11:41:36Z</time></trkpt><trkpt lat="44.430385348024714" lon="6.429444670881686"><ele>914.0</ele><time>2026-04-18T11:41:37Z</time></trkpt><trkpt lat="44.43051707293928" lon="6.42929605814027"><ele>912.0</ele><time>2026-04-18T11:41:38Z</time></trkpt><trkpt lat="44.430641096050365" lon="6.429156051133944"><ele>910.0</ele><time>2026-04-18T11:41:39Z</time></trkpt><trkpt lat="44.43076249869296" lon="6.429021098648856"><ele>910.0</ele><time>2026-04-18T11:41:40Z</time></trkpt><trkpt lat="44.43088288126443" lon="6.428887156492649"><ele>910.0</ele><time>2026-04-18T11:41:41Z</time></trkpt><trkpt lat="44.43102939024802" lon="6.428723393120318"><ele>910.0</ele><time>2026-04-18T11:41:42Z</time></trkpt><trkpt lat="44.43119806268691" lon="6.42853175146069"><ele>909.6666666666666</ele><time>2026-04-18T11:41:43Z</time></trkpt><trkpt lat="44.4313286019458" lon="6.428269426894414"><ele>909.3333333333333</ele><time>2026-04-18T11:41:44Z</time></trkpt><trkpt lat="44.43149068927634" lon="6.428100503754105"><ele>909.0</ele><time>2026-04-18T11:41:45Z</time></trkpt><trkpt lat="44.4316566747884" lon="6.4279336501757385"><ele>914.6666666666667</ele><time>2026-04-18T11:41:46Z</time></trkpt><trkpt lat="44.43181195334136" lon="6.427781010171228"><ele>920.3333333333334</ele><time>2026-04-18T11:41:47Z</time></trkpt><trkpt lat="44.431993646846394" lon="6.427661483855535"><ele>926.0</ele><time>2026-04-18T11:41:48Z</time></trkpt><trkpt lat="44.43213762265888" lon="6.427513506405385"><ele>924.6666666666667</ele><time>2026-04-18T11:41:49Z</time></trkpt><trkpt lat="44.432291973350104" lon="6.4273548656997335"><ele>923.3333333333333</ele><time>2026-04-18T11:41:50Z</time></trkpt><trkpt lat="44.43243318280995" lon="6.427210677797071"><ele>922.0</ele><time>2026-04-18T11:41:51Z</time></trkpt><trkpt lat="44.43258377835761" lon="6.42705929925947"><ele>922.0</ele><time>2026-04-18T11:41:52Z</time></trkpt><trkpt lat="44.43273189739419" lon="6.426913197593256"><ele>922.0</ele><time>2026-04-18T11:41:53Z</time></trkpt><trkpt lat="44.43289229673106" lon="6.426762255213745"><ele>922.0</ele><time>2026-04-18T11:41:54Z</time></trkpt><trkpt lat="44.433057554305435" lon="6.426613369771194"><ele>923.6666666666666</ele><time>2026-04-18T11:41:55Z</time></trkpt><trkpt lat="44.43323345313843" lon="6.426457805412799"><ele>925.3333333333333</ele><time>2026-04-18T11:41:56Z</time></trkpt><trkpt lat="44.43340263336149" lon="6.426311348147091"><ele>927.0</ele><time>2026-04-18T11:41:57Z</time></trkpt><trkpt lat="44.43355018048615" lon="6.4261385790719965"><ele>927.0</ele><time>2026-04-18T11:41:58Z</time></trkpt><trkpt lat="44.43368405669563" lon="6.425930754537236"><ele>927.0</ele><time>2026-04-18T11:41:59Z</time></trkpt><trkpt lat="44.43380627728724" lon="6.4257039924974535"><ele>927.0</ele><time>2026-04-18T11:42:00Z</time></trkpt><trkpt lat="44.43390986062742" lon="6.425447574764959"><ele>923.3333333333333</ele><time>2026-04-18T11:42:01Z</time></trkpt><trkpt lat="44.43403583539223" lon="6.425227607612625"><ele>919.6666666666666</ele><time>2026-04-18T11:42:02Z</time></trkpt><trkpt lat="44.43417894637517" lon="6.4250168221364685"><ele>916.0</ele><time>2026-04-18T11:42:03Z</time></trkpt><trkpt lat="44.43432576866743" lon="6.424801925607451"><ele>915.0</ele><time>2026-04-18T11:42:04Z</time></trkpt><trkpt lat="44.43448883350976" lon="6.424578291234619"><ele>914.0</ele><time>2026-04-18T11:42:05Z</time></trkpt><trkpt lat="44.43465467353576" lon="6.424377417610214"><ele>913.0</ele><time>2026-04-18T11:42:06Z</time></trkpt><trkpt lat="44.43484018428741" lon="6.424218540467582"><ele>913.0</ele><time>2026-04-18T11:42:07Z</time></trkpt><trkpt lat="44.43503170146732" lon="6.42404587946476"><ele>913.0</ele><time>2026-04-18T11:42:08Z</time></trkpt><trkpt lat="44.4352053042913" lon="6.423848515718134"><ele>913.6666666666666</ele><time>2026-04-18T11:42:09Z</time></trkpt><trkpt lat="44.43534901489815" lon="6.423658317578658"><ele>914.3333333333333</ele><time>2026-04-18T11:42:10Z</time></trkpt><trkpt lat="44.4355018811883" lon="6.423488935101344"><ele>915.0</ele><time>2026-04-18T11:42:11Z</time></trkpt><trkpt lat="44.435664783865874" lon="6.423343106826879"><ele>915.0</ele><time>2026-04-18T11:42:12Z</time></trkpt><trkpt lat="44.435840791220954" lon="6.4232152795432444"><ele>915.0</ele><time>2026-04-18T11:42:13Z</time></trkpt><trkpt lat="44.43600609665394" lon="6.423096681786819"><ele>915.0</ele><time>2026-04-18T11:42:14Z</time></trkpt><trkpt lat="44.43614894943616" lon="6.42295322282606"><ele>911.3333333333333</ele><time>2026-04-18T11:42:15Z</time></trkpt><trkpt lat="44.43627469080273" lon="6.422782799031953"><ele>907.6666666666666</ele><time>2026-04-18T11:42:16Z</time></trkpt><trkpt lat="44.43636401489045" lon="6.42255801786603"><ele>904.0</ele><time>2026-04-18T11:42:17Z</time></trkpt><trkpt lat="44.43645955285807" lon="6.422330597540548"><ele>913.0</ele><time>2026-04-18T11:42:18Z</time></trkpt><trkpt lat="44.43657317715265" lon="6.422045428308874"><ele>922.0</ele><time>2026-04-18T11:42:19Z</time></trkpt><trkpt lat="44.43668326392255" lon="6.421768640416106"><ele>922.0</ele><time>2026-04-18T11:42:20Z</time></trkpt><trkpt lat="44.43679102516584" lon="6.421481441238422"><ele>922.0</ele><time>2026-04-18T11:42:21Z</time></trkpt><trkpt lat="44.436894133380356" lon="6.421215640438151"><ele>922.0</ele><time>2026-04-18T11:42:22Z</time></trkpt><trkpt lat="44.43698293190205" lon="6.420977391889926"><ele>929.3333333333333</ele><time>2026-04-18T11:42:23Z</time></trkpt><trkpt lat="44.437069338283735" lon="6.420762692957555"><ele>936.6666666666667</ele><time>2026-04-18T11:42:24Z</time></trkpt><trkpt lat="44.43715007407468" lon="6.420552404596062"><ele>944.0</ele><time>2026-04-18T11:42:25Z</time></trkpt><trkpt lat="44.437207776600935" lon="6.420324341136887"><ele>946.3333333333334</ele><time>2026-04-18T11:42:26Z</time></trkpt><trkpt lat="44.437198488920174" lon="6.420116932650745"><ele>948.6666666666667</ele><time>2026-04-18T11:42:27Z</time></trkpt><trkpt lat="44.43715477906544" lon="6.419846409133457"><ele>951.0</ele><time>2026-04-18T11:42:28Z</time></trkpt><trkpt lat="44.437096574695204" lon="6.419601745835576"><ele>951.0</ele><time>2026-04-18T11:42:29Z</time></trkpt><trkpt lat="44.43703545812832" lon="6.419396135307318"><ele>951.0</ele><time>2026-04-18T11:42:30Z</time></trkpt><trkpt lat="44.437055832393646" lon="6.419152746048563"><ele>951.0</ele><time>2026-04-18T11:42:31Z</time></trkpt><trkpt lat="44.43710952455063" lon="6.418927624190245"><ele>932.0</ele><time>2026-04-18T11:42:32Z</time></trkpt><trkpt lat="44.43718423931225" lon="6.418697838935439"><ele>913.0</ele><time>2026-04-18T11:42:33Z</time></trkpt><trkpt lat="44.43726849331374" lon="6.418508028480402"><ele>894.0</ele><time>2026-04-18T11:42:34Z</time></trkpt><trkpt lat="44.43737052264081" lon="6.418368539634509"><ele>894.0</ele><time>2026-04-18T11:42:35Z</time></trkpt><trkpt lat="44.43748642250305" lon="6.418217353842272"><ele>894.0</ele><time>2026-04-18T11:42:36Z</time></trkpt><trkpt lat="44.437609300488816" lon="6.418062754091285"><ele>894.0</ele><time>2026-04-18T11:42:37Z</time></trkpt><trkpt lat="44.43772937625505" lon="6.417911752595459"><ele>894.75</ele><time>2026-04-18T11:42:38Z</time></trkpt><trkpt lat="44.437831716561995" lon="6.417783123486894"><ele>895.5</ele><time>2026-04-18T11:42:39Z</time></trkpt><trkpt lat="44.43790316024577" lon="6.417693249315"><ele>896.25</ele><time>2026-04-18T11:42:40Z</time></trkpt><trkpt lat="44.43801399832378" lon="6.417593523924718"><ele>897.0</ele><time>2026-04-18T11:42:42Z</time></trkpt><trkpt lat="44.4380946848254" lon="6.4177171181616695"><ele>897.0</ele><time>2026-04-18T11:42:43Z</time></trkpt><trkpt lat="44.438225135861764" lon="6.4176345218056206"><ele>897.0</ele><time>2026-04-18T11:42:45Z</time></trkpt><trkpt lat="44.438267786985875" lon="6.417487368820024"><ele>897.0</ele><time>2026-04-18T11:42:46Z</time></trkpt><trkpt lat="44.438331479073156" lon="6.41734970188332"><ele>897.0</ele><time>2026-04-18T11:42:47Z</time></trkpt><trkpt lat="44.438410786192335" lon="6.417198390638476"><ele>898.75</ele><time>2026-04-18T11:42:48Z</time></trkpt><trkpt lat="44.43849420424912" lon="6.417060028422955"><ele>900.5</ele><time>2026-04-18T11:42:49Z</time></trkpt><trkpt lat="44.43858920888722" lon="6.416902919400154"><ele>902.25</ele><time>2026-04-18T11:42:50Z</time></trkpt><trkpt lat="44.43870479464647" lon="6.416749208658721"><ele>904.0</ele><time>2026-04-18T11:42:51Z</time></trkpt><trkpt lat="44.438877638673986" lon="6.416617389863995"><ele>904.0</ele><time>2026-04-18T11:42:51.999Z</time></trkpt><trkpt lat="44.43903202278249" lon="6.416495542688063"><ele>904.0</ele><time>2026-04-18T11:42:52.999Z</time></trkpt><trkpt lat="44.43919340263512" lon="6.416400550604851"><ele>904.0</ele><time>2026-04-18T11:42:53.999Z</time></trkpt><trkpt lat="44.43935075351897" lon="6.416309903796179"><ele>903.3333333333333</ele><time>2026-04-18T11:42:54.999Z</time></trkpt><trkpt lat="44.439510002409925" lon="6.416223375961717"><ele>902.6666666666667</ele><time>2026-04-18T11:42:55.999Z</time></trkpt><trkpt lat="44.4396678725916" lon="6.416113071389544"><ele>902.0</ele><time>2026-04-18T11:42:56.999Z</time></trkpt><trkpt lat="44.439820679184486" lon="6.415980555695765"><ele>902.0</ele><time>2026-04-18T11:42:57.999Z</time></trkpt><trkpt lat="44.43997197649749" lon="6.415830643203448"><ele>902.0</ele><time>2026-04-18T11:42:58.999Z</time></trkpt><trkpt lat="44.44010036926093" lon="6.415671745572852"><ele>902.0</ele><time>2026-04-18T11:42:59.999Z</time></trkpt><trkpt lat="44.44023409536024" lon="6.41551586924956"><ele>900.75</ele><time>2026-04-18T11:43:00.999Z</time></trkpt><trkpt lat="44.440357199879436" lon="6.415396809100998"><ele>899.5</ele><time>2026-04-18T11:43:01.999Z</time></trkpt><trkpt lat="44.44045597076159" lon="6.415254332196377"><ele>898.25</ele><time>2026-04-18T11:43:02.999Z</time></trkpt><trkpt lat="44.440547567830755" lon="6.4150960218171775"><ele>897.0</ele><time>2026-04-18T11:43:03.999Z</time></trkpt><trkpt lat="44.44063487075771" lon="6.414957294861394"><ele>897.0</ele><time>2026-04-18T11:43:04.999Z</time></trkpt><trkpt lat="44.44072453482072" lon="6.414775017878002"><ele>897.0</ele><time>2026-04-18T11:43:05.999Z</time></trkpt><trkpt lat="44.44085639469272" lon="6.414646219306151"><ele>897.0</ele><time>2026-04-18T11:43:06.999Z</time></trkpt><trkpt lat="44.44101784630408" lon="6.414546906567601"><ele>899.0</ele><time>2026-04-18T11:43:07.999Z</time></trkpt><trkpt lat="44.441148309887446" lon="6.414453705321196"><ele>901.0</ele><time>2026-04-18T11:43:08.999Z</time></trkpt><trkpt lat="44.44131139649593" lon="6.414467801206244"><ele>903.0</ele><time>2026-04-18T11:43:09.999Z</time></trkpt><trkpt lat="44.441412216568196" lon="6.414366761201923"><ele>905.0</ele><time>2026-04-18T11:43:10.999Z</time></trkpt><trkpt lat="44.441540020599696" lon="6.414233313149237"><ele>905.0</ele><time>2026-04-18T11:43:11.999Z</time></trkpt><trkpt lat="44.44167635324264" lon="6.414091453690392"><ele>905.0</ele><time>2026-04-18T11:43:12.999Z</time></trkpt><trkpt lat="44.44181455666979" lon="6.4139487637749815"><ele>905.0</ele><time>2026-04-18T11:43:14Z</time></trkpt><trkpt lat="44.44198047127543" lon="6.413782661238816"><ele>906.3333333333334</ele><time>2026-04-18T11:43:15Z</time></trkpt><trkpt lat="44.442134469950965" lon="6.413671289398307"><ele>907.6666666666667</ele><time>2026-04-18T11:43:16Z</time></trkpt><trkpt lat="44.442323177491964" lon="6.413564112093607"><ele>909.0</ele><time>2026-04-18T11:43:17Z</time></trkpt><trkpt lat="44.442520586275336" lon="6.413449306017096"><ele>909.0</ele><time>2026-04-18T11:43:18Z</time></trkpt><trkpt lat="44.44269757478735" lon="6.413313860081011"><ele>909.0</ele><time>2026-04-18T11:43:19Z</time></trkpt><trkpt lat="44.44287366850262" lon="6.413169580731097"><ele>909.0</ele><time>2026-04-18T11:43:20Z</time></trkpt><trkpt lat="44.44305449901948" lon="6.413018236543977"><ele>911.0</ele><time>2026-04-18T11:43:21Z</time></trkpt><trkpt lat="44.443238513702894" lon="6.41287458318182"><ele>913.0</ele><time>2026-04-18T11:43:22Z</time></trkpt><trkpt lat="44.44342553032985" lon="6.412711664686724"><ele>915.0</ele><time>2026-04-18T11:43:23Z</time></trkpt><trkpt lat="44.443603397778304" lon="6.412560947627505"><ele>915.0</ele><time>2026-04-18T11:43:24Z</time></trkpt><trkpt lat="44.443788277611965" lon="6.412436495173303"><ele>915.0</ele><time>2026-04-18T11:43:25Z</time></trkpt><trkpt lat="44.443993455643216" lon="6.412318986288866"><ele>915.0</ele><time>2026-04-18T11:43:26Z</time></trkpt><trkpt lat="44.44419253168512" lon="6.412182417182841"><ele>918.3333333333333</ele><time>2026-04-18T11:43:27Z</time></trkpt><trkpt lat="44.444382078349605" lon="6.412044972168643"><ele>921.6666666666666</ele><time>2026-04-18T11:43:28Z</time></trkpt><trkpt lat="44.44456799060062" lon="6.41191156103982"><ele>925.0</ele><time>2026-04-18T11:43:29Z</time></trkpt><trkpt lat="44.444757451992224" lon="6.411775466947039"><ele>916.6666666666666</ele><time>2026-04-18T11:43:30Z</time></trkpt><trkpt lat="44.44494341472843" lon="6.411644500293202"><ele>908.3333333333333</ele><time>2026-04-18T11:43:31Z</time></trkpt><trkpt lat="44.445119404314084" lon="6.411514287507808"><ele>900.0</ele><time>2026-04-18T11:43:32Z</time></trkpt><trkpt lat="44.4452725627018" lon="6.411373297386601"><ele>895.3333333333333</ele><time>2026-04-18T11:43:33Z</time></trkpt><trkpt lat="44.44542621962228" lon="6.411239490416829"><ele>890.6666666666666</ele><time>2026-04-18T11:43:34Z</time></trkpt><trkpt lat="44.44556844788003" lon="6.411074990134866"><ele>886.0</ele><time>2026-04-18T11:43:35Z</time></trkpt><trkpt lat="44.445686436839296" lon="6.41092713409584"><ele>886.0</ele><time>2026-04-18T11:43:36Z</time></trkpt><trkpt lat="44.44580172257782" lon="6.410760459540689"><ele>886.0</ele><time>2026-04-18T11:43:37Z</time></trkpt><trkpt lat="44.445851159282135" lon="6.410552854177981"><ele>886.0</ele><time>2026-04-18T11:43:38Z</time></trkpt><trkpt lat="44.44590904226967" lon="6.410314454192268"><ele>892.0</ele><time>2026-04-18T11:43:39Z</time></trkpt><trkpt lat="44.44595415971554" lon="6.410070878844496"><ele>898.0</ele><time>2026-04-18T11:43:40Z</time></trkpt><trkpt lat="44.44597057450178" lon="6.409816968506906"><ele>904.0</ele><time>2026-04-18T11:43:41Z</time></trkpt><trkpt lat="44.445998822854165" lon="6.4095981332568925"><ele>906.75</ele><time>2026-04-18T11:43:42Z</time></trkpt><trkpt lat="44.4460123703821" lon="6.409381367491128"><ele>909.5</ele><time>2026-04-18T11:43:43Z</time></trkpt><trkpt lat="44.44602042886155" lon="6.409165184706669"><ele>912.25</ele><time>2026-04-18T11:43:44Z</time></trkpt><trkpt lat="44.44607834612838" lon="6.4090021137218205"><ele>915.0</ele><time>2026-04-18T11:43:45Z</time></trkpt><trkpt lat="44.446161681104726" lon="6.408853872315907"><ele>918.25</ele><time>2026-04-18T11:43:46Z</time></trkpt><trkpt lat="44.446222320246875" lon="6.408681020551039"><ele>921.5</ele><time>2026-04-18T11:43:47Z</time></trkpt><trkpt lat="44.44624859137272" lon="6.408490306927107"><ele>924.75</ele><time>2026-04-18T11:43:48Z</time></trkpt><trkpt lat="44.44629582864277" lon="6.408311384476965"><ele>928.0</ele><time>2026-04-18T11:43:49Z</time></trkpt><trkpt lat="44.44631655316688" lon="6.408091806716259"><ele>929.5</ele><time>2026-04-18T11:43:50Z</time></trkpt><trkpt lat="44.446288806839036" lon="6.407890211907894"><ele>931.0</ele><time>2026-04-18T11:43:51Z</time></trkpt><trkpt lat="44.4463194930354" lon="6.407701768273554"><ele>932.5</ele><time>2026-04-18T11:43:52Z</time></trkpt><trkpt lat="44.4463913459408" lon="6.4075017691780385"><ele>934.0</ele><time>2026-04-18T11:43:53Z</time></trkpt><trkpt lat="44.44647589132364" lon="6.407288903440709"><ele>919.0</ele><time>2026-04-18T11:43:54Z</time></trkpt><trkpt lat="44.44658203333588" lon="6.407077709332038"><ele>904.0</ele><time>2026-04-18T11:43:55Z</time></trkpt><trkpt lat="44.44669971460888" lon="6.4068813071573665"><ele>889.0</ele><time>2026-04-18T11:43:56Z</time></trkpt><trkpt lat="44.44682653235886" lon="6.406677632232276"><ele>889.0</ele><time>2026-04-18T11:43:57Z</time></trkpt><trkpt lat="44.44696327982086" lon="6.406474347409612"><ele>889.0</ele><time>2026-04-18T11:43:58Z</time></trkpt><trkpt lat="44.44710388179389" lon="6.406270243245863"><ele>889.0</ele><time>2026-04-18T11:43:59Z</time></trkpt><trkpt lat="44.44724520817065" lon="6.406066719986148"><ele>884.3333333333333</ele><time>2026-04-18T11:44:00Z</time></trkpt><trkpt lat="44.44737179719031" lon="6.405882252343697"><ele>879.6666666666667</ele><time>2026-04-18T11:44:01Z</time></trkpt><trkpt lat="44.447483661195406" lon="6.405679472699714"><ele>875.0</ele><time>2026-04-18T11:44:02Z</time></trkpt><trkpt lat="44.44759599993146" lon="6.405504189641644"><ele>877.5</ele><time>2026-04-18T11:44:03Z</time></trkpt><trkpt lat="44.447694470213264" lon="6.405329550839063"><ele>880.0</ele><time>2026-04-18T11:44:04Z</time></trkpt><trkpt lat="44.44774827027182" lon="6.405140815022437"><ele>882.5</ele><time>2026-04-18T11:44:05Z</time></trkpt><trkpt lat="44.447770988894014" lon="6.404941192717025"><ele>885.0</ele><time>2026-04-18T11:44:06Z</time></trkpt><trkpt lat="44.44779294252758" lon="6.404716820352892"><ele>886.0</ele><time>2026-04-18T11:44:07Z</time></trkpt><trkpt lat="44.4478112698759" lon="6.404447127438828"><ele>887.0</ele><time>2026-04-18T11:44:08Z</time></trkpt><trkpt lat="44.44780028237451" lon="6.404159700596263"><ele>888.0</ele><time>2026-04-18T11:44:09Z</time></trkpt><trkpt lat="44.44782597485294" lon="6.403910326920275"><ele>891.0</ele><time>2026-04-18T11:44:10Z</time></trkpt><trkpt lat="44.447871651431875" lon="6.403682324356944"><ele>894.0</ele><time>2026-04-18T11:44:11Z</time></trkpt><trkpt lat="44.44791453266733" lon="6.403458134022741"><ele>897.0</ele><time>2026-04-18T11:44:12Z</time></trkpt><trkpt lat="44.44800075513019" lon="6.403277172355746"><ele>890.0</ele><time>2026-04-18T11:44:13Z</time></trkpt><trkpt lat="44.4480939088007" lon="6.403107336578898"><ele>883.0</ele><time>2026-04-18T11:44:14Z</time></trkpt><trkpt lat="44.448213904625725" lon="6.40295877826206"><ele>876.0</ele><time>2026-04-18T11:44:15Z</time></trkpt><trkpt lat="44.4483478456434" lon="6.40281629615537"><ele>876.0</ele><time>2026-04-18T11:44:16Z</time></trkpt><trkpt lat="44.448495665375624" lon="6.402658754005686"><ele>876.0</ele><time>2026-04-18T11:44:17Z</time></trkpt><trkpt lat="44.44862620911483" lon="6.402489929946958"><ele>876.0</ele><time>2026-04-18T11:44:18Z</time></trkpt><trkpt lat="44.44875026374865" lon="6.402348075627686"><ele>869.25</ele><time>2026-04-18T11:44:19Z</time></trkpt><trkpt lat="44.448867567853746" lon="6.402219425272218"><ele>862.5</ele><time>2026-04-18T11:44:20Z</time></trkpt><trkpt lat="44.448954812579494" lon="6.402052592225791"><ele>855.75</ele><time>2026-04-18T11:44:21Z</time></trkpt><trkpt lat="44.44897880197362" lon="6.401863743472805"><ele>849.0</ele><time>2026-04-18T11:44:22Z</time></trkpt><trkpt lat="44.44899607444435" lon="6.401640617776503"><ele>849.0</ele><time>2026-04-18T11:44:23Z</time></trkpt><trkpt lat="44.44897128919556" lon="6.401422532659299"><ele>849.0</ele><time>2026-04-18T11:44:24Z</time></trkpt><trkpt lat="44.44892416136473" lon="6.40114195219597"><ele>849.0</ele><time>2026-04-18T11:44:25Z</time></trkpt><trkpt lat="44.44889631828709" lon="6.400884653008807"><ele>847.6666666666667</ele><time>2026-04-18T11:44:26Z</time></trkpt><trkpt lat="44.44888501225283" lon="6.4006333822577615"><ele>846.3333333333334</ele><time>2026-04-18T11:44:27Z</time></trkpt><trkpt lat="44.448864458277306" lon="6.400395439552366"><ele>845.0</ele><time>2026-04-18T11:44:28Z</time></trkpt><trkpt lat="44.448823139049985" lon="6.400159345280934"><ele>854.6666666666667</ele><time>2026-04-18T11:44:29Z</time></trkpt><trkpt lat="44.44876976496323" lon="6.399933163981809"><ele>864.3333333333333</ele><time>2026-04-18T11:44:30Z</time></trkpt><trkpt lat="44.44872482838356" lon="6.399742201191013"><ele>874.0</ele><time>2026-04-18T11:44:31Z</time></trkpt><trkpt lat="44.44866635369431" lon="6.3995503695225455"><ele>874.0</ele><time>2026-04-18T11:44:32Z</time></trkpt><trkpt lat="44.44860271202761" lon="6.399359690516213"><ele>874.0</ele><time>2026-04-18T11:44:33Z</time></trkpt><trkpt lat="44.44853934300413" lon="6.399172026945692"><ele>874.0</ele><time>2026-04-18T11:44:34Z</time></trkpt><trkpt lat="44.44847689751815" lon="6.398977484244758"><ele>871.0</ele><time>2026-04-18T11:44:35Z</time></trkpt><trkpt lat="44.44841898242546" lon="6.398790840306098"><ele>868.0</ele><time>2026-04-18T11:44:36Z</time></trkpt><trkpt lat="44.448369765331556" lon="6.398591693607928"><ele>865.0</ele><time>2026-04-18T11:44:37Z</time></trkpt><trkpt lat="44.44837344629185" lon="6.398381651766809"><ele>862.0</ele><time>2026-04-18T11:44:38Z</time></trkpt><trkpt lat="44.44838214957167" lon="6.398141511350672"><ele>863.0</ele><time>2026-04-18T11:44:39Z</time></trkpt><trkpt lat="44.44839648773902" lon="6.397895878401571"><ele>864.0</ele><time>2026-04-18T11:44:40Z</time></trkpt><trkpt lat="44.448437633907" lon="6.397674274824022"><ele>865.0</ele><time>2026-04-18T11:44:41Z</time></trkpt><trkpt lat="44.44845949048498" lon="6.397484637992089"><ele>865.0</ele><time>2026-04-18T11:44:42Z</time></trkpt><trkpt lat="44.44855615458486" lon="6.397300593640974"><ele>865.0</ele><time>2026-04-18T11:44:43Z</time></trkpt><trkpt lat="44.44865958015529" lon="6.397092444494962"><ele>865.0</ele><time>2026-04-18T11:44:44Z</time></trkpt><trkpt lat="44.44877570108301" lon="6.396886413762806"><ele>858.6666666666666</ele><time>2026-04-18T11:44:45Z</time></trkpt><trkpt lat="44.44890544115796" lon="6.396688147916997"><ele>852.3333333333333</ele><time>2026-04-18T11:44:46Z</time></trkpt><trkpt lat="44.44902827646716" lon="6.3964550026796285"><ele>846.0</ele><time>2026-04-18T11:44:47Z</time></trkpt><trkpt lat="44.449116275303275" lon="6.39623724830165"><ele>846.0</ele><time>2026-04-18T11:44:48Z</time></trkpt><trkpt lat="44.44918002340017" lon="6.3960196832035185"><ele>846.0</ele><time>2026-04-18T11:44:49Z</time></trkpt><trkpt lat="44.44924499238543" lon="6.39578230669047"><ele>846.0</ele><time>2026-04-18T11:44:50Z</time></trkpt><trkpt lat="44.44926758103325" lon="6.395559759807132"><ele>847.6666666666667</ele><time>2026-04-18T11:44:51Z</time></trkpt><trkpt lat="44.449337550108176" lon="6.39534446589217"><ele>849.3333333333334</ele><time>2026-04-18T11:44:52Z</time></trkpt><trkpt lat="44.44938843109371" lon="6.3951341670351365"><ele>851.0</ele><time>2026-04-18T11:44:53Z</time></trkpt><trkpt lat="44.44943044033249" lon="6.394961661562373"><ele>851.0</ele><time>2026-04-18T11:44:54Z</time></trkpt><trkpt lat="44.449456323265245" lon="6.394826786627684"><ele>851.0</ele><time>2026-04-18T11:44:55Z</time></trkpt><trkpt lat="44.44942895165137" lon="6.394685234891153"><ele>851.0</ele><time>2026-04-18T11:44:56Z</time></trkpt><trkpt lat="44.449385430690945" lon="6.394537776938371"><ele>851.0</ele><time>2026-04-18T11:44:57Z</time></trkpt><trkpt lat="44.44931593461319" lon="6.394337688348923"><ele>850.25</ele><time>2026-04-18T11:44:57.999Z</time></trkpt><trkpt lat="44.44928000034965" lon="6.394139110596848"><ele>849.5</ele><time>2026-04-18T11:44:58.999Z</time></trkpt><trkpt lat="44.44928608714979" lon="6.39395573576122"><ele>848.75</ele><time>2026-04-18T11:44:59.999Z</time></trkpt><trkpt lat="44.44930536154062" lon="6.393764595257656"><ele>848.0</ele><time>2026-04-18T11:45:00.999Z</time></trkpt><trkpt lat="44.449343996760156" lon="6.393588976483702"><ele>848.0</ele><time>2026-04-18T11:45:01.999Z</time></trkpt><trkpt lat="44.44943366093794" lon="6.39344267300217"><ele>848.0</ele><time>2026-04-18T11:45:02.999Z</time></trkpt><trkpt lat="44.44953830392426" lon="6.393367211144012"><ele>848.0</ele><time>2026-04-18T11:45:03.999Z</time></trkpt><trkpt lat="44.449634280532045" lon="6.393295417793995"><ele>848.0</ele><time>2026-04-18T11:45:04.999Z</time></trkpt><trkpt lat="44.44973277099331" lon="6.393251521024317"><ele>842.75</ele><time>2026-04-18T11:45:05.999Z</time></trkpt><trkpt lat="44.44990408710516" lon="6.393211711860646"><ele>837.5</ele><time>2026-04-18T11:45:06.999Z</time></trkpt><trkpt lat="44.450024362743065" lon="6.393147824267478"><ele>832.25</ele><time>2026-04-18T11:45:07.999Z</time></trkpt><trkpt lat="44.450117170187035" lon="6.39305674700003"><ele>827.0</ele><time>2026-04-18T11:45:08.999Z</time></trkpt><trkpt lat="44.45018420781889" lon="6.392935453527131"><ele>827.0</ele><time>2026-04-18T11:45:09.999Z</time></trkpt><trkpt lat="44.45024094837531" lon="6.392799025557671"><ele>827.0</ele><time>2026-04-18T11:45:10.999Z</time></trkpt><trkpt lat="44.450210202444005" lon="6.392613748044286"><ele>827.0</ele><time>2026-04-18T11:45:11.999Z</time></trkpt><trkpt lat="44.45019135133951" lon="6.392458765372798"><ele>827.0</ele><time>2026-04-18T11:45:13Z</time></trkpt><trkpt lat="44.450186007567766" lon="6.392287139120367"><ele>827.0</ele><time>2026-04-18T11:45:14Z</time></trkpt><trkpt lat="44.45017607891249" lon="6.392146864335179"><ele>827.0</ele><time>2026-04-18T11:45:15Z</time></trkpt><trkpt lat="44.45023675220288" lon="6.392028693405801"><ele>827.0</ele><time>2026-04-18T11:45:16Z</time></trkpt><trkpt lat="44.45033117150221" lon="6.391906709651026"><ele>827.0</ele><time>2026-04-18T11:45:17Z</time></trkpt><trkpt lat="44.450425774341035" lon="6.3918277466281355"><ele>827.0</ele><time>2026-04-18T11:45:18Z</time></trkpt><trkpt lat="44.450555059565446" lon="6.391750741169636"><ele>824.6666666666667</ele><time>2026-04-18T11:45:19Z</time></trkpt><trkpt lat="44.45070233145263" lon="6.391705077857125"><ele>822.3333333333333</ele><time>2026-04-18T11:45:20Z</time></trkpt><trkpt lat="44.450863321768686" lon="6.391637343787225"><ele>820.0</ele><time>2026-04-18T11:45:21Z</time></trkpt><trkpt lat="44.45102332111387" lon="6.391559685445733"><ele>820.0</ele><time>2026-04-18T11:45:22Z</time></trkpt><trkpt lat="44.451170382060894" lon="6.391471938646125"><ele>820.0</ele><time>2026-04-18T11:45:23Z</time></trkpt><trkpt lat="44.45132093841756" lon="6.391341979470142"><ele>820.0</ele><time>2026-04-18T11:45:24Z</time></trkpt><trkpt lat="44.45147243467431" lon="6.391177988125365"><ele>819.6666666666666</ele><time>2026-04-18T11:45:25Z</time></trkpt><trkpt lat="44.45161238732242" lon="6.391017098122631"><ele>819.3333333333333</ele><time>2026-04-18T11:45:26Z</time></trkpt><trkpt lat="44.4517627037947" lon="6.390863893410974"><ele>819.0</ele><time>2026-04-18T11:45:27Z</time></trkpt><trkpt lat="44.4518965991987" lon="6.390711655953692"><ele>819.0</ele><time>2026-04-18T11:45:28Z</time></trkpt><trkpt lat="44.45201353634225" lon="6.3905543143294885"><ele>819.0</ele><time>2026-04-18T11:45:29Z</time></trkpt><trkpt lat="44.45212166914024" lon="6.390397493194938"><ele>819.0</ele><time>2026-04-18T11:45:30Z</time></trkpt><trkpt lat="44.45222905706963" lon="6.390273840710719"><ele>814.0</ele><time>2026-04-18T11:45:31Z</time></trkpt><trkpt lat="44.45232956948531" lon="6.390085584182198"><ele>809.0</ele><time>2026-04-18T11:45:32Z</time></trkpt><trkpt lat="44.452341980686036" lon="6.389920564141702"><ele>804.0</ele><time>2026-04-18T11:45:33Z</time></trkpt><trkpt lat="44.45241436466013" lon="6.389783658427742"><ele>799.0</ele><time>2026-04-18T11:45:34Z</time></trkpt><trkpt lat="44.45245510265721" lon="6.389636940731784"><ele>798.5</ele><time>2026-04-18T11:45:35Z</time></trkpt><trkpt lat="44.4524759801917" lon="6.3894993122611945"><ele>798.0</ele><time>2026-04-18T11:45:36Z</time></trkpt><trkpt lat="44.452412220645655" lon="6.389341477957511"><ele>797.5</ele><time>2026-04-18T11:45:37Z</time></trkpt><trkpt lat="44.452329793344504" lon="6.389111682362271"><ele>797.0</ele><time>2026-04-18T11:45:38Z</time></trkpt><trkpt lat="44.452264677043196" lon="6.388905140784696"><ele>795.0</ele><time>2026-04-18T11:45:39Z</time></trkpt><trkpt lat="44.45220790304975" lon="6.388683750356931"><ele>793.0</ele><time>2026-04-18T11:45:40Z</time></trkpt><trkpt lat="44.45212928517229" lon="6.388484863658141"><ele>791.0</ele><time>2026-04-18T11:45:41Z</time></trkpt><trkpt lat="44.452092718262776" lon="6.388283205122619"><ele>789.6666666666667</ele><time>2026-04-18T11:45:42Z</time></trkpt><trkpt lat="44.45209925673072" lon="6.388072447551412"><ele>788.3333333333333</ele><time>2026-04-18T11:45:43Z</time></trkpt><trkpt lat="44.45213236340708" lon="6.387838113936367"><ele>787.0</ele><time>2026-04-18T11:45:44Z</time></trkpt><trkpt lat="44.452148837417504" lon="6.387592828841791"><ele>787.0</ele><time>2026-04-18T11:45:45Z</time></trkpt><trkpt lat="44.45217002223494" lon="6.3873713048613885"><ele>787.0</ele><time>2026-04-18T11:45:46Z</time></trkpt><trkpt lat="44.45223239733538" lon="6.387183921505432"><ele>787.0</ele><time>2026-04-18T11:45:47Z</time></trkpt><trkpt lat="44.45228806751199" lon="6.3869976020468116"><ele>787.75</ele><time>2026-04-18T11:45:48Z</time></trkpt><trkpt lat="44.45234208878904" lon="6.386821766593042"><ele>788.5</ele><time>2026-04-18T11:45:49Z</time></trkpt><trkpt lat="44.45239113010967" lon="6.386673619862249"><ele>789.25</ele><time>2026-04-18T11:45:50Z</time></trkpt><trkpt lat="44.45244620791556" lon="6.386551006505335"><ele>790.0</ele><time>2026-04-18T11:45:51Z</time></trkpt><trkpt lat="44.45256064212421" lon="6.386437148826969"><ele>790.0</ele><time>2026-04-18T11:45:53Z</time></trkpt><trkpt lat="44.452663440725914" lon="6.386413142240885"><ele>790.0</ele><time>2026-04-18T11:45:54Z</time></trkpt><trkpt lat="44.452754904530224" lon="6.386409185297691"><ele>790.0</ele><time>2026-04-18T11:45:55Z</time></trkpt><trkpt lat="44.45285571410692" lon="6.386453549826626"><ele>790.0</ele><time>2026-04-18T11:45:56Z</time></trkpt><trkpt lat="44.45297275923496" lon="6.386484538145272"><ele>790.0</ele><time>2026-04-18T11:45:57Z</time></trkpt><trkpt lat="44.45308554381862" lon="6.386514398443648"><ele>786.5</ele><time>2026-04-18T11:45:58Z</time></trkpt><trkpt lat="44.45322109436493" lon="6.386550286140821"><ele>783.0</ele><time>2026-04-18T11:45:59Z</time></trkpt><trkpt lat="44.45334833437714" lon="6.386584591539411"><ele>779.5</ele><time>2026-04-18T11:46:00Z</time></trkpt><trkpt lat="44.453479918787124" lon="6.386620782857419"><ele>776.0</ele><time>2026-04-18T11:46:01Z</time></trkpt><trkpt lat="44.453634784464924" lon="6.38664099060607"><ele>776.0</ele><time>2026-04-18T11:46:02Z</time></trkpt><trkpt lat="44.45378562735938" lon="6.386703473750152"><ele>776.0</ele><time>2026-04-18T11:46:03Z</time></trkpt><trkpt lat="44.45392220051839" lon="6.386737419207076"><ele>776.0</ele><time>2026-04-18T11:46:04Z</time></trkpt><trkpt lat="44.45405972692501" lon="6.386768126991761"><ele>776.0</ele><time>2026-04-18T11:46:05Z</time></trkpt><trkpt lat="44.45421584671474" lon="6.386804844860772"><ele>780.0</ele><time>2026-04-18T11:46:06Z</time></trkpt><trkpt lat="44.45436694135464" lon="6.386849701626481"><ele>784.0</ele><time>2026-04-18T11:46:07Z</time></trkpt><trkpt lat="44.45451693158264" lon="6.38689532899169"><ele>788.0</ele><time>2026-04-18T11:46:08Z</time></trkpt><trkpt lat="44.454671858010606" lon="6.38694128823779"><ele>790.6666666666667</ele><time>2026-04-18T11:46:09Z</time></trkpt><trkpt lat="44.45483118432004" lon="6.386964379592591"><ele>793.3333333333333</ele><time>2026-04-18T11:46:10Z</time></trkpt><trkpt lat="44.45498979379343" lon="6.386957248956242"><ele>796.0</ele><time>2026-04-18T11:46:11Z</time></trkpt><trkpt lat="44.45512662815374" lon="6.386950269387109"><ele>796.0</ele><time>2026-04-18T11:46:12Z</time></trkpt><trkpt lat="44.45525290203153" lon="6.386917667418842"><ele>796.0</ele><time>2026-04-18T11:46:13Z</time></trkpt><trkpt lat="44.45539148776479" lon="6.3868636175382765"><ele>796.0</ele><time>2026-04-18T11:46:14Z</time></trkpt><trkpt lat="44.455513558047095" lon="6.386770712161808"><ele>796.0</ele><time>2026-04-18T11:46:15Z</time></trkpt><trkpt lat="44.4556365973682" lon="6.38667512144858"><ele>794.25</ele><time>2026-04-18T11:46:16Z</time></trkpt><trkpt lat="44.45576025207776" lon="6.386573674942109"><ele>792.5</ele><time>2026-04-18T11:46:17Z</time></trkpt><trkpt lat="44.455894034456456" lon="6.386480997773284"><ele>790.75</ele><time>2026-04-18T11:46:18Z</time></trkpt><trkpt lat="44.45602468453486" lon="6.386381903832062"><ele>789.0</ele><time>2026-04-18T11:46:19Z</time></trkpt><trkpt lat="44.45614869037977" lon="6.386286830922862"><ele>789.0</ele><time>2026-04-18T11:46:20Z</time></trkpt><trkpt lat="44.456263110965224" lon="6.386196636736725"><ele>789.0</ele><time>2026-04-18T11:46:21Z</time></trkpt><trkpt lat="44.45637789047466" lon="6.3860896077955704"><ele>789.0</ele><time>2026-04-18T11:46:22Z</time></trkpt><trkpt lat="44.456481240828836" lon="6.385954504467433"><ele>789.0</ele><time>2026-04-18T11:46:23Z</time></trkpt><trkpt lat="44.456594177115605" lon="6.385819920559108"><ele>790.6666666666667</ele><time>2026-04-18T11:46:24Z</time></trkpt><trkpt lat="44.45669890331485" lon="6.385674420258932"><ele>792.3333333333334</ele><time>2026-04-18T11:46:25Z</time></trkpt><trkpt lat="44.456787780477384" lon="6.385501116911549"><ele>794.0</ele><time>2026-04-18T11:46:26Z</time></trkpt><trkpt lat="44.45687232719681" lon="6.3853225490688414"><ele>794.0</ele><time>2026-04-18T11:46:27Z</time></trkpt><trkpt lat="44.45695212406194" lon="6.385136278886839"><ele>794.0</ele><time>2026-04-18T11:46:28Z</time></trkpt><trkpt lat="44.4570269557501" lon="6.384920972564"><ele>794.0</ele><time>2026-04-18T11:46:29Z</time></trkpt><trkpt lat="44.45708609864792" lon="6.384694778704786"><ele>802.6666666666667</ele><time>2026-04-18T11:46:30Z</time></trkpt><trkpt lat="44.457130763524525" lon="6.384453778810966"><ele>811.3333333333333</ele><time>2026-04-18T11:46:31Z</time></trkpt><trkpt lat="44.457168582580756" lon="6.384216042791527"><ele>820.0</ele><time>2026-04-18T11:46:32Z</time></trkpt><trkpt lat="44.45720138959202" lon="6.383973572532212"><ele>817.3333333333333</ele><time>2026-04-18T11:46:33Z</time></trkpt><trkpt lat="44.457216879542806" lon="6.383725266868388"><ele>814.6666666666667</ele><time>2026-04-18T11:46:34Z</time></trkpt><trkpt lat="44.457236335865815" lon="6.38347169576663"><ele>812.0</ele><time>2026-04-18T11:46:35Z</time></trkpt><trkpt lat="44.45725429275772" lon="6.3831998184665935"><ele>811.0</ele><time>2026-04-18T11:46:36Z</time></trkpt><trkpt lat="44.45727749439804" lon="6.382963170074319"><ele>810.0</ele><time>2026-04-18T11:46:37Z</time></trkpt><trkpt lat="44.45729690202544" lon="6.382709353378869"><ele>809.0</ele><time>2026-04-18T11:46:38Z</time></trkpt><trkpt lat="44.45731176715264" lon="6.38246839122292"><ele>809.0</ele><time>2026-04-18T11:46:39Z</time></trkpt><trkpt lat="44.45732932457326" lon="6.382238058226058"><ele>809.0</ele><time>2026-04-18T11:46:40Z</time></trkpt><trkpt lat="44.457349736547" lon="6.382019325573894"><ele>809.0</ele><time>2026-04-18T11:46:41Z</time></trkpt><trkpt lat="44.45740853844941" lon="6.381801199756284"><ele>807.0</ele><time>2026-04-18T11:46:42Z</time></trkpt><trkpt lat="44.457493288092216" lon="6.381599819225951"><ele>805.0</ele><time>2026-04-18T11:46:43Z</time></trkpt><trkpt lat="44.45759700218909" lon="6.38140454989985"><ele>803.0</ele><time>2026-04-18T11:46:44Z</time></trkpt><trkpt lat="44.45769219380849" lon="6.381187468851309"><ele>802.3333333333334</ele><time>2026-04-18T11:46:45Z</time></trkpt><trkpt lat="44.45779306294598" lon="6.380991601431409"><ele>801.6666666666667</ele><time>2026-04-18T11:46:46Z</time></trkpt><trkpt lat="44.45789189978724" lon="6.380809781457875"><ele>801.0</ele><time>2026-04-18T11:46:47Z</time></trkpt><trkpt lat="44.45798181886767" lon="6.380629711604548"><ele>815.0</ele><time>2026-04-18T11:46:48Z</time></trkpt><trkpt lat="44.45807105232502" lon="6.380454490364067"><ele>829.0</ele><time>2026-04-18T11:46:49Z</time></trkpt><trkpt lat="44.45816289357367" lon="6.38028060789244"><ele>843.0</ele><time>2026-04-18T11:46:50.017Z</time></trkpt><trkpt lat="44.45825016104824" lon="6.380106869475794"><ele>843.0</ele><time>2026-04-18T11:46:51.02Z</time></trkpt><trkpt lat="44.45831695051318" lon="6.379928126475221"><ele>843.0</ele><time>2026-04-18T11:46:52.015Z</time></trkpt><trkpt lat="44.458399484480154" lon="6.379758905863255"><ele>843.0</ele><time>2026-04-18T11:46:53.014Z</time></trkpt><trkpt lat="44.4588077115309" lon="6.3789204228728815"><ele>833.3333333333333</ele><time>2026-04-18T11:47:00Z</time></trkpt><trkpt lat="44.45888190752292" lon="6.378763301381056"><ele>823.6666666666666</ele><time>2026-04-18T11:47:01Z</time></trkpt><trkpt lat="44.45898241810811" lon="6.378540429821876"><ele>814.0</ele><time>2026-04-18T11:47:02Z</time></trkpt><trkpt lat="44.459063055415946" lon="6.37836957418396"><ele>814.0</ele><time>2026-04-18T11:47:03Z</time></trkpt><trkpt lat="44.45915673773381" lon="6.378173111999621"><ele>814.0</ele><time>2026-04-18T11:47:04Z</time></trkpt><trkpt lat="44.459278409303145" lon="6.377951254080417"><ele>814.0</ele><time>2026-04-18T11:47:05Z</time></trkpt><trkpt lat="44.45935640942283" lon="6.377764149800709"><ele>810.6666666666666</ele><time>2026-04-18T11:47:06Z</time></trkpt><trkpt lat="44.459454787694874" lon="6.377556819235795"><ele>807.3333333333333</ele><time>2026-04-18T11:47:07Z</time></trkpt><trkpt lat="44.459543587424015" lon="6.3773639501377195"><ele>804.0</ele><time>2026-04-18T11:47:08Z</time></trkpt><trkpt lat="44.459620401999686" lon="6.377167560760737"><ele>804.0</ele><time>2026-04-18T11:47:09Z</time></trkpt><trkpt lat="44.45968411564194" lon="6.3769583555900535"><ele>804.0</ele><time>2026-04-18T11:47:10Z</time></trkpt><trkpt lat="44.45972577429441" lon="6.376738285671624"><ele>804.0</ele><time>2026-04-18T11:47:11Z</time></trkpt><trkpt lat="44.459752120194594" lon="6.376521982797186"><ele>799.3333333333333</ele><time>2026-04-18T11:47:12Z</time></trkpt><trkpt lat="44.45977615501004" lon="6.3762815493938545"><ele>794.6666666666666</ele><time>2026-04-18T11:47:13Z</time></trkpt><trkpt lat="44.459787528730686" lon="6.376048666256255"><ele>790.0</ele><time>2026-04-18T11:47:14Z</time></trkpt><trkpt lat="44.4598188350479" lon="6.375834483595331"><ele>790.0</ele><time>2026-04-18T11:47:15Z</time></trkpt><trkpt lat="44.45988364242434" lon="6.375619962925539"><ele>790.0</ele><time>2026-04-18T11:47:16Z</time></trkpt><trkpt lat="44.45993728811444" lon="6.375414286022958"><ele>790.0</ele><time>2026-04-18T11:47:17Z</time></trkpt><trkpt lat="44.45999567745025" lon="6.375221317353644"><ele>788.3333333333333</ele><time>2026-04-18T11:47:18Z</time></trkpt><trkpt lat="44.46005980064914" lon="6.3750302593267785"><ele>786.6666666666667</ele><time>2026-04-18T11:47:19Z</time></trkpt><trkpt lat="44.46011547745764" lon="6.374836272453157"><ele>785.0</ele><time>2026-04-18T11:47:20Z</time></trkpt><trkpt lat="44.46017710416814" lon="6.374644525358399"><ele>784.0</ele><time>2026-04-18T11:47:21Z</time></trkpt><trkpt lat="44.46024675428215" lon="6.374450731230727"><ele>783.0</ele><time>2026-04-18T11:47:22Z</time></trkpt><trkpt lat="44.46033194300312" lon="6.374269993099051"><ele>782.0</ele><time>2026-04-18T11:47:23Z</time></trkpt><trkpt lat="44.460425502052026" lon="6.374095059345979"><ele>783.3333333333334</ele><time>2026-04-18T11:47:24Z</time></trkpt><trkpt lat="44.46054123899313" lon="6.373924071536311"><ele>784.6666666666667</ele><time>2026-04-18T11:47:25Z</time></trkpt><trkpt lat="44.46065640358895" lon="6.3737430811414555"><ele>786.0</ele><time>2026-04-18T11:47:26Z</time></trkpt><trkpt lat="44.460776658528275" lon="6.373569843777232"><ele>786.0</ele><time>2026-04-18T11:47:27Z</time></trkpt><trkpt lat="44.460891860984994" lon="6.373388813113688"><ele>786.0</ele><time>2026-04-18T11:47:28Z</time></trkpt><trkpt lat="44.4610119264688" lon="6.373211207566626"><ele>786.0</ele><time>2026-04-18T11:47:29Z</time></trkpt><trkpt lat="44.461127692320396" lon="6.373035608493838"><ele>783.3333333333333</ele><time>2026-04-18T11:47:30Z</time></trkpt><trkpt lat="44.461230539625355" lon="6.372851849743712"><ele>780.6666666666666</ele><time>2026-04-18T11:47:31Z</time></trkpt><trkpt lat="44.46134216254918" lon="6.372664915096186"><ele>778.0</ele><time>2026-04-18T11:47:32Z</time></trkpt><trkpt lat="44.46144926798298" lon="6.372488568687691"><ele>783.3333333333333</ele><time>2026-04-18T11:47:33Z</time></trkpt><trkpt lat="44.46155089706501" lon="6.372317053946332"><ele>788.6666666666667</ele><time>2026-04-18T11:47:34Z</time></trkpt><trkpt lat="44.4616389606533" lon="6.372143307705487"><ele>794.0</ele><time>2026-04-18T11:47:35Z</time></trkpt><trkpt lat="44.461716834777285" lon="6.371957016031129"><ele>794.0</ele><time>2026-04-18T11:47:36Z</time></trkpt><trkpt lat="44.46176372463775" lon="6.371716177918641"><ele>794.0</ele><time>2026-04-18T11:47:37Z</time></trkpt><trkpt lat="44.46180259227315" lon="6.371469056655564"><ele>794.0</ele><time>2026-04-18T11:47:38Z</time></trkpt><trkpt lat="44.46182215858022" lon="6.371240763716521"><ele>791.6666666666667</ele><time>2026-04-18T11:47:39Z</time></trkpt><trkpt lat="44.46184240452443" lon="6.371018752575375"><ele>789.3333333333333</ele><time>2026-04-18T11:47:40Z</time></trkpt><trkpt lat="44.46186186764488" lon="6.3707993939162035"><ele>787.0</ele><time>2026-04-18T11:47:41Z</time></trkpt><trkpt lat="44.46189321423718" lon="6.370600518434093"><ele>785.0</ele><time>2026-04-18T11:47:42Z</time></trkpt><trkpt lat="44.4619243738545" lon="6.370409423572513"><ele>783.0</ele><time>2026-04-18T11:47:43Z</time></trkpt><trkpt lat="44.46197226117893" lon="6.370241428790823"><ele>781.0</ele><time>2026-04-18T11:47:44Z</time></trkpt><trkpt lat="44.4620526494102" lon="6.3700804731954745"><ele>779.0</ele><time>2026-04-18T11:47:45Z</time></trkpt><trkpt lat="44.46214083248722" lon="6.369914766161042"><ele>782.0</ele><time>2026-04-18T11:47:46Z</time></trkpt><trkpt lat="44.4622538184521" lon="6.369777552488522"><ele>785.0</ele><time>2026-04-18T11:47:47Z</time></trkpt><trkpt lat="44.46236229215276" lon="6.3696069305780165"><ele>788.0</ele><time>2026-04-18T11:47:48Z</time></trkpt><trkpt lat="44.46248198549415" lon="6.3694472491779655"><ele>788.0</ele><time>2026-04-18T11:47:49Z</time></trkpt><trkpt lat="44.46260803578071" lon="6.369277938354674"><ele>788.0</ele><time>2026-04-18T11:47:50Z</time></trkpt><trkpt lat="44.46273446469218" lon="6.369103372410344"><ele>788.0</ele><time>2026-04-18T11:47:51Z</time></trkpt><trkpt lat="44.46284807013809" lon="6.368932888996173"><ele>789.3333333333334</ele><time>2026-04-18T11:47:52Z</time></trkpt><trkpt lat="44.46296514306112" lon="6.368747666417257"><ele>790.6666666666667</ele><time>2026-04-18T11:47:53Z</time></trkpt><trkpt lat="44.46309156666434" lon="6.368574368449496"><ele>792.0</ele><time>2026-04-18T11:47:54Z</time></trkpt><trkpt lat="44.46321651699632" lon="6.368400247088777"><ele>792.0</ele><time>2026-04-18T11:47:55Z</time></trkpt><trkpt lat="44.46334315289953" lon="6.368231007153509"><ele>792.0</ele><time>2026-04-18T11:47:56Z</time></trkpt><trkpt lat="44.463463545613386" lon="6.368068938380201"><ele>792.0</ele><time>2026-04-18T11:47:57Z</time></trkpt><trkpt lat="44.46357521207501" lon="6.367909214242212"><ele>794.0</ele><time>2026-04-18T11:47:58Z</time></trkpt><trkpt lat="44.46368057012496" lon="6.367754710910279"><ele>796.0</ele><time>2026-04-18T11:47:59Z</time></trkpt><trkpt lat="44.463782912406934" lon="6.367606009257514"><ele>798.0</ele><time>2026-04-18T11:48:00Z</time></trkpt><trkpt lat="44.46387059742361" lon="6.367449520759784"><ele>800.0</ele><time>2026-04-18T11:48:01Z</time></trkpt><trkpt lat="44.46393694017768" lon="6.36728711840339"><ele>802.5</ele><time>2026-04-18T11:48:02Z</time></trkpt><trkpt lat="44.46398321214792" lon="6.367105595832967"><ele>805.0</ele><time>2026-04-18T11:48:03Z</time></trkpt><trkpt lat="44.464009567938284" lon="6.366919057099519"><ele>807.5</ele><time>2026-04-18T11:48:04Z</time></trkpt><trkpt lat="44.4639979175" lon="6.366730747961329"><ele>810.0</ele><time>2026-04-18T11:48:05Z</time></trkpt><trkpt lat="44.463947051199774" lon="6.366528933921332"><ele>814.0</ele><time>2026-04-18T11:48:06Z</time></trkpt><trkpt lat="44.463860709798155" lon="6.366351320194008"><ele>818.0</ele><time>2026-04-18T11:48:07Z</time></trkpt><trkpt lat="44.463782722394356" lon="6.3661973155931895"><ele>822.0</ele><time>2026-04-18T11:48:08Z</time></trkpt><trkpt lat="44.46368450698456" lon="6.366022356150882"><ele>826.0</ele><time>2026-04-18T11:48:09Z</time></trkpt><trkpt lat="44.46358879639769" lon="6.365846511299871"><ele>819.3333333333333</ele><time>2026-04-18T11:48:10Z</time></trkpt><trkpt lat="44.46345549925169" lon="6.3656539174911515"><ele>812.6666666666667</ele><time>2026-04-18T11:48:11Z</time></trkpt><trkpt lat="44.46334332281378" lon="6.365484492634213"><ele>806.0</ele><time>2026-04-18T11:48:12Z</time></trkpt><trkpt lat="44.46326077513828" lon="6.3653187946254315"><ele>806.0</ele><time>2026-04-18T11:48:13Z</time></trkpt><trkpt lat="44.463190160703824" lon="6.365123412180558"><ele>806.0</ele><time>2026-04-18T11:48:14Z</time></trkpt><trkpt lat="44.463135483309046" lon="6.364930346841435"><ele>806.0</ele><time>2026-04-18T11:48:15Z</time></trkpt><trkpt lat="44.46307929323029" lon="6.364715028548224"><ele>812.0</ele><time>2026-04-18T11:48:16Z</time></trkpt><trkpt lat="44.46305730957364" lon="6.3644799026331045"><ele>818.0</ele><time>2026-04-18T11:48:17Z</time></trkpt><trkpt lat="44.46301274224511" lon="6.364250584690362"><ele>824.0</ele><time>2026-04-18T11:48:18Z</time></trkpt><trkpt lat="44.46298030813159" lon="6.364017328942841"><ele>822.75</ele><time>2026-04-18T11:48:19Z</time></trkpt><trkpt lat="44.462948247730395" lon="6.363785161529586"><ele>821.5</ele><time>2026-04-18T11:48:20Z</time></trkpt><trkpt lat="44.46293455357333" lon="6.363575259345965"><ele>820.25</ele><time>2026-04-18T11:48:21Z</time></trkpt><trkpt lat="44.46291232245114" lon="6.363403973281346"><ele>819.0</ele><time>2026-04-18T11:48:22Z</time></trkpt><trkpt lat="44.46289350505016" lon="6.363250863536808"><ele>813.25</ele><time>2026-04-18T11:48:23Z</time></trkpt><trkpt lat="44.46288110468796" lon="6.363100243768732"><ele>807.5</ele><time>2026-04-18T11:48:24Z</time></trkpt><trkpt lat="44.462902641394166" lon="6.3629490566536475"><ele>801.75</ele><time>2026-04-18T11:48:25Z</time></trkpt><trkpt lat="44.4629368972851" lon="6.3628040923119205"><ele>796.0</ele><time>2026-04-18T11:48:26Z</time></trkpt><trkpt lat="44.46301525495231" lon="6.362667228306432"><ele>796.0</ele><time>2026-04-18T11:48:27.001Z</time></trkpt><trkpt lat="44.463103281322425" lon="6.362554681939384"><ele>796.0</ele><time>2026-04-18T11:48:28.001Z</time></trkpt><trkpt lat="44.4631856927677" lon="6.362440181583304"><ele>796.0</ele><time>2026-04-18T11:48:29.001Z</time></trkpt><trkpt lat="44.463292859681516" lon="6.3623450383222035"><ele>796.0</ele><time>2026-04-18T11:48:30.001Z</time></trkpt><trkpt lat="44.46342598086076" lon="6.362276539808115"><ele>794.3333333333333</ele><time>2026-04-18T11:48:31.001Z</time></trkpt><trkpt lat="44.46357701388567" lon="6.362197549326115"><ele>792.6666666666667</ele><time>2026-04-18T11:48:32.001Z</time></trkpt><trkpt lat="44.46372940720712" lon="6.3621175397937835"><ele>791.0</ele><time>2026-04-18T11:48:33.001Z</time></trkpt><trkpt lat="44.46388615627083" lon="6.362030019714401"><ele>791.0</ele><time>2026-04-18T11:48:34.001Z</time></trkpt><trkpt lat="44.46404417906056" lon="6.361939490816699"><ele>791.0</ele><time>2026-04-18T11:48:35.001Z</time></trkpt><trkpt lat="44.464211242617424" lon="6.361863277830944"><ele>791.0</ele><time>2026-04-18T11:48:36.001Z</time></trkpt><trkpt lat="44.46436887706845" lon="6.36178148923123"><ele>791.0</ele><time>2026-04-18T11:48:37.001Z</time></trkpt><trkpt lat="44.46452610299219" lon="6.361703583242481"><ele>791.0</ele><time>2026-04-18T11:48:38.001Z</time></trkpt><trkpt lat="44.464678334568674" lon="6.361606410818883"><ele>791.0</ele><time>2026-04-18T11:48:39.001Z</time></trkpt><trkpt lat="44.46485195075549" lon="6.361524309457316"><ele>790.5</ele><time>2026-04-18T11:48:40.001Z</time></trkpt><trkpt lat="44.46495430698316" lon="6.361445542180491"><ele>790.0</ele><time>2026-04-18T11:48:41.001Z</time></trkpt><trkpt lat="44.46506435682816" lon="6.361362734763355"><ele>789.5</ele><time>2026-04-18T11:48:42.001Z</time></trkpt><trkpt lat="44.465148632681654" lon="6.3612305093464805"><ele>789.0</ele><time>2026-04-18T11:48:43.001Z</time></trkpt><trkpt lat="44.46523420542616" lon="6.361100195984898"><ele>789.0</ele><time>2026-04-18T11:48:44.001Z</time></trkpt><trkpt lat="44.46530648588284" lon="6.360923764839892"><ele>789.0</ele><time>2026-04-18T11:48:45.001Z</time></trkpt><trkpt lat="44.46534529947562" lon="6.3607364121514705"><ele>789.0</ele><time>2026-04-18T11:48:46.001Z</time></trkpt><trkpt lat="44.46534803519063" lon="6.360554973224061"><ele>789.0</ele><time>2026-04-18T11:48:47.001Z</time></trkpt><trkpt lat="44.46532554117557" lon="6.3603435557472965"><ele>789.3333333333333</ele><time>2026-04-18T11:48:48.001Z</time></trkpt><trkpt lat="44.46529256044256" lon="6.360133894028256"><ele>789.6666666666666</ele><time>2026-04-18T11:48:49.001Z</time></trkpt><trkpt lat="44.46524957610061" lon="6.359904460112633"><ele>790.0</ele><time>2026-04-18T11:48:50.001Z</time></trkpt><trkpt lat="44.46521925516418" lon="6.359666992599059"><ele>792.3333333333333</ele><time>2026-04-18T11:48:51.001Z</time></trkpt><trkpt lat="44.46519550147235" lon="6.359440957192654"><ele>794.6666666666667</ele><time>2026-04-18T11:48:52.001Z</time></trkpt><trkpt lat="44.46515586856009" lon="6.359209241049795"><ele>797.0</ele><time>2026-04-18T11:48:53.001Z</time></trkpt><trkpt lat="44.46511455762203" lon="6.3589977211202635"><ele>798.3333333333334</ele><time>2026-04-18T11:48:54.001Z</time></trkpt><trkpt lat="44.465074605642485" lon="6.358779444573562"><ele>799.6666666666667</ele><time>2026-04-18T11:48:55.001Z</time></trkpt><trkpt lat="44.46504269802748" lon="6.358554265176261"><ele>801.0</ele><time>2026-04-18T11:48:56.001Z</time></trkpt><trkpt lat="44.465018136268114" lon="6.358321981176034"><ele>801.0</ele><time>2026-04-18T11:48:57.001Z</time></trkpt><trkpt lat="44.464983881759046" lon="6.358068289988938"><ele>801.0</ele><time>2026-04-18T11:48:58.001Z</time></trkpt><trkpt lat="44.46495260799212" lon="6.357831889203799"><ele>801.0</ele><time>2026-04-18T11:48:59.001Z</time></trkpt><trkpt lat="44.46493595512192" lon="6.357608542689387"><ele>801.5</ele><time>2026-04-18T11:49:00.001Z</time></trkpt><trkpt lat="44.464941892847776" lon="6.357391630313037"><ele>802.0</ele><time>2026-04-18T11:49:01.001Z</time></trkpt><trkpt lat="44.4649631606951" lon="6.357191732696269"><ele>802.5</ele><time>2026-04-18T11:49:02.001Z</time></trkpt><trkpt lat="44.465002059572406" lon="6.356998156968076"><ele>803.0</ele><time>2026-04-18T11:49:03.001Z</time></trkpt><trkpt lat="44.46505825168073" lon="6.3567550986495505"><ele>803.0</ele><time>2026-04-18T11:49:04.001Z</time></trkpt><trkpt lat="44.465120696218484" lon="6.356484970770545"><ele>803.0</ele><time>2026-04-18T11:49:05.001Z</time></trkpt><trkpt lat="44.465180930776164" lon="6.356223338158164"><ele>803.0</ele><time>2026-04-18T11:49:06.001Z</time></trkpt><trkpt lat="44.465238261509384" lon="6.355970699141763"><ele>799.6666666666667</ele><time>2026-04-18T11:49:07.001Z</time></trkpt><trkpt lat="44.46529866969033" lon="6.35570172437841"><ele>796.3333333333333</ele><time>2026-04-18T11:49:08.001Z</time></trkpt><trkpt lat="44.46534273684752" lon="6.355436224319087"><ele>793.0</ele><time>2026-04-18T11:49:09.001Z</time></trkpt><trkpt lat="44.465413058983216" lon="6.355182299252149"><ele>797.6666666666666</ele><time>2026-04-18T11:49:10.001Z</time></trkpt><trkpt lat="44.46545808313102" lon="6.3549115903309685"><ele>802.3333333333333</ele><time>2026-04-18T11:49:11.001Z</time></trkpt><trkpt lat="44.465517002025" lon="6.354657547918215"><ele>807.0</ele><time>2026-04-18T11:49:12Z</time></trkpt><trkpt lat="44.46557589951233" lon="6.3544243105087626"><ele>807.0</ele><time>2026-04-18T11:49:13Z</time></trkpt><trkpt lat="44.465635334856884" lon="6.354213429242133"><ele>807.0</ele><time>2026-04-18T11:49:14Z</time></trkpt><trkpt lat="44.465692878491446" lon="6.354035795928051"><ele>807.0</ele><time>2026-04-18T11:49:15Z</time></trkpt><trkpt lat="44.46576257217668" lon="6.353873387164787"><ele>807.0</ele><time>2026-04-18T11:49:16Z</time></trkpt><trkpt lat="44.4658408467629" lon="6.353710366614826"><ele>804.75</ele><time>2026-04-18T11:49:17Z</time></trkpt><trkpt lat="44.4659268817504" lon="6.353578833576645"><ele>802.5</ele><time>2026-04-18T11:49:18Z</time></trkpt><trkpt lat="44.46601482014417" lon="6.353464992971514"><ele>800.25</ele><time>2026-04-18T11:49:19Z</time></trkpt><trkpt lat="44.466105248558414" lon="6.3533622057007095"><ele>798.0</ele><time>2026-04-18T11:49:20Z</time></trkpt><trkpt lat="44.46620229104109" lon="6.353269871499479"><ele>796.0</ele><time>2026-04-18T11:49:21Z</time></trkpt><trkpt lat="44.46632017930209" lon="6.353185007779596"><ele>794.0</ele><time>2026-04-18T11:49:22Z</time></trkpt><trkpt lat="44.466444343719154" lon="6.353115491704334"><ele>792.0</ele><time>2026-04-18T11:49:23Z</time></trkpt><trkpt lat="44.46658532859651" lon="6.353049366267457"><ele>790.0</ele><time>2026-04-18T11:49:24Z</time></trkpt><trkpt lat="44.46673778172772" lon="6.3529831138995"><ele>790.0</ele><time>2026-04-18T11:49:25Z</time></trkpt><trkpt lat="44.46688481423701" lon="6.352910739767187"><ele>790.0</ele><time>2026-04-18T11:49:26Z</time></trkpt><trkpt lat="44.46700750700786" lon="6.3528172094322946"><ele>790.0</ele><time>2026-04-18T11:49:27Z</time></trkpt><trkpt lat="44.46710855317108" lon="6.352701541232735"><ele>790.0</ele><time>2026-04-18T11:49:28Z</time></trkpt><trkpt lat="44.46717332987619" lon="6.352547543774769"><ele>794.3333333333333</ele><time>2026-04-18T11:49:29Z</time></trkpt><trkpt lat="44.4672219665813" lon="6.352356805607606"><ele>798.6666666666667</ele><time>2026-04-18T11:49:30Z</time></trkpt><trkpt lat="44.46726476286172" lon="6.3521495557385"><ele>803.0</ele><time>2026-04-18T11:49:31Z</time></trkpt><trkpt lat="44.46727666327689" lon="6.351913073316923"><ele>803.0</ele><time>2026-04-18T11:49:32Z</time></trkpt><trkpt lat="44.467307371146454" lon="6.351636676005173"><ele>803.0</ele><time>2026-04-18T11:49:33Z</time></trkpt><trkpt lat="44.4673614828766" lon="6.351388216471173"><ele>803.0</ele><time>2026-04-18T11:49:34Z</time></trkpt><trkpt lat="44.46741626700875" lon="6.351157828389532"><ele>801.6666666666667</ele><time>2026-04-18T11:49:35Z</time></trkpt><trkpt lat="44.467471138341466" lon="6.350926894549607"><ele>800.3333333333333</ele><time>2026-04-18T11:49:36Z</time></trkpt><trkpt lat="44.46751024316252" lon="6.350719016408345"><ele>799.0</ele><time>2026-04-18T11:49:37Z</time></trkpt><trkpt lat="44.46751021674387" lon="6.350516850152381"><ele>798.25</ele><time>2026-04-18T11:49:38Z</time></trkpt><trkpt lat="44.46751297816896" lon="6.350333267044784"><ele>797.5</ele><time>2026-04-18T11:49:39Z</time></trkpt><trkpt lat="44.467491114629084" lon="6.35015460473159"><ele>796.75</ele><time>2026-04-18T11:49:40Z</time></trkpt><trkpt lat="44.46743577757928" lon="6.349971217920541"><ele>796.0</ele><time>2026-04-18T11:49:41Z</time></trkpt><trkpt lat="44.467363900549614" lon="6.349769906412288"><ele>799.25</ele><time>2026-04-18T11:49:42Z</time></trkpt><trkpt lat="44.46730939121964" lon="6.349582673281503"><ele>802.5</ele><time>2026-04-18T11:49:43Z</time></trkpt><trkpt lat="44.467233585673846" lon="6.349416145675111"><ele>805.75</ele><time>2026-04-18T11:49:44Z</time></trkpt><trkpt lat="44.46720534738696" lon="6.349267401020358"><ele>809.0</ele><time>2026-04-18T11:49:45Z</time></trkpt><trkpt lat="44.46721929592936" lon="6.349112005853515"><ele>809.0</ele><time>2026-04-18T11:49:46Z</time></trkpt><trkpt lat="44.46726675278974" lon="6.3489409986650385"><ele>809.0</ele><time>2026-04-18T11:49:47Z</time></trkpt><trkpt lat="44.467331729122705" lon="6.348768171981575"><ele>809.0</ele><time>2026-04-18T11:49:48Z</time></trkpt><trkpt lat="44.4674295553236" lon="6.348592248578786"><ele>809.0</ele><time>2026-04-18T11:49:49Z</time></trkpt><trkpt lat="44.46750711973246" lon="6.348389310051366"><ele>806.0</ele><time>2026-04-18T11:49:50Z</time></trkpt><trkpt lat="44.467580653502075" lon="6.348190781938604"><ele>803.0</ele><time>2026-04-18T11:49:51Z</time></trkpt><trkpt lat="44.46762853466863" lon="6.347968365163545"><ele>800.0</ele><time>2026-04-18T11:49:52Z</time></trkpt><trkpt lat="44.46768180880345" lon="6.34774661572265"><ele>797.3333333333334</ele><time>2026-04-18T11:49:53Z</time></trkpt><trkpt lat="44.46769819423529" lon="6.34751344707018"><ele>794.6666666666667</ele><time>2026-04-18T11:49:54Z</time></trkpt><trkpt lat="44.467704783578704" lon="6.34729415677602"><ele>792.0</ele><time>2026-04-18T11:49:55Z</time></trkpt><trkpt lat="44.467739415314774" lon="6.347109895748061"><ele>792.75</ele><time>2026-04-18T11:49:56Z</time></trkpt><trkpt lat="44.4677837046191" lon="6.346949673904633"><ele>793.5</ele><time>2026-04-18T11:49:57Z</time></trkpt><trkpt lat="44.467852526042506" lon="6.346829294743901"><ele>794.25</ele><time>2026-04-18T11:49:58Z</time></trkpt><trkpt lat="44.467959598168285" lon="6.346764045084959"><ele>795.0</ele><time>2026-04-18T11:49:59Z</time></trkpt><trkpt lat="44.468079447084854" lon="6.3467052389417535"><ele>795.0</ele><time>2026-04-18T11:50:00Z</time></trkpt><trkpt lat="44.468207356502816" lon="6.346671157818125"><ele>795.0</ele><time>2026-04-18T11:50:01Z</time></trkpt><trkpt lat="44.46833916242769" lon="6.346597614143774"><ele>795.0</ele><time>2026-04-18T11:50:02Z</time></trkpt><trkpt lat="44.46845029956028" lon="6.346517579341109"><ele>795.0</ele><time>2026-04-18T11:50:03Z</time></trkpt><trkpt lat="44.46852813220644" lon="6.346423208830285"><ele>795.75</ele><time>2026-04-18T11:50:04Z</time></trkpt><trkpt lat="44.468565337985844" lon="6.346298302296783"><ele>796.5</ele><time>2026-04-18T11:50:05Z</time></trkpt><trkpt lat="44.468534447066666" lon="6.346113249171529"><ele>797.25</ele><time>2026-04-18T11:50:06Z</time></trkpt><trkpt lat="44.46850619898949" lon="6.3459698214479054"><ele>798.0</ele><time>2026-04-18T11:50:07Z</time></trkpt><trkpt lat="44.468447472231084" lon="6.345834018599052"><ele>798.0</ele><time>2026-04-18T11:50:08Z</time></trkpt><trkpt lat="44.46833943537299" lon="6.3457325360449675"><ele>798.0</ele><time>2026-04-18T11:50:09Z</time></trkpt><trkpt lat="44.468201033061796" lon="6.345661619381834"><ele>798.0</ele><time>2026-04-18T11:50:10Z</time></trkpt><trkpt lat="44.468030562712904" lon="6.345605915469559"><ele>800.6666666666667</ele><time>2026-04-18T11:50:11Z</time></trkpt><trkpt lat="44.46786487338862" lon="6.345576288789147"><ele>803.3333333333334</ele><time>2026-04-18T11:50:12Z</time></trkpt><trkpt lat="44.46769608305075" lon="6.345530393763874"><ele>806.0</ele><time>2026-04-18T11:50:13Z</time></trkpt><trkpt lat="44.467528043988096" lon="6.34548678782637"><ele>806.0</ele><time>2026-04-18T11:50:14Z</time></trkpt><trkpt lat="44.46738202479463" lon="6.345452878403022"><ele>806.0</ele><time>2026-04-18T11:50:15Z</time></trkpt><trkpt lat="44.46724106368006" lon="6.345403907663138"><ele>806.0</ele><time>2026-04-18T11:50:16Z</time></trkpt><trkpt lat="44.46713370902083" lon="6.345356066006033"><ele>806.0</ele><time>2026-04-18T11:50:17Z</time></trkpt><trkpt lat="44.467041099045694" lon="6.3452913193781075"><ele>802.0</ele><time>2026-04-18T11:50:18Z</time></trkpt><trkpt lat="44.46698489840893" lon="6.345172296077827"><ele>798.0</ele><time>2026-04-18T11:50:19Z</time></trkpt><trkpt lat="44.466935964652414" lon="6.345065425617169"><ele>794.0</ele><time>2026-04-18T11:50:20Z</time></trkpt><trkpt lat="44.46691334484278" lon="6.3449203289036165"><ele>790.0</ele><time>2026-04-18T11:50:21Z</time></trkpt><trkpt lat="44.46693173645494" lon="6.34476543292951"><ele>786.0</ele><time>2026-04-18T11:50:22Z</time></trkpt><trkpt lat="44.46696693627853" lon="6.344588677350801"><ele>784.0</ele><time>2026-04-18T11:50:23Z</time></trkpt><trkpt lat="44.467002950688055" lon="6.344395748205062"><ele>782.0</ele><time>2026-04-18T11:50:24Z</time></trkpt><trkpt lat="44.46705345520254" lon="6.344180696758983"><ele>780.0</ele><time>2026-04-18T11:50:25Z</time></trkpt><trkpt lat="44.467104141153" lon="6.3439617045766825"><ele>787.6666666666667</ele><time>2026-04-18T11:50:26Z</time></trkpt><trkpt lat="44.46715451817347" lon="6.343706994721923"><ele>795.3333333333334</ele><time>2026-04-18T11:50:27Z</time></trkpt><trkpt lat="44.46720047340786" lon="6.343463127063871"><ele>803.0</ele><time>2026-04-18T11:50:28Z</time></trkpt><trkpt lat="44.4672406648415" lon="6.343248180629824"><ele>803.25</ele><time>2026-04-18T11:50:29Z</time></trkpt><trkpt lat="44.467269853129444" lon="6.343040317564792"><ele>803.5</ele><time>2026-04-18T11:50:30Z</time></trkpt><trkpt lat="44.46729019655626" lon="6.342849136318791"><ele>803.75</ele><time>2026-04-18T11:50:31Z</time></trkpt><trkpt lat="44.46728139809602" lon="6.342647665574331"><ele>804.0</ele><time>2026-04-18T11:50:32Z</time></trkpt><trkpt lat="44.467228204392505" lon="6.342456859952534"><ele>804.0</ele><time>2026-04-18T11:50:33Z</time></trkpt><trkpt lat="44.46713690901298" lon="6.342266990027022"><ele>804.0</ele><time>2026-04-18T11:50:34Z</time></trkpt><trkpt lat="44.467056455149105" lon="6.342084489252479"><ele>804.0</ele><time>2026-04-18T11:50:35Z</time></trkpt><trkpt lat="44.466976194144976" lon="6.341882380657621"><ele>798.0</ele><time>2026-04-18T11:50:36Z</time></trkpt><trkpt lat="44.466917734661756" lon="6.341703518765168"><ele>792.0</ele><time>2026-04-18T11:50:37Z</time></trkpt><trkpt lat="44.466863223309495" lon="6.341549202201752"><ele>786.0</ele><time>2026-04-18T11:50:38Z</time></trkpt><trkpt lat="44.466842998290986" lon="6.341375579958711"><ele>780.0</ele><time>2026-04-18T11:50:39Z</time></trkpt><trkpt lat="44.46685859204873" lon="6.341200656028467"><ele>778.5</ele><time>2026-04-18T11:50:40Z</time></trkpt><trkpt lat="44.466903136251716" lon="6.3410190169270955"><ele>777.0</ele><time>2026-04-18T11:50:41Z</time></trkpt><trkpt lat="44.46694171630947" lon="6.3408462425134715"><ele>775.5</ele><time>2026-04-18T11:50:42Z</time></trkpt><trkpt lat="44.46699985384524" lon="6.340709769745127"><ele>774.0</ele><time>2026-04-18T11:50:43Z</time></trkpt><trkpt lat="44.46703163213267" lon="6.340556904707741"><ele>773.0</ele><time>2026-04-18T11:50:44Z</time></trkpt><trkpt lat="44.467055431882784" lon="6.340430505693336"><ele>772.0</ele><time>2026-04-18T11:50:45Z</time></trkpt><trkpt lat="44.467086773345684" lon="6.340328237507339"><ele>771.0</ele><time>2026-04-18T11:50:46.001Z</time></trkpt><trkpt lat="44.467115646331834" lon="6.340212135466048"><ele>770.0</ele><time>2026-04-18T11:50:47.001Z</time></trkpt><trkpt lat="44.467143292824815" lon="6.340081301556905"><ele>769.0</ele><time>2026-04-18T11:50:48.001Z</time></trkpt><trkpt lat="44.46717973490129" lon="6.339946524909535"><ele>771.0</ele><time>2026-04-18T11:50:49.001Z</time></trkpt><trkpt lat="44.4672105648212" lon="6.339806105082765"><ele>773.0</ele><time>2026-04-18T11:50:50.001Z</time></trkpt><trkpt lat="44.46726192417979" lon="6.339670690213714"><ele>775.0</ele><time>2026-04-18T11:50:51.001Z</time></trkpt><trkpt lat="44.467303392055896" lon="6.339520329325882"><ele>777.0</ele><time>2026-04-18T11:50:52.001Z</time></trkpt><trkpt lat="44.4673458215613" lon="6.339365094818496"><ele>779.0</ele><time>2026-04-18T11:50:53.001Z</time></trkpt><trkpt lat="44.46739501020919" lon="6.339185646689802"><ele>783.6666666666667</ele><time>2026-04-18T11:50:54.001Z</time></trkpt><trkpt lat="44.46744616683858" lon="6.338998187987976"><ele>788.3333333333333</ele><time>2026-04-18T11:50:55.001Z</time></trkpt><trkpt lat="44.46750210076176" lon="6.338792509507758"><ele>793.0</ele><time>2026-04-18T11:50:56.001Z</time></trkpt><trkpt lat="44.467550312528815" lon="6.338552487323344"><ele>793.0</ele><time>2026-04-18T11:50:57.001Z</time></trkpt><trkpt lat="44.46762566987598" lon="6.338325221516263"><ele>793.0</ele><time>2026-04-18T11:50:58.001Z</time></trkpt><trkpt lat="44.467690151567844" lon="6.338103901000202"><ele>793.0</ele><time>2026-04-18T11:50:59.001Z</time></trkpt><trkpt lat="44.46775044891285" lon="6.337881786001301"><ele>791.3333333333333</ele><time>2026-04-18T11:51:00.001Z</time></trkpt><trkpt lat="44.46780420931805" lon="6.3376750387745675"><ele>789.6666666666667</ele><time>2026-04-18T11:51:01.001Z</time></trkpt><trkpt lat="44.46784640520135" lon="6.3374730275410815"><ele>788.0</ele><time>2026-04-18T11:51:02.001Z</time></trkpt><trkpt lat="44.46787830857798" lon="6.337270307921582"><ele>789.6666666666667</ele><time>2026-04-18T11:51:03.001Z</time></trkpt><trkpt lat="44.46789423131263" lon="6.337038198384682"><ele>791.3333333333333</ele><time>2026-04-18T11:51:04.001Z</time></trkpt><trkpt lat="44.467874187939536" lon="6.336773635401328"><ele>793.0</ele><time>2026-04-18T11:51:05.001Z</time></trkpt><trkpt lat="44.46786391146594" lon="6.336559614962908"><ele>794.5</ele><time>2026-04-18T11:51:06.001Z</time></trkpt><trkpt lat="44.46786798461006" lon="6.336363511431363"><ele>796.0</ele><time>2026-04-18T11:51:07.001Z</time></trkpt><trkpt lat="44.46790816542938" lon="6.336179823348653"><ele>797.5</ele><time>2026-04-18T11:51:08.001Z</time></trkpt><trkpt lat="44.467988551028036" lon="6.336017699754588"><ele>799.0</ele><time>2026-04-18T11:51:09.001Z</time></trkpt><trkpt lat="44.468072222418726" lon="6.335866102865563"><ele>801.6666666666666</ele><time>2026-04-18T11:51:10.001Z</time></trkpt><trkpt lat="44.46816741965708" lon="6.335709236950618"><ele>804.3333333333333</ele><time>2026-04-18T11:51:11.001Z</time></trkpt><trkpt lat="44.46826293845921" lon="6.335536145370526"><ele>807.0</ele><time>2026-04-18T11:51:12.001Z</time></trkpt><trkpt lat="44.46837117934647" lon="6.335369175074187"><ele>807.3333333333333</ele><time>2026-04-18T11:51:13.001Z</time></trkpt><trkpt lat="44.4684812842733" lon="6.335197323365052"><ele>807.6666666666666</ele><time>2026-04-18T11:51:14.001Z</time></trkpt><trkpt lat="44.46859657866472" lon="6.33501633577054"><ele>808.0</ele><time>2026-04-18T11:51:15.001Z</time></trkpt><trkpt lat="44.46871339151877" lon="6.334833937982848"><ele>812.0</ele><time>2026-04-18T11:51:16.001Z</time></trkpt><trkpt lat="44.46883129885468" lon="6.334656996689146"><ele>816.0</ele><time>2026-04-18T11:51:17.001Z</time></trkpt><trkpt lat="44.468936721830076" lon="6.334448222493647"><ele>820.0</ele><time>2026-04-18T11:51:18Z</time></trkpt><trkpt lat="44.46904438564977" lon="6.334235789346231"><ele>820.0</ele><time>2026-04-18T11:51:19Z</time></trkpt><trkpt lat="44.46914851060222" lon="6.334030214412578"><ele>820.0</ele><time>2026-04-18T11:51:20Z</time></trkpt><trkpt lat="44.46924464509532" lon="6.33380836436"><ele>820.0</ele><time>2026-04-18T11:51:21Z</time></trkpt><trkpt lat="44.469336097460435" lon="6.33358456101181"><ele>820.0</ele><time>2026-04-18T11:51:22Z</time></trkpt><trkpt lat="44.4694176921443" lon="6.333352721700835"><ele>820.0</ele><time>2026-04-18T11:51:23Z</time></trkpt><trkpt lat="44.469494280708595" lon="6.333107508545353"><ele>820.0</ele><time>2026-04-18T11:51:24Z</time></trkpt><trkpt lat="44.46957964606939" lon="6.332866963287019"><ele>825.3333333333333</ele><time>2026-04-18T11:51:25Z</time></trkpt><trkpt lat="44.469623516221624" lon="6.332616431085862"><ele>830.6666666666667</ele><time>2026-04-18T11:51:26Z</time></trkpt><trkpt lat="44.46969016993416" lon="6.3323609657571565"><ele>836.0</ele><time>2026-04-18T11:51:27Z</time></trkpt><trkpt lat="44.46975515025697" lon="6.332089831451775"><ele>836.3333333333334</ele><time>2026-04-18T11:51:28Z</time></trkpt><trkpt lat="44.469815280978096" lon="6.331817983819852"><ele>836.6666666666667</ele><time>2026-04-18T11:51:29Z</time></trkpt><trkpt lat="44.469882374280346" lon="6.331563383501848"><ele>837.0</ele><time>2026-04-18T11:51:30Z</time></trkpt><trkpt lat="44.46993715492061" lon="6.331328123070101"><ele>837.5</ele><time>2026-04-18T11:51:31Z</time></trkpt><trkpt lat="44.46998649641569" lon="6.331116221549096"><ele>838.0</ele><time>2026-04-18T11:51:32Z</time></trkpt><trkpt lat="44.47003286043025" lon="6.33092524192418"><ele>838.5</ele><time>2026-04-18T11:51:33Z</time></trkpt><trkpt lat="44.47008024405409" lon="6.330741005903203"><ele>839.0</ele><time>2026-04-18T11:51:34Z</time></trkpt><trkpt lat="44.470109582487886" lon="6.330529992976023"><ele>839.25</ele><time>2026-04-18T11:51:35Z</time></trkpt><trkpt lat="44.470094477596774" lon="6.330334901731975"><ele>839.5</ele><time>2026-04-18T11:51:36Z</time></trkpt><trkpt lat="44.47009585079658" lon="6.330160730620954"><ele>839.75</ele><time>2026-04-18T11:51:37Z</time></trkpt><trkpt lat="44.47009660076696" lon="6.33001067798416"><ele>840.0</ele><time>2026-04-18T11:51:38Z</time></trkpt><trkpt lat="44.47009391788002" lon="6.329874474300582"><ele>840.0</ele><time>2026-04-18T11:51:39Z</time></trkpt><trkpt lat="44.47011174767892" lon="6.329768108469918"><ele>840.0</ele><time>2026-04-18T11:51:40Z</time></trkpt><trkpt lat="44.47010924656019" lon="6.329662332302933"><ele>840.0</ele><time>2026-04-18T11:51:41Z</time></trkpt><trkpt lat="44.47010760051879" lon="6.32953889170699"><ele>840.0</ele><time>2026-04-18T11:51:42Z</time></trkpt><trkpt lat="44.470128547010184" lon="6.329390093148609"><ele>840.0</ele><time>2026-04-18T11:51:43Z</time></trkpt><trkpt lat="44.470190119429525" lon="6.329222983813575"><ele>840.5</ele><time>2026-04-18T11:51:44Z</time></trkpt><trkpt lat="44.47027424156245" lon="6.329045447514033"><ele>841.0</ele><time>2026-04-18T11:51:45Z</time></trkpt><trkpt lat="44.47033628267222" lon="6.328864913249434"><ele>841.5</ele><time>2026-04-18T11:51:46Z</time></trkpt><trkpt lat="44.470378278327" lon="6.32870692453339"><ele>842.0</ele><time>2026-04-18T11:51:47Z</time></trkpt><trkpt lat="44.47039432556538" lon="6.328543514324635"><ele>843.0</ele><time>2026-04-18T11:51:48Z</time></trkpt><trkpt lat="44.470374889340114" lon="6.328383993192462"><ele>844.0</ele><time>2026-04-18T11:51:49Z</time></trkpt><trkpt lat="44.47032719888737" lon="6.328199980570104"><ele>845.0</ele><time>2026-04-18T11:51:50Z</time></trkpt><trkpt lat="44.47025096986316" lon="6.328029877076485"><ele>846.0</ele><time>2026-04-18T11:51:51Z</time></trkpt><trkpt lat="44.47015131583221" lon="6.327882570670208"><ele>849.25</ele><time>2026-04-18T11:51:52Z</time></trkpt><trkpt lat="44.47005272378801" lon="6.327735814545772"><ele>852.5</ele><time>2026-04-18T11:51:53Z</time></trkpt><trkpt lat="44.46996695764106" lon="6.3275790756248576"><ele>855.75</ele><time>2026-04-18T11:51:54Z</time></trkpt><trkpt lat="44.46987534990538" lon="6.327428629225875"><ele>859.0</ele><time>2026-04-18T11:51:55Z</time></trkpt><trkpt lat="44.469838241044634" lon="6.327264863448378"><ele>860.5</ele><time>2026-04-18T11:51:56Z</time></trkpt><trkpt lat="44.46983285787841" lon="6.327085004584283"><ele>862.0</ele><time>2026-04-18T11:51:57Z</time></trkpt><trkpt lat="44.46984746214553" lon="6.326902176734131"><ele>863.5</ele><time>2026-04-18T11:51:58Z</time></trkpt><trkpt lat="44.46987296776487" lon="6.326722537753849"><ele>865.0</ele><time>2026-04-18T11:51:59Z</time></trkpt><trkpt lat="44.46990604440611" lon="6.326516657161267"><ele>862.5</ele><time>2026-04-18T11:52:00Z</time></trkpt><trkpt lat="44.469928192585556" lon="6.326333155558478"><ele>860.0</ele><time>2026-04-18T11:52:01Z</time></trkpt><trkpt lat="44.46995722878915" lon="6.326159848761631"><ele>857.5</ele><time>2026-04-18T11:52:02Z</time></trkpt><trkpt lat="44.4700014834297" lon="6.326005809376099"><ele>855.0</ele><time>2026-04-18T11:52:03Z</time></trkpt><trkpt lat="44.47006351279014" lon="6.3258718699729"><ele>855.0</ele><time>2026-04-18T11:52:04Z</time></trkpt><trkpt lat="44.47018634509691" lon="6.325783436828465"><ele>855.0</ele><time>2026-04-18T11:52:05Z</time></trkpt><trkpt lat="44.470296166029264" lon="6.325699616757461"><ele>855.0</ele><time>2026-04-18T11:52:06Z</time></trkpt><trkpt lat="44.470407361233946" lon="6.325650004004548"><ele>855.0</ele><time>2026-04-18T11:52:07Z</time></trkpt><trkpt lat="44.47053243281595" lon="6.325717249606648"><ele>862.0</ele><time>2026-04-18T11:52:08Z</time></trkpt><trkpt lat="44.47067024945178" lon="6.325773599592663"><ele>869.0</ele><time>2026-04-18T11:52:09Z</time></trkpt><trkpt lat="44.47083199075469" lon="6.325827259298362"><ele>876.0</ele><time>2026-04-18T11:52:10Z</time></trkpt><trkpt lat="44.47099206936295" lon="6.325896008682904"><ele>876.0</ele><time>2026-04-18T11:52:11Z</time></trkpt><trkpt lat="44.47114203297146" lon="6.3259255392677485"><ele>876.0</ele><time>2026-04-18T11:52:12Z</time></trkpt><trkpt lat="44.47127790029226" lon="6.325969911813216"><ele>876.0</ele><time>2026-04-18T11:52:13Z</time></trkpt><trkpt lat="44.47139564158201" lon="6.326032952016043"><ele>876.0</ele><time>2026-04-18T11:52:14Z</time></trkpt><trkpt lat="44.4714816102866" lon="6.326188077846479"><ele>875.0</ele><time>2026-04-18T11:52:15Z</time></trkpt><trkpt lat="44.47152350563705" lon="6.326321919032413"><ele>874.0</ele><time>2026-04-18T11:52:16Z</time></trkpt><trkpt lat="44.47159350307396" lon="6.326487531192689"><ele>873.0</ele><time>2026-04-18T11:52:17Z</time></trkpt><trkpt lat="44.471662798644054" lon="6.326684019730733"><ele>872.0</ele><time>2026-04-18T11:52:18Z</time></trkpt><trkpt lat="44.47172846562034" lon="6.326882388486701"><ele>875.0</ele><time>2026-04-18T11:52:19Z</time></trkpt><trkpt lat="44.47179393804364" lon="6.32705485331601"><ele>878.0</ele><time>2026-04-18T11:52:20Z</time></trkpt><trkpt lat="44.47188661677078" lon="6.327198908515807"><ele>881.0</ele><time>2026-04-18T11:52:21Z</time></trkpt><trkpt lat="44.47200606862094" lon="6.32728394398422"><ele>884.0</ele><time>2026-04-18T11:52:22Z</time></trkpt><trkpt lat="44.47213244747057" lon="6.3273776665016435"><ele>883.25</ele><time>2026-04-18T11:52:23Z</time></trkpt><trkpt lat="44.472279040407926" lon="6.327387949271521"><ele>882.5</ele><time>2026-04-18T11:52:24Z</time></trkpt><trkpt lat="44.472421728059764" lon="6.327356614793028"><ele>881.75</ele><time>2026-04-18T11:52:25Z</time></trkpt><trkpt lat="44.47254696655274" lon="6.327272028115936"><ele>881.0</ele><time>2026-04-18T11:52:26Z</time></trkpt><trkpt lat="44.47265376210343" lon="6.327161124655161"><ele>881.0</ele><time>2026-04-18T11:52:27Z</time></trkpt><trkpt lat="44.47274446262704" lon="6.326991438107444"><ele>881.0</ele><time>2026-04-18T11:52:28Z</time></trkpt><trkpt lat="44.47278597753837" lon="6.326769225988179"><ele>881.0</ele><time>2026-04-18T11:52:29Z</time></trkpt><trkpt lat="44.472790061491686" lon="6.326566549303866"><ele>881.0</ele><time>2026-04-18T11:52:30Z</time></trkpt><trkpt lat="44.472761492038224" lon="6.326348354750313"><ele>881.0</ele><time>2026-04-18T11:52:31Z</time></trkpt><trkpt lat="44.47272683794112" lon="6.326106527971781"><ele>881.0</ele><time>2026-04-18T11:52:32Z</time></trkpt><trkpt lat="44.472699787843275" lon="6.3258450217716"><ele>881.0</ele><time>2026-04-18T11:52:33Z</time></trkpt><trkpt lat="44.472643011723804" lon="6.325623905711046"><ele>881.0</ele><time>2026-04-18T11:52:34Z</time></trkpt><trkpt lat="44.47260592317887" lon="6.325408512434737"><ele>881.0</ele><time>2026-04-18T11:52:35Z</time></trkpt><trkpt lat="44.47261725479305" lon="6.325214250412233"><ele>881.0</ele><time>2026-04-18T11:52:36Z</time></trkpt><trkpt lat="44.47266194581206" lon="6.325028001641249"><ele>881.0</ele><time>2026-04-18T11:52:37Z</time></trkpt><trkpt lat="44.472784081739164" lon="6.324875036546425"><ele>881.0</ele><time>2026-04-18T11:52:38Z</time></trkpt><trkpt lat="44.47286637344046" lon="6.324660235474533"><ele>881.0</ele><time>2026-04-18T11:52:39Z</time></trkpt><trkpt lat="44.47291754989447" lon="6.32443608822261"><ele>881.0</ele><time>2026-04-18T11:52:40Z</time></trkpt><trkpt lat="44.47297252242726" lon="6.324197197702918"><ele>881.0</ele><time>2026-04-18T11:52:41Z</time></trkpt><trkpt lat="44.473034423731654" lon="6.323944191372012"><ele>886.5</ele><time>2026-04-18T11:52:42Z</time></trkpt><trkpt lat="44.473096931290314" lon="6.323753228960261"><ele>892.0</ele><time>2026-04-18T11:52:43Z</time></trkpt><trkpt lat="44.473135793183644" lon="6.323574813190686"><ele>897.5</ele><time>2026-04-18T11:52:44Z</time></trkpt><trkpt lat="44.473150259095114" lon="6.323395308726737"><ele>903.0</ele><time>2026-04-18T11:52:45Z</time></trkpt><trkpt lat="44.473109965474464" lon="6.3232270752440565"><ele>903.0</ele><time>2026-04-18T11:52:46Z</time></trkpt><trkpt lat="44.47303670822802" lon="6.323104762131382"><ele>903.0</ele><time>2026-04-18T11:52:47Z</time></trkpt><trkpt lat="44.472921906358785" lon="6.322973590842281"><ele>903.0</ele><time>2026-04-18T11:52:48Z</time></trkpt><trkpt lat="44.47272668118291" lon="6.322861821271014"><ele>903.3333333333333</ele><time>2026-04-18T11:52:49Z</time></trkpt><trkpt lat="44.472522620302506" lon="6.322823300141934"><ele>903.6666666666666</ele><time>2026-04-18T11:52:50Z</time></trkpt><trkpt lat="44.4723426190575" lon="6.322829830958146"><ele>904.0</ele><time>2026-04-18T11:52:51Z</time></trkpt><trkpt lat="44.472178753807015" lon="6.3228023385046335"><ele>900.6666666666666</ele><time>2026-04-18T11:52:52Z</time></trkpt><trkpt lat="44.47201450278428" lon="6.322768120332102"><ele>897.3333333333333</ele><time>2026-04-18T11:52:53Z</time></trkpt><trkpt lat="44.47187686662915" lon="6.322646613709504"><ele>894.0</ele><time>2026-04-18T11:52:54Z</time></trkpt><trkpt lat="44.471740033768015" lon="6.322500868876593"><ele>894.0</ele><time>2026-04-18T11:52:55Z</time></trkpt><trkpt lat="44.47163043954408" lon="6.322306254089457"><ele>894.0</ele><time>2026-04-18T11:52:56Z</time></trkpt><trkpt lat="44.471544095361104" lon="6.322095539360359"><ele>894.0</ele><time>2026-04-18T11:52:57Z</time></trkpt><trkpt lat="44.471446934238514" lon="6.3218802859010825"><ele>893.6666666666667</ele><time>2026-04-18T11:52:58Z</time></trkpt><trkpt lat="44.47136022237062" lon="6.321646876155303"><ele>893.3333333333334</ele><time>2026-04-18T11:52:59.001Z</time></trkpt><trkpt lat="44.47130130255862" lon="6.321422304865742"><ele>893.0</ele><time>2026-04-18T11:53:00.001Z</time></trkpt><trkpt lat="44.47126626764951" lon="6.321222323303246"><ele>893.0</ele><time>2026-04-18T11:53:01.001Z</time></trkpt><trkpt lat="44.471272519813965" lon="6.321027794777754"><ele>893.0</ele><time>2026-04-18T11:53:02.001Z</time></trkpt><trkpt lat="44.47130387301284" lon="6.320816448311766"><ele>893.0</ele><time>2026-04-18T11:53:03.001Z</time></trkpt><trkpt lat="44.47132811713861" lon="6.320587292878622"><ele>895.5</ele><time>2026-04-18T11:53:04.001Z</time></trkpt><trkpt lat="44.47134887385813" lon="6.320390889987763"><ele>898.0</ele><time>2026-04-18T11:53:05.001Z</time></trkpt><trkpt lat="44.47134775257269" lon="6.320210611645183"><ele>900.5</ele><time>2026-04-18T11:53:06.001Z</time></trkpt><trkpt lat="44.47131435424217" lon="6.320043527732656"><ele>903.0</ele><time>2026-04-18T11:53:07.001Z</time></trkpt><trkpt lat="44.471237099719964" lon="6.319922241570755"><ele>903.0</ele><time>2026-04-18T11:53:08.001Z</time></trkpt><trkpt lat="44.47111697268436" lon="6.319789503191113"><ele>903.0</ele><time>2026-04-18T11:53:09.001Z</time></trkpt><trkpt lat="44.471036913789526" lon="6.3196458164278155"><ele>903.0</ele><time>2026-04-18T11:53:10.001Z</time></trkpt><trkpt lat="44.470987979444125" lon="6.319493417970929"><ele>903.0</ele><time>2026-04-18T11:53:11.001Z</time></trkpt><trkpt lat="44.4709966902256" lon="6.319298625932619"><ele>904.0</ele><time>2026-04-18T11:53:12.001Z</time></trkpt><trkpt lat="44.47101674357125" lon="6.319093311479291"><ele>905.0</ele><time>2026-04-18T11:53:13.001Z</time></trkpt><trkpt lat="44.47106256817315" lon="6.31889498563494"><ele>906.0</ele><time>2026-04-18T11:53:14.001Z</time></trkpt><trkpt lat="44.471151004930285" lon="6.318725267755472"><ele>907.0</ele><time>2026-04-18T11:53:15.001Z</time></trkpt><trkpt lat="44.471254163418976" lon="6.318593122760622"><ele>914.6666666666666</ele><time>2026-04-18T11:53:16.001Z</time></trkpt><trkpt lat="44.471367491664886" lon="6.318447861789508"><ele>922.3333333333333</ele><time>2026-04-18T11:53:17.001Z</time></trkpt><trkpt lat="44.47147550948089" lon="6.318287091820638"><ele>930.0</ele><time>2026-04-18T11:53:18.001Z</time></trkpt><trkpt lat="44.47157274218505" lon="6.318120421860859"><ele>926.5</ele><time>2026-04-18T11:53:19.001Z</time></trkpt><trkpt lat="44.471658434262096" lon="6.31793808595546"><ele>923.0</ele><time>2026-04-18T11:53:20.001Z</time></trkpt><trkpt lat="44.47173625582668" lon="6.317762011925475"><ele>919.5</ele><time>2026-04-18T11:53:21.001Z</time></trkpt><trkpt lat="44.47184064897822" lon="6.317637770169709"><ele>916.0</ele><time>2026-04-18T11:53:22.001Z</time></trkpt><trkpt lat="44.471963745608136" lon="6.3175354890640065"><ele>923.6666666666666</ele><time>2026-04-18T11:53:23.001Z</time></trkpt><trkpt lat="44.47211900316505" lon="6.3174386904662265"><ele>931.3333333333333</ele><time>2026-04-18T11:53:24Z</time></trkpt><trkpt lat="44.47226885217922" lon="6.31739071952299"><ele>939.0</ele><time>2026-04-18T11:53:25Z</time></trkpt><trkpt lat="44.47240757862799" lon="6.317407411208019"><ele>939.0</ele><time>2026-04-18T11:53:26Z</time></trkpt><trkpt lat="44.47253856383622" lon="6.317458223032951"><ele>939.0</ele><time>2026-04-18T11:53:27Z</time></trkpt><trkpt lat="44.47270523127506" lon="6.317505652828255"><ele>939.0</ele><time>2026-04-18T11:53:28Z</time></trkpt><trkpt lat="44.47285032330451" lon="6.317557163289965"><ele>943.25</ele><time>2026-04-18T11:53:29Z</time></trkpt><trkpt lat="44.4729839252677" lon="6.317579097401258"><ele>947.5</ele><time>2026-04-18T11:53:30Z</time></trkpt><trkpt lat="44.47312013971561" lon="6.317561644190107"><ele>951.75</ele><time>2026-04-18T11:53:31Z</time></trkpt><trkpt lat="44.47322576324375" lon="6.317487361085613"><ele>956.0</ele><time>2026-04-18T11:53:32Z</time></trkpt><trkpt lat="44.473323814547356" lon="6.317390544474661"><ele>952.3333333333334</ele><time>2026-04-18T11:53:33Z</time></trkpt><trkpt lat="44.4734066546264" lon="6.3171915129154215"><ele>948.6666666666667</ele><time>2026-04-18T11:53:34Z</time></trkpt><trkpt lat="44.473453412949596" lon="6.317009416500246"><ele>945.0</ele><time>2026-04-18T11:53:35Z</time></trkpt><trkpt lat="44.473450578207185" lon="6.3167483980339325"><ele>945.0</ele><time>2026-04-18T11:53:36Z</time></trkpt><trkpt lat="44.473516319977755" lon="6.316605121778202"><ele>945.0</ele><time>2026-04-18T11:53:37Z</time></trkpt><trkpt lat="44.47361686630353" lon="6.316472712649444"><ele>945.0</ele><time>2026-04-18T11:53:38Z</time></trkpt><trkpt lat="44.473738668844575" lon="6.316349431349769"><ele>945.0</ele><time>2026-04-18T11:53:39Z</time></trkpt><trkpt lat="44.47386383675047" lon="6.316207523643996"><ele>947.25</ele><time>2026-04-18T11:53:40Z</time></trkpt><trkpt lat="44.47397960901436" lon="6.31611229114699"><ele>949.5</ele><time>2026-04-18T11:53:41Z</time></trkpt><trkpt lat="44.47409541669315" lon="6.316041433329909"><ele>951.75</ele><time>2026-04-18T11:53:42Z</time></trkpt><trkpt lat="44.47421374256451" lon="6.316007846643532"><ele>954.0</ele><time>2026-04-18T11:53:43Z</time></trkpt><trkpt lat="44.47435472053008" lon="6.316019480060562"><ele>954.0</ele><time>2026-04-18T11:53:44Z</time></trkpt><trkpt lat="44.47448373919722" lon="6.31601163689899"><ele>954.0</ele><time>2026-04-18T11:53:45Z</time></trkpt><trkpt lat="44.47460685207021" lon="6.315953153948903"><ele>954.0</ele><time>2026-04-18T11:53:46Z</time></trkpt><trkpt lat="44.47470846515672" lon="6.315859882379738"><ele>954.0</ele><time>2026-04-18T11:53:47Z</time></trkpt><trkpt lat="44.4747939970158" lon="6.315815305765231"><ele>957.0</ele><time>2026-04-18T11:53:48Z</time></trkpt><trkpt lat="44.47486537462356" lon="6.315888449029102"><ele>960.0000000000001</ele><time>2026-04-18T11:53:50Z</time></trkpt><trkpt lat="44.47484955576598" lon="6.31602566695874"><ele>963.0000000000001</ele><time>2026-04-18T11:53:51Z</time></trkpt><trkpt lat="44.474784022417666" lon="6.316113087337954"><ele>966.0</ele><time>2026-04-18T11:53:52Z</time></trkpt><trkpt lat="44.47471420224742" lon="6.3161685125499725"><ele>969.0</ele><time>2026-04-18T11:53:53Z</time></trkpt><trkpt lat="44.47460531226468" lon="6.316142434657493"><ele>965.25</ele><time>2026-04-18T11:53:54Z</time></trkpt><trkpt lat="44.474488343018415" lon="6.316181146218085"><ele>961.5</ele><time>2026-04-18T11:53:55Z</time></trkpt><trkpt lat="44.47432983495719" lon="6.316232495215976"><ele>957.75</ele><time>2026-04-18T11:53:56Z</time></trkpt><trkpt lat="44.47417916314437" lon="6.316284904303356"><ele>954.0</ele><time>2026-04-18T11:53:57Z</time></trkpt><trkpt lat="44.4740735781657" lon="6.316358436593757"><ele>958.0</ele><time>2026-04-18T11:53:58Z</time></trkpt><trkpt lat="44.4739920122156" lon="6.316476006422593"><ele>962.0000000000001</ele><time>2026-04-18T11:53:59Z</time></trkpt><trkpt lat="44.473962518056894" lon="6.316616921572855"><ele>966.0000000000001</ele><time>2026-04-18T11:54:00Z</time></trkpt><trkpt lat="44.47395065428418" lon="6.3167541711729935"><ele>970.0</ele><time>2026-04-18T11:54:01Z</time></trkpt><trkpt lat="44.473974760192" lon="6.316914994485642"><ele>974.0</ele><time>2026-04-18T11:54:02Z</time></trkpt><trkpt lat="44.47403407928165" lon="6.3170523382137675"><ele>974.0</ele><time>2026-04-18T11:54:03Z</time></trkpt><trkpt lat="44.47412153515964" lon="6.317209517378168"><ele>974.0</ele><time>2026-04-18T11:54:04Z</time></trkpt><trkpt lat="44.474204710731634" lon="6.317413437386999"><ele>974.0</ele><time>2026-04-18T11:54:05Z</time></trkpt><trkpt lat="44.47428534945997" lon="6.317601098802682"><ele>975.5</ele><time>2026-04-18T11:54:06Z</time></trkpt><trkpt lat="44.47431405452553" lon="6.3177875307709215"><ele>977.0</ele><time>2026-04-18T11:54:07Z</time></trkpt><trkpt lat="44.47431231852918" lon="6.317973390880701"><ele>978.5</ele><time>2026-04-18T11:54:08Z</time></trkpt><trkpt lat="44.47427956136168" lon="6.318148349701058"><ele>980.0</ele><time>2026-04-18T11:54:09Z</time></trkpt><trkpt lat="44.47418375726477" lon="6.318270182892567"><ele>983.3333333333334</ele><time>2026-04-18T11:54:10Z</time></trkpt><trkpt lat="44.47408604951893" lon="6.318410869716674"><ele>986.6666666666667</ele><time>2026-04-18T11:54:11Z</time></trkpt><trkpt lat="44.47398567858029" lon="6.318573764508286"><ele>990.0</ele><time>2026-04-18T11:54:12Z</time></trkpt><trkpt lat="44.47390253724172" lon="6.318762400898039"><ele>990.8</ele><time>2026-04-18T11:54:13Z</time></trkpt><trkpt lat="44.47384025263228" lon="6.318926240771813"><ele>991.6</ele><time>2026-04-18T11:54:14Z</time></trkpt><trkpt lat="44.473794789712585" lon="6.319082965112852"><ele>992.4000000000001</ele><time>2026-04-18T11:54:15Z</time></trkpt><trkpt lat="44.47378969034042" lon="6.319213961706422"><ele>993.2</ele><time>2026-04-18T11:54:16Z</time></trkpt><trkpt lat="44.47380222508331" lon="6.319337628530126"><ele>994.0</ele><time>2026-04-18T11:54:17Z</time></trkpt><trkpt lat="44.47385550032993" lon="6.319392972421675"><ele>994.0</ele><time>2026-04-18T11:54:19Z</time></trkpt><trkpt lat="44.47396917303084" lon="6.31935699978889"><ele>994.0</ele><time>2026-04-18T11:54:20Z</time></trkpt><trkpt lat="44.4741366387023" lon="6.319192795462793"><ele>994.0</ele><time>2026-04-18T11:54:21Z</time></trkpt><trkpt lat="44.47416704474838" lon="6.319084652885064"><ele>994.0</ele><time>2026-04-18T11:54:22Z</time></trkpt><trkpt lat="44.47414915492767" lon="6.318807009733594"><ele>993.0</ele><time>2026-04-18T11:54:23Z</time></trkpt><trkpt lat="44.47418174452689" lon="6.318632898711714"><ele>992.0</ele><time>2026-04-18T11:54:24Z</time></trkpt><trkpt lat="44.4742507930214" lon="6.318511135798036"><ele>991.0</ele><time>2026-04-18T11:54:25Z</time></trkpt><trkpt lat="44.47436313198759" lon="6.318430319889517"><ele>990.0</ele><time>2026-04-18T11:54:26Z</time></trkpt><trkpt lat="44.47447458429831" lon="6.3183082609924215"><ele>990.0</ele><time>2026-04-18T11:54:27Z</time></trkpt><trkpt lat="44.4745834698544" lon="6.318155506983889"><ele>990.0</ele><time>2026-04-18T11:54:28Z</time></trkpt><trkpt lat="44.474704847301126" lon="6.318001577161856"><ele>990.0</ele><time>2026-04-18T11:54:29Z</time></trkpt><trkpt lat="44.474801554064484" lon="6.317846160432181"><ele>993.0</ele><time>2026-04-18T11:54:30Z</time></trkpt><trkpt lat="44.47489225933092" lon="6.317704866670379"><ele>996.0</ele><time>2026-04-18T11:54:31Z</time></trkpt><trkpt lat="44.475005176026734" lon="6.317615969238662"><ele>999.0</ele><time>2026-04-18T11:54:32Z</time></trkpt><trkpt lat="44.4751483889767" lon="6.317550137896346"><ele>1002.0</ele><time>2026-04-18T11:54:33Z</time></trkpt><trkpt lat="44.47529938083005" lon="6.317496578742554"><ele>1007.6666666666667</ele><time>2026-04-18T11:54:34Z</time></trkpt><trkpt lat="44.47548817831828" lon="6.317481571490688"><ele>1013.3333333333334</ele><time>2026-04-18T11:54:35Z</time></trkpt><trkpt lat="44.475701421850324" lon="6.317420712123612"><ele>1019.0</ele><time>2026-04-18T11:54:36Z</time></trkpt><trkpt lat="44.475881866851836" lon="6.317343745594152"><ele>1019.0</ele><time>2026-04-18T11:54:37Z</time></trkpt><trkpt lat="44.476066238414305" lon="6.317270219510535"><ele>1019.0</ele><time>2026-04-18T11:54:38Z</time></trkpt><trkpt lat="44.476236940901444" lon="6.317180982878437"><ele>1019.0</ele><time>2026-04-18T11:54:39Z</time></trkpt><trkpt lat="44.47639316070721" lon="6.317088385350943"><ele>1019.5</ele><time>2026-04-18T11:54:40Z</time></trkpt><trkpt lat="44.47653237477921" lon="6.316998057137378"><ele>1020.0</ele><time>2026-04-18T11:54:41Z</time></trkpt><trkpt lat="44.476664682619784" lon="6.316926227872749"><ele>1020.5</ele><time>2026-04-18T11:54:42Z</time></trkpt><trkpt lat="44.47678569409776" lon="6.316842982364974"><ele>1021.0</ele><time>2026-04-18T11:54:43Z</time></trkpt><trkpt lat="44.476874844525945" lon="6.3167069988525775"><ele>1021.0</ele><time>2026-04-18T11:54:44Z</time></trkpt><trkpt lat="44.47698137100648" lon="6.3166155282140775"><ele>1021.0</ele><time>2026-04-18T11:54:45Z</time></trkpt><trkpt lat="44.47708179315235" lon="6.316509664781539"><ele>1021.0</ele><time>2026-04-18T11:54:46Z</time></trkpt><trkpt lat="44.47717735437536" lon="6.316414646326064"><ele>1021.0</ele><time>2026-04-18T11:54:47Z</time></trkpt><trkpt lat="44.477288736786505" lon="6.316308987103469"><ele>1023.6666666666666</ele><time>2026-04-18T11:54:48Z</time></trkpt><trkpt lat="44.4774224915752" lon="6.316211375434695"><ele>1026.3333333333333</ele><time>2026-04-18T11:54:49Z</time></trkpt><trkpt lat="44.477569892227514" lon="6.316184021797406"><ele>1029.0</ele><time>2026-04-18T11:54:50Z</time></trkpt><trkpt lat="44.47774098880395" lon="6.316142448186541"><ele>1029.0</ele><time>2026-04-18T11:54:51Z</time></trkpt><trkpt lat="44.477905299262694" lon="6.3160985500194755"><ele>1029.0</ele><time>2026-04-18T11:54:52Z</time></trkpt><trkpt lat="44.478057563783445" lon="6.316049491290287"><ele>1029.0</ele><time>2026-04-18T11:54:53Z</time></trkpt><trkpt lat="44.478180072695274" lon="6.315984890185313"><ele>1031.25</ele><time>2026-04-18T11:54:54Z</time></trkpt><trkpt lat="44.478294626400015" lon="6.315884324746375"><ele>1033.5</ele><time>2026-04-18T11:54:55Z</time></trkpt><trkpt lat="44.47838886752315" lon="6.315736755172695"><ele>1035.75</ele><time>2026-04-18T11:54:56Z</time></trkpt><trkpt lat="44.47845979740978" lon="6.3155589724388035"><ele>1038.0</ele><time>2026-04-18T11:54:57Z</time></trkpt><trkpt lat="44.478539456856616" lon="6.315416555131797"><ele>1038.0</ele><time>2026-04-18T11:54:58Z</time></trkpt><trkpt lat="44.47860487197646" lon="6.315305586782427"><ele>1038.0</ele><time>2026-04-18T11:54:59Z</time></trkpt><trkpt lat="44.47865100345527" lon="6.315228934511435"><ele>1038.0</ele><time>2026-04-18T11:55:00Z</time></trkpt><trkpt lat="44.478710539290944" lon="6.315164905557587"><ele>1038.0</ele><time>2026-04-18T11:55:01Z</time></trkpt><trkpt lat="44.47878279114265" lon="6.315146748297107"><ele>1038.0</ele><time>2026-04-18T11:55:02Z</time></trkpt><trkpt lat="44.47884756296894" lon="6.315132972022956"><ele>1038.0</ele><time>2026-04-18T11:55:03Z</time></trkpt><trkpt lat="44.47897125917667" lon="6.315123291763109"><ele>1039.2</ele><time>2026-04-18T11:55:05Z</time></trkpt><trkpt lat="44.479035461159725" lon="6.315138210115105"><ele>1040.4</ele><time>2026-04-18T11:55:06Z</time></trkpt><trkpt lat="44.47912411361146" lon="6.315117685013869"><ele>1041.6000000000001</ele><time>2026-04-18T11:55:07Z</time></trkpt><trkpt lat="44.4792331995607" lon="6.315112960335152"><ele>1042.8</ele><time>2026-04-18T11:55:08.001Z</time></trkpt><trkpt lat="44.47934843754245" lon="6.315146871527527"><ele>1044.0</ele><time>2026-04-18T11:55:09.001Z</time></trkpt><trkpt lat="44.47946593177137" lon="6.3151352773355764"><ele>1042.0</ele><time>2026-04-18T11:55:10.001Z</time></trkpt><trkpt lat="44.47960484782615" lon="6.315139358832518"><ele>1040.0</ele><time>2026-04-18T11:55:11.001Z</time></trkpt><trkpt lat="44.479749178502345" lon="6.315129221916348"><ele>1038.0</ele><time>2026-04-18T11:55:12.001Z</time></trkpt><trkpt lat="44.47986725737123" lon="6.315147897429344"><ele>1036.0</ele><time>2026-04-18T11:55:13.001Z</time></trkpt><trkpt lat="44.48001572490578" lon="6.315197249401679"><ele>1036.0</ele><time>2026-04-18T11:55:14.001Z</time></trkpt><trkpt lat="44.480169292962906" lon="6.315242684389364"><ele>1036.0</ele><time>2026-04-18T11:55:15.001Z</time></trkpt><trkpt lat="44.48030967858392" lon="6.315298048395664"><ele>1036.0</ele><time>2026-04-18T11:55:16.001Z</time></trkpt><trkpt lat="44.480428536992946" lon="6.315369201901349"><ele>1036.0</ele><time>2026-04-18T11:55:17.001Z</time></trkpt><trkpt lat="44.48053054620879" lon="6.315491397599412"><ele>1036.75</ele><time>2026-04-18T11:55:18.001Z</time></trkpt><trkpt lat="44.480652452185375" lon="6.315614502469278"><ele>1037.5</ele><time>2026-04-18T11:55:19.001Z</time></trkpt><trkpt lat="44.48074377448933" lon="6.315769599714724"><ele>1038.25</ele><time>2026-04-18T11:55:20.001Z</time></trkpt><trkpt lat="44.480831312463934" lon="6.315937129771724"><ele>1039.0</ele><time>2026-04-18T11:55:21.001Z</time></trkpt><trkpt lat="44.480866465574216" lon="6.316125193675341"><ele>1039.0</ele><time>2026-04-18T11:55:22.001Z</time></trkpt><trkpt lat="44.48088966130657" lon="6.316327729023956"><ele>1039.0</ele><time>2026-04-18T11:55:23.001Z</time></trkpt><trkpt lat="44.48087905002265" lon="6.316534184012621"><ele>1039.0</ele><time>2026-04-18T11:55:24.001Z</time></trkpt><trkpt lat="44.48084751211806" lon="6.3167389506611045"><ele>1039.0</ele><time>2026-04-18T11:55:25.001Z</time></trkpt><trkpt lat="44.48078616333799" lon="6.316962590552524"><ele>1039.0</ele><time>2026-04-18T11:55:26.001Z</time></trkpt><trkpt lat="44.48073690359124" lon="6.317186301799675"><ele>1039.0</ele><time>2026-04-18T11:55:27.001Z</time></trkpt><trkpt lat="44.480682469385364" lon="6.317387597942265"><ele>1039.0</ele><time>2026-04-18T11:55:28.001Z</time></trkpt><trkpt lat="44.48064874080552" lon="6.317595149399038"><ele>1037.6666666666665</ele><time>2026-04-18T11:55:29.001Z</time></trkpt><trkpt lat="44.480625721758585" lon="6.317806472107211"><ele>1036.3333333333333</ele><time>2026-04-18T11:55:30Z</time></trkpt><trkpt lat="44.480634024581214" lon="6.318029620826375"><ele>1035.0</ele><time>2026-04-18T11:55:31Z</time></trkpt><trkpt lat="44.48069604124964" lon="6.318245126471503"><ele>1035.0</ele><time>2026-04-18T11:55:32Z</time></trkpt><trkpt lat="44.48076877165949" lon="6.318449238982913"><ele>1035.0</ele><time>2026-04-18T11:55:33Z</time></trkpt><trkpt lat="44.48086695831756" lon="6.318632345488453"><ele>1035.0</ele><time>2026-04-18T11:55:34Z</time></trkpt><trkpt lat="44.48102257685818" lon="6.318870961967486"><ele>1036.3333333333333</ele><time>2026-04-18T11:55:35Z</time></trkpt><trkpt lat="44.481151520376784" lon="6.319063595085717"><ele>1037.6666666666665</ele><time>2026-04-18T11:55:36Z</time></trkpt><trkpt lat="44.48128957449838" lon="6.319231446229058"><ele>1039.0</ele><time>2026-04-18T11:55:37Z</time></trkpt><trkpt lat="44.48143281658976" lon="6.319379430421815"><ele>1034.6666666666665</ele><time>2026-04-18T11:55:38Z</time></trkpt><trkpt lat="44.48156161465616" lon="6.319505226963591"><ele>1030.3333333333333</ele><time>2026-04-18T11:55:39Z</time></trkpt><trkpt lat="44.481691925108315" lon="6.319588608233287"><ele>1026.0</ele><time>2026-04-18T11:55:40Z</time></trkpt><trkpt lat="44.481848923159674" lon="6.319590712021013"><ele>1026.0</ele><time>2026-04-18T11:55:41Z</time></trkpt><trkpt lat="44.48200884695925" lon="6.319544328113967"><ele>1026.0</ele><time>2026-04-18T11:55:42Z</time></trkpt><trkpt lat="44.48215149947096" lon="6.319448620506006"><ele>1026.0</ele><time>2026-04-18T11:55:43Z</time></trkpt><trkpt lat="44.482302910995784" lon="6.319305344549811"><ele>1026.6666666666667</ele><time>2026-04-18T11:55:44Z</time></trkpt><trkpt lat="44.48242199218953" lon="6.319120932646327"><ele>1027.3333333333335</ele><time>2026-04-18T11:55:45Z</time></trkpt><trkpt lat="44.48254686003751" lon="6.318983871630852"><ele>1028.0</ele><time>2026-04-18T11:55:46Z</time></trkpt><trkpt lat="44.48267006623431" lon="6.318876621177875"><ele>1028.0</ele><time>2026-04-18T11:55:47Z</time></trkpt><trkpt lat="44.482800184721974" lon="6.3188619623524795"><ele>1028.0</ele><time>2026-04-18T11:55:48Z</time></trkpt><trkpt lat="44.48295218975977" lon="6.318904911490892"><ele>1028.0</ele><time>2026-04-18T11:55:49Z</time></trkpt><trkpt lat="44.4831215427737" lon="6.318919087550943"><ele>1028.0</ele><time>2026-04-18T11:55:50Z</time></trkpt><trkpt lat="44.48332107322681" lon="6.318914289280168"><ele>1028.0</ele><time>2026-04-18T11:55:51Z</time></trkpt><trkpt lat="44.48353838376813" lon="6.318953973116682"><ele>1028.0</ele><time>2026-04-18T11:55:52Z</time></trkpt><trkpt lat="44.48372117031503" lon="6.318971726499735"><ele>1026.0</ele><time>2026-04-18T11:55:53Z</time></trkpt><trkpt lat="44.48389472912034" lon="6.3190060726673565"><ele>1024.0</ele><time>2026-04-18T11:55:54Z</time></trkpt><trkpt lat="44.48401816012197" lon="6.319088566796565"><ele>1022.0</ele><time>2026-04-18T11:55:55Z</time></trkpt><trkpt lat="44.484188851900534" lon="6.319158492960574"><ele>1022.0</ele><time>2026-04-18T11:55:56Z</time></trkpt><trkpt lat="44.48433359308629" lon="6.319268977063187"><ele>1022.0</ele><time>2026-04-18T11:55:57Z</time></trkpt><trkpt lat="44.48448182702897" lon="6.3194348016025685"><ele>1022.0</ele><time>2026-04-18T11:55:58Z</time></trkpt><trkpt lat="44.48458562329233" lon="6.31966750599798"><ele>1019.6666666666667</ele><time>2026-04-18T11:55:59Z</time></trkpt><trkpt lat="44.484710004558856" lon="6.31987588455203"><ele>1017.3333333333333</ele><time>2026-04-18T11:56:00Z</time></trkpt><trkpt lat="44.48484639905813" lon="6.320065317224929"><ele>1015.0</ele><time>2026-04-18T11:56:01Z</time></trkpt><trkpt lat="44.484986067200154" lon="6.320243213986244"><ele>1015.0</ele><time>2026-04-18T11:56:02Z</time></trkpt><trkpt lat="44.48512368675141" lon="6.320402438908096"><ele>1015.0</ele><time>2026-04-18T11:56:03Z</time></trkpt><trkpt lat="44.48524946211716" lon="6.320582344135146"><ele>1015.0</ele><time>2026-04-18T11:56:04Z</time></trkpt><trkpt lat="44.48534284547863" lon="6.3207837467131665"><ele>1013.3333333333333</ele><time>2026-04-18T11:56:05Z</time></trkpt><trkpt lat="44.485425981575766" lon="6.321012865814948"><ele>1011.6666666666667</ele><time>2026-04-18T11:56:06Z</time></trkpt><trkpt lat="44.48550126647093" lon="6.3212591680879235"><ele>1010.0</ele><time>2026-04-18T11:56:07Z</time></trkpt><trkpt lat="44.485583365228685" lon="6.321525036384798"><ele>1010.0</ele><time>2026-04-18T11:56:08Z</time></trkpt><trkpt lat="44.4856662164224" lon="6.321788098487367"><ele>1010.0</ele><time>2026-04-18T11:56:09Z</time></trkpt><trkpt lat="44.48575006504897" lon="6.322053334935597"><ele>1010.0</ele><time>2026-04-18T11:56:10Z</time></trkpt><trkpt lat="44.48583495152821" lon="6.322328275618292"><ele>1012.6666666666667</ele><time>2026-04-18T11:56:11Z</time></trkpt><trkpt lat="44.48591530918251" lon="6.322591795075818"><ele>1015.3333333333333</ele><time>2026-04-18T11:56:12Z</time></trkpt><trkpt lat="44.48600222190781" lon="6.3228560440594626"><ele>1018.0</ele><time>2026-04-18T11:56:13Z</time></trkpt><trkpt lat="44.48612415807103" lon="6.323094759930396"><ele>1021.3333333333333</ele><time>2026-04-18T11:56:14Z</time></trkpt><trkpt lat="44.48621580571384" lon="6.323295158478802"><ele>1024.6666666666667</ele><time>2026-04-18T11:56:15Z</time></trkpt><trkpt lat="44.48636749895981" lon="6.323496376232004"><ele>1028.0</ele><time>2026-04-18T11:56:16Z</time></trkpt><trkpt lat="44.48648563302666" lon="6.323724775265402"><ele>1020.5</ele><time>2026-04-18T11:56:17Z</time></trkpt><trkpt lat="44.48660362245016" lon="6.323977663940162"><ele>1013.0</ele><time>2026-04-18T11:56:18Z</time></trkpt><trkpt lat="44.4867557753072" lon="6.324236285689539"><ele>1013.0</ele><time>2026-04-18T11:56:19Z</time></trkpt><trkpt lat="44.48685264179306" lon="6.324507057680427"><ele>1013.0</ele><time>2026-04-18T11:56:20Z</time></trkpt><trkpt lat="44.486983968792" lon="6.32476519394102"><ele>1013.0</ele><time>2026-04-18T11:56:21Z</time></trkpt><trkpt lat="44.487096792917484" lon="6.325046906278867"><ele>1010.6666666666667</ele><time>2026-04-18T11:56:22Z</time></trkpt><trkpt lat="44.48723079800247" lon="6.325287007121821"><ele>1008.3333333333333</ele><time>2026-04-18T11:56:23Z</time></trkpt><trkpt lat="44.48733352585882" lon="6.325525106708577"><ele>1006.0</ele><time>2026-04-18T11:56:24Z</time></trkpt><trkpt lat="44.48741557176861" lon="6.325766954424578"><ele>1006.0</ele><time>2026-04-18T11:56:25Z</time></trkpt><trkpt lat="44.487461690582094" lon="6.32596983738178"><ele>1006.0</ele><time>2026-04-18T11:56:26Z</time></trkpt><trkpt lat="44.48750306075812" lon="6.326196918861968"><ele>1006.0</ele><time>2026-04-18T11:56:27Z</time></trkpt><trkpt lat="44.487581420024604" lon="6.3263898467425355"><ele>1008.3333333333333</ele><time>2026-04-18T11:56:28Z</time></trkpt><trkpt lat="44.48767481792604" lon="6.326578489349812"><ele>1010.6666666666667</ele><time>2026-04-18T11:56:29Z</time></trkpt><trkpt lat="44.48778765374715" lon="6.326764472684753"><ele>1013.0</ele><time>2026-04-18T11:56:30Z</time></trkpt><trkpt lat="44.48791636392353" lon="6.326940027553227"><ele>1011.6666666666667</ele><time>2026-04-18T11:56:31Z</time></trkpt><trkpt lat="44.488043204030454" lon="6.327119913906047"><ele>1010.3333333333333</ele><time>2026-04-18T11:56:32Z</time></trkpt><trkpt lat="44.48823620325062" lon="6.32726220431445"><ele>1009.0</ele><time>2026-04-18T11:56:33Z</time></trkpt><trkpt lat="44.4883991993873" lon="6.327427115461359"><ele>1009.0</ele><time>2026-04-18T11:56:34Z</time></trkpt><trkpt lat="44.48855393624971" lon="6.327540191844472"><ele>1009.0</ele><time>2026-04-18T11:56:35Z</time></trkpt><trkpt lat="44.48874101440691" lon="6.327640306253175"><ele>1009.0</ele><time>2026-04-18T11:56:36Z</time></trkpt><trkpt lat="44.48893427202714" lon="6.327702658225731"><ele>1008.3333333333333</ele><time>2026-04-18T11:56:37Z</time></trkpt><trkpt lat="44.4891228459042" lon="6.327768081336038"><ele>1007.6666666666667</ele><time>2026-04-18T11:56:38Z</time></trkpt><trkpt lat="44.48930797320705" lon="6.327842782216406"><ele>1007.0</ele><time>2026-04-18T11:56:39Z</time></trkpt><trkpt lat="44.489495630612346" lon="6.3279296200551105"><ele>1008.6666666666667</ele><time>2026-04-18T11:56:40Z</time></trkpt><trkpt lat="44.48967215615823" lon="6.328002338550249"><ele>1010.3333333333333</ele><time>2026-04-18T11:56:41Z</time></trkpt><trkpt lat="44.489825784612584" lon="6.3281033206370605"><ele>1012.0</ele><time>2026-04-18T11:56:42Z</time></trkpt><trkpt lat="44.489966635234296" lon="6.328222244270772"><ele>1014.5</ele><time>2026-04-18T11:56:43Z</time></trkpt><trkpt lat="44.49004147979552" lon="6.328322658006598"><ele>1017.0</ele><time>2026-04-18T11:56:44Z</time></trkpt><trkpt lat="44.49012599913415" lon="6.32846265943793"><ele>1019.5</ele><time>2026-04-18T11:56:45Z</time></trkpt><trkpt lat="44.490190631796644" lon="6.32863609255323"><ele>1022.0</ele><time>2026-04-18T11:56:46Z</time></trkpt><trkpt lat="44.49023331384602" lon="6.328822818092577"><ele>1024.6666666666667</ele><time>2026-04-18T11:56:47Z</time></trkpt><trkpt lat="44.4902583695241" lon="6.329021488373999"><ele>1027.3333333333333</ele><time>2026-04-18T11:56:48Z</time></trkpt><trkpt lat="44.49026230320701" lon="6.329238396766476"><ele>1030.0</ele><time>2026-04-18T11:56:49Z</time></trkpt><trkpt lat="44.49025002825759" lon="6.329468531263008"><ele>1030.0</ele><time>2026-04-18T11:56:50Z</time></trkpt><trkpt lat="44.49023568919666" lon="6.329710560940959"><ele>1030.0</ele><time>2026-04-18T11:56:51Z</time></trkpt><trkpt lat="44.490233455727314" lon="6.329963290555229"><ele>1030.0</ele><time>2026-04-18T11:56:52Z</time></trkpt><trkpt lat="44.49024864841514" lon="6.330228076444219"><ele>1030.3333333333333</ele><time>2026-04-18T11:56:53Z</time></trkpt><trkpt lat="44.490278556923705" lon="6.330495844960524"><ele>1030.6666666666667</ele><time>2026-04-18T11:56:54Z</time></trkpt><trkpt lat="44.49032168600565" lon="6.3307657019572146"><ele>1031.0</ele><time>2026-04-18T11:56:55Z</time></trkpt><trkpt lat="44.49037082937206" lon="6.331033802659402"><ele>1031.0</ele><time>2026-04-18T11:56:56Z</time></trkpt><trkpt lat="44.490408602393266" lon="6.331297520937854"><ele>1031.0</ele><time>2026-04-18T11:56:57Z</time></trkpt><trkpt lat="44.49042943191856" lon="6.331542394609477"><ele>1031.0</ele><time>2026-04-18T11:56:58Z</time></trkpt><trkpt lat="44.49043045425311" lon="6.3317803404789235"><ele>1031.3333333333335</ele><time>2026-04-18T11:56:59Z</time></trkpt><trkpt lat="44.490407041161376" lon="6.332019730481718"><ele>1031.6666666666667</ele><time>2026-04-18T11:57:00Z</time></trkpt><trkpt lat="44.490377310777724" lon="6.3322557482667"><ele>1032.0</ele><time>2026-04-18T11:57:01Z</time></trkpt><trkpt lat="44.49033119112343" lon="6.332468127132986"><ele>1032.0</ele><time>2026-04-18T11:57:02Z</time></trkpt><trkpt lat="44.490270828665764" lon="6.332688578963006"><ele>1032.0</ele><time>2026-04-18T11:57:03Z</time></trkpt><trkpt lat="44.49019186807464" lon="6.3329437024513675"><ele>1032.0</ele><time>2026-04-18T11:57:04Z</time></trkpt><trkpt lat="44.49011892719932" lon="6.333186828857269"><ele>1027.6666666666667</ele><time>2026-04-18T11:57:05Z</time></trkpt><trkpt lat="44.49005354152195" lon="6.333408439034539"><ele>1023.3333333333334</ele><time>2026-04-18T11:57:06.001Z</time></trkpt><trkpt lat="44.489989558424334" lon="6.333607868440388"><ele>1019.0</ele><time>2026-04-18T11:57:07.001Z</time></trkpt><trkpt lat="44.48992318390201" lon="6.333823244394453"><ele>1017.0</ele><time>2026-04-18T11:57:08.001Z</time></trkpt><trkpt lat="44.48987730649719" lon="6.334013867626114"><ele>1015.0</ele><time>2026-04-18T11:57:09.001Z</time></trkpt><trkpt lat="44.48986972597333" lon="6.334216263320178"><ele>1013.0</ele><time>2026-04-18T11:57:10.001Z</time></trkpt><trkpt lat="44.48986081256096" lon="6.3344092065131665"><ele>1011.0</ele><time>2026-04-18T11:57:11.001Z</time></trkpt><trkpt lat="44.48992928597081" lon="6.334612018499726"><ele>1011.0</ele><time>2026-04-18T11:57:12.001Z</time></trkpt><trkpt lat="44.489992018395924" lon="6.334679342477097"><ele>1011.0</ele><time>2026-04-18T11:57:13.001Z</time></trkpt><trkpt lat="44.49008086879963" lon="6.334716922123868"><ele>1011.0</ele><time>2026-04-18T11:57:14.001Z</time></trkpt><trkpt lat="44.4902051666187" lon="6.3348224965587505"><ele>1011.0</ele><time>2026-04-18T11:57:15.001Z</time></trkpt><trkpt lat="44.490474866799865" lon="6.335027343300503"><ele>1009.3333333333333</ele><time>2026-04-18T11:57:16.001Z</time></trkpt><trkpt lat="44.49064217449858" lon="6.335139968210524"><ele>1007.6666666666666</ele><time>2026-04-18T11:57:17.001Z</time></trkpt><trkpt lat="44.49074524590643" lon="6.335267729977068"><ele>1006.0</ele><time>2026-04-18T11:57:18.001Z</time></trkpt><trkpt lat="44.490879958682896" lon="6.335309789249849"><ele>1006.0</ele><time>2026-04-18T11:57:19.001Z</time></trkpt><trkpt lat="44.49100577261462" lon="6.335271434337874"><ele>1006.0</ele><time>2026-04-18T11:57:20.001Z</time></trkpt><trkpt lat="44.491159004752014" lon="6.335228497684189"><ele>1006.0</ele><time>2026-04-18T11:57:21.001Z</time></trkpt><trkpt lat="44.491343096062806" lon="6.335092212881755"><ele>1008.6666666666666</ele><time>2026-04-18T11:57:22.001Z</time></trkpt><trkpt lat="44.49153290128334" lon="6.33490368314576"><ele>1011.3333333333333</ele><time>2026-04-18T11:57:23.001Z</time></trkpt><trkpt lat="44.49171906588071" lon="6.334758169646196"><ele>1014.0</ele><time>2026-04-18T11:57:24.001Z</time></trkpt><trkpt lat="44.49190397101763" lon="6.334605047194097"><ele>1008.0</ele><time>2026-04-18T11:57:25.001Z</time></trkpt><trkpt lat="44.49207706082861" lon="6.334490567329406"><ele>1002.0</ele><time>2026-04-18T11:57:26.001Z</time></trkpt><trkpt lat="44.492250407303544" lon="6.33438895519487"><ele>996.0</ele><time>2026-04-18T11:57:27.001Z</time></trkpt><trkpt lat="44.49242089885162" lon="6.334327176623481"><ele>996.0</ele><time>2026-04-18T11:57:28.001Z</time></trkpt><trkpt lat="44.492581589478725" lon="6.334312546034195"><ele>996.0</ele><time>2026-04-18T11:57:29.001Z</time></trkpt><trkpt lat="44.492721599438134" lon="6.33432133023241"><ele>996.0</ele><time>2026-04-18T11:57:30.001Z</time></trkpt><trkpt lat="44.492870431483745" lon="6.33434970771096"><ele>994.0</ele><time>2026-04-18T11:57:31.001Z</time></trkpt><trkpt lat="44.49303811365334" lon="6.334423612248712"><ele>992.0</ele><time>2026-04-18T11:57:32.001Z</time></trkpt><trkpt lat="44.493192274711674" lon="6.3345224224234995"><ele>990.0</ele><time>2026-04-18T11:57:33.001Z</time></trkpt><trkpt lat="44.493350967257456" lon="6.334651521989361"><ele>992.0</ele><time>2026-04-18T11:57:34.001Z</time></trkpt><trkpt lat="44.49350534575816" lon="6.334787787550557"><ele>994.0</ele><time>2026-04-18T11:57:35.001Z</time></trkpt><trkpt lat="44.49365539537083" lon="6.334918548040348"><ele>996.0</ele><time>2026-04-18T11:57:36Z</time></trkpt><trkpt lat="44.49380621624082" lon="6.335047666930935"><ele>996.0</ele><time>2026-04-18T11:57:37Z</time></trkpt><trkpt lat="44.493940527641634" lon="6.335170195801461"><ele>996.0</ele><time>2026-04-18T11:57:38Z</time></trkpt><trkpt lat="44.49406051997209" lon="6.335293495009269"><ele>996.0</ele><time>2026-04-18T11:57:39Z</time></trkpt><trkpt lat="44.49416652227945" lon="6.335435964935395"><ele>999.6666666666667</ele><time>2026-04-18T11:57:40Z</time></trkpt><trkpt lat="44.494255733313885" lon="6.335585701890125"><ele>1003.3333333333334</ele><time>2026-04-18T11:57:41Z</time></trkpt><trkpt lat="44.494343430920054" lon="6.335764010430263"><ele>1007.0</ele><time>2026-04-18T11:57:42Z</time></trkpt><trkpt lat="44.4944081796884" lon="6.335976471265156"><ele>1007.0</ele><time>2026-04-18T11:57:43Z</time></trkpt><trkpt lat="44.494443909399884" lon="6.336205862778603"><ele>1007.0</ele><time>2026-04-18T11:57:44Z</time></trkpt><trkpt lat="44.49447772778914" lon="6.336426498387935"><ele>1007.0</ele><time>2026-04-18T11:57:45Z</time></trkpt><trkpt lat="44.49451037877917" lon="6.336656500603941"><ele>1009.3333333333334</ele><time>2026-04-18T11:57:46Z</time></trkpt><trkpt lat="44.4945404756308" lon="6.336882724855707"><ele>1011.6666666666667</ele><time>2026-04-18T11:57:47Z</time></trkpt><trkpt lat="44.494569875337234" lon="6.337104485427533"><ele>1014.0</ele><time>2026-04-18T11:57:48Z</time></trkpt><trkpt lat="44.49460911210424" lon="6.3373147972455905"><ele>1010.5</ele><time>2026-04-18T11:57:49Z</time></trkpt><trkpt lat="44.49465482672237" lon="6.337474613250031"><ele>1007.0</ele><time>2026-04-18T11:57:50Z</time></trkpt><trkpt lat="44.49475930203127" lon="6.33765850259038"><ele>1003.5</ele><time>2026-04-18T11:57:51Z</time></trkpt><trkpt lat="44.494832205693214" lon="6.337805264686194"><ele>1000.0</ele><time>2026-04-18T11:57:52Z</time></trkpt><trkpt lat="44.49494547844887" lon="6.3379375103695805"><ele>1004.3333333333333</ele><time>2026-04-18T11:57:53Z</time></trkpt><trkpt lat="44.4950597871563" lon="6.338059539420298"><ele>1008.6666666666667</ele><time>2026-04-18T11:57:54Z</time></trkpt><trkpt lat="44.49520079709834" lon="6.338182621151266"><ele>1013.0</ele><time>2026-04-18T11:57:55Z</time></trkpt><trkpt lat="44.49528535572557" lon="6.338385142172356"><ele>1013.0</ele><time>2026-04-18T11:57:56Z</time></trkpt><trkpt lat="44.49536497250132" lon="6.338584853704776"><ele>1013.0</ele><time>2026-04-18T11:57:57Z</time></trkpt><trkpt lat="44.495404895455884" lon="6.33880685101831"><ele>1013.0</ele><time>2026-04-18T11:57:58Z</time></trkpt><trkpt lat="44.495412580162984" lon="6.339044535320091"><ele>1015.0</ele><time>2026-04-18T11:57:59Z</time></trkpt><trkpt lat="44.495402667605475" lon="6.339267559676057"><ele>1017.0</ele><time>2026-04-18T11:58:00Z</time></trkpt><trkpt lat="44.49536879960844" lon="6.339491781372755"><ele>1019.0</ele><time>2026-04-18T11:58:01Z</time></trkpt><trkpt lat="44.49531789354652" lon="6.339696625969389"><ele>1018.0</ele><time>2026-04-18T11:58:02Z</time></trkpt><trkpt lat="44.49525307042096" lon="6.339906114005357"><ele>1017.0</ele><time>2026-04-18T11:58:03Z</time></trkpt><trkpt lat="44.49514506223715" lon="6.340079328443153"><ele>1016.0</ele><time>2026-04-18T11:58:04Z</time></trkpt><trkpt lat="44.49504396864553" lon="6.340243219622608"><ele>1016.0</ele><time>2026-04-18T11:58:05Z</time></trkpt><trkpt lat="44.49495404190585" lon="6.34038872798509"><ele>1016.0</ele><time>2026-04-18T11:58:06Z</time></trkpt><trkpt lat="44.49486221844995" lon="6.340536051605468"><ele>1016.0</ele><time>2026-04-18T11:58:07Z</time></trkpt><trkpt lat="44.49476851156109" lon="6.340683186474842"><ele>1016.0</ele><time>2026-04-18T11:58:08Z</time></trkpt><trkpt lat="44.49468401969024" lon="6.340840965228051"><ele>1017.75</ele><time>2026-04-18T11:58:09Z</time></trkpt><trkpt lat="44.494579581790006" lon="6.340980411704127"><ele>1019.5</ele><time>2026-04-18T11:58:10Z</time></trkpt><trkpt lat="44.494494502191515" lon="6.341116789356611"><ele>1021.25</ele><time>2026-04-18T11:58:11Z</time></trkpt><trkpt lat="44.49443336027212" lon="6.341290686990396"><ele>1023.0</ele><time>2026-04-18T11:58:12Z</time></trkpt><trkpt lat="44.4943565960558" lon="6.341436921936046"><ele>1023.0</ele><time>2026-04-18T11:58:13Z</time></trkpt><trkpt lat="44.49431030676347" lon="6.341600343227689"><ele>1023.0</ele><time>2026-04-18T11:58:14Z</time></trkpt><trkpt lat="44.49433636697398" lon="6.341695893286914"><ele>1023.0</ele><time>2026-04-18T11:58:15Z</time></trkpt><trkpt lat="44.49433620439719" lon="6.341898727123649"><ele>1023.0</ele><time>2026-04-18T11:58:16Z</time></trkpt><trkpt lat="44.49440468736584" lon="6.342057838346054"><ele>1023.0</ele><time>2026-04-18T11:58:17Z</time></trkpt><trkpt lat="44.49449194683448" lon="6.342197526629864"><ele>1023.0</ele><time>2026-04-18T11:58:18Z</time></trkpt><trkpt lat="44.49458463737648" lon="6.342295225414913"><ele>1023.0</ele><time>2026-04-18T11:58:19Z</time></trkpt><trkpt lat="44.49473906140765" lon="6.342456472983185"><ele>1023.0</ele><time>2026-04-18T11:58:20Z</time></trkpt><trkpt lat="44.494906712751295" lon="6.34260218036847"><ele>1019.25</ele><time>2026-04-18T11:58:21Z</time></trkpt><trkpt lat="44.49504341608139" lon="6.342724724174823"><ele>1015.5</ele><time>2026-04-18T11:58:22Z</time></trkpt><trkpt lat="44.49516985333024" lon="6.342824033261654"><ele>1011.75</ele><time>2026-04-18T11:58:23Z</time></trkpt><trkpt lat="44.49529674773576" lon="6.342821825977881"><ele>1008.0</ele><time>2026-04-18T11:58:24Z</time></trkpt><trkpt lat="44.49544598790327" lon="6.342807136502122"><ele>1007.5</ele><time>2026-04-18T11:58:25Z</time></trkpt><trkpt lat="44.49558050758552" lon="6.342822741118548"><ele>1007.0</ele><time>2026-04-18T11:58:26Z</time></trkpt><trkpt lat="44.49567723834469" lon="6.342910893556075"><ele>1006.5</ele><time>2026-04-18T11:58:27Z</time></trkpt><trkpt lat="44.495775772855495" lon="6.343047041503726"><ele>1006.0</ele><time>2026-04-18T11:58:28Z</time></trkpt><trkpt lat="44.49586303928316" lon="6.343198476924329"><ele>1009.75</ele><time>2026-04-18T11:58:29Z</time></trkpt><trkpt lat="44.49591670152275" lon="6.3433839842697815"><ele>1013.5</ele><time>2026-04-18T11:58:30Z</time></trkpt><trkpt lat="44.495946046693746" lon="6.343566289799297"><ele>1017.25</ele><time>2026-04-18T11:58:31Z</time></trkpt><trkpt lat="44.49600892607538" lon="6.343734219456993"><ele>1021.0</ele><time>2026-04-18T11:58:32Z</time></trkpt><trkpt lat="44.49609811221631" lon="6.343859359740415"><ele>1018.25</ele><time>2026-04-18T11:58:33Z</time></trkpt><trkpt lat="44.496150688366626" lon="6.343948667013273"><ele>1015.5</ele><time>2026-04-18T11:58:34Z</time></trkpt><trkpt lat="44.49628764569077" lon="6.344077711468701"><ele>1012.75</ele><time>2026-04-18T11:58:35Z</time></trkpt><trkpt lat="44.49639521298317" lon="6.344172812862228"><ele>1010.0</ele><time>2026-04-18T11:58:36Z</time></trkpt><trkpt lat="44.49647380672541" lon="6.344275673520734"><ele>1010.0</ele><time>2026-04-18T11:58:37Z</time></trkpt><trkpt lat="44.496543506890504" lon="6.34440786164384"><ele>1010.0</ele><time>2026-04-18T11:58:38Z</time></trkpt><trkpt lat="44.49661271127891" lon="6.344544133436205"><ele>1010.0</ele><time>2026-04-18T11:58:39Z</time></trkpt><trkpt lat="44.496656144337216" lon="6.344707622702162"><ele>1010.0</ele><time>2026-04-18T11:58:40Z</time></trkpt><trkpt lat="44.49671200885081" lon="6.344860918651276"><ele>1014.25</ele><time>2026-04-18T11:58:41Z</time></trkpt><trkpt lat="44.49678251904664" lon="6.344984623440607"><ele>1018.5</ele><time>2026-04-18T11:58:42Z</time></trkpt><trkpt lat="44.49685258025544" lon="6.345078361178072"><ele>1022.75</ele><time>2026-04-18T11:58:43Z</time></trkpt><trkpt lat="44.49697012370437" lon="6.3451288231334955"><ele>1027.0</ele><time>2026-04-18T11:58:44Z</time></trkpt><trkpt lat="44.497113146337114" lon="6.34508514064942"><ele>1027.0</ele><time>2026-04-18T11:58:45Z</time></trkpt><trkpt lat="44.4972193176792" lon="6.345027364519464"><ele>1027.0</ele><time>2026-04-18T11:58:46Z</time></trkpt><trkpt lat="44.49732169821015" lon="6.344891738135575"><ele>1027.0</ele><time>2026-04-18T11:58:47Z</time></trkpt><trkpt lat="44.49741876517054" lon="6.344690743925732"><ele>1027.0</ele><time>2026-04-18T11:58:48Z</time></trkpt><trkpt lat="44.49749783289794" lon="6.344472724087981"><ele>1023.5</ele><time>2026-04-18T11:58:49Z</time></trkpt><trkpt lat="44.49758444178512" lon="6.344304345837137"><ele>1020.0</ele><time>2026-04-18T11:58:50Z</time></trkpt><trkpt lat="44.49765835681929" lon="6.344138508299203"><ele>1016.5</ele><time>2026-04-18T11:58:51Z</time></trkpt><trkpt lat="44.49773712131001" lon="6.343996431153007"><ele>1013.0</ele><time>2026-04-18T11:58:52Z</time></trkpt><trkpt lat="44.49782321482365" lon="6.343873408767701"><ele>1013.0</ele><time>2026-04-18T11:58:53Z</time></trkpt><trkpt lat="44.49793522783708" lon="6.34377313284993"><ele>1013.0</ele><time>2026-04-18T11:58:54Z</time></trkpt><trkpt lat="44.498055902857374" lon="6.343686207473738"><ele>1013.0</ele><time>2026-04-18T11:58:55Z</time></trkpt><trkpt lat="44.49817567649462" lon="6.343631447570918"><ele>1013.0</ele><time>2026-04-18T11:58:56Z</time></trkpt><trkpt lat="44.49830130247904" lon="6.343610409884132"><ele>1013.0</ele><time>2026-04-18T11:58:57Z</time></trkpt><trkpt lat="44.49842848422764" lon="6.343613145457112"><ele>1013.0</ele><time>2026-04-18T11:58:58Z</time></trkpt><trkpt lat="44.4985796102596" lon="6.343656314532545"><ele>1013.0</ele><time>2026-04-18T11:58:59Z</time></trkpt><trkpt lat="44.4986943665422" lon="6.343733346188933"><ele>1013.0</ele><time>2026-04-18T11:59:00Z</time></trkpt><trkpt lat="44.49881705257261" lon="6.343839359831336"><ele>1014.25</ele><time>2026-04-18T11:59:01Z</time></trkpt><trkpt lat="44.49891559024795" lon="6.343975654426331"><ele>1015.5</ele><time>2026-04-18T11:59:02Z</time></trkpt><trkpt lat="44.49900906963487" lon="6.344111522959988"><ele>1016.75</ele><time>2026-04-18T11:59:03Z</time></trkpt><trkpt lat="44.49905262276094" lon="6.344292518298304"><ele>1018.0</ele><time>2026-04-18T11:59:04Z</time></trkpt><trkpt lat="44.49908797746018" lon="6.34448167836467"><ele>1018.0</ele><time>2026-04-18T11:59:05Z</time></trkpt><trkpt lat="44.49910640569786" lon="6.344691662426461"><ele>1018.0</ele><time>2026-04-18T11:59:06Z</time></trkpt><trkpt lat="44.4991235053483" lon="6.344896482899941"><ele>1018.0</ele><time>2026-04-18T11:59:07Z</time></trkpt><trkpt lat="44.49914987406423" lon="6.345092858931029"><ele>1018.0</ele><time>2026-04-18T11:59:08Z</time></trkpt><trkpt lat="44.49920066982074" lon="6.3452623547523554"><ele>1019.5</ele><time>2026-04-18T11:59:09Z</time></trkpt><trkpt lat="44.499271661829724" lon="6.34540220987498"><ele>1021.0</ele><time>2026-04-18T11:59:10Z</time></trkpt><trkpt lat="44.499341870528546" lon="6.345540774833385"><ele>1022.5</ele><time>2026-04-18T11:59:11Z</time></trkpt><trkpt lat="44.49945855219842" lon="6.345618040112527"><ele>1024.0</ele><time>2026-04-18T11:59:12.001Z</time></trkpt><trkpt lat="44.49955457248534" lon="6.345703646829304"><ele>1025.6666666666665</ele><time>2026-04-18T11:59:13.001Z</time></trkpt><trkpt lat="44.49970059028572" lon="6.345692168804984"><ele>1027.3333333333333</ele><time>2026-04-18T11:59:14.001Z</time></trkpt><trkpt lat="44.499833984039284" lon="6.345623302350522"><ele>1029.0</ele><time>2026-04-18T11:59:15.001Z</time></trkpt><trkpt lat="44.50004902548663" lon="6.345528233427625"><ele>1026.25</ele><time>2026-04-18T11:59:16.001Z</time></trkpt><trkpt lat="44.5002093955207" lon="6.345470895313271"><ele>1023.5</ele><time>2026-04-18T11:59:17.001Z</time></trkpt><trkpt lat="44.500333300487284" lon="6.345452563247653"><ele>1020.75</ele><time>2026-04-18T11:59:18.001Z</time></trkpt><trkpt lat="44.50047034121674" lon="6.3454621922139784"><ele>1018.0</ele><time>2026-04-18T11:59:19.001Z</time></trkpt><trkpt lat="44.50060595187339" lon="6.345494197602373"><ele>1021.6666666666666</ele><time>2026-04-18T11:59:20.001Z</time></trkpt><trkpt lat="44.50077957111479" lon="6.345570822516033"><ele>1025.3333333333333</ele><time>2026-04-18T11:59:21.001Z</time></trkpt><trkpt lat="44.500949721660845" lon="6.3456549032757525"><ele>1029.0</ele><time>2026-04-18T11:59:22.001Z</time></trkpt><trkpt lat="44.50110196886241" lon="6.345732669766962"><ele>1027.6666666666667</ele><time>2026-04-18T11:59:23.001Z</time></trkpt><trkpt lat="44.501252639837915" lon="6.345788185275181"><ele>1026.3333333333335</ele><time>2026-04-18T11:59:24.001Z</time></trkpt><trkpt lat="44.501403292120166" lon="6.3458731999714235"><ele>1025.0</ele><time>2026-04-18T11:59:25.001Z</time></trkpt><trkpt lat="44.50157182006604" lon="6.345955612522427"><ele>1025.0</ele><time>2026-04-18T11:59:26.001Z</time></trkpt><trkpt lat="44.50171674971035" lon="6.346023393190297"><ele>1025.0</ele><time>2026-04-18T11:59:27.001Z</time></trkpt><trkpt lat="44.50184511992462" lon="6.346139908586604"><ele>1025.0</ele><time>2026-04-18T11:59:28.001Z</time></trkpt><trkpt lat="44.501937858916385" lon="6.346252664612297"><ele>1025.0</ele><time>2026-04-18T11:59:29.001Z</time></trkpt><trkpt lat="44.50203901159042" lon="6.346403977343736"><ele>1021.0</ele><time>2026-04-18T11:59:30.001Z</time></trkpt><trkpt lat="44.50212342520507" lon="6.346573045214427"><ele>1017.0</ele><time>2026-04-18T11:59:31.001Z</time></trkpt><trkpt lat="44.502181979729215" lon="6.346776081781754"><ele>1013.0</ele><time>2026-04-18T11:59:32.001Z</time></trkpt><trkpt lat="44.50221745645082" lon="6.347000931813435"><ele>1012.6666666666667</ele><time>2026-04-18T11:59:33.001Z</time></trkpt><trkpt lat="44.50224218437449" lon="6.347260564654263"><ele>1012.3333333333333</ele><time>2026-04-18T11:59:34.001Z</time></trkpt><trkpt lat="44.50225149739747" lon="6.347497710058285"><ele>1012.0</ele><time>2026-04-18T11:59:35.001Z</time></trkpt><trkpt lat="44.50225587163875" lon="6.347717775117629"><ele>1012.0</ele><time>2026-04-18T11:59:36.001Z</time></trkpt><trkpt lat="44.5022621531827" lon="6.347944046694378"><ele>1012.0</ele><time>2026-04-18T11:59:37.001Z</time></trkpt><trkpt lat="44.50230226726615" lon="6.348126385340326"><ele>1012.0</ele><time>2026-04-18T11:59:38.001Z</time></trkpt><trkpt lat="44.50230683293901" lon="6.348296165909294"><ele>1012.0</ele><time>2026-04-18T11:59:39.001Z</time></trkpt><trkpt lat="44.50246751748247" lon="6.348444572014009"><ele>1012.5</ele><time>2026-04-18T11:59:41.001Z</time></trkpt><trkpt lat="44.5025702419391" lon="6.348501832237859"><ele>1013.0</ele><time>2026-04-18T11:59:42Z</time></trkpt><trkpt lat="44.50272640222106" lon="6.348585193311536"><ele>1013.5</ele><time>2026-04-18T11:59:43Z</time></trkpt><trkpt lat="44.502827228124666" lon="6.348633386676895"><ele>1014.0</ele><time>2026-04-18T11:59:44Z</time></trkpt><trkpt lat="44.50300949266459" lon="6.348707584199716"><ele>1014.0</ele><time>2026-04-18T11:59:45Z</time></trkpt><trkpt lat="44.5031610328754" lon="6.348745272539716"><ele>1014.0</ele><time>2026-04-18T11:59:46Z</time></trkpt><trkpt lat="44.503293447457494" lon="6.34876737692264"><ele>1014.0</ele><time>2026-04-18T11:59:47Z</time></trkpt><trkpt lat="44.503419240668194" lon="6.3488200029807365"><ele>1014.0</ele><time>2026-04-18T11:59:48Z</time></trkpt><trkpt lat="44.503567789369036" lon="6.348935591675741"><ele>1014.0</ele><time>2026-04-18T11:59:49Z</time></trkpt><trkpt lat="44.50365155694232" lon="6.349052130978639"><ele>1014.0</ele><time>2026-04-18T11:59:50Z</time></trkpt><trkpt lat="44.50370110135992" lon="6.349194992303295"><ele>1014.0</ele><time>2026-04-18T11:59:51Z</time></trkpt><trkpt lat="44.50374054292892" lon="6.349363723040437"><ele>1014.0</ele><time>2026-04-18T11:59:52Z</time></trkpt><trkpt lat="44.50376958869644" lon="6.349554383139945"><ele>1012.4000000000001</ele><time>2026-04-18T11:59:53Z</time></trkpt><trkpt lat="44.50384326770812" lon="6.349698776847908"><ele>1010.8000000000001</ele><time>2026-04-18T11:59:54Z</time></trkpt><trkpt lat="44.50390169860007" lon="6.349818799069211"><ele>1009.1999999999999</ele><time>2026-04-18T11:59:55Z</time></trkpt><trkpt lat="44.50399061687104" lon="6.349893474031833"><ele>1007.5999999999999</ele><time>2026-04-18T11:59:56Z</time></trkpt><trkpt lat="44.50408832874028" lon="6.34991242101916"><ele>1006.0</ele><time>2026-04-18T11:59:57Z</time></trkpt><trkpt lat="44.50422004009887" lon="6.349810319302432"><ele>1006.0</ele><time>2026-04-18T11:59:58Z</time></trkpt><trkpt lat="44.5043226464536" lon="6.349734151195267"><ele>1006.0</ele><time>2026-04-18T11:59:59Z</time></trkpt><trkpt lat="44.5043781853495" lon="6.349576157919275"><ele>1006.0</ele><time>2026-04-18T12:00:00Z</time></trkpt><trkpt lat="44.50443579582603" lon="6.34943061538095"><ele>1006.0</ele><time>2026-04-18T12:00:01Z</time></trkpt><trkpt lat="44.50451625626753" lon="6.3492795070478705"><ele>1003.25</ele><time>2026-04-18T12:00:02Z</time></trkpt><trkpt lat="44.50459859842998" lon="6.349125896961945"><ele>1000.5</ele><time>2026-04-18T12:00:03Z</time></trkpt><trkpt lat="44.50470151550131" lon="6.34906843049178"><ele>997.75</ele><time>2026-04-18T12:00:04Z</time></trkpt><trkpt lat="44.50481416862136" lon="6.349037552235799"><ele>995.0</ele><time>2026-04-18T12:00:05Z</time></trkpt><trkpt lat="44.50492873616795" lon="6.3490639593005715"><ele>995.0</ele><time>2026-04-18T12:00:06Z</time></trkpt><trkpt lat="44.50502835255577" lon="6.3490947793290795"><ele>995.0</ele><time>2026-04-18T12:00:07Z</time></trkpt><trkpt lat="44.50515719722098" lon="6.349205306569183"><ele>995.0</ele><time>2026-04-18T12:00:08Z</time></trkpt><trkpt lat="44.50524860812674" lon="6.349298667433784"><ele>995.0</ele><time>2026-04-18T12:00:09Z</time></trkpt><trkpt lat="44.50535799411464" lon="6.349408145952033"><ele>996.0</ele><time>2026-04-18T12:00:10Z</time></trkpt><trkpt lat="44.50551999946956" lon="6.3495721949806105"><ele>997.0</ele><time>2026-04-18T12:00:11Z</time></trkpt><trkpt lat="44.50567396198018" lon="6.349700792613155"><ele>998.0</ele><time>2026-04-18T12:00:12Z</time></trkpt><trkpt lat="44.5057965834033" lon="6.349853490652676"><ele>998.0</ele><time>2026-04-18T12:00:13Z</time></trkpt><trkpt lat="44.5059257837506" lon="6.3499887611641785"><ele>998.0</ele><time>2026-04-18T12:00:14Z</time></trkpt><trkpt lat="44.506065295763605" lon="6.350126350513114"><ele>998.0</ele><time>2026-04-18T12:00:15Z</time></trkpt><trkpt lat="44.50620441039673" lon="6.350269664722301"><ele>998.3333333333334</ele><time>2026-04-18T12:00:16Z</time></trkpt><trkpt lat="44.50635001289328" lon="6.350426505237139"><ele>998.6666666666667</ele><time>2026-04-18T12:00:17Z</time></trkpt><trkpt lat="44.50646658319366" lon="6.350576963835202"><ele>999.0</ele><time>2026-04-18T12:00:18Z</time></trkpt><trkpt lat="44.506604835120726" lon="6.350730118487882"><ele>999.0</ele><time>2026-04-18T12:00:19Z</time></trkpt><trkpt lat="44.50676075791287" lon="6.350883482263582"><ele>999.0</ele><time>2026-04-18T12:00:20Z</time></trkpt><trkpt lat="44.50692073300752" lon="6.351033682142984"><ele>999.0</ele><time>2026-04-18T12:00:21Z</time></trkpt><trkpt lat="44.50708318380301" lon="6.35118559459438"><ele>996.0</ele><time>2026-04-18T12:00:22Z</time></trkpt><trkpt lat="44.507234078656296" lon="6.351333730690814"><ele>993.0</ele><time>2026-04-18T12:00:23Z</time></trkpt><trkpt lat="44.50740170503487" lon="6.351474119880282"><ele>990.0</ele><time>2026-04-18T12:00:24Z</time></trkpt><trkpt lat="44.50757118568804" lon="6.351607448034461"><ele>990.0</ele><time>2026-04-18T12:00:25Z</time></trkpt><trkpt lat="44.50774082194085" lon="6.351706041344709"><ele>990.0</ele><time>2026-04-18T12:00:26Z</time></trkpt><trkpt lat="44.507924433872276" lon="6.351790605527654"><ele>990.0</ele><time>2026-04-18T12:00:27Z</time></trkpt><trkpt lat="44.508149158669106" lon="6.351818559956422"><ele>984.6666666666667</ele><time>2026-04-18T12:00:28Z</time></trkpt><trkpt lat="44.50832428793933" lon="6.351892420838724"><ele>979.3333333333334</ele><time>2026-04-18T12:00:29Z</time></trkpt><trkpt lat="44.50848073730974" lon="6.351969564513123"><ele>974.0</ele><time>2026-04-18T12:00:30Z</time></trkpt><trkpt lat="44.508622596580466" lon="6.352047963120492"><ele>974.0</ele><time>2026-04-18T12:00:31Z</time></trkpt><trkpt lat="44.508700262566684" lon="6.352151297247907"><ele>974.0</ele><time>2026-04-18T12:00:32Z</time></trkpt><trkpt lat="44.50877590961168" lon="6.352274346879323"><ele>974.0</ele><time>2026-04-18T12:00:33Z</time></trkpt><trkpt lat="44.5088603492209" lon="6.352434224980736"><ele>974.0</ele><time>2026-04-18T12:00:34Z</time></trkpt><trkpt lat="44.50891313812205" lon="6.352622585929489"><ele>971.3333333333334</ele><time>2026-04-18T12:00:35Z</time></trkpt><trkpt lat="44.50895116178741" lon="6.352833041031267"><ele>968.6666666666667</ele><time>2026-04-18T12:00:36Z</time></trkpt><trkpt lat="44.50896063200859" lon="6.353056326208973"><ele>966.0</ele><time>2026-04-18T12:00:37Z</time></trkpt><trkpt lat="44.508943529816655" lon="6.3532926033973744"><ele>965.3333333333333</ele><time>2026-04-18T12:00:38Z</time></trkpt><trkpt lat="44.50891289896856" lon="6.353520830887892"><ele>964.6666666666666</ele><time>2026-04-18T12:00:39Z</time></trkpt><trkpt lat="44.50888435094657" lon="6.353743153018123"><ele>964.0</ele><time>2026-04-18T12:00:40Z</time></trkpt><trkpt lat="44.508861907701586" lon="6.353965179657793"><ele>964.5</ele><time>2026-04-18T12:00:41Z</time></trkpt><trkpt lat="44.50885274658543" lon="6.354167777008417"><ele>965.0</ele><time>2026-04-18T12:00:42Z</time></trkpt><trkpt lat="44.508860443244494" lon="6.354386651859486"><ele>965.5</ele><time>2026-04-18T12:00:43Z</time></trkpt><trkpt lat="44.50887424486133" lon="6.354575588309294"><ele>966.0</ele><time>2026-04-18T12:00:44Z</time></trkpt><trkpt lat="44.50895809346381" lon="6.354761177977975"><ele>966.0</ele><time>2026-04-18T12:00:45Z</time></trkpt><trkpt lat="44.5090394326671" lon="6.354908080160789"><ele>966.0</ele><time>2026-04-18T12:00:46Z</time></trkpt><trkpt lat="44.509148526458226" lon="6.3550392548213015"><ele>966.0</ele><time>2026-04-18T12:00:47Z</time></trkpt><trkpt lat="44.509274559790434" lon="6.355196134626709"><ele>966.0</ele><time>2026-04-18T12:00:48Z</time></trkpt><trkpt lat="44.5094632276817" lon="6.355440469538047"><ele>962.3333333333333</ele><time>2026-04-18T12:00:49Z</time></trkpt><trkpt lat="44.5095991990144" lon="6.355609757723786"><ele>958.6666666666666</ele><time>2026-04-18T12:00:50Z</time></trkpt><trkpt lat="44.509736702729874" lon="6.355798340715884"><ele>955.0</ele><time>2026-04-18T12:00:51Z</time></trkpt><trkpt lat="44.50986079957106" lon="6.355958373967483"><ele>955.0</ele><time>2026-04-18T12:00:52Z</time></trkpt><trkpt lat="44.50997628885972" lon="6.356137781421344"><ele>955.0</ele><time>2026-04-18T12:00:53Z</time></trkpt><trkpt lat="44.51011172471288" lon="6.3562946004970255"><ele>955.0</ele><time>2026-04-18T12:00:54Z</time></trkpt><trkpt lat="44.51024744728794" lon="6.3564400741002585"><ele>954.75</ele><time>2026-04-18T12:00:55Z</time></trkpt><trkpt lat="44.51037347440818" lon="6.356554605815525"><ele>954.5</ele><time>2026-04-18T12:00:56Z</time></trkpt><trkpt lat="44.51048740576311" lon="6.3566296992634"><ele>954.25</ele><time>2026-04-18T12:00:57Z</time></trkpt><trkpt lat="44.51058693479166" lon="6.356627363469227"><ele>954.0</ele><time>2026-04-18T12:00:58Z</time></trkpt><trkpt lat="44.51072967932605" lon="6.356624187191289"><ele>954.0</ele><time>2026-04-18T12:00:59Z</time></trkpt><trkpt lat="44.51085313882246" lon="6.356595658293122"><ele>954.0</ele><time>2026-04-18T12:01:00Z</time></trkpt><trkpt lat="44.51095889312397" lon="6.356523699110101"><ele>954.0</ele><time>2026-04-18T12:01:01Z</time></trkpt><trkpt lat="44.51107547891057" lon="6.356373315143807"><ele>954.0</ele><time>2026-04-18T12:01:02Z</time></trkpt><trkpt lat="44.51120349440548" lon="6.356254578279342"><ele>950.5</ele><time>2026-04-18T12:01:03Z</time></trkpt><trkpt lat="44.51134832424653" lon="6.356173078500854"><ele>947.0</ele><time>2026-04-18T12:01:04Z</time></trkpt><trkpt lat="44.51147219325767" lon="6.356098509760425"><ele>943.5</ele><time>2026-04-18T12:01:05Z</time></trkpt><trkpt lat="44.51159243592036" lon="6.356075781658431"><ele>940.0</ele><time>2026-04-18T12:01:06Z</time></trkpt><trkpt lat="44.511716065195124" lon="6.356073527513876"><ele>940.0</ele><time>2026-04-18T12:01:07Z</time></trkpt><trkpt lat="44.511834556401006" lon="6.356128829594705"><ele>940.0</ele><time>2026-04-18T12:01:08Z</time></trkpt><trkpt lat="44.511973002740646" lon="6.356246333639444"><ele>940.0</ele><time>2026-04-18T12:01:09Z</time></trkpt><trkpt lat="44.51208159676984" lon="6.356349527421811"><ele>940.0</ele><time>2026-04-18T12:01:10Z</time></trkpt><trkpt lat="44.51214046713965" lon="6.356490861554011"><ele>938.5</ele><time>2026-04-18T12:01:11Z</time></trkpt><trkpt lat="44.512215769048304" lon="6.356645419298997"><ele>937.0</ele><time>2026-04-18T12:01:12.001Z</time></trkpt><trkpt lat="44.51223529797258" lon="6.356866681903911"><ele>935.5</ele><time>2026-04-18T12:01:13.001Z</time></trkpt><trkpt lat="44.51225306691126" lon="6.357074629254093"><ele>934.0</ele><time>2026-04-18T12:01:14.001Z</time></trkpt><trkpt lat="44.51225015372991" lon="6.3572812579057025"><ele>933.0</ele><time>2026-04-18T12:01:15.001Z</time></trkpt><trkpt lat="44.512258306410494" lon="6.3574938930108"><ele>932.0</ele><time>2026-04-18T12:01:16.001Z</time></trkpt><trkpt lat="44.512224922950004" lon="6.357708765007026"><ele>931.0</ele><time>2026-04-18T12:01:17.001Z</time></trkpt><trkpt lat="44.51217886802881" lon="6.357937326871766"><ele>929.3333333333333</ele><time>2026-04-18T12:01:18.001Z</time></trkpt><trkpt lat="44.51210486767645" lon="6.358165140399082"><ele>927.6666666666667</ele><time>2026-04-18T12:01:19.001Z</time></trkpt><trkpt lat="44.511994766762996" lon="6.3583691429920055"><ele>926.0</ele><time>2026-04-18T12:01:20.001Z</time></trkpt><trkpt lat="44.511935917645616" lon="6.358610163843005"><ele>931.0</ele><time>2026-04-18T12:01:21.001Z</time></trkpt><trkpt lat="44.5118547391988" lon="6.3588378152820475"><ele>936.0</ele><time>2026-04-18T12:01:22.001Z</time></trkpt><trkpt lat="44.511780677137374" lon="6.359075967914235"><ele>941.0</ele><time>2026-04-18T12:01:23.001Z</time></trkpt><trkpt lat="44.51169152936416" lon="6.359310055410729"><ele>941.0</ele><time>2026-04-18T12:01:24.001Z</time></trkpt><trkpt lat="44.51162661923454" lon="6.359543196093269"><ele>941.0</ele><time>2026-04-18T12:01:25.001Z</time></trkpt><trkpt lat="44.51156526684686" lon="6.359748239178367"><ele>941.0</ele><time>2026-04-18T12:01:26.001Z</time></trkpt><trkpt lat="44.511543587404276" lon="6.3599463395090625"><ele>940.6666666666667</ele><time>2026-04-18T12:01:27.001Z</time></trkpt><trkpt lat="44.51157969433988" lon="6.360165709623486"><ele>940.3333333333333</ele><time>2026-04-18T12:01:28.001Z</time></trkpt><trkpt lat="44.51163362376113" lon="6.360352889098297"><ele>940.0</ele><time>2026-04-18T12:01:29.001Z</time></trkpt><trkpt lat="44.5117097886556" lon="6.36053559287752"><ele>940.0</ele><time>2026-04-18T12:01:30.001Z</time></trkpt><trkpt lat="44.511807686303214" lon="6.3607042308595"><ele>940.0</ele><time>2026-04-18T12:01:31.001Z</time></trkpt><trkpt lat="44.511931475067875" lon="6.360829873145312"><ele>940.0</ele><time>2026-04-18T12:01:32.001Z</time></trkpt><trkpt lat="44.51207456899068" lon="6.360984496374342"><ele>933.6666666666666</ele><time>2026-04-18T12:01:33.001Z</time></trkpt><trkpt lat="44.51224372834619" lon="6.361160304115442"><ele>927.3333333333333</ele><time>2026-04-18T12:01:34.001Z</time></trkpt><trkpt lat="44.512431396059206" lon="6.361294640631018"><ele>921.0</ele><time>2026-04-18T12:01:35.001Z</time></trkpt><trkpt lat="44.5125435571376" lon="6.36143083594923"><ele>921.0</ele><time>2026-04-18T12:01:36.001Z</time></trkpt><trkpt lat="44.51266766609057" lon="6.361553296057689"><ele>921.0</ele><time>2026-04-18T12:01:37.001Z</time></trkpt><trkpt lat="44.512741311242166" lon="6.361707889068284"><ele>921.0</ele><time>2026-04-18T12:01:38.001Z</time></trkpt><trkpt lat="44.51281845096168" lon="6.361872981303032"><ele>921.0</ele><time>2026-04-18T12:01:39.001Z</time></trkpt><trkpt lat="44.51286119012999" lon="6.362082300416274"><ele>923.0</ele><time>2026-04-18T12:01:40.001Z</time></trkpt><trkpt lat="44.51289617950828" lon="6.362295315025087"><ele>925.0</ele><time>2026-04-18T12:01:41.001Z</time></trkpt><trkpt lat="44.512931317179394" lon="6.362520029264398"><ele>927.0</ele><time>2026-04-18T12:01:42.001Z</time></trkpt><trkpt lat="44.51295908157952" lon="6.362730379056252"><ele>921.5</ele><time>2026-04-18T12:01:43.001Z</time></trkpt><trkpt lat="44.512995758375354" lon="6.362933327410094"><ele>916.0</ele><time>2026-04-18T12:01:44.001Z</time></trkpt><trkpt lat="44.513064395435016" lon="6.363124288063109"><ele>910.5</ele><time>2026-04-18T12:01:45.001Z</time></trkpt><trkpt lat="44.51313129836019" lon="6.36329966831402"><ele>905.0</ele><time>2026-04-18T12:01:46.001Z</time></trkpt><trkpt lat="44.51320502549191" lon="6.363481758879548"><ele>904.6666666666667</ele><time>2026-04-18T12:01:47.001Z</time></trkpt><trkpt lat="44.51330098159044" lon="6.363640910039519"><ele>904.3333333333333</ele><time>2026-04-18T12:01:48Z</time></trkpt><trkpt lat="44.51341627503204" lon="6.363802895206822"><ele>904.0</ele><time>2026-04-18T12:01:49Z</time></trkpt><trkpt lat="44.513513523483496" lon="6.363953769979926"><ele>904.5</ele><time>2026-04-18T12:01:50Z</time></trkpt><trkpt lat="44.513637118491296" lon="6.364056587613407"><ele>905.0</ele><time>2026-04-18T12:01:51Z</time></trkpt><trkpt lat="44.513706910171514" lon="6.3641982501043435"><ele>905.5</ele><time>2026-04-18T12:01:52Z</time></trkpt><trkpt lat="44.51375919774925" lon="6.364370826946941"><ele>906.0</ele><time>2026-04-18T12:01:53Z</time></trkpt><trkpt lat="44.51380380195711" lon="6.364543033793345"><ele>898.6666666666667</ele><time>2026-04-18T12:01:54Z</time></trkpt><trkpt lat="44.513791254025065" lon="6.364748467101523"><ele>891.3333333333334</ele><time>2026-04-18T12:01:55Z</time></trkpt><trkpt lat="44.51379793725905" lon="6.364961156525852"><ele>884.0</ele><time>2026-04-18T12:01:56Z</time></trkpt><trkpt lat="44.51375975022099" lon="6.365173858995994"><ele>885.3333333333334</ele><time>2026-04-18T12:01:57Z</time></trkpt><trkpt lat="44.51368938576475" lon="6.365383108503297"><ele>886.6666666666667</ele><time>2026-04-18T12:01:58Z</time></trkpt><trkpt lat="44.51361322192796" lon="6.365590531280449"><ele>888.0</ele><time>2026-04-18T12:01:59Z</time></trkpt><trkpt lat="44.51348262508843" lon="6.365769083345834"><ele>888.0</ele><time>2026-04-18T12:02:00Z</time></trkpt><trkpt lat="44.51342597081603" lon="6.3659925914872675"><ele>888.0</ele><time>2026-04-18T12:02:01Z</time></trkpt><trkpt lat="44.513373044209814" lon="6.366215340958707"><ele>888.0</ele><time>2026-04-18T12:02:02Z</time></trkpt><trkpt lat="44.51336787038873" lon="6.366460702436824"><ele>886.0</ele><time>2026-04-18T12:02:03Z</time></trkpt><trkpt lat="44.513363644057016" lon="6.366686885157795"><ele>884.0</ele><time>2026-04-18T12:02:04Z</time></trkpt><trkpt lat="44.513405532612644" lon="6.366905524517155"><ele>882.0</ele><time>2026-04-18T12:02:05Z</time></trkpt><trkpt lat="44.51347418311187" lon="6.36713967106362"><ele>883.6666666666667</ele><time>2026-04-18T12:02:06Z</time></trkpt><trkpt lat="44.51357348395663" lon="6.367427550858976"><ele>885.3333333333334</ele><time>2026-04-18T12:02:07Z</time></trkpt><trkpt lat="44.513665330060704" lon="6.36768950173596"><ele>887.0</ele><time>2026-04-18T12:02:08Z</time></trkpt><trkpt lat="44.5137530185892" lon="6.367939595037682"><ele>879.0</ele><time>2026-04-18T12:02:09Z</time></trkpt><trkpt lat="44.513840559626345" lon="6.368222018210764"><ele>871.0</ele><time>2026-04-18T12:02:10Z</time></trkpt><trkpt lat="44.51393009274486" lon="6.368472491788086"><ele>863.0</ele><time>2026-04-18T12:02:11Z</time></trkpt><trkpt lat="44.51403665369954" lon="6.368727832131373"><ele>863.3333333333334</ele><time>2026-04-18T12:02:12Z</time></trkpt><trkpt lat="44.514144407317744" lon="6.368972839566652"><ele>863.6666666666667</ele><time>2026-04-18T12:02:13Z</time></trkpt><trkpt lat="44.514233547647954" lon="6.369211424392987"><ele>864.0</ele><time>2026-04-18T12:02:14Z</time></trkpt><trkpt lat="44.51431795021719" lon="6.3694346401881665"><ele>864.0</ele><time>2026-04-18T12:02:15Z</time></trkpt><trkpt lat="44.5144137816863" lon="6.369646504137792"><ele>864.0</ele><time>2026-04-18T12:02:16Z</time></trkpt><trkpt lat="44.51448393400957" lon="6.369855746143719"><ele>864.0</ele><time>2026-04-18T12:02:17Z</time></trkpt><trkpt lat="44.514520883825725" lon="6.370043486242646"><ele>864.5</ele><time>2026-04-18T12:02:18Z</time></trkpt><trkpt lat="44.514561009955436" lon="6.370214566472195"><ele>865.0</ele><time>2026-04-18T12:02:19Z</time></trkpt><trkpt lat="44.5145487916349" lon="6.370423796430881"><ele>865.5</ele><time>2026-04-18T12:02:20Z</time></trkpt><trkpt lat="44.514505212535724" lon="6.370625436864548"><ele>866.0</ele><time>2026-04-18T12:02:21Z</time></trkpt><trkpt lat="44.51444199843768" lon="6.370796493229435"><ele>864.5</ele><time>2026-04-18T12:02:22Z</time></trkpt><trkpt lat="44.51436914159696" lon="6.370946995713574"><ele>863.0</ele><time>2026-04-18T12:02:23Z</time></trkpt><trkpt lat="44.514262040907596" lon="6.371077530978998"><ele>861.5</ele><time>2026-04-18T12:02:24Z</time></trkpt><trkpt lat="44.51413176797076" lon="6.371199658347463"><ele>860.0</ele><time>2026-04-18T12:02:25Z</time></trkpt><trkpt lat="44.51400250635099" lon="6.3713087395365"><ele>860.0</ele><time>2026-04-18T12:02:26Z</time></trkpt><trkpt lat="44.51388418748643" lon="6.371457912848299"><ele>860.0</ele><time>2026-04-18T12:02:27Z</time></trkpt><trkpt lat="44.51376810506046" lon="6.371594943733918"><ele>860.0</ele><time>2026-04-18T12:02:28Z</time></trkpt><trkpt lat="44.513683374427245" lon="6.371758816141062"><ele>860.0</ele><time>2026-04-18T12:02:29Z</time></trkpt><trkpt lat="44.51365210751759" lon="6.371931228381493"><ele>860.0</ele><time>2026-04-18T12:02:30Z</time></trkpt><trkpt lat="44.51363230955618" lon="6.37210314788588"><ele>860.0</ele><time>2026-04-18T12:02:31Z</time></trkpt><trkpt lat="44.51363097965324" lon="6.372299851619743"><ele>860.0</ele><time>2026-04-18T12:02:32Z</time></trkpt><trkpt lat="44.51365829004317" lon="6.372496508293726"><ele>855.6666666666667</ele><time>2026-04-18T12:02:33Z</time></trkpt><trkpt lat="44.51376098703253" lon="6.3727036571435365"><ele>851.3333333333333</ele><time>2026-04-18T12:02:34Z</time></trkpt><trkpt lat="44.5138348021278" lon="6.372927709198389"><ele>847.0</ele><time>2026-04-18T12:02:35Z</time></trkpt><trkpt lat="44.51389027365818" lon="6.373145231548609"><ele>847.0</ele><time>2026-04-18T12:02:36Z</time></trkpt><trkpt lat="44.51395585413029" lon="6.373393254217949"><ele>847.0</ele><time>2026-04-18T12:02:37Z</time></trkpt><trkpt lat="44.5140268550326" lon="6.373654742185712"><ele>847.0</ele><time>2026-04-18T12:02:38Z</time></trkpt><trkpt lat="44.514092966603855" lon="6.373932103025451"><ele>847.0</ele><time>2026-04-18T12:02:39Z</time></trkpt><trkpt lat="44.514177782332986" lon="6.37420028868817"><ele>847.0</ele><time>2026-04-18T12:02:40Z</time></trkpt><trkpt lat="44.51424748646358" lon="6.374466532748678"><ele>847.0</ele><time>2026-04-18T12:02:41Z</time></trkpt><trkpt lat="44.51431888699593" lon="6.374747682573762"><ele>847.0</ele><time>2026-04-18T12:02:42Z</time></trkpt><trkpt lat="44.51438193942027" lon="6.375035560630197"><ele>847.0</ele><time>2026-04-18T12:02:43Z</time></trkpt><trkpt lat="44.51446541995764" lon="6.3753280655816535"><ele>847.0</ele><time>2026-04-18T12:02:44Z</time></trkpt><trkpt lat="44.5145407532318" lon="6.3756002401151015"><ele>842.0</ele><time>2026-04-18T12:02:45Z</time></trkpt><trkpt lat="44.51461765069624" lon="6.375854311748083"><ele>837.0</ele><time>2026-04-18T12:02:46Z</time></trkpt><trkpt lat="44.514667927801" lon="6.376115178591833"><ele>832.0</ele><time>2026-04-18T12:02:47Z</time></trkpt><trkpt lat="44.51474585637899" lon="6.376340608447833"><ele>832.3333333333333</ele><time>2026-04-18T12:02:48Z</time></trkpt><trkpt lat="44.51486043210137" lon="6.376560539537147"><ele>832.6666666666667</ele><time>2026-04-18T12:02:49Z</time></trkpt><trkpt lat="44.51496524988008" lon="6.376777061292164"><ele>833.0</ele><time>2026-04-18T12:02:50Z</time></trkpt><trkpt lat="44.51509535101991" lon="6.376979505859892"><ele>833.0</ele><time>2026-04-18T12:02:51Z</time></trkpt><trkpt lat="44.515271071179576" lon="6.377166534339926"><ele>833.0</ele><time>2026-04-18T12:02:52Z</time></trkpt><trkpt lat="44.51541335543721" lon="6.377382678313113"><ele>833.0</ele><time>2026-04-18T12:02:53Z</time></trkpt><trkpt lat="44.515552265435225" lon="6.377593210401495"><ele>829.6666666666667</ele><time>2026-04-18T12:02:54Z</time></trkpt><trkpt lat="44.51568841802533" lon="6.377818454359438"><ele>826.3333333333333</ele><time>2026-04-18T12:02:55Z</time></trkpt><trkpt lat="44.515802552613025" lon="6.37805161964727"><ele>823.0</ele><time>2026-04-18T12:02:56Z</time></trkpt><trkpt lat="44.51589412331209" lon="6.378283398350715"><ele>823.0</ele><time>2026-04-18T12:02:57Z</time></trkpt><trkpt lat="44.51597739171409" lon="6.3785401479781285"><ele>823.0</ele><time>2026-04-18T12:02:58Z</time></trkpt><trkpt lat="44.51605609759655" lon="6.3788442344369765"><ele>823.0</ele><time>2026-04-18T12:02:59Z</time></trkpt><trkpt lat="44.51611467568892" lon="6.379130030852266"><ele>825.0</ele><time>2026-04-18T12:03:00Z</time></trkpt><trkpt lat="44.51616917725468" lon="6.379439442954089"><ele>827.0</ele><time>2026-04-18T12:03:01Z</time></trkpt><trkpt lat="44.516224272866644" lon="6.379761407428621"><ele>817.5</ele><time>2026-04-18T12:03:02Z</time></trkpt><trkpt lat="44.51628081168912" lon="6.3800918062602445"><ele>808.0</ele><time>2026-04-18T12:03:03.001Z</time></trkpt><trkpt lat="44.51633661461644" lon="6.380414096750285"><ele>809.6666666666666</ele><time>2026-04-18T12:03:04.001Z</time></trkpt><trkpt lat="44.516392062262696" lon="6.380725073733129"><ele>811.3333333333333</ele><time>2026-04-18T12:03:05.001Z</time></trkpt><trkpt lat="44.51644526287546" lon="6.381018903251"><ele>813.0</ele><time>2026-04-18T12:03:06.001Z</time></trkpt><trkpt lat="44.51650041058616" lon="6.381299812487592"><ele>813.3333333333333</ele><time>2026-04-18T12:03:07.001Z</time></trkpt><trkpt lat="44.51656190723382" lon="6.381577741760874"><ele>813.6666666666666</ele><time>2026-04-18T12:03:08.001Z</time></trkpt><trkpt lat="44.51663237476769" lon="6.381843884891934"><ele>814.0</ele><time>2026-04-18T12:03:09.001Z</time></trkpt><trkpt lat="44.516716776894356" lon="6.382113843938344"><ele>816.6666666666666</ele><time>2026-04-18T12:03:10.001Z</time></trkpt><trkpt lat="44.51681913437827" lon="6.382364238684826"><ele>819.3333333333333</ele><time>2026-04-18T12:03:11.001Z</time></trkpt><trkpt lat="44.516897015333875" lon="6.382619300267058"><ele>822.0</ele><time>2026-04-18T12:03:12.001Z</time></trkpt><trkpt lat="44.51700747680542" lon="6.382853413440863"><ele>816.6666666666667</ele><time>2026-04-18T12:03:13.001Z</time></trkpt><trkpt lat="44.51709557573583" lon="6.383081992167688"><ele>811.3333333333334</ele><time>2026-04-18T12:03:14.001Z</time></trkpt><trkpt lat="44.51721475387415" lon="6.383278388661699"><ele>806.0</ele><time>2026-04-18T12:03:15.001Z</time></trkpt><trkpt lat="44.517319526346164" lon="6.38346044044284"><ele>806.0</ele><time>2026-04-18T12:03:16.001Z</time></trkpt><trkpt lat="44.51744397155696" lon="6.383629030704367"><ele>806.0</ele><time>2026-04-18T12:03:17.001Z</time></trkpt><trkpt lat="44.51757388243383" lon="6.383782400918428"><ele>806.0</ele><time>2026-04-18T12:03:18.001Z</time></trkpt><trkpt lat="44.517692330997605" lon="6.383908473457458"><ele>805.5</ele><time>2026-04-18T12:03:19.001Z</time></trkpt><trkpt lat="44.517813974534974" lon="6.384044335748137"><ele>805.0</ele><time>2026-04-18T12:03:20.001Z</time></trkpt><trkpt lat="44.517913906690964" lon="6.384153326275857"><ele>804.5</ele><time>2026-04-18T12:03:21.001Z</time></trkpt><trkpt lat="44.51799342362957" lon="6.384235036516214"><ele>804.0</ele><time>2026-04-18T12:03:22.001Z</time></trkpt><trkpt lat="44.51806876257001" lon="6.3843048719035895"><ele>804.0</ele><time>2026-04-18T12:03:23.001Z</time></trkpt><trkpt lat="44.518148592744986" lon="6.384376042190519"><ele>804.0</ele><time>2026-04-18T12:03:24.001Z</time></trkpt><trkpt lat="44.51823070103648" lon="6.384432095630659"><ele>804.0</ele><time>2026-04-18T12:03:25.001Z</time></trkpt><trkpt lat="44.518265580912455" lon="6.384534205725684"><ele>804.0</ele><time>2026-04-18T12:03:26.001Z</time></trkpt><trkpt lat="44.51835105679355" lon="6.3846200596721765"><ele>804.0</ele><time>2026-04-18T12:03:27.001Z</time></trkpt><trkpt lat="44.51842791587288" lon="6.384697984326278"><ele>803.8000000000001</ele><time>2026-04-18T12:03:28.001Z</time></trkpt><trkpt lat="44.51850744557347" lon="6.384756913504279"><ele>803.6</ele><time>2026-04-18T12:03:29.001Z</time></trkpt><trkpt lat="44.51859395010402" lon="6.384827203577151"><ele>803.4</ele><time>2026-04-18T12:03:30.001Z</time></trkpt><trkpt lat="44.51866778520956" lon="6.384900260068725"><ele>803.2</ele><time>2026-04-18T12:03:31.001Z</time></trkpt><trkpt lat="44.51873476445058" lon="6.384985166579817"><ele>803.0</ele><time>2026-04-18T12:03:32.001Z</time></trkpt><trkpt lat="44.51881002472552" lon="6.385081586112536"><ele>803.0</ele><time>2026-04-18T12:03:33.001Z</time></trkpt><trkpt lat="44.51888933099479" lon="6.385173652299616"><ele>803.0</ele><time>2026-04-18T12:03:34.001Z</time></trkpt><trkpt lat="44.51896947444323" lon="6.385265427765578"><ele>803.0</ele><time>2026-04-18T12:03:35.001Z</time></trkpt><trkpt lat="44.51905451333093" lon="6.385398119346265"><ele>803.0</ele><time>2026-04-18T12:03:36.001Z</time></trkpt><trkpt lat="44.519122223408374" lon="6.385524693296953"><ele>803.0</ele><time>2026-04-18T12:03:37.001Z</time></trkpt><trkpt lat="44.51918798765601" lon="6.385650674095854"><ele>803.5999999999999</ele><time>2026-04-18T12:03:38.001Z</time></trkpt><trkpt lat="44.519226939891745" lon="6.385802230097729"><ele>804.1999999999999</ele><time>2026-04-18T12:03:39.001Z</time></trkpt><trkpt lat="44.51925156948689" lon="6.385948323100078"><ele>804.8</ele><time>2026-04-18T12:03:40.001Z</time></trkpt><trkpt lat="44.519280815663556" lon="6.386096442761846"><ele>805.4</ele><time>2026-04-18T12:03:41.001Z</time></trkpt><trkpt lat="44.519296671334274" lon="6.386256294205231"><ele>806.0</ele><time>2026-04-18T12:03:42.001Z</time></trkpt><trkpt lat="44.51932449963434" lon="6.3863841365968845"><ele>806.0</ele><time>2026-04-18T12:03:43.001Z</time></trkpt><trkpt lat="44.519326310326576" lon="6.386509224801701"><ele>806.0</ele><time>2026-04-18T12:03:44.001Z</time></trkpt><trkpt lat="44.519348582037004" lon="6.386632121653348"><ele>806.0</ele><time>2026-04-18T12:03:45.001Z</time></trkpt><trkpt lat="44.51933753298291" lon="6.386738645409721"><ele>806.0</ele><time>2026-04-18T12:03:46.001Z</time></trkpt><trkpt lat="44.51928241212037" lon="6.386900111882365"><ele>806.0</ele><time>2026-04-18T12:03:48.001Z</time></trkpt><trkpt lat="44.51928011420745" lon="6.387043216446248"><ele>806.4</ele><time>2026-04-18T12:03:50.001Z</time></trkpt><trkpt lat="44.51927058372323" lon="6.38720122233486"><ele>806.8</ele><time>2026-04-18T12:03:52.001Z</time></trkpt><trkpt lat="44.519263155583616" lon="6.38730173258844"><ele>807.1999999999999</ele><time>2026-04-18T12:03:53.001Z</time></trkpt><trkpt lat="44.51925106558135" lon="6.387411571441865"><ele>807.5999999999999</ele><time>2026-04-18T12:03:54Z</time></trkpt><trkpt lat="44.51921936450563" lon="6.387538694870015"><ele>808.0</ele><time>2026-04-18T12:03:55Z</time></trkpt><trkpt lat="44.51919599159959" lon="6.387700932233134"><ele>808.0</ele><time>2026-04-18T12:03:56Z</time></trkpt><trkpt lat="44.51919206697598" lon="6.387893579419961"><ele>808.0</ele><time>2026-04-18T12:03:57Z</time></trkpt><trkpt lat="44.519188073243825" lon="6.388106584111196"><ele>808.0</ele><time>2026-04-18T12:03:58Z</time></trkpt><trkpt lat="44.5191334163607" lon="6.38829958795572"><ele>808.0</ele><time>2026-04-18T12:03:59Z</time></trkpt><trkpt lat="44.51910955431202" lon="6.38853438743461"><ele>807.3333333333333</ele><time>2026-04-18T12:04:00Z</time></trkpt><trkpt lat="44.519096428655445" lon="6.3887323133711895"><ele>806.6666666666667</ele><time>2026-04-18T12:04:01Z</time></trkpt><trkpt lat="44.519101984181404" lon="6.388956925562381"><ele>806.0</ele><time>2026-04-18T12:04:02Z</time></trkpt><trkpt lat="44.51912106922062" lon="6.3891656885200785"><ele>806.0</ele><time>2026-04-18T12:04:03Z</time></trkpt><trkpt lat="44.51913828456955" lon="6.3893957337604395"><ele>806.0</ele><time>2026-04-18T12:04:04Z</time></trkpt><trkpt lat="44.51921052542547" lon="6.389595229799403"><ele>806.0</ele><time>2026-04-18T12:04:05Z</time></trkpt><trkpt lat="44.519289442955454" lon="6.389796795420612"><ele>810.0</ele><time>2026-04-18T12:04:06Z</time></trkpt><trkpt lat="44.519416569249934" lon="6.38998729660058"><ele>814.0</ele><time>2026-04-18T12:04:07Z</time></trkpt><trkpt lat="44.51949477027713" lon="6.390165805481274"><ele>818.0</ele><time>2026-04-18T12:04:08Z</time></trkpt><trkpt lat="44.519577075055444" lon="6.390354417620813"><ele>813.0</ele><time>2026-04-18T12:04:09Z</time></trkpt><trkpt lat="44.51968041918043" lon="6.390545225443389"><ele>808.0</ele><time>2026-04-18T12:04:10Z</time></trkpt><trkpt lat="44.519799269207795" lon="6.39071318818648"><ele>803.0</ele><time>2026-04-18T12:04:11Z</time></trkpt><trkpt lat="44.51991493728888" lon="6.390898536163133"><ele>803.0</ele><time>2026-04-18T12:04:12Z</time></trkpt><trkpt lat="44.52003225842029" lon="6.391084489318668"><ele>803.0</ele><time>2026-04-18T12:04:13Z</time></trkpt><trkpt lat="44.52014538090801" lon="6.391288975269147"><ele>803.0</ele><time>2026-04-18T12:04:14Z</time></trkpt><trkpt lat="44.520271138656746" lon="6.391474628708706"><ele>796.3333333333334</ele><time>2026-04-18T12:04:15Z</time></trkpt><trkpt lat="44.52039650882021" lon="6.391669400212527"><ele>789.6666666666667</ele><time>2026-04-18T12:04:16Z</time></trkpt><trkpt lat="44.52051191740974" lon="6.391867802255786"><ele>783.0</ele><time>2026-04-18T12:04:17Z</time></trkpt><trkpt lat="44.520653831852094" lon="6.392072521764097"><ele>792.6666666666667</ele><time>2026-04-18T12:04:18Z</time></trkpt><trkpt lat="44.520781188245145" lon="6.392281338162846"><ele>802.3333333333334</ele><time>2026-04-18T12:04:19Z</time></trkpt><trkpt lat="44.520911952693794" lon="6.3925015423501375"><ele>812.0</ele><time>2026-04-18T12:04:20Z</time></trkpt><trkpt lat="44.52107348727884" lon="6.392722470342394"><ele>812.0</ele><time>2026-04-18T12:04:21Z</time></trkpt><trkpt lat="44.52118422278418" lon="6.392945626309413"><ele>812.0</ele><time>2026-04-18T12:04:22Z</time></trkpt><trkpt lat="44.52130413331542" lon="6.393172496410932"><ele>812.0</ele><time>2026-04-18T12:04:23Z</time></trkpt><trkpt lat="44.52141280922749" lon="6.393389923307204"><ele>811.6666666666667</ele><time>2026-04-18T12:04:24Z</time></trkpt><trkpt lat="44.52151381624574" lon="6.393611321432814"><ele>811.3333333333333</ele><time>2026-04-18T12:04:25Z</time></trkpt><trkpt lat="44.52161270555255" lon="6.393812356755873"><ele>811.0</ele><time>2026-04-18T12:04:26Z</time></trkpt><trkpt lat="44.52172394653083" lon="6.393976392654902"><ele>811.0</ele><time>2026-04-18T12:04:27Z</time></trkpt><trkpt lat="44.52184266402381" lon="6.394118949466629"><ele>811.0</ele><time>2026-04-18T12:04:28Z</time></trkpt><trkpt lat="44.52197250627963" lon="6.3941968771713595"><ele>811.0</ele><time>2026-04-18T12:04:29Z</time></trkpt><trkpt lat="44.52212698162251" lon="6.394237200101115"><ele>804.75</ele><time>2026-04-18T12:04:30Z</time></trkpt><trkpt lat="44.52228360709226" lon="6.3942841930481595"><ele>798.5</ele><time>2026-04-18T12:04:31Z</time></trkpt><trkpt lat="44.52238866799291" lon="6.3943541520139515"><ele>792.25</ele><time>2026-04-18T12:04:32Z</time></trkpt><trkpt lat="44.52251049216013" lon="6.394487493084943"><ele>786.0</ele><time>2026-04-18T12:04:33Z</time></trkpt><trkpt lat="44.52262689034764" lon="6.3946451317828545"><ele>791.5</ele><time>2026-04-18T12:04:34Z</time></trkpt><trkpt lat="44.522710594787654" lon="6.394813660441573"><ele>797.0</ele><time>2026-04-18T12:04:35Z</time></trkpt><trkpt lat="44.52278988173869" lon="6.394978307316111"><ele>802.5</ele><time>2026-04-18T12:04:36Z</time></trkpt><trkpt lat="44.522857650875906" lon="6.395164153498338"><ele>808.0</ele><time>2026-04-18T12:04:37Z</time></trkpt><trkpt lat="44.5228746338771" lon="6.395373892577965"><ele>812.0</ele><time>2026-04-18T12:04:38Z</time></trkpt><trkpt lat="44.52289221464528" lon="6.395584926988873"><ele>816.0</ele><time>2026-04-18T12:04:39Z</time></trkpt><trkpt lat="44.522891956154666" lon="6.395795252548811"><ele>820.0</ele><time>2026-04-18T12:04:40Z</time></trkpt><trkpt lat="44.5228703246399" lon="6.396013442081639"><ele>820.0</ele><time>2026-04-18T12:04:41Z</time></trkpt><trkpt lat="44.522835636630035" lon="6.396207176160311"><ele>820.0</ele><time>2026-04-18T12:04:42Z</time></trkpt><trkpt lat="44.52277533676971" lon="6.396421334476307"><ele>820.0</ele><time>2026-04-18T12:04:43Z</time></trkpt><trkpt lat="44.52270366311207" lon="6.396642841775631"><ele>816.3333333333333</ele><time>2026-04-18T12:04:44.001Z</time></trkpt><trkpt lat="44.52263447030165" lon="6.39683069025487"><ele>812.6666666666667</ele><time>2026-04-18T12:04:45.001Z</time></trkpt><trkpt lat="44.522576087479585" lon="6.3970389219347545"><ele>809.0</ele><time>2026-04-18T12:04:46.001Z</time></trkpt><trkpt lat="44.522537143071304" lon="6.3972547387459375"><ele>806.3333333333334</ele><time>2026-04-18T12:04:47.001Z</time></trkpt><trkpt lat="44.5225555712311" lon="6.39749904343273"><ele>803.6666666666667</ele><time>2026-04-18T12:04:48.001Z</time></trkpt><trkpt lat="44.52255941009268" lon="6.397684767134575"><ele>801.0</ele><time>2026-04-18T12:04:49.001Z</time></trkpt><trkpt lat="44.52260393896788" lon="6.397875580622542"><ele>803.3333333333333</ele><time>2026-04-18T12:04:50.001Z</time></trkpt><trkpt lat="44.522640512322084" lon="6.398098643854833"><ele>805.6666666666666</ele><time>2026-04-18T12:04:51.001Z</time></trkpt><trkpt lat="44.52273239162006" lon="6.398316812077615"><ele>808.0</ele><time>2026-04-18T12:04:52.001Z</time></trkpt><trkpt lat="44.52278868656635" lon="6.398537519417958"><ele>808.0</ele><time>2026-04-18T12:04:53.001Z</time></trkpt><trkpt lat="44.522846138390506" lon="6.3987370601335005"><ele>808.0</ele><time>2026-04-18T12:04:54.001Z</time></trkpt><trkpt lat="44.52290856639479" lon="6.39892663641887"><ele>808.0</ele><time>2026-04-18T12:04:55.001Z</time></trkpt><trkpt lat="44.52295873447892" lon="6.399091299589533"><ele>808.0</ele><time>2026-04-18T12:04:56.001Z</time></trkpt><trkpt lat="44.52303912622804" lon="6.399246005775543"><ele>806.0</ele><time>2026-04-18T12:04:57.001Z</time></trkpt><trkpt lat="44.52313113169179" lon="6.399394805290737"><ele>804.0</ele><time>2026-04-18T12:04:58.001Z</time></trkpt><trkpt lat="44.52325943922716" lon="6.399520683727611"><ele>802.0</ele><time>2026-04-18T12:04:59.001Z</time></trkpt><trkpt lat="44.523357173377406" lon="6.39964787225594"><ele>800.0</ele><time>2026-04-18T12:05:00.001Z</time></trkpt><trkpt lat="44.52348124706236" lon="6.399740141986826"><ele>800.0</ele><time>2026-04-18T12:05:01.001Z</time></trkpt><trkpt lat="44.5236093989974" lon="6.399836700236443"><ele>800.0</ele><time>2026-04-18T12:05:02.001Z</time></trkpt><trkpt lat="44.52373136211933" lon="6.399934513001092"><ele>800.0</ele><time>2026-04-18T12:05:03.001Z</time></trkpt><trkpt lat="44.52386723702355" lon="6.400004274200432"><ele>800.0</ele><time>2026-04-18T12:05:04.001Z</time></trkpt><trkpt lat="44.52402638075584" lon="6.400102990320542"><ele>798.75</ele><time>2026-04-18T12:05:05.001Z</time></trkpt><trkpt lat="44.5241763942967" lon="6.4001833314073835"><ele>797.5</ele><time>2026-04-18T12:05:06.001Z</time></trkpt><trkpt lat="44.52430348683617" lon="6.400271781054136"><ele>796.25</ele><time>2026-04-18T12:05:07.001Z</time></trkpt><trkpt lat="44.52443133437166" lon="6.4003489783321745"><ele>795.0</ele><time>2026-04-18T12:05:08.001Z</time></trkpt><trkpt lat="44.52453971576123" lon="6.400414857873349"><ele>795.25</ele><time>2026-04-18T12:05:09.001Z</time></trkpt><trkpt lat="44.52466340615106" lon="6.400482773004696"><ele>795.5</ele><time>2026-04-18T12:05:10.001Z</time></trkpt><trkpt lat="44.52479124701332" lon="6.400557645241144"><ele>795.75</ele><time>2026-04-18T12:05:11.001Z</time></trkpt><trkpt lat="44.52492074376058" lon="6.40063223903855"><ele>796.0</ele><time>2026-04-18T12:05:12.001Z</time></trkpt><trkpt lat="44.52503235128921" lon="6.400708341986754"><ele>796.0</ele><time>2026-04-18T12:05:13.001Z</time></trkpt><trkpt lat="44.52515278337375" lon="6.40078640831347"><ele>796.0</ele><time>2026-04-18T12:05:14.001Z</time></trkpt><trkpt lat="44.52531231960612" lon="6.400872282456497"><ele>796.0</ele><time>2026-04-18T12:05:15.001Z</time></trkpt><trkpt lat="44.52541397334561" lon="6.400936234968749"><ele>796.0</ele><time>2026-04-18T12:05:16.001Z</time></trkpt><trkpt lat="44.525508226892384" lon="6.400995641856709"><ele>794.9999999999999</ele><time>2026-04-18T12:05:17.001Z</time></trkpt><trkpt lat="44.52560050649995" lon="6.401050551995367"><ele>794.0</ele><time>2026-04-18T12:05:18.001Z</time></trkpt><trkpt lat="44.52569124505083" lon="6.40110822070384"><ele>793.0</ele><time>2026-04-18T12:05:19.001Z</time></trkpt><trkpt lat="44.52577129030438" lon="6.401152048804504"><ele>792.0</ele><time>2026-04-18T12:05:20.001Z</time></trkpt><trkpt lat="44.52585057660801" lon="6.401188468703863"><ele>790.9999999999999</ele><time>2026-04-18T12:05:21.001Z</time></trkpt><trkpt lat="44.52591992024784" lon="6.4012318625186175"><ele>790.0</ele><time>2026-04-18T12:05:22.001Z</time></trkpt><trkpt lat="44.52601167236295" lon="6.401297926843763"><ele>791.8</ele><time>2026-04-18T12:05:24.001Z</time></trkpt><trkpt lat="44.52611256267649" lon="6.401368697460214"><ele>793.6</ele><time>2026-04-18T12:05:26.001Z</time></trkpt><trkpt lat="44.526191451607524" lon="6.401470437210222"><ele>795.4000000000001</ele><time>2026-04-18T12:05:28.001Z</time></trkpt><trkpt lat="44.526217424343095" lon="6.4016019213088"><ele>797.2</ele><time>2026-04-18T12:05:30.001Z</time></trkpt><trkpt lat="44.52622024010647" lon="6.401712091502188"><ele>799.0</ele><time>2026-04-18T12:05:32.001Z</time></trkpt><trkpt lat="44.52619157771149" lon="6.401852230899895"><ele>799.0</ele><time>2026-04-18T12:05:34.001Z</time></trkpt><trkpt lat="44.52615593327552" lon="6.402017398969857"><ele>799.0</ele><time>2026-04-18T12:05:36.001Z</time></trkpt><trkpt lat="44.52613555210094" lon="6.40213221269331"><ele>799.0</ele><time>2026-04-18T12:05:39.001Z</time></trkpt><trkpt lat="44.52604452748234" lon="6.4020407391975205"><ele>799.0</ele><time>2026-04-18T12:05:42.001Z</time></trkpt><trkpt lat="44.52604249236564" lon="6.401925289851676"><ele>799.0</ele><time>2026-04-18T12:05:45.001Z</time></trkpt><trkpt lat="44.52608116552024" lon="6.401836032327363"><ele>798.9999999999999</ele><time>2026-04-18T12:05:53.001Z</time></trkpt><trkpt lat="44.526106445396195" lon="6.401734160671826"><ele>799.0</ele><time>2026-04-18T12:05:56.001Z</time></trkpt><trkpt lat="44.52608410611423" lon="6.401603900155205"><ele>799.0</ele><time>2026-04-18T12:06:04Z</time></trkpt><trkpt lat="44.52604616008468" lon="6.40149701921293"><ele>799.0</ele><time>2026-04-18T12:06:07Z</time></trkpt><trkpt lat="44.52597994587585" lon="6.4014511885455665"><ele>798.9999999999999</ele><time>2026-04-18T12:06:10Z</time></trkpt><trkpt lat="44.525905750029274" lon="6.401403712403466"><ele>799.0</ele><time>2026-04-18T12:06:15Z</time></trkpt><trkpt lat="44.525828987056116" lon="6.401347559700126"><ele>799.0</ele><time>2026-04-18T12:06:18Z</time></trkpt></trkseg><trkseg><trkpt lat="44.52631169021352" lon="6.407711752681398"><ele>818.0</ele><time>2026-04-18T12:31:37Z</time></trkpt><trkpt lat="44.52631984738596" lon="6.407863527993934"><ele>818.0</ele><time>2026-04-18T12:31:38Z</time></trkpt><trkpt lat="44.52632491085071" lon="6.408006680887133"><ele>818.0</ele><time>2026-04-18T12:31:39Z</time></trkpt><trkpt lat="44.52633511221987" lon="6.408156442051002"><ele>818.0</ele><time>2026-04-18T12:31:40Z</time></trkpt><trkpt lat="44.52633847812816" lon="6.4082892849196975"><ele>818.0</ele><time>2026-04-18T12:31:41Z</time></trkpt><trkpt lat="44.526347560151336" lon="6.408418876274646"><ele>819.1666666666667</ele><time>2026-04-18T12:31:42Z</time></trkpt><trkpt lat="44.52635697724386" lon="6.4085268646422024"><ele>820.3333333333334</ele><time>2026-04-18T12:31:43Z</time></trkpt><trkpt lat="44.52637014141715" lon="6.408633766096571"><ele>821.5</ele><time>2026-04-18T12:31:44Z</time></trkpt><trkpt lat="44.52637579252348" lon="6.408742506019149"><ele>822.6666666666667</ele><time>2026-04-18T12:31:45Z</time></trkpt><trkpt lat="44.52637140573998" lon="6.408838860737956"><ele>823.8333333333334</ele><time>2026-04-18T12:31:46Z</time></trkpt><trkpt lat="44.52631960096819" lon="6.408971232117246"><ele>825.0</ele><time>2026-04-18T12:31:48Z</time></trkpt><trkpt lat="44.526268475272936" lon="6.409055958737654"><ele>825.8333333333334</ele><time>2026-04-18T12:31:50Z</time></trkpt><trkpt lat="44.52627063109934" lon="6.409150767236033"><ele>826.6666666666667</ele><time>2026-04-18T12:31:54Z</time></trkpt><trkpt lat="44.526319734196925" lon="6.409220999277615"><ele>827.5</ele><time>2026-04-18T12:35:14Z</time></trkpt><trkpt lat="44.52632995924878" lon="6.409350148624319"><ele>828.3333333333334</ele><time>2026-04-18T12:35:18Z</time></trkpt><trkpt lat="44.52639614965773" lon="6.409447959667761"><ele>829.1666666666667</ele><time>2026-04-18T12:35:20Z</time></trkpt><trkpt lat="44.526417445573166" lon="6.409549769128896"><ele>830.0</ele><time>2026-04-18T12:35:21Z</time></trkpt><trkpt lat="44.52640834965895" lon="6.40969720530206"><ele>831.0</ele><time>2026-04-18T12:35:22Z</time></trkpt><trkpt lat="44.526410938785105" lon="6.40985686074228"><ele>832.0</ele><time>2026-04-18T12:35:23Z</time></trkpt><trkpt lat="44.52642165400022" lon="6.4100191971744795"><ele>833.0</ele><time>2026-04-18T12:35:24Z</time></trkpt><trkpt lat="44.52643904690263" lon="6.4101975616872595"><ele>834.0</ele><time>2026-04-18T12:35:25Z</time></trkpt><trkpt lat="44.52644199064538" lon="6.4103571376086474"><ele>834.0</ele><time>2026-04-18T12:35:26Z</time></trkpt><trkpt lat="44.52646239986609" lon="6.410532729364621"><ele>834.0</ele><time>2026-04-18T12:35:27Z</time></trkpt><trkpt lat="44.526465347665756" lon="6.410711127644932"><ele>834.0</ele><time>2026-04-18T12:35:28Z</time></trkpt><trkpt lat="44.52647553034175" lon="6.410908687850373"><ele>834.0</ele><time>2026-04-18T12:35:29Z</time></trkpt><trkpt lat="44.52648932787908" lon="6.411121514058335"><ele>832.6666666666667</ele><time>2026-04-18T12:35:30Z</time></trkpt><trkpt lat="44.52650396048649" lon="6.411351802563087"><ele>831.3333333333334</ele><time>2026-04-18T12:35:31Z</time></trkpt><trkpt lat="44.526514496018706" lon="6.411576056247701"><ele>830.0</ele><time>2026-04-18T12:35:32Z</time></trkpt><trkpt lat="44.52649643581424" lon="6.411796685272908"><ele>830.0</ele><time>2026-04-18T12:35:33Z</time></trkpt><trkpt lat="44.52650730485917" lon="6.412038817569739"><ele>830.0</ele><time>2026-04-18T12:35:34Z</time></trkpt><trkpt lat="44.526517861561096" lon="6.412275739024155"><ele>830.0</ele><time>2026-04-18T12:35:35Z</time></trkpt><trkpt lat="44.52653504434886" lon="6.4125073611040815"><ele>831.3333333333334</ele><time>2026-04-18T12:35:36Z</time></trkpt><trkpt lat="44.52652026289874" lon="6.412764624712812"><ele>832.6666666666667</ele><time>2026-04-18T12:35:37Z</time></trkpt><trkpt lat="44.52653099177051" lon="6.4130016293854"><ele>834.0</ele><time>2026-04-18T12:35:38Z</time></trkpt><trkpt lat="44.526556419198876" lon="6.4132235545643645"><ele>836.3333333333333</ele><time>2026-04-18T12:35:39Z</time></trkpt><trkpt lat="44.52657411704608" lon="6.413454798389956"><ele>838.6666666666666</ele><time>2026-04-18T12:35:40Z</time></trkpt><trkpt lat="44.52661937755826" lon="6.41369452692397"><ele>841.0</ele><time>2026-04-18T12:35:41Z</time></trkpt><trkpt lat="44.52664713235246" lon="6.413923757665392"><ele>840.75</ele><time>2026-04-18T12:35:42Z</time></trkpt><trkpt lat="44.52663592794716" lon="6.414126745357499"><ele>840.5</ele><time>2026-04-18T12:35:43Z</time></trkpt><trkpt lat="44.52664269849141" lon="6.414335775997846"><ele>840.25</ele><time>2026-04-18T12:35:44Z</time></trkpt><trkpt lat="44.526648251520704" lon="6.414537742013588"><ele>840.0</ele><time>2026-04-18T12:35:45Z</time></trkpt><trkpt lat="44.52665222747361" lon="6.414749376727002"><ele>840.0</ele><time>2026-04-18T12:35:46Z</time></trkpt><trkpt lat="44.52664589715335" lon="6.414940597858502"><ele>840.0</ele><time>2026-04-18T12:35:47Z</time></trkpt><trkpt lat="44.52664985865261" lon="6.415135752037332"><ele>840.0</ele><time>2026-04-18T12:35:48Z</time></trkpt><trkpt lat="44.526648278120454" lon="6.415321112792357"><ele>840.0</ele><time>2026-04-18T12:35:49Z</time></trkpt><trkpt lat="44.526658942044556" lon="6.415524671727081"><ele>839.75</ele><time>2026-04-18T12:35:50Z</time></trkpt><trkpt lat="44.52664200525096" lon="6.415719760864767"><ele>839.5</ele><time>2026-04-18T12:35:51Z</time></trkpt><trkpt lat="44.52663627607141" lon="6.4159248562915066"><ele>839.25</ele><time>2026-04-18T12:35:52Z</time></trkpt><trkpt lat="44.526640243011535" lon="6.4161315063211815"><ele>839.0</ele><time>2026-04-18T12:35:53Z</time></trkpt><trkpt lat="44.526627230231654" lon="6.416344768519636"><ele>839.0</ele><time>2026-04-18T12:35:54Z</time></trkpt><trkpt lat="44.52662401919639" lon="6.416550000975695"><ele>839.0</ele><time>2026-04-18T12:35:55Z</time></trkpt><trkpt lat="44.52662248382557" lon="6.41674070985752"><ele>839.0</ele><time>2026-04-18T12:35:56Z</time></trkpt><trkpt lat="44.52662391916204" lon="6.416942025809257"><ele>839.0</ele><time>2026-04-18T12:35:57Z</time></trkpt><trkpt lat="44.526628999212086" lon="6.4171309499291995"><ele>838.75</ele><time>2026-04-18T12:35:58Z</time></trkpt><trkpt lat="44.526650722440564" lon="6.4173089710533"><ele>838.5</ele><time>2026-04-18T12:35:59Z</time></trkpt><trkpt lat="44.526660909651255" lon="6.417486419563688"><ele>838.25</ele><time>2026-04-18T12:36:00Z</time></trkpt><trkpt lat="44.52664342734167" lon="6.417657495245026"><ele>838.0</ele><time>2026-04-18T12:36:01Z</time></trkpt><trkpt lat="44.52666038634434" lon="6.4178347669946465"><ele>836.5</ele><time>2026-04-18T12:36:02Z</time></trkpt><trkpt lat="44.52668618467342" lon="6.4180255267801645"><ele>835.0</ele><time>2026-04-18T12:36:03Z</time></trkpt><trkpt lat="44.52671031781503" lon="6.4182065988355435"><ele>833.5</ele><time>2026-04-18T12:36:04Z</time></trkpt><trkpt lat="44.526732901880266" lon="6.418390046958423"><ele>832.0</ele><time>2026-04-18T12:36:05Z</time></trkpt><trkpt lat="44.52675654309528" lon="6.418569864118558"><ele>832.0</ele><time>2026-04-18T12:36:06Z</time></trkpt><trkpt lat="44.52679491569344" lon="6.4187517429631065"><ele>832.0</ele><time>2026-04-18T12:36:07Z</time></trkpt><trkpt lat="44.52682329297008" lon="6.4189331440269735"><ele>832.0</ele><time>2026-04-18T12:36:08Z</time></trkpt><trkpt lat="44.5268630272519" lon="6.4191253669978945"><ele>832.0</ele><time>2026-04-18T12:36:09Z</time></trkpt><trkpt lat="44.526911242622866" lon="6.419340054499181"><ele>833.0</ele><time>2026-04-18T12:36:10Z</time></trkpt><trkpt lat="44.52697234624759" lon="6.419560059156952"><ele>834.0</ele><time>2026-04-18T12:36:11Z</time></trkpt><trkpt lat="44.527048249473154" lon="6.419791338591277"><ele>835.0</ele><time>2026-04-18T12:36:12Z</time></trkpt><trkpt lat="44.52712552610017" lon="6.420010209210059"><ele>832.25</ele><time>2026-04-18T12:36:13Z</time></trkpt><trkpt lat="44.527176121409035" lon="6.420210891268681"><ele>829.5</ele><time>2026-04-18T12:36:14Z</time></trkpt><trkpt lat="44.52723515159668" lon="6.420405386426644"><ele>826.75</ele><time>2026-04-18T12:36:15Z</time></trkpt><trkpt lat="44.527301672161585" lon="6.420586239398779"><ele>824.0</ele><time>2026-04-18T12:36:16Z</time></trkpt><trkpt lat="44.527362834102355" lon="6.420774284666528"><ele>824.0</ele><time>2026-04-18T12:36:17Z</time></trkpt><trkpt lat="44.52742209679219" lon="6.420948041599588"><ele>824.0</ele><time>2026-04-18T12:36:18Z</time></trkpt><trkpt lat="44.52750151429443" lon="6.421107206385645"><ele>824.0</ele><time>2026-04-18T12:36:19Z</time></trkpt><trkpt lat="44.527524155685086" lon="6.421284818516817"><ele>824.0</ele><time>2026-04-18T12:36:20Z</time></trkpt><trkpt lat="44.527584892672316" lon="6.4214567782517555"><ele>825.75</ele><time>2026-04-18T12:36:21Z</time></trkpt><trkpt lat="44.5276333371114" lon="6.421637112890279"><ele>827.5</ele><time>2026-04-18T12:36:22Z</time></trkpt><trkpt lat="44.52767574877432" lon="6.421826411674576"><ele>829.25</ele><time>2026-04-18T12:36:23Z</time></trkpt><trkpt lat="44.52774011926245" lon="6.422008349135402"><ele>831.0</ele><time>2026-04-18T12:36:24Z</time></trkpt><trkpt lat="44.527783219696836" lon="6.422187129232377"><ele>833.5</ele><time>2026-04-18T12:36:25Z</time></trkpt><trkpt lat="44.527832055425236" lon="6.422386027205591"><ele>836.0</ele><time>2026-04-18T12:36:26Z</time></trkpt><trkpt lat="44.5278912370255" lon="6.422574028977128"><ele>838.5</ele><time>2026-04-18T12:36:27Z</time></trkpt><trkpt lat="44.52793408703066" lon="6.422752398081458"><ele>841.0</ele><time>2026-04-18T12:36:28Z</time></trkpt><trkpt lat="44.52795274515375" lon="6.422912693869334"><ele>831.25</ele><time>2026-04-18T12:36:29Z</time></trkpt><trkpt lat="44.52797643233998" lon="6.423080765050109"><ele>821.5</ele><time>2026-04-18T12:36:30Z</time></trkpt><trkpt lat="44.528007498071275" lon="6.423263013496386"><ele>811.75</ele><time>2026-04-18T12:36:31Z</time></trkpt><trkpt lat="44.52804194555393" lon="6.423468623796478"><ele>802.0</ele><time>2026-04-18T12:36:32Z</time></trkpt><trkpt lat="44.52807498483181" lon="6.423674757600004"><ele>803.6666666666666</ele><time>2026-04-18T12:36:33Z</time></trkpt><trkpt lat="44.52811117955814" lon="6.4238803314619215"><ele>805.3333333333333</ele><time>2026-04-18T12:36:34Z</time></trkpt><trkpt lat="44.52815199790315" lon="6.42408281865372"><ele>807.0</ele><time>2026-04-18T12:36:35Z</time></trkpt><trkpt lat="44.528187922922704" lon="6.424297055783175"><ele>807.0</ele><time>2026-04-18T12:36:36Z</time></trkpt><trkpt lat="44.528226193092955" lon="6.424504324591568"><ele>807.0</ele><time>2026-04-18T12:36:37Z</time></trkpt><trkpt lat="44.52826051548317" lon="6.424689572213419"><ele>807.0</ele><time>2026-04-18T12:36:38Z</time></trkpt><trkpt lat="44.528297902917345" lon="6.424861645039428"><ele>807.0</ele><time>2026-04-18T12:36:39Z</time></trkpt><trkpt lat="44.52832695323901" lon="6.425025247962672"><ele>809.0</ele><time>2026-04-18T12:36:40Z</time></trkpt><trkpt lat="44.528370226943565" lon="6.425203503139128"><ele>811.0</ele><time>2026-04-18T12:36:41Z</time></trkpt><trkpt lat="44.52839925215219" lon="6.425362860546886"><ele>813.0</ele><time>2026-04-18T12:36:42Z</time></trkpt><trkpt lat="44.52843445460219" lon="6.425522583531391"><ele>815.0</ele><time>2026-04-18T12:36:43Z</time></trkpt><trkpt lat="44.528474717706544" lon="6.4256724276734865"><ele>817.0</ele><time>2026-04-18T12:36:44Z</time></trkpt><trkpt lat="44.52852405840154" lon="6.425838113010792"><ele>819.0</ele><time>2026-04-18T12:36:45Z</time></trkpt><trkpt lat="44.52857204942483" lon="6.426014807033752"><ele>821.0</ele><time>2026-04-18T12:36:46Z</time></trkpt><trkpt lat="44.52861984898251" lon="6.426178238074587"><ele>823.0</ele><time>2026-04-18T12:36:47Z</time></trkpt><trkpt lat="44.528686905135075" lon="6.4263380795552045"><ele>825.5999999999999</ele><time>2026-04-18T12:36:48Z</time></trkpt><trkpt lat="44.528723149573565" lon="6.426486325029325"><ele>828.1999999999999</ele><time>2026-04-18T12:36:49Z</time></trkpt><trkpt lat="44.528769563188014" lon="6.4266150261136685"><ele>830.8</ele><time>2026-04-18T12:36:50Z</time></trkpt><trkpt lat="44.52882594167133" lon="6.4267452656089725"><ele>833.4</ele><time>2026-04-18T12:36:51Z</time></trkpt><trkpt lat="44.52887860582854" lon="6.426858806166263"><ele>836.0</ele><time>2026-04-18T12:36:52Z</time></trkpt><trkpt lat="44.528945790698415" lon="6.426985749255027"><ele>827.0</ele><time>2026-04-18T12:36:53Z</time></trkpt><trkpt lat="44.52902518808854" lon="6.4271315360322205"><ele>818.0</ele><time>2026-04-18T12:36:54Z</time></trkpt><trkpt lat="44.52911138301576" lon="6.42727910667844"><ele>809.0</ele><time>2026-04-18T12:36:55Z</time></trkpt><trkpt lat="44.52918653669289" lon="6.427435866779304"><ele>800.0</ele><time>2026-04-18T12:36:56Z</time></trkpt><trkpt lat="44.529261315053986" lon="6.4275853502532705"><ele>800.0</ele><time>2026-04-18T12:36:57Z</time></trkpt><trkpt lat="44.52932658338645" lon="6.427724385555912"><ele>800.0</ele><time>2026-04-18T12:36:58Z</time></trkpt><trkpt lat="44.52939365024945" lon="6.4278453779513764"><ele>800.0</ele><time>2026-04-18T12:36:59Z</time></trkpt><trkpt lat="44.52944557194184" lon="6.427971685326893"><ele>800.0</ele><time>2026-04-18T12:37:00Z</time></trkpt><trkpt lat="44.529500100025224" lon="6.428093789853813"><ele>800.0</ele><time>2026-04-18T12:37:01Z</time></trkpt><trkpt lat="44.5295541448145" lon="6.4282156164736355"><ele>797.25</ele><time>2026-04-18T12:37:02Z</time></trkpt><trkpt lat="44.5296221256582" lon="6.42833752178567"><ele>794.5</ele><time>2026-04-18T12:37:03Z</time></trkpt><trkpt lat="44.5297015128017" lon="6.428447225238226"><ele>791.75</ele><time>2026-04-18T12:37:04Z</time></trkpt><trkpt lat="44.52977746639753" lon="6.428589115063949"><ele>789.0</ele><time>2026-04-18T12:37:05Z</time></trkpt><trkpt lat="44.52986141714029" lon="6.42871795444895"><ele>790.0</ele><time>2026-04-18T12:37:06Z</time></trkpt><trkpt lat="44.529917669905736" lon="6.42885531833403"><ele>791.0</ele><time>2026-04-18T12:37:07Z</time></trkpt><trkpt lat="44.52999618975535" lon="6.42899351496529"><ele>792.0</ele><time>2026-04-18T12:37:08Z</time></trkpt><trkpt lat="44.530067565036155" lon="6.429134073692934"><ele>793.0</ele><time>2026-04-18T12:37:09Z</time></trkpt><trkpt lat="44.53013883638078" lon="6.429282925949993"><ele>793.0</ele><time>2026-04-18T12:37:10Z</time></trkpt><trkpt lat="44.53023113620806" lon="6.429425335247331"><ele>793.0</ele><time>2026-04-18T12:37:11Z</time></trkpt><trkpt lat="44.53031242059736" lon="6.429576460416489"><ele>793.0</ele><time>2026-04-18T12:37:12Z</time></trkpt><trkpt lat="44.53038555181036" lon="6.429733790662519"><ele>793.0</ele><time>2026-04-18T12:37:13Z</time></trkpt><trkpt lat="44.53045456158845" lon="6.4298844283036445"><ele>793.25</ele><time>2026-04-18T12:37:14Z</time></trkpt><trkpt lat="44.53054072162931" lon="6.430029801386082"><ele>793.5</ele><time>2026-04-18T12:37:15Z</time></trkpt><trkpt lat="44.530618395182564" lon="6.430182456040773"><ele>793.75</ele><time>2026-04-18T12:37:16Z</time></trkpt><trkpt lat="44.53068792194452" lon="6.43033592565139"><ele>794.0</ele><time>2026-04-18T12:37:17Z</time></trkpt><trkpt lat="44.530762830824024" lon="6.430493956138919"><ele>794.0</ele><time>2026-04-18T12:37:18Z</time></trkpt><trkpt lat="44.53082354863992" lon="6.430656533781789"><ele>794.0</ele><time>2026-04-18T12:37:19Z</time></trkpt><trkpt lat="44.53089071552229" lon="6.430823672636874"><ele>794.0</ele><time>2026-04-18T12:37:20Z</time></trkpt><trkpt lat="44.530946591371944" lon="6.430994861216151"><ele>794.0</ele><time>2026-04-18T12:37:21Z</time></trkpt><trkpt lat="44.53098995394597" lon="6.431159654665194"><ele>794.0</ele><time>2026-04-18T12:37:22Z</time></trkpt><trkpt lat="44.53103083238863" lon="6.431336790647744"><ele>794.0</ele><time>2026-04-18T12:37:23Z</time></trkpt><trkpt lat="44.53106590954378" lon="6.431515604546725"><ele>794.0</ele><time>2026-04-18T12:37:24Z</time></trkpt><trkpt lat="44.531097538477084" lon="6.431699766062892"><ele>794.0</ele><time>2026-04-18T12:37:25Z</time></trkpt><trkpt lat="44.53113238742197" lon="6.431894002008102"><ele>794.0</ele><time>2026-04-18T12:37:26Z</time></trkpt><trkpt lat="44.53116595273874" lon="6.432102661786096"><ele>794.0</ele><time>2026-04-18T12:37:27Z</time></trkpt><trkpt lat="44.531191733271996" lon="6.432314980309307"><ele>794.0</ele><time>2026-04-18T12:37:28Z</time></trkpt><trkpt lat="44.531224728624466" lon="6.4325711157515455"><ele>793.6666666666667</ele><time>2026-04-18T12:37:29Z</time></trkpt><trkpt lat="44.53125220658631" lon="6.432863582446237"><ele>793.3333333333333</ele><time>2026-04-18T12:37:30Z</time></trkpt><trkpt lat="44.53125946575856" lon="6.433134062850096"><ele>793.0</ele><time>2026-04-18T12:37:31Z</time></trkpt><trkpt lat="44.53126643393069" lon="6.433385964658921"><ele>793.0</ele><time>2026-04-18T12:37:32Z</time></trkpt><trkpt lat="44.53129191760427" lon="6.433665611729974"><ele>793.0</ele><time>2026-04-18T12:37:33Z</time></trkpt><trkpt lat="44.531309360957664" lon="6.433942062684129"><ele>793.0</ele><time>2026-04-18T12:37:34Z</time></trkpt><trkpt lat="44.531333816559425" lon="6.434222082967714"><ele>794.0</ele><time>2026-04-18T12:37:35Z</time></trkpt><trkpt lat="44.53134777543427" lon="6.434508051250123"><ele>795.0</ele><time>2026-04-18T12:37:36Z</time></trkpt><trkpt lat="44.531369961762856" lon="6.434784908652225"><ele>796.0</ele><time>2026-04-18T12:37:37Z</time></trkpt><trkpt lat="44.531365429725334" lon="6.4350598601075335"><ele>797.6666666666666</ele><time>2026-04-18T12:37:38Z</time></trkpt><trkpt lat="44.53137971087141" lon="6.435336150286676"><ele>799.3333333333333</ele><time>2026-04-18T12:37:39Z</time></trkpt><trkpt lat="44.531403800712624" lon="6.435619492409958"><ele>801.0</ele><time>2026-04-18T12:37:40Z</time></trkpt><trkpt lat="44.531417952303414" lon="6.435884653074625"><ele>802.3333333333333</ele><time>2026-04-18T12:37:41Z</time></trkpt><trkpt lat="44.53143460807371" lon="6.436154607060558"><ele>803.6666666666666</ele><time>2026-04-18T12:37:42Z</time></trkpt><trkpt lat="44.531461163085595" lon="6.436440614957873"><ele>805.0</ele><time>2026-04-18T12:37:43Z</time></trkpt><trkpt lat="44.531482953530855" lon="6.436719832936588"><ele>806.0</ele><time>2026-04-18T12:37:44Z</time></trkpt><trkpt lat="44.531489559317144" lon="6.436987594506642"><ele>807.0</ele><time>2026-04-18T12:37:45Z</time></trkpt><trkpt lat="44.53150761995868" lon="6.437269087768857"><ele>808.0</ele><time>2026-04-18T12:37:46Z</time></trkpt><trkpt lat="44.531530225443376" lon="6.437546647852641"><ele>809.3333333333333</ele><time>2026-04-18T12:37:47Z</time></trkpt><trkpt lat="44.53154781415206" lon="6.43781835141559"><ele>810.6666666666667</ele><time>2026-04-18T12:37:48Z</time></trkpt><trkpt lat="44.53156026799214" lon="6.438083634809077"><ele>812.0</ele><time>2026-04-18T12:37:49Z</time></trkpt><trkpt lat="44.53158119067116" lon="6.438332361363551"><ele>813.6666666666667</ele><time>2026-04-18T12:37:50Z</time></trkpt><trkpt lat="44.531580314152414" lon="6.43858421062298"><ele>815.3333333333333</ele><time>2026-04-18T12:37:51Z</time></trkpt><trkpt lat="44.531606966347844" lon="6.43884484797723"><ele>817.0</ele><time>2026-04-18T12:37:52Z</time></trkpt><trkpt lat="44.5316265584623" lon="6.439106684644332"><ele>818.6666666666666</ele><time>2026-04-18T12:37:53Z</time></trkpt><trkpt lat="44.53166046107243" lon="6.439361975230968"><ele>820.3333333333333</ele><time>2026-04-18T12:37:54Z</time></trkpt><trkpt lat="44.531711708984005" lon="6.439616386581328"><ele>822.0</ele><time>2026-04-18T12:37:55Z</time></trkpt><trkpt lat="44.53175150138911" lon="6.439866528261912"><ele>823.6666666666667</ele><time>2026-04-18T12:37:56Z</time></trkpt><trkpt lat="44.5318061232405" lon="6.440131827486982"><ele>825.3333333333334</ele><time>2026-04-18T12:37:57Z</time></trkpt><trkpt lat="44.53185743095163" lon="6.440381374710366"><ele>827.0</ele><time>2026-04-18T12:37:58Z</time></trkpt><trkpt lat="44.5319117695821" lon="6.440631217732198"><ele>827.6666666666667</ele><time>2026-04-18T12:37:59Z</time></trkpt><trkpt lat="44.53194704738369" lon="6.440888561691972"><ele>828.3333333333333</ele><time>2026-04-18T12:38:00Z</time></trkpt><trkpt lat="44.53199012957401" lon="6.441148133073627"><ele>829.0</ele><time>2026-04-18T12:38:01Z</time></trkpt><trkpt lat="44.53201600347687" lon="6.4413888037422256"><ele>830.3333333333333</ele><time>2026-04-18T12:38:02Z</time></trkpt><trkpt lat="44.53202571957177" lon="6.441643348663188"><ele>831.6666666666667</ele><time>2026-04-18T12:38:03Z</time></trkpt><trkpt lat="44.53204549052412" lon="6.441877171160462"><ele>833.0</ele><time>2026-04-18T12:38:04Z</time></trkpt><trkpt lat="44.53205003613129" lon="6.442085660832285"><ele>833.5</ele><time>2026-04-18T12:38:05Z</time></trkpt><trkpt lat="44.532048552577365" lon="6.442281659849568"><ele>834.0</ele><time>2026-04-18T12:38:06Z</time></trkpt><trkpt lat="44.53206474711784" lon="6.442481518505242"><ele>834.5</ele><time>2026-04-18T12:38:07Z</time></trkpt><trkpt lat="44.53208033292652" lon="6.442654313777357"><ele>835.0</ele><time>2026-04-18T12:38:08Z</time></trkpt><trkpt lat="44.53207701481984" lon="6.442823612778189"><ele>833.75</ele><time>2026-04-18T12:38:09Z</time></trkpt><trkpt lat="44.53208167883795" lon="6.443012910436239"><ele>832.5</ele><time>2026-04-18T12:38:10Z</time></trkpt><trkpt lat="44.532077663740836" lon="6.44320654484283"><ele>831.25</ele><time>2026-04-18T12:38:11Z</time></trkpt><trkpt lat="44.53207703291933" lon="6.443400754489239"><ele>830.0</ele><time>2026-04-18T12:38:12Z</time></trkpt><trkpt lat="44.53207070327965" lon="6.443588587788658"><ele>830.0</ele><time>2026-04-18T12:38:13Z</time></trkpt><trkpt lat="44.5320689288589" lon="6.443775995884695"><ele>830.0</ele><time>2026-04-18T12:38:14Z</time></trkpt><trkpt lat="44.532067136726695" lon="6.443956912285071"><ele>830.0</ele><time>2026-04-18T12:38:15Z</time></trkpt><trkpt lat="44.532066025228694" lon="6.444156518949181"><ele>830.0</ele><time>2026-04-18T12:38:16Z</time></trkpt><trkpt lat="44.532058464106626" lon="6.444315974583013"><ele>831.75</ele><time>2026-04-18T12:38:17Z</time></trkpt><trkpt lat="44.53205419361046" lon="6.44448845906703"><ele>833.5</ele><time>2026-04-18T12:38:18Z</time></trkpt><trkpt lat="44.53205162983263" lon="6.444657577248652"><ele>835.25</ele><time>2026-04-18T12:38:19Z</time></trkpt><trkpt lat="44.53205028512631" lon="6.444842731507527"><ele>837.0</ele><time>2026-04-18T12:38:20Z</time></trkpt><trkpt lat="44.53204937428634" lon="6.445023566613277"><ele>837.0</ele><time>2026-04-18T12:38:21Z</time></trkpt><trkpt lat="44.53205194450021" lon="6.44519311721681"><ele>837.0</ele><time>2026-04-18T12:38:22Z</time></trkpt><trkpt lat="44.53206302496812" lon="6.445367236136087"><ele>837.0</ele><time>2026-04-18T12:38:23Z</time></trkpt><trkpt lat="44.532069333254555" lon="6.445535152033252"><ele>837.0</ele><time>2026-04-18T12:38:24Z</time></trkpt><trkpt lat="44.532060109048025" lon="6.445696413046931"><ele>836.0</ele><time>2026-04-18T12:38:25Z</time></trkpt><trkpt lat="44.532079770097205" lon="6.44587614866997"><ele>835.0</ele><time>2026-04-18T12:38:26Z</time></trkpt><trkpt lat="44.53207938027818" lon="6.446052339620534"><ele>834.0</ele><time>2026-04-18T12:38:27Z</time></trkpt><trkpt lat="44.532075611988915" lon="6.446220794955522"><ele>833.0</ele><time>2026-04-18T12:38:28Z</time></trkpt><trkpt lat="44.53209301514136" lon="6.446381605648565"><ele>833.0</ele><time>2026-04-18T12:38:29Z</time></trkpt><trkpt lat="44.53209466263972" lon="6.446535855601949"><ele>833.0</ele><time>2026-04-18T12:38:30Z</time></trkpt><trkpt lat="44.53209725884596" lon="6.446705854279563"><ele>833.0</ele><time>2026-04-18T12:38:31Z</time></trkpt><trkpt lat="44.5320974171237" lon="6.446893601305587"><ele>833.0</ele><time>2026-04-18T12:38:32Z</time></trkpt><trkpt lat="44.53210584903332" lon="6.4470951894470305"><ele>833.0</ele><time>2026-04-18T12:38:33Z</time></trkpt><trkpt lat="44.53211497868441" lon="6.447296978063843"><ele>833.0</ele><time>2026-04-18T12:38:34Z</time></trkpt><trkpt lat="44.532115157483446" lon="6.447491571926563"><ele>833.0</ele><time>2026-04-18T12:38:35Z</time></trkpt><trkpt lat="44.532138084514244" lon="6.447684508330427"><ele>833.0</ele><time>2026-04-18T12:38:36Z</time></trkpt><trkpt lat="44.53214778329655" lon="6.447872591187652"><ele>833.0</ele><time>2026-04-18T12:38:37Z</time></trkpt><trkpt lat="44.53215570054318" lon="6.448072984936459"><ele>833.0</ele><time>2026-04-18T12:38:38Z</time></trkpt><trkpt lat="44.53217321134966" lon="6.4482751599157035"><ele>833.0</ele><time>2026-04-18T12:38:39Z</time></trkpt><trkpt lat="44.53219625348376" lon="6.448483990624963"><ele>833.0</ele><time>2026-04-18T12:38:40Z</time></trkpt><trkpt lat="44.53219664896479" lon="6.448676866311716"><ele>832.6666666666667</ele><time>2026-04-18T12:38:41Z</time></trkpt><trkpt lat="44.532225077774875" lon="6.448907553601124"><ele>832.3333333333333</ele><time>2026-04-18T12:38:42Z</time></trkpt><trkpt lat="44.53225311567629" lon="6.449102189625529"><ele>832.0</ele><time>2026-04-18T12:38:43Z</time></trkpt><trkpt lat="44.532243045607615" lon="6.449326710576769"><ele>832.0</ele><time>2026-04-18T12:38:44Z</time></trkpt><trkpt lat="44.532264379943086" lon="6.4495671991924715"><ele>832.0</ele><time>2026-04-18T12:38:45Z</time></trkpt><trkpt lat="44.53229046276827" lon="6.449802378352693"><ele>832.0</ele><time>2026-04-18T12:38:46Z</time></trkpt><trkpt lat="44.532310187208815" lon="6.450041095854372"><ele>831.3333333333333</ele><time>2026-04-18T12:38:47Z</time></trkpt><trkpt lat="44.532317135804085" lon="6.450284268505007"><ele>830.6666666666667</ele><time>2026-04-18T12:38:47.999Z</time></trkpt><trkpt lat="44.53233555803218" lon="6.450525238431177"><ele>830.0</ele><time>2026-04-18T12:38:48.999Z</time></trkpt><trkpt lat="44.53234941702142" lon="6.45076258789655"><ele>829.6666666666667</ele><time>2026-04-18T12:38:49.999Z</time></trkpt><trkpt lat="44.53236501200915" lon="6.450993809302646"><ele>829.3333333333333</ele><time>2026-04-18T12:38:50.999Z</time></trkpt><trkpt lat="44.53239120169432" lon="6.451235117039262"><ele>829.0</ele><time>2026-04-18T12:38:51.999Z</time></trkpt><trkpt lat="44.532417840779374" lon="6.451480277122401"><ele>828.6666666666666</ele><time>2026-04-18T12:38:52.999Z</time></trkpt><trkpt lat="44.532434062189054" lon="6.451727780866764"><ele>828.3333333333333</ele><time>2026-04-18T12:38:53.999Z</time></trkpt><trkpt lat="44.532447685784796" lon="6.45198073743681"><ele>828.0</ele><time>2026-04-18T12:38:54.999Z</time></trkpt><trkpt lat="44.532474452177766" lon="6.452236856582365"><ele>826.3333333333333</ele><time>2026-04-18T12:38:55.999Z</time></trkpt><trkpt lat="44.53248719744462" lon="6.452487584176995"><ele>824.6666666666666</ele><time>2026-04-18T12:38:56.999Z</time></trkpt><trkpt lat="44.53249552890434" lon="6.452748618224123"><ele>823.0</ele><time>2026-04-18T12:38:57.999Z</time></trkpt><trkpt lat="44.53251524380181" lon="6.452994251587582"><ele>821.3333333333333</ele><time>2026-04-18T12:38:58.999Z</time></trkpt><trkpt lat="44.53253573175014" lon="6.453240677728848"><ele>819.6666666666667</ele><time>2026-04-18T12:38:59.999Z</time></trkpt><trkpt lat="44.53255646050735" lon="6.453512155939749"><ele>818.0</ele><time>2026-04-18T12:39:00.999Z</time></trkpt><trkpt lat="44.53257242657221" lon="6.453785125258262"><ele>817.3333333333334</ele><time>2026-04-18T12:39:01.999Z</time></trkpt><trkpt lat="44.53259284509317" lon="6.454046211856919"><ele>816.6666666666667</ele><time>2026-04-18T12:39:02.999Z</time></trkpt><trkpt lat="44.53261012938204" lon="6.454312519713103"><ele>816.0</ele><time>2026-04-18T12:39:03.999Z</time></trkpt><trkpt lat="44.532628157629254" lon="6.454557676227591"><ele>815.3333333333333</ele><time>2026-04-18T12:39:04.999Z</time></trkpt><trkpt lat="44.532633729175025" lon="6.454802418583028"><ele>814.6666666666666</ele><time>2026-04-18T12:39:05.999Z</time></trkpt><trkpt lat="44.53265276886369" lon="6.4550512104098825"><ele>814.0</ele><time>2026-04-18T12:39:06.999Z</time></trkpt><trkpt lat="44.53266806568814" lon="6.45530285142554"><ele>813.3333333333333</ele><time>2026-04-18T12:39:07.999Z</time></trkpt><trkpt lat="44.53267995672754" lon="6.4555637764104254"><ele>812.6666666666667</ele><time>2026-04-18T12:39:08.999Z</time></trkpt><trkpt lat="44.53269123585284" lon="6.455818599302003"><ele>812.0</ele><time>2026-04-18T12:39:09.999Z</time></trkpt><trkpt lat="44.53270745484183" lon="6.456072597825849"><ele>811.3333333333334</ele><time>2026-04-18T12:39:10.999Z</time></trkpt><trkpt lat="44.53272762501381" lon="6.456332604533919"><ele>810.6666666666667</ele><time>2026-04-18T12:39:11.999Z</time></trkpt><trkpt lat="44.53275292544285" lon="6.456594397767544"><ele>810.0</ele><time>2026-04-18T12:39:12.999Z</time></trkpt><trkpt lat="44.532773217349565" lon="6.456858500872495"><ele>811.0</ele><time>2026-04-18T12:39:13.999Z</time></trkpt><trkpt lat="44.532788463962355" lon="6.457124419135002"><ele>812.0</ele><time>2026-04-18T12:39:14.999Z</time></trkpt><trkpt lat="44.53280996073517" lon="6.457391961350108"><ele>813.0</ele><time>2026-04-18T12:39:15.999Z</time></trkpt><trkpt lat="44.532826056476736" lon="6.457650970403287"><ele>813.0</ele><time>2026-04-18T12:39:16.999Z</time></trkpt><trkpt lat="44.53284942250582" lon="6.457906624084419"><ele>813.0</ele><time>2026-04-18T12:39:17.999Z</time></trkpt><trkpt lat="44.53286503532129" lon="6.458154394378732"><ele>813.0</ele><time>2026-04-18T12:39:18.999Z</time></trkpt><trkpt lat="44.53287997124123" lon="6.4584066925455295"><ele>810.0</ele><time>2026-04-18T12:39:20Z</time></trkpt><trkpt lat="44.53289849005427" lon="6.458649788327855"><ele>807.0</ele><time>2026-04-18T12:39:21Z</time></trkpt><trkpt lat="44.53292197721286" lon="6.458899726709313"><ele>804.0</ele><time>2026-04-18T12:39:22Z</time></trkpt><trkpt lat="44.532940792655474" lon="6.459148550744969"><ele>803.6666666666667</ele><time>2026-04-18T12:39:23Z</time></trkpt><trkpt lat="44.53294959824862" lon="6.459390078749868"><ele>803.3333333333334</ele><time>2026-04-18T12:39:24Z</time></trkpt><trkpt lat="44.53296557650805" lon="6.459649804316277"><ele>803.0</ele><time>2026-04-18T12:39:25Z</time></trkpt><trkpt lat="44.53298000642771" lon="6.459915930887163"><ele>802.3333333333334</ele><time>2026-04-18T12:39:26Z</time></trkpt><trkpt lat="44.53300272110708" lon="6.460178787940727"><ele>801.6666666666667</ele><time>2026-04-18T12:39:27Z</time></trkpt><trkpt lat="44.53301548529729" lon="6.460427490233671"><ele>801.0</ele><time>2026-04-18T12:39:28Z</time></trkpt><trkpt lat="44.53303390456456" lon="6.460683420293542"><ele>800.6666666666667</ele><time>2026-04-18T12:39:29Z</time></trkpt><trkpt lat="44.53305900287871" lon="6.460953740036781"><ele>800.3333333333334</ele><time>2026-04-18T12:39:30Z</time></trkpt><trkpt lat="44.5330905933276" lon="6.461216322733082"><ele>800.0</ele><time>2026-04-18T12:39:31Z</time></trkpt><trkpt lat="44.533124681765095" lon="6.461487158848366"><ele>800.0</ele><time>2026-04-18T12:39:32Z</time></trkpt><trkpt lat="44.53316383105549" lon="6.461766605940605"><ele>800.0</ele><time>2026-04-18T12:39:33Z</time></trkpt><trkpt lat="44.533239716243386" lon="6.462070582570379"><ele>800.0</ele><time>2026-04-18T12:39:34Z</time></trkpt><trkpt lat="44.53329243370591" lon="6.4623554451780665"><ele>798.3333333333334</ele><time>2026-04-18T12:39:35Z</time></trkpt><trkpt lat="44.53336471971541" lon="6.462634475350209"><ele>796.6666666666667</ele><time>2026-04-18T12:39:36Z</time></trkpt><trkpt lat="44.533426483649315" lon="6.462920103515384"><ele>795.0</ele><time>2026-04-18T12:39:37Z</time></trkpt><trkpt lat="44.53349335718375" lon="6.4631821024652325"><ele>795.0</ele><time>2026-04-18T12:39:38Z</time></trkpt><trkpt lat="44.53356521883652" lon="6.463440231219517"><ele>795.0</ele><time>2026-04-18T12:39:39Z</time></trkpt><trkpt lat="44.53365553560496" lon="6.463696794857108"><ele>795.0</ele><time>2026-04-18T12:39:40Z</time></trkpt><trkpt lat="44.53373592300805" lon="6.4639533520602805"><ele>792.3333333333333</ele><time>2026-04-18T12:39:41Z</time></trkpt><trkpt lat="44.533815805438195" lon="6.464200365699281"><ele>789.6666666666666</ele><time>2026-04-18T12:39:42Z</time></trkpt><trkpt lat="44.53389848202731" lon="6.464450418345745"><ele>787.0</ele><time>2026-04-18T12:39:43Z</time></trkpt><trkpt lat="44.53398959848404" lon="6.464697414654149"><ele>786.3333333333333</ele><time>2026-04-18T12:39:44Z</time></trkpt><trkpt lat="44.53408599887122" lon="6.46494804907496"><ele>785.6666666666667</ele><time>2026-04-18T12:39:45Z</time></trkpt><trkpt lat="44.53418984372125" lon="6.4651918398667245"><ele>785.0</ele><time>2026-04-18T12:39:46Z</time></trkpt><trkpt lat="44.53431254568951" lon="6.465412373233439"><ele>784.3333333333334</ele><time>2026-04-18T12:39:47Z</time></trkpt><trkpt lat="44.534410866828885" lon="6.465654442692851"><ele>783.6666666666667</ele><time>2026-04-18T12:39:48Z</time></trkpt><trkpt lat="44.534505580065876" lon="6.46589444089077"><ele>783.0</ele><time>2026-04-18T12:39:49Z</time></trkpt><trkpt lat="44.53460541919723" lon="6.466129994182676"><ele>783.3333333333333</ele><time>2026-04-18T12:39:50Z</time></trkpt><trkpt lat="44.53470622696443" lon="6.4663736372175915"><ele>783.6666666666666</ele><time>2026-04-18T12:39:51Z</time></trkpt><trkpt lat="44.53480733053264" lon="6.466608261918868"><ele>784.0</ele><time>2026-04-18T12:39:52Z</time></trkpt><trkpt lat="44.53490691563605" lon="6.466844802815951"><ele>784.0</ele><time>2026-04-18T12:39:53Z</time></trkpt><trkpt lat="44.53500885649466" lon="6.467083197056233"><ele>784.0</ele><time>2026-04-18T12:39:54Z</time></trkpt><trkpt lat="44.53510306606297" lon="6.467333225833282"><ele>784.0</ele><time>2026-04-18T12:39:55Z</time></trkpt><trkpt lat="44.53521669938042" lon="6.467583150757702"><ele>783.6666666666666</ele><time>2026-04-18T12:39:56Z</time></trkpt><trkpt lat="44.53533025011441" lon="6.46784314466413"><ele>783.3333333333333</ele><time>2026-04-18T12:39:57Z</time></trkpt><trkpt lat="44.535452575490346" lon="6.468094517223682"><ele>783.0</ele><time>2026-04-18T12:39:58Z</time></trkpt><trkpt lat="44.535574995381694" lon="6.4683495950857015"><ele>782.3333333333333</ele><time>2026-04-18T12:39:59Z</time></trkpt><trkpt lat="44.535686838014485" lon="6.468600009008915"><ele>781.6666666666666</ele><time>2026-04-18T12:40:00Z</time></trkpt><trkpt lat="44.53580369502748" lon="6.468849893778171"><ele>781.0</ele><time>2026-04-18T12:40:01Z</time></trkpt><trkpt lat="44.53591389006852" lon="6.469099627990389"><ele>781.0</ele><time>2026-04-18T12:40:02Z</time></trkpt><trkpt lat="44.53602092072904" lon="6.469354893862501"><ele>781.0</ele><time>2026-04-18T12:40:03Z</time></trkpt><trkpt lat="44.536132755352455" lon="6.469620073492654"><ele>781.0</ele><time>2026-04-18T12:40:04Z</time></trkpt><trkpt lat="44.536237303710934" lon="6.469889705645218"><ele>781.3333333333333</ele><time>2026-04-18T12:40:05Z</time></trkpt><trkpt lat="44.5363362509553" lon="6.470156986508525"><ele>781.6666666666667</ele><time>2026-04-18T12:40:06Z</time></trkpt><trkpt lat="44.53643071974075" lon="6.470420449806167"><ele>782.0</ele><time>2026-04-18T12:40:07Z</time></trkpt><trkpt lat="44.536517284126504" lon="6.470685681764811"><ele>782.0</ele><time>2026-04-18T12:40:08Z</time></trkpt><trkpt lat="44.53659970144762" lon="6.470953902564371"><ele>782.0</ele><time>2026-04-18T12:40:09Z</time></trkpt><trkpt lat="44.53668570051158" lon="6.471228881007384"><ele>782.0</ele><time>2026-04-18T12:40:10Z</time></trkpt><trkpt lat="44.5367639509704" lon="6.4714953911752495"><ele>781.3333333333334</ele><time>2026-04-18T12:40:11Z</time></trkpt><trkpt lat="44.53682488992674" lon="6.471760841222313"><ele>780.6666666666667</ele><time>2026-04-18T12:40:12Z</time></trkpt><trkpt lat="44.53691026582863" lon="6.4720291259640925"><ele>780.0</ele><time>2026-04-18T12:40:13Z</time></trkpt><trkpt lat="44.5369823170264" lon="6.472290060092637"><ele>780.3333333333333</ele><time>2026-04-18T12:40:14Z</time></trkpt><trkpt lat="44.53705090060927" lon="6.472534164486827"><ele>780.6666666666666</ele><time>2026-04-18T12:40:15Z</time></trkpt><trkpt lat="44.537137138725235" lon="6.472784339304526"><ele>781.0</ele><time>2026-04-18T12:40:16Z</time></trkpt><trkpt lat="44.537222325014625" lon="6.473023618186418"><ele>781.6666666666666</ele><time>2026-04-18T12:40:17Z</time></trkpt><trkpt lat="44.53730226400193" lon="6.473249078671948"><ele>782.3333333333333</ele><time>2026-04-18T12:40:18Z</time></trkpt><trkpt lat="44.53738589359626" lon="6.473477639791637"><ele>783.0</ele><time>2026-04-18T12:40:19Z</time></trkpt><trkpt lat="44.5374848871428" lon="6.473685957312725"><ele>783.0</ele><time>2026-04-18T12:40:20Z</time></trkpt><trkpt lat="44.537622145308006" lon="6.473878622806672"><ele>783.0</ele><time>2026-04-18T12:40:21Z</time></trkpt><trkpt lat="44.537738204238025" lon="6.47406996637442"><ele>783.0</ele><time>2026-04-18T12:40:22Z</time></trkpt><trkpt lat="44.53786395685198" lon="6.474256036124399"><ele>783.0</ele><time>2026-04-18T12:40:23Z</time></trkpt><trkpt lat="44.53798665394978" lon="6.474443498490534"><ele>783.0</ele><time>2026-04-18T12:40:24Z</time></trkpt><trkpt lat="44.53811189832225" lon="6.474631150473509"><ele>783.0</ele><time>2026-04-18T12:40:25Z</time></trkpt><trkpt lat="44.53824670773998" lon="6.474811295190106"><ele>783.0</ele><time>2026-04-18T12:40:26Z</time></trkpt><trkpt lat="44.53838962536701" lon="6.474977848490466"><ele>783.0</ele><time>2026-04-18T12:40:27Z</time></trkpt><trkpt lat="44.53853153115858" lon="6.475140911433305"><ele>783.0</ele><time>2026-04-18T12:40:28Z</time></trkpt><trkpt lat="44.53867815907296" lon="6.475295386309641"><ele>783.0</ele><time>2026-04-18T12:40:29Z</time></trkpt><trkpt lat="44.53883337913854" lon="6.47544026012626"><ele>783.0</ele><time>2026-04-18T12:40:30Z</time></trkpt><trkpt lat="44.538993378952306" lon="6.475581842138073"><ele>783.0</ele><time>2026-04-18T12:40:31Z</time></trkpt><trkpt lat="44.539161124908894" lon="6.475720967326192"><ele>783.0</ele><time>2026-04-18T12:40:32Z</time></trkpt><trkpt lat="44.53932660096303" lon="6.475867625284675"><ele>783.0</ele><time>2026-04-18T12:40:33Z</time></trkpt><trkpt lat="44.53948087979255" lon="6.47602593477158"><ele>783.0</ele><time>2026-04-18T12:40:34Z</time></trkpt><trkpt lat="44.53964058407451" lon="6.476171685549288"><ele>782.6666666666667</ele><time>2026-04-18T12:40:35Z</time></trkpt><trkpt lat="44.53979788253668" lon="6.476297891793444"><ele>782.3333333333334</ele><time>2026-04-18T12:40:36Z</time></trkpt><trkpt lat="44.53994174520776" lon="6.4764458777333"><ele>782.0</ele><time>2026-04-18T12:40:37Z</time></trkpt><trkpt lat="44.54010301187362" lon="6.476581475265308"><ele>782.0</ele><time>2026-04-18T12:40:38Z</time></trkpt><trkpt lat="44.540247088439955" lon="6.476731983220134"><ele>782.0</ele><time>2026-04-18T12:40:39Z</time></trkpt><trkpt lat="44.54040216634636" lon="6.476865789424312"><ele>782.0</ele><time>2026-04-18T12:40:40Z</time></trkpt><trkpt lat="44.540537957307755" lon="6.477014122883239"><ele>781.6666666666667</ele><time>2026-04-18T12:40:41Z</time></trkpt><trkpt lat="44.54068791487557" lon="6.477152034221478"><ele>781.3333333333333</ele><time>2026-04-18T12:40:42Z</time></trkpt><trkpt lat="44.540833984391185" lon="6.477288196656918"><ele>781.0</ele><time>2026-04-18T12:40:43Z</time></trkpt><trkpt lat="44.54099612130911" lon="6.477426401860993"><ele>781.0</ele><time>2026-04-18T12:40:44Z</time></trkpt><trkpt lat="44.54115299647564" lon="6.477566464298535"><ele>781.0</ele><time>2026-04-18T12:40:45Z</time></trkpt><trkpt lat="44.54129738066961" lon="6.477712709122744"><ele>781.0</ele><time>2026-04-18T12:40:46Z</time></trkpt><trkpt lat="44.541450642353404" lon="6.477851067382876"><ele>781.6666666666666</ele><time>2026-04-18T12:40:47Z</time></trkpt><trkpt lat="44.54159677417208" lon="6.477997280461638"><ele>782.3333333333333</ele><time>2026-04-18T12:40:48Z</time></trkpt><trkpt lat="44.541751398113675" lon="6.4781252097369935"><ele>783.0</ele><time>2026-04-18T12:40:49Z</time></trkpt><trkpt lat="44.54189811035158" lon="6.478256724501816"><ele>783.0</ele><time>2026-04-18T12:40:50Z</time></trkpt><trkpt lat="44.54204305592503" lon="6.478389676844972"><ele>783.0</ele><time>2026-04-18T12:40:51Z</time></trkpt><trkpt lat="44.542178758832684" lon="6.47851520494816"><ele>783.0</ele><time>2026-04-18T12:40:52Z</time></trkpt><trkpt lat="44.54231765560562" lon="6.478643962691252"><ele>784.0</ele><time>2026-04-18T12:40:53Z</time></trkpt><trkpt lat="44.542461130885044" lon="6.478775202490507"><ele>785.0</ele><time>2026-04-18T12:40:53.999Z</time></trkpt><trkpt lat="44.54260104282929" lon="6.47890518358681"><ele>786.0</ele><time>2026-04-18T12:40:54.999Z</time></trkpt><trkpt lat="44.54274746807169" lon="6.479037058168151"><ele>785.6666666666667</ele><time>2026-04-18T12:40:55.999Z</time></trkpt><trkpt lat="44.54289950731327" lon="6.479166928040441"><ele>785.3333333333334</ele><time>2026-04-18T12:40:56.999Z</time></trkpt><trkpt lat="44.543045447846836" lon="6.479300609642834"><ele>785.0</ele><time>2026-04-18T12:40:57.999Z</time></trkpt><trkpt lat="44.543197773476855" lon="6.4794366959564815"><ele>785.0</ele><time>2026-04-18T12:40:58.999Z</time></trkpt><trkpt lat="44.543345001909174" lon="6.479569314616774"><ele>785.0</ele><time>2026-04-18T12:40:59.999Z</time></trkpt><trkpt lat="44.54350081492764" lon="6.4797006291819494"><ele>785.0</ele><time>2026-04-18T12:41:00.999Z</time></trkpt><trkpt lat="44.543641573467774" lon="6.47984722182821"><ele>785.3333333333334</ele><time>2026-04-18T12:41:01.999Z</time></trkpt><trkpt lat="44.54379745632449" lon="6.479969723298718"><ele>785.6666666666667</ele><time>2026-04-18T12:41:02.999Z</time></trkpt><trkpt lat="44.54394188394585" lon="6.480097784690133"><ele>786.0</ele><time>2026-04-18T12:41:03.999Z</time></trkpt><trkpt lat="44.544080181000496" lon="6.480226708788326"><ele>786.0</ele><time>2026-04-18T12:41:04.999Z</time></trkpt><trkpt lat="44.54421893343966" lon="6.480363056605388"><ele>786.0</ele><time>2026-04-18T12:41:05.999Z</time></trkpt><trkpt lat="44.5443585950408" lon="6.480496994770608"><ele>786.0</ele><time>2026-04-18T12:41:06.999Z</time></trkpt><trkpt lat="44.54449804869452" lon="6.48062673828802"><ele>786.0</ele><time>2026-04-18T12:41:07.999Z</time></trkpt><trkpt lat="44.54463920368199" lon="6.480752028404996"><ele>786.0</ele><time>2026-04-18T12:41:08.999Z</time></trkpt><trkpt lat="44.54477646905301" lon="6.480885655469158"><ele>786.0</ele><time>2026-04-18T12:41:09.999Z</time></trkpt><trkpt lat="44.54506223158179" lon="6.4811381672899975"><ele>786.3333333333333</ele><time>2026-04-18T12:41:11.999Z</time></trkpt><trkpt lat="44.54520444917766" lon="6.481276082096481"><ele>786.6666666666666</ele><time>2026-04-18T12:41:12.999Z</time></trkpt><trkpt lat="44.545353081800705" lon="6.481400466867844"><ele>787.0</ele><time>2026-04-18T12:41:13.999Z</time></trkpt><trkpt lat="44.545493746187596" lon="6.481537968356142"><ele>787.0</ele><time>2026-04-18T12:41:14.999Z</time></trkpt><trkpt lat="44.54564053894754" lon="6.481671538464144"><ele>787.0</ele><time>2026-04-18T12:41:15.999Z</time></trkpt><trkpt lat="44.54577486798137" lon="6.481822897188027"><ele>787.0</ele><time>2026-04-18T12:41:17Z</time></trkpt><trkpt lat="44.54592638729504" lon="6.4819497764584835"><ele>787.0</ele><time>2026-04-18T12:41:18Z</time></trkpt><trkpt lat="44.54607169066379" lon="6.482058456869533"><ele>787.0</ele><time>2026-04-18T12:41:19Z</time></trkpt><trkpt lat="44.546186478409695" lon="6.482190176105737"><ele>787.0</ele><time>2026-04-18T12:41:20Z</time></trkpt><trkpt lat="44.54632265730194" lon="6.482311751496263"><ele>787.0</ele><time>2026-04-18T12:41:21Z</time></trkpt><trkpt lat="44.54644995725928" lon="6.482435648710572"><ele>787.0</ele><time>2026-04-18T12:41:22Z</time></trkpt><trkpt lat="44.546577563721755" lon="6.482554253435706"><ele>787.0</ele><time>2026-04-18T12:41:23Z</time></trkpt><trkpt lat="44.546709746760826" lon="6.482659546679412"><ele>787.0</ele><time>2026-04-18T12:41:24Z</time></trkpt><trkpt lat="44.54683239548144" lon="6.482766366941161"><ele>787.0</ele><time>2026-04-18T12:41:25Z</time></trkpt><trkpt lat="44.5469543426872" lon="6.482880546876528"><ele>787.0</ele><time>2026-04-18T12:41:26Z</time></trkpt><trkpt lat="44.547070420169874" lon="6.4830073429070625"><ele>787.0</ele><time>2026-04-18T12:41:27Z</time></trkpt><trkpt lat="44.54719188394722" lon="6.483131028504743"><ele>787.25</ele><time>2026-04-18T12:41:28Z</time></trkpt><trkpt lat="44.54730396360524" lon="6.483256381599091"><ele>787.5</ele><time>2026-04-18T12:41:29Z</time></trkpt><trkpt lat="44.547416451665924" lon="6.483377854162146"><ele>787.75</ele><time>2026-04-18T12:41:30Z</time></trkpt><trkpt lat="44.54752923004513" lon="6.4835028541372"><ele>788.0</ele><time>2026-04-18T12:41:31Z</time></trkpt><trkpt lat="44.54763359728837" lon="6.483625718557617"><ele>788.0</ele><time>2026-04-18T12:41:32Z</time></trkpt><trkpt lat="44.54772765587062" lon="6.483754533487281"><ele>788.0</ele><time>2026-04-18T12:41:33Z</time></trkpt><trkpt lat="44.54782386416634" lon="6.483866243431486"><ele>788.0</ele><time>2026-04-18T12:41:34Z</time></trkpt><trkpt lat="44.54791264236144" lon="6.483980402350618"><ele>788.0</ele><time>2026-04-18T12:41:35Z</time></trkpt><trkpt lat="44.54798592547177" lon="6.4840871763801315"><ele>788.0000000000001</ele><time>2026-04-18T12:41:36Z</time></trkpt><trkpt lat="44.54804795543518" lon="6.4841788915969225"><ele>788.0</ele><time>2026-04-18T12:41:37Z</time></trkpt><trkpt lat="44.548096544369805" lon="6.484266330697017"><ele>788.0</ele><time>2026-04-18T12:41:38Z</time></trkpt><trkpt lat="44.54812986300924" lon="6.484389017087239"><ele>788.0</ele><time>2026-04-18T12:41:40Z</time></trkpt><trkpt lat="44.54814031492256" lon="6.4845412875499955"><ele>788.0000000000001</ele><time>2026-04-18T12:41:44Z</time></trkpt><trkpt lat="44.54815217169796" lon="6.484648681062856"><ele>788.0</ele><time>2026-04-18T12:41:45Z</time></trkpt><trkpt lat="44.54817324048529" lon="6.484750529140698"><ele>788.2</ele><time>2026-04-18T12:41:46Z</time></trkpt><trkpt lat="44.54821112957487" lon="6.484871090592108"><ele>788.4</ele><time>2026-04-18T12:41:47Z</time></trkpt><trkpt lat="44.548256276232166" lon="6.48495203308446"><ele>788.6</ele><time>2026-04-18T12:41:48Z</time></trkpt><trkpt lat="44.548362585850576" lon="6.484997787609911"><ele>788.8000000000001</ele><time>2026-04-18T12:41:49Z</time></trkpt><trkpt lat="44.54847581262022" lon="6.48501854978773"><ele>789.0</ele><time>2026-04-18T12:41:50Z</time></trkpt><trkpt lat="44.54856090240571" lon="6.485064175020688"><ele>789.0</ele><time>2026-04-18T12:41:51Z</time></trkpt><trkpt lat="44.548641057523774" lon="6.4851567888676955"><ele>789.0</ele><time>2026-04-18T12:41:52Z</time></trkpt><trkpt lat="44.54872582845397" lon="6.485284242864846"><ele>789.0</ele><time>2026-04-18T12:41:53Z</time></trkpt><trkpt lat="44.54878838440574" lon="6.485445659630214"><ele>789.0</ele><time>2026-04-18T12:41:54Z</time></trkpt><trkpt lat="44.54885312662162" lon="6.485602634211416"><ele>789.5</ele><time>2026-04-18T12:41:55Z</time></trkpt><trkpt lat="44.548921375957526" lon="6.485764311836511"><ele>790.0</ele><time>2026-04-18T12:41:56Z</time></trkpt><trkpt lat="44.54900171390965" lon="6.485932871839965"><ele>790.5</ele><time>2026-04-18T12:41:57Z</time></trkpt><trkpt lat="44.54906762709284" lon="6.4861190051196065"><ele>791.0</ele><time>2026-04-18T12:41:58Z</time></trkpt><trkpt lat="44.549156182071215" lon="6.486296229765267"><ele>791.0</ele><time>2026-04-18T12:41:59Z</time></trkpt><trkpt lat="44.549237393731296" lon="6.486497003459243"><ele>791.0</ele><time>2026-04-18T12:42:00Z</time></trkpt><trkpt lat="44.5495060532429" lon="6.48707838051656"><ele>790.6666666666667</ele><time>2026-04-18T12:42:03Z</time></trkpt><trkpt lat="44.54958686114853" lon="6.487279783038188"><ele>790.3333333333333</ele><time>2026-04-18T12:42:04Z</time></trkpt><trkpt lat="44.54965828245195" lon="6.487479628940521"><ele>790.0</ele><time>2026-04-18T12:42:05Z</time></trkpt><trkpt lat="44.549742980048684" lon="6.4876816436881395"><ele>790.0</ele><time>2026-04-18T12:42:06Z</time></trkpt><trkpt lat="44.54982275176952" lon="6.487884774580835"><ele>790.0</ele><time>2026-04-18T12:42:07Z</time></trkpt><trkpt lat="44.54992088451527" lon="6.488081735486005"><ele>790.0</ele><time>2026-04-18T12:42:08Z</time></trkpt><trkpt lat="44.55000950714261" lon="6.488284002395385"><ele>791.0</ele><time>2026-04-18T12:42:09Z</time></trkpt><trkpt lat="44.550097110084636" lon="6.488489586928504"><ele>792.0</ele><time>2026-04-18T12:42:10Z</time></trkpt><trkpt lat="44.55018547506028" lon="6.488691296701131"><ele>793.0</ele><time>2026-04-18T12:42:11Z</time></trkpt><trkpt lat="44.55026899121287" lon="6.488891610750514"><ele>792.75</ele><time>2026-04-18T12:42:12Z</time></trkpt><trkpt lat="44.55033624913089" lon="6.489079553019552"><ele>792.5</ele><time>2026-04-18T12:42:13Z</time></trkpt><trkpt lat="44.55040287589796" lon="6.489267250803185"><ele>792.25</ele><time>2026-04-18T12:42:14Z</time></trkpt><trkpt lat="44.55047331449776" lon="6.489452245800374"><ele>792.0</ele><time>2026-04-18T12:42:15Z</time></trkpt><trkpt lat="44.5505349524329" lon="6.48963150567518"><ele>792.0</ele><time>2026-04-18T12:42:16Z</time></trkpt><trkpt lat="44.550586808013236" lon="6.489811101072112"><ele>792.0</ele><time>2026-04-18T12:42:17Z</time></trkpt><trkpt lat="44.550630285054964" lon="6.489973880720806"><ele>792.0</ele><time>2026-04-18T12:42:18Z</time></trkpt><trkpt lat="44.5506701391711" lon="6.490141415196398"><ele>792.0</ele><time>2026-04-18T12:42:19Z</time></trkpt><trkpt lat="44.55072229246202" lon="6.490303171072416"><ele>792.25</ele><time>2026-04-18T12:42:20Z</time></trkpt><trkpt lat="44.55077051406556" lon="6.490468048789254"><ele>792.5</ele><time>2026-04-18T12:42:21Z</time></trkpt><trkpt lat="44.550821311528594" lon="6.490628417008305"><ele>792.75</ele><time>2026-04-18T12:42:22Z</time></trkpt><trkpt lat="44.550870586541656" lon="6.490788521268755"><ele>793.0</ele><time>2026-04-18T12:42:23Z</time></trkpt><trkpt lat="44.55091687804954" lon="6.490944587009606"><ele>793.0</ele><time>2026-04-18T12:42:24Z</time></trkpt><trkpt lat="44.55096101670117" lon="6.491118056970823"><ele>793.0</ele><time>2026-04-18T12:42:25Z</time></trkpt><trkpt lat="44.55100987548705" lon="6.491280742765326"><ele>793.0</ele><time>2026-04-18T12:42:26Z</time></trkpt><trkpt lat="44.55105693033135" lon="6.491442727370487"><ele>793.0</ele><time>2026-04-18T12:42:27Z</time></trkpt><trkpt lat="44.551106241717655" lon="6.491616168561664"><ele>793.0</ele><time>2026-04-18T12:42:28Z</time></trkpt><trkpt lat="44.55115255465948" lon="6.49178686015125"><ele>793.0</ele><time>2026-04-18T12:42:29Z</time></trkpt><trkpt lat="44.55119602251907" lon="6.491955952217833"><ele>793.0</ele><time>2026-04-18T12:42:30Z</time></trkpt><trkpt lat="44.55125439639869" lon="6.4921390036486"><ele>793.0</ele><time>2026-04-18T12:42:31Z</time></trkpt><trkpt lat="44.55131095717172" lon="6.492327087369915"><ele>793.0</ele><time>2026-04-18T12:42:32Z</time></trkpt><trkpt lat="44.551385071244965" lon="6.492526218110009"><ele>793.0</ele><time>2026-04-18T12:42:33Z</time></trkpt><trkpt lat="44.55145264948936" lon="6.492737738109901"><ele>793.0</ele><time>2026-04-18T12:42:34Z</time></trkpt><trkpt lat="44.55151896766511" lon="6.492977770501529"><ele>793.6666666666666</ele><time>2026-04-18T12:42:35Z</time></trkpt><trkpt lat="44.55158414257862" lon="6.493223184005765"><ele>794.3333333333333</ele><time>2026-04-18T12:42:36Z</time></trkpt><trkpt lat="44.551660590313865" lon="6.4934971095375875"><ele>795.0</ele><time>2026-04-18T12:42:37Z</time></trkpt><trkpt lat="44.5517355918098" lon="6.493749380648384"><ele>795.0</ele><time>2026-04-18T12:42:38Z</time></trkpt><trkpt lat="44.5518119007151" lon="6.494007786012833"><ele>795.0</ele><time>2026-04-18T12:42:39Z</time></trkpt><trkpt lat="44.55189314520319" lon="6.494267987515251"><ele>795.0</ele><time>2026-04-18T12:42:40Z</time></trkpt><trkpt lat="44.551975914783945" lon="6.494529577591075"><ele>795.0</ele><time>2026-04-18T12:42:41Z</time></trkpt><trkpt lat="44.5520524837784" lon="6.49478799919253"><ele>795.0</ele><time>2026-04-18T12:42:42Z</time></trkpt><trkpt lat="44.55211900872736" lon="6.495042892790439"><ele>795.0</ele><time>2026-04-18T12:42:43Z</time></trkpt><trkpt lat="44.552202139675984" lon="6.495306171486642"><ele>795.0</ele><time>2026-04-18T12:42:44Z</time></trkpt><trkpt lat="44.55227663609772" lon="6.495575584822526"><ele>795.0</ele><time>2026-04-18T12:42:45Z</time></trkpt><trkpt lat="44.55235619227877" lon="6.495843781824648"><ele>795.0</ele><time>2026-04-18T12:42:46Z</time></trkpt><trkpt lat="44.552437785976366" lon="6.496112163483917"><ele>795.6666666666667</ele><time>2026-04-18T12:42:47Z</time></trkpt><trkpt lat="44.55251930585659" lon="6.496385058870253"><ele>796.3333333333334</ele><time>2026-04-18T12:42:48Z</time></trkpt><trkpt lat="44.552609025190364" lon="6.496664920034967"><ele>797.0</ele><time>2026-04-18T12:42:49Z</time></trkpt><trkpt lat="44.552684037621866" lon="6.496929413839664"><ele>797.3333333333334</ele><time>2026-04-18T12:42:50Z</time></trkpt><trkpt lat="44.552773249339346" lon="6.497200149970207"><ele>797.6666666666667</ele><time>2026-04-18T12:42:51Z</time></trkpt><trkpt lat="44.552848572525754" lon="6.497476935810989"><ele>798.0</ele><time>2026-04-18T12:42:52Z</time></trkpt><trkpt lat="44.552933420295474" lon="6.497761623091725"><ele>796.6666666666667</ele><time>2026-04-18T12:42:53Z</time></trkpt><trkpt lat="44.55301745037199" lon="6.498052376022876"><ele>795.3333333333334</ele><time>2026-04-18T12:42:54Z</time></trkpt><trkpt lat="44.55310185689221" lon="6.498344561909213"><ele>794.0</ele><time>2026-04-18T12:42:55Z</time></trkpt><trkpt lat="44.553187474707265" lon="6.498645377707625"><ele>793.0</ele><time>2026-04-18T12:42:56Z</time></trkpt><trkpt lat="44.55327251125122" lon="6.49894546521257"><ele>792.0</ele><time>2026-04-18T12:42:57Z</time></trkpt><trkpt lat="44.55336716080008" lon="6.499254366667283"><ele>792.0</ele><time>2026-04-18T12:42:58Z</time></trkpt><trkpt lat="44.553462547163896" lon="6.499563502526459"><ele>792.0</ele><time>2026-04-18T12:42:59Z</time></trkpt><trkpt lat="44.55355165590972" lon="6.49987552336986"><ele>791.5</ele><time>2026-04-18T12:42:59.999Z</time></trkpt><trkpt lat="44.55366050184126" lon="6.500184175942746"><ele>791.0</ele><time>2026-04-18T12:43:00.999Z</time></trkpt><trkpt lat="44.55378443421366" lon="6.500497212281245"><ele>791.0</ele><time>2026-04-18T12:43:01.999Z</time></trkpt><trkpt lat="44.55391242618092" lon="6.50081749913024"><ele>791.0</ele><time>2026-04-18T12:43:02.999Z</time></trkpt><trkpt lat="44.55406281249527" lon="6.501137385502474"><ele>791.5</ele><time>2026-04-18T12:43:03.999Z</time></trkpt><trkpt lat="44.55421616944193" lon="6.501464731384978"><ele>792.0</ele><time>2026-04-18T12:43:04.999Z</time></trkpt><trkpt lat="44.55438895887999" lon="6.501783964702125"><ele>792.5</ele><time>2026-04-18T12:43:05.999Z</time></trkpt><trkpt lat="44.55455406439678" lon="6.502091689785068"><ele>793.0</ele><time>2026-04-18T12:43:06.999Z</time></trkpt><trkpt lat="44.55473517723395" lon="6.50238079644115"><ele>793.0</ele><time>2026-04-18T12:43:07.999Z</time></trkpt><trkpt lat="44.55491568319177" lon="6.50266413125963"><ele>793.0</ele><time>2026-04-18T12:43:08.999Z</time></trkpt><trkpt lat="44.55510329986297" lon="6.502938592967477"><ele>792.5</ele><time>2026-04-18T12:43:09.999Z</time></trkpt><trkpt lat="44.55529642659257" lon="6.503202900032354"><ele>792.0</ele><time>2026-04-18T12:43:10.999Z</time></trkpt><trkpt lat="44.555485927741714" lon="6.503454865193505"><ele>792.0</ele><time>2026-04-18T12:43:11.999Z</time></trkpt><trkpt lat="44.55568860737301" lon="6.503691504012341"><ele>792.0</ele><time>2026-04-18T12:43:12.999Z</time></trkpt><trkpt lat="44.555896136945265" lon="6.50391715958205"><ele>792.0</ele><time>2026-04-18T12:43:13.999Z</time></trkpt><trkpt lat="44.55611297639108" lon="6.504125701338604"><ele>792.0</ele><time>2026-04-18T12:43:14.999Z</time></trkpt><trkpt lat="44.55632280982937" lon="6.504343883136029"><ele>792.0</ele><time>2026-04-18T12:43:15.999Z</time></trkpt><trkpt lat="44.55655477208254" lon="6.504512721486404"><ele>792.0</ele><time>2026-04-18T12:43:16.999Z</time></trkpt><trkpt lat="44.55676832814617" lon="6.504697518978728"><ele>792.0</ele><time>2026-04-18T12:43:17.999Z</time></trkpt><trkpt lat="44.55699431293518" lon="6.504867285793134"><ele>792.0</ele><time>2026-04-18T12:43:18.999Z</time></trkpt><trkpt lat="44.5572181771337" lon="6.505025055129795"><ele>792.0</ele><time>2026-04-18T12:43:19.999Z</time></trkpt><trkpt lat="44.557442625841134" lon="6.505167861031085"><ele>792.0</ele><time>2026-04-18T12:43:20.999Z</time></trkpt><trkpt lat="44.557660290508295" lon="6.505302789527425"><ele>793.0</ele><time>2026-04-18T12:43:21.999Z</time></trkpt><trkpt lat="44.55787751683366" lon="6.505420712574331"><ele>794.0</ele><time>2026-04-18T12:43:22.999Z</time></trkpt><trkpt lat="44.55809077784656" lon="6.505518387140743"><ele>794.0</ele><time>2026-04-18T12:43:23.999Z</time></trkpt><trkpt lat="44.55828758248949" lon="6.505602438051804"><ele>794.0</ele><time>2026-04-18T12:43:24.999Z</time></trkpt><trkpt lat="44.55851732740754" lon="6.505680683098223"><ele>794.0</ele><time>2026-04-18T12:43:25.999Z</time></trkpt><trkpt lat="44.55874082011421" lon="6.505754981320835"><ele>793.3333333333334</ele><time>2026-04-18T12:43:27Z</time></trkpt><trkpt lat="44.558957841543766" lon="6.505829440263379"><ele>792.6666666666667</ele><time>2026-04-18T12:43:28Z</time></trkpt><trkpt lat="44.55917763029491" lon="6.50588951820643"><ele>792.0</ele><time>2026-04-18T12:43:29Z</time></trkpt><trkpt lat="44.55939378703584" lon="6.505952590513453"><ele>792.0</ele><time>2026-04-18T12:43:30Z</time></trkpt><trkpt lat="44.559611120369375" lon="6.506020342211825"><ele>792.0</ele><time>2026-04-18T12:43:31Z</time></trkpt><trkpt lat="44.559810829700055" lon="6.506079921950946"><ele>792.0</ele><time>2026-04-18T12:43:32Z</time></trkpt><trkpt lat="44.56000234030983" lon="6.506145065671379"><ele>792.0</ele><time>2026-04-18T12:43:33Z</time></trkpt><trkpt lat="44.56020810786543" lon="6.50621043139926"><ele>792.0</ele><time>2026-04-18T12:43:34Z</time></trkpt><trkpt lat="44.56041118025185" lon="6.506271293647071"><ele>792.0</ele><time>2026-04-18T12:43:35Z</time></trkpt><trkpt lat="44.5606213526203" lon="6.506333869065035"><ele>793.0</ele><time>2026-04-18T12:43:36Z</time></trkpt><trkpt lat="44.56083753538857" lon="6.506405448257609"><ele>794.0</ele><time>2026-04-18T12:43:37Z</time></trkpt><trkpt lat="44.56105416280668" lon="6.5064816546838244"><ele>795.0</ele><time>2026-04-18T12:43:38Z</time></trkpt><trkpt lat="44.56129007026607" lon="6.506549803936688"><ele>796.5</ele><time>2026-04-18T12:43:39Z</time></trkpt><trkpt lat="44.561515781336624" lon="6.506615092348433"><ele>798.0</ele><time>2026-04-18T12:43:40Z</time></trkpt><trkpt lat="44.56174715108955" lon="6.506682627425769"><ele>798.0</ele><time>2026-04-18T12:43:41Z</time></trkpt><trkpt lat="44.56199585396499" lon="6.506752220266644"><ele>798.0</ele><time>2026-04-18T12:43:42Z</time></trkpt><trkpt lat="44.56226093984273" lon="6.506820571267454"><ele>800.0</ele><time>2026-04-18T12:43:43Z</time></trkpt><trkpt lat="44.562525496550776" lon="6.506898121570851"><ele>802.0</ele><time>2026-04-18T12:43:44Z</time></trkpt><trkpt lat="44.5628039775861" lon="6.506996357616769"><ele>805.0</ele><time>2026-04-18T12:43:45Z</time></trkpt><trkpt lat="44.5630853923685" lon="6.507097990653372"><ele>808.0</ele><time>2026-04-18T12:43:46Z</time></trkpt><trkpt lat="44.56334107922593" lon="6.507192074131964"><ele>808.0</ele><time>2026-04-18T12:43:47Z</time></trkpt><trkpt lat="44.56361372202448" lon="6.5072721711331365"><ele>808.0</ele><time>2026-04-18T12:43:48Z</time></trkpt><trkpt lat="44.56388405212921" lon="6.507370383529778"><ele>808.5</ele><time>2026-04-18T12:43:49Z</time></trkpt><trkpt lat="44.56415398376318" lon="6.50746115489124"><ele>809.0</ele><time>2026-04-18T12:43:50Z</time></trkpt><trkpt lat="44.56440583076249" lon="6.507545586093377"><ele>810.0</ele><time>2026-04-18T12:43:51Z</time></trkpt><trkpt lat="44.564650542181354" lon="6.507629501580989"><ele>811.0</ele><time>2026-04-18T12:43:52Z</time></trkpt><trkpt lat="44.564894113219076" lon="6.507711893534696"><ele>811.0</ele><time>2026-04-18T12:43:53Z</time></trkpt><trkpt lat="44.56512657116368" lon="6.507778274227521"><ele>811.0</ele><time>2026-04-18T12:43:54Z</time></trkpt><trkpt lat="44.56537683090219" lon="6.507852935924536"><ele>818.5</ele><time>2026-04-18T12:43:55Z</time></trkpt><trkpt lat="44.56563314685372" lon="6.507948147374313"><ele>826.0</ele><time>2026-04-18T12:43:56Z</time></trkpt><trkpt lat="44.565881249422" lon="6.508026507485145"><ele>826.0</ele><time>2026-04-18T12:43:57Z</time></trkpt><trkpt lat="44.566126014710775" lon="6.508095549581772"><ele>826.0</ele><time>2026-04-18T12:43:58Z</time></trkpt><trkpt lat="44.566382656028466" lon="6.508170328673947"><ele>824.0</ele><time>2026-04-18T12:43:59Z</time></trkpt><trkpt lat="44.5666172896634" lon="6.508245658827084"><ele>822.0</ele><time>2026-04-18T12:44:00Z</time></trkpt><trkpt lat="44.566855794922496" lon="6.5083255609089425"><ele>821.0</ele><time>2026-04-18T12:44:01Z</time></trkpt><trkpt lat="44.567096963318285" lon="6.508397827107713"><ele>820.0</ele><time>2026-04-18T12:44:02Z</time></trkpt><trkpt lat="44.56734040006591" lon="6.508477326941792"><ele>820.0</ele><time>2026-04-18T12:44:03Z</time></trkpt><trkpt lat="44.56756681787864" lon="6.508550790424121"><ele>820.0</ele><time>2026-04-18T12:44:04Z</time></trkpt><trkpt lat="44.567793005959736" lon="6.508619340155456"><ele>819.0</ele><time>2026-04-18T12:44:05Z</time></trkpt><trkpt lat="44.56801889188491" lon="6.508689075613937"><ele>818.0</ele><time>2026-04-18T12:44:06Z</time></trkpt><trkpt lat="44.56824258159931" lon="6.508771615346039"><ele>818.0</ele><time>2026-04-18T12:44:07Z</time></trkpt><trkpt lat="44.56846554142897" lon="6.508862300315939"><ele>818.0</ele><time>2026-04-18T12:44:08Z</time></trkpt><trkpt lat="44.5686852652904" lon="6.508963932415141"><ele>821.0</ele><time>2026-04-18T12:44:09Z</time></trkpt><trkpt lat="44.56891386088144" lon="6.509097988159792"><ele>824.0</ele><time>2026-04-18T12:44:10Z</time></trkpt><trkpt lat="44.569148365762445" lon="6.509233547711737"><ele>824.0</ele><time>2026-04-18T12:44:11Z</time></trkpt><trkpt lat="44.569371609444566" lon="6.5093724783261875"><ele>824.0</ele><time>2026-04-18T12:44:12Z</time></trkpt><trkpt lat="44.569602585240226" lon="6.5095009712792145"><ele>822.0</ele><time>2026-04-18T12:44:13Z</time></trkpt><trkpt lat="44.56982516902866" lon="6.509624856731052"><ele>820.0</ele><time>2026-04-18T12:44:14Z</time></trkpt><trkpt lat="44.57005999262478" lon="6.509734298500287"><ele>820.0</ele><time>2026-04-18T12:44:15Z</time></trkpt><trkpt lat="44.57029810643614" lon="6.50982044858931"><ele>820.0</ele><time>2026-04-18T12:44:16Z</time></trkpt><trkpt lat="44.570538298864" lon="6.509892391438096"><ele>824.5</ele><time>2026-04-18T12:44:17Z</time></trkpt><trkpt lat="44.570787753817676" lon="6.509942067099134"><ele>829.0</ele><time>2026-04-18T12:44:18Z</time></trkpt><trkpt lat="44.57103400940861" lon="6.509992253351777"><ele>834.5</ele><time>2026-04-18T12:44:19Z</time></trkpt><trkpt lat="44.57129388430684" lon="6.510027115164139"><ele>840.0</ele><time>2026-04-18T12:44:20Z</time></trkpt><trkpt lat="44.57153918397653" lon="6.510061312872087"><ele>840.0</ele><time>2026-04-18T12:44:21Z</time></trkpt><trkpt lat="44.571787830410784" lon="6.51010639076471"><ele>840.0</ele><time>2026-04-18T12:44:22Z</time></trkpt><trkpt lat="44.572049581992246" lon="6.510149134250748"><ele>848.0</ele><time>2026-04-18T12:44:23Z</time></trkpt><trkpt lat="44.57231815455336" lon="6.510193735369092"><ele>856.0</ele><time>2026-04-18T12:44:24Z</time></trkpt><trkpt lat="44.572579999969335" lon="6.510247583166157"><ele>862.0</ele><time>2026-04-18T12:44:25Z</time></trkpt><trkpt lat="44.572865332967886" lon="6.51033702362597"><ele>868.0</ele><time>2026-04-18T12:44:26Z</time></trkpt><trkpt lat="44.57314283993974" lon="6.510396601542664"><ele>854.5</ele><time>2026-04-18T12:44:27Z</time></trkpt><trkpt lat="44.57340872263441" lon="6.510480785595188"><ele>841.0</ele><time>2026-04-18T12:44:28Z</time></trkpt><trkpt lat="44.5736882669627" lon="6.510557049214783"><ele>848.5</ele><time>2026-04-18T12:44:29Z</time></trkpt><trkpt lat="44.57396684907513" lon="6.5106349219197"><ele>856.0</ele><time>2026-04-18T12:44:30Z</time></trkpt><trkpt lat="44.57425357563301" lon="6.51068881109752"><ele>861.0</ele><time>2026-04-18T12:44:31Z</time></trkpt><trkpt lat="44.57453437297647" lon="6.510734066438486"><ele>866.0</ele><time>2026-04-18T12:44:32Z</time></trkpt><trkpt lat="44.57482623808655" lon="6.510766577980785"><ele>866.0</ele><time>2026-04-18T12:44:33Z</time></trkpt><trkpt lat="44.575101550864005" lon="6.51078308080545"><ele>866.0</ele><time>2026-04-18T12:44:34Z</time></trkpt><trkpt lat="44.575385267250056" lon="6.510795406797085"><ele>869.0</ele><time>2026-04-18T12:44:35Z</time></trkpt><trkpt lat="44.57567932711991" lon="6.510807145675035"><ele>872.0</ele><time>2026-04-18T12:44:36Z</time></trkpt><trkpt lat="44.57596532831783" lon="6.51081193839663"><ele>875.0</ele><time>2026-04-18T12:44:37Z</time></trkpt><trkpt lat="44.576242083486264" lon="6.510823882128131"><ele>878.0</ele><time>2026-04-18T12:44:38Z</time></trkpt><trkpt lat="44.57653540611129" lon="6.5108477077560405"><ele>878.0</ele><time>2026-04-18T12:44:39Z</time></trkpt><trkpt lat="44.576808294886376" lon="6.510874582054205"><ele>878.0</ele><time>2026-04-18T12:44:40Z</time></trkpt><trkpt lat="44.57707362691482" lon="6.510907467736904"><ele>881.5</ele><time>2026-04-18T12:44:41Z</time></trkpt><trkpt lat="44.57735083452426" lon="6.510949659687594"><ele>885.0</ele><time>2026-04-18T12:44:42Z</time></trkpt><trkpt lat="44.577620197885345" lon="6.511005437315586"><ele>886.5</ele><time>2026-04-18T12:44:43Z</time></trkpt><trkpt lat="44.57789811686262" lon="6.511076762505668"><ele>888.0</ele><time>2026-04-18T12:44:44Z</time></trkpt><trkpt lat="44.57818284190555" lon="6.511150415429767"><ele>888.0</ele><time>2026-04-18T12:44:45Z</time></trkpt><trkpt lat="44.57846457584984" lon="6.511222904459731"><ele>888.0</ele><time>2026-04-18T12:44:46Z</time></trkpt><trkpt lat="44.57872963062568" lon="6.511291305706432"><ele>889.5</ele><time>2026-04-18T12:44:47Z</time></trkpt><trkpt lat="44.579008868094235" lon="6.5113624606074705"><ele>891.0</ele><time>2026-04-18T12:44:48Z</time></trkpt><trkpt lat="44.57927990871288" lon="6.511430145921585"><ele>891.5</ele><time>2026-04-18T12:44:49Z</time></trkpt><trkpt lat="44.579561241376155" lon="6.511497873315356"><ele>892.0</ele><time>2026-04-18T12:44:50.001Z</time></trkpt><trkpt lat="44.57984548949034" lon="6.511566340097935"><ele>892.0</ele><time>2026-04-18T12:44:51.001Z</time></trkpt><trkpt lat="44.58012771094983" lon="6.511634769385797"><ele>892.0</ele><time>2026-04-18T12:44:52.001Z</time></trkpt><trkpt lat="44.58039669502343" lon="6.511700545580827"><ele>892.0</ele><time>2026-04-18T12:44:53.001Z</time></trkpt><trkpt lat="44.58069016899068" lon="6.511773864363693"><ele>892.0</ele><time>2026-04-18T12:44:54.001Z</time></trkpt><trkpt lat="44.580970325579884" lon="6.511844673763472"><ele>892.0</ele><time>2026-04-18T12:44:55.001Z</time></trkpt><trkpt lat="44.581291359818344" lon="6.511929355310939"><ele>892.0</ele><time>2026-04-18T12:44:56.001Z</time></trkpt><trkpt lat="44.581583136229426" lon="6.512006319326242"><ele>892.0</ele><time>2026-04-18T12:44:57.001Z</time></trkpt><trkpt lat="44.58184305216774" lon="6.51207175506628"><ele>892.0</ele><time>2026-04-18T12:44:58.001Z</time></trkpt><trkpt lat="44.58211083489302" lon="6.512137357214957"><ele>893.5</ele><time>2026-04-18T12:44:59.001Z</time></trkpt><trkpt lat="44.58237442802452" lon="6.5122007373943775"><ele>895.0</ele><time>2026-04-18T12:45:00.001Z</time></trkpt><trkpt lat="44.58265577410969" lon="6.512267608056683"><ele>896.0</ele><time>2026-04-18T12:45:01.001Z</time></trkpt><trkpt lat="44.582919145163366" lon="6.5123302065292386"><ele>897.0</ele><time>2026-04-18T12:45:02.001Z</time></trkpt><trkpt lat="44.58319175032772" lon="6.512394999778681"><ele>897.0</ele><time>2026-04-18T12:45:03.001Z</time></trkpt><trkpt lat="44.583472990446936" lon="6.512400499771633"><ele>897.0</ele><time>2026-04-18T12:45:04.001Z</time></trkpt><trkpt lat="44.58373697504737" lon="6.512479920145696"><ele>897.0</ele><time>2026-04-18T12:45:05.001Z</time></trkpt><trkpt lat="44.58398581093844" lon="6.512550633188638"><ele>897.0</ele><time>2026-04-18T12:45:05.999Z</time></trkpt><trkpt lat="44.58420178360083" lon="6.512586502298441"><ele>897.0</ele><time>2026-04-18T12:45:06.999Z</time></trkpt><trkpt lat="44.58440578036444" lon="6.5126504912049175"><ele>897.0</ele><time>2026-04-18T12:45:07.999Z</time></trkpt><trkpt lat="44.58459728122761" lon="6.512730664699031"><ele>897.0</ele><time>2026-04-18T12:45:08.999Z</time></trkpt><trkpt lat="44.58479062203692" lon="6.512794116737661"><ele>897.6666666666667</ele><time>2026-04-18T12:45:09.999Z</time></trkpt><trkpt lat="44.58496605680709" lon="6.512852734979254"><ele>898.3333333333334</ele><time>2026-04-18T12:45:10.999Z</time></trkpt><trkpt lat="44.58514472853659" lon="6.5129224879509495"><ele>899.0</ele><time>2026-04-18T12:45:11.999Z</time></trkpt><trkpt lat="44.58531552865967" lon="6.512957459828407"><ele>899.0</ele><time>2026-04-18T12:45:13Z</time></trkpt><trkpt lat="44.58547181260508" lon="6.5130113237732505"><ele>899.0</ele><time>2026-04-18T12:45:14Z</time></trkpt><trkpt lat="44.58560617719321" lon="6.513071884277922"><ele>899.0</ele><time>2026-04-18T12:45:15Z</time></trkpt><trkpt lat="44.585745394061576" lon="6.513120227330821"><ele>899.0</ele><time>2026-04-18T12:45:16Z</time></trkpt><trkpt lat="44.585852398178865" lon="6.513152995676432"><ele>899.0</ele><time>2026-04-18T12:45:17Z</time></trkpt><trkpt lat="44.585967037236465" lon="6.513185529082665"><ele>899.0000000000001</ele><time>2026-04-18T12:45:18Z</time></trkpt><trkpt lat="44.586059840147264" lon="6.5132130234166175"><ele>899.0000000000001</ele><time>2026-04-18T12:45:19Z</time></trkpt><trkpt lat="44.58614667388334" lon="6.513247338590766"><ele>899.0</ele><time>2026-04-18T12:45:20Z</time></trkpt><trkpt lat="44.58623928850805" lon="6.513291413263742"><ele>899.0</ele><time>2026-04-18T12:45:21Z</time></trkpt><trkpt lat="44.58630081208561" lon="6.51332314803128"><ele>899.3333333333334</ele><time>2026-04-18T12:45:22Z</time></trkpt><trkpt lat="44.58635761539506" lon="6.513388050222581"><ele>899.6666666666667</ele><time>2026-04-18T12:45:23Z</time></trkpt><trkpt lat="44.586425997311984" lon="6.513463858367094"><ele>900.0</ele><time>2026-04-18T12:45:24Z</time></trkpt><trkpt lat="44.58648080320038" lon="6.513558690627464"><ele>900.3333333333333</ele><time>2026-04-18T12:45:25Z</time></trkpt><trkpt lat="44.58655301866365" lon="6.513636298028647"><ele>900.6666666666666</ele><time>2026-04-18T12:45:26Z</time></trkpt><trkpt lat="44.58663533215208" lon="6.513676137570289"><ele>901.0</ele><time>2026-04-18T12:45:27Z</time></trkpt><trkpt lat="44.58671016621483" lon="6.513668231887825"><ele>901.0</ele><time>2026-04-18T12:45:28Z</time></trkpt><trkpt lat="44.586780606639124" lon="6.513637415940833"><ele>900.9999999999999</ele><time>2026-04-18T12:45:29Z</time></trkpt><trkpt lat="44.586885331921316" lon="6.5135861184667485"><ele>900.9999999999999</ele><time>2026-04-18T12:45:30Z</time></trkpt><trkpt lat="44.58699422865013" lon="6.51356004334601"><ele>901.0</ele><time>2026-04-18T12:45:31Z</time></trkpt><trkpt lat="44.5871103978818" lon="6.513585591322719"><ele>901.0</ele><time>2026-04-18T12:45:32Z</time></trkpt><trkpt lat="44.58724316765139" lon="6.513613091055823"><ele>902.25</ele><time>2026-04-18T12:45:33Z</time></trkpt><trkpt lat="44.587366662332016" lon="6.513650707338022"><ele>903.5</ele><time>2026-04-18T12:45:34Z</time></trkpt><trkpt lat="44.587517959058864" lon="6.513681673521826"><ele>904.75</ele><time>2026-04-18T12:45:35Z</time></trkpt><trkpt lat="44.58766557078623" lon="6.51370128824641"><ele>906.0</ele><time>2026-04-18T12:45:36Z</time></trkpt><trkpt lat="44.58788456166908" lon="6.5137162815742045"><ele>908.0</ele><time>2026-04-18T12:45:37Z</time></trkpt><trkpt lat="44.58812058344339" lon="6.513722012912335"><ele>910.0</ele><time>2026-04-18T12:45:38Z</time></trkpt><trkpt lat="44.588327939353725" lon="6.5137599297637365"><ele>912.0</ele><time>2026-04-18T12:45:39Z</time></trkpt><trkpt lat="44.58855123908945" lon="6.513797107505369"><ele>908.6666666666667</ele><time>2026-04-18T12:45:40Z</time></trkpt><trkpt lat="44.58875446522291" lon="6.513813957510657"><ele>905.3333333333334</ele><time>2026-04-18T12:45:41Z</time></trkpt><trkpt lat="44.588970398795645" lon="6.513830935924956"><ele>902.0</ele><time>2026-04-18T12:45:42Z</time></trkpt><trkpt lat="44.58919605535893" lon="6.513851515630449"><ele>902.0</ele><time>2026-04-18T12:45:43Z</time></trkpt><trkpt lat="44.58942519975979" lon="6.513870673106127"><ele>902.0</ele><time>2026-04-18T12:45:44Z</time></trkpt><trkpt lat="44.5896539239733" lon="6.5138896696488"><ele>903.0</ele><time>2026-04-18T12:45:45Z</time></trkpt><trkpt lat="44.589869334447755" lon="6.513970636205518"><ele>904.0</ele><time>2026-04-18T12:45:46Z</time></trkpt><trkpt lat="44.590082405947705" lon="6.514055749691057"><ele>905.0</ele><time>2026-04-18T12:45:47Z</time></trkpt><trkpt lat="44.590292649206035" lon="6.5141586087798755"><ele>905.3333333333334</ele><time>2026-04-18T12:45:48Z</time></trkpt><trkpt lat="44.59050181959974" lon="6.51428086229593"><ele>905.6666666666667</ele><time>2026-04-18T12:45:49Z</time></trkpt><trkpt lat="44.59070041533905" lon="6.514418421170249"><ele>906.0</ele><time>2026-04-18T12:45:50Z</time></trkpt><trkpt lat="44.59088496242108" lon="6.514584143793972"><ele>904.6666666666667</ele><time>2026-04-18T12:45:51Z</time></trkpt><trkpt lat="44.59104996305665" lon="6.514753803430554"><ele>903.3333333333334</ele><time>2026-04-18T12:45:52Z</time></trkpt><trkpt lat="44.59121565492781" lon="6.5149559670911525"><ele>902.0</ele><time>2026-04-18T12:45:53Z</time></trkpt><trkpt lat="44.591381396532405" lon="6.515171293292126"><ele>902.0</ele><time>2026-04-18T12:45:54Z</time></trkpt><trkpt lat="44.59153977544372" lon="6.515416597454706"><ele>902.0</ele><time>2026-04-18T12:45:55Z</time></trkpt><trkpt lat="44.591694095430405" lon="6.515674003639147"><ele>902.0</ele><time>2026-04-18T12:45:56Z</time></trkpt><trkpt lat="44.59181904097048" lon="6.515960454142611"><ele>902.0</ele><time>2026-04-18T12:45:57Z</time></trkpt><trkpt lat="44.59194121837058" lon="6.516259279143875"><ele>905.5</ele><time>2026-04-18T12:45:58Z</time></trkpt><trkpt lat="44.592053975846596" lon="6.516571994836025"><ele>909.0</ele><time>2026-04-18T12:45:59Z</time></trkpt><trkpt lat="44.5921590114681" lon="6.516890728393341"><ele>910.5</ele><time>2026-04-18T12:46:00Z</time></trkpt><trkpt lat="44.59226483652019" lon="6.517209001889949"><ele>912.0</ele><time>2026-04-18T12:46:01Z</time></trkpt><trkpt lat="44.59237170955215" lon="6.5175029246696505"><ele>912.0</ele><time>2026-04-18T12:46:02Z</time></trkpt><trkpt lat="44.592490951722105" lon="6.517811661578546"><ele>912.0</ele><time>2026-04-18T12:46:03Z</time></trkpt><trkpt lat="44.592623299547796" lon="6.518106318401239"><ele>913.0</ele><time>2026-04-18T12:46:04Z</time></trkpt><trkpt lat="44.59276115348806" lon="6.518379433893924"><ele>914.0</ele><time>2026-04-18T12:46:05Z</time></trkpt><trkpt lat="44.592917548511736" lon="6.518638441192145"><ele>915.5</ele><time>2026-04-18T12:46:06Z</time></trkpt><trkpt lat="44.59307878256386" lon="6.518895550050309"><ele>917.0</ele><time>2026-04-18T12:46:07Z</time></trkpt><trkpt lat="44.59325784943883" lon="6.519131129717318"><ele>917.0</ele><time>2026-04-18T12:46:08Z</time></trkpt><trkpt lat="44.59344969895164" lon="6.5193661896998885"><ele>917.0</ele><time>2026-04-18T12:46:09Z</time></trkpt><trkpt lat="44.593640213708085" lon="6.519601919137998"><ele>915.5</ele><time>2026-04-18T12:46:10Z</time></trkpt><trkpt lat="44.593833514982215" lon="6.519831998642774"><ele>914.0</ele><time>2026-04-18T12:46:11Z</time></trkpt><trkpt lat="44.594048002780475" lon="6.5200580786898135"><ele>914.0</ele><time>2026-04-18T12:46:12Z</time></trkpt><trkpt lat="44.59425284389863" lon="6.520296710943095"><ele>914.0</ele><time>2026-04-18T12:46:13Z</time></trkpt><trkpt lat="44.59444447660772" lon="6.520543933145881"><ele>912.5</ele><time>2026-04-18T12:46:14Z</time></trkpt><trkpt lat="44.594644869845645" lon="6.520776236625529"><ele>911.0</ele><time>2026-04-18T12:46:15Z</time></trkpt><trkpt lat="44.59484296709745" lon="6.521003112082101"><ele>911.0</ele><time>2026-04-18T12:46:16Z</time></trkpt><trkpt lat="44.59504004301209" lon="6.521232022866921"><ele>911.0</ele><time>2026-04-18T12:46:17Z</time></trkpt><trkpt lat="44.59523643761444" lon="6.521460436195862"><ele>912.5</ele><time>2026-04-18T12:46:18Z</time></trkpt><trkpt lat="44.59543492420998" lon="6.521692262243325"><ele>914.0</ele><time>2026-04-18T12:46:19Z</time></trkpt><trkpt lat="44.59563251568792" lon="6.5219104142812165"><ele>912.0</ele><time>2026-04-18T12:46:20Z</time></trkpt><trkpt lat="44.59582878650594" lon="6.522134183571861"><ele>910.0</ele><time>2026-04-18T12:46:21Z</time></trkpt><trkpt lat="44.59602941059001" lon="6.5223565594380055"><ele>913.0</ele><time>2026-04-18T12:46:22Z</time></trkpt><trkpt lat="44.5962224692886" lon="6.522584004018729"><ele>916.0</ele><time>2026-04-18T12:46:23Z</time></trkpt><trkpt lat="44.59640630479303" lon="6.522808653389087"><ele>915.0</ele><time>2026-04-18T12:46:24Z</time></trkpt><trkpt lat="44.59659899100075" lon="6.523027955098767"><ele>914.0</ele><time>2026-04-18T12:46:25.001Z</time></trkpt><trkpt lat="44.59679846847778" lon="6.523247801098031"><ele>914.0</ele><time>2026-04-18T12:46:26.001Z</time></trkpt><trkpt lat="44.596986553141676" lon="6.523478953350614"><ele>914.0</ele><time>2026-04-18T12:46:27.001Z</time></trkpt><trkpt lat="44.59717491746217" lon="6.523711106778519"><ele>914.5</ele><time>2026-04-18T12:46:28.001Z</time></trkpt><trkpt lat="44.597378659557734" lon="6.523925444511654"><ele>915.0</ele><time>2026-04-18T12:46:29.001Z</time></trkpt><trkpt lat="44.59756326945944" lon="6.5241419901703575"><ele>915.0</ele><time>2026-04-18T12:46:30.001Z</time></trkpt><trkpt lat="44.59776095372054" lon="6.524340936617868"><ele>915.0</ele><time>2026-04-18T12:46:31.001Z</time></trkpt><trkpt lat="44.5979677916307" lon="6.524524756236858"><ele>914.0</ele><time>2026-04-18T12:46:32.001Z</time></trkpt><trkpt lat="44.59819209694819" lon="6.524697765245303"><ele>913.0</ele><time>2026-04-18T12:46:33.001Z</time></trkpt><trkpt lat="44.598439833537164" lon="6.524833076751367"><ele>916.5</ele><time>2026-04-18T12:46:34.001Z</time></trkpt><trkpt lat="44.5986756194361" lon="6.524965529731071"><ele>920.0</ele><time>2026-04-18T12:46:35.001Z</time></trkpt><trkpt lat="44.598919353547096" lon="6.525070742534684"><ele>920.0</ele><time>2026-04-18T12:46:36.001Z</time></trkpt><trkpt lat="44.59914478155789" lon="6.52517084237008"><ele>920.0</ele><time>2026-04-18T12:46:37.001Z</time></trkpt><trkpt lat="44.599388929516735" lon="6.52524670378828"><ele>922.0</ele><time>2026-04-18T12:46:38.001Z</time></trkpt><trkpt lat="44.59962878308044" lon="6.525316167052527"><ele>924.0</ele><time>2026-04-18T12:46:39.001Z</time></trkpt><trkpt lat="44.59986884151145" lon="6.52537746981527"><ele>921.5</ele><time>2026-04-18T12:46:40.001Z</time></trkpt><trkpt lat="44.600145070389345" lon="6.525434859654168"><ele>919.0</ele><time>2026-04-18T12:46:41.001Z</time></trkpt><trkpt lat="44.60037337692135" lon="6.525521574595346"><ele>919.0</ele><time>2026-04-18T12:46:42.001Z</time></trkpt><trkpt lat="44.60061644828177" lon="6.5256031707062245"><ele>919.0</ele><time>2026-04-18T12:46:43.001Z</time></trkpt><trkpt lat="44.60085400091582" lon="6.5257138668999275"><ele>919.0</ele><time>2026-04-18T12:46:44.001Z</time></trkpt><trkpt lat="44.60109496519921" lon="6.525842209203442"><ele>919.0</ele><time>2026-04-18T12:46:45.001Z</time></trkpt><trkpt lat="44.60133454387092" lon="6.525992449683121"><ele>917.5</ele><time>2026-04-18T12:46:46.001Z</time></trkpt><trkpt lat="44.60157318679566" lon="6.526164237558946"><ele>916.0</ele><time>2026-04-18T12:46:47.001Z</time></trkpt><trkpt lat="44.601802138351765" lon="6.52634742808942"><ele>918.0</ele><time>2026-04-18T12:46:48.001Z</time></trkpt><trkpt lat="44.60203030596151" lon="6.526544733084708"><ele>920.0</ele><time>2026-04-18T12:46:49.001Z</time></trkpt><trkpt lat="44.60225705265588" lon="6.526751880698519"><ele>920.0</ele><time>2026-04-18T12:46:50.001Z</time></trkpt><trkpt lat="44.6024894990708" lon="6.526946132718436"><ele>920.0</ele><time>2026-04-18T12:46:51.001Z</time></trkpt><trkpt lat="44.60270609008161" lon="6.527134013353367"><ele>919.5</ele><time>2026-04-18T12:46:52.001Z</time></trkpt><trkpt lat="44.60292472252408" lon="6.527306305919554"><ele>919.0</ele><time>2026-04-18T12:46:53.001Z</time></trkpt><trkpt lat="44.603144700452525" lon="6.527490373222976"><ele>919.0</ele><time>2026-04-18T12:46:54.001Z</time></trkpt><trkpt lat="44.60335991461089" lon="6.527674971456161"><ele>919.0</ele><time>2026-04-18T12:46:55.001Z</time></trkpt><trkpt lat="44.603565105259946" lon="6.527862139710721"><ele>921.5</ele><time>2026-04-18T12:46:56.001Z</time></trkpt><trkpt lat="44.60377338489572" lon="6.528042990979773"><ele>924.0</ele><time>2026-04-18T12:46:57.001Z</time></trkpt><trkpt lat="44.60398169541454" lon="6.528223881454918"><ele>924.0</ele><time>2026-04-18T12:46:58.001Z</time></trkpt><trkpt lat="44.60416482440756" lon="6.528385401429732"><ele>924.0</ele><time>2026-04-18T12:46:59.001Z</time></trkpt><trkpt lat="44.604387074133584" lon="6.528539117768164"><ele>923.5</ele><time>2026-04-18T12:47:00.001Z</time></trkpt><trkpt lat="44.60460645000072" lon="6.528680518653984"><ele>923.0</ele><time>2026-04-18T12:47:01.001Z</time></trkpt><trkpt lat="44.60482869070039" lon="6.528800590609954"><ele>923.0</ele><time>2026-04-18T12:47:02.001Z</time></trkpt><trkpt lat="44.60506338230879" lon="6.528918211942405"><ele>923.0</ele><time>2026-04-18T12:47:03.001Z</time></trkpt><trkpt lat="44.6053096874265" lon="6.529009580962063"><ele>925.0</ele><time>2026-04-18T12:47:04.001Z</time></trkpt><trkpt lat="44.605570509634326" lon="6.529077273607177"><ele>927.0</ele><time>2026-04-18T12:47:05.001Z</time></trkpt><trkpt lat="44.60582189044277" lon="6.5291306645901885"><ele>927.0</ele><time>2026-04-18T12:47:06.001Z</time></trkpt><trkpt lat="44.606087969741935" lon="6.529180427549853"><ele>927.0</ele><time>2026-04-18T12:47:07.001Z</time></trkpt><trkpt lat="44.60634855662172" lon="6.529216875361331"><ele>928.0</ele><time>2026-04-18T12:47:08.001Z</time></trkpt><trkpt lat="44.60661383515166" lon="6.529229156147871"><ele>929.0</ele><time>2026-04-18T12:47:09.001Z</time></trkpt><trkpt lat="44.60686339330896" lon="6.529226030058383"><ele>928.5</ele><time>2026-04-18T12:47:10.001Z</time></trkpt><trkpt lat="44.60711829893933" lon="6.52920378878067"><ele>928.0</ele><time>2026-04-18T12:47:11.001Z</time></trkpt><trkpt lat="44.60736043976045" lon="6.529175662288081"><ele>928.0</ele><time>2026-04-18T12:47:12Z</time></trkpt><trkpt lat="44.60760132626571" lon="6.52914020779873"><ele>928.0</ele><time>2026-04-18T12:47:13Z</time></trkpt><trkpt lat="44.60783572048142" lon="6.529109032339505"><ele>928.0</ele><time>2026-04-18T12:47:14Z</time></trkpt><trkpt lat="44.60805202766861" lon="6.52909311866792"><ele>928.0</ele><time>2026-04-18T12:47:15Z</time></trkpt><trkpt lat="44.60823547168052" lon="6.529082475886878"><ele>928.0</ele><time>2026-04-18T12:47:16Z</time></trkpt><trkpt lat="44.60843519395087" lon="6.5290665470773845"><ele>928.0</ele><time>2026-04-18T12:47:17Z</time></trkpt><trkpt lat="44.60863512299727" lon="6.52905891358608"><ele>928.0</ele><time>2026-04-18T12:47:18Z</time></trkpt><trkpt lat="44.60882071485424" lon="6.52908132751493"><ele>928.0</ele><time>2026-04-18T12:47:19Z</time></trkpt><trkpt lat="44.60899369241717" lon="6.529088066088422"><ele>928.6666666666666</ele><time>2026-04-18T12:47:20Z</time></trkpt><trkpt lat="44.609176735665415" lon="6.529102254053823"><ele>929.3333333333333</ele><time>2026-04-18T12:47:21Z</time></trkpt><trkpt lat="44.60935737166622" lon="6.529134984434769"><ele>930.0</ele><time>2026-04-18T12:47:22Z</time></trkpt><trkpt lat="44.60953588033815" lon="6.529184383807014"><ele>930.3333333333333</ele><time>2026-04-18T12:47:23Z</time></trkpt><trkpt lat="44.60971826527837" lon="6.529231553150252"><ele>930.6666666666666</ele><time>2026-04-18T12:47:24Z</time></trkpt><trkpt lat="44.60989663006041" lon="6.529288364434304"><ele>931.0</ele><time>2026-04-18T12:47:25Z</time></trkpt><trkpt lat="44.61007954274404" lon="6.529338277108598"><ele>931.0</ele><time>2026-04-18T12:47:26Z</time></trkpt><trkpt lat="44.610259287210944" lon="6.529415252923556"><ele>931.0</ele><time>2026-04-18T12:47:27Z</time></trkpt><trkpt lat="44.61043855957767" lon="6.529498741184929"><ele>931.0</ele><time>2026-04-18T12:47:28Z</time></trkpt><trkpt lat="44.610622760048194" lon="6.52959795579743"><ele>930.3333333333333</ele><time>2026-04-18T12:47:29Z</time></trkpt><trkpt lat="44.610808580877496" lon="6.5297130362294915"><ele>929.6666666666667</ele><time>2026-04-18T12:47:30Z</time></trkpt><trkpt lat="44.61099820461245" lon="6.5298286647026496"><ele>929.0</ele><time>2026-04-18T12:47:31Z</time></trkpt><trkpt lat="44.61118769085841" lon="6.529954669404842"><ele>930.3333333333334</ele><time>2026-04-18T12:47:32Z</time></trkpt><trkpt lat="44.611377975486604" lon="6.5300790899351275"><ele>931.6666666666667</ele><time>2026-04-18T12:47:33Z</time></trkpt><trkpt lat="44.61157401758411" lon="6.5302069873553945"><ele>933.0</ele><time>2026-04-18T12:47:34Z</time></trkpt><trkpt lat="44.61177047843664" lon="6.530331451772568"><ele>932.0</ele><time>2026-04-18T12:47:35Z</time></trkpt><trkpt lat="44.611977330453755" lon="6.53045989861514"><ele>931.0</ele><time>2026-04-18T12:47:36Z</time></trkpt><trkpt lat="44.6121968401859" lon="6.530595151736992"><ele>931.0</ele><time>2026-04-18T12:47:37Z</time></trkpt><trkpt lat="44.612400180221975" lon="6.530730383357408"><ele>931.0</ele><time>2026-04-18T12:47:38Z</time></trkpt><trkpt lat="44.61260589873929" lon="6.530881593412451"><ele>931.0</ele><time>2026-04-18T12:47:39Z</time></trkpt><trkpt lat="44.612809321066145" lon="6.531021567419161"><ele>931.0</ele><time>2026-04-18T12:47:40Z</time></trkpt><trkpt lat="44.61303938346844" lon="6.531162765151659"><ele>929.5</ele><time>2026-04-18T12:47:41Z</time></trkpt><trkpt lat="44.61325567122717" lon="6.531306732958327"><ele>928.0</ele><time>2026-04-18T12:47:42Z</time></trkpt><trkpt lat="44.613481907640264" lon="6.531461058855767"><ele>928.0</ele><time>2026-04-18T12:47:43Z</time></trkpt><trkpt lat="44.613697104250036" lon="6.531601032925151"><ele>928.0</ele><time>2026-04-18T12:47:44Z</time></trkpt><trkpt lat="44.613925161540024" lon="6.531740168985685"><ele>928.0</ele><time>2026-04-18T12:47:45Z</time></trkpt><trkpt lat="44.61413089036003" lon="6.531896702803831"><ele>928.0</ele><time>2026-04-18T12:47:46Z</time></trkpt><trkpt lat="44.6143552916588" lon="6.532039364947619"><ele>926.5</ele><time>2026-04-18T12:47:47Z</time></trkpt><trkpt lat="44.61457338705178" lon="6.532179341486239"><ele>925.0</ele><time>2026-04-18T12:47:48Z</time></trkpt><trkpt lat="44.61479140983865" lon="6.532313262499139"><ele>925.0</ele><time>2026-04-18T12:47:49Z</time></trkpt><trkpt lat="44.615017024389445" lon="6.532432178155274"><ele>925.0</ele><time>2026-04-18T12:47:50Z</time></trkpt><trkpt lat="44.61522067241646" lon="6.5325414548307865"><ele>926.0</ele><time>2026-04-18T12:47:51Z</time></trkpt><trkpt lat="44.61545642670099" lon="6.532654444023759"><ele>927.0</ele><time>2026-04-18T12:47:52Z</time></trkpt><trkpt lat="44.615681980392054" lon="6.532746923392987"><ele>927.0</ele><time>2026-04-18T12:47:53Z</time></trkpt><trkpt lat="44.615875981407314" lon="6.5328296491593045"><ele>927.0</ele><time>2026-04-18T12:47:54Z</time></trkpt><trkpt lat="44.616087973887566" lon="6.532898840103609"><ele>927.0</ele><time>2026-04-18T12:47:55Z</time></trkpt><trkpt lat="44.61630582736036" lon="6.532971077215865"><ele>922.0</ele><time>2026-04-18T12:47:56Z</time></trkpt><trkpt lat="44.61654016070332" lon="6.533005118100249"><ele>917.0</ele><time>2026-04-18T12:47:57Z</time></trkpt><trkpt lat="44.61676134854632" lon="6.5330436740390505"><ele>917.5</ele><time>2026-04-18T12:47:58.001Z</time></trkpt><trkpt lat="44.616994079039074" lon="6.533045580548724"><ele>918.0</ele><time>2026-04-18T12:47:59.001Z</time></trkpt><trkpt lat="44.617225389350175" lon="6.533038408580168"><ele>918.0</ele><time>2026-04-18T12:48:00.001Z</time></trkpt><trkpt lat="44.617456808481755" lon="6.533033644781223"><ele>918.0</ele><time>2026-04-18T12:48:01.001Z</time></trkpt><trkpt lat="44.61768575299224" lon="6.533027859402684"><ele>917.0</ele><time>2026-04-18T12:48:02.001Z</time></trkpt><trkpt lat="44.617917896790814" lon="6.533036923828261"><ele>916.0</ele><time>2026-04-18T12:48:03.001Z</time></trkpt><trkpt lat="44.618151696206" lon="6.5330622450842"><ele>916.0</ele><time>2026-04-18T12:48:04.001Z</time></trkpt><trkpt lat="44.6184145923362" lon="6.533113142502772"><ele>916.0</ele><time>2026-04-18T12:48:05.001Z</time></trkpt><trkpt lat="44.61865035932081" lon="6.5331765382112295"><ele>913.5</ele><time>2026-04-18T12:48:06.001Z</time></trkpt><trkpt lat="44.61888055140063" lon="6.533264731839291"><ele>911.0</ele><time>2026-04-18T12:48:07.001Z</time></trkpt><trkpt lat="44.619134765040805" lon="6.533359320946369"><ele>911.0</ele><time>2026-04-18T12:48:08.001Z</time></trkpt><trkpt lat="44.61937920853064" lon="6.5334704584928085"><ele>911.0</ele><time>2026-04-18T12:48:09.001Z</time></trkpt><trkpt lat="44.61961921753346" lon="6.533623103297492"><ele>910.0</ele><time>2026-04-18T12:48:10.001Z</time></trkpt><trkpt lat="44.619855774016955" lon="6.533765967854669"><ele>909.0</ele><time>2026-04-18T12:48:11.001Z</time></trkpt><trkpt lat="44.62009009891152" lon="6.533915927618101"><ele>909.0</ele><time>2026-04-18T12:48:12.001Z</time></trkpt><trkpt lat="44.62028770551338" lon="6.5340970657372806"><ele>909.0</ele><time>2026-04-18T12:48:13.001Z</time></trkpt><trkpt lat="44.62048839863006" lon="6.53430014212947"><ele>910.5</ele><time>2026-04-18T12:48:14.001Z</time></trkpt><trkpt lat="44.62068784161035" lon="6.534525124821364"><ele>912.0</ele><time>2026-04-18T12:48:15.001Z</time></trkpt><trkpt lat="44.62090673392985" lon="6.534724225116253"><ele>912.0</ele><time>2026-04-18T12:48:16.001Z</time></trkpt><trkpt lat="44.621101340223035" lon="6.5349286999212035"><ele>912.0</ele><time>2026-04-18T12:48:17.001Z</time></trkpt><trkpt lat="44.621297853248755" lon="6.535159386762305"><ele>915.5</ele><time>2026-04-18T12:48:18.001Z</time></trkpt><trkpt lat="44.62148801921919" lon="6.535355859423474"><ele>919.0</ele><time>2026-04-18T12:48:19.001Z</time></trkpt><trkpt lat="44.62168621867842" lon="6.535531831349555"><ele>919.0</ele><time>2026-04-18T12:48:20.001Z</time></trkpt><trkpt lat="44.62184847902226" lon="6.535735089227114"><ele>919.0</ele><time>2026-04-18T12:48:21.001Z</time></trkpt><trkpt lat="44.62202597812214" lon="6.535928432536107"><ele>919.0</ele><time>2026-04-18T12:48:22.001Z</time></trkpt><trkpt lat="44.62220163374173" lon="6.536109291373766"><ele>920.6666666666666</ele><time>2026-04-18T12:48:23.001Z</time></trkpt><trkpt lat="44.62237489476771" lon="6.536293364899327"><ele>922.3333333333333</ele><time>2026-04-18T12:48:24.001Z</time></trkpt><trkpt lat="44.622560280590825" lon="6.536469893488348"><ele>924.0</ele><time>2026-04-18T12:48:25.001Z</time></trkpt><trkpt lat="44.62273347097365" lon="6.5366490023779065"><ele>927.6666666666667</ele><time>2026-04-18T12:48:26.001Z</time></trkpt><trkpt lat="44.62289757171793" lon="6.536845368678779"><ele>931.3333333333334</ele><time>2026-04-18T12:48:27.001Z</time></trkpt><trkpt lat="44.62304281822961" lon="6.537053243783437"><ele>935.0</ele><time>2026-04-18T12:48:28.001Z</time></trkpt><trkpt lat="44.62319854296214" lon="6.5372629977417684"><ele>935.0</ele><time>2026-04-18T12:48:29.001Z</time></trkpt><trkpt lat="44.62333768011131" lon="6.5374784589134025"><ele>935.0</ele><time>2026-04-18T12:48:30.001Z</time></trkpt><trkpt lat="44.623461483813294" lon="6.537712391582246"><ele>935.0</ele><time>2026-04-18T12:48:31.001Z</time></trkpt><trkpt lat="44.623579860445794" lon="6.5379618428284685"><ele>936.3333333333334</ele><time>2026-04-18T12:48:32.001Z</time></trkpt><trkpt lat="44.62369492272267" lon="6.538216903105329"><ele>937.6666666666667</ele><time>2026-04-18T12:48:33.001Z</time></trkpt><trkpt lat="44.62380174823707" lon="6.538484527705588"><ele>939.0</ele><time>2026-04-18T12:48:34.001Z</time></trkpt><trkpt lat="44.623900242692926" lon="6.538765011960289"><ele>939.0</ele><time>2026-04-18T12:48:35.001Z</time></trkpt><trkpt lat="44.6239988505359" lon="6.539050539211111"><ele>939.0</ele><time>2026-04-18T12:48:36.001Z</time></trkpt><trkpt lat="44.62409258879705" lon="6.53934357771795"><ele>935.0</ele><time>2026-04-18T12:48:37.001Z</time></trkpt><trkpt lat="44.62420089271163" lon="6.539641763334806"><ele>931.0</ele><time>2026-04-18T12:48:38.001Z</time></trkpt><trkpt lat="44.62430570305432" lon="6.539927679940089"><ele>931.0</ele><time>2026-04-18T12:48:39.001Z</time></trkpt><trkpt lat="44.62440427033471" lon="6.540218681639107"><ele>931.0</ele><time>2026-04-18T12:48:40.001Z</time></trkpt><trkpt lat="44.62450343210395" lon="6.5404911499865035"><ele>931.0</ele><time>2026-04-18T12:48:41.001Z</time></trkpt><trkpt lat="44.62460731706463" lon="6.540760708052195"><ele>932.6666666666666</ele><time>2026-04-18T12:48:42.001Z</time></trkpt><trkpt lat="44.62470515331602" lon="6.541038732596262"><ele>934.3333333333333</ele><time>2026-04-18T12:48:43.001Z</time></trkpt><trkpt lat="44.624795002694505" lon="6.541300977506924"><ele>936.0</ele><time>2026-04-18T12:48:44.001Z</time></trkpt><trkpt lat="44.62488149386873" lon="6.541564868845527"><ele>936.0</ele><time>2026-04-18T12:48:45.001Z</time></trkpt><trkpt lat="44.62497119307162" lon="6.541807868581189"><ele>936.0</ele><time>2026-04-18T12:48:46.001Z</time></trkpt><trkpt lat="44.62504274842237" lon="6.54206291966477"><ele>936.0</ele><time>2026-04-18T12:48:47.001Z</time></trkpt><trkpt lat="44.625128183487675" lon="6.542314201418298"><ele>935.3333333333333</ele><time>2026-04-18T12:48:48.001Z</time></trkpt><trkpt lat="44.625220011691006" lon="6.542560924193486"><ele>934.6666666666666</ele><time>2026-04-18T12:48:49.001Z</time></trkpt><trkpt lat="44.62531082452612" lon="6.542814001484242"><ele>934.0</ele><time>2026-04-18T12:48:50.001Z</time></trkpt><trkpt lat="44.62540333570715" lon="6.543059836773585"><ele>934.0</ele><time>2026-04-18T12:48:51.001Z</time></trkpt><trkpt lat="44.62550003768437" lon="6.543298587272369"><ele>934.0</ele><time>2026-04-18T12:48:52.001Z</time></trkpt><trkpt lat="44.625600545811444" lon="6.5435309153990096"><ele>934.0</ele><time>2026-04-18T12:48:53.001Z</time></trkpt><trkpt lat="44.62572241727628" lon="6.543761007866953"><ele>932.3333333333333</ele><time>2026-04-18T12:48:54.001Z</time></trkpt><trkpt lat="44.62584718219382" lon="6.543937372316998"><ele>930.6666666666667</ele><time>2026-04-18T12:48:55.001Z</time></trkpt><trkpt lat="44.6260054948991" lon="6.544130905344978"><ele>929.0</ele><time>2026-04-18T12:48:56.001Z</time></trkpt><trkpt lat="44.62616173728661" lon="6.544313367077058"><ele>929.0</ele><time>2026-04-18T12:48:57.001Z</time></trkpt><trkpt lat="44.62632213139085" lon="6.544483619956599"><ele>929.0</ele><time>2026-04-18T12:48:58.001Z</time></trkpt><trkpt lat="44.626509965422045" lon="6.544633021341824"><ele>929.0</ele><time>2026-04-18T12:48:59.001Z</time></trkpt><trkpt lat="44.626687277596815" lon="6.544784110553456"><ele>925.6666666666667</ele><time>2026-04-18T12:49:00.001Z</time></trkpt><trkpt lat="44.626873560040664" lon="6.54494985053684"><ele>922.3333333333333</ele><time>2026-04-18T12:49:01.001Z</time></trkpt><trkpt lat="44.62706738525028" lon="6.54511424170203"><ele>919.0</ele><time>2026-04-18T12:49:02.001Z</time></trkpt><trkpt lat="44.627258053882805" lon="6.545288321958071"><ele>915.5</ele><time>2026-04-18T12:49:03.001Z</time></trkpt><trkpt lat="44.62745917117566" lon="6.545451072387069"><ele>912.0</ele><time>2026-04-18T12:49:04.001Z</time></trkpt><trkpt lat="44.62764923313821" lon="6.545612914933787"><ele>913.0</ele><time>2026-04-18T12:49:05.001Z</time></trkpt><trkpt lat="44.62783532645786" lon="6.545777374426075"><ele>914.0</ele><time>2026-04-18T12:49:06.001Z</time></trkpt><trkpt lat="44.62802115766839" lon="6.545940400576091"><ele>915.0</ele><time>2026-04-18T12:49:07.001Z</time></trkpt><trkpt lat="44.6282150538744" lon="6.546111630516378"><ele>911.5</ele><time>2026-04-18T12:49:08.001Z</time></trkpt><trkpt lat="44.62840623823527" lon="6.546273196939321"><ele>908.0</ele><time>2026-04-18T12:49:09.001Z</time></trkpt><trkpt lat="44.6286036642558" lon="6.546447412244044"><ele>910.6666666666667</ele><time>2026-04-18T12:49:10.001Z</time></trkpt><trkpt lat="44.62877836686108" lon="6.5466258117484735"><ele>913.3333333333333</ele><time>2026-04-18T12:49:11.001Z</time></trkpt><trkpt lat="44.62894876529282" lon="6.5467992738437415"><ele>916.0</ele><time>2026-04-18T12:49:12.001Z</time></trkpt><trkpt lat="44.629117889407695" lon="6.54694696325194"><ele>917.0</ele><time>2026-04-18T12:49:13.001Z</time></trkpt><trkpt lat="44.62928314687862" lon="6.547095130102047"><ele>918.0</ele><time>2026-04-18T12:49:14.001Z</time></trkpt><trkpt lat="44.629423452204826" lon="6.547239431282268"><ele>919.0</ele><time>2026-04-18T12:49:15.001Z</time></trkpt><trkpt lat="44.62959753997196" lon="6.547363277451113"><ele>919.0</ele><time>2026-04-18T12:49:16.001Z</time></trkpt><trkpt lat="44.62974530366693" lon="6.547465371602972"><ele>919.0</ele><time>2026-04-18T12:49:17.001Z</time></trkpt><trkpt lat="44.62988735705689" lon="6.547588264984252"><ele>919.0</ele><time>2026-04-18T12:49:18Z</time></trkpt><trkpt lat="44.630015122370246" lon="6.547698592906539"><ele>919.0</ele><time>2026-04-18T12:49:19Z</time></trkpt><trkpt lat="44.63025617404963" lon="6.547603504571114"><ele>919.0</ele><time>2026-04-18T12:49:20Z</time></trkpt><trkpt lat="44.63043449208095" lon="6.547629292179502"><ele>919.0</ele><time>2026-04-18T12:49:21Z</time></trkpt><trkpt lat="44.63059785991873" lon="6.547663937851187"><ele>921.0</ele><time>2026-04-18T12:49:22Z</time></trkpt><trkpt lat="44.630760839173455" lon="6.547676184188302"><ele>923.0</ele><time>2026-04-18T12:49:23Z</time></trkpt><trkpt lat="44.63090807214007" lon="6.547740245284944"><ele>925.0</ele><time>2026-04-18T12:49:24Z</time></trkpt><trkpt lat="44.63105287724676" lon="6.5478428237818065"><ele>927.6666666666666</ele><time>2026-04-18T12:49:25Z</time></trkpt><trkpt lat="44.631172889557874" lon="6.547975998760841"><ele>930.3333333333333</ele><time>2026-04-18T12:49:26Z</time></trkpt><trkpt lat="44.63131321306745" lon="6.548117065961264"><ele>933.0</ele><time>2026-04-18T12:49:27Z</time></trkpt><trkpt lat="44.631420170568894" lon="6.548258216397745"><ele>933.0</ele><time>2026-04-18T12:49:28Z</time></trkpt><trkpt lat="44.63152217876205" lon="6.548407473155459"><ele>933.0</ele><time>2026-04-18T12:49:29Z</time></trkpt><trkpt lat="44.631641765234086" lon="6.5485583736434165"><ele>933.0</ele><time>2026-04-18T12:49:30Z</time></trkpt><trkpt lat="44.63176311515883" lon="6.54870381966303"><ele>937.6666666666667</ele><time>2026-04-18T12:49:31Z</time></trkpt><trkpt lat="44.63188948722936" lon="6.5488513638098445"><ele>942.3333333333334</ele><time>2026-04-18T12:49:32Z</time></trkpt><trkpt lat="44.63202613683634" lon="6.549013791445392"><ele>947.0</ele><time>2026-04-18T12:49:33Z</time></trkpt><trkpt lat="44.63213716970431" lon="6.549194005938792"><ele>947.0</ele><time>2026-04-18T12:49:34Z</time></trkpt><trkpt lat="44.632222428196194" lon="6.549398799203282"><ele>947.0</ele><time>2026-04-18T12:49:35Z</time></trkpt><trkpt lat="44.63227599104923" lon="6.549637149921045"><ele>947.0</ele><time>2026-04-18T12:49:36Z</time></trkpt><trkpt lat="44.632331056655445" lon="6.549891790644386"><ele>941.0</ele><time>2026-04-18T12:49:37Z</time></trkpt><trkpt lat="44.63235211177159" lon="6.550178422763153"><ele>935.0</ele><time>2026-04-18T12:49:38Z</time></trkpt><trkpt lat="44.6323825617938" lon="6.5504514013997195"><ele>929.0</ele><time>2026-04-18T12:49:39Z</time></trkpt><trkpt lat="44.63242594871653" lon="6.5507028402660215"><ele>926.0</ele><time>2026-04-18T12:49:40Z</time></trkpt><trkpt lat="44.63247326142807" lon="6.550977230194807"><ele>923.0</ele><time>2026-04-18T12:49:41Z</time></trkpt><trkpt lat="44.63252815961402" lon="6.551238850197109"><ele>920.0</ele><time>2026-04-18T12:49:42Z</time></trkpt><trkpt lat="44.63259288682715" lon="6.5514954425972665"><ele>918.6666666666667</ele><time>2026-04-18T12:49:43Z</time></trkpt><trkpt lat="44.63264038303022" lon="6.5517439396613435"><ele>917.3333333333333</ele><time>2026-04-18T12:49:44Z</time></trkpt><trkpt lat="44.63266087579264" lon="6.5519992698982685"><ele>916.0</ele><time>2026-04-18T12:49:45Z</time></trkpt><trkpt lat="44.63266353927084" lon="6.552276579936886"><ele>915.3333333333333</ele><time>2026-04-18T12:49:46Z</time></trkpt><trkpt lat="44.632686554587046" lon="6.552535078563982"><ele>914.6666666666667</ele><time>2026-04-18T12:49:47Z</time></trkpt><trkpt lat="44.63270735891498" lon="6.5528091490966025"><ele>914.0</ele><time>2026-04-18T12:49:48Z</time></trkpt><trkpt lat="44.63273851634669" lon="6.553079974899541"><ele>912.6666666666667</ele><time>2026-04-18T12:49:49Z</time></trkpt><trkpt lat="44.632770686857754" lon="6.553340010387553"><ele>911.3333333333333</ele><time>2026-04-18T12:49:50.001Z</time></trkpt><trkpt lat="44.632802483222804" lon="6.55360189797311"><ele>910.0</ele><time>2026-04-18T12:49:51.001Z</time></trkpt><trkpt lat="44.63284469362183" lon="6.553848282252388"><ele>923.6666666666666</ele><time>2026-04-18T12:49:52.001Z</time></trkpt><trkpt lat="44.632890088718355" lon="6.55409066186148"><ele>937.3333333333333</ele><time>2026-04-18T12:49:53.001Z</time></trkpt><trkpt lat="44.63295276079989" lon="6.554341279539269"><ele>951.0</ele><time>2026-04-18T12:49:54.001Z</time></trkpt><trkpt lat="44.632982640046635" lon="6.554593191497312"><ele>951.0</ele><time>2026-04-18T12:49:55.001Z</time></trkpt><trkpt lat="44.63298287104733" lon="6.554841807517004"><ele>951.0</ele><time>2026-04-18T12:49:56.001Z</time></trkpt><trkpt lat="44.6329814025474" lon="6.555092325288065"><ele>951.0</ele><time>2026-04-18T12:49:57.001Z</time></trkpt><trkpt lat="44.63296235725511" lon="6.555351165663054"><ele>950.6666666666667</ele><time>2026-04-18T12:49:58.001Z</time></trkpt><trkpt lat="44.6329598340585" lon="6.555609673223119"><ele>950.3333333333334</ele><time>2026-04-18T12:49:59.001Z</time></trkpt><trkpt lat="44.6329520064025" lon="6.55586837652844"><ele>950.0</ele><time>2026-04-18T12:50:00.001Z</time></trkpt><trkpt lat="44.63294492171718" lon="6.556123451419847"><ele>951.0</ele><time>2026-04-18T12:50:01.001Z</time></trkpt><trkpt lat="44.63294085290754" lon="6.556365043137962"><ele>952.0</ele><time>2026-04-18T12:50:02.001Z</time></trkpt><trkpt lat="44.632931422309845" lon="6.556597564933311"><ele>953.0</ele><time>2026-04-18T12:50:03.001Z</time></trkpt><trkpt lat="44.632906542270156" lon="6.556826635724134"><ele>953.0</ele><time>2026-04-18T12:50:04.001Z</time></trkpt><trkpt lat="44.63285118523503" lon="6.557023678303338"><ele>953.0</ele><time>2026-04-18T12:50:05.001Z</time></trkpt><trkpt lat="44.63279847576785" lon="6.557230032739378"><ele>953.0</ele><time>2026-04-18T12:50:06.001Z</time></trkpt><trkpt lat="44.63274949155882" lon="6.557416731793753"><ele>953.0</ele><time>2026-04-18T12:50:07.001Z</time></trkpt><trkpt lat="44.632694718194074" lon="6.557580103978399"><ele>948.5</ele><time>2026-04-18T12:50:08.001Z</time></trkpt><trkpt lat="44.63262620219754" lon="6.557730506053049"><ele>944.0</ele><time>2026-04-18T12:50:09.001Z</time></trkpt><trkpt lat="44.63253760144674" lon="6.557880800262369"><ele>939.5</ele><time>2026-04-18T12:50:10.001Z</time></trkpt><trkpt lat="44.63244386784121" lon="6.558035228836255"><ele>935.0</ele><time>2026-04-18T12:50:11.001Z</time></trkpt><trkpt lat="44.632347932515295" lon="6.558185698310094"><ele>935.0</ele><time>2026-04-18T12:50:12.001Z</time></trkpt><trkpt lat="44.632268836072164" lon="6.558362182220323"><ele>935.0</ele><time>2026-04-18T12:50:13.001Z</time></trkpt><trkpt lat="44.63221517120618" lon="6.558542003255407"><ele>935.0</ele><time>2026-04-18T12:50:14.001Z</time></trkpt><trkpt lat="44.632161861329436" lon="6.558722640007667"><ele>935.0</ele><time>2026-04-18T12:50:15.001Z</time></trkpt><trkpt lat="44.6321337559103" lon="6.558900426061259"><ele>937.25</ele><time>2026-04-18T12:50:16.001Z</time></trkpt><trkpt lat="44.63211459874907" lon="6.559078207633326"><ele>939.5</ele><time>2026-04-18T12:50:17.001Z</time></trkpt><trkpt lat="44.632130024194154" lon="6.559236915379152"><ele>941.75</ele><time>2026-04-18T12:50:18.001Z</time></trkpt><trkpt lat="44.63214937965516" lon="6.559405646135131"><ele>944.0</ele><time>2026-04-18T12:50:19.001Z</time></trkpt><trkpt lat="44.63218287303229" lon="6.559590251836945"><ele>944.0</ele><time>2026-04-18T12:50:20.001Z</time></trkpt><trkpt lat="44.632217628570096" lon="6.559784622876843"><ele>944.0</ele><time>2026-04-18T12:50:21.001Z</time></trkpt><trkpt lat="44.63227086182107" lon="6.55996776877333"><ele>944.0</ele><time>2026-04-18T12:50:22.001Z</time></trkpt><trkpt lat="44.63235215356586" lon="6.560142627976153"><ele>944.0</ele><time>2026-04-18T12:50:23.001Z</time></trkpt><trkpt lat="44.63234820934699" lon="6.560353207011275"><ele>942.0</ele><time>2026-04-18T12:50:24.001Z</time></trkpt><trkpt lat="44.632388644761186" lon="6.560526060920439"><ele>940.0</ele><time>2026-04-18T12:50:25.001Z</time></trkpt><trkpt lat="44.632421636313744" lon="6.56068147179891"><ele>938.0</ele><time>2026-04-18T12:50:26.001Z</time></trkpt><trkpt lat="44.632447377031426" lon="6.560836694863865"><ele>936.0</ele><time>2026-04-18T12:50:27.001Z</time></trkpt><trkpt lat="44.632455419565424" lon="6.560969990301661"><ele>936.0</ele><time>2026-04-18T12:50:28.001Z</time></trkpt><trkpt lat="44.632443702338946" lon="6.561090796259602"><ele>935.9999999999999</ele><time>2026-04-18T12:50:29.001Z</time></trkpt><trkpt lat="44.632418735452944" lon="6.561221062759524"><ele>935.9999999999999</ele><time>2026-04-18T12:50:30.001Z</time></trkpt><trkpt lat="44.63239522199326" lon="6.561376165900459"><ele>936.0</ele><time>2026-04-18T12:50:31.001Z</time></trkpt><trkpt lat="44.632386618353074" lon="6.561544756925016"><ele>936.0</ele><time>2026-04-18T12:50:32.001Z</time></trkpt><trkpt lat="44.63239586703744" lon="6.561703464259426"><ele>933.6666666666667</ele><time>2026-04-18T12:50:33.001Z</time></trkpt><trkpt lat="44.63248213217326" lon="6.561872843640666"><ele>931.3333333333334</ele><time>2026-04-18T12:50:34.001Z</time></trkpt><trkpt lat="44.63252887632737" lon="6.562064850762463"><ele>929.0</ele><time>2026-04-18T12:50:35.001Z</time></trkpt><trkpt lat="44.63260963330158" lon="6.562262631383524"><ele>923.3333333333334</ele><time>2026-04-18T12:50:36.001Z</time></trkpt><trkpt lat="44.632714750036506" lon="6.562484874721853"><ele>917.6666666666667</ele><time>2026-04-18T12:50:37.001Z</time></trkpt><trkpt lat="44.63285857916974" lon="6.562664091429419"><ele>912.0</ele><time>2026-04-18T12:50:38.001Z</time></trkpt><trkpt lat="44.632950112518444" lon="6.562855223386337"><ele>918.6666666666667</ele><time>2026-04-18T12:50:39.001Z</time></trkpt><trkpt lat="44.632996112686875" lon="6.563087440598638"><ele>925.3333333333334</ele><time>2026-04-18T12:50:40.001Z</time></trkpt><trkpt lat="44.633084401462696" lon="6.563271540375589"><ele>932.0</ele><time>2026-04-18T12:50:41.001Z</time></trkpt><trkpt lat="44.6331691457816" lon="6.563448249257373"><ele>932.0</ele><time>2026-04-18T12:50:42.001Z</time></trkpt><trkpt lat="44.63325641374387" lon="6.563630220318705"><ele>932.0</ele><time>2026-04-18T12:50:43.001Z</time></trkpt><trkpt lat="44.63333730072702" lon="6.563797570364113"><ele>932.0</ele><time>2026-04-18T12:50:44.001Z</time></trkpt><trkpt lat="44.63342078422691" lon="6.563957090081732"><ele>932.0</ele><time>2026-04-18T12:50:45.001Z</time></trkpt><trkpt lat="44.63352021017208" lon="6.5641117386788554"><ele>929.5</ele><time>2026-04-18T12:50:46.001Z</time></trkpt><trkpt lat="44.63362875849042" lon="6.564231636198336"><ele>927.0</ele><time>2026-04-18T12:50:47.001Z</time></trkpt><trkpt lat="44.63376056475536" lon="6.564327566560207"><ele>924.5</ele><time>2026-04-18T12:50:48.001Z</time></trkpt><trkpt lat="44.633880549221644" lon="6.5644282750081215"><ele>922.0</ele><time>2026-04-18T12:50:49.001Z</time></trkpt><trkpt lat="44.634020846254124" lon="6.564508222975673"><ele>922.0</ele><time>2026-04-18T12:50:50.001Z</time></trkpt><trkpt lat="44.634223135285865" lon="6.564496904221918"><ele>922.0</ele><time>2026-04-18T12:50:51.001Z</time></trkpt><trkpt lat="44.63439280778035" lon="6.5644813806582825"><ele>922.0</ele><time>2026-04-18T12:50:52.001Z</time></trkpt><trkpt lat="44.6345562145128" lon="6.5645033011111575"><ele>918.0</ele><time>2026-04-18T12:50:53.001Z</time></trkpt><trkpt lat="44.63471509649479" lon="6.564528318912815"><ele>914.0</ele><time>2026-04-18T12:50:54.001Z</time></trkpt><trkpt lat="44.6348187281659" lon="6.564661880000887"><ele>910.0</ele><time>2026-04-18T12:50:55.001Z</time></trkpt><trkpt lat="44.63493045171293" lon="6.564813832083476"><ele>910.0</ele><time>2026-04-18T12:50:56.001Z</time></trkpt><trkpt lat="44.63505856743146" lon="6.56497578513221"><ele>910.0</ele><time>2026-04-18T12:50:57.001Z</time></trkpt><trkpt lat="44.635202383340065" lon="6.565115270513097"><ele>910.0</ele><time>2026-04-18T12:50:58.001Z</time></trkpt><trkpt lat="44.63534169199674" lon="6.565232865485972"><ele>914.0</ele><time>2026-04-18T12:50:59.001Z</time></trkpt><trkpt lat="44.63550342811988" lon="6.565328512207018"><ele>918.0</ele><time>2026-04-18T12:51:00.001Z</time></trkpt><trkpt lat="44.63565009988388" lon="6.565389569289796"><ele>922.0</ele><time>2026-04-18T12:51:01.001Z</time></trkpt><trkpt lat="44.63584030866055" lon="6.565447830818149"><ele>916.3333333333333</ele><time>2026-04-18T12:51:02.001Z</time></trkpt><trkpt lat="44.63601958446688" lon="6.5654757620536355"><ele>910.6666666666667</ele><time>2026-04-18T12:51:03.001Z</time></trkpt><trkpt lat="44.63621363661956" lon="6.565549135540121"><ele>905.0</ele><time>2026-04-18T12:51:04.001Z</time></trkpt><trkpt lat="44.636388050795354" lon="6.565639026271923"><ele>905.0</ele><time>2026-04-18T12:51:05.001Z</time></trkpt><trkpt lat="44.636571169974914" lon="6.565719306312162"><ele>905.0</ele><time>2026-04-18T12:51:06.001Z</time></trkpt><trkpt lat="44.63675579067998" lon="6.565802783479095"><ele>905.0</ele><time>2026-04-18T12:51:07.001Z</time></trkpt><trkpt lat="44.63692331185857" lon="6.5658722730365495"><ele>906.3333333333334</ele><time>2026-04-18T12:51:08.001Z</time></trkpt><trkpt lat="44.63710982067192" lon="6.5659443974553735"><ele>907.6666666666667</ele><time>2026-04-18T12:51:09.001Z</time></trkpt><trkpt lat="44.637280331173535" lon="6.566011746922581"><ele>909.0</ele><time>2026-04-18T12:51:10.001Z</time></trkpt><trkpt lat="44.63745882031466" lon="6.5660688459153445"><ele>909.0</ele><time>2026-04-18T12:51:11.001Z</time></trkpt><trkpt lat="44.637596602061976" lon="6.566191562226418"><ele>909.0</ele><time>2026-04-18T12:51:12.001Z</time></trkpt><trkpt lat="44.63772737080436" lon="6.56634965560409"><ele>909.0</ele><time>2026-04-18T12:51:13.001Z</time></trkpt><trkpt lat="44.63787191281163" lon="6.566525349714394"><ele>904.6666666666667</ele><time>2026-04-18T12:51:14.001Z</time></trkpt><trkpt lat="44.63801937448657" lon="6.566701739086161"><ele>900.3333333333334</ele><time>2026-04-18T12:51:15.001Z</time></trkpt><trkpt lat="44.638157079598585" lon="6.566866274525615"><ele>896.0</ele><time>2026-04-18T12:51:16.001Z</time></trkpt><trkpt lat="44.63830490808537" lon="6.567042909163964"><ele>896.0</ele><time>2026-04-18T12:51:17.001Z</time></trkpt><trkpt lat="44.63845423818516" lon="6.567191726273373"><ele>896.0</ele><time>2026-04-18T12:51:18.001Z</time></trkpt><trkpt lat="44.63857804016852" lon="6.567370720616282"><ele>896.0</ele><time>2026-04-18T12:51:19.001Z</time></trkpt><trkpt lat="44.638718167393385" lon="6.567539461670233"><ele>895.3333333333334</ele><time>2026-04-18T12:51:20.001Z</time></trkpt><trkpt lat="44.63885224725633" lon="6.567676658000261"><ele>894.6666666666667</ele><time>2026-04-18T12:51:21.001Z</time></trkpt><trkpt lat="44.63899039895836" lon="6.567847234067241"><ele>894.0</ele><time>2026-04-18T12:51:22.001Z</time></trkpt><trkpt lat="44.63912284691288" lon="6.568022961584462"><ele>894.0</ele><time>2026-04-18T12:51:23.001Z</time></trkpt><trkpt lat="44.63928149095218" lon="6.568177565483552"><ele>894.0</ele><time>2026-04-18T12:51:24.001Z</time></trkpt><trkpt lat="44.63943272987569" lon="6.568355092368396"><ele>894.0</ele><time>2026-04-18T12:51:25.001Z</time></trkpt><trkpt lat="44.63956565353859" lon="6.568519915080724"><ele>894.0</ele><time>2026-04-18T12:51:26.001Z</time></trkpt><trkpt lat="44.63970016299461" lon="6.568682393449568"><ele>894.0</ele><time>2026-04-18T12:51:27.001Z</time></trkpt><trkpt lat="44.63983055076125" lon="6.56884541759973"><ele>894.0</ele><time>2026-04-18T12:51:28.001Z</time></trkpt><trkpt lat="44.63997277321965" lon="6.568992155648159"><ele>894.0</ele><time>2026-04-18T12:51:29.001Z</time></trkpt><trkpt lat="44.640108752079115" lon="6.56915024039636"><ele>894.0</ele><time>2026-04-18T12:51:30.001Z</time></trkpt><trkpt lat="44.6402458483929" lon="6.569298882821017"><ele>894.0</ele><time>2026-04-18T12:51:31.001Z</time></trkpt><trkpt lat="44.640383314305495" lon="6.56944177751312"><ele>891.0</ele><time>2026-04-18T12:51:32.001Z</time></trkpt><trkpt lat="44.64051768744118" lon="6.569581310808587"><ele>888.0</ele><time>2026-04-18T12:51:33.001Z</time></trkpt><trkpt lat="44.64075321297727" lon="6.5698628155619625"><ele>888.0</ele><time>2026-04-18T12:51:35.001Z</time></trkpt><trkpt lat="44.640879001479526" lon="6.570002429640254"><ele>888.0</ele><time>2026-04-18T12:51:36.001Z</time></trkpt><trkpt lat="44.641007014667174" lon="6.570125183827451"><ele>888.0</ele><time>2026-04-18T12:51:37.001Z</time></trkpt><trkpt lat="44.641125850260195" lon="6.570262525198274"><ele>885.3333333333333</ele><time>2026-04-18T12:51:38Z</time></trkpt><trkpt lat="44.64124324731198" lon="6.570398306164317"><ele>882.6666666666666</ele><time>2026-04-18T12:51:39Z</time></trkpt><trkpt lat="44.641376400950655" lon="6.5705354700838186"><ele>880.0</ele><time>2026-04-18T12:51:40Z</time></trkpt><trkpt lat="44.64148387529123" lon="6.570683329918272"><ele>880.0</ele><time>2026-04-18T12:51:41Z</time></trkpt><trkpt lat="44.641615109972584" lon="6.570822320377958"><ele>880.0</ele><time>2026-04-18T12:51:42Z</time></trkpt><trkpt lat="44.64175227283378" lon="6.57095409889763"><ele>880.0</ele><time>2026-04-18T12:51:43Z</time></trkpt><trkpt lat="44.641877837393146" lon="6.571104488154671"><ele>879.3333333333333</ele><time>2026-04-18T12:51:44Z</time></trkpt><trkpt lat="44.64199687386643" lon="6.571262217407348"><ele>878.6666666666667</ele><time>2026-04-18T12:51:45Z</time></trkpt><trkpt lat="44.64212397207717" lon="6.5714103876593075"><ele>878.0</ele><time>2026-04-18T12:51:46Z</time></trkpt><trkpt lat="44.64226116844143" lon="6.571538509381213"><ele>878.0</ele><time>2026-04-18T12:51:47Z</time></trkpt><trkpt lat="44.642373387898864" lon="6.571687352938072"><ele>878.0</ele><time>2026-04-18T12:51:48Z</time></trkpt><trkpt lat="44.64250686395594" lon="6.571824437047101"><ele>878.0</ele><time>2026-04-18T12:51:49Z</time></trkpt><trkpt lat="44.64264219982557" lon="6.571966017590377"><ele>877.6666666666667</ele><time>2026-04-18T12:51:50Z</time></trkpt><trkpt lat="44.642758797513665" lon="6.57212476050736"><ele>877.3333333333333</ele><time>2026-04-18T12:51:51Z</time></trkpt><trkpt lat="44.64288405628344" lon="6.5722648153011525"><ele>877.0</ele><time>2026-04-18T12:51:52Z</time></trkpt><trkpt lat="44.64299965764176" lon="6.572394071878109"><ele>877.0</ele><time>2026-04-18T12:51:53Z</time></trkpt><trkpt lat="44.64312465068638" lon="6.572508003492768"><ele>877.0</ele><time>2026-04-18T12:51:54Z</time></trkpt><trkpt lat="44.6432279161755" lon="6.572650562112446"><ele>877.0</ele><time>2026-04-18T12:51:55Z</time></trkpt><trkpt lat="44.64334589494239" lon="6.572778974155589"><ele>877.0</ele><time>2026-04-18T12:51:56.001Z</time></trkpt><trkpt lat="44.643466037112724" lon="6.572920504057044"><ele>876.6666666666666</ele><time>2026-04-18T12:51:57.001Z</time></trkpt><trkpt lat="44.64358399877761" lon="6.573053909298583"><ele>876.3333333333333</ele><time>2026-04-18T12:51:58.001Z</time></trkpt><trkpt lat="44.64369766078769" lon="6.573181322500554"><ele>876.0</ele><time>2026-04-18T12:51:59.001Z</time></trkpt><trkpt lat="44.64382467734395" lon="6.573323960730082"><ele>875.75</ele><time>2026-04-18T12:52:00.001Z</time></trkpt><trkpt lat="44.64395678986634" lon="6.573454979692646"><ele>875.5</ele><time>2026-04-18T12:52:01.001Z</time></trkpt><trkpt lat="44.64406065662845" lon="6.573587041488583"><ele>875.25</ele><time>2026-04-18T12:52:02.001Z</time></trkpt><trkpt lat="44.64417931370929" lon="6.573709899759067"><ele>875.0</ele><time>2026-04-18T12:52:03.001Z</time></trkpt><trkpt lat="44.644301057332946" lon="6.573844067537276"><ele>874.25</ele><time>2026-04-18T12:52:04.001Z</time></trkpt><trkpt lat="44.64438002330028" lon="6.573997624003002"><ele>873.5</ele><time>2026-04-18T12:52:05.001Z</time></trkpt><trkpt lat="44.64449292445842" lon="6.574121587639329"><ele>872.75</ele><time>2026-04-18T12:52:06.001Z</time></trkpt><trkpt lat="44.64460788168281" lon="6.5742531554619985"><ele>872.0</ele><time>2026-04-18T12:52:07.001Z</time></trkpt><trkpt lat="44.644718485118595" lon="6.574375476413243"><ele>871.25</ele><time>2026-04-18T12:52:08.001Z</time></trkpt><trkpt lat="44.64482344461511" lon="6.574494602760962"><ele>870.5</ele><time>2026-04-18T12:52:09.001Z</time></trkpt><trkpt lat="44.64493409542404" lon="6.57460835077377"><ele>869.75</ele><time>2026-04-18T12:52:10.001Z</time></trkpt><trkpt lat="44.64502082999363" lon="6.5747151329043625"><ele>869.0</ele><time>2026-04-18T12:52:11.001Z</time></trkpt><trkpt lat="44.64513078776285" lon="6.574818542624086"><ele>869.0</ele><time>2026-04-18T12:52:12.001Z</time></trkpt><trkpt lat="44.64524004187887" lon="6.574922325381047"><ele>869.0</ele><time>2026-04-18T12:52:13.001Z</time></trkpt><trkpt lat="44.64532792257701" lon="6.575022843691357"><ele>869.0</ele><time>2026-04-18T12:52:14.001Z</time></trkpt><trkpt lat="44.64542381924486" lon="6.575128205773958"><ele>869.0</ele><time>2026-04-18T12:52:15.001Z</time></trkpt><trkpt lat="44.645507754988955" lon="6.575235873950269"><ele>869.25</ele><time>2026-04-18T12:52:16.001Z</time></trkpt><trkpt lat="44.64559908843989" lon="6.5753443029618825"><ele>869.5</ele><time>2026-04-18T12:52:17.001Z</time></trkpt><trkpt lat="44.64570136752482" lon="6.57543916583853"><ele>869.75</ele><time>2026-04-18T12:52:18.001Z</time></trkpt><trkpt lat="44.64579240227539" lon="6.575540471932751"><ele>870.0</ele><time>2026-04-18T12:52:19.001Z</time></trkpt><trkpt lat="44.64587357304793" lon="6.575636373398247"><ele>870.0</ele><time>2026-04-18T12:52:20.001Z</time></trkpt><trkpt lat="44.6459584787268" lon="6.575732041698616"><ele>870.0</ele><time>2026-04-18T12:52:21.001Z</time></trkpt><trkpt lat="44.646053211309024" lon="6.575826723333948"><ele>870.0</ele><time>2026-04-18T12:52:22.001Z</time></trkpt><trkpt lat="44.64613399799607" lon="6.575921927908508"><ele>870.0</ele><time>2026-04-18T12:52:23.001Z</time></trkpt><trkpt lat="44.64621638621311" lon="6.576015705255442"><ele>870.0</ele><time>2026-04-18T12:52:24.001Z</time></trkpt><trkpt lat="44.64629980734186" lon="6.5761187067234825"><ele>870.0</ele><time>2026-04-18T12:52:25.001Z</time></trkpt><trkpt lat="44.64638367394514" lon="6.576207287690541"><ele>870.0</ele><time>2026-04-18T12:52:26.001Z</time></trkpt><trkpt lat="44.64646709520918" lon="6.576304970103443"><ele>870.0</ele><time>2026-04-18T12:52:27.001Z</time></trkpt><trkpt lat="44.64655588850782" lon="6.576395467738556"><ele>870.0</ele><time>2026-04-18T12:52:28.001Z</time></trkpt><trkpt lat="44.64664928272611" lon="6.576488589927529"><ele>870.0</ele><time>2026-04-18T12:52:29.001Z</time></trkpt><trkpt lat="44.646733913723104" lon="6.5765927648100515"><ele>870.0</ele><time>2026-04-18T12:52:30.001Z</time></trkpt><trkpt lat="44.64681747797872" lon="6.576696197083641"><ele>870.0</ele><time>2026-04-18T12:52:31.001Z</time></trkpt><trkpt lat="44.646901328510985" lon="6.576798673015433"><ele>870.0</ele><time>2026-04-18T12:52:32.001Z</time></trkpt><trkpt lat="44.646998725974896" lon="6.5768841062375465"><ele>870.0</ele><time>2026-04-18T12:52:33.001Z</time></trkpt><trkpt lat="44.647084188158956" lon="6.576977594165573"><ele>870.0</ele><time>2026-04-18T12:52:34.001Z</time></trkpt><trkpt lat="44.647174517680114" lon="6.577076779272475"><ele>870.25</ele><time>2026-04-18T12:52:35.001Z</time></trkpt><trkpt lat="44.64727295827871" lon="6.57717076528722"><ele>870.5</ele><time>2026-04-18T12:52:36.001Z</time></trkpt><trkpt lat="44.647356703144304" lon="6.577280285990662"><ele>870.75</ele><time>2026-04-18T12:52:37.001Z</time></trkpt><trkpt lat="44.64745095384887" lon="6.577383098211055"><ele>871.0</ele><time>2026-04-18T12:52:38.001Z</time></trkpt><trkpt lat="44.6475474238531" lon="6.577486674312899"><ele>871.0</ele><time>2026-04-18T12:52:39.001Z</time></trkpt><trkpt lat="44.64761694243687" lon="6.577596282063054"><ele>871.0</ele><time>2026-04-18T12:52:40.001Z</time></trkpt><trkpt lat="44.64771502971917" lon="6.5776855359592385"><ele>871.0</ele><time>2026-04-18T12:52:41.001Z</time></trkpt><trkpt lat="44.64779399145123" lon="6.577783268044346"><ele>871.0</ele><time>2026-04-18T12:52:42.001Z</time></trkpt><trkpt lat="44.64791040078561" lon="6.5778748306591295"><ele>871.75</ele><time>2026-04-18T12:52:43.001Z</time></trkpt><trkpt lat="44.64797195281145" lon="6.578016741960165"><ele>872.5</ele><time>2026-04-18T12:52:44.001Z</time></trkpt><trkpt lat="44.64809203422105" lon="6.57813870854548"><ele>873.25</ele><time>2026-04-18T12:52:45.001Z</time></trkpt><trkpt lat="44.64820881383697" lon="6.578263497921075"><ele>874.0</ele><time>2026-04-18T12:52:46.001Z</time></trkpt><trkpt lat="44.6483253717994" lon="6.578389193946151"><ele>874.0</ele><time>2026-04-18T12:52:47.001Z</time></trkpt><trkpt lat="44.64844290687815" lon="6.578512759760429"><ele>874.0</ele><time>2026-04-18T12:52:48.001Z</time></trkpt><trkpt lat="44.64855674023077" lon="6.578643075695185"><ele>874.0</ele><time>2026-04-18T12:52:49.001Z</time></trkpt><trkpt lat="44.64865679323802" lon="6.578774072409628"><ele>874.0</ele><time>2026-04-18T12:52:50.001Z</time></trkpt><trkpt lat="44.64875542307139" lon="6.57891749043725"><ele>874.25</ele><time>2026-04-18T12:52:51.001Z</time></trkpt><trkpt lat="44.64882707245331" lon="6.579086210301898"><ele>874.5</ele><time>2026-04-18T12:52:52.001Z</time></trkpt><trkpt lat="44.64890623237318" lon="6.579249696830937"><ele>874.75</ele><time>2026-04-18T12:52:53.001Z</time></trkpt><trkpt lat="44.64897903048064" lon="6.57942306771082"><ele>875.0</ele><time>2026-04-18T12:52:54.001Z</time></trkpt><trkpt lat="44.64906132914195" lon="6.579590640668461"><ele>875.0</ele><time>2026-04-18T12:52:55.001Z</time></trkpt><trkpt lat="44.64913165813088" lon="6.579762562738959"><ele>875.0</ele><time>2026-04-18T12:52:56.001Z</time></trkpt><trkpt lat="44.649214743970724" lon="6.579925439446566"><ele>875.0</ele><time>2026-04-18T12:52:57.001Z</time></trkpt><trkpt lat="44.649290414145625" lon="6.580072397852263"><ele>875.0</ele><time>2026-04-18T12:52:58.001Z</time></trkpt><trkpt lat="44.64937163289368" lon="6.58019575817266"><ele>875.0</ele><time>2026-04-18T12:52:59.001Z</time></trkpt><trkpt lat="44.64945804877151" lon="6.58029165340977"><ele>875.0</ele><time>2026-04-18T12:53:00.001Z</time></trkpt><trkpt lat="44.649579459745325" lon="6.580362933805407"><ele>875.0</ele><time>2026-04-18T12:53:01.001Z</time></trkpt><trkpt lat="44.649673078801065" lon="6.580459592526163"><ele>875.0</ele><time>2026-04-18T12:53:02.001Z</time></trkpt><trkpt lat="44.64975322734812" lon="6.580571627365992"><ele>874.25</ele><time>2026-04-18T12:53:03.001Z</time></trkpt><trkpt lat="44.64984485461416" lon="6.5806856804748906"><ele>873.5</ele><time>2026-04-18T12:53:04.001Z</time></trkpt><trkpt lat="44.64993859918943" lon="6.580791684310464"><ele>872.75</ele><time>2026-04-18T12:53:05.001Z</time></trkpt><trkpt lat="44.650025093057174" lon="6.580911522156912"><ele>872.0</ele><time>2026-04-18T12:53:06.001Z</time></trkpt><trkpt lat="44.650095347151456" lon="6.581055559209592"><ele>872.25</ele><time>2026-04-18T12:53:07.001Z</time></trkpt><trkpt lat="44.650154726417036" lon="6.581226053220731"><ele>872.5</ele><time>2026-04-18T12:53:08.001Z</time></trkpt><trkpt lat="44.650203456314635" lon="6.581416456231315"><ele>872.75</ele><time>2026-04-18T12:53:09.001Z</time></trkpt><trkpt lat="44.650223485749464" lon="6.581624653907307"><ele>873.0</ele><time>2026-04-18T12:53:10.001Z</time></trkpt><trkpt lat="44.65025307421559" lon="6.581823190952083"><ele>873.0</ele><time>2026-04-18T12:53:11.001Z</time></trkpt><trkpt lat="44.65028530714713" lon="6.582018741087027"><ele>873.0</ele><time>2026-04-18T12:53:12.001Z</time></trkpt><trkpt lat="44.650336475485126" lon="6.5821807640891175"><ele>873.0</ele><time>2026-04-18T12:53:13.001Z</time></trkpt><trkpt lat="44.65035831716535" lon="6.582354866676965"><ele>873.0</ele><time>2026-04-18T12:53:14.001Z</time></trkpt><trkpt lat="44.6503859211501" lon="6.5825364847563055"><ele>873.0</ele><time>2026-04-18T12:53:15.001Z</time></trkpt><trkpt lat="44.65042190329466" lon="6.582710012653748"><ele>873.0</ele><time>2026-04-18T12:53:16.001Z</time></trkpt><trkpt lat="44.6504533201722" lon="6.582857202163306"><ele>873.0</ele><time>2026-04-18T12:53:17.001Z</time></trkpt><trkpt lat="44.65046852875718" lon="6.583016322860846"><ele>873.0</ele><time>2026-04-18T12:53:18.001Z</time></trkpt><trkpt lat="44.65047139103083" lon="6.583181755170253"><ele>873.25</ele><time>2026-04-18T12:53:19.001Z</time></trkpt><trkpt lat="44.65045912065219" lon="6.583346271210602"><ele>873.5</ele><time>2026-04-18T12:53:20.001Z</time></trkpt><trkpt lat="44.65045389531963" lon="6.583515354883607"><ele>873.75</ele><time>2026-04-18T12:53:21.001Z</time></trkpt><trkpt lat="44.65044203768822" lon="6.5836789705193235"><ele>874.0</ele><time>2026-04-18T12:53:22.001Z</time></trkpt><trkpt lat="44.65044546085017" lon="6.583863812536874"><ele>874.0</ele><time>2026-04-18T12:53:23.001Z</time></trkpt><trkpt lat="44.650406950930275" lon="6.5840725329799135"><ele>874.0</ele><time>2026-04-18T12:53:24.001Z</time></trkpt><trkpt lat="44.650403907952196" lon="6.584273999808313"><ele>874.0</ele><time>2026-04-18T12:53:25.001Z</time></trkpt><trkpt lat="44.65039901858729" lon="6.584484681375017"><ele>874.0</ele><time>2026-04-18T12:53:26.001Z</time></trkpt><trkpt lat="44.650402548065266" lon="6.584697973788292"><ele>874.3333333333333</ele><time>2026-04-18T12:53:27.001Z</time></trkpt><trkpt lat="44.65042201973721" lon="6.584905618047248"><ele>874.6666666666667</ele><time>2026-04-18T12:53:28.001Z</time></trkpt><trkpt lat="44.65046478942622" lon="6.585123789151134"><ele>875.0</ele><time>2026-04-18T12:53:29.001Z</time></trkpt><trkpt lat="44.65052838486051" lon="6.585335832525789"><ele>876.6666666666667</ele><time>2026-04-18T12:53:29.999Z</time></trkpt><trkpt lat="44.650600579971275" lon="6.585532038154809"><ele>878.3333333333333</ele><time>2026-04-18T12:53:30.999Z</time></trkpt><trkpt lat="44.650673204371294" lon="6.585722319804321"><ele>880.0</ele><time>2026-04-18T12:53:31.999Z</time></trkpt><trkpt lat="44.65077299291191" lon="6.585899109123005"><ele>880.0</ele><time>2026-04-18T12:53:32.999Z</time></trkpt><trkpt lat="44.650882602894924" lon="6.586070338008454"><ele>880.0</ele><time>2026-04-18T12:53:33.999Z</time></trkpt><trkpt lat="44.65099979008941" lon="6.586232130048448"><ele>880.0</ele><time>2026-04-18T12:53:34.999Z</time></trkpt><trkpt lat="44.651146613126464" lon="6.586387675783451"><ele>878.6666666666666</ele><time>2026-04-18T12:53:35.999Z</time></trkpt><trkpt lat="44.65127565620586" lon="6.586560091924944"><ele>877.3333333333333</ele><time>2026-04-18T12:53:36.999Z</time></trkpt><trkpt lat="44.651407359357286" lon="6.5867324109195895"><ele>876.0</ele><time>2026-04-18T12:53:38Z</time></trkpt><trkpt lat="44.65151353573379" lon="6.586922058856038"><ele>878.5</ele><time>2026-04-18T12:53:39Z</time></trkpt><trkpt lat="44.65172560089169" lon="6.58731436500057"><ele>881.0</ele><time>2026-04-18T12:53:41Z</time></trkpt><trkpt lat="44.65182421741715" lon="6.587521057274858"><ele>881.0</ele><time>2026-04-18T12:53:42Z</time></trkpt><trkpt lat="44.65192496067074" lon="6.587716902933355"><ele>881.0</ele><time>2026-04-18T12:53:43Z</time></trkpt><trkpt lat="44.65203258370236" lon="6.587917408767693"><ele>881.0</ele><time>2026-04-18T12:53:44Z</time></trkpt><trkpt lat="44.65212794793152" lon="6.588133622616001"><ele>880.3333333333334</ele><time>2026-04-18T12:53:45Z</time></trkpt><trkpt lat="44.65224606067211" lon="6.5883370411428075"><ele>879.6666666666667</ele><time>2026-04-18T12:53:46Z</time></trkpt><trkpt lat="44.65235069291033" lon="6.588545149652745"><ele>879.0</ele><time>2026-04-18T12:53:47Z</time></trkpt><trkpt lat="44.652455523916295" lon="6.588759724619735"><ele>877.6666666666667</ele><time>2026-04-18T12:53:48Z</time></trkpt><trkpt lat="44.65256623199437" lon="6.588947550991577"><ele>876.3333333333334</ele><time>2026-04-18T12:53:49Z</time></trkpt><trkpt lat="44.65268127526765" lon="6.589173265121923"><ele>875.0</ele><time>2026-04-18T12:53:50Z</time></trkpt><trkpt lat="44.65279473485993" lon="6.589400559678104"><ele>876.0</ele><time>2026-04-18T12:53:51Z</time></trkpt><trkpt lat="44.652912155782545" lon="6.58960956420127"><ele>877.0</ele><time>2026-04-18T12:53:52Z</time></trkpt><trkpt lat="44.65302414699092" lon="6.589831183580793"><ele>878.0</ele><time>2026-04-18T12:53:53Z</time></trkpt><trkpt lat="44.65313855862875" lon="6.590050658310308"><ele>878.0</ele><time>2026-04-18T12:53:54Z</time></trkpt><trkpt lat="44.65324082286974" lon="6.590271010761229"><ele>878.0</ele><time>2026-04-18T12:53:55Z</time></trkpt><trkpt lat="44.653356351889954" lon="6.590501221983933"><ele>878.0</ele><time>2026-04-18T12:53:56Z</time></trkpt><trkpt lat="44.653464913833886" lon="6.590730513300341"><ele>878.3333333333334</ele><time>2026-04-18T12:53:57Z</time></trkpt><trkpt lat="44.65358146689523" lon="6.590957353447892"><ele>878.6666666666667</ele><time>2026-04-18T12:53:58Z</time></trkpt><trkpt lat="44.65369122808936" lon="6.59118028915402"><ele>879.0</ele><time>2026-04-18T12:53:59Z</time></trkpt><trkpt lat="44.653798419862305" lon="6.591399645397612"><ele>879.0</ele><time>2026-04-18T12:54:00Z</time></trkpt><trkpt lat="44.653917548272105" lon="6.591617648215597"><ele>879.0</ele><time>2026-04-18T12:54:01Z</time></trkpt><trkpt lat="44.65403230644917" lon="6.591837731381393"><ele>879.0</ele><time>2026-04-18T12:54:02Z</time></trkpt><trkpt lat="44.654140746557125" lon="6.5920533960418375"><ele>879.3333333333333</ele><time>2026-04-18T12:54:03Z</time></trkpt><trkpt lat="44.654253245543494" lon="6.592285138193873"><ele>879.6666666666666</ele><time>2026-04-18T12:54:04Z</time></trkpt><trkpt lat="44.654363456292145" lon="6.592504529548248"><ele>880.0</ele><time>2026-04-18T12:54:05Z</time></trkpt><trkpt lat="44.6544707391803" lon="6.592721068718817"><ele>879.3333333333333</ele><time>2026-04-18T12:54:06Z</time></trkpt><trkpt lat="44.6545817218405" lon="6.592936489141271"><ele>878.6666666666667</ele><time>2026-04-18T12:54:07Z</time></trkpt><trkpt lat="44.65469417410525" lon="6.593148746154865"><ele>878.0</ele><time>2026-04-18T12:54:08Z</time></trkpt><trkpt lat="44.654802847278944" lon="6.593357444692472"><ele>878.0</ele><time>2026-04-18T12:54:09Z</time></trkpt><trkpt lat="44.65491195073846" lon="6.593574969145015"><ele>878.0</ele><time>2026-04-18T12:54:10Z</time></trkpt><trkpt lat="44.65502910184703" lon="6.593791681147704"><ele>878.0</ele><time>2026-04-18T12:54:11Z</time></trkpt><trkpt lat="44.65513978135941" lon="6.594010066390365"><ele>877.3333333333334</ele><time>2026-04-18T12:54:12Z</time></trkpt><trkpt lat="44.65525258359334" lon="6.594228073978413"><ele>876.6666666666667</ele><time>2026-04-18T12:54:13Z</time></trkpt><trkpt lat="44.65536494740375" lon="6.594442162541657"><ele>876.0</ele><time>2026-04-18T12:54:14Z</time></trkpt><trkpt lat="44.655481257602986" lon="6.594660601149377"><ele>877.3333333333333</ele><time>2026-04-18T12:54:15Z</time></trkpt><trkpt lat="44.65560572378236" lon="6.59488149078632"><ele>878.6666666666666</ele><time>2026-04-18T12:54:16Z</time></trkpt><trkpt lat="44.65572342562644" lon="6.595105677952159"><ele>880.0</ele><time>2026-04-18T12:54:17Z</time></trkpt><trkpt lat="44.65583817317442" lon="6.595333555595846"><ele>879.6666666666666</ele><time>2026-04-18T12:54:18Z</time></trkpt><trkpt lat="44.65593877320315" lon="6.595568357663"><ele>879.3333333333333</ele><time>2026-04-18T12:54:19Z</time></trkpt><trkpt lat="44.6560523026706" lon="6.595792282120669"><ele>879.0</ele><time>2026-04-18T12:54:20Z</time></trkpt><trkpt lat="44.65617097291094" lon="6.595994817667997"><ele>878.3333333333333</ele><time>2026-04-18T12:54:21Z</time></trkpt><trkpt lat="44.65627194608169" lon="6.5962225821957965"><ele>877.6666666666666</ele><time>2026-04-18T12:54:22Z</time></trkpt><trkpt lat="44.65637951443125" lon="6.596433317818724"><ele>877.0</ele><time>2026-04-18T12:54:23Z</time></trkpt><trkpt lat="44.656489056585954" lon="6.596647920112515"><ele>877.0</ele><time>2026-04-18T12:54:24Z</time></trkpt><trkpt lat="44.656589088857004" lon="6.59684389178716"><ele>877.0</ele><time>2026-04-18T12:54:25Z</time></trkpt><trkpt lat="44.656695253823024" lon="6.597051878008164"><ele>877.0</ele><time>2026-04-18T12:54:26Z</time></trkpt><trkpt lat="44.656795974889846" lon="6.597249199367506"><ele>876.6666666666666</ele><time>2026-04-18T12:54:27Z</time></trkpt><trkpt lat="44.65690074857247" lon="6.597454459529799"><ele>876.3333333333333</ele><time>2026-04-18T12:54:28Z</time></trkpt><trkpt lat="44.65700042995122" lon="6.597649526935033"><ele>876.0</ele><time>2026-04-18T12:54:29Z</time></trkpt><trkpt lat="44.65711066768226" lon="6.597826179201511"><ele>877.0</ele><time>2026-04-18T12:54:30Z</time></trkpt><trkpt lat="44.657203906228546" lon="6.598029268536961"><ele>878.0</ele><time>2026-04-18T12:54:31Z</time></trkpt><trkpt lat="44.65730308816996" lon="6.598241486961216"><ele>879.0</ele><time>2026-04-18T12:54:32Z</time></trkpt><trkpt lat="44.65741436551191" lon="6.598459131168557"><ele>879.0</ele><time>2026-04-18T12:54:33Z</time></trkpt><trkpt lat="44.65753288577483" lon="6.598658927690731"><ele>879.0</ele><time>2026-04-18T12:54:34Z</time></trkpt><trkpt lat="44.65763638745487" lon="6.598876731998226"><ele>879.0</ele><time>2026-04-18T12:54:35Z</time></trkpt><trkpt lat="44.65775284817815" lon="6.599087465199846"><ele>878.0</ele><time>2026-04-18T12:54:36Z</time></trkpt><trkpt lat="44.6578608587532" lon="6.599298615285311"><ele>877.0</ele><time>2026-04-18T12:54:37Z</time></trkpt><trkpt lat="44.657955462244175" lon="6.5995233146128145"><ele>876.0</ele><time>2026-04-18T12:54:38Z</time></trkpt><trkpt lat="44.65806397833205" lon="6.59973757640618"><ele>875.6666666666667</ele><time>2026-04-18T12:54:39Z</time></trkpt><trkpt lat="44.658165381478895" lon="6.59993779404229"><ele>875.3333333333334</ele><time>2026-04-18T12:54:40Z</time></trkpt><trkpt lat="44.65827289962486" lon="6.600150085190938"><ele>875.0</ele><time>2026-04-18T12:54:41Z</time></trkpt><trkpt lat="44.658377421196356" lon="6.600356459629932"><ele>876.6666666666667</ele><time>2026-04-18T12:54:42Z</time></trkpt><trkpt lat="44.658478638216394" lon="6.600556309952644"><ele>878.3333333333333</ele><time>2026-04-18T12:54:43Z</time></trkpt><trkpt lat="44.65858917163672" lon="6.600737671958348"><ele>880.0</ele><time>2026-04-18T12:54:44Z</time></trkpt><trkpt lat="44.65868581316354" lon="6.600938861110651"><ele>880.0</ele><time>2026-04-18T12:54:45Z</time></trkpt><trkpt lat="44.6587828414303" lon="6.601138231123666"><ele>880.0</ele><time>2026-04-18T12:54:46Z</time></trkpt><trkpt lat="44.65888165818235" lon="6.601329992591351"><ele>880.0</ele><time>2026-04-18T12:54:47Z</time></trkpt><trkpt lat="44.65897644979156" lon="6.60152224775704"><ele>880.3333333333333</ele><time>2026-04-18T12:54:48Z</time></trkpt><trkpt lat="44.65907598659711" lon="6.601714604437997"><ele>880.6666666666667</ele><time>2026-04-18T12:54:49Z</time></trkpt><trkpt lat="44.65917298560593" lon="6.601903863725768"><ele>881.0</ele><time>2026-04-18T12:54:50Z</time></trkpt><trkpt lat="44.659260759364344" lon="6.602102813650342"><ele>881.0</ele><time>2026-04-18T12:54:51Z</time></trkpt><trkpt lat="44.65935514533804" lon="6.6023001983357394"><ele>881.0</ele><time>2026-04-18T12:54:52Z</time></trkpt><trkpt lat="44.65945412096441" lon="6.6024932149684545"><ele>881.0</ele><time>2026-04-18T12:54:53Z</time></trkpt><trkpt lat="44.659550688303575" lon="6.602670226894907"><ele>882.0</ele><time>2026-04-18T12:54:54Z</time></trkpt><trkpt lat="44.65964317640004" lon="6.602861491745424"><ele>883.0</ele><time>2026-04-18T12:54:55Z</time></trkpt><trkpt lat="44.6597461612431" lon="6.60304566036334"><ele>884.0</ele><time>2026-04-18T12:54:56.001Z</time></trkpt><trkpt lat="44.65983844317192" lon="6.6032270277874305"><ele>884.0</ele><time>2026-04-18T12:54:57.001Z</time></trkpt><trkpt lat="44.65993515315385" lon="6.603413088636844"><ele>884.0</ele><time>2026-04-18T12:54:58.001Z</time></trkpt><trkpt lat="44.66003344738874" lon="6.603606317794764"><ele>884.0</ele><time>2026-04-18T12:54:59.001Z</time></trkpt><trkpt lat="44.66013499241241" lon="6.603800020418842"><ele>883.6666666666667</ele><time>2026-04-18T12:55:00.001Z</time></trkpt><trkpt lat="44.66022048930216" lon="6.6039848828890175"><ele>883.3333333333333</ele><time>2026-04-18T12:55:01.001Z</time></trkpt><trkpt lat="44.660302453115406" lon="6.604156545030538"><ele>883.0</ele><time>2026-04-18T12:55:02.001Z</time></trkpt><trkpt lat="44.66038047551986" lon="6.60434036006163"><ele>882.3333333333333</ele><time>2026-04-18T12:55:03.001Z</time></trkpt><trkpt lat="44.66047657525553" lon="6.604514249357585"><ele>881.6666666666667</ele><time>2026-04-18T12:55:04.001Z</time></trkpt><trkpt lat="44.66057004877969" lon="6.604686122341059"><ele>881.0</ele><time>2026-04-18T12:55:05.001Z</time></trkpt><trkpt lat="44.66065350093287" lon="6.604859034546087"><ele>881.0</ele><time>2026-04-18T12:55:06.001Z</time></trkpt><trkpt lat="44.660754223166066" lon="6.605029668755915"><ele>881.0</ele><time>2026-04-18T12:55:07.001Z</time></trkpt><trkpt lat="44.66083447572159" lon="6.605199516806948"><ele>881.0</ele><time>2026-04-18T12:55:08.001Z</time></trkpt><trkpt lat="44.6609284053248" lon="6.605390362693231"><ele>881.0</ele><time>2026-04-18T12:55:09.001Z</time></trkpt><trkpt lat="44.66102845017206" lon="6.605599491080789"><ele>881.0</ele><time>2026-04-18T12:55:10.001Z</time></trkpt><trkpt lat="44.66113514290293" lon="6.605827956986145"><ele>881.0</ele><time>2026-04-18T12:55:11.001Z</time></trkpt><trkpt lat="44.66126032450661" lon="6.6060726203345705"><ele>882.5</ele><time>2026-04-18T12:55:12.001Z</time></trkpt><trkpt lat="44.66139398694742" lon="6.606333731788947"><ele>884.0</ele><time>2026-04-18T12:55:13.001Z</time></trkpt><trkpt lat="44.66153498461803" lon="6.60658813408849"><ele>884.0</ele><time>2026-04-18T12:55:14.001Z</time></trkpt><trkpt lat="44.66166852271678" lon="6.6068364532459"><ele>884.0</ele><time>2026-04-18T12:55:15.001Z</time></trkpt><trkpt lat="44.66180751843728" lon="6.607082180719507"><ele>884.0</ele><time>2026-04-18T12:55:16.001Z</time></trkpt><trkpt lat="44.661947542301306" lon="6.607340488052787"><ele>884.6666666666667</ele><time>2026-04-18T12:55:17.001Z</time></trkpt><trkpt lat="44.66207664131317" lon="6.607594143632488"><ele>885.3333333333333</ele><time>2026-04-18T12:55:18.001Z</time></trkpt><trkpt lat="44.66219893212863" lon="6.607846588144805"><ele>886.0</ele><time>2026-04-18T12:55:19.001Z</time></trkpt><trkpt lat="44.662331599335296" lon="6.608101902072069"><ele>886.0</ele><time>2026-04-18T12:55:20.001Z</time></trkpt><trkpt lat="44.662450985280316" lon="6.608357618298358"><ele>886.0</ele><time>2026-04-18T12:55:21.001Z</time></trkpt><trkpt lat="44.66259262239139" lon="6.608614492862583"><ele>886.0</ele><time>2026-04-18T12:55:22.001Z</time></trkpt><trkpt lat="44.662719994717484" lon="6.608872450733152"><ele>886.0</ele><time>2026-04-18T12:55:23.001Z</time></trkpt><trkpt lat="44.66285235301379" lon="6.609122387718565"><ele>886.0</ele><time>2026-04-18T12:55:24.001Z</time></trkpt><trkpt lat="44.662986969658725" lon="6.609378759267864"><ele>886.0</ele><time>2026-04-18T12:55:25.001Z</time></trkpt><trkpt lat="44.66312111072911" lon="6.609635371919996"><ele>887.0</ele><time>2026-04-18T12:55:26.001Z</time></trkpt><trkpt lat="44.66325311879535" lon="6.609881381657485"><ele>888.0</ele><time>2026-04-18T12:55:27.001Z</time></trkpt><trkpt lat="44.66336577857456" lon="6.610130625972879"><ele>889.0</ele><time>2026-04-18T12:55:28.001Z</time></trkpt><trkpt lat="44.66349452696062" lon="6.610370989527586"><ele>889.0</ele><time>2026-04-18T12:55:29.001Z</time></trkpt><trkpt lat="44.663617406032515" lon="6.6106094024785955"><ele>889.0</ele><time>2026-04-18T12:55:30.001Z</time></trkpt><trkpt lat="44.66372901937651" lon="6.6108410239265085"><ele>889.0</ele><time>2026-04-18T12:55:31.001Z</time></trkpt><trkpt lat="44.66385670132741" lon="6.61107407488648"><ele>890.0</ele><time>2026-04-18T12:55:32.001Z</time></trkpt><trkpt lat="44.663967258857895" lon="6.611316167112987"><ele>891.0</ele><time>2026-04-18T12:55:33.001Z</time></trkpt><trkpt lat="44.66409241432073" lon="6.611526934724533"><ele>892.0</ele><time>2026-04-18T12:55:34.001Z</time></trkpt><trkpt lat="44.66420220262889" lon="6.611760528257213"><ele>892.0</ele><time>2026-04-18T12:55:35.001Z</time></trkpt><trkpt lat="44.664310781934134" lon="6.61197890444475"><ele>892.0</ele><time>2026-04-18T12:55:35.998Z</time></trkpt><trkpt lat="44.66441762890574" lon="6.612193619006667"><ele>892.0</ele><time>2026-04-18T12:55:36.998Z</time></trkpt><trkpt lat="44.66452597432296" lon="6.612396918193764"><ele>891.3333333333333</ele><time>2026-04-18T12:55:37.999Z</time></trkpt><trkpt lat="44.664630049025895" lon="6.6125862977129035"><ele>890.6666666666667</ele><time>2026-04-18T12:55:38.999Z</time></trkpt><trkpt lat="44.66471510000584" lon="6.612787627098477"><ele>890.0</ele><time>2026-04-18T12:55:39.999Z</time></trkpt><trkpt lat="44.66480694938185" lon="6.612970168419574"><ele>890.0</ele><time>2026-04-18T12:55:40.999Z</time></trkpt><trkpt lat="44.66488548326993" lon="6.613127493655435"><ele>890.0</ele><time>2026-04-18T12:55:41.999Z</time></trkpt><trkpt lat="44.66497625680129" lon="6.613275695399375"><ele>890.0</ele><time>2026-04-18T12:55:42.999Z</time></trkpt><trkpt lat="44.66503971438571" lon="6.61343205089605"><ele>890.0</ele><time>2026-04-18T12:55:43.999Z</time></trkpt><trkpt lat="44.66511639117004" lon="6.613576171150017"><ele>890.2</ele><time>2026-04-18T12:55:44.999Z</time></trkpt><trkpt lat="44.665182122348426" lon="6.613713633760059"><ele>890.4</ele><time>2026-04-18T12:55:45.999Z</time></trkpt><trkpt lat="44.66523325257793" lon="6.613848080372953"><ele>890.5999999999999</ele><time>2026-04-18T12:55:46.999Z</time></trkpt><trkpt lat="44.665286339367164" lon="6.613977575935547"><ele>890.8</ele><time>2026-04-18T12:55:47.999Z</time></trkpt><trkpt lat="44.66534969858407" lon="6.614105794632064"><ele>891.0</ele><time>2026-04-18T12:55:48.999Z</time></trkpt><trkpt lat="44.665388650065715" lon="6.614233221055454"><ele>891.0</ele><time>2026-04-18T12:55:49.999Z</time></trkpt><trkpt lat="44.66543698793155" lon="6.6143576245821425"><ele>890.9999999999999</ele><time>2026-04-18T12:55:50.999Z</time></trkpt><trkpt lat="44.66545972606103" lon="6.614493321696513"><ele>890.9999999999999</ele><time>2026-04-18T12:55:51.999Z</time></trkpt><trkpt lat="44.66547451075134" lon="6.614635139854318"><ele>891.0</ele><time>2026-04-18T12:55:52.999Z</time></trkpt><trkpt lat="44.66550274340521" lon="6.6147624726468255"><ele>891.0</ele><time>2026-04-18T12:55:53.999Z</time></trkpt><trkpt lat="44.665558002324545" lon="6.61486994437627"><ele>891.0</ele><time>2026-04-18T12:55:54.999Z</time></trkpt><trkpt lat="44.66562238670041" lon="6.614948558099576"><ele>890.9999999999999</ele><time>2026-04-18T12:55:55.999Z</time></trkpt><trkpt lat="44.665713930170845" lon="6.614972876658928"><ele>890.9999999999999</ele><time>2026-04-18T12:55:56.999Z</time></trkpt><trkpt lat="44.66579449752679" lon="6.615036662492498"><ele>891.0</ele><time>2026-04-18T12:55:57.999Z</time></trkpt><trkpt lat="44.665881613933706" lon="6.6151491803036455"><ele>891.0</ele><time>2026-04-18T12:55:58.999Z</time></trkpt><trkpt lat="44.66597213722282" lon="6.615309751065607"><ele>891.0</ele><time>2026-04-18T12:55:59.999Z</time></trkpt><trkpt lat="44.66604403732316" lon="6.61547737955417"><ele>891.0</ele><time>2026-04-18T12:56:00.999Z</time></trkpt><trkpt lat="44.6661336080972" lon="6.615659034579055"><ele>891.0</ele><time>2026-04-18T12:56:01.999Z</time></trkpt><trkpt lat="44.66622508531843" lon="6.615827417818613"><ele>891.0</ele><time>2026-04-18T12:56:02.999Z</time></trkpt><trkpt lat="44.66631739778394" lon="6.616022548331054"><ele>891.0</ele><time>2026-04-18T12:56:03.999Z</time></trkpt><trkpt lat="44.666416669840274" lon="6.616212196286387"><ele>891.0</ele><time>2026-04-18T12:56:04.999Z</time></trkpt><trkpt lat="44.666536290044924" lon="6.616408583877238"><ele>891.0</ele><time>2026-04-18T12:56:06Z</time></trkpt><trkpt lat="44.66665096265163" lon="6.616613091098137"><ele>891.0</ele><time>2026-04-18T12:56:07Z</time></trkpt><trkpt lat="44.66678201479389" lon="6.616802227426228"><ele>891.0</ele><time>2026-04-18T12:56:08Z</time></trkpt><trkpt lat="44.6669110728225" lon="6.617002049386784"><ele>891.0</ele><time>2026-04-18T12:56:09Z</time></trkpt><trkpt lat="44.66704653029509" lon="6.617187663383666"><ele>890.6666666666667</ele><time>2026-04-18T12:56:10Z</time></trkpt><trkpt lat="44.667202101923785" lon="6.617354333531226"><ele>890.3333333333334</ele><time>2026-04-18T12:56:11Z</time></trkpt><trkpt lat="44.66734502399119" lon="6.617516901912934"><ele>890.0</ele><time>2026-04-18T12:56:12Z</time></trkpt><trkpt lat="44.66750313360649" lon="6.61767972319542"><ele>890.6666666666667</ele><time>2026-04-18T12:56:13Z</time></trkpt><trkpt lat="44.66771385745512" lon="6.617818524779481"><ele>891.3333333333333</ele><time>2026-04-18T12:56:14Z</time></trkpt><trkpt lat="44.66790983741364" lon="6.617946660486775"><ele>892.0</ele><time>2026-04-18T12:56:15Z</time></trkpt><trkpt lat="44.668089778562674" lon="6.618075461759651"><ele>890.6666666666666</ele><time>2026-04-18T12:56:16Z</time></trkpt><trkpt lat="44.66827226362772" lon="6.618206845760307"><ele>889.3333333333333</ele><time>2026-04-18T12:56:17Z</time></trkpt><trkpt lat="44.6684773590362" lon="6.618284221854297"><ele>888.0</ele><time>2026-04-18T12:56:18Z</time></trkpt><trkpt lat="44.66866502707011" lon="6.618372215117949"><ele>888.0</ele><time>2026-04-18T12:56:19Z</time></trkpt><trkpt lat="44.668890023834834" lon="6.6184201643465945"><ele>888.0</ele><time>2026-04-18T12:56:20Z</time></trkpt><trkpt lat="44.66910749676767" lon="6.6184563701160775"><ele>888.0</ele><time>2026-04-18T12:56:21Z</time></trkpt><trkpt lat="44.66931232898683" lon="6.6184938246603116"><ele>887.6666666666667</ele><time>2026-04-18T12:56:22Z</time></trkpt><trkpt lat="44.66950886061049" lon="6.618523355006966"><ele>887.3333333333334</ele><time>2026-04-18T12:56:23Z</time></trkpt><trkpt lat="44.669712021848405" lon="6.618537854559297"><ele>887.0</ele><time>2026-04-18T12:56:24Z</time></trkpt><trkpt lat="44.669901457136035" lon="6.618548276140285"><ele>887.0</ele><time>2026-04-18T12:56:25Z</time></trkpt><trkpt lat="44.670087132218185" lon="6.6185327454151155"><ele>887.0</ele><time>2026-04-18T12:56:26Z</time></trkpt><trkpt lat="44.67028514547754" lon="6.618513058427747"><ele>887.0</ele><time>2026-04-18T12:56:27Z</time></trkpt><trkpt lat="44.67045856785963" lon="6.618487347007317"><ele>888.0</ele><time>2026-04-18T12:56:28Z</time></trkpt><trkpt lat="44.67061879041653" lon="6.618448057137457"><ele>889.0</ele><time>2026-04-18T12:56:29Z</time></trkpt><trkpt lat="44.67077590012322" lon="6.618398805590636"><ele>890.0</ele><time>2026-04-18T12:56:30Z</time></trkpt><trkpt lat="44.67092247463923" lon="6.618360370585261"><ele>890.0</ele><time>2026-04-18T12:56:31Z</time></trkpt><trkpt lat="44.67105188443497" lon="6.618342272144497"><ele>890.0</ele><time>2026-04-18T12:56:32Z</time></trkpt><trkpt lat="44.67119657135977" lon="6.618318453145693"><ele>890.0</ele><time>2026-04-18T12:56:33Z</time></trkpt><trkpt lat="44.671347409806735" lon="6.618297041912313"><ele>890.0</ele><time>2026-04-18T12:56:34Z</time></trkpt><trkpt lat="44.67149418818279" lon="6.618262690874574"><ele>890.25</ele><time>2026-04-18T12:56:35Z</time></trkpt><trkpt lat="44.67161908048401" lon="6.618210144345356"><ele>890.5</ele><time>2026-04-18T12:56:36Z</time></trkpt><trkpt lat="44.67174075454588" lon="6.618125269951773"><ele>890.75</ele><time>2026-04-18T12:56:37Z</time></trkpt><trkpt lat="44.67184765535483" lon="6.618041438673796"><ele>891.0</ele><time>2026-04-18T12:56:38Z</time></trkpt><trkpt lat="44.67198276684069" lon="6.617983982089186"><ele>890.25</ele><time>2026-04-18T12:56:39Z</time></trkpt><trkpt lat="44.672116276808524" lon="6.617944782321262"><ele>889.5</ele><time>2026-04-18T12:56:40Z</time></trkpt><trkpt lat="44.67224874151991" lon="6.617906039771974"><ele>888.75</ele><time>2026-04-18T12:56:41Z</time></trkpt><trkpt lat="44.672390785558036" lon="6.617863800364568"><ele>888.0</ele><time>2026-04-18T12:56:42Z</time></trkpt><trkpt lat="44.67252104546416" lon="6.617810667566728"><ele>888.0</ele><time>2026-04-18T12:56:43Z</time></trkpt><trkpt lat="44.67264968243291" lon="6.61778003202522"><ele>888.0</ele><time>2026-04-18T12:56:44Z</time></trkpt><trkpt lat="44.672806743019656" lon="6.617756669642431"><ele>888.0</ele><time>2026-04-18T12:56:45Z</time></trkpt><trkpt lat="44.67295489110719" lon="6.617711403918149"><ele>888.0</ele><time>2026-04-18T12:56:46Z</time></trkpt><trkpt lat="44.67310138284278" lon="6.6176613737930055"><ele>888.0</ele><time>2026-04-18T12:56:47Z</time></trkpt><trkpt lat="44.673246468676055" lon="6.617624998172608"><ele>888.0</ele><time>2026-04-18T12:56:48Z</time></trkpt><trkpt lat="44.673389204450665" lon="6.617581673773462"><ele>888.0</ele><time>2026-04-18T12:56:49Z</time></trkpt><trkpt lat="44.67352384104679" lon="6.617540913500925"><ele>888.0</ele><time>2026-04-18T12:56:50Z</time></trkpt><trkpt lat="44.67369057181532" lon="6.617496467152819"><ele>888.0</ele><time>2026-04-18T12:56:51Z</time></trkpt><trkpt lat="44.67384272159829" lon="6.6174382021824565"><ele>888.0</ele><time>2026-04-18T12:56:52Z</time></trkpt><trkpt lat="44.67399624439177" lon="6.617417492157409"><ele>888.0</ele><time>2026-04-18T12:56:53Z</time></trkpt><trkpt lat="44.6741366228761" lon="6.617390020184862"><ele>888.0</ele><time>2026-04-18T12:56:54Z</time></trkpt><trkpt lat="44.67427249452515" lon="6.6173515344313225"><ele>888.0</ele><time>2026-04-18T12:56:55Z</time></trkpt><trkpt lat="44.67441179362052" lon="6.61730044281842"><ele>888.0</ele><time>2026-04-18T12:56:56Z</time></trkpt><trkpt lat="44.67456381952736" lon="6.617260545646441"><ele>888.0</ele><time>2026-04-18T12:56:57Z</time></trkpt><trkpt lat="44.67471122988201" lon="6.617219567020069"><ele>888.0</ele><time>2026-04-18T12:56:58Z</time></trkpt><trkpt lat="44.67485506569639" lon="6.617182307658692"><ele>888.0</ele><time>2026-04-18T12:56:59Z</time></trkpt><trkpt lat="44.67500339092158" lon="6.617142968074236"><ele>888.0</ele><time>2026-04-18T12:57:00Z</time></trkpt><trkpt lat="44.6751425228715" lon="6.617089775971393"><ele>888.0</ele><time>2026-04-18T12:57:01.001Z</time></trkpt><trkpt lat="44.675293533593184" lon="6.617025707479139"><ele>887.75</ele><time>2026-04-18T12:57:02.001Z</time></trkpt><trkpt lat="44.67543461102723" lon="6.617009273494892"><ele>887.5</ele><time>2026-04-18T12:57:03.001Z</time></trkpt><trkpt lat="44.67556771683466" lon="6.6169680723674675"><ele>887.25</ele><time>2026-04-18T12:57:04.001Z</time></trkpt><trkpt lat="44.675703070749854" lon="6.616929773844146"><ele>887.0</ele><time>2026-04-18T12:57:05.001Z</time></trkpt><trkpt lat="44.67583351017392" lon="6.616879289780339"><ele>887.0</ele><time>2026-04-18T12:57:06.001Z</time></trkpt><trkpt lat="44.67596032052587" lon="6.616821140027657"><ele>887.0</ele><time>2026-04-18T12:57:07.001Z</time></trkpt><trkpt lat="44.676088455660334" lon="6.616776916648896"><ele>887.0</ele><time>2026-04-18T12:57:08.001Z</time></trkpt><trkpt lat="44.676234870975584" lon="6.6167275608795935"><ele>887.0</ele><time>2026-04-18T12:57:09.001Z</time></trkpt><trkpt lat="44.676368271667016" lon="6.616707514533479"><ele>887.25</ele><time>2026-04-18T12:57:10.001Z</time></trkpt><trkpt lat="44.67649207239868" lon="6.616706156082028"><ele>887.5</ele><time>2026-04-18T12:57:11.001Z</time></trkpt><trkpt lat="44.676626092278745" lon="6.616689121100366"><ele>887.75</ele><time>2026-04-18T12:57:12.001Z</time></trkpt><trkpt lat="44.6767645589215" lon="6.616661596742168"><ele>888.0</ele><time>2026-04-18T12:57:13.001Z</time></trkpt><trkpt lat="44.67691247482524" lon="6.616619959135546"><ele>888.3333333333333</ele><time>2026-04-18T12:57:14.001Z</time></trkpt><trkpt lat="44.677056076657415" lon="6.616567181840928"><ele>888.6666666666666</ele><time>2026-04-18T12:57:15.001Z</time></trkpt><trkpt lat="44.67719978871975" lon="6.616502082365964"><ele>889.0</ele><time>2026-04-18T12:57:16.001Z</time></trkpt><trkpt lat="44.67735452773974" lon="6.616436298933158"><ele>889.0</ele><time>2026-04-18T12:57:17.001Z</time></trkpt><trkpt lat="44.67751427680153" lon="6.616393918597068"><ele>889.0</ele><time>2026-04-18T12:57:18.001Z</time></trkpt><trkpt lat="44.67768172027604" lon="6.616340415696893"><ele>889.0</ele><time>2026-04-18T12:57:19.001Z</time></trkpt><trkpt lat="44.677867212027365" lon="6.616288509500142"><ele>889.3333333333333</ele><time>2026-04-18T12:57:20.001Z</time></trkpt><trkpt lat="44.67805129375286" lon="6.6162276754615075"><ele>889.6666666666667</ele><time>2026-04-18T12:57:21.001Z</time></trkpt><trkpt lat="44.678238719775045" lon="6.616165877441815"><ele>890.0</ele><time>2026-04-18T12:57:22.001Z</time></trkpt><trkpt lat="44.67843075399132" lon="6.616108205375302"><ele>889.6666666666667</ele><time>2026-04-18T12:57:23.001Z</time></trkpt><trkpt lat="44.67862477665431" lon="6.616066228215846"><ele>889.3333333333333</ele><time>2026-04-18T12:57:24.001Z</time></trkpt><trkpt lat="44.67881673335219" lon="6.616003595060095"><ele>889.0</ele><time>2026-04-18T12:57:25.001Z</time></trkpt><trkpt lat="44.679034393240016" lon="6.615937370908546"><ele>889.0</ele><time>2026-04-18T12:57:26.001Z</time></trkpt><trkpt lat="44.679239247647644" lon="6.615876488933331"><ele>889.0</ele><time>2026-04-18T12:57:27.001Z</time></trkpt><trkpt lat="44.67945941477362" lon="6.615813939072083"><ele>889.0</ele><time>2026-04-18T12:57:28.001Z</time></trkpt><trkpt lat="44.67967404676386" lon="6.615768565688264"><ele>888.6666666666666</ele><time>2026-04-18T12:57:29.001Z</time></trkpt><trkpt lat="44.67989179367911" lon="6.615705089500732"><ele>888.3333333333333</ele><time>2026-04-18T12:57:30.001Z</time></trkpt><trkpt lat="44.68010592423311" lon="6.615642618954536"><ele>888.0</ele><time>2026-04-18T12:57:31.001Z</time></trkpt><trkpt lat="44.68031764807331" lon="6.6155808505572375"><ele>888.0</ele><time>2026-04-18T12:57:32.001Z</time></trkpt><trkpt lat="44.68053963375072" lon="6.615494395540071"><ele>888.0</ele><time>2026-04-18T12:57:33.001Z</time></trkpt><trkpt lat="44.680773457231204" lon="6.615447872549453"><ele>888.0</ele><time>2026-04-18T12:57:34.001Z</time></trkpt><trkpt lat="44.68100812739002" lon="6.615379409789881"><ele>888.0</ele><time>2026-04-18T12:57:35.001Z</time></trkpt><trkpt lat="44.68126028404558" lon="6.615286165230348"><ele>888.3333333333333</ele><time>2026-04-18T12:57:36.001Z</time></trkpt><trkpt lat="44.681483760649584" lon="6.615229429254883"><ele>888.6666666666666</ele><time>2026-04-18T12:57:37.001Z</time></trkpt><trkpt lat="44.681699530822954" lon="6.615188394731224"><ele>889.0</ele><time>2026-04-18T12:57:38.001Z</time></trkpt><trkpt lat="44.68189635501086" lon="6.615131261969591"><ele>892.0</ele><time>2026-04-18T12:57:39.001Z</time></trkpt><trkpt lat="44.68209319688031" lon="6.61508197696411"><ele>895.0</ele><time>2026-04-18T12:57:40.001Z</time></trkpt><trkpt lat="44.68228994352911" lon="6.615031628655159"><ele>898.0</ele><time>2026-04-18T12:57:41.001Z</time></trkpt><trkpt lat="44.68247609712068" lon="6.614973220136614"><ele>898.0</ele><time>2026-04-18T12:57:41.999Z</time></trkpt><trkpt lat="44.68266666465191" lon="6.614914470659288"><ele>898.0</ele><time>2026-04-18T12:57:42.999Z</time></trkpt><trkpt lat="44.68283285282718" lon="6.614876762361153"><ele>898.0</ele><time>2026-04-18T12:57:43.999Z</time></trkpt><trkpt lat="44.68298865502227" lon="6.614817674710675"><ele>898.6666666666666</ele><time>2026-04-18T12:57:44.999Z</time></trkpt><trkpt lat="44.68315740754629" lon="6.614768805728794"><ele>899.3333333333333</ele><time>2026-04-18T12:57:45.999Z</time></trkpt><trkpt lat="44.68332532197289" lon="6.6147207191920785"><ele>900.0</ele><time>2026-04-18T12:57:46.999Z</time></trkpt><trkpt lat="44.6834974891521" lon="6.61466738703658"><ele>901.6666666666667</ele><time>2026-04-18T12:57:47.999Z</time></trkpt><trkpt lat="44.68368146687285" lon="6.614611370183811"><ele>903.3333333333334</ele><time>2026-04-18T12:57:48.999Z</time></trkpt><trkpt lat="44.68386591527809" lon="6.614544510373762"><ele>905.0</ele><time>2026-04-18T12:57:49.999Z</time></trkpt><trkpt lat="44.68404794593091" lon="6.614488554605734"><ele>904.6666666666667</ele><time>2026-04-18T12:57:50.999Z</time></trkpt><trkpt lat="44.68424601770067" lon="6.61443901719689"><ele>904.3333333333333</ele><time>2026-04-18T12:57:51.999Z</time></trkpt><trkpt lat="44.6844564367397" lon="6.614382264488899"><ele>904.0</ele><time>2026-04-18T12:57:52.999Z</time></trkpt><trkpt lat="44.6846778976167" lon="6.614309585868118"><ele>904.0</ele><time>2026-04-18T12:57:53.999Z</time></trkpt><trkpt lat="44.68492009202165" lon="6.614248373795516"><ele>904.0</ele><time>2026-04-18T12:57:54.999Z</time></trkpt><trkpt lat="44.685217743663266" lon="6.614161522703114"><ele>905.5</ele><time>2026-04-18T12:57:55.999Z</time></trkpt><trkpt lat="44.685502693666955" lon="6.614078377786553"><ele>907.0</ele><time>2026-04-18T12:57:56.999Z</time></trkpt><trkpt lat="44.68578250882294" lon="6.613996731152427"><ele>907.0</ele><time>2026-04-18T12:57:57.999Z</time></trkpt><trkpt lat="44.68606663724112" lon="6.613914968526142"><ele>907.0</ele><time>2026-04-18T12:57:58.999Z</time></trkpt><trkpt lat="44.68634597970571" lon="6.613835419313521"><ele>910.5</ele><time>2026-04-18T12:58:00Z</time></trkpt><trkpt lat="44.68661711562886" lon="6.613748369943801"><ele>914.0</ele><time>2026-04-18T12:58:01Z</time></trkpt><trkpt lat="44.68690833988503" lon="6.613675944002949"><ele>915.5</ele><time>2026-04-18T12:58:02Z</time></trkpt><trkpt lat="44.6871766020887" lon="6.613579660524388"><ele>917.0</ele><time>2026-04-18T12:58:03Z</time></trkpt><trkpt lat="44.68745081023802" lon="6.613511485334545"><ele>917.0</ele><time>2026-04-18T12:58:04Z</time></trkpt><trkpt lat="44.68769620227268" lon="6.6134462825153895"><ele>917.0</ele><time>2026-04-18T12:58:05Z</time></trkpt><trkpt lat="44.6879578406346" lon="6.613365141496234"><ele>917.0</ele><time>2026-04-18T12:58:06Z</time></trkpt><trkpt lat="44.68822464237813" lon="6.613289399725603"><ele>917.0</ele><time>2026-04-18T12:58:07Z</time></trkpt><trkpt lat="44.68848107797369" lon="6.613211448372841"><ele>921.5</ele><time>2026-04-18T12:58:08Z</time></trkpt><trkpt lat="44.68874686136145" lon="6.613130320150163"><ele>926.0</ele><time>2026-04-18T12:58:09Z</time></trkpt><trkpt lat="44.68900527077056" lon="6.6130540357708645"><ele>926.0</ele><time>2026-04-18T12:58:10Z</time></trkpt><trkpt lat="44.689269036854576" lon="6.61298025052377"><ele>926.0</ele><time>2026-04-18T12:58:11Z</time></trkpt><trkpt lat="44.68952706024307" lon="6.61290673567069"><ele>926.5</ele><time>2026-04-18T12:58:12Z</time></trkpt><trkpt lat="44.68980201544867" lon="6.612848648112871"><ele>927.0</ele><time>2026-04-18T12:58:13Z</time></trkpt><trkpt lat="44.690054448569164" lon="6.612761855111319"><ele>926.5</ele><time>2026-04-18T12:58:14Z</time></trkpt><trkpt lat="44.69030545179686" lon="6.6127010011547345"><ele>926.0</ele><time>2026-04-18T12:58:15Z</time></trkpt><trkpt lat="44.69057086030802" lon="6.612614094378995"><ele>926.0</ele><time>2026-04-18T12:58:16Z</time></trkpt><trkpt lat="44.69083726322459" lon="6.6125403960246265"><ele>926.0</ele><time>2026-04-18T12:58:17Z</time></trkpt><trkpt lat="44.691087324877714" lon="6.612467251810014"><ele>926.5</ele><time>2026-04-18T12:58:18Z</time></trkpt><trkpt lat="44.6913434719975" lon="6.612392734923304"><ele>927.0</ele><time>2026-04-18T12:58:19Z</time></trkpt><trkpt lat="44.69159409022722" lon="6.612321404162886"><ele>927.0</ele><time>2026-04-18T12:58:20Z</time></trkpt><trkpt lat="44.69184855301422" lon="6.612246380737054"><ele>927.0</ele><time>2026-04-18T12:58:21Z</time></trkpt><trkpt lat="44.692091468104366" lon="6.612155597864065"><ele>927.5</ele><time>2026-04-18T12:58:22Z</time></trkpt><trkpt lat="44.69233694922789" lon="6.612089869194174"><ele>928.0</ele><time>2026-04-18T12:58:23Z</time></trkpt><trkpt lat="44.692576908877264" lon="6.61201897772354"><ele>924.5</ele><time>2026-04-18T12:58:24Z</time></trkpt><trkpt lat="44.69281532990502" lon="6.611954095091918"><ele>921.0</ele><time>2026-04-18T12:58:25Z</time></trkpt><trkpt lat="44.69304411511953" lon="6.6118809775465435"><ele>921.0</ele><time>2026-04-18T12:58:26Z</time></trkpt><trkpt lat="44.693272280039146" lon="6.611815181005876"><ele>921.0</ele><time>2026-04-18T12:58:27Z</time></trkpt><trkpt lat="44.69349192056026" lon="6.611754805036188"><ele>920.0</ele><time>2026-04-18T12:58:28Z</time></trkpt><trkpt lat="44.69371002668803" lon="6.6116929421976725"><ele>919.0</ele><time>2026-04-18T12:58:29Z</time></trkpt><trkpt lat="44.693948795408254" lon="6.611624305241297"><ele>919.0</ele><time>2026-04-18T12:58:30Z</time></trkpt><trkpt lat="44.69418372849277" lon="6.611563581248166"><ele>919.0</ele><time>2026-04-18T12:58:31Z</time></trkpt><trkpt lat="44.694421612776864" lon="6.61149636403389"><ele>918.5</ele><time>2026-04-18T12:58:32Z</time></trkpt><trkpt lat="44.69466661906714" lon="6.611433968549504"><ele>918.0</ele><time>2026-04-18T12:58:33Z</time></trkpt><trkpt lat="44.694908867757995" lon="6.611372641697136"><ele>918.0</ele><time>2026-04-18T12:58:34Z</time></trkpt><trkpt lat="44.69514022538318" lon="6.611307270987562"><ele>918.0</ele><time>2026-04-18T12:58:35Z</time></trkpt><trkpt lat="44.69536746043718" lon="6.61124382978518"><ele>915.0</ele><time>2026-04-18T12:58:36Z</time></trkpt><trkpt lat="44.69560039027749" lon="6.611174254369519"><ele>912.0</ele><time>2026-04-18T12:58:37Z</time></trkpt><trkpt lat="44.695831463438225" lon="6.611098731251593"><ele>910.0</ele><time>2026-04-18T12:58:38Z</time></trkpt><trkpt lat="44.69608276226456" lon="6.611037461176042"><ele>908.0</ele><time>2026-04-18T12:58:39Z</time></trkpt><trkpt lat="44.69632178126737" lon="6.610961193810879"><ele>907.0</ele><time>2026-04-18T12:58:40Z</time></trkpt><trkpt lat="44.69657374965147" lon="6.610883623282549"><ele>906.0</ele><time>2026-04-18T12:58:41Z</time></trkpt><trkpt lat="44.69681647529025" lon="6.610811922307713"><ele>905.5</ele><time>2026-04-18T12:58:42Z</time></trkpt><trkpt lat="44.697061349526344" lon="6.6107360257043375"><ele>905.0</ele><time>2026-04-18T12:58:43.001Z</time></trkpt><trkpt lat="44.69730445792952" lon="6.610682689077816"><ele>905.0</ele><time>2026-04-18T12:58:44.001Z</time></trkpt><trkpt lat="44.69754387491843" lon="6.6105909242451615"><ele>905.0</ele><time>2026-04-18T12:58:45.001Z</time></trkpt><trkpt lat="44.697780875417756" lon="6.610529668588423"><ele>905.0</ele><time>2026-04-18T12:58:46.001Z</time></trkpt><trkpt lat="44.69801315906628" lon="6.610463458158191"><ele>905.0</ele><time>2026-04-18T12:58:47.001Z</time></trkpt><trkpt lat="44.69826493617334" lon="6.610388725480501"><ele>903.0</ele><time>2026-04-18T12:58:48.001Z</time></trkpt><trkpt lat="44.698496086162265" lon="6.610319617207083"><ele>901.0</ele><time>2026-04-18T12:58:49.001Z</time></trkpt><trkpt lat="44.698732408080836" lon="6.610254908160028"><ele>901.0</ele><time>2026-04-18T12:58:50.001Z</time></trkpt><trkpt lat="44.69896060497698" lon="6.610192642676995"><ele>901.0</ele><time>2026-04-18T12:58:51.001Z</time></trkpt><trkpt lat="44.699196819105104" lon="6.610115792528055"><ele>901.3333333333333</ele><time>2026-04-18T12:58:52.001Z</time></trkpt><trkpt lat="44.69942650303285" lon="6.610048002208298"><ele>901.6666666666667</ele><time>2026-04-18T12:58:53.001Z</time></trkpt><trkpt lat="44.69963224905363" lon="6.609961921199312"><ele>902.0</ele><time>2026-04-18T12:58:54.001Z</time></trkpt><trkpt lat="44.69984651288978" lon="6.609853904024281"><ele>902.0</ele><time>2026-04-18T12:58:55.001Z</time></trkpt><trkpt lat="44.70004879662599" lon="6.609746262800252"><ele>902.0</ele><time>2026-04-18T12:58:56.001Z</time></trkpt><trkpt lat="44.700245754433986" lon="6.6096306985697515"><ele>902.0</ele><time>2026-04-18T12:58:57.001Z</time></trkpt><trkpt lat="44.700424387569925" lon="6.609502676791165"><ele>902.0</ele><time>2026-04-18T12:58:58.001Z</time></trkpt><trkpt lat="44.700605321529544" lon="6.609355676784541"><ele>902.0</ele><time>2026-04-18T12:58:59.001Z</time></trkpt><trkpt lat="44.70079674807998" lon="6.609215523572692"><ele>902.0</ele><time>2026-04-18T12:59:00.001Z</time></trkpt><trkpt lat="44.7009886947757" lon="6.609056683172551"><ele>904.5</ele><time>2026-04-18T12:59:01.001Z</time></trkpt><trkpt lat="44.70118026558307" lon="6.608860539055879"><ele>907.0</ele><time>2026-04-18T12:59:02.001Z</time></trkpt><trkpt lat="44.7013644014957" lon="6.608678017533256"><ele>905.5</ele><time>2026-04-18T12:59:03.001Z</time></trkpt><trkpt lat="44.701554939181904" lon="6.60848733117728"><ele>904.0</ele><time>2026-04-18T12:59:04.001Z</time></trkpt><trkpt lat="44.701742948208526" lon="6.6083036850589805"><ele>905.0</ele><time>2026-04-18T12:59:05.001Z</time></trkpt><trkpt lat="44.7019365527461" lon="6.608132637836328"><ele>906.0</ele><time>2026-04-18T12:59:06.001Z</time></trkpt><trkpt lat="44.702133115984445" lon="6.607977673215065"><ele>905.5</ele><time>2026-04-18T12:59:07.001Z</time></trkpt><trkpt lat="44.70232786088904" lon="6.607807699737757"><ele>905.0</ele><time>2026-04-18T12:59:08.001Z</time></trkpt><trkpt lat="44.702521710989394" lon="6.607635451693781"><ele>905.0</ele><time>2026-04-18T12:59:09.001Z</time></trkpt><trkpt lat="44.70273022501039" lon="6.607449741381869"><ele>905.0</ele><time>2026-04-18T12:59:10.001Z</time></trkpt><trkpt lat="44.70293650522264" lon="6.6072777605181265"><ele>905.5</ele><time>2026-04-18T12:59:11.001Z</time></trkpt><trkpt lat="44.703141291128205" lon="6.607103606486372"><ele>906.0</ele><time>2026-04-18T12:59:12.001Z</time></trkpt><trkpt lat="44.70334057688714" lon="6.606939552198224"><ele>906.3333333333333</ele><time>2026-04-18T12:59:13.001Z</time></trkpt><trkpt lat="44.703528860824676" lon="6.6067697663454465"><ele>906.6666666666666</ele><time>2026-04-18T12:59:14.001Z</time></trkpt><trkpt lat="44.70371605626944" lon="6.606603469804012"><ele>907.0</ele><time>2026-04-18T12:59:15.001Z</time></trkpt><trkpt lat="44.70390838876805" lon="6.606432200646883"><ele>907.0</ele><time>2026-04-18T12:59:16.001Z</time></trkpt><trkpt lat="44.70410419277222" lon="6.606279443145424"><ele>907.0</ele><time>2026-04-18T12:59:17.001Z</time></trkpt><trkpt lat="44.704292852453506" lon="6.606098265796119"><ele>906.0</ele><time>2026-04-18T12:59:18.001Z</time></trkpt><trkpt lat="44.70449545647694" lon="6.605940524306726"><ele>905.0</ele><time>2026-04-18T12:59:19.001Z</time></trkpt><trkpt lat="44.70468663464827" lon="6.605764650385124"><ele>905.0</ele><time>2026-04-18T12:59:20.001Z</time></trkpt><trkpt lat="44.704881490582984" lon="6.605596147128652"><ele>905.0</ele><time>2026-04-18T12:59:21.001Z</time></trkpt><trkpt lat="44.7050735224988" lon="6.605445977655605"><ele>905.0</ele><time>2026-04-18T12:59:22.001Z</time></trkpt><trkpt lat="44.705257177737806" lon="6.6053070706283465"><ele>903.6666666666667</ele><time>2026-04-18T12:59:23.001Z</time></trkpt><trkpt lat="44.70543152530441" lon="6.605181765702804"><ele>902.3333333333333</ele><time>2026-04-18T12:59:24.001Z</time></trkpt><trkpt lat="44.70561551845204" lon="6.605065231462909"><ele>901.0</ele><time>2026-04-18T12:59:25.001Z</time></trkpt><trkpt lat="44.70579376427517" lon="6.60497519135327"><ele>901.0</ele><time>2026-04-18T12:59:26.001Z</time></trkpt><trkpt lat="44.70594934875374" lon="6.604865412019317"><ele>901.0</ele><time>2026-04-18T12:59:27.001Z</time></trkpt><trkpt lat="44.70610074869921" lon="6.604785584632552"><ele>901.0</ele><time>2026-04-18T12:59:28.001Z</time></trkpt><trkpt lat="44.70623767939743" lon="6.604713220789247"><ele>901.75</ele><time>2026-04-18T12:59:29.001Z</time></trkpt><trkpt lat="44.70636451820654" lon="6.604668569320604"><ele>902.5</ele><time>2026-04-18T12:59:30.001Z</time></trkpt><trkpt lat="44.70647555117076" lon="6.604624028418131"><ele>903.25</ele><time>2026-04-18T12:59:31.001Z</time></trkpt><trkpt lat="44.70658146978664" lon="6.604589876502681"><ele>904.0</ele><time>2026-04-18T12:59:32.001Z</time></trkpt><trkpt lat="44.70668833990642" lon="6.604596053165753"><ele>904.0</ele><time>2026-04-18T12:59:33.001Z</time></trkpt><trkpt lat="44.706777582107776" lon="6.604631345246032"><ele>904.0000000000001</ele><time>2026-04-18T12:59:34.001Z</time></trkpt><trkpt lat="44.70687197167818" lon="6.6046259119069886"><ele>904.0000000000001</ele><time>2026-04-18T12:59:35.001Z</time></trkpt><trkpt lat="44.70695386547938" lon="6.604466893567641"><ele>904.0</ele><time>2026-04-18T12:59:37.001Z</time></trkpt><trkpt lat="44.707010314853335" lon="6.604347120184167"><ele>904.0</ele><time>2026-04-18T12:59:38.001Z</time></trkpt><trkpt lat="44.70708572560989" lon="6.604241403254207"><ele>903.6666666666666</ele><time>2026-04-18T12:59:39.001Z</time></trkpt><trkpt lat="44.70719695399339" lon="6.604135524322264"><ele>903.3333333333333</ele><time>2026-04-18T12:59:40.001Z</time></trkpt><trkpt lat="44.70735067788331" lon="6.604037952368349"><ele>903.0</ele><time>2026-04-18T12:59:41.001Z</time></trkpt><trkpt lat="44.707527139421366" lon="6.603944090975549"><ele>903.0</ele><time>2026-04-18T12:59:42.002Z</time></trkpt><trkpt lat="44.707697631327214" lon="6.603838397998985"><ele>903.0</ele><time>2026-04-18T12:59:43.002Z</time></trkpt><trkpt lat="44.707852522863725" lon="6.603727627331908"><ele>903.0</ele><time>2026-04-18T12:59:44.002Z</time></trkpt><trkpt lat="44.7080015174249" lon="6.603662728421511"><ele>903.0</ele><time>2026-04-18T12:59:45.002Z</time></trkpt><trkpt lat="44.70815565407617" lon="6.603583617996828"><ele>903.0</ele><time>2026-04-18T12:59:46.002Z</time></trkpt><trkpt lat="44.70832115394173" lon="6.603503989464194"><ele>903.0</ele><time>2026-04-18T12:59:47.002Z</time></trkpt><trkpt lat="44.70849911602341" lon="6.603423950959674"><ele>904.0</ele><time>2026-04-18T12:59:48Z</time></trkpt><trkpt lat="44.70868660956216" lon="6.6033465666493925"><ele>905.0</ele><time>2026-04-18T12:59:49Z</time></trkpt><trkpt lat="44.70889027968175" lon="6.603265768602582"><ele>906.0</ele><time>2026-04-18T12:59:50Z</time></trkpt><trkpt lat="44.709107633601285" lon="6.603182102284881"><ele>906.0</ele><time>2026-04-18T12:59:51Z</time></trkpt><trkpt lat="44.70934492530115" lon="6.603090761506918"><ele>906.0</ele><time>2026-04-18T12:59:52Z</time></trkpt><trkpt lat="44.70960681337706" lon="6.602991659372386"><ele>906.0</ele><time>2026-04-18T12:59:53Z</time></trkpt><trkpt lat="44.70986717383537" lon="6.602894499792623"><ele>906.0</ele><time>2026-04-18T12:59:54Z</time></trkpt><trkpt lat="44.71016351750817" lon="6.602784131094517"><ele>908.0</ele><time>2026-04-18T12:59:55Z</time></trkpt><trkpt lat="44.710423739969315" lon="6.602687996111169"><ele>910.0</ele><time>2026-04-18T12:59:56Z</time></trkpt><trkpt lat="44.710690192748785" lon="6.60258845248687"><ele>910.0</ele><time>2026-04-18T12:59:57Z</time></trkpt><trkpt lat="44.71093435903602" lon="6.602489206411693"><ele>910.0</ele><time>2026-04-18T12:59:58Z</time></trkpt><trkpt lat="44.711172352917025" lon="6.602370166108915"><ele>915.0</ele><time>2026-04-18T12:59:59Z</time></trkpt><trkpt lat="44.71139639238783" lon="6.602230693317136"><ele>920.0</ele><time>2026-04-18T13:00:00Z</time></trkpt><trkpt lat="44.711610179515056" lon="6.602057355866986"><ele>920.5</ele><time>2026-04-18T13:00:01Z</time></trkpt><trkpt lat="44.71181572616885" lon="6.601875112481951"><ele>921.0</ele><time>2026-04-18T13:00:02Z</time></trkpt><trkpt lat="44.712041036897" lon="6.601686348812167"><ele>921.0</ele><time>2026-04-18T13:00:03Z</time></trkpt><trkpt lat="44.71224375833761" lon="6.601488592113778"><ele>921.0</ele><time>2026-04-18T13:00:04Z</time></trkpt><trkpt lat="44.712447331607" lon="6.601283652145663"><ele>916.5</ele><time>2026-04-18T13:00:05Z</time></trkpt><trkpt lat="44.712639922968165" lon="6.6010589180719785"><ele>912.0</ele><time>2026-04-18T13:00:06Z</time></trkpt><trkpt lat="44.7128519508355" lon="6.600866037286464"><ele>912.0</ele><time>2026-04-18T13:00:07Z</time></trkpt><trkpt lat="44.71305732201165" lon="6.600654970098317"><ele>912.0</ele><time>2026-04-18T13:00:08Z</time></trkpt><trkpt lat="44.713268753918356" lon="6.600438730579291"><ele>908.5</ele><time>2026-04-18T13:00:09Z</time></trkpt><trkpt lat="44.71347615368866" lon="6.60022607141515"><ele>905.0</ele><time>2026-04-18T13:00:10Z</time></trkpt><trkpt lat="44.71367746849541" lon="6.600019221905613"><ele>905.0</ele><time>2026-04-18T13:00:11Z</time></trkpt><trkpt lat="44.71387774304219" lon="6.599813441269503"><ele>905.0</ele><time>2026-04-18T13:00:12Z</time></trkpt><trkpt lat="44.71407726837814" lon="6.599608430422247"><ele>905.5</ele><time>2026-04-18T13:00:13Z</time></trkpt><trkpt lat="44.71427156895907" lon="6.599410291582826"><ele>906.0</ele><time>2026-04-18T13:00:14Z</time></trkpt><trkpt lat="44.714466168820955" lon="6.599211979397247"><ele>907.5</ele><time>2026-04-18T13:00:15Z</time></trkpt><trkpt lat="44.71466188378014" lon="6.59901253091376"><ele>909.0</ele><time>2026-04-18T13:00:16Z</time></trkpt><trkpt lat="44.71486017497218" lon="6.598810456966412"><ele>908.5</ele><time>2026-04-18T13:00:17Z</time></trkpt><trkpt lat="44.7150521711627" lon="6.598614602523938"><ele>908.0</ele><time>2026-04-18T13:00:18Z</time></trkpt><trkpt lat="44.7152445770661" lon="6.598417500223135"><ele>910.0</ele><time>2026-04-18T13:00:19Z</time></trkpt><trkpt lat="44.7154396212651" lon="6.598217695064914"><ele>912.0</ele><time>2026-04-18T13:00:20Z</time></trkpt><trkpt lat="44.7156314767929" lon="6.5980209257744376"><ele>911.0</ele><time>2026-04-18T13:00:21Z</time></trkpt><trkpt lat="44.71581615180106" lon="6.597831348683116"><ele>910.0</ele><time>2026-04-18T13:00:22Z</time></trkpt><trkpt lat="44.71600589988498" lon="6.597636563437746"><ele>912.0</ele><time>2026-04-18T13:00:23Z</time></trkpt><trkpt lat="44.71619137892543" lon="6.597446160745471"><ele>914.0</ele><time>2026-04-18T13:00:24Z</time></trkpt><trkpt lat="44.71636528857724" lon="6.597239260777601"><ele>914.0</ele><time>2026-04-18T13:00:25Z</time></trkpt><trkpt lat="44.7165536152719" lon="6.597053333870456"><ele>914.0</ele><time>2026-04-18T13:00:26Z</time></trkpt><trkpt lat="44.7167411817676" lon="6.596886726507324"><ele>915.0</ele><time>2026-04-18T13:00:27Z</time></trkpt><trkpt lat="44.71691080603053" lon="6.596693325544137"><ele>916.0</ele><time>2026-04-18T13:00:28Z</time></trkpt><trkpt lat="44.7170823305589" lon="6.596525647224839"><ele>917.0</ele><time>2026-04-18T13:00:29Z</time></trkpt><trkpt lat="44.71725502754637" lon="6.596359624271852"><ele>917.0</ele><time>2026-04-18T13:00:30Z</time></trkpt><trkpt lat="44.7174290138373" lon="6.596204960810123"><ele>917.0</ele><time>2026-04-18T13:00:31Z</time></trkpt><trkpt lat="44.71759146876691" lon="6.596035285967264"><ele>917.0</ele><time>2026-04-18T13:00:32Z</time></trkpt><trkpt lat="44.71775110017215" lon="6.595861372234897"><ele>918.6666666666667</ele><time>2026-04-18T13:00:33Z</time></trkpt><trkpt lat="44.71790521868587" lon="6.59569215178208"><ele>920.3333333333333</ele><time>2026-04-18T13:00:34Z</time></trkpt><trkpt lat="44.7180611343753" lon="6.595524537971787"><ele>922.0</ele><time>2026-04-18T13:00:35Z</time></trkpt><trkpt lat="44.718219562439884" lon="6.595376685623606"><ele>922.0</ele><time>2026-04-18T13:00:36Z</time></trkpt><trkpt lat="44.71838895773484" lon="6.595222541335709"><ele>922.0</ele><time>2026-04-18T13:00:37Z</time></trkpt><trkpt lat="44.71854512830779" lon="6.595062660769321"><ele>922.0</ele><time>2026-04-18T13:00:38Z</time></trkpt><trkpt lat="44.71870938532452" lon="6.594894501659323"><ele>922.0</ele><time>2026-04-18T13:00:39Z</time></trkpt><trkpt lat="44.718877072659" lon="6.594723572433117"><ele>922.0</ele><time>2026-04-18T13:00:40Z</time></trkpt><trkpt lat="44.7190397998409" lon="6.594559121263002"><ele>922.0</ele><time>2026-04-18T13:00:41Z</time></trkpt><trkpt lat="44.71921019774248" lon="6.594387856131638"><ele>922.0</ele><time>2026-04-18T13:00:42.001Z</time></trkpt><trkpt lat="44.71938157889161" lon="6.594214793028641"><ele>922.0</ele><time>2026-04-18T13:00:43.001Z</time></trkpt><trkpt lat="44.71955855457432" lon="6.594034339242535"><ele>922.0</ele><time>2026-04-18T13:00:44.001Z</time></trkpt><trkpt lat="44.719733043232985" lon="6.593856582510305"><ele>923.0</ele><time>2026-04-18T13:00:45.001Z</time></trkpt><trkpt lat="44.71991437466111" lon="6.59367212714061"><ele>924.0</ele><time>2026-04-18T13:00:46.001Z</time></trkpt><trkpt lat="44.72009964928051" lon="6.5934836606124785"><ele>922.6666666666667</ele><time>2026-04-18T13:00:47.001Z</time></trkpt><trkpt lat="44.72027986344484" lon="6.59330034176809"><ele>921.3333333333334</ele><time>2026-04-18T13:00:48.001Z</time></trkpt><trkpt lat="44.72046282100035" lon="6.5931142322199445"><ele>920.0</ele><time>2026-04-18T13:00:49.001Z</time></trkpt><trkpt lat="44.7206448585031" lon="6.592929552740116"><ele>919.6666666666667</ele><time>2026-04-18T13:00:50.001Z</time></trkpt><trkpt lat="44.720830461316666" lon="6.5927418389191965"><ele>919.3333333333333</ele><time>2026-04-18T13:00:51.001Z</time></trkpt><trkpt lat="44.721006975279856" lon="6.59256331740819"><ele>919.0</ele><time>2026-04-18T13:00:52.001Z</time></trkpt><trkpt lat="44.72117953162073" lon="6.5923609073689455"><ele>918.3333333333333</ele><time>2026-04-18T13:00:53.001Z</time></trkpt><trkpt lat="44.721361498880064" lon="6.592193649553228"><ele>917.6666666666667</ele><time>2026-04-18T13:00:54.001Z</time></trkpt><trkpt lat="44.72154338071254" lon="6.592012804090092"><ele>917.0</ele><time>2026-04-18T13:00:55.001Z</time></trkpt><trkpt lat="44.721724733828694" lon="6.591845000249313"><ele>917.0</ele><time>2026-04-18T13:00:56.001Z</time></trkpt><trkpt lat="44.721896815542195" lon="6.59165940958051"><ele>917.0</ele><time>2026-04-18T13:00:57.001Z</time></trkpt><trkpt lat="44.722074842429905" lon="6.591478590050591"><ele>917.0</ele><time>2026-04-18T13:00:58.001Z</time></trkpt><trkpt lat="44.72224584443628" lon="6.591306026373071"><ele>917.6666666666667</ele><time>2026-04-18T13:00:59.001Z</time></trkpt><trkpt lat="44.722421766055746" lon="6.59113038697318"><ele>918.3333333333333</ele><time>2026-04-18T13:01:00.001Z</time></trkpt><trkpt lat="44.722599498215885" lon="6.590950831833623"><ele>919.0</ele><time>2026-04-18T13:01:01.001Z</time></trkpt><trkpt lat="44.722771802158725" lon="6.590761922626812"><ele>919.0</ele><time>2026-04-18T13:01:02.001Z</time></trkpt><trkpt lat="44.72294739198945" lon="6.59057614015517"><ele>919.0</ele><time>2026-04-18T13:01:03.001Z</time></trkpt><trkpt lat="44.72312636405907" lon="6.590398450502563"><ele>919.0</ele><time>2026-04-18T13:01:04.001Z</time></trkpt><trkpt lat="44.72330248958001" lon="6.590219319330271"><ele>918.3333333333333</ele><time>2026-04-18T13:01:05.001Z</time></trkpt><trkpt lat="44.72348346965794" lon="6.590040909056451"><ele>917.6666666666667</ele><time>2026-04-18T13:01:06.001Z</time></trkpt><trkpt lat="44.72366048983073" lon="6.5898611721748726"><ele>917.0</ele><time>2026-04-18T13:01:07.001Z</time></trkpt><trkpt lat="44.72383801892512" lon="6.589667773082591"><ele>917.5</ele><time>2026-04-18T13:01:08.001Z</time></trkpt><trkpt lat="44.72403274776325" lon="6.589472982802862"><ele>918.0</ele><time>2026-04-18T13:01:09.001Z</time></trkpt><trkpt lat="44.72421813649061" lon="6.589277086259124"><ele>918.0</ele><time>2026-04-18T13:01:10.001Z</time></trkpt><trkpt lat="44.72439544973033" lon="6.589095419966837"><ele>918.0</ele><time>2026-04-18T13:01:11.001Z</time></trkpt><trkpt lat="44.72458061601732" lon="6.5889275489742944"><ele>918.0</ele><time>2026-04-18T13:01:12.001Z</time></trkpt><trkpt lat="44.7247587465864" lon="6.588746309723916"><ele>918.6666666666667</ele><time>2026-04-18T13:01:13.001Z</time></trkpt><trkpt lat="44.72493355743733" lon="6.588558042663215"><ele>919.3333333333334</ele><time>2026-04-18T13:01:14.001Z</time></trkpt><trkpt lat="44.725109087692616" lon="6.588367223317777"><ele>920.0</ele><time>2026-04-18T13:01:15.001Z</time></trkpt><trkpt lat="44.72528178063394" lon="6.5881816802102025"><ele>920.5</ele><time>2026-04-18T13:01:16.001Z</time></trkpt><trkpt lat="44.72545986568846" lon="6.58798407617254"><ele>921.0</ele><time>2026-04-18T13:01:17.001Z</time></trkpt><trkpt lat="44.72565091555196" lon="6.587796575413888"><ele>921.0</ele><time>2026-04-18T13:01:18.001Z</time></trkpt><trkpt lat="44.72583511924594" lon="6.587604931069416"><ele>921.0</ele><time>2026-04-18T13:01:19.001Z</time></trkpt><trkpt lat="44.726017751000114" lon="6.587419496679479"><ele>920.3333333333333</ele><time>2026-04-18T13:01:20.001Z</time></trkpt><trkpt lat="44.72619298293247" lon="6.587234302245029"><ele>919.6666666666666</ele><time>2026-04-18T13:01:21.001Z</time></trkpt><trkpt lat="44.72635886270759" lon="6.587061259782218"><ele>919.0</ele><time>2026-04-18T13:01:22.001Z</time></trkpt><trkpt lat="44.72653109911524" lon="6.58690106053164"><ele>919.0</ele><time>2026-04-18T13:01:23.001Z</time></trkpt><trkpt lat="44.72671656114535" lon="6.586715044346117"><ele>919.0</ele><time>2026-04-18T13:01:24.001Z</time></trkpt><trkpt lat="44.72689665935189" lon="6.586553742818656"><ele>919.0</ele><time>2026-04-18T13:01:25.001Z</time></trkpt><trkpt lat="44.7270903192935" lon="6.586394552466086"><ele>919.5</ele><time>2026-04-18T13:01:26.001Z</time></trkpt><trkpt lat="44.72728234605578" lon="6.586263940269306"><ele>920.0</ele><time>2026-04-18T13:01:27.001Z</time></trkpt><trkpt lat="44.72750364991039" lon="6.586134700455693"><ele>920.0</ele><time>2026-04-18T13:01:28.001Z</time></trkpt><trkpt lat="44.72771261028609" lon="6.586038739925925"><ele>920.0</ele><time>2026-04-18T13:01:29.001Z</time></trkpt><trkpt lat="44.7279128141454" lon="6.585958029887112"><ele>920.0</ele><time>2026-04-18T13:01:30.001Z</time></trkpt><trkpt lat="44.72812290152065" lon="6.585875684057457"><ele>922.5</ele><time>2026-04-18T13:01:31.001Z</time></trkpt><trkpt lat="44.72834122123824" lon="6.585799069709091"><ele>925.0</ele><time>2026-04-18T13:01:32.001Z</time></trkpt><trkpt lat="44.72856893506707" lon="6.585721203833731"><ele>930.5</ele><time>2026-04-18T13:01:33.001Z</time></trkpt><trkpt lat="44.72879861258742" lon="6.585639905549644"><ele>936.0</ele><time>2026-04-18T13:01:34.001Z</time></trkpt><trkpt lat="44.729038232861285" lon="6.585548512838905"><ele>936.0</ele><time>2026-04-18T13:01:35.001Z</time></trkpt><trkpt lat="44.72930002467004" lon="6.585457568057107"><ele>936.0</ele><time>2026-04-18T13:01:36.001Z</time></trkpt><trkpt lat="44.729580084508335" lon="6.585370190243897"><ele>931.0</ele><time>2026-04-18T13:01:37.001Z</time></trkpt><trkpt lat="44.72987490057656" lon="6.585299760540424"><ele>926.0</ele><time>2026-04-18T13:01:38.002Z</time></trkpt><trkpt lat="44.73014975435847" lon="6.585208881684534"><ele>926.5</ele><time>2026-04-18T13:01:39.002Z</time></trkpt><trkpt lat="44.73043793307409" lon="6.585136097075294"><ele>927.0</ele><time>2026-04-18T13:01:40.002Z</time></trkpt><trkpt lat="44.73074529363198" lon="6.585066651751084"><ele>927.0</ele><time>2026-04-18T13:01:41.002Z</time></trkpt><trkpt lat="44.73102450758565" lon="6.585000696930352"><ele>927.0</ele><time>2026-04-18T13:01:42.002Z</time></trkpt><trkpt lat="44.731309674800855" lon="6.584926390622998"><ele>931.0</ele><time>2026-04-18T13:01:43.002Z</time></trkpt><trkpt lat="44.731564722775865" lon="6.584817502747959"><ele>935.0</ele><time>2026-04-18T13:01:44.002Z</time></trkpt><trkpt lat="44.73180600221119" lon="6.584708467222961"><ele>941.5</ele><time>2026-04-18T13:01:45.002Z</time></trkpt><trkpt lat="44.73206571272913" lon="6.584633280049732"><ele>948.0</ele><time>2026-04-18T13:01:46.002Z</time></trkpt><trkpt lat="44.732318652594785" lon="6.584559404625671"><ele>937.5</ele><time>2026-04-18T13:01:47.002Z</time></trkpt><trkpt lat="44.732576347052294" lon="6.584473443783338"><ele>927.0</ele><time>2026-04-18T13:01:48.002Z</time></trkpt><trkpt lat="44.73283562345207" lon="6.584393212640554"><ele>926.5</ele><time>2026-04-18T13:01:49.002Z</time></trkpt><trkpt lat="44.73310667339092" lon="6.58429697159193"><ele>926.0</ele><time>2026-04-18T13:01:50.002Z</time></trkpt><trkpt lat="44.73335975717885" lon="6.584239575773977"><ele>927.0</ele><time>2026-04-18T13:01:51.002Z</time></trkpt><trkpt lat="44.7336154052072" lon="6.584207846720703"><ele>928.0</ele><time>2026-04-18T13:01:52.002Z</time></trkpt><trkpt lat="44.73389088612022" lon="6.584165829774119"><ele>928.0</ele><time>2026-04-18T13:01:53.002Z</time></trkpt><trkpt lat="44.73415195771479" lon="6.58413278556069"><ele>928.0</ele><time>2026-04-18T13:01:54Z</time></trkpt><trkpt lat="44.73442048970968" lon="6.584104716563252"><ele>926.5</ele><time>2026-04-18T13:01:55Z</time></trkpt><trkpt lat="44.734674668895956" lon="6.5840828741422985"><ele>925.0</ele><time>2026-04-18T13:01:56Z</time></trkpt><trkpt lat="44.734926577414704" lon="6.584050634893134"><ele>925.0</ele><time>2026-04-18T13:01:57Z</time></trkpt><trkpt lat="44.73518275288292" lon="6.584029920938348"><ele>925.0</ele><time>2026-04-18T13:01:58Z</time></trkpt><trkpt lat="44.7354211625369" lon="6.584006760518984"><ele>926.0</ele><time>2026-04-18T13:01:59Z</time></trkpt><trkpt lat="44.735664942978666" lon="6.58397653915453"><ele>927.0</ele><time>2026-04-18T13:02:00Z</time></trkpt><trkpt lat="44.735904848501846" lon="6.583946516157168"><ele>928.0</ele><time>2026-04-18T13:02:01Z</time></trkpt><trkpt lat="44.73613707074306" lon="6.583920512866684"><ele>929.0</ele><time>2026-04-18T13:02:02Z</time></trkpt><trkpt lat="44.73637199631548" lon="6.583893635842873"><ele>929.0</ele><time>2026-04-18T13:02:03Z</time></trkpt><trkpt lat="44.73659011393035" lon="6.583865163049125"><ele>929.0</ele><time>2026-04-18T13:02:04Z</time></trkpt><trkpt lat="44.73682109858828" lon="6.58382908538287"><ele>930.6666666666667</ele><time>2026-04-18T13:02:05Z</time></trkpt><trkpt lat="44.73703266163764" lon="6.583791169662488"><ele>932.3333333333333</ele><time>2026-04-18T13:02:06Z</time></trkpt><trkpt lat="44.73725197724997" lon="6.583771724121922"><ele>934.0</ele><time>2026-04-18T13:02:07Z</time></trkpt><trkpt lat="44.73747446199691" lon="6.5837284538638725"><ele>934.0</ele><time>2026-04-18T13:02:08Z</time></trkpt><trkpt lat="44.73770784778792" lon="6.58372200371526"><ele>934.0</ele><time>2026-04-18T13:02:09Z</time></trkpt><trkpt lat="44.73791227009019" lon="6.5836993942243645"><ele>934.0</ele><time>2026-04-18T13:02:10Z</time></trkpt><trkpt lat="44.73813208565371" lon="6.58367508220678"><ele>932.3333333333333</ele><time>2026-04-18T13:02:11Z</time></trkpt><trkpt lat="44.738342127417766" lon="6.583651902498099"><ele>930.6666666666667</ele><time>2026-04-18T13:02:12Z</time></trkpt><trkpt lat="44.73856092560548" lon="6.583628634998877"><ele>929.0</ele><time>2026-04-18T13:02:13Z</time></trkpt><trkpt lat="44.738777186115314" lon="6.583605023275254"><ele>929.0</ele><time>2026-04-18T13:02:14Z</time></trkpt><trkpt lat="44.73898599901461" lon="6.583580864009043"><ele>929.0</ele><time>2026-04-18T13:02:15Z</time></trkpt><trkpt lat="44.739197242524334" lon="6.58354281242373"><ele>929.0</ele><time>2026-04-18T13:02:16Z</time></trkpt><trkpt lat="44.73942223979213" lon="6.583508133121312"><ele>932.3333333333334</ele><time>2026-04-18T13:02:17Z</time></trkpt><trkpt lat="44.73963752707589" lon="6.583481526798871"><ele>935.6666666666667</ele><time>2026-04-18T13:02:18Z</time></trkpt><trkpt lat="44.73985031278597" lon="6.583408269693964"><ele>939.0</ele><time>2026-04-18T13:02:19Z</time></trkpt><trkpt lat="44.740063582115" lon="6.583352800053941"><ele>943.3333333333333</ele><time>2026-04-18T13:02:20Z</time></trkpt><trkpt lat="44.74027770197684" lon="6.583310737734876"><ele>947.6666666666666</ele><time>2026-04-18T13:02:21Z</time></trkpt><trkpt lat="44.74048294046478" lon="6.583260932056807"><ele>952.0</ele><time>2026-04-18T13:02:22Z</time></trkpt><trkpt lat="44.7406877359819" lon="6.583162651659251"><ele>952.0</ele><time>2026-04-18T13:02:23Z</time></trkpt><trkpt lat="44.74088848825992" lon="6.583093982454754"><ele>952.0</ele><time>2026-04-18T13:02:24Z</time></trkpt><trkpt lat="44.741091155632" lon="6.583003882091059"><ele>952.0</ele><time>2026-04-18T13:02:25Z</time></trkpt><trkpt lat="44.74128746493969" lon="6.582932058228021"><ele>946.3333333333333</ele><time>2026-04-18T13:02:26.001Z</time></trkpt><trkpt lat="44.74147809420986" lon="6.5828640756335695"><ele>940.6666666666667</ele><time>2026-04-18T13:02:27.001Z</time></trkpt><trkpt lat="44.74167610657121" lon="6.582817319532203"><ele>935.0</ele><time>2026-04-18T13:02:28.001Z</time></trkpt><trkpt lat="44.74185955100166" lon="6.582804976542228"><ele>939.0</ele><time>2026-04-18T13:02:29.001Z</time></trkpt><trkpt lat="44.7420254049315" lon="6.582735630215671"><ele>943.0</ele><time>2026-04-18T13:02:30.001Z</time></trkpt><trkpt lat="44.74220550938253" lon="6.582679438455546"><ele>947.0</ele><time>2026-04-18T13:02:31.001Z</time></trkpt><trkpt lat="44.742369535130884" lon="6.58262220461479"><ele>947.0</ele><time>2026-04-18T13:02:32.001Z</time></trkpt><trkpt lat="44.74251525168788" lon="6.582588988601234"><ele>947.0</ele><time>2026-04-18T13:02:33.001Z</time></trkpt><trkpt lat="44.74265684540191" lon="6.582559576886871"><ele>947.0</ele><time>2026-04-18T13:02:34.001Z</time></trkpt><trkpt lat="44.74277031878585" lon="6.582540075283281"><ele>947.0</ele><time>2026-04-18T13:02:35.001Z</time></trkpt><trkpt lat="44.742888817179725" lon="6.582521780962093"><ele>948.4000000000001</ele><time>2026-04-18T13:02:36.001Z</time></trkpt><trkpt lat="44.74300059887059" lon="6.582504158997454"><ele>949.8000000000001</ele><time>2026-04-18T13:02:37.001Z</time></trkpt><trkpt lat="44.743113746855066" lon="6.582526369058719"><ele>951.2</ele><time>2026-04-18T13:02:38.001Z</time></trkpt><trkpt lat="44.74321610588847" lon="6.582509380934842"><ele>952.6</ele><time>2026-04-18T13:02:39.001Z</time></trkpt><trkpt lat="44.74330602618243" lon="6.582491878797433"><ele>954.0</ele><time>2026-04-18T13:02:40.001Z</time></trkpt><trkpt lat="44.743402319794775" lon="6.582471742921004"><ele>954.0</ele><time>2026-04-18T13:02:41.001Z</time></trkpt><trkpt lat="44.74350006110123" lon="6.582448384277954"><ele>954.0</ele><time>2026-04-18T13:02:42.001Z</time></trkpt><trkpt lat="44.743607098758034" lon="6.582423616559583"><ele>954.0</ele><time>2026-04-18T13:02:43.001Z</time></trkpt><trkpt lat="44.74372221847754" lon="6.582418404855485"><ele>954.0</ele><time>2026-04-18T13:02:44.001Z</time></trkpt><trkpt lat="44.743852665066356" lon="6.582406805636572"><ele>954.5</ele><time>2026-04-18T13:02:45.001Z</time></trkpt><trkpt lat="44.74397938222483" lon="6.582385099977937"><ele>955.0</ele><time>2026-04-18T13:02:46.001Z</time></trkpt><trkpt lat="44.74410532980426" lon="6.582358259203048"><ele>955.5</ele><time>2026-04-18T13:02:47.001Z</time></trkpt><trkpt lat="44.74423548749175" lon="6.5823226379415285"><ele>956.0</ele><time>2026-04-18T13:02:48.001Z</time></trkpt><trkpt lat="44.74435128872195" lon="6.582278805305635"><ele>954.5</ele><time>2026-04-18T13:02:49.001Z</time></trkpt><trkpt lat="44.74444599560173" lon="6.582169062767261"><ele>953.0</ele><time>2026-04-18T13:02:50.001Z</time></trkpt><trkpt lat="44.744537025684416" lon="6.582089244320415"><ele>951.5</ele><time>2026-04-18T13:02:51.001Z</time></trkpt><trkpt lat="44.74462622526173" lon="6.581989045817815"><ele>950.0</ele><time>2026-04-18T13:02:52.001Z</time></trkpt><trkpt lat="44.74473477093981" lon="6.581955366144569"><ele>950.0</ele><time>2026-04-18T13:02:53.001Z</time></trkpt><trkpt lat="44.744834797151896" lon="6.581866949542357"><ele>950.0</ele><time>2026-04-18T13:02:54.001Z</time></trkpt><trkpt lat="44.744936731059475" lon="6.581787277121591"><ele>950.0</ele><time>2026-04-18T13:02:55.001Z</time></trkpt><trkpt lat="44.74503970431069" lon="6.581709708595303"><ele>950.0</ele><time>2026-04-18T13:02:56.001Z</time></trkpt><trkpt lat="44.74514330008679" lon="6.581638932380143"><ele>949.4</ele><time>2026-04-18T13:02:57.001Z</time></trkpt><trkpt lat="44.74525315320246" lon="6.581575199893869"><ele>948.8</ele><time>2026-04-18T13:02:58.001Z</time></trkpt><trkpt lat="44.74535814939197" lon="6.581506236029268"><ele>948.2</ele><time>2026-04-18T13:02:59.001Z</time></trkpt><trkpt lat="44.74545140792838" lon="6.581444859489314"><ele>947.6</ele><time>2026-04-18T13:03:00.001Z</time></trkpt><trkpt lat="44.7455531709248" lon="6.581382671256033"><ele>947.0</ele><time>2026-04-18T13:03:01.001Z</time></trkpt><trkpt lat="44.74565964483368" lon="6.581319855975251"><ele>947.0</ele><time>2026-04-18T13:03:02.001Z</time></trkpt><trkpt lat="44.74574667492892" lon="6.58124224904991"><ele>947.0</ele><time>2026-04-18T13:03:03.001Z</time></trkpt><trkpt lat="44.74583815701392" lon="6.5811723837424445"><ele>947.0</ele><time>2026-04-18T13:03:04.001Z</time></trkpt><trkpt lat="44.74592120918497" lon="6.58109344633459"><ele>947.0</ele><time>2026-04-18T13:03:05.001Z</time></trkpt><trkpt lat="44.745998064565796" lon="6.580993922246213"><ele>947.0</ele><time>2026-04-18T13:03:06.001Z</time></trkpt><trkpt lat="44.74607641707248" lon="6.580915586304728"><ele>946.6</ele><time>2026-04-18T13:03:07.001Z</time></trkpt><trkpt lat="44.74616263290159" lon="6.580859282513682"><ele>946.2</ele><time>2026-04-18T13:03:08.001Z</time></trkpt><trkpt lat="44.74626037712024" lon="6.58078841570868"><ele>945.8</ele><time>2026-04-18T13:03:09.001Z</time></trkpt><trkpt lat="44.74633437641327" lon="6.580712363387792"><ele>945.4</ele><time>2026-04-18T13:03:10.001Z</time></trkpt><trkpt lat="44.74643831749334" lon="6.580674869571746"><ele>945.0</ele><time>2026-04-18T13:03:11.001Z</time></trkpt><trkpt lat="44.74652306897479" lon="6.580621158839822"><ele>945.0</ele><time>2026-04-18T13:03:12.001Z</time></trkpt><trkpt lat="44.74660680168991" lon="6.580551544885471"><ele>945.0</ele><time>2026-04-18T13:03:13.001Z</time></trkpt><trkpt lat="44.74672170875478" lon="6.580524263170575"><ele>945.0</ele><time>2026-04-18T13:03:14.001Z</time></trkpt><trkpt lat="44.7468176420548" lon="6.580476877827483"><ele>945.0</ele><time>2026-04-18T13:03:15.001Z</time></trkpt><trkpt lat="44.746916902536654" lon="6.580431092157698"><ele>945.0</ele><time>2026-04-18T13:03:16.001Z</time></trkpt><trkpt lat="44.74702067945504" lon="6.580391876134569"><ele>944.8</ele><time>2026-04-18T13:03:17.001Z</time></trkpt><trkpt lat="44.74711450520923" lon="6.580327566345962"><ele>944.6</ele><time>2026-04-18T13:03:18.001Z</time></trkpt><trkpt lat="44.74719868653873" lon="6.580297598690668"><ele>944.4000000000001</ele><time>2026-04-18T13:03:19.001Z</time></trkpt><trkpt lat="44.74727665190442" lon="6.580240297716258"><ele>944.2</ele><time>2026-04-18T13:03:20.001Z</time></trkpt><trkpt lat="44.747370476242175" lon="6.580193825738175"><ele>944.0</ele><time>2026-04-18T13:03:21.001Z</time></trkpt><trkpt lat="44.74747723813151" lon="6.580197086182646"><ele>944.0000000000001</ele><time>2026-04-18T13:03:22.001Z</time></trkpt><trkpt lat="44.747545625102056" lon="6.580136733154335"><ele>944.0</ele><time>2026-04-18T13:03:23.001Z</time></trkpt><trkpt lat="44.74762025592891" lon="6.580076762116934"><ele>944.0</ele><time>2026-04-18T13:03:24.001Z</time></trkpt><trkpt lat="44.74769659123379" lon="6.580010335118783"><ele>944.0</ele><time>2026-04-18T13:03:25.001Z</time></trkpt><trkpt lat="44.7477767844113" lon="6.579945337819772"><ele>944.0000000000001</ele><time>2026-04-18T13:03:26.001Z</time></trkpt><trkpt lat="44.747820465326406" lon="6.579843106392042"><ele>944.0</ele><time>2026-04-18T13:03:27.002Z</time></trkpt><trkpt lat="44.74789979392517" lon="6.579778255862688"><ele>944.6666666666667</ele><time>2026-04-18T13:03:28.002Z</time></trkpt><trkpt lat="44.747969986892805" lon="6.579723342881058"><ele>945.3333333333334</ele><time>2026-04-18T13:03:29.002Z</time></trkpt><trkpt lat="44.74804564185933" lon="6.579672211455492"><ele>946.0</ele><time>2026-04-18T13:03:30.002Z</time></trkpt><trkpt lat="44.74812805906754" lon="6.579627319462876"><ele>946.6666666666667</ele><time>2026-04-18T13:03:31.002Z</time></trkpt><trkpt lat="44.74821171308346" lon="6.5796023484466994"><ele>947.3333333333334</ele><time>2026-04-18T13:03:32.002Z</time></trkpt><trkpt lat="44.748296870761074" lon="6.579624159974043"><ele>948.0</ele><time>2026-04-18T13:03:33.002Z</time></trkpt><trkpt lat="44.74838024726458" lon="6.57960164593604"><ele>948.0</ele><time>2026-04-18T13:03:34.002Z</time></trkpt><trkpt lat="44.7484537706761" lon="6.57957578744786"><ele>948.0</ele><time>2026-04-18T13:03:35.002Z</time></trkpt><trkpt lat="44.74852543048075" lon="6.579510404929309"><ele>948.0</ele><time>2026-04-18T13:03:36.002Z</time></trkpt><trkpt lat="44.7486036592282" lon="6.579457224790187"><ele>948.0</ele><time>2026-04-18T13:03:37.002Z</time></trkpt><trkpt lat="44.748676811361634" lon="6.579412944618149"><ele>948.0</ele><time>2026-04-18T13:03:38.002Z</time></trkpt><trkpt lat="44.74876865500373" lon="6.579367887676526"><ele>948.0</ele><time>2026-04-18T13:03:39.002Z</time></trkpt><trkpt lat="44.74884687707004" lon="6.579299707077981"><ele>947.4</ele><time>2026-04-18T13:03:40.002Z</time></trkpt><trkpt lat="44.74893513493368" lon="6.579270385236556"><ele>946.8</ele><time>2026-04-18T13:03:41.002Z</time></trkpt><trkpt lat="44.74902085784631" lon="6.579216936020599"><ele>946.2</ele><time>2026-04-18T13:03:42.002Z</time></trkpt><trkpt lat="44.74910134496146" lon="6.579145536407881"><ele>945.6</ele><time>2026-04-18T13:03:43.002Z</time></trkpt><trkpt lat="44.749205851087375" lon="6.5790814819771315"><ele>945.0</ele><time>2026-04-18T13:03:44.002Z</time></trkpt><trkpt lat="44.749315898282966" lon="6.579072152645047"><ele>945.4</ele><time>2026-04-18T13:03:45.002Z</time></trkpt><trkpt lat="44.749399926856384" lon="6.579021635777779"><ele>945.8</ele><time>2026-04-18T13:03:46.002Z</time></trkpt><trkpt lat="44.74950136964169" lon="6.578961572289786"><ele>946.2</ele><time>2026-04-18T13:03:47.002Z</time></trkpt><trkpt lat="44.74959688285462" lon="6.578891212860918"><ele>946.6</ele><time>2026-04-18T13:03:48.002Z</time></trkpt><trkpt lat="44.74967684362614" lon="6.578824675061267"><ele>947.0</ele><time>2026-04-18T13:03:49.002Z</time></trkpt><trkpt lat="44.74975959468391" lon="6.578773977928037"><ele>947.0000000000001</ele><time>2026-04-18T13:03:50.002Z</time></trkpt><trkpt lat="44.749843985644915" lon="6.578725288241317"><ele>947.0</ele><time>2026-04-18T13:03:51.002Z</time></trkpt><trkpt lat="44.74992599053711" lon="6.578675186979177"><ele>947.0</ele><time>2026-04-18T13:03:52.002Z</time></trkpt><trkpt lat="44.75000237536743" lon="6.578624309205726"><ele>947.0</ele><time>2026-04-18T13:03:53.002Z</time></trkpt><trkpt lat="44.75008380602681" lon="6.578583961241139"><ele>947.0000000000001</ele><time>2026-04-18T13:03:54.002Z</time></trkpt><trkpt lat="44.75014982518863" lon="6.578542129447185"><ele>947.0</ele><time>2026-04-18T13:03:55.002Z</time></trkpt><trkpt lat="44.750218718873825" lon="6.578479414613207"><ele>946.8</ele><time>2026-04-18T13:03:56.002Z</time></trkpt><trkpt lat="44.75029043198123" lon="6.578410472070898"><ele>946.6</ele><time>2026-04-18T13:03:57.002Z</time></trkpt><trkpt lat="44.75037040363942" lon="6.578354713448247"><ele>946.3999999999999</ele><time>2026-04-18T13:03:58.002Z</time></trkpt><trkpt lat="44.75046589934226" lon="6.578297905959388"><ele>946.1999999999999</ele><time>2026-04-18T13:03:59.002Z</time></trkpt><trkpt lat="44.75057378795619" lon="6.578232683552406"><ele>946.0</ele><time>2026-04-18T13:04:00Z</time></trkpt><trkpt lat="44.7506789468572" lon="6.578166697044063"><ele>946.0</ele><time>2026-04-18T13:04:01Z</time></trkpt><trkpt lat="44.75078052826007" lon="6.578070426759443"><ele>946.0</ele><time>2026-04-18T13:04:02Z</time></trkpt><trkpt lat="44.75089341282662" lon="6.57801108967027"><ele>946.0</ele><time>2026-04-18T13:04:03Z</time></trkpt><trkpt lat="44.75103302644432" lon="6.5779148220585055"><ele>946.0</ele><time>2026-04-18T13:04:04Z</time></trkpt><trkpt lat="44.751159632870916" lon="6.577844844414597"><ele>944.0</ele><time>2026-04-18T13:04:05Z</time></trkpt><trkpt lat="44.75126157961618" lon="6.577756516838149"><ele>942.0</ele><time>2026-04-18T13:04:06Z</time></trkpt><trkpt lat="44.75138137941136" lon="6.577689312466789"><ele>940.0</ele><time>2026-04-18T13:04:07Z</time></trkpt><trkpt lat="44.751503163705415" lon="6.577607109696183"><ele>938.0</ele><time>2026-04-18T13:04:08Z</time></trkpt><trkpt lat="44.75162958474516" lon="6.5775216872963185"><ele>938.0</ele><time>2026-04-18T13:04:09Z</time></trkpt><trkpt lat="44.751773523235364" lon="6.577427100495515"><ele>938.0</ele><time>2026-04-18T13:04:10Z</time></trkpt><trkpt lat="44.751917840451554" lon="6.577332703260174"><ele>938.0</ele><time>2026-04-18T13:04:11Z</time></trkpt><trkpt lat="44.752056040288004" lon="6.577242307278606"><ele>937.6666666666667</ele><time>2026-04-18T13:04:12Z</time></trkpt><trkpt lat="44.752205228980586" lon="6.577144649584591"><ele>937.3333333333333</ele><time>2026-04-18T13:04:13Z</time></trkpt><trkpt lat="44.75236943762912" lon="6.5770371540180195"><ele>937.0</ele><time>2026-04-18T13:04:14Z</time></trkpt><trkpt lat="44.75255323647053" lon="6.57691683410501"><ele>937.5</ele><time>2026-04-18T13:04:15Z</time></trkpt><trkpt lat="44.75277047282592" lon="6.576774625227876"><ele>938.0</ele><time>2026-04-18T13:04:16Z</time></trkpt><trkpt lat="44.75298148571067" lon="6.576636753570047"><ele>938.0</ele><time>2026-04-18T13:04:17Z</time></trkpt><trkpt lat="44.75319603823613" lon="6.576496696712193"><ele>938.0</ele><time>2026-04-18T13:04:18Z</time></trkpt><trkpt lat="44.753417576821214" lon="6.5763517329033405"><ele>938.5</ele><time>2026-04-18T13:04:19Z</time></trkpt><trkpt lat="44.753634466953905" lon="6.576209037141755"><ele>939.0</ele><time>2026-04-18T13:04:20Z</time></trkpt><trkpt lat="44.75384864279961" lon="6.576067841411003"><ele>939.0</ele><time>2026-04-18T13:04:21Z</time></trkpt><trkpt lat="44.754062869689335" lon="6.575902074533455"><ele>939.0</ele><time>2026-04-18T13:04:22Z</time></trkpt><trkpt lat="44.754292684733" lon="6.575766095637162"><ele>939.0</ele><time>2026-04-18T13:04:23Z</time></trkpt><trkpt lat="44.75452263614075" lon="6.575659254077285"><ele>939.0</ele><time>2026-04-18T13:04:24Z</time></trkpt><trkpt lat="44.75474959037772" lon="6.575532585937625"><ele>939.0</ele><time>2026-04-18T13:04:25Z</time></trkpt><trkpt lat="44.754960942097995" lon="6.575388509426728"><ele>939.0</ele><time>2026-04-18T13:04:26Z</time></trkpt><trkpt lat="44.75517176498284" lon="6.575243921752563"><ele>940.0</ele><time>2026-04-18T13:04:27Z</time></trkpt><trkpt lat="44.75538659384187" lon="6.575103860784032"><ele>941.0</ele><time>2026-04-18T13:04:28Z</time></trkpt><trkpt lat="44.75559525982988" lon="6.574948481103197"><ele>941.0</ele><time>2026-04-18T13:04:29Z</time></trkpt><trkpt lat="44.75580867635853" lon="6.57480218170947"><ele>941.0</ele><time>2026-04-18T13:04:30Z</time></trkpt><trkpt lat="44.75602259379047" lon="6.57465446736807"><ele>941.0</ele><time>2026-04-18T13:04:31Z</time></trkpt><trkpt lat="44.756233779427106" lon="6.574516794920805"><ele>941.0</ele><time>2026-04-18T13:04:32Z</time></trkpt><trkpt lat="44.75644648378047" lon="6.574379186581705"><ele>941.0</ele><time>2026-04-18T13:04:33Z</time></trkpt><trkpt lat="44.75665989063531" lon="6.574232163305347"><ele>941.0</ele><time>2026-04-18T13:04:34Z</time></trkpt><trkpt lat="44.756876621826606" lon="6.574100138764667"><ele>943.0</ele><time>2026-04-18T13:04:35Z</time></trkpt><trkpt lat="44.757094042385354" lon="6.57397819019055"><ele>945.0</ele><time>2026-04-18T13:04:36Z</time></trkpt><trkpt lat="44.75730752985332" lon="6.573841823182414"><ele>945.0</ele><time>2026-04-18T13:04:37Z</time></trkpt><trkpt lat="44.757526567650785" lon="6.573701870779479"><ele>945.0</ele><time>2026-04-18T13:04:38Z</time></trkpt><trkpt lat="44.7577388791588" lon="6.573564797699291"><ele>944.5</ele><time>2026-04-18T13:04:39Z</time></trkpt><trkpt lat="44.7579485611141" lon="6.57342942223911"><ele>944.0</ele><time>2026-04-18T13:04:40Z</time></trkpt><trkpt lat="44.75815743647682" lon="6.573277914820966"><ele>944.0</ele><time>2026-04-18T13:04:41Z</time></trkpt><trkpt lat="44.758375021311224" lon="6.573154792911604"><ele>944.0</ele><time>2026-04-18T13:04:42Z</time></trkpt><trkpt lat="44.758596499692096" lon="6.572989026326608"><ele>946.0</ele><time>2026-04-18T13:04:43Z</time></trkpt><trkpt lat="44.758811955769914" lon="6.572852653052037"><ele>948.0</ele><time>2026-04-18T13:04:44.001Z</time></trkpt><trkpt lat="44.75904248940926" lon="6.572712870039835"><ele>948.0</ele><time>2026-04-18T13:04:45.001Z</time></trkpt><trkpt lat="44.75926051983486" lon="6.572576786587688"><ele>948.0</ele><time>2026-04-18T13:04:46.001Z</time></trkpt><trkpt lat="44.75947530211461" lon="6.572444176626347"><ele>949.0</ele><time>2026-04-18T13:04:47.001Z</time></trkpt><trkpt lat="44.759675954618125" lon="6.57226961825202"><ele>950.0</ele><time>2026-04-18T13:04:48.001Z</time></trkpt><trkpt lat="44.75987672651524" lon="6.572104259912487"><ele>948.5</ele><time>2026-04-18T13:04:49.001Z</time></trkpt><trkpt lat="44.760076088527335" lon="6.571911958556195"><ele>947.0</ele><time>2026-04-18T13:04:50.001Z</time></trkpt><trkpt lat="44.760280465216574" lon="6.571706391733165"><ele>947.0</ele><time>2026-04-18T13:04:51.001Z</time></trkpt><trkpt lat="44.76048794886367" lon="6.5714966394807774"><ele>947.0</ele><time>2026-04-18T13:04:52.001Z</time></trkpt><trkpt lat="44.76067766347883" lon="6.5712974978476595"><ele>946.5</ele><time>2026-04-18T13:04:53.001Z</time></trkpt><trkpt lat="44.76087577336576" lon="6.571069521924808"><ele>946.0</ele><time>2026-04-18T13:04:54.001Z</time></trkpt><trkpt lat="44.76108592700163" lon="6.570884221117117"><ele>945.5</ele><time>2026-04-18T13:04:55.001Z</time></trkpt><trkpt lat="44.76129539042268" lon="6.570675916922108"><ele>945.0</ele><time>2026-04-18T13:04:56.001Z</time></trkpt><trkpt lat="44.76149369877307" lon="6.5704787064257"><ele>945.0</ele><time>2026-04-18T13:04:57.001Z</time></trkpt><trkpt lat="44.76169111160752" lon="6.570276153566042"><ele>945.0</ele><time>2026-04-18T13:04:58.001Z</time></trkpt><trkpt lat="44.76190258089103" lon="6.570058594541942"><ele>945.0</ele><time>2026-04-18T13:04:59.001Z</time></trkpt><trkpt lat="44.762119319772076" lon="6.569833726250247"><ele>945.0</ele><time>2026-04-18T13:05:00.001Z</time></trkpt><trkpt lat="44.76233681258682" lon="6.569608064352283"><ele>946.0</ele><time>2026-04-18T13:05:01.001Z</time></trkpt><trkpt lat="44.762555832327315" lon="6.5693808521710935"><ele>947.0</ele><time>2026-04-18T13:05:02.001Z</time></trkpt><trkpt lat="44.762767713018626" lon="6.569159540423765"><ele>947.0</ele><time>2026-04-18T13:05:03.001Z</time></trkpt><trkpt lat="44.76297058914858" lon="6.568920539890935"><ele>947.0</ele><time>2026-04-18T13:05:04.001Z</time></trkpt><trkpt lat="44.763181046402345" lon="6.568697971594926"><ele>947.5</ele><time>2026-04-18T13:05:05.001Z</time></trkpt><trkpt lat="44.76338434798349" lon="6.568476575551214"><ele>948.0</ele><time>2026-04-18T13:05:06.001Z</time></trkpt><trkpt lat="44.76360579841288" lon="6.568260044069653"><ele>948.0</ele><time>2026-04-18T13:05:07.001Z</time></trkpt><trkpt lat="44.76381820021221" lon="6.568045669233487"><ele>948.0</ele><time>2026-04-18T13:05:08.001Z</time></trkpt><trkpt lat="44.76402124778027" lon="6.56782989961233"><ele>948.5</ele><time>2026-04-18T13:05:09.001Z</time></trkpt><trkpt lat="44.76422719269345" lon="6.567618029856516"><ele>949.0</ele><time>2026-04-18T13:05:10.001Z</time></trkpt><trkpt lat="44.764432490949424" lon="6.567411701491627"><ele>949.0</ele><time>2026-04-18T13:05:11.001Z</time></trkpt><trkpt lat="44.76463461043361" lon="6.567192925119239"><ele>949.0</ele><time>2026-04-18T13:05:12.001Z</time></trkpt><trkpt lat="44.76483062049921" lon="6.566957053939473"><ele>949.5</ele><time>2026-04-18T13:05:13.001Z</time></trkpt><trkpt lat="44.76503696771303" lon="6.566727794090554"><ele>950.0</ele><time>2026-04-18T13:05:14.001Z</time></trkpt><trkpt lat="44.765239976755105" lon="6.566506646040448"><ele>950.0</ele><time>2026-04-18T13:05:15.001Z</time></trkpt><trkpt lat="44.76544272125871" lon="6.566294048592155"><ele>950.0</ele><time>2026-04-18T13:05:16.001Z</time></trkpt><trkpt lat="44.7656394028975" lon="6.566076287983419"><ele>951.5</ele><time>2026-04-18T13:05:17.001Z</time></trkpt><trkpt lat="44.76584450029174" lon="6.565877401331107"><ele>953.0</ele><time>2026-04-18T13:05:18.001Z</time></trkpt><trkpt lat="44.76604613609502" lon="6.5656596967964305"><ele>953.0</ele><time>2026-04-18T13:05:19.001Z</time></trkpt><trkpt lat="44.76625228475834" lon="6.565481377362762"><ele>953.0</ele><time>2026-04-18T13:05:20.001Z</time></trkpt><trkpt lat="44.766443297005665" lon="6.565305126608267"><ele>953.5</ele><time>2026-04-18T13:05:21.001Z</time></trkpt><trkpt lat="44.76662669013195" lon="6.565091018219921"><ele>954.0</ele><time>2026-04-18T13:05:22.001Z</time></trkpt><trkpt lat="44.76682234540647" lon="6.564869711256702"><ele>954.0</ele><time>2026-04-18T13:05:23.001Z</time></trkpt><trkpt lat="44.767020039424104" lon="6.564654848691581"><ele>954.0</ele><time>2026-04-18T13:05:24.001Z</time></trkpt><trkpt lat="44.767213098952496" lon="6.564461482807614"><ele>954.0</ele><time>2026-04-18T13:05:25.001Z</time></trkpt><trkpt lat="44.767399926698346" lon="6.564253012538975"><ele>954.0</ele><time>2026-04-18T13:05:26.001Z</time></trkpt><trkpt lat="44.767595216789026" lon="6.564038470164226"><ele>956.5</ele><time>2026-04-18T13:05:27.001Z</time></trkpt><trkpt lat="44.76778424586977" lon="6.5638353586319225"><ele>959.0</ele><time>2026-04-18T13:05:28.001Z</time></trkpt><trkpt lat="44.76797915456257" lon="6.563643039641545"><ele>959.0</ele><time>2026-04-18T13:05:29.001Z</time></trkpt><trkpt lat="44.76817729840184" lon="6.5634417799487785"><ele>959.0</ele><time>2026-04-18T13:05:30.001Z</time></trkpt><trkpt lat="44.76837929300294" lon="6.563270005350432"><ele>965.5</ele><time>2026-04-18T13:05:31.001Z</time></trkpt><trkpt lat="44.768620191292044" lon="6.563132892851955"><ele>972.0</ele><time>2026-04-18T13:05:32.001Z</time></trkpt><trkpt lat="44.7688404527206" lon="6.563002496556332"><ele>965.0</ele><time>2026-04-18T13:05:33.001Z</time></trkpt><trkpt lat="44.76908164798032" lon="6.562808754974023"><ele>958.0</ele><time>2026-04-18T13:05:34.001Z</time></trkpt><trkpt lat="44.76930535224243" lon="6.562649494367657"><ele>963.0</ele><time>2026-04-18T13:05:35.001Z</time></trkpt><trkpt lat="44.76954088112409" lon="6.562488045711339"><ele>968.0</ele><time>2026-04-18T13:05:36.001Z</time></trkpt><trkpt lat="44.76977239968053" lon="6.562325624829692"><ele>968.0</ele><time>2026-04-18T13:05:37.001Z</time></trkpt><trkpt lat="44.77001602802302" lon="6.562177230438656"><ele>968.0</ele><time>2026-04-18T13:05:38.001Z</time></trkpt><trkpt lat="44.770233901987126" lon="6.562024805465977"><ele>967.0</ele><time>2026-04-18T13:05:39.001Z</time></trkpt><trkpt lat="44.77046202638209" lon="6.5618660522277015"><ele>966.0</ele><time>2026-04-18T13:05:40.001Z</time></trkpt><trkpt lat="44.770705032460675" lon="6.5616969427213805"><ele>966.0</ele><time>2026-04-18T13:05:41.001Z</time></trkpt><trkpt lat="44.770931169908295" lon="6.561539572257833"><ele>966.0</ele><time>2026-04-18T13:05:42.001Z</time></trkpt><trkpt lat="44.77114242842621" lon="6.561363247067688"><ele>961.5</ele><time>2026-04-18T13:05:43.001Z</time></trkpt><trkpt lat="44.77137395263232" lon="6.561193248641964"><ele>957.0</ele><time>2026-04-18T13:05:44.001Z</time></trkpt><trkpt lat="44.771597639570516" lon="6.561031931757592"><ele>957.0</ele><time>2026-04-18T13:05:45.002Z</time></trkpt><trkpt lat="44.77181515906064" lon="6.560871197695511"><ele>957.0</ele><time>2026-04-18T13:05:46.002Z</time></trkpt><trkpt lat="44.77202051494249" lon="6.560691123442943"><ele>957.0</ele><time>2026-04-18T13:05:47.002Z</time></trkpt><trkpt lat="44.772202427223675" lon="6.560523919730447"><ele>957.0</ele><time>2026-04-18T13:05:48.002Z</time></trkpt><trkpt lat="44.7724171252951" lon="6.5604068605488655"><ele>957.0</ele><time>2026-04-18T13:05:49.002Z</time></trkpt><trkpt lat="44.77261982089218" lon="6.560284124222745"><ele>958.5</ele><time>2026-04-18T13:05:50.002Z</time></trkpt><trkpt lat="44.77284580786055" lon="6.560232933980362"><ele>960.0</ele><time>2026-04-18T13:05:51.002Z</time></trkpt><trkpt lat="44.77307257227913" lon="6.560181341405254"><ele>960.0</ele><time>2026-04-18T13:05:52.002Z</time></trkpt><trkpt lat="44.77330485585974" lon="6.5601326973319605"><ele>960.0</ele><time>2026-04-18T13:05:53.002Z</time></trkpt><trkpt lat="44.77352905239756" lon="6.560084097309758"><ele>964.5</ele><time>2026-04-18T13:05:54.002Z</time></trkpt><trkpt lat="44.77377094234557" lon="6.560055459562223"><ele>969.0</ele><time>2026-04-18T13:05:55.002Z</time></trkpt><trkpt lat="44.77400043253563" lon="6.560013893171302"><ele>969.0</ele><time>2026-04-18T13:05:56.002Z</time></trkpt><trkpt lat="44.77424225508242" lon="6.559970093067855"><ele>969.0</ele><time>2026-04-18T13:05:57.002Z</time></trkpt><trkpt lat="44.774490224712125" lon="6.559926266296222"><ele>972.5</ele><time>2026-04-18T13:05:58.002Z</time></trkpt><trkpt lat="44.77474467591472" lon="6.559878979504597"><ele>976.0</ele><time>2026-04-18T13:05:59.002Z</time></trkpt><trkpt lat="44.77499444366554" lon="6.559832240431479"><ele>974.0</ele><time>2026-04-18T13:06:00.002Z</time></trkpt><trkpt lat="44.77524203738667" lon="6.559782981581364"><ele>972.0</ele><time>2026-04-18T13:06:01.002Z</time></trkpt><trkpt lat="44.77549676836814" lon="6.559811203518392"><ele>972.0</ele><time>2026-04-18T13:06:02.002Z</time></trkpt><trkpt lat="44.775748384319726" lon="6.559806247940561"><ele>972.0</ele><time>2026-04-18T13:06:03.002Z</time></trkpt><trkpt lat="44.77598904871765" lon="6.559849734377139"><ele>966.5</ele><time>2026-04-18T13:06:04.002Z</time></trkpt><trkpt lat="44.776238355440114" lon="6.559885919666059"><ele>961.0</ele><time>2026-04-18T13:06:05.002Z</time></trkpt><trkpt lat="44.776497323641834" lon="6.5599480509617925"><ele>961.0</ele><time>2026-04-18T13:06:06Z</time></trkpt><trkpt lat="44.77674448938598" lon="6.5599800884146635"><ele>961.0</ele><time>2026-04-18T13:06:07Z</time></trkpt><trkpt lat="44.77699671035263" lon="6.560002532303169"><ele>962.5</ele><time>2026-04-18T13:06:08Z</time></trkpt><trkpt lat="44.77723206347163" lon="6.560018600599321"><ele>964.0</ele><time>2026-04-18T13:06:09Z</time></trkpt><trkpt lat="44.777471438843335" lon="6.560047696804184"><ele>963.0</ele><time>2026-04-18T13:06:10Z</time></trkpt><trkpt lat="44.77770920347071" lon="6.560116169892094"><ele>962.0</ele><time>2026-04-18T13:06:11Z</time></trkpt><trkpt lat="44.777980188165046" lon="6.560196501526626"><ele>962.0</ele><time>2026-04-18T13:06:12Z</time></trkpt><trkpt lat="44.77824375066051" lon="6.560296919340543"><ele>962.0</ele><time>2026-04-18T13:06:13Z</time></trkpt><trkpt lat="44.77850431382842" lon="6.560404773723561"><ele>971.0</ele><time>2026-04-18T13:06:14Z</time></trkpt><trkpt lat="44.77876120850362" lon="6.560505613593691"><ele>980.0</ele><time>2026-04-18T13:06:15Z</time></trkpt><trkpt lat="44.77902300779" lon="6.560611354238689"><ele>980.0</ele><time>2026-04-18T13:06:16Z</time></trkpt><trkpt lat="44.77933484360844" lon="6.560740793693672"><ele>980.0</ele><time>2026-04-18T13:06:17Z</time></trkpt><trkpt lat="44.77957060108564" lon="6.560830067316982"><ele>977.5</ele><time>2026-04-18T13:06:18Z</time></trkpt><trkpt lat="44.77982387521358" lon="6.560925115579243"><ele>975.0</ele><time>2026-04-18T13:06:19Z</time></trkpt><trkpt lat="44.78008739206013" lon="6.561016618318652"><ele>973.0</ele><time>2026-04-18T13:06:20Z</time></trkpt><trkpt lat="44.78034163310769" lon="6.561103453641927"><ele>971.0</ele><time>2026-04-18T13:06:21Z</time></trkpt><trkpt lat="44.780588991309955" lon="6.561166906261012"><ele>988.0</ele><time>2026-04-18T13:06:22Z</time></trkpt><trkpt lat="44.780820677787574" lon="6.561216378353169"><ele>1005.0</ele><time>2026-04-18T13:06:23Z</time></trkpt><trkpt lat="44.78103805367912" lon="6.561219674915634"><ele>1005.5</ele><time>2026-04-18T13:06:24Z</time></trkpt><trkpt lat="44.78126222849161" lon="6.56120351412751"><ele>1006.0</ele><time>2026-04-18T13:06:25Z</time></trkpt><trkpt lat="44.78148879514707" lon="6.561078619141642"><ele>997.0</ele><time>2026-04-18T13:06:26Z</time></trkpt><trkpt lat="44.78173528361845" lon="6.561016652970946"><ele>988.0</ele><time>2026-04-18T13:06:27Z</time></trkpt><trkpt lat="44.781985620844495" lon="6.560952483208975"><ele>988.0</ele><time>2026-04-18T13:06:28Z</time></trkpt><trkpt lat="44.78219353956419" lon="6.56082424590673"><ele>988.0</ele><time>2026-04-18T13:06:29Z</time></trkpt><trkpt lat="44.782422705693" lon="6.560738124396067"><ele>988.0</ele><time>2026-04-18T13:06:30Z</time></trkpt><trkpt lat="44.78265725048411" lon="6.560665309177807"><ele>988.0</ele><time>2026-04-18T13:06:31Z</time></trkpt><trkpt lat="44.78288435278918" lon="6.560639729141374"><ele>991.0</ele><time>2026-04-18T13:06:32Z</time></trkpt><trkpt lat="44.7831166587221" lon="6.560596858552996"><ele>994.0</ele><time>2026-04-18T13:06:33Z</time></trkpt><trkpt lat="44.78334027233409" lon="6.560570591353035"><ele>995.5</ele><time>2026-04-18T13:06:34Z</time></trkpt><trkpt lat="44.78357131797086" lon="6.5605662760929455"><ele>997.0</ele><time>2026-04-18T13:06:35Z</time></trkpt><trkpt lat="44.78380564518003" lon="6.560574661424425"><ele>997.0</ele><time>2026-04-18T13:06:36Z</time></trkpt><trkpt lat="44.784042097564324" lon="6.560588584074042"><ele>997.0</ele><time>2026-04-18T13:06:37Z</time></trkpt><trkpt lat="44.7842764161093" lon="6.560612711376082"><ele>995.5</ele><time>2026-04-18T13:06:38Z</time></trkpt><trkpt lat="44.78451952805633" lon="6.560653764018717"><ele>994.0</ele><time>2026-04-18T13:06:39Z</time></trkpt><trkpt lat="44.78475758580099" lon="6.5607038948106995"><ele>994.0</ele><time>2026-04-18T13:06:40Z</time></trkpt><trkpt lat="44.78498167485177" lon="6.560738287304924"><ele>994.0</ele><time>2026-04-18T13:06:41Z</time></trkpt><trkpt lat="44.78520588089374" lon="6.560795411559856"><ele>992.6666666666666</ele><time>2026-04-18T13:06:42Z</time></trkpt><trkpt lat="44.78542647723913" lon="6.5608444002034"><ele>991.3333333333333</ele><time>2026-04-18T13:06:43Z</time></trkpt><trkpt lat="44.78562899578291" lon="6.5608875663092645"><ele>990.0</ele><time>2026-04-18T13:06:44Z</time></trkpt><trkpt lat="44.785838986186135" lon="6.560935912567685"><ele>986.6666666666667</ele><time>2026-04-18T13:06:45Z</time></trkpt><trkpt lat="44.78602502721798" lon="6.560967337498184"><ele>983.3333333333334</ele><time>2026-04-18T13:06:46Z</time></trkpt><trkpt lat="44.78623855702364" lon="6.561002072532662"><ele>980.0</ele><time>2026-04-18T13:06:47Z</time></trkpt><trkpt lat="44.7864374987654" lon="6.561047754072957"><ele>980.0</ele><time>2026-04-18T13:06:48Z</time></trkpt><trkpt lat="44.78662699651585" lon="6.561079363049015"><ele>980.0</ele><time>2026-04-18T13:06:49Z</time></trkpt><trkpt lat="44.7868212561979" lon="6.561112739931029"><ele>980.0</ele><time>2026-04-18T13:06:50.001Z</time></trkpt><trkpt lat="44.78701536718957" lon="6.561155681470457"><ele>981.0</ele><time>2026-04-18T13:06:51.001Z</time></trkpt><trkpt lat="44.78722233488661" lon="6.561214952514365"><ele>982.0</ele><time>2026-04-18T13:06:52.001Z</time></trkpt><trkpt lat="44.78741421837545" lon="6.561271427610883"><ele>983.0</ele><time>2026-04-18T13:06:53.001Z</time></trkpt><trkpt lat="44.78761462973539" lon="6.561324084120979"><ele>982.0</ele><time>2026-04-18T13:06:54.001Z</time></trkpt><trkpt lat="44.787803654407185" lon="6.5613386549416575"><ele>981.0</ele><time>2026-04-18T13:06:55.001Z</time></trkpt><trkpt lat="44.787994442715366" lon="6.561374913630437"><ele>980.0</ele><time>2026-04-18T13:06:56.001Z</time></trkpt><trkpt lat="44.78818427645846" lon="6.561399229124253"><ele>980.0</ele><time>2026-04-18T13:06:57.001Z</time></trkpt><trkpt lat="44.78838694504084" lon="6.561479588590455"><ele>980.0</ele><time>2026-04-18T13:06:58.001Z</time></trkpt><trkpt lat="44.788574667639814" lon="6.561520987971949"><ele>980.0</ele><time>2026-04-18T13:06:59.001Z</time></trkpt><trkpt lat="44.78878089376061" lon="6.561534294432113"><ele>979.3333333333334</ele><time>2026-04-18T13:07:00.001Z</time></trkpt><trkpt lat="44.7889734508254" lon="6.561568574057685"><ele>978.6666666666667</ele><time>2026-04-18T13:07:01.001Z</time></trkpt><trkpt lat="44.78915064351487" lon="6.561584751760247"><ele>978.0</ele><time>2026-04-18T13:07:02.001Z</time></trkpt><trkpt lat="44.78932722505898" lon="6.561625323404609"><ele>977.75</ele><time>2026-04-18T13:07:03.001Z</time></trkpt><trkpt lat="44.789480056100814" lon="6.561651552050868"><ele>977.5</ele><time>2026-04-18T13:07:04.001Z</time></trkpt><trkpt lat="44.78962010061394" lon="6.561691086029711"><ele>977.25</ele><time>2026-04-18T13:07:05.001Z</time></trkpt><trkpt lat="44.78976685180755" lon="6.561721966500544"><ele>977.0</ele><time>2026-04-18T13:07:06.001Z</time></trkpt><trkpt lat="44.789907183229964" lon="6.5617562651303984"><ele>977.0</ele><time>2026-04-18T13:07:07.001Z</time></trkpt><trkpt lat="44.79005620156403" lon="6.561795428136337"><ele>977.0</ele><time>2026-04-18T13:07:08.001Z</time></trkpt><trkpt lat="44.79021216383016" lon="6.5618164893433075"><ele>977.0</ele><time>2026-04-18T13:07:09.001Z</time></trkpt><trkpt lat="44.790354123616275" lon="6.561843957603379"><ele>978.0</ele><time>2026-04-18T13:07:10.001Z</time></trkpt><trkpt lat="44.790497186220605" lon="6.56185145047748"><ele>979.0</ele><time>2026-04-18T13:07:11.001Z</time></trkpt><trkpt lat="44.79065993298009" lon="6.56188221528256"><ele>980.0</ele><time>2026-04-18T13:07:12.001Z</time></trkpt><trkpt lat="44.79081211093071" lon="6.5619004985744445"><ele>980.0</ele><time>2026-04-18T13:07:13.001Z</time></trkpt><trkpt lat="44.790977057962074" lon="6.561950269852676"><ele>980.0</ele><time>2026-04-18T13:07:14.001Z</time></trkpt><trkpt lat="44.79114008843174" lon="6.561961823781864"><ele>980.0</ele><time>2026-04-18T13:07:15.001Z</time></trkpt><trkpt lat="44.79130111557884" lon="6.5619845534776164"><ele>981.6666666666667</ele><time>2026-04-18T13:07:16.001Z</time></trkpt><trkpt lat="44.79146016490142" lon="6.562017964557353"><ele>983.3333333333333</ele><time>2026-04-18T13:07:17.001Z</time></trkpt><trkpt lat="44.79161339308091" lon="6.562048988606935"><ele>985.0</ele><time>2026-04-18T13:07:18.001Z</time></trkpt><trkpt lat="44.791763994135515" lon="6.562129602524009"><ele>988.75</ele><time>2026-04-18T13:07:19.001Z</time></trkpt><trkpt lat="44.791896002685235" lon="6.562148845379355"><ele>992.5</ele><time>2026-04-18T13:07:20.001Z</time></trkpt><trkpt lat="44.79203276137122" lon="6.562170020769509"><ele>996.25</ele><time>2026-04-18T13:07:21.001Z</time></trkpt><trkpt lat="44.79217400864505" lon="6.562189155295027"><ele>1000.0</ele><time>2026-04-18T13:07:22.001Z</time></trkpt><trkpt lat="44.79232833262183" lon="6.562215016032324"><ele>1000.0</ele><time>2026-04-18T13:07:23.001Z</time></trkpt><trkpt lat="44.79247445907161" lon="6.562246560795254"><ele>1000.0</ele><time>2026-04-18T13:07:24.001Z</time></trkpt><trkpt lat="44.792615066158355" lon="6.56226962031738"><ele>1000.0</ele><time>2026-04-18T13:07:25.001Z</time></trkpt><trkpt lat="44.79278265723199" lon="6.562293880438657"><ele>1000.3333333333333</ele><time>2026-04-18T13:07:26.001Z</time></trkpt><trkpt lat="44.79294025729302" lon="6.562320292804912"><ele>1000.6666666666667</ele><time>2026-04-18T13:07:27.001Z</time></trkpt><trkpt lat="44.7930946364378" lon="6.562352011048241"><ele>1001.0</ele><time>2026-04-18T13:07:28.001Z</time></trkpt><trkpt lat="44.79324656828651" lon="6.562368075944013"><ele>1001.0</ele><time>2026-04-18T13:07:29.001Z</time></trkpt><trkpt lat="44.793397657228766" lon="6.562406275748951"><ele>1001.0</ele><time>2026-04-18T13:07:30.001Z</time></trkpt><trkpt lat="44.793550749701865" lon="6.562439917140556"><ele>1001.0</ele><time>2026-04-18T13:07:31.001Z</time></trkpt><trkpt lat="44.79370686478448" lon="6.562469092672355"><ele>1001.0</ele><time>2026-04-18T13:07:32.001Z</time></trkpt><trkpt lat="44.79385003285201" lon="6.562504111061437"><ele>1001.0</ele><time>2026-04-18T13:07:33.001Z</time></trkpt><trkpt lat="44.793984963573635" lon="6.562530292102911"><ele>1001.0</ele><time>2026-04-18T13:07:34.001Z</time></trkpt><trkpt lat="44.7941148824384" lon="6.562566175943769"><ele>1001.0</ele><time>2026-04-18T13:07:35.001Z</time></trkpt><trkpt lat="44.79424920735559" lon="6.562600321899713"><ele>1002.5</ele><time>2026-04-18T13:07:36.001Z</time></trkpt><trkpt lat="44.794386675530134" lon="6.56260684076575"><ele>1004.0</ele><time>2026-04-18T13:07:37.001Z</time></trkpt><trkpt lat="44.794484840770814" lon="6.56261870887972"><ele>1005.5</ele><time>2026-04-18T13:07:38.001Z</time></trkpt><trkpt lat="44.79463084315262" lon="6.562614548734385"><ele>1007.0</ele><time>2026-04-18T13:07:39.001Z</time></trkpt><trkpt lat="44.79474191171162" lon="6.562610981473239"><ele>1007.0</ele><time>2026-04-18T13:07:40.001Z</time></trkpt><trkpt lat="44.794871504353075" lon="6.562627697272629"><ele>1007.0</ele><time>2026-04-18T13:07:41.001Z</time></trkpt><trkpt lat="44.7949990669147" lon="6.562633155179048"><ele>1007.0</ele><time>2026-04-18T13:07:42.001Z</time></trkpt><trkpt lat="44.79510568943256" lon="6.562605249030523"><ele>1007.0</ele><time>2026-04-18T13:07:43.001Z</time></trkpt><trkpt lat="44.79522482424954" lon="6.562622790875769"><ele>1008.75</ele><time>2026-04-18T13:07:44.001Z</time></trkpt><trkpt lat="44.79533960979091" lon="6.562630371816962"><ele>1010.5</ele><time>2026-04-18T13:07:45.001Z</time></trkpt><trkpt lat="44.79544035963628" lon="6.56267092295038"><ele>1012.25</ele><time>2026-04-18T13:07:46.001Z</time></trkpt><trkpt lat="44.79556025534835" lon="6.562714000511299"><ele>1014.0</ele><time>2026-04-18T13:07:47.001Z</time></trkpt><trkpt lat="44.795678220770164" lon="6.5627361989781745"><ele>1014.0</ele><time>2026-04-18T13:07:48.001Z</time></trkpt><trkpt lat="44.79581910525158" lon="6.562724823426258"><ele>1014.0</ele><time>2026-04-18T13:07:49.002Z</time></trkpt><trkpt lat="44.795951894394896" lon="6.562736054072489"><ele>1014.0</ele><time>2026-04-18T13:07:50.002Z</time></trkpt><trkpt lat="44.796087834025506" lon="6.562782820049714"><ele>1014.0</ele><time>2026-04-18T13:07:51.002Z</time></trkpt><trkpt lat="44.79623092895553" lon="6.5628618211149625"><ele>1018.6666666666667</ele><time>2026-04-18T13:07:52.002Z</time></trkpt><trkpt lat="44.79639082946675" lon="6.562923323992072"><ele>1023.3333333333334</ele><time>2026-04-18T13:07:53.002Z</time></trkpt><trkpt lat="44.7965382556578" lon="6.562990785007599"><ele>1028.0</ele><time>2026-04-18T13:07:54.002Z</time></trkpt><trkpt lat="44.79669005550804" lon="6.563051273150496"><ele>1028.0</ele><time>2026-04-18T13:07:55.002Z</time></trkpt><trkpt lat="44.79683515840248" lon="6.563137143852999"><ele>1028.0</ele><time>2026-04-18T13:07:56.002Z</time></trkpt><trkpt lat="44.79696010782401" lon="6.563245743272806"><ele>1028.0</ele><time>2026-04-18T13:07:57.002Z</time></trkpt><trkpt lat="44.79710460743865" lon="6.563357045902691"><ele>1027.75</ele><time>2026-04-18T13:07:58.002Z</time></trkpt><trkpt lat="44.79723157836579" lon="6.5634451474686095"><ele>1027.5</ele><time>2026-04-18T13:07:59.002Z</time></trkpt><trkpt lat="44.79734778327685" lon="6.563529506347653"><ele>1027.25</ele><time>2026-04-18T13:08:00.002Z</time></trkpt><trkpt lat="44.7974677481754" lon="6.563586556591885"><ele>1027.0</ele><time>2026-04-18T13:08:01.002Z</time></trkpt><trkpt lat="44.79759040401763" lon="6.563684639820882"><ele>1030.0</ele><time>2026-04-18T13:08:02.002Z</time></trkpt><trkpt lat="44.797722202648806" lon="6.563796540428432"><ele>1033.0</ele><time>2026-04-18T13:08:03.002Z</time></trkpt><trkpt lat="44.79784321507224" lon="6.563929768305124"><ele>1036.0</ele><time>2026-04-18T13:08:04.002Z</time></trkpt><trkpt lat="44.797955333404936" lon="6.564090145854806"><ele>1036.0</ele><time>2026-04-18T13:08:05.002Z</time></trkpt><trkpt lat="44.798060460083" lon="6.564239818433249"><ele>1036.0</ele><time>2026-04-18T13:08:06.002Z</time></trkpt><trkpt lat="44.79818013036707" lon="6.564387402753698"><ele>1036.0</ele><time>2026-04-18T13:08:07.002Z</time></trkpt><trkpt lat="44.79829092527252" lon="6.564562400051039"><ele>1039.6666666666665</ele><time>2026-04-18T13:08:08.002Z</time></trkpt><trkpt lat="44.79840469022037" lon="6.564735307939754"><ele>1043.3333333333333</ele><time>2026-04-18T13:08:09.002Z</time></trkpt><trkpt lat="44.79852136921697" lon="6.564909505781876"><ele>1047.0</ele><time>2026-04-18T13:08:10.002Z</time></trkpt><trkpt lat="44.79861618330031" lon="6.565115085574627"><ele>1047.0</ele><time>2026-04-18T13:08:11.002Z</time></trkpt><trkpt lat="44.79872913654876" lon="6.565323620526204"><ele>1047.0</ele><time>2026-04-18T13:08:12Z</time></trkpt><trkpt lat="44.79881829808247" lon="6.565497318316151"><ele>1047.0</ele><time>2026-04-18T13:08:13Z</time></trkpt><trkpt lat="44.79896069839396" lon="6.565630979937201"><ele>1048.6666666666667</ele><time>2026-04-18T13:08:14Z</time></trkpt><trkpt lat="44.79909600822671" lon="6.5657497168384555"><ele>1050.3333333333335</ele><time>2026-04-18T13:08:15Z</time></trkpt><trkpt lat="44.79926715242139" lon="6.565865629229129"><ele>1052.0</ele><time>2026-04-18T13:08:16Z</time></trkpt><trkpt lat="44.799455393749604" lon="6.565959254257491"><ele>1052.0</ele><time>2026-04-18T13:08:17Z</time></trkpt><trkpt lat="44.79967655840303" lon="6.566063730937713"><ele>1052.0</ele><time>2026-04-18T13:08:18Z</time></trkpt><trkpt lat="44.799892502917515" lon="6.566115337386605"><ele>1052.0</ele><time>2026-04-18T13:08:19Z</time></trkpt><trkpt lat="44.800095310845606" lon="6.566164674900005"><ele>1052.0</ele><time>2026-04-18T13:08:20Z</time></trkpt><trkpt lat="44.80031770240296" lon="6.566187654654066"><ele>1052.0</ele><time>2026-04-18T13:08:21Z</time></trkpt><trkpt lat="44.80053685513068" lon="6.566196071785867"><ele>1055.0</ele><time>2026-04-18T13:08:22Z</time></trkpt><trkpt lat="44.80076407421175" lon="6.566189954891119"><ele>1058.0</ele><time>2026-04-18T13:08:23Z</time></trkpt><trkpt lat="44.80101127953884" lon="6.566181520438143"><ele>1060.5</ele><time>2026-04-18T13:08:24Z</time></trkpt><trkpt lat="44.80123304511705" lon="6.566147399490809"><ele>1063.0</ele><time>2026-04-18T13:08:25Z</time></trkpt><trkpt lat="44.801497736486425" lon="6.566124282324608"><ele>1063.0</ele><time>2026-04-18T13:08:26Z</time></trkpt><trkpt lat="44.80178278202054" lon="6.566090587114134"><ele>1063.0</ele><time>2026-04-18T13:08:27Z</time></trkpt><trkpt lat="44.80205111436076" lon="6.566095980580665"><ele>1066.5</ele><time>2026-04-18T13:08:28Z</time></trkpt><trkpt lat="44.802318918667524" lon="6.566103126458133"><ele>1070.0</ele><time>2026-04-18T13:08:29Z</time></trkpt><trkpt lat="44.802563160456444" lon="6.566074927013354"><ele>1077.0</ele><time>2026-04-18T13:08:30Z</time></trkpt><trkpt lat="44.80281973534281" lon="6.566037529638977"><ele>1084.0</ele><time>2026-04-18T13:08:31Z</time></trkpt><trkpt lat="44.80305004431859" lon="6.56595594767004"><ele>1084.0</ele><time>2026-04-18T13:08:32Z</time></trkpt><trkpt lat="44.80326785203839" lon="6.565840049271477"><ele>1084.0</ele><time>2026-04-18T13:08:33Z</time></trkpt><trkpt lat="44.803500219824635" lon="6.565714887832906"><ele>1081.3333333333333</ele><time>2026-04-18T13:08:34Z</time></trkpt><trkpt lat="44.803713409009134" lon="6.565599549125648"><ele>1078.6666666666667</ele><time>2026-04-18T13:08:35Z</time></trkpt><trkpt lat="44.80388785592283" lon="6.565459626141552"><ele>1076.0</ele><time>2026-04-18T13:08:36Z</time></trkpt><trkpt lat="44.80407378635246" lon="6.56535278684991"><ele>1076.0</ele><time>2026-04-18T13:08:37Z</time></trkpt><trkpt lat="44.80425298139673" lon="6.565333943501336"><ele>1076.0</ele><time>2026-04-18T13:08:38Z</time></trkpt><trkpt lat="44.804452445328295" lon="6.56533837703797"><ele>1076.0</ele><time>2026-04-18T13:08:39Z</time></trkpt><trkpt lat="44.80465221796837" lon="6.565375950500888"><ele>1083.6666666666667</ele><time>2026-04-18T13:08:40Z</time></trkpt><trkpt lat="44.804867805783374" lon="6.56541534064821"><ele>1091.3333333333333</ele><time>2026-04-18T13:08:41Z</time></trkpt><trkpt lat="44.80509330839084" lon="6.565476465978555"><ele>1099.0</ele><time>2026-04-18T13:08:42Z</time></trkpt><trkpt lat="44.805305584743905" lon="6.565557526216723"><ele>1099.6666666666665</ele><time>2026-04-18T13:08:43Z</time></trkpt><trkpt lat="44.805498229792185" lon="6.565672841881007"><ele>1100.3333333333333</ele><time>2026-04-18T13:08:44Z</time></trkpt><trkpt lat="44.80566473043879" lon="6.565744318405836"><ele>1101.0</ele><time>2026-04-18T13:08:45Z</time></trkpt><trkpt lat="44.805834071984904" lon="6.565790777093707"><ele>1101.0</ele><time>2026-04-18T13:08:46Z</time></trkpt><trkpt lat="44.805987944888216" lon="6.565827833617144"><ele>1101.0</ele><time>2026-04-18T13:08:47Z</time></trkpt><trkpt lat="44.80611719412858" lon="6.565801082628604"><ele>1101.0</ele><time>2026-04-18T13:08:48Z</time></trkpt><trkpt lat="44.80625576780899" lon="6.5658075947277075"><ele>1101.0</ele><time>2026-04-18T13:08:49Z</time></trkpt><trkpt lat="44.80637393231149" lon="6.565810721700878"><ele>1103.0</ele><time>2026-04-18T13:08:50Z</time></trkpt><trkpt lat="44.80648003665058" lon="6.565782005637151"><ele>1105.0</ele><time>2026-04-18T13:08:51Z</time></trkpt><trkpt lat="44.8065564617184" lon="6.565728507832473"><ele>1107.0</ele><time>2026-04-18T13:08:52Z</time></trkpt><trkpt lat="44.80663575535386" lon="6.565704877345101"><ele>1109.0</ele><time>2026-04-18T13:08:53Z</time></trkpt><trkpt lat="44.80673054918651" lon="6.56577762033761"><ele>1111.0</ele><time>2026-04-18T13:08:55Z</time></trkpt><trkpt lat="44.80674080141472" lon="6.565894588434019"><ele>1111.0</ele><time>2026-04-18T13:08:56Z</time></trkpt><trkpt lat="44.80671175542408" lon="6.566002808047123"><ele>1111.0</ele><time>2026-04-18T13:08:57Z</time></trkpt><trkpt lat="44.806650904674136" lon="6.566094548896645"><ele>1111.0</ele><time>2026-04-18T13:08:58Z</time></trkpt><trkpt lat="44.806563376075786" lon="6.5661288482435625"><ele>1111.0</ele><time>2026-04-18T13:08:59Z</time></trkpt><trkpt lat="44.80648469346343" lon="6.566146261888384"><ele>1111.0</ele><time>2026-04-18T13:09:00Z</time></trkpt><trkpt lat="44.806373907705364" lon="6.5661410516742125"><ele>1111.0</ele><time>2026-04-18T13:09:01.001Z</time></trkpt><trkpt lat="44.80620978672605" lon="6.566159509206154"><ele>1111.0</ele><time>2026-04-18T13:09:02.001Z</time></trkpt><trkpt lat="44.80602239520316" lon="6.5661930187312745"><ele>1111.0</ele><time>2026-04-18T13:09:03.001Z</time></trkpt><trkpt lat="44.805884209166116" lon="6.566230563611125"><ele>1113.5</ele><time>2026-04-18T13:09:04.001Z</time></trkpt><trkpt lat="44.80575228212176" lon="6.566291549167142"><ele>1116.0</ele><time>2026-04-18T13:09:05.001Z</time></trkpt><trkpt lat="44.80562357760883" lon="6.566360343780007"><ele>1118.5</ele><time>2026-04-18T13:09:06.001Z</time></trkpt><trkpt lat="44.80552564193435" lon="6.566480309327707"><ele>1121.0</ele><time>2026-04-18T13:09:07.001Z</time></trkpt><trkpt lat="44.805445911958024" lon="6.5666559881780096"><ele>1121.0</ele><time>2026-04-18T13:09:08.001Z</time></trkpt><trkpt lat="44.80535978662926" lon="6.56687657151724"><ele>1121.0</ele><time>2026-04-18T13:09:09.001Z</time></trkpt><trkpt lat="44.80524041669476" lon="6.5670428461498815"><ele>1121.0</ele><time>2026-04-18T13:09:10.001Z</time></trkpt><trkpt lat="44.80514077828708" lon="6.567181874530017"><ele>1126.3333333333335</ele><time>2026-04-18T13:09:11.001Z</time></trkpt><trkpt lat="44.80501666082468" lon="6.567302358258455"><ele>1131.6666666666667</ele><time>2026-04-18T13:09:12.001Z</time></trkpt><trkpt lat="44.804878363486374" lon="6.56737030892655"><ele>1137.0</ele><time>2026-04-18T13:09:13.001Z</time></trkpt><trkpt lat="44.8047301752432" lon="6.567430495153669"><ele>1137.0</ele><time>2026-04-18T13:09:14.001Z</time></trkpt><trkpt lat="44.80459397894248" lon="6.567461101637039"><ele>1137.0</ele><time>2026-04-18T13:09:15.001Z</time></trkpt><trkpt lat="44.80445310566759" lon="6.567491179092696"><ele>1137.0</ele><time>2026-04-18T13:09:16.001Z</time></trkpt><trkpt lat="44.80429490036594" lon="6.567522709849639"><ele>1137.0</ele><time>2026-04-18T13:09:17.001Z</time></trkpt><trkpt lat="44.804165283211944" lon="6.56754261077024"><ele>1134.5</ele><time>2026-04-18T13:09:18.001Z</time></trkpt><trkpt lat="44.804029967647956" lon="6.56757463531754"><ele>1132.0</ele><time>2026-04-18T13:09:19.001Z</time></trkpt><trkpt lat="44.80389522875615" lon="6.5676083645452445"><ele>1129.5</ele><time>2026-04-18T13:09:20.001Z</time></trkpt><trkpt lat="44.803774012223606" lon="6.567626529407519"><ele>1127.0</ele><time>2026-04-18T13:09:21.001Z</time></trkpt><trkpt lat="44.80364564758328" lon="6.567655693578466"><ele>1127.0</ele><time>2026-04-18T13:09:22.001Z</time></trkpt><trkpt lat="44.80353588388429" lon="6.567685750010486"><ele>1127.0</ele><time>2026-04-18T13:09:23.001Z</time></trkpt><trkpt lat="44.80343474122726" lon="6.567720627087789"><ele>1127.0</ele><time>2026-04-18T13:09:24.001Z</time></trkpt><trkpt lat="44.80334426622023" lon="6.567767637997942"><ele>1127.0</ele><time>2026-04-18T13:09:25.001Z</time></trkpt><trkpt lat="44.80328810836986" lon="6.567855289333653"><ele>1127.0</ele><time>2026-04-18T13:09:26.001Z</time></trkpt><trkpt lat="44.80327029421839" lon="6.567964645471474"><ele>1128.0</ele><time>2026-04-18T13:09:27.001Z</time></trkpt><trkpt lat="44.803346181905304" lon="6.568138062256117"><ele>1129.0</ele><time>2026-04-18T13:09:28.001Z</time></trkpt><trkpt lat="44.803379192053235" lon="6.568232614131129"><ele>1130.0</ele><time>2026-04-18T13:09:29.001Z</time></trkpt><trkpt lat="44.80344269972794" lon="6.568271958495813"><ele>1131.0</ele><time>2026-04-18T13:09:30.001Z</time></trkpt><trkpt lat="44.80351246286373" lon="6.568264335929442"><ele>1132.0</ele><time>2026-04-18T13:09:31.001Z</time></trkpt><trkpt lat="44.80361005126008" lon="6.568237490461191"><ele>1136.0</ele><time>2026-04-18T13:09:32.001Z</time></trkpt><trkpt lat="44.80377740025721" lon="6.568149806623987"><ele>1140.0</ele><time>2026-04-18T13:09:33.001Z</time></trkpt><trkpt lat="44.80398962472216" lon="6.568061272392823"><ele>1144.0</ele><time>2026-04-18T13:09:34.001Z</time></trkpt><trkpt lat="44.80421442856592" lon="6.5679268401285285"><ele>1141.6666666666665</ele><time>2026-04-18T13:09:35.001Z</time></trkpt><trkpt lat="44.80437737299345" lon="6.567809816335993"><ele>1139.3333333333333</ele><time>2026-04-18T13:09:36.001Z</time></trkpt><trkpt lat="44.804547234095686" lon="6.567768428064696"><ele>1137.0</ele><time>2026-04-18T13:09:37.001Z</time></trkpt><trkpt lat="44.80471515397009" lon="6.567724972791261"><ele>1137.0</ele><time>2026-04-18T13:09:38.001Z</time></trkpt><trkpt lat="44.8048628018592" lon="6.56771829651412"><ele>1137.0</ele><time>2026-04-18T13:09:39.001Z</time></trkpt><trkpt lat="44.80502417512424" lon="6.5677076446627645"><ele>1137.0</ele><time>2026-04-18T13:09:40.001Z</time></trkpt><trkpt lat="44.80518169148338" lon="6.5677806612362195"><ele>1138.3333333333333</ele><time>2026-04-18T13:09:41.001Z</time></trkpt><trkpt lat="44.805331750888186" lon="6.567842259456981"><ele>1139.6666666666665</ele><time>2026-04-18T13:09:42.001Z</time></trkpt><trkpt lat="44.8054798921161" lon="6.567938819681207"><ele>1141.0</ele><time>2026-04-18T13:09:43.001Z</time></trkpt><trkpt lat="44.80563116987785" lon="6.568057401080889"><ele>1144.0</ele><time>2026-04-18T13:09:44.001Z</time></trkpt><trkpt lat="44.805762591189094" lon="6.5682375953528265"><ele>1147.0</ele><time>2026-04-18T13:09:45.001Z</time></trkpt><trkpt lat="44.80591946324743" lon="6.568443774100182"><ele>1150.0</ele><time>2026-04-18T13:09:46.001Z</time></trkpt><trkpt lat="44.80611186692629" lon="6.568704281243757"><ele>1154.5</ele><time>2026-04-18T13:09:47.001Z</time></trkpt><trkpt lat="44.80628772150444" lon="6.568968270429716"><ele>1159.0</ele><time>2026-04-18T13:09:48.001Z</time></trkpt><trkpt lat="44.80645559435365" lon="6.569245687046334"><ele>1159.5</ele><time>2026-04-18T13:09:49.001Z</time></trkpt><trkpt lat="44.80661741343217" lon="6.569563370323145"><ele>1160.0</ele><time>2026-04-18T13:09:50.001Z</time></trkpt><trkpt lat="44.80675727980489" lon="6.569900709565136"><ele>1160.5</ele><time>2026-04-18T13:09:51.001Z</time></trkpt><trkpt lat="44.80689283745083" lon="6.570266495732027"><ele>1161.0</ele><time>2026-04-18T13:09:52.001Z</time></trkpt><trkpt lat="44.8070318897279" lon="6.570627115365068"><ele>1163.5</ele><time>2026-04-18T13:09:53.001Z</time></trkpt><trkpt lat="44.80718561054508" lon="6.57098025620955"><ele>1166.0</ele><time>2026-04-18T13:09:54.001Z</time></trkpt><trkpt lat="44.80731721835275" lon="6.571350470894093"><ele>1169.0</ele><time>2026-04-18T13:09:55.001Z</time></trkpt><trkpt lat="44.807437111281764" lon="6.571677581885069"><ele>1172.0</ele><time>2026-04-18T13:09:56.001Z</time></trkpt><trkpt lat="44.80756065970085" lon="6.571973531470798"><ele>1174.0</ele><time>2026-04-18T13:09:57.001Z</time></trkpt><trkpt lat="44.807669033281606" lon="6.572269011214696"><ele>1176.0</ele><time>2026-04-18T13:09:58.001Z</time></trkpt><trkpt lat="44.807771823652" lon="6.572555127313234"><ele>1176.0</ele><time>2026-04-18T13:09:59.002Z</time></trkpt><trkpt lat="44.80786850868407" lon="6.572840521965894"><ele>1176.0</ele><time>2026-04-18T13:10:00.002Z</time></trkpt><trkpt lat="44.80797559400676" lon="6.573114835061736"><ele>1176.0</ele><time>2026-04-18T13:10:01.002Z</time></trkpt><trkpt lat="44.808082975619996" lon="6.573376856861404"><ele>1178.6666666666667</ele><time>2026-04-18T13:10:02.002Z</time></trkpt><trkpt lat="44.808183428858236" lon="6.573615680885807"><ele>1181.3333333333335</ele><time>2026-04-18T13:10:03.002Z</time></trkpt><trkpt lat="44.80829112863602" lon="6.573828981426343"><ele>1184.0</ele><time>2026-04-18T13:10:04.002Z</time></trkpt><trkpt lat="44.80841171357805" lon="6.574006984802664"><ele>1188.3333333333335</ele><time>2026-04-18T13:10:05.002Z</time></trkpt><trkpt lat="44.80854669659292" lon="6.574163123647219"><ele>1192.6666666666667</ele><time>2026-04-18T13:10:06.002Z</time></trkpt><trkpt lat="44.8087028826528" lon="6.57425080178529"><ele>1197.0</ele><time>2026-04-18T13:10:07.002Z</time></trkpt><trkpt lat="44.808898880532716" lon="6.574245208451221"><ele>1197.0</ele><time>2026-04-18T13:10:08.002Z</time></trkpt><trkpt lat="44.80907881960923" lon="6.574241843153414"><ele>1197.0</ele><time>2026-04-18T13:10:09.002Z</time></trkpt><trkpt lat="44.80924308363547" lon="6.574226470953788"><ele>1197.0</ele><time>2026-04-18T13:10:10.002Z</time></trkpt><trkpt lat="44.80943088037167" lon="6.574208706045498"><ele>1198.0</ele><time>2026-04-18T13:10:11.002Z</time></trkpt><trkpt lat="44.80966560236363" lon="6.574145421768388"><ele>1199.0</ele><time>2026-04-18T13:10:12.002Z</time></trkpt><trkpt lat="44.80986854227637" lon="6.574084863238133"><ele>1200.0</ele><time>2026-04-18T13:10:13.002Z</time></trkpt><trkpt lat="44.81004203730381" lon="6.574016391911414"><ele>1198.3333333333333</ele><time>2026-04-18T13:10:14.002Z</time></trkpt><trkpt lat="44.81023282598192" lon="6.574045347692961"><ele>1196.6666666666665</ele><time>2026-04-18T13:10:15.002Z</time></trkpt><trkpt lat="44.810435948955" lon="6.5741150059867355"><ele>1195.0</ele><time>2026-04-18T13:10:16.002Z</time></trkpt><trkpt lat="44.81062341863271" lon="6.574184930460115"><ele>1195.0</ele><time>2026-04-18T13:10:17.002Z</time></trkpt><trkpt lat="44.81080879905824" lon="6.5742417559749935"><ele>1195.0</ele><time>2026-04-18T13:10:18Z</time></trkpt><trkpt lat="44.810984916748204" lon="6.574311724131701"><ele>1195.0</ele><time>2026-04-18T13:10:19Z</time></trkpt><trkpt lat="44.81114927804635" lon="6.574370104361336"><ele>1192.0</ele><time>2026-04-18T13:10:20Z</time></trkpt><trkpt lat="44.81129920450033" lon="6.574423567057077"><ele>1189.0</ele><time>2026-04-18T13:10:21Z</time></trkpt><trkpt lat="44.811432774197925" lon="6.5744662220541"><ele>1186.0</ele><time>2026-04-18T13:10:22Z</time></trkpt><trkpt lat="44.81157739685027" lon="6.57449243807218"><ele>1183.0</ele><time>2026-04-18T13:10:23Z</time></trkpt><trkpt lat="44.811705945570935" lon="6.574557804727174"><ele>1185.5</ele><time>2026-04-18T13:10:24Z</time></trkpt><trkpt lat="44.81180671898792" lon="6.574675355856413"><ele>1188.0</ele><time>2026-04-18T13:10:25Z</time></trkpt><trkpt lat="44.81186755976431" lon="6.574827574460824"><ele>1190.5</ele><time>2026-04-18T13:10:26Z</time></trkpt><trkpt lat="44.811972979382496" lon="6.574983929403777"><ele>1193.0</ele><time>2026-04-18T13:10:27Z</time></trkpt><trkpt lat="44.81208599119438" lon="6.575126467148525"><ele>1193.0</ele><time>2026-04-18T13:10:28Z</time></trkpt><trkpt lat="44.81220612819699" lon="6.57524959373686"><ele>1193.0</ele><time>2026-04-18T13:10:29Z</time></trkpt><trkpt lat="44.81232439858282" lon="6.575348054098937"><ele>1193.0</ele><time>2026-04-18T13:10:30Z</time></trkpt><trkpt lat="44.81245700863674" lon="6.575440949663062"><ele>1193.0</ele><time>2026-04-18T13:10:31Z</time></trkpt><trkpt lat="44.81260239813043" lon="6.575522754396516"><ele>1201.0</ele><time>2026-04-18T13:10:32Z</time></trkpt><trkpt lat="44.81277378504942" lon="6.575556242335185"><ele>1209.0</ele><time>2026-04-18T13:10:33Z</time></trkpt><trkpt lat="44.81294328695117" lon="6.575575455000566"><ele>1217.0</ele><time>2026-04-18T13:10:34Z</time></trkpt><trkpt lat="44.81312799483299" lon="6.575594936090929"><ele>1217.0</ele><time>2026-04-18T13:10:35Z</time></trkpt><trkpt lat="44.81328102483546" lon="6.575605376412923"><ele>1217.0</ele><time>2026-04-18T13:10:36Z</time></trkpt><trkpt lat="44.81342836782185" lon="6.575607714767297"><ele>1217.0</ele><time>2026-04-18T13:10:37Z</time></trkpt><trkpt lat="44.81358289736366" lon="6.575606773748868"><ele>1215.5</ele><time>2026-04-18T13:10:38Z</time></trkpt><trkpt lat="44.813720666467454" lon="6.575600691686971"><ele>1214.0</ele><time>2026-04-18T13:10:39Z</time></trkpt><trkpt lat="44.813849083971355" lon="6.575601668157281"><ele>1212.5</ele><time>2026-04-18T13:10:40Z</time></trkpt><trkpt lat="44.813968936274435" lon="6.575607066560678"><ele>1211.0</ele><time>2026-04-18T13:10:41Z</time></trkpt><trkpt lat="44.81407979789533" lon="6.575631388892273"><ele>1211.0</ele><time>2026-04-18T13:10:42Z</time></trkpt><trkpt lat="44.814163307816685" lon="6.57568888364115"><ele>1211.0</ele><time>2026-04-18T13:10:43Z</time></trkpt><trkpt lat="44.81427604985357" lon="6.575799015650729"><ele>1211.0</ele><time>2026-04-18T13:10:44Z</time></trkpt><trkpt lat="44.8143658856067" lon="6.575944668824537"><ele>1211.0</ele><time>2026-04-18T13:10:45Z</time></trkpt><trkpt lat="44.81445702954195" lon="6.576112369784235"><ele>1210.75</ele><time>2026-04-18T13:10:46Z</time></trkpt><trkpt lat="44.81455297712122" lon="6.5762571509001875"><ele>1210.5</ele><time>2026-04-18T13:10:47Z</time></trkpt><trkpt lat="44.81463303745955" lon="6.576409675444947"><ele>1210.25</ele><time>2026-04-18T13:10:48Z</time></trkpt><trkpt lat="44.81470205110007" lon="6.576561818087594"><ele>1210.0</ele><time>2026-04-18T13:10:49Z</time></trkpt><trkpt lat="44.81478182755916" lon="6.57670806362841"><ele>1210.0</ele><time>2026-04-18T13:10:50Z</time></trkpt><trkpt lat="44.81487545071738" lon="6.576815499864466"><ele>1210.0</ele><time>2026-04-18T13:10:51Z</time></trkpt><trkpt lat="44.8149645144658" lon="6.576935354431448"><ele>1210.0</ele><time>2026-04-18T13:10:52Z</time></trkpt><trkpt lat="44.815081807998354" lon="6.577023751064065"><ele>1210.0</ele><time>2026-04-18T13:10:53Z</time></trkpt><trkpt lat="44.81522256439137" lon="6.577075002779374"><ele>1217.0</ele><time>2026-04-18T13:10:54Z</time></trkpt><trkpt lat="44.81538803110626" lon="6.577088745913352"><ele>1224.0</ele><time>2026-04-18T13:10:55Z</time></trkpt><trkpt lat="44.815576757368994" lon="6.57709931391915"><ele>1231.0</ele><time>2026-04-18T13:10:56Z</time></trkpt><trkpt lat="44.8157317466608" lon="6.57710473622034"><ele>1231.0</ele><time>2026-04-18T13:10:57Z</time></trkpt><trkpt lat="44.815891146525495" lon="6.577136510640514"><ele>1231.0</ele><time>2026-04-18T13:10:58Z</time></trkpt><trkpt lat="44.8160598508174" lon="6.577165799882711"><ele>1231.0</ele><time>2026-04-18T13:10:59Z</time></trkpt><trkpt lat="44.8162134706798" lon="6.5771754096020345"><ele>1228.3333333333333</ele><time>2026-04-18T13:11:00Z</time></trkpt><trkpt lat="44.81636391039271" lon="6.577184353430888"><ele>1225.6666666666667</ele><time>2026-04-18T13:11:01Z</time></trkpt><trkpt lat="44.81651739135114" lon="6.577237313997621"><ele>1223.0</ele><time>2026-04-18T13:11:02Z</time></trkpt><trkpt lat="44.81667416063902" lon="6.577283925005302"><ele>1217.3333333333335</ele><time>2026-04-18T13:11:03Z</time></trkpt><trkpt lat="44.816832805315364" lon="6.5773099683362535"><ele>1211.6666666666667</ele><time>2026-04-18T13:11:04Z</time></trkpt><trkpt lat="44.81699478388487" lon="6.577333754460659"><ele>1206.0</ele><time>2026-04-18T13:11:05Z</time></trkpt><trkpt lat="44.817161953285854" lon="6.577362844138365"><ele>1206.0</ele><time>2026-04-18T13:11:06.001Z</time></trkpt><trkpt lat="44.81732637530294" lon="6.57742126729012"><ele>1206.0</ele><time>2026-04-18T13:11:07.001Z</time></trkpt><trkpt lat="44.817471144366046" lon="6.577484885270644"><ele>1206.0</ele><time>2026-04-18T13:11:08.001Z</time></trkpt><trkpt lat="44.81761423646866" lon="6.577551496233659"><ele>1201.75</ele><time>2026-04-18T13:11:09.001Z</time></trkpt><trkpt lat="44.817744956469106" lon="6.577615439084866"><ele>1197.5</ele><time>2026-04-18T13:11:10.001Z</time></trkpt><trkpt lat="44.817883036267695" lon="6.577669495653884"><ele>1193.25</ele><time>2026-04-18T13:11:11.001Z</time></trkpt><trkpt lat="44.81802351443537" lon="6.577704774648366"><ele>1189.0</ele><time>2026-04-18T13:11:12.001Z</time></trkpt><trkpt lat="44.81816582583536" lon="6.5777407399262735"><ele>1189.0</ele><time>2026-04-18T13:11:13.001Z</time></trkpt><trkpt lat="44.818303039046356" lon="6.5777892308592"><ele>1189.0</ele><time>2026-04-18T13:11:14.001Z</time></trkpt><trkpt lat="44.81844228148469" lon="6.577850974264864"><ele>1189.0</ele><time>2026-04-18T13:11:15.001Z</time></trkpt><trkpt lat="44.8185772005949" lon="6.5779443395756"><ele>1189.0</ele><time>2026-04-18T13:11:16.001Z</time></trkpt><trkpt lat="44.8186934282973" lon="6.578046978384378"><ele>1195.25</ele><time>2026-04-18T13:11:17.001Z</time></trkpt><trkpt lat="44.8188085274491" lon="6.578155911031381"><ele>1201.5</ele><time>2026-04-18T13:11:18.001Z</time></trkpt><trkpt lat="44.81892603931479" lon="6.578264726751885"><ele>1207.75</ele><time>2026-04-18T13:11:19.001Z</time></trkpt><trkpt lat="44.819051773196776" lon="6.578359286811612"><ele>1214.0</ele><time>2026-04-18T13:11:20.001Z</time></trkpt><trkpt lat="44.81917338198131" lon="6.578447309707512"><ele>1214.0</ele><time>2026-04-18T13:11:21.001Z</time></trkpt><trkpt lat="44.819298863029296" lon="6.578508885566654"><ele>1214.0</ele><time>2026-04-18T13:11:22.001Z</time></trkpt><trkpt lat="44.81944706561725" lon="6.5785269325019495"><ele>1214.0</ele><time>2026-04-18T13:11:23.001Z</time></trkpt><trkpt lat="44.81960863493831" lon="6.578482390643235"><ele>1214.0</ele><time>2026-04-18T13:11:24.001Z</time></trkpt><trkpt lat="44.8197381603139" lon="6.578533038681945"><ele>1211.75</ele><time>2026-04-18T13:11:25.001Z</time></trkpt><trkpt lat="44.81986732742088" lon="6.5786157359951165"><ele>1209.5</ele><time>2026-04-18T13:11:26.001Z</time></trkpt><trkpt lat="44.82000052992493" lon="6.5787248128667954"><ele>1207.25</ele><time>2026-04-18T13:11:27.001Z</time></trkpt><trkpt lat="44.8201249134896" lon="6.578831966503665"><ele>1205.0</ele><time>2026-04-18T13:11:28.001Z</time></trkpt><trkpt lat="44.820254536752074" lon="6.578905362358216"><ele>1209.75</ele><time>2026-04-18T13:11:29.001Z</time></trkpt><trkpt lat="44.82038644655435" lon="6.578919881714129"><ele>1214.5</ele><time>2026-04-18T13:11:30.001Z</time></trkpt><trkpt lat="44.82051296493763" lon="6.578939257337847"><ele>1219.25</ele><time>2026-04-18T13:11:31.001Z</time></trkpt><trkpt lat="44.820663954873325" lon="6.57893165290944"><ele>1224.0</ele><time>2026-04-18T13:11:32.001Z</time></trkpt><trkpt lat="44.820803122514796" lon="6.578897007913746"><ele>1224.0</ele><time>2026-04-18T13:11:33.001Z</time></trkpt><trkpt lat="44.820958809811096" lon="6.578861335231411"><ele>1224.0</ele><time>2026-04-18T13:11:34.001Z</time></trkpt><trkpt lat="44.82110153071927" lon="6.578904046155537"><ele>1224.0</ele><time>2026-04-18T13:11:35.001Z</time></trkpt><trkpt lat="44.82124080325891" lon="6.57890660241759"><ele>1224.0</ele><time>2026-04-18T13:11:36.001Z</time></trkpt><trkpt lat="44.82137462470245" lon="6.578923752874018"><ele>1223.25</ele><time>2026-04-18T13:11:37.001Z</time></trkpt><trkpt lat="44.82150853990007" lon="6.5789783107226345"><ele>1222.5</ele><time>2026-04-18T13:11:38.001Z</time></trkpt><trkpt lat="44.82163588768215" lon="6.57898230577577"><ele>1221.75</ele><time>2026-04-18T13:11:39.001Z</time></trkpt><trkpt lat="44.82175857008935" lon="6.578980504147113"><ele>1221.0</ele><time>2026-04-18T13:11:40.001Z</time></trkpt><trkpt lat="44.82187158621883" lon="6.578957954632406"><ele>1221.0</ele><time>2026-04-18T13:11:41.001Z</time></trkpt><trkpt lat="44.821993050635804" lon="6.578954901131721"><ele>1221.0</ele><time>2026-04-18T13:11:42.001Z</time></trkpt><trkpt lat="44.822104516193065" lon="6.578943985501305"><ele>1221.0</ele><time>2026-04-18T13:11:43.001Z</time></trkpt><trkpt lat="44.82221892126195" lon="6.578938284672981"><ele>1221.0</ele><time>2026-04-18T13:11:44.001Z</time></trkpt><trkpt lat="44.82233183674708" lon="6.578939071755419"><ele>1221.0</ele><time>2026-04-18T13:11:45.001Z</time></trkpt><trkpt lat="44.82242967394887" lon="6.578921523577825"><ele>1221.0</ele><time>2026-04-18T13:11:46.001Z</time></trkpt><trkpt lat="44.822525187181625" lon="6.578900179209356"><ele>1221.0</ele><time>2026-04-18T13:11:47.001Z</time></trkpt><trkpt lat="44.82263117612054" lon="6.578911775653186"><ele>1221.0</ele><time>2026-04-18T13:11:48.001Z</time></trkpt><trkpt lat="44.822731510109456" lon="6.578913555154016"><ele>1221.0</ele><time>2026-04-18T13:11:49.001Z</time></trkpt><trkpt lat="44.8228163896034" lon="6.578937918550251"><ele>1221.6</ele><time>2026-04-18T13:11:50.001Z</time></trkpt><trkpt lat="44.822918873158876" lon="6.578957528504186"><ele>1222.1999999999998</ele><time>2026-04-18T13:11:51.001Z</time></trkpt><trkpt lat="44.82301781553071" lon="6.579007402125244"><ele>1222.8000000000002</ele><time>2026-04-18T13:11:52.001Z</time></trkpt><trkpt lat="44.82311226760693" lon="6.579087178716525"><ele>1223.4</ele><time>2026-04-18T13:11:53.001Z</time></trkpt><trkpt lat="44.82321290041411" lon="6.579161346597292"><ele>1224.0</ele><time>2026-04-18T13:11:54.001Z</time></trkpt><trkpt lat="44.8233267842373" lon="6.57922566911347"><ele>1224.0</ele><time>2026-04-18T13:11:55.001Z</time></trkpt><trkpt lat="44.823436302669144" lon="6.579276510065695"><ele>1224.0</ele><time>2026-04-18T13:11:56.001Z</time></trkpt><trkpt lat="44.82356184366041" lon="6.579351738593249"><ele>1224.0</ele><time>2026-04-18T13:11:57.001Z</time></trkpt><trkpt lat="44.82368916888914" lon="6.579421556735054"><ele>1224.0</ele><time>2026-04-18T13:11:58.001Z</time></trkpt><trkpt lat="44.823817284756856" lon="6.5794902062523235"><ele>1223.5</ele><time>2026-04-18T13:11:59.002Z</time></trkpt><trkpt lat="44.82393441266389" lon="6.579554343742887"><ele>1223.0</ele><time>2026-04-18T13:12:00.002Z</time></trkpt><trkpt lat="44.82406169439266" lon="6.579624068523058"><ele>1222.5</ele><time>2026-04-18T13:12:01.002Z</time></trkpt><trkpt lat="44.824189583812526" lon="6.579694441474807"><ele>1222.0</ele><time>2026-04-18T13:12:02.002Z</time></trkpt><trkpt lat="44.82431101656862" lon="6.5797366562313035"><ele>1223.25</ele><time>2026-04-18T13:12:03.002Z</time></trkpt><trkpt lat="44.82443807332424" lon="6.579815066458335"><ele>1224.5</ele><time>2026-04-18T13:12:04.002Z</time></trkpt><trkpt lat="44.824562959040314" lon="6.579881725053509"><ele>1225.75</ele><time>2026-04-18T13:12:05.002Z</time></trkpt><trkpt lat="44.82470555682015" lon="6.579953319802451"><ele>1227.0</ele><time>2026-04-18T13:12:06.002Z</time></trkpt><trkpt lat="44.82482116225824" lon="6.580040438852227"><ele>1227.0</ele><time>2026-04-18T13:12:07.002Z</time></trkpt><trkpt lat="44.82496424862282" lon="6.580082568461086"><ele>1227.0</ele><time>2026-04-18T13:12:08.002Z</time></trkpt><trkpt lat="44.825115623760745" lon="6.580116319250668"><ele>1227.0</ele><time>2026-04-18T13:12:09.002Z</time></trkpt><trkpt lat="44.82525902243631" lon="6.580122454062931"><ele>1227.0</ele><time>2026-04-18T13:12:10.002Z</time></trkpt><trkpt lat="44.82540943227099" lon="6.580100680492409"><ele>1226.75</ele><time>2026-04-18T13:12:11.002Z</time></trkpt><trkpt lat="44.825566317618744" lon="6.580057714474418"><ele>1226.5</ele><time>2026-04-18T13:12:12.002Z</time></trkpt><trkpt lat="44.82570015035953" lon="6.5800248960787755"><ele>1226.25</ele><time>2026-04-18T13:12:13.002Z</time></trkpt><trkpt lat="44.82582641456459" lon="6.579975428730306"><ele>1226.0</ele><time>2026-04-18T13:12:14.002Z</time></trkpt><trkpt lat="44.825957768966106" lon="6.579947902492314"><ele>1226.25</ele><time>2026-04-18T13:12:15.002Z</time></trkpt><trkpt lat="44.82608941703007" lon="6.579918024214259"><ele>1226.5</ele><time>2026-04-18T13:12:16.002Z</time></trkpt><trkpt lat="44.82622125205075" lon="6.579882264711092"><ele>1226.75</ele><time>2026-04-18T13:12:17.002Z</time></trkpt><trkpt lat="44.826355093464954" lon="6.579848198958814"><ele>1227.0</ele><time>2026-04-18T13:12:18.002Z</time></trkpt><trkpt lat="44.826486731593675" lon="6.579807935930744"><ele>1227.0</ele><time>2026-04-18T13:12:19.002Z</time></trkpt><trkpt lat="44.82663532978702" lon="6.579784813351298"><ele>1227.0</ele><time>2026-04-18T13:12:20.002Z</time></trkpt><trkpt lat="44.82677312460474" lon="6.579753708911717"><ele>1227.0</ele><time>2026-04-18T13:12:21.002Z</time></trkpt><trkpt lat="44.82690815208014" lon="6.579723840874162"><ele>1227.0</ele><time>2026-04-18T13:12:22.002Z</time></trkpt><trkpt lat="44.82704653280731" lon="6.579701920488976"><ele>1225.3333333333333</ele><time>2026-04-18T13:12:23.002Z</time></trkpt><trkpt lat="44.82718850378587" lon="6.579710446398517"><ele>1223.6666666666665</ele><time>2026-04-18T13:12:24Z</time></trkpt><trkpt lat="44.82734025519336" lon="6.579735378947838"><ele>1222.0</ele><time>2026-04-18T13:12:25Z</time></trkpt><trkpt lat="44.82749502034051" lon="6.579805365830091"><ele>1219.6666666666665</ele><time>2026-04-18T13:12:26Z</time></trkpt><trkpt lat="44.82764824329558" lon="6.579870095531346"><ele>1217.3333333333333</ele><time>2026-04-18T13:12:27Z</time></trkpt><trkpt lat="44.82781717845061" lon="6.579947539029495"><ele>1215.0</ele><time>2026-04-18T13:12:28Z</time></trkpt><trkpt lat="44.82799406325652" lon="6.580032375418027"><ele>1215.0</ele><time>2026-04-18T13:12:29Z</time></trkpt><trkpt lat="44.82816253832555" lon="6.580106155985413"><ele>1215.0</ele><time>2026-04-18T13:12:30Z</time></trkpt><trkpt lat="44.82833867582524" lon="6.580190242994181"><ele>1215.0</ele><time>2026-04-18T13:12:31Z</time></trkpt><trkpt lat="44.82848519243239" lon="6.580278899135024"><ele>1214.6666666666667</ele><time>2026-04-18T13:12:32Z</time></trkpt><trkpt lat="44.828642854825006" lon="6.580351989418681"><ele>1214.3333333333335</ele><time>2026-04-18T13:12:33Z</time></trkpt><trkpt lat="44.82879032825141" lon="6.580420326619675"><ele>1214.0</ele><time>2026-04-18T13:12:34Z</time></trkpt><trkpt lat="44.828935395369726" lon="6.580487511615496"><ele>1214.0</ele><time>2026-04-18T13:12:35Z</time></trkpt><trkpt lat="44.82907462409322" lon="6.580553439973795"><ele>1214.0</ele><time>2026-04-18T13:12:36Z</time></trkpt><trkpt lat="44.8292058951026" lon="6.580620474231801"><ele>1214.0</ele><time>2026-04-18T13:12:37Z</time></trkpt><trkpt lat="44.82933229148602" lon="6.580666590028578"><ele>1214.0</ele><time>2026-04-18T13:12:38Z</time></trkpt><trkpt lat="44.82945065318688" lon="6.5807578067982995"><ele>1212.75</ele><time>2026-04-18T13:12:39Z</time></trkpt><trkpt lat="44.82956355011964" lon="6.580872943166726"><ele>1211.5</ele><time>2026-04-18T13:12:40Z</time></trkpt><trkpt lat="44.82966563906468" lon="6.580995957007289"><ele>1210.25</ele><time>2026-04-18T13:12:41Z</time></trkpt><trkpt lat="44.829763603025086" lon="6.581154471027287"><ele>1209.0</ele><time>2026-04-18T13:12:42Z</time></trkpt><trkpt lat="44.82984522311524" lon="6.581332504710585"><ele>1209.0</ele><time>2026-04-18T13:12:43Z</time></trkpt><trkpt lat="44.82991463803259" lon="6.5815253884246525"><ele>1209.0</ele><time>2026-04-18T13:12:44Z</time></trkpt><trkpt lat="44.82996485312994" lon="6.581733163638416"><ele>1209.0</ele><time>2026-04-18T13:12:45Z</time></trkpt><trkpt lat="44.83001193377092" lon="6.581933522263618"><ele>1208.0</ele><time>2026-04-18T13:12:46Z</time></trkpt><trkpt lat="44.83006132065302" lon="6.582142386614747"><ele>1207.0</ele><time>2026-04-18T13:12:47Z</time></trkpt><trkpt lat="44.83011615228556" lon="6.58234718324739"><ele>1206.0</ele><time>2026-04-18T13:12:48Z</time></trkpt><trkpt lat="44.830184351234166" lon="6.582537839558078"><ele>1207.0</ele><time>2026-04-18T13:12:49Z</time></trkpt><trkpt lat="44.830261500840116" lon="6.582715587563374"><ele>1208.0</ele><time>2026-04-18T13:12:50Z</time></trkpt><trkpt lat="44.830403576027905" lon="6.582869707339844"><ele>1209.0</ele><time>2026-04-18T13:12:51Z</time></trkpt><trkpt lat="44.83050993170027" lon="6.583008347613457"><ele>1209.0</ele><time>2026-04-18T13:12:52Z</time></trkpt><trkpt lat="44.83065085283154" lon="6.583129367869622"><ele>1209.0</ele><time>2026-04-18T13:12:53Z</time></trkpt><trkpt lat="44.83082355960857" lon="6.58316880131463"><ele>1209.0</ele><time>2026-04-18T13:12:54Z</time></trkpt><trkpt lat="44.830980297079925" lon="6.583213798240034"><ele>1206.3333333333333</ele><time>2026-04-18T13:12:55Z</time></trkpt><trkpt lat="44.83114466523466" lon="6.583244719647273"><ele>1203.6666666666665</ele><time>2026-04-18T13:12:56Z</time></trkpt><trkpt lat="44.83129934285117" lon="6.583234220789054"><ele>1201.0</ele><time>2026-04-18T13:12:57Z</time></trkpt><trkpt lat="44.83145043261627" lon="6.583212100896426"><ele>1201.0</ele><time>2026-04-18T13:12:58Z</time></trkpt><trkpt lat="44.83161568197917" lon="6.583210994788486"><ele>1201.0</ele><time>2026-04-18T13:12:59Z</time></trkpt><trkpt lat="44.831763213033085" lon="6.583198111942401"><ele>1201.0</ele><time>2026-04-18T13:13:00Z</time></trkpt><trkpt lat="44.83192836163609" lon="6.583194170566639"><ele>1198.3333333333333</ele><time>2026-04-18T13:13:01Z</time></trkpt><trkpt lat="44.832111441577446" lon="6.583184036444133"><ele>1195.6666666666667</ele><time>2026-04-18T13:13:02Z</time></trkpt><trkpt lat="44.832299862250856" lon="6.58319301309757"><ele>1193.0</ele><time>2026-04-18T13:13:03Z</time></trkpt><trkpt lat="44.832480270290255" lon="6.583187629564637"><ele>1189.0</ele><time>2026-04-18T13:13:04Z</time></trkpt><trkpt lat="44.83266752162397" lon="6.583193156681283"><ele>1185.0</ele><time>2026-04-18T13:13:05Z</time></trkpt><trkpt lat="44.83285459511985" lon="6.583204122726907"><ele>1181.0</ele><time>2026-04-18T13:13:06Z</time></trkpt><trkpt lat="44.83304391461433" lon="6.583230325122657"><ele>1181.0</ele><time>2026-04-18T13:13:07Z</time></trkpt><trkpt lat="44.833236400339956" lon="6.583286198861425"><ele>1181.0</ele><time>2026-04-18T13:13:08Z</time></trkpt><trkpt lat="44.83341773567471" lon="6.58334440712165"><ele>1181.0</ele><time>2026-04-18T13:13:09Z</time></trkpt><trkpt lat="44.83359878672458" lon="6.583424986609779"><ele>1178.3333333333335</ele><time>2026-04-18T13:13:10Z</time></trkpt><trkpt lat="44.833775976168276" lon="6.583492519960384"><ele>1175.6666666666667</ele><time>2026-04-18T13:13:11Z</time></trkpt><trkpt lat="44.83395851446726" lon="6.583563267770928"><ele>1173.0</ele><time>2026-04-18T13:13:12Z</time></trkpt><trkpt lat="44.834135554188855" lon="6.583633241781297"><ele>1175.6666666666667</ele><time>2026-04-18T13:13:13Z</time></trkpt><trkpt lat="44.83431061527279" lon="6.583714679828356"><ele>1178.3333333333335</ele><time>2026-04-18T13:13:14.001Z</time></trkpt><trkpt lat="44.83449024023014" lon="6.583784088633968"><ele>1181.0</ele><time>2026-04-18T13:13:15.001Z</time></trkpt><trkpt lat="44.834672592657014" lon="6.583860974194801"><ele>1181.0</ele><time>2026-04-18T13:13:16.001Z</time></trkpt><trkpt lat="44.83484865616245" lon="6.583939713898651"><ele>1181.0</ele><time>2026-04-18T13:13:17.001Z</time></trkpt><trkpt lat="44.835050326391695" lon="6.584013422549052"><ele>1181.0</ele><time>2026-04-18T13:13:18.001Z</time></trkpt><trkpt lat="44.83525565529687" lon="6.5840842251850615"><ele>1177.6666666666667</ele><time>2026-04-18T13:13:19.001Z</time></trkpt><trkpt lat="44.83545047302562" lon="6.584156439317851"><ele>1174.3333333333333</ele><time>2026-04-18T13:13:20.001Z</time></trkpt><trkpt lat="44.83564130041971" lon="6.584230446981356"><ele>1171.0</ele><time>2026-04-18T13:13:21.001Z</time></trkpt><trkpt lat="44.83584423494153" lon="6.58429199153293"><ele>1167.0</ele><time>2026-04-18T13:13:22.001Z</time></trkpt><trkpt lat="44.83604198947634" lon="6.584341219950486"><ele>1163.0</ele><time>2026-04-18T13:13:23.001Z</time></trkpt><trkpt lat="44.83625081256296" lon="6.5843734402338905"><ele>1159.0</ele><time>2026-04-18T13:13:24.001Z</time></trkpt><trkpt lat="44.83646359252124" lon="6.584395699566439"><ele>1159.0</ele><time>2026-04-18T13:13:25.001Z</time></trkpt><trkpt lat="44.836666940653345" lon="6.584392092761996"><ele>1159.0</ele><time>2026-04-18T13:13:26.001Z</time></trkpt><trkpt lat="44.83687850936167" lon="6.584375840024569"><ele>1159.0</ele><time>2026-04-18T13:13:27.001Z</time></trkpt><trkpt lat="44.83707530116455" lon="6.584353829773982"><ele>1157.0</ele><time>2026-04-18T13:13:28.001Z</time></trkpt><trkpt lat="44.837270562934926" lon="6.584334183664331"><ele>1155.0</ele><time>2026-04-18T13:13:29.001Z</time></trkpt><trkpt lat="44.837468932160775" lon="6.584327633581691"><ele>1153.0</ele><time>2026-04-18T13:13:30.001Z</time></trkpt><trkpt lat="44.837672254916534" lon="6.584304009201105"><ele>1150.0</ele><time>2026-04-18T13:13:31.001Z</time></trkpt><trkpt lat="44.83786986395991" lon="6.584298375610392"><ele>1147.0</ele><time>2026-04-18T13:13:32.001Z</time></trkpt><trkpt lat="44.838063770366084" lon="6.58429825497063"><ele>1144.0</ele><time>2026-04-18T13:13:33.001Z</time></trkpt><trkpt lat="44.83825881912325" lon="6.584282194784167"><ele>1144.0</ele><time>2026-04-18T13:13:34.001Z</time></trkpt><trkpt lat="44.83845479616265" lon="6.584274739475114"><ele>1144.0</ele><time>2026-04-18T13:13:35.001Z</time></trkpt><trkpt lat="44.83865971245267" lon="6.584276992385622"><ele>1144.0</ele><time>2026-04-18T13:13:36.001Z</time></trkpt><trkpt lat="44.838846918175555" lon="6.584285376729672"><ele>1143.3333333333333</ele><time>2026-04-18T13:13:37.001Z</time></trkpt><trkpt lat="44.83903111781643" lon="6.584297164507003"><ele>1142.6666666666667</ele><time>2026-04-18T13:13:38.001Z</time></trkpt><trkpt lat="44.83922673192164" lon="6.584328207254785"><ele>1142.0</ele><time>2026-04-18T13:13:39.001Z</time></trkpt><trkpt lat="44.83941526641183" lon="6.584339820704069"><ele>1142.0</ele><time>2026-04-18T13:13:40.001Z</time></trkpt><trkpt lat="44.8396057869434" lon="6.584349259318734"><ele>1142.0</ele><time>2026-04-18T13:13:41.001Z</time></trkpt><trkpt lat="44.83979263087119" lon="6.584344841485278"><ele>1142.0</ele><time>2026-04-18T13:13:42.001Z</time></trkpt><trkpt lat="44.839985126118634" lon="6.584340392670945"><ele>1143.3333333333335</ele><time>2026-04-18T13:13:43.001Z</time></trkpt><trkpt lat="44.840181054970415" lon="6.5843258148343065"><ele>1144.6666666666667</ele><time>2026-04-18T13:13:44.001Z</time></trkpt><trkpt lat="44.84038207646371" lon="6.584306452536388"><ele>1146.0</ele><time>2026-04-18T13:13:45.001Z</time></trkpt><trkpt lat="44.84058985606862" lon="6.5842477522244005"><ele>1146.0</ele><time>2026-04-18T13:13:46.001Z</time></trkpt><trkpt lat="44.8408005893487" lon="6.584186403381089"><ele>1146.0</ele><time>2026-04-18T13:13:47.001Z</time></trkpt><trkpt lat="44.841013770811585" lon="6.584084462536332"><ele>1146.0</ele><time>2026-04-18T13:13:48.001Z</time></trkpt><trkpt lat="44.8412218161177" lon="6.584007220134586"><ele>1148.3333333333333</ele><time>2026-04-18T13:13:49.001Z</time></trkpt><trkpt lat="44.84142145023027" lon="6.583875155722662"><ele>1150.6666666666665</ele><time>2026-04-18T13:13:50.001Z</time></trkpt><trkpt lat="44.841611528427755" lon="6.583736189509512"><ele>1153.0</ele><time>2026-04-18T13:13:51.001Z</time></trkpt><trkpt lat="44.84180698280778" lon="6.583629362531145"><ele>1153.0</ele><time>2026-04-18T13:13:52.001Z</time></trkpt><trkpt lat="44.841979977924346" lon="6.583492342912177"><ele>1153.0</ele><time>2026-04-18T13:13:53.001Z</time></trkpt><trkpt lat="44.84214499271451" lon="6.583350070899753"><ele>1153.0</ele><time>2026-04-18T13:13:54.001Z</time></trkpt><trkpt lat="44.842309687402526" lon="6.583209782728875"><ele>1153.0</ele><time>2026-04-18T13:13:55.001Z</time></trkpt><trkpt lat="44.84247189791676" lon="6.583074887363467"><ele>1153.0</ele><time>2026-04-18T13:13:56.001Z</time></trkpt><trkpt lat="44.84262629044218" lon="6.582951287409555"><ele>1153.0</ele><time>2026-04-18T13:13:57.001Z</time></trkpt><trkpt lat="44.84277607959524" lon="6.582846117324309"><ele>1153.0</ele><time>2026-04-18T13:13:58.001Z</time></trkpt><trkpt lat="44.842919786024964" lon="6.582764375136742"><ele>1153.0</ele><time>2026-04-18T13:13:59.001Z</time></trkpt><trkpt lat="44.843062774672276" lon="6.582693457336453"><ele>1153.0</ele><time>2026-04-18T13:14:00.001Z</time></trkpt><trkpt lat="44.84320727953558" lon="6.582631462718549"><ele>1153.0</ele><time>2026-04-18T13:14:01.001Z</time></trkpt><trkpt lat="44.84335717213721" lon="6.582586251308305"><ele>1153.0</ele><time>2026-04-18T13:14:02.001Z</time></trkpt><trkpt lat="44.84351426591529" lon="6.582532856231383"><ele>1153.0</ele><time>2026-04-18T13:14:03.001Z</time></trkpt><trkpt lat="44.84368074854794" lon="6.5825283232263425"><ele>1153.0</ele><time>2026-04-18T13:14:04.001Z</time></trkpt><trkpt lat="44.843839066989176" lon="6.582514256178162"><ele>1153.0</ele><time>2026-04-18T13:14:05.002Z</time></trkpt><trkpt lat="44.84400635654804" lon="6.582531066066401"><ele>1153.0</ele><time>2026-04-18T13:14:06.002Z</time></trkpt><trkpt lat="44.844174508505304" lon="6.582569822612273"><ele>1151.3333333333333</ele><time>2026-04-18T13:14:07.002Z</time></trkpt><trkpt lat="44.84433859620911" lon="6.582618276320862"><ele>1149.6666666666667</ele><time>2026-04-18T13:14:08.002Z</time></trkpt><trkpt lat="44.844499618701555" lon="6.582674043109808"><ele>1148.0</ele><time>2026-04-18T13:14:09.002Z</time></trkpt><trkpt lat="44.844659844281885" lon="6.5827382193108885"><ele>1148.0</ele><time>2026-04-18T13:14:10.002Z</time></trkpt><trkpt lat="44.844837516595575" lon="6.582829187350258"><ele>1148.0</ele><time>2026-04-18T13:14:11.002Z</time></trkpt><trkpt lat="44.845017463861595" lon="6.582928691551657"><ele>1148.0</ele><time>2026-04-18T13:14:12.002Z</time></trkpt><trkpt lat="44.845194598345444" lon="6.583014605439475"><ele>1149.3333333333335</ele><time>2026-04-18T13:14:13.002Z</time></trkpt><trkpt lat="44.845366402932484" lon="6.58309798592943"><ele>1150.6666666666667</ele><time>2026-04-18T13:14:14.002Z</time></trkpt><trkpt lat="44.845538852322534" lon="6.58318389769352"><ele>1152.0</ele><time>2026-04-18T13:14:15.002Z</time></trkpt><trkpt lat="44.84572089646537" lon="6.583250154657387"><ele>1152.0</ele><time>2026-04-18T13:14:16.002Z</time></trkpt><trkpt lat="44.84591458176783" lon="6.5833010991260545"><ele>1152.0</ele><time>2026-04-18T13:14:17.002Z</time></trkpt><trkpt lat="44.84609405078622" lon="6.583279148555232"><ele>1152.0</ele><time>2026-04-18T13:14:18.002Z</time></trkpt><trkpt lat="44.8462866988039" lon="6.583286883601018"><ele>1154.3333333333333</ele><time>2026-04-18T13:14:19.002Z</time></trkpt><trkpt lat="44.84647296904317" lon="6.583286486483311"><ele>1156.6666666666665</ele><time>2026-04-18T13:14:20.002Z</time></trkpt><trkpt lat="44.846667238814526" lon="6.583238329343969"><ele>1159.0</ele><time>2026-04-18T13:14:21.002Z</time></trkpt><trkpt lat="44.84684761704578" lon="6.583196375882209"><ele>1162.3333333333333</ele><time>2026-04-18T13:14:22.002Z</time></trkpt><trkpt lat="44.84702665255739" lon="6.5831671561751275"><ele>1165.6666666666667</ele><time>2026-04-18T13:14:23.002Z</time></trkpt><trkpt lat="44.847189044248665" lon="6.583137917749325"><ele>1169.0</ele><time>2026-04-18T13:14:24.002Z</time></trkpt><trkpt lat="44.847355044003194" lon="6.583116608089377"><ele>1169.0</ele><time>2026-04-18T13:14:25.002Z</time></trkpt><trkpt lat="44.84750192166464" lon="6.583079720448589"><ele>1169.0</ele><time>2026-04-18T13:14:26.002Z</time></trkpt><trkpt lat="44.84764762810781" lon="6.583057186627294"><ele>1169.0</ele><time>2026-04-18T13:14:27.002Z</time></trkpt><trkpt lat="44.84779922033616" lon="6.583058647900533"><ele>1169.0</ele><time>2026-04-18T13:14:28.002Z</time></trkpt><trkpt lat="44.847940090499506" lon="6.583038729137802"><ele>1172.75</ele><time>2026-04-18T13:14:29.002Z</time></trkpt><trkpt lat="44.84806475013218" lon="6.582965451102184"><ele>1176.5</ele><time>2026-04-18T13:14:30Z</time></trkpt><trkpt lat="44.84821065923452" lon="6.5829577275500535"><ele>1180.25</ele><time>2026-04-18T13:14:31Z</time></trkpt><trkpt lat="44.84835466706885" lon="6.582932933635761"><ele>1184.0</ele><time>2026-04-18T13:14:32Z</time></trkpt><trkpt lat="44.84850792791593" lon="6.582905547264247"><ele>1187.0</ele><time>2026-04-18T13:14:33Z</time></trkpt><trkpt lat="44.84866137404736" lon="6.582876696871379"><ele>1190.0</ele><time>2026-04-18T13:14:34Z</time></trkpt><trkpt lat="44.848830495483945" lon="6.582844200901775"><ele>1193.0</ele><time>2026-04-18T13:14:35Z</time></trkpt><trkpt lat="44.8489854222919" lon="6.582814432419579"><ele>1180.3333333333335</ele><time>2026-04-18T13:14:36Z</time></trkpt><trkpt lat="44.84913703805074" lon="6.582785300123089"><ele>1167.6666666666667</ele><time>2026-04-18T13:14:37Z</time></trkpt><trkpt lat="44.849292202219694" lon="6.582755690444303"><ele>1155.0</ele><time>2026-04-18T13:14:38Z</time></trkpt><trkpt lat="44.84944646788061" lon="6.582726283888196"><ele>1155.0</ele><time>2026-04-18T13:14:39Z</time></trkpt><trkpt lat="44.849602669641406" lon="6.5826963491681"><ele>1155.0</ele><time>2026-04-18T13:14:40Z</time></trkpt><trkpt lat="44.849751873257226" lon="6.582666847398097"><ele>1155.0</ele><time>2026-04-18T13:14:41Z</time></trkpt><trkpt lat="44.849912215320714" lon="6.582633503752542"><ele>1155.0</ele><time>2026-04-18T13:14:42Z</time></trkpt><trkpt lat="44.850072067846845" lon="6.582591873956192"><ele>1155.0</ele><time>2026-04-18T13:14:43Z</time></trkpt><trkpt lat="44.85022700785678" lon="6.582525386800361"><ele>1155.0</ele><time>2026-04-18T13:14:44Z</time></trkpt><trkpt lat="44.850382105387645" lon="6.5824888324044055"><ele>1152.75</ele><time>2026-04-18T13:14:45Z</time></trkpt><trkpt lat="44.85053099851613" lon="6.582415853136772"><ele>1150.5</ele><time>2026-04-18T13:14:46Z</time></trkpt><trkpt lat="44.850668192480676" lon="6.582341082409672"><ele>1148.25</ele><time>2026-04-18T13:14:47Z</time></trkpt><trkpt lat="44.850788656352805" lon="6.582304284050876"><ele>1146.0</ele><time>2026-04-18T13:14:48Z</time></trkpt><trkpt lat="44.850906841256844" lon="6.582256159411118"><ele>1146.75</ele><time>2026-04-18T13:14:49Z</time></trkpt><trkpt lat="44.85102724728414" lon="6.582207130203855"><ele>1147.5</ele><time>2026-04-18T13:14:50Z</time></trkpt><trkpt lat="44.85114131083205" lon="6.582136668329437"><ele>1148.25</ele><time>2026-04-18T13:14:51Z</time></trkpt><trkpt lat="44.85125539383196" lon="6.582093827563308"><ele>1149.0</ele><time>2026-04-18T13:14:52Z</time></trkpt><trkpt lat="44.85138418246757" lon="6.582094589687537"><ele>1149.0</ele><time>2026-04-18T13:14:53Z</time></trkpt><trkpt lat="44.851495364471646" lon="6.582040687637213"><ele>1149.0</ele><time>2026-04-18T13:14:54Z</time></trkpt><trkpt lat="44.85160622145657" lon="6.58200969278916"><ele>1149.0</ele><time>2026-04-18T13:14:55Z</time></trkpt><trkpt lat="44.85173354783602" lon="6.58199777910214"><ele>1149.0</ele><time>2026-04-18T13:14:56Z</time></trkpt><trkpt lat="44.85185650281965" lon="6.581991016469149"><ele>1151.25</ele><time>2026-04-18T13:14:57Z</time></trkpt><trkpt lat="44.85198226624355" lon="6.581995321883932"><ele>1153.5</ele><time>2026-04-18T13:14:58Z</time></trkpt><trkpt lat="44.852100351235215" lon="6.582049184982189"><ele>1155.75</ele><time>2026-04-18T13:14:59Z</time></trkpt><trkpt lat="44.852237975333495" lon="6.58210206604945"><ele>1158.0</ele><time>2026-04-18T13:15:00Z</time></trkpt><trkpt lat="44.852369197256735" lon="6.582147166078021"><ele>1158.0</ele><time>2026-04-18T13:15:01Z</time></trkpt><trkpt lat="44.85249946217876" lon="6.582242522225039"><ele>1158.0</ele><time>2026-04-18T13:15:02Z</time></trkpt><trkpt lat="44.85260544536385" lon="6.5823025726292625"><ele>1158.0</ele><time>2026-04-18T13:15:03Z</time></trkpt><trkpt lat="44.852717729773325" lon="6.582373404079868"><ele>1158.0</ele><time>2026-04-18T13:15:04Z</time></trkpt><trkpt lat="44.85281986421962" lon="6.582444188818401"><ele>1160.0</ele><time>2026-04-18T13:15:05Z</time></trkpt><trkpt lat="44.85292930649833" lon="6.582514588740555"><ele>1162.0</ele><time>2026-04-18T13:15:06Z</time></trkpt><trkpt lat="44.85301662565091" lon="6.582594364074453"><ele>1164.0</ele><time>2026-04-18T13:15:07Z</time></trkpt><trkpt lat="44.853124223141215" lon="6.582691698740425"><ele>1166.0</ele><time>2026-04-18T13:15:08Z</time></trkpt><trkpt lat="44.85319556260069" lon="6.582775696623614"><ele>1168.0</ele><time>2026-04-18T13:15:09Z</time></trkpt><trkpt lat="44.85329310748412" lon="6.582873595257556"><ele>1168.0</ele><time>2026-04-18T13:15:10Z</time></trkpt><trkpt lat="44.853380232080355" lon="6.58297196570171"><ele>1168.0</ele><time>2026-04-18T13:15:11Z</time></trkpt><trkpt lat="44.85347960369178" lon="6.58309423590678"><ele>1168.0</ele><time>2026-04-18T13:15:12.001Z</time></trkpt><trkpt lat="44.85357203243698" lon="6.583195702970414"><ele>1168.0</ele><time>2026-04-18T13:15:13.001Z</time></trkpt><trkpt lat="44.85367313458081" lon="6.583295667387878"><ele>1167.5</ele><time>2026-04-18T13:15:14.001Z</time></trkpt><trkpt lat="44.853774093716076" lon="6.583399889056164"><ele>1167.0</ele><time>2026-04-18T13:15:15.001Z</time></trkpt><trkpt lat="44.85386677396394" lon="6.583501524825123"><ele>1166.5</ele><time>2026-04-18T13:15:16.001Z</time></trkpt><trkpt lat="44.85396899089885" lon="6.5836118542696145"><ele>1166.0</ele><time>2026-04-18T13:15:17.001Z</time></trkpt><trkpt lat="44.85407980808766" lon="6.583722912177327"><ele>1166.0</ele><time>2026-04-18T13:15:18.001Z</time></trkpt><trkpt lat="44.854196729072946" lon="6.583845925980865"><ele>1166.0</ele><time>2026-04-18T13:15:19.001Z</time></trkpt><trkpt lat="44.85429192850285" lon="6.583942135750272"><ele>1166.0</ele><time>2026-04-18T13:15:20.001Z</time></trkpt><trkpt lat="44.85438004516462" lon="6.584064453701579"><ele>1166.0</ele><time>2026-04-18T13:15:21.001Z</time></trkpt><trkpt lat="44.85447715618901" lon="6.584180115822653"><ele>1166.75</ele><time>2026-04-18T13:15:22.001Z</time></trkpt><trkpt lat="44.85457094723075" lon="6.584290591924223"><ele>1167.5</ele><time>2026-04-18T13:15:23.001Z</time></trkpt><trkpt lat="44.854671210681886" lon="6.584411058522114"><ele>1168.25</ele><time>2026-04-18T13:15:24.001Z</time></trkpt><trkpt lat="44.854798897783404" lon="6.584521395396545"><ele>1169.0</ele><time>2026-04-18T13:15:25.001Z</time></trkpt><trkpt lat="44.85493520127357" lon="6.584645349576619"><ele>1168.5</ele><time>2026-04-18T13:15:26.001Z</time></trkpt><trkpt lat="44.855048739919006" lon="6.584766820057169"><ele>1168.0</ele><time>2026-04-18T13:15:27.001Z</time></trkpt><trkpt lat="44.85516102377904" lon="6.584889653089761"><ele>1167.5</ele><time>2026-04-18T13:15:28.001Z</time></trkpt><trkpt lat="44.85527711658731" lon="6.585010631766128"><ele>1167.0</ele><time>2026-04-18T13:15:29.001Z</time></trkpt><trkpt lat="44.85538416964742" lon="6.585131260924176"><ele>1167.0</ele><time>2026-04-18T13:15:30.001Z</time></trkpt><trkpt lat="44.85550402111216" lon="6.58524182596764"><ele>1167.0</ele><time>2026-04-18T13:15:31.001Z</time></trkpt><trkpt lat="44.85560843492779" lon="6.585364018056439"><ele>1167.0</ele><time>2026-04-18T13:15:32.001Z</time></trkpt><trkpt lat="44.85572860640804" lon="6.585482292564859"><ele>1167.0</ele><time>2026-04-18T13:15:33.001Z</time></trkpt><trkpt lat="44.855850385512056" lon="6.585617860154597"><ele>1166.3333333333333</ele><time>2026-04-18T13:15:34.001Z</time></trkpt><trkpt lat="44.85597623940393" lon="6.585747364766954"><ele>1165.6666666666665</ele><time>2026-04-18T13:15:35.001Z</time></trkpt><trkpt lat="44.856089214419605" lon="6.585876959771242"><ele>1165.0</ele><time>2026-04-18T13:15:36.001Z</time></trkpt><trkpt lat="44.85621107029188" lon="6.586003721189905"><ele>1165.0</ele><time>2026-04-18T13:15:37.001Z</time></trkpt><trkpt lat="44.85633635903352" lon="6.5861408377188"><ele>1165.0</ele><time>2026-04-18T13:15:38.001Z</time></trkpt><trkpt lat="44.85646577179623" lon="6.586282229669409"><ele>1165.0</ele><time>2026-04-18T13:15:39.001Z</time></trkpt><trkpt lat="44.85659337751452" lon="6.586424523318577"><ele>1162.3333333333333</ele><time>2026-04-18T13:15:40.001Z</time></trkpt><trkpt lat="44.85671318586749" lon="6.586565933423737"><ele>1159.6666666666667</ele><time>2026-04-18T13:15:41.001Z</time></trkpt><trkpt lat="44.85683522190124" lon="6.586690947488006"><ele>1157.0</ele><time>2026-04-18T13:15:42.001Z</time></trkpt><trkpt lat="44.856949790170646" lon="6.586816372217414"><ele>1156.75</ele><time>2026-04-18T13:15:43.001Z</time></trkpt><trkpt lat="44.8570683566944" lon="6.586939267707728"><ele>1156.5</ele><time>2026-04-18T13:15:44.001Z</time></trkpt><trkpt lat="44.85717990914048" lon="6.5870668970774"><ele>1156.25</ele><time>2026-04-18T13:15:45.001Z</time></trkpt><trkpt lat="44.85730588900753" lon="6.5871964815497055"><ele>1156.0</ele><time>2026-04-18T13:15:46.001Z</time></trkpt><trkpt lat="44.8574378438916" lon="6.587335664534279"><ele>1155.0</ele><time>2026-04-18T13:15:47.001Z</time></trkpt><trkpt lat="44.85758344950416" lon="6.58748292164176"><ele>1154.0</ele><time>2026-04-18T13:15:48.001Z</time></trkpt><trkpt lat="44.857730011028686" lon="6.587645914177423"><ele>1153.0</ele><time>2026-04-18T13:15:49.001Z</time></trkpt><trkpt lat="44.85788255058762" lon="6.58781268226309"><ele>1153.0</ele><time>2026-04-18T13:15:50.001Z</time></trkpt><trkpt lat="44.85803941156034" lon="6.587969519505153"><ele>1153.0</ele><time>2026-04-18T13:15:51.001Z</time></trkpt><trkpt lat="44.858196682943515" lon="6.588126258482261"><ele>1153.0</ele><time>2026-04-18T13:15:52.001Z</time></trkpt><trkpt lat="44.8583411168837" lon="6.588279944447267"><ele>1151.6666666666665</ele><time>2026-04-18T13:15:53.001Z</time></trkpt><trkpt lat="44.85846451353673" lon="6.588424903979375"><ele>1150.3333333333333</ele><time>2026-04-18T13:15:54.001Z</time></trkpt><trkpt lat="44.8586039419033" lon="6.588581140716276"><ele>1149.0</ele><time>2026-04-18T13:15:55.001Z</time></trkpt><trkpt lat="44.85873078398696" lon="6.5887189875723635"><ele>1149.0</ele><time>2026-04-18T13:15:56.001Z</time></trkpt><trkpt lat="44.858862232297625" lon="6.58886054318761"><ele>1149.0</ele><time>2026-04-18T13:15:57.001Z</time></trkpt><trkpt lat="44.858981439952636" lon="6.588988667937747"><ele>1149.0</ele><time>2026-04-18T13:15:58.001Z</time></trkpt><trkpt lat="44.85910494826063" lon="6.58912141516613"><ele>1149.0</ele><time>2026-04-18T13:15:59.001Z</time></trkpt><trkpt lat="44.85924079473315" lon="6.589240143722095"><ele>1149.0</ele><time>2026-04-18T13:16:00.001Z</time></trkpt><trkpt lat="44.85934728108335" lon="6.589409895011715"><ele>1149.0</ele><time>2026-04-18T13:16:01.001Z</time></trkpt><trkpt lat="44.85947641696929" lon="6.589556929131104"><ele>1149.3333333333333</ele><time>2026-04-18T13:16:02.002Z</time></trkpt><trkpt lat="44.8596248822386" lon="6.589684741192297"><ele>1149.6666666666665</ele><time>2026-04-18T13:16:03.002Z</time></trkpt><trkpt lat="44.85976524240953" lon="6.589830835182498"><ele>1150.0</ele><time>2026-04-18T13:16:04.002Z</time></trkpt><trkpt lat="44.85991303624823" lon="6.589987729930103"><ele>1150.0</ele><time>2026-04-18T13:16:05.002Z</time></trkpt><trkpt lat="44.86005058924781" lon="6.590142772084859"><ele>1150.0</ele><time>2026-04-18T13:16:06.002Z</time></trkpt><trkpt lat="44.860180042228755" lon="6.590293455846693"><ele>1150.0</ele><time>2026-04-18T13:16:07.002Z</time></trkpt><trkpt lat="44.86031335879179" lon="6.590441641137919"><ele>1151.6666666666665</ele><time>2026-04-18T13:16:08.002Z</time></trkpt><trkpt lat="44.86043469033142" lon="6.590612348947794"><ele>1153.3333333333333</ele><time>2026-04-18T13:16:09.002Z</time></trkpt><trkpt lat="44.860564510951725" lon="6.590799153700165"><ele>1155.0</ele><time>2026-04-18T13:16:10.002Z</time></trkpt><trkpt lat="44.860678083626794" lon="6.5910000429976865"><ele>1155.0</ele><time>2026-04-18T13:16:11.002Z</time></trkpt><trkpt lat="44.860778997727046" lon="6.591236656330881"><ele>1155.0</ele><time>2026-04-18T13:16:12.002Z</time></trkpt><trkpt lat="44.86089483448277" lon="6.591426937475241"><ele>1155.0</ele><time>2026-04-18T13:16:13.002Z</time></trkpt><trkpt lat="44.860993721804036" lon="6.5916193883244345"><ele>1155.3333333333333</ele><time>2026-04-18T13:16:14.002Z</time></trkpt><trkpt lat="44.86106464742163" lon="6.591813439563302"><ele>1155.6666666666665</ele><time>2026-04-18T13:16:15.002Z</time></trkpt><trkpt lat="44.861149159663256" lon="6.592004726829561"><ele>1156.0</ele><time>2026-04-18T13:16:16.002Z</time></trkpt><trkpt lat="44.861236327280594" lon="6.5921838411072295"><ele>1156.5</ele><time>2026-04-18T13:16:17.002Z</time></trkpt><trkpt lat="44.86131985740777" lon="6.5923555618726395"><ele>1157.0</ele><time>2026-04-18T13:16:18.002Z</time></trkpt><trkpt lat="44.861400177155204" lon="6.59252807180942"><ele>1157.5</ele><time>2026-04-18T13:16:19.002Z</time></trkpt><trkpt lat="44.86149023057877" lon="6.59269432147825"><ele>1158.0</ele><time>2026-04-18T13:16:20.002Z</time></trkpt><trkpt lat="44.86159292147245" lon="6.592863504009892"><ele>1158.0</ele><time>2026-04-18T13:16:21.002Z</time></trkpt><trkpt lat="44.861680216779654" lon="6.593031538855849"><ele>1158.0</ele><time>2026-04-18T13:16:22.002Z</time></trkpt><trkpt lat="44.861771559164296" lon="6.593200840992521"><ele>1158.0</ele><time>2026-04-18T13:16:23.002Z</time></trkpt><trkpt lat="44.86185402647482" lon="6.593371555898345"><ele>1158.0</ele><time>2026-04-18T13:16:24.002Z</time></trkpt><trkpt lat="44.861937128136475" lon="6.593550897221731"><ele>1159.5</ele><time>2026-04-18T13:16:25.002Z</time></trkpt><trkpt lat="44.86203144538264" lon="6.593713621967279"><ele>1161.0</ele><time>2026-04-18T13:16:26.002Z</time></trkpt><trkpt lat="44.86211495809713" lon="6.593882993066427"><ele>1162.5</ele><time>2026-04-18T13:16:27.002Z</time></trkpt><trkpt lat="44.862197135416366" lon="6.5940500221753195"><ele>1164.0</ele><time>2026-04-18T13:16:28.002Z</time></trkpt><trkpt lat="44.86228556965671" lon="6.594206638146164"><ele>1164.0</ele><time>2026-04-18T13:16:29.002Z</time></trkpt><trkpt lat="44.86235945318773" lon="6.59436754545388"><ele>1164.0</ele><time>2026-04-18T13:16:30.002Z</time></trkpt><trkpt lat="44.86244608631305" lon="6.594522890458872"><ele>1164.0</ele><time>2026-04-18T13:16:31.002Z</time></trkpt><trkpt lat="44.86252924261711" lon="6.594685456727809"><ele>1164.0</ele><time>2026-04-18T13:16:32.002Z</time></trkpt><trkpt lat="44.86263204228965" lon="6.594856984257216"><ele>1166.3333333333333</ele><time>2026-04-18T13:16:33.002Z</time></trkpt><trkpt lat="44.86271840731712" lon="6.5950224537287"><ele>1168.6666666666665</ele><time>2026-04-18T13:16:34.002Z</time></trkpt><trkpt lat="44.86279983936628" lon="6.595209841241349"><ele>1171.0</ele><time>2026-04-18T13:16:35.002Z</time></trkpt><trkpt lat="44.86289023193738" lon="6.595388119495614"><ele>1171.0</ele><time>2026-04-18T13:16:36Z</time></trkpt><trkpt lat="44.862978287666195" lon="6.595560539315825"><ele>1171.0</ele><time>2026-04-18T13:16:37Z</time></trkpt><trkpt lat="44.86306485729051" lon="6.595745819345577"><ele>1171.0</ele><time>2026-04-18T13:16:38Z</time></trkpt><trkpt lat="44.86315381344728" lon="6.595914488966127"><ele>1171.0</ele><time>2026-04-18T13:16:39Z</time></trkpt><trkpt lat="44.86323462662213" lon="6.596070848812998"><ele>1171.0</ele><time>2026-04-18T13:16:40Z</time></trkpt><trkpt lat="44.86331736318919" lon="6.596227954100663"><ele>1171.0</ele><time>2026-04-18T13:16:41Z</time></trkpt><trkpt lat="44.86338643943691" lon="6.596397574139663"><ele>1171.0</ele><time>2026-04-18T13:16:42Z</time></trkpt><trkpt lat="44.86346797260549" lon="6.596551937523986"><ele>1172.25</ele><time>2026-04-18T13:16:43Z</time></trkpt><trkpt lat="44.86354874747499" lon="6.596708270452177"><ele>1173.5</ele><time>2026-04-18T13:16:44Z</time></trkpt><trkpt lat="44.863624029915016" lon="6.596857719882442"><ele>1174.75</ele><time>2026-04-18T13:16:45Z</time></trkpt><trkpt lat="44.863712284753376" lon="6.597012565947321"><ele>1176.0</ele><time>2026-04-18T13:16:46Z</time></trkpt><trkpt lat="44.863798534544316" lon="6.597167788407157"><ele>1176.0</ele><time>2026-04-18T13:16:47Z</time></trkpt><trkpt lat="44.86388187412839" lon="6.597331087022685"><ele>1176.0</ele><time>2026-04-18T13:16:48Z</time></trkpt><trkpt lat="44.8639670758275" lon="6.597492861907411"><ele>1176.0</ele><time>2026-04-18T13:16:49Z</time></trkpt><trkpt lat="44.8640465772107" lon="6.5976540519445335"><ele>1176.0</ele><time>2026-04-18T13:16:50Z</time></trkpt><trkpt lat="44.864133730637825" lon="6.59781860414695"><ele>1176.0</ele><time>2026-04-18T13:16:51Z</time></trkpt><trkpt lat="44.86422739744192" lon="6.597985854589129"><ele>1176.0</ele><time>2026-04-18T13:16:52Z</time></trkpt><trkpt lat="44.86431927164219" lon="6.598176441844698"><ele>1176.0</ele><time>2026-04-18T13:16:53Z</time></trkpt><trkpt lat="44.864412723327455" lon="6.598354612261676"><ele>1176.0</ele><time>2026-04-18T13:16:54Z</time></trkpt><trkpt lat="44.86451468992251" lon="6.598536049016744"><ele>1176.0</ele><time>2026-04-18T13:16:55Z</time></trkpt><trkpt lat="44.86462149643685" lon="6.598717333333993"><ele>1176.0</ele><time>2026-04-18T13:16:56Z</time></trkpt><trkpt lat="44.86473532914202" lon="6.598898226045343"><ele>1176.0</ele><time>2026-04-18T13:16:57Z</time></trkpt><trkpt lat="44.86485860645566" lon="6.599071814875731"><ele>1176.0</ele><time>2026-04-18T13:16:58Z</time></trkpt><trkpt lat="44.864993749846136" lon="6.599221663303495"><ele>1176.0</ele><time>2026-04-18T13:16:59Z</time></trkpt><trkpt lat="44.86512819598145" lon="6.599392172276939"><ele>1176.3333333333333</ele><time>2026-04-18T13:17:00Z</time></trkpt><trkpt lat="44.865263722087754" lon="6.599548439654911"><ele>1176.6666666666665</ele><time>2026-04-18T13:17:01Z</time></trkpt><trkpt lat="44.865403743966766" lon="6.599690231819917"><ele>1177.0</ele><time>2026-04-18T13:17:02Z</time></trkpt><trkpt lat="44.86553543435215" lon="6.599823862603588"><ele>1177.0</ele><time>2026-04-18T13:17:03Z</time></trkpt><trkpt lat="44.865636779956446" lon="6.599938296210941"><ele>1177.0</ele><time>2026-04-18T13:17:04Z</time></trkpt><trkpt lat="44.86576465985342" lon="6.600055260811906"><ele>1177.0</ele><time>2026-04-18T13:17:05Z</time></trkpt><trkpt lat="44.86590189269062" lon="6.600158702617021"><ele>1177.0</ele><time>2026-04-18T13:17:06Z</time></trkpt><trkpt lat="44.866042127947026" lon="6.6002549788592635"><ele>1175.6666666666665</ele><time>2026-04-18T13:17:07Z</time></trkpt><trkpt lat="44.86618281329083" lon="6.600356008697557"><ele>1174.3333333333333</ele><time>2026-04-18T13:17:08Z</time></trkpt><trkpt lat="44.86635305709157" lon="6.6004419367570515"><ele>1173.0</ele><time>2026-04-18T13:17:09Z</time></trkpt><trkpt lat="44.86649982439635" lon="6.600542323738718"><ele>1173.0</ele><time>2026-04-18T13:17:10Z</time></trkpt><trkpt lat="44.86664484942228" lon="6.600651827087394"><ele>1173.0</ele><time>2026-04-18T13:17:11.001Z</time></trkpt><trkpt lat="44.866795128573784" lon="6.600749107739848"><ele>1173.0</ele><time>2026-04-18T13:17:12.001Z</time></trkpt><trkpt lat="44.86693144106407" lon="6.600855211537127"><ele>1173.6666666666667</ele><time>2026-04-18T13:17:13.001Z</time></trkpt><trkpt lat="44.86707231296398" lon="6.600960873174197"><ele>1174.3333333333335</ele><time>2026-04-18T13:17:14.001Z</time></trkpt><trkpt lat="44.86719869200828" lon="6.60107348043052"><ele>1175.0</ele><time>2026-04-18T13:17:15.001Z</time></trkpt><trkpt lat="44.867318968567204" lon="6.601184221800875"><ele>1175.3333333333335</ele><time>2026-04-18T13:17:16.001Z</time></trkpt><trkpt lat="44.86743661174688" lon="6.601298432590185"><ele>1175.6666666666667</ele><time>2026-04-18T13:17:17.001Z</time></trkpt><trkpt lat="44.867587087755886" lon="6.60139377701202"><ele>1176.0</ele><time>2026-04-18T13:17:18.001Z</time></trkpt><trkpt lat="44.8677322691711" lon="6.601513452310335"><ele>1176.0</ele><time>2026-04-18T13:17:19.001Z</time></trkpt><trkpt lat="44.8678651877521" lon="6.601640217687687"><ele>1176.0</ele><time>2026-04-18T13:17:20.001Z</time></trkpt><trkpt lat="44.86801370493548" lon="6.601765778946611"><ele>1176.0</ele><time>2026-04-18T13:17:21.001Z</time></trkpt><trkpt lat="44.868154458258445" lon="6.601898009211861"><ele>1175.6666666666667</ele><time>2026-04-18T13:17:22.001Z</time></trkpt><trkpt lat="44.868299937932925" lon="6.602033052125347"><ele>1175.3333333333335</ele><time>2026-04-18T13:17:23.001Z</time></trkpt><trkpt lat="44.86843401695968" lon="6.602159279418464"><ele>1175.0</ele><time>2026-04-18T13:17:24.001Z</time></trkpt><trkpt lat="44.86857832645046" lon="6.602295671468049"><ele>1175.0</ele><time>2026-04-18T13:17:25.001Z</time></trkpt><trkpt lat="44.86870568066186" lon="6.602450731394279"><ele>1175.0</ele><time>2026-04-18T13:17:26.001Z</time></trkpt><trkpt lat="44.86883214917445" lon="6.602603282169824"><ele>1175.0</ele><time>2026-04-18T13:17:27.001Z</time></trkpt><trkpt lat="44.868943931458666" lon="6.60276636212341"><ele>1173.0</ele><time>2026-04-18T13:17:28.001Z</time></trkpt><trkpt lat="44.86905503946946" lon="6.602920524268822"><ele>1171.0</ele><time>2026-04-18T13:17:29.001Z</time></trkpt><trkpt lat="44.86916624307363" lon="6.603077571525749"><ele>1169.0</ele><time>2026-04-18T13:17:30.001Z</time></trkpt><trkpt lat="44.869262068726094" lon="6.60324713741187"><ele>1170.3333333333335</ele><time>2026-04-18T13:17:31.001Z</time></trkpt><trkpt lat="44.869362018641475" lon="6.603426766007379"><ele>1171.6666666666667</ele><time>2026-04-18T13:17:32.001Z</time></trkpt><trkpt lat="44.86944779265146" lon="6.603614801499911"><ele>1173.0</ele><time>2026-04-18T13:17:33.001Z</time></trkpt><trkpt lat="44.86954822391629" lon="6.6038119330347795"><ele>1173.0</ele><time>2026-04-18T13:17:34.001Z</time></trkpt><trkpt lat="44.86965153717849" lon="6.603993576980406"><ele>1173.0</ele><time>2026-04-18T13:17:35.001Z</time></trkpt><trkpt lat="44.86973678267325" lon="6.604191377418501"><ele>1173.0</ele><time>2026-04-18T13:17:36.001Z</time></trkpt><trkpt lat="44.86983121162415" lon="6.604396636839981"><ele>1172.3333333333333</ele><time>2026-04-18T13:17:37.001Z</time></trkpt><trkpt lat="44.86992956963488" lon="6.604608493215352"><ele>1171.6666666666665</ele><time>2026-04-18T13:17:38.001Z</time></trkpt><trkpt lat="44.87003950343435" lon="6.604803788364112"><ele>1171.0</ele><time>2026-04-18T13:17:39.001Z</time></trkpt><trkpt lat="44.87013931221679" lon="6.605006486986076"><ele>1171.0</ele><time>2026-04-18T13:17:40.001Z</time></trkpt><trkpt lat="44.87025338682471" lon="6.605195601203196"><ele>1171.0</ele><time>2026-04-18T13:17:41.001Z</time></trkpt><trkpt lat="44.8703537613393" lon="6.605380779306796"><ele>1171.0</ele><time>2026-04-18T13:17:42.001Z</time></trkpt><trkpt lat="44.870446812034515" lon="6.605566504188642"><ele>1170.6666666666665</ele><time>2026-04-18T13:17:43.001Z</time></trkpt><trkpt lat="44.8705501923672" lon="6.605750370650941"><ele>1170.3333333333333</ele><time>2026-04-18T13:17:44.001Z</time></trkpt><trkpt lat="44.87064588437197" lon="6.605935933326275"><ele>1170.0</ele><time>2026-04-18T13:17:45.001Z</time></trkpt><trkpt lat="44.8707537784972" lon="6.606120841476232"><ele>1170.3333333333333</ele><time>2026-04-18T13:17:46.001Z</time></trkpt><trkpt lat="44.87085462845162" lon="6.606299575336749"><ele>1170.6666666666665</ele><time>2026-04-18T13:17:47.001Z</time></trkpt><trkpt lat="44.87095157072159" lon="6.606485556020458"><ele>1171.0</ele><time>2026-04-18T13:17:48.001Z</time></trkpt><trkpt lat="44.871062398012405" lon="6.606679902674893"><ele>1170.3333333333333</ele><time>2026-04-18T13:17:49.001Z</time></trkpt><trkpt lat="44.87116442736767" lon="6.606887918493185"><ele>1169.6666666666667</ele><time>2026-04-18T13:17:50.001Z</time></trkpt><trkpt lat="44.87127667461597" lon="6.607094278224003"><ele>1169.0</ele><time>2026-04-18T13:17:51.001Z</time></trkpt><trkpt lat="44.87138617229891" lon="6.607313742188481"><ele>1169.0</ele><time>2026-04-18T13:17:52.001Z</time></trkpt><trkpt lat="44.8714817526693" lon="6.607549961067987"><ele>1169.0</ele><time>2026-04-18T13:17:53.001Z</time></trkpt><trkpt lat="44.8715666837274" lon="6.607792037816026"><ele>1169.0</ele><time>2026-04-18T13:17:54.001Z</time></trkpt><trkpt lat="44.8716575762871" lon="6.608034763515945"><ele>1169.6666666666667</ele><time>2026-04-18T13:17:55.001Z</time></trkpt><trkpt lat="44.87173394659808" lon="6.60827868805484"><ele>1170.3333333333333</ele><time>2026-04-18T13:17:56.001Z</time></trkpt><trkpt lat="44.87180766739771" lon="6.6085225695994865"><ele>1171.0</ele><time>2026-04-18T13:17:57.001Z</time></trkpt><trkpt lat="44.87187952741103" lon="6.608755839088049"><ele>1171.6666666666665</ele><time>2026-04-18T13:17:58.001Z</time></trkpt><trkpt lat="44.871949797314315" lon="6.608982377541174"><ele>1172.3333333333333</ele><time>2026-04-18T13:17:59.001Z</time></trkpt><trkpt lat="44.872015955307056" lon="6.609214498292688"><ele>1173.0</ele><time>2026-04-18T13:18:00.001Z</time></trkpt><trkpt lat="44.87209160980397" lon="6.609446142617333"><ele>1172.6666666666667</ele><time>2026-04-18T13:18:01.001Z</time></trkpt><trkpt lat="44.872168845201365" lon="6.609680491900464"><ele>1172.3333333333335</ele><time>2026-04-18T13:18:02.001Z</time></trkpt><trkpt lat="44.872245501548164" lon="6.609919988361836"><ele>1172.0</ele><time>2026-04-18T13:18:03.002Z</time></trkpt><trkpt lat="44.87232207710617" lon="6.610158511762942"><ele>1171.3333333333335</ele><time>2026-04-18T13:18:04.002Z</time></trkpt><trkpt lat="44.87239952320009" lon="6.6103876558304675"><ele>1170.6666666666667</ele><time>2026-04-18T13:18:05.002Z</time></trkpt><trkpt lat="44.87247494077692" lon="6.610619037517541"><ele>1170.0</ele><time>2026-04-18T13:18:06.002Z</time></trkpt><trkpt lat="44.87254846919804" lon="6.610844567713119"><ele>1171.0</ele><time>2026-04-18T13:18:07.002Z</time></trkpt><trkpt lat="44.872633892088146" lon="6.61108353147627"><ele>1172.0</ele><time>2026-04-18T13:18:08.002Z</time></trkpt><trkpt lat="44.87271936074637" lon="6.611341192188957"><ele>1173.0</ele><time>2026-04-18T13:18:09.002Z</time></trkpt><trkpt lat="44.87281359398584" lon="6.611620031506619"><ele>1173.0</ele><time>2026-04-18T13:18:10.002Z</time></trkpt><trkpt lat="44.872905510106264" lon="6.611935640814004"><ele>1173.0</ele><time>2026-04-18T13:18:11.002Z</time></trkpt><trkpt lat="44.87301556862704" lon="6.612278765827713"><ele>1173.5</ele><time>2026-04-18T13:18:12.002Z</time></trkpt><trkpt lat="44.873110370335304" lon="6.612606146687627"><ele>1174.0</ele><time>2026-04-18T13:18:13.002Z</time></trkpt><trkpt lat="44.87320606542415" lon="6.612922482206311"><ele>1174.0</ele><time>2026-04-18T13:18:14.002Z</time></trkpt><trkpt lat="44.87330864298265" lon="6.6132595722101986"><ele>1174.0</ele><time>2026-04-18T13:18:15.002Z</time></trkpt><trkpt lat="44.87341350539751" lon="6.6135809961892775"><ele>1174.5</ele><time>2026-04-18T13:18:16.002Z</time></trkpt><trkpt lat="44.873496807326724" lon="6.613904074556418"><ele>1175.0</ele><time>2026-04-18T13:18:17.002Z</time></trkpt><trkpt lat="44.87358310086339" lon="6.6141879492947355"><ele>1175.0</ele><time>2026-04-18T13:18:18.002Z</time></trkpt><trkpt lat="44.8736771663609" lon="6.614442742613769"><ele>1175.0</ele><time>2026-04-18T13:18:19.002Z</time></trkpt><trkpt lat="44.87375194514941" lon="6.6146981662749305"><ele>1175.0</ele><time>2026-04-18T13:18:20.002Z</time></trkpt><trkpt lat="44.87382819905626" lon="6.614914867132637"><ele>1175.0</ele><time>2026-04-18T13:18:21.002Z</time></trkpt><trkpt lat="44.87390527967535" lon="6.6151327885906674"><ele>1175.0</ele><time>2026-04-18T13:18:22.002Z</time></trkpt><trkpt lat="44.87397139120727" lon="6.615343507827637"><ele>1175.0</ele><time>2026-04-18T13:18:23.002Z</time></trkpt><trkpt lat="44.87407416024465" lon="6.615533026309424"><ele>1175.0</ele><time>2026-04-18T13:18:24.002Z</time></trkpt><trkpt lat="44.874181972306395" lon="6.615724511488074"><ele>1175.0</ele><time>2026-04-18T13:18:25.002Z</time></trkpt><trkpt lat="44.87430467363234" lon="6.615914729236945"><ele>1175.0</ele><time>2026-04-18T13:18:26.002Z</time></trkpt><trkpt lat="44.874421402873004" lon="6.616108746152554"><ele>1175.5</ele><time>2026-04-18T13:18:27.002Z</time></trkpt><trkpt lat="44.874563915428496" lon="6.616337068397395"><ele>1176.0</ele><time>2026-04-18T13:18:28.002Z</time></trkpt><trkpt lat="44.874720003393556" lon="6.616592253948827"><ele>1176.0</ele><time>2026-04-18T13:18:29.002Z</time></trkpt><trkpt lat="44.87491434118069" lon="6.616831345102439"><ele>1176.0</ele><time>2026-04-18T13:18:30.002Z</time></trkpt><trkpt lat="44.87512727416848" lon="6.617057977631771"><ele>1177.0</ele><time>2026-04-18T13:18:31.002Z</time></trkpt><trkpt lat="44.87536252290851" lon="6.617257684362176"><ele>1178.0</ele><time>2026-04-18T13:18:32.002Z</time></trkpt><trkpt lat="44.87560834955089" lon="6.617422478092861"><ele>1178.0</ele><time>2026-04-18T13:18:33.002Z</time></trkpt><trkpt lat="44.875875083204" lon="6.617550065543274"><ele>1178.0</ele><time>2026-04-18T13:18:34.002Z</time></trkpt><trkpt lat="44.876135213725604" lon="6.617644220979877"><ele>1179.5</ele><time>2026-04-18T13:18:35.002Z</time></trkpt><trkpt lat="44.876387298963" lon="6.617730114826853"><ele>1181.0</ele><time>2026-04-18T13:18:36.002Z</time></trkpt><trkpt lat="44.87665231714832" lon="6.61780920248879"><ele>1180.0</ele><time>2026-04-18T13:18:37.002Z</time></trkpt><trkpt lat="44.876918770578264" lon="6.617903329604288"><ele>1179.0</ele><time>2026-04-18T13:18:38.002Z</time></trkpt><trkpt lat="44.877214134716006" lon="6.617978189228531"><ele>1179.0</ele><time>2026-04-18T13:18:39.002Z</time></trkpt><trkpt lat="44.877487226721925" lon="6.618054161049667"><ele>1179.0</ele><time>2026-04-18T13:18:40.002Z</time></trkpt><trkpt lat="44.877766434335555" lon="6.618135137903043"><ele>1180.0</ele><time>2026-04-18T13:18:41.002Z</time></trkpt><trkpt lat="44.87804523719085" lon="6.618272702592469"><ele>1181.0</ele><time>2026-04-18T13:18:42Z</time></trkpt><trkpt lat="44.87831735915424" lon="6.618407537136863"><ele>1181.0</ele><time>2026-04-18T13:18:43Z</time></trkpt><trkpt lat="44.87853492287903" lon="6.618531268564582"><ele>1181.0</ele><time>2026-04-18T13:18:44Z</time></trkpt><trkpt lat="44.87878358766887" lon="6.618690766886894"><ele>1181.0</ele><time>2026-04-18T13:18:45Z</time></trkpt><trkpt lat="44.879013129835485" lon="6.61885565692394"><ele>1181.0</ele><time>2026-04-18T13:18:46Z</time></trkpt><trkpt lat="44.87926184444678" lon="6.619037305447332"><ele>1181.0</ele><time>2026-04-18T13:18:47Z</time></trkpt><trkpt lat="44.87947890396673" lon="6.619246978287914"><ele>1181.0</ele><time>2026-04-18T13:18:48Z</time></trkpt><trkpt lat="44.87968890375289" lon="6.61944192773125"><ele>1180.5</ele><time>2026-04-18T13:18:49Z</time></trkpt><trkpt lat="44.879891308181044" lon="6.619634374003727"><ele>1180.0</ele><time>2026-04-18T13:18:50Z</time></trkpt><trkpt lat="44.880070398568044" lon="6.619801686945895"><ele>1181.3333333333333</ele><time>2026-04-18T13:18:51Z</time></trkpt><trkpt lat="44.88024297382813" lon="6.619965531801604"><ele>1182.6666666666667</ele><time>2026-04-18T13:18:52Z</time></trkpt><trkpt lat="44.88040569932817" lon="6.6201200637537205"><ele>1184.0</ele><time>2026-04-18T13:18:53Z</time></trkpt><trkpt lat="44.88054691598531" lon="6.62025321951908"><ele>1184.0</ele><time>2026-04-18T13:18:54Z</time></trkpt><trkpt lat="44.88066429999346" lon="6.6203642806020175"><ele>1184.0</ele><time>2026-04-18T13:18:55Z</time></trkpt><trkpt lat="44.88077070157572" lon="6.620465694250455"><ele>1184.0</ele><time>2026-04-18T13:18:56Z</time></trkpt><trkpt lat="44.88086109699077" lon="6.6205518520735875"><ele>1184.0</ele><time>2026-04-18T13:18:57Z</time></trkpt><trkpt lat="44.88093767021189" lon="6.620624835666292"><ele>1184.8333333333335</ele><time>2026-04-18T13:18:58Z</time></trkpt><trkpt lat="44.8809992203782" lon="6.620683500455649"><ele>1185.6666666666667</ele><time>2026-04-18T13:18:59Z</time></trkpt><trkpt lat="44.881100115994315" lon="6.620791161587191"><ele>1186.5</ele><time>2026-04-18T13:19:01Z</time></trkpt><trkpt lat="44.881111783246894" lon="6.6209004812306205"><ele>1187.3333333333333</ele><time>2026-04-18T13:19:02Z</time></trkpt><trkpt lat="44.881141720366905" lon="6.620983810169634"><ele>1188.1666666666665</ele><time>2026-04-18T13:19:03Z</time></trkpt><trkpt lat="44.881210964168446" lon="6.621028883943566"><ele>1189.0</ele><time>2026-04-18T13:19:04Z</time></trkpt><trkpt lat="44.88128813859708" lon="6.621038163943353"><ele>1189.0</ele><time>2026-04-18T13:19:05Z</time></trkpt><trkpt lat="44.88136116730422" lon="6.62105256331624"><ele>1189.0</ele><time>2026-04-18T13:19:06Z</time></trkpt><trkpt lat="44.88144395498532" lon="6.621073563085755"><ele>1189.0</ele><time>2026-04-18T13:19:07Z</time></trkpt><trkpt lat="44.88154270680116" lon="6.6211042776635045"><ele>1189.0</ele><time>2026-04-18T13:19:08Z</time></trkpt><trkpt lat="44.88166828377845" lon="6.621173996363255"><ele>1189.0</ele><time>2026-04-18T13:19:09Z</time></trkpt><trkpt lat="44.88179981966087" lon="6.621228645761158"><ele>1189.3333333333333</ele><time>2026-04-18T13:19:10Z</time></trkpt><trkpt lat="44.8819180238551" lon="6.621318977938743"><ele>1189.6666666666667</ele><time>2026-04-18T13:19:11Z</time></trkpt><trkpt lat="44.88206459940411" lon="6.621426047662881"><ele>1190.0</ele><time>2026-04-18T13:19:12Z</time></trkpt><trkpt lat="44.88224285699644" lon="6.621504562748771"><ele>1190.0</ele><time>2026-04-18T13:19:13Z</time></trkpt><trkpt lat="44.882383255724214" lon="6.621594010835055"><ele>1190.0</ele><time>2026-04-18T13:19:14Z</time></trkpt><trkpt lat="44.88255558042207" lon="6.621703928956143"><ele>1190.0</ele><time>2026-04-18T13:19:15.001Z</time></trkpt><trkpt lat="44.882710950260694" lon="6.621812087295524"><ele>1189.3333333333335</ele><time>2026-04-18T13:19:16.001Z</time></trkpt><trkpt lat="44.88288467874377" lon="6.621923721214488"><ele>1188.6666666666667</ele><time>2026-04-18T13:19:17.001Z</time></trkpt><trkpt lat="44.8830434850726" lon="6.6220632323935416"><ele>1188.0</ele><time>2026-04-18T13:19:18.001Z</time></trkpt><trkpt lat="44.88319481783223" lon="6.622172303991662"><ele>1188.0</ele><time>2026-04-18T13:19:19.001Z</time></trkpt><trkpt lat="44.883345649705085" lon="6.622279828235957"><ele>1188.0</ele><time>2026-04-18T13:19:20.001Z</time></trkpt><trkpt lat="44.88350154210236" lon="6.622378275406004"><ele>1188.0</ele><time>2026-04-18T13:19:21.001Z</time></trkpt><trkpt lat="44.883666151082146" lon="6.622490308388651"><ele>1188.0</ele><time>2026-04-18T13:19:22.001Z</time></trkpt><trkpt lat="44.8838282880631" lon="6.622601213481827"><ele>1188.0</ele><time>2026-04-18T13:19:23.001Z</time></trkpt><trkpt lat="44.88397116518963" lon="6.622727926003786"><ele>1188.0</ele><time>2026-04-18T13:19:24.001Z</time></trkpt><trkpt lat="44.88411234272036" lon="6.622829646816369"><ele>1191.6666666666667</ele><time>2026-04-18T13:19:25.001Z</time></trkpt><trkpt lat="44.88426818908473" lon="6.622942621761865"><ele>1195.3333333333335</ele><time>2026-04-18T13:19:26.001Z</time></trkpt><trkpt lat="44.88443205408661" lon="6.623065641494901"><ele>1199.0</ele><time>2026-04-18T13:19:27.001Z</time></trkpt><trkpt lat="44.88460522647042" lon="6.623197752383632"><ele>1199.0</ele><time>2026-04-18T13:19:28.001Z</time></trkpt><trkpt lat="44.884776686534984" lon="6.623335021376673"><ele>1199.0</ele><time>2026-04-18T13:19:29.001Z</time></trkpt><trkpt lat="44.884944561044016" lon="6.623472986070286"><ele>1199.0</ele><time>2026-04-18T13:19:30.001Z</time></trkpt><trkpt lat="44.88510798017974" lon="6.623609590831903"><ele>1198.6666666666667</ele><time>2026-04-18T13:19:31.001Z</time></trkpt><trkpt lat="44.88527807825573" lon="6.623753905252161"><ele>1198.3333333333333</ele><time>2026-04-18T13:19:32.001Z</time></trkpt><trkpt lat="44.88544098288356" lon="6.623890921906465"><ele>1198.0</ele><time>2026-04-18T13:19:33.001Z</time></trkpt><trkpt lat="44.885597081722835" lon="6.624019992959345"><ele>1198.0</ele><time>2026-04-18T13:19:34.001Z</time></trkpt><trkpt lat="44.88575173858972" lon="6.624128493436841"><ele>1198.0</ele><time>2026-04-18T13:19:35.001Z</time></trkpt><trkpt lat="44.88589329474397" lon="6.624282887834537"><ele>1198.0</ele><time>2026-04-18T13:19:36.001Z</time></trkpt><trkpt lat="44.88605362965093" lon="6.624413964518288"><ele>1197.0</ele><time>2026-04-18T13:19:37.001Z</time></trkpt><trkpt lat="44.886224702273424" lon="6.624536756343264"><ele>1196.0</ele><time>2026-04-18T13:19:38.001Z</time></trkpt><trkpt lat="44.886381612532276" lon="6.624675478436677"><ele>1195.0</ele><time>2026-04-18T13:19:39.001Z</time></trkpt><trkpt lat="44.88654657975012" lon="6.624809386944629"><ele>1195.0</ele><time>2026-04-18T13:19:40.001Z</time></trkpt><trkpt lat="44.88670218227527" lon="6.62494585749056"><ele>1195.0</ele><time>2026-04-18T13:19:41.001Z</time></trkpt><trkpt lat="44.886849993923065" lon="6.625060986813017"><ele>1195.0</ele><time>2026-04-18T13:19:42.001Z</time></trkpt><trkpt lat="44.886987987963074" lon="6.6252158675722574"><ele>1194.6666666666665</ele><time>2026-04-18T13:19:43.001Z</time></trkpt><trkpt lat="44.88712516540185" lon="6.625346917243469"><ele>1194.3333333333333</ele><time>2026-04-18T13:19:44.001Z</time></trkpt><trkpt lat="44.8872727600712" lon="6.625492522591159"><ele>1194.0</ele><time>2026-04-18T13:19:45.001Z</time></trkpt><trkpt lat="44.88741080060811" lon="6.625627830152911"><ele>1194.0</ele><time>2026-04-18T13:19:46.001Z</time></trkpt><trkpt lat="44.88755136149033" lon="6.625742979905"><ele>1194.0</ele><time>2026-04-18T13:19:47.001Z</time></trkpt><trkpt lat="44.887695927728906" lon="6.62585631078392"><ele>1194.0</ele><time>2026-04-18T13:19:48.001Z</time></trkpt><trkpt lat="44.88784059863548" lon="6.625963595312587"><ele>1194.3333333333333</ele><time>2026-04-18T13:19:49.001Z</time></trkpt><trkpt lat="44.88800711581016" lon="6.626063673702545"><ele>1194.6666666666665</ele><time>2026-04-18T13:19:50.001Z</time></trkpt><trkpt lat="44.888163267130324" lon="6.626152606583815"><ele>1195.0</ele><time>2026-04-18T13:19:51.001Z</time></trkpt><trkpt lat="44.888334597699966" lon="6.626243902964082"><ele>1197.3333333333333</ele><time>2026-04-18T13:19:52.001Z</time></trkpt><trkpt lat="44.888516405801184" lon="6.626333533221706"><ele>1199.6666666666667</ele><time>2026-04-18T13:19:53.001Z</time></trkpt><trkpt lat="44.88868600869993" lon="6.626445176373581"><ele>1202.0</ele><time>2026-04-18T13:19:54.001Z</time></trkpt><trkpt lat="44.88886246367097" lon="6.626549830297664"><ele>1202.0</ele><time>2026-04-18T13:19:55.001Z</time></trkpt><trkpt lat="44.889028566356465" lon="6.626649050092254"><ele>1202.0</ele><time>2026-04-18T13:19:56.001Z</time></trkpt><trkpt lat="44.88920581228986" lon="6.6267549261985215"><ele>1202.0</ele><time>2026-04-18T13:19:57.001Z</time></trkpt><trkpt lat="44.88936230816942" lon="6.626850484365856"><ele>1200.6666666666667</ele><time>2026-04-18T13:19:58.001Z</time></trkpt><trkpt lat="44.88950464196166" lon="6.626945899026266"><ele>1199.3333333333333</ele><time>2026-04-18T13:19:59.001Z</time></trkpt><trkpt lat="44.88966376453045" lon="6.627064625875155"><ele>1198.0</ele><time>2026-04-18T13:20:00.001Z</time></trkpt><trkpt lat="44.88981285219203" lon="6.627198809906595"><ele>1198.0</ele><time>2026-04-18T13:20:01.001Z</time></trkpt><trkpt lat="44.88996609909745" lon="6.627347258053834"><ele>1198.0</ele><time>2026-04-18T13:20:02.001Z</time></trkpt><trkpt lat="44.89012831410058" lon="6.62750482196323"><ele>1198.0</ele><time>2026-04-18T13:20:03.001Z</time></trkpt><trkpt lat="44.89026893764633" lon="6.627641264354766"><ele>1198.3333333333333</ele><time>2026-04-18T13:20:04.001Z</time></trkpt><trkpt lat="44.89041672075671" lon="6.627787796864474"><ele>1198.6666666666667</ele><time>2026-04-18T13:20:05.001Z</time></trkpt><trkpt lat="44.890564068209926" lon="6.627933898316207"><ele>1199.0</ele><time>2026-04-18T13:20:06.001Z</time></trkpt><trkpt lat="44.89069709785629" lon="6.628067443955232"><ele>1199.0</ele><time>2026-04-18T13:20:07.002Z</time></trkpt><trkpt lat="44.89083369977405" lon="6.62820557511754"><ele>1199.0</ele><time>2026-04-18T13:20:08.002Z</time></trkpt><trkpt lat="44.890969128728116" lon="6.628344414080772"><ele>1199.0</ele><time>2026-04-18T13:20:09.002Z</time></trkpt><trkpt lat="44.891061280171655" lon="6.628437714462813"><ele>1199.0</ele><time>2026-04-18T13:20:10.002Z</time></trkpt><trkpt lat="44.89120130973672" lon="6.628550044080216"><ele>1199.6666666666667</ele><time>2026-04-18T13:20:11.002Z</time></trkpt><trkpt lat="44.89131921503883" lon="6.628689938781102"><ele>1200.3333333333333</ele><time>2026-04-18T13:20:12.002Z</time></trkpt><trkpt lat="44.8914597658816" lon="6.628811595488227"><ele>1201.0</ele><time>2026-04-18T13:20:13.002Z</time></trkpt><trkpt lat="44.89160337108416" lon="6.628905266515482"><ele>1201.0</ele><time>2026-04-18T13:20:14.002Z</time></trkpt><trkpt lat="44.89174289956856" lon="6.629018383206005"><ele>1201.0</ele><time>2026-04-18T13:20:15.002Z</time></trkpt><trkpt lat="44.891883948774044" lon="6.629149455060496"><ele>1201.0</ele><time>2026-04-18T13:20:16.002Z</time></trkpt><trkpt lat="44.89203123002015" lon="6.629237355948228"><ele>1200.3333333333333</ele><time>2026-04-18T13:20:17.002Z</time></trkpt><trkpt lat="44.89216733998438" lon="6.629337277775353"><ele>1199.6666666666667</ele><time>2026-04-18T13:20:18.002Z</time></trkpt><trkpt lat="44.892319484437905" lon="6.629412358695766"><ele>1199.0</ele><time>2026-04-18T13:20:19.002Z</time></trkpt><trkpt lat="44.89246773087025" lon="6.629477499625514"><ele>1199.75</ele><time>2026-04-18T13:20:20.002Z</time></trkpt><trkpt lat="44.89261362923527" lon="6.629504361012015"><ele>1200.5</ele><time>2026-04-18T13:20:21.002Z</time></trkpt><trkpt lat="44.892759733779464" lon="6.629554664057567"><ele>1201.25</ele><time>2026-04-18T13:20:22.002Z</time></trkpt><trkpt lat="44.89288837806639" lon="6.629624327550136"><ele>1202.0</ele><time>2026-04-18T13:20:23.002Z</time></trkpt><trkpt lat="44.89302472489906" lon="6.6296505552075"><ele>1202.0</ele><time>2026-04-18T13:20:24.002Z</time></trkpt><trkpt lat="44.89314476477984" lon="6.629680388992732"><ele>1202.0</ele><time>2026-04-18T13:20:25.002Z</time></trkpt><trkpt lat="44.89326985640209" lon="6.629740547212178"><ele>1202.0</ele><time>2026-04-18T13:20:26.002Z</time></trkpt><trkpt lat="44.893361547172375" lon="6.629791501049931"><ele>1202.0</ele><time>2026-04-18T13:20:27.002Z</time></trkpt><trkpt lat="44.893496700278284" lon="6.629829809464927"><ele>1203.2</ele><time>2026-04-18T13:20:28.002Z</time></trkpt><trkpt lat="44.893587109481466" lon="6.629877783887378"><ele>1204.4</ele><time>2026-04-18T13:20:29.002Z</time></trkpt><trkpt lat="44.89367879772225" lon="6.629917314674907"><ele>1205.6</ele><time>2026-04-18T13:20:30.002Z</time></trkpt><trkpt lat="44.89376975420151" lon="6.629934346436476"><ele>1206.8</ele><time>2026-04-18T13:20:31.002Z</time></trkpt><trkpt lat="44.89387635723477" lon="6.629981185023448"><ele>1208.0</ele><time>2026-04-18T13:20:32.002Z</time></trkpt><trkpt lat="44.89399190562695" lon="6.630016173101347"><ele>1208.0</ele><time>2026-04-18T13:20:33.002Z</time></trkpt><trkpt lat="44.89413179586127" lon="6.6300404541959805"><ele>1208.0</ele><time>2026-04-18T13:20:34.002Z</time></trkpt><trkpt lat="44.894257520470006" lon="6.630089764945007"><ele>1208.0</ele><time>2026-04-18T13:20:35.002Z</time></trkpt><trkpt lat="44.89435826059294" lon="6.630139180061672"><ele>1208.0</ele><time>2026-04-18T13:20:36.002Z</time></trkpt><trkpt lat="44.89445134229818" lon="6.630168643983297"><ele>1208.6</ele><time>2026-04-18T13:20:37.002Z</time></trkpt><trkpt lat="44.894544148081735" lon="6.630187385281443"><ele>1209.1999999999998</ele><time>2026-04-18T13:20:38.002Z</time></trkpt><trkpt lat="44.8946295017129" lon="6.630178880093705"><ele>1209.8</ele><time>2026-04-18T13:20:39.002Z</time></trkpt><trkpt lat="44.89470796979998" lon="6.6301903599215395"><ele>1210.3999999999999</ele><time>2026-04-18T13:20:40.002Z</time></trkpt><trkpt lat="44.89480824226107" lon="6.630105952333545"><ele>1211.0</ele><time>2026-04-18T13:21:16Z</time></trkpt><trkpt lat="44.89488149342099" lon="6.6300639849908505"><ele>1211.0</ele><time>2026-04-18T13:21:17Z</time></trkpt><trkpt lat="44.89494036712401" lon="6.630023360807787"><ele>1211.0</ele><time>2026-04-18T13:21:18Z</time></trkpt><trkpt lat="44.895017442653256" lon="6.629969413334668"><ele>1211.0</ele><time>2026-04-18T13:21:19Z</time></trkpt><trkpt lat="44.89509746133969" lon="6.629956067510868"><ele>1211.0</ele><time>2026-04-18T13:21:20Z</time></trkpt><trkpt lat="44.895158735294046" lon="6.629888920582551"><ele>1211.0</ele><time>2026-04-18T13:21:21Z</time></trkpt><trkpt lat="44.89524239657012" lon="6.629837197328814"><ele>1211.0</ele><time>2026-04-18T13:21:22Z</time></trkpt><trkpt lat="44.89535265980819" lon="6.629815427164242"><ele>1210.25</ele><time>2026-04-18T13:21:23Z</time></trkpt><trkpt lat="44.895480253888024" lon="6.629804652010154"><ele>1209.5</ele><time>2026-04-18T13:21:24Z</time></trkpt><trkpt lat="44.895623673940435" lon="6.629694269943674"><ele>1208.75</ele><time>2026-04-18T13:21:25Z</time></trkpt><trkpt lat="44.89571793517148" lon="6.629637063089264"><ele>1208.0</ele><time>2026-04-18T13:21:26Z</time></trkpt><trkpt lat="44.895868982496665" lon="6.629581575660336"><ele>1208.0</ele><time>2026-04-18T13:21:27Z</time></trkpt><trkpt lat="44.896021932659096" lon="6.629537221176745"><ele>1208.0</ele><time>2026-04-18T13:21:28Z</time></trkpt><trkpt lat="44.89617528324802" lon="6.629485512629765"><ele>1208.0</ele><time>2026-04-18T13:21:29Z</time></trkpt><trkpt lat="44.89632708309269" lon="6.629417981994792"><ele>1212.3333333333335</ele><time>2026-04-18T13:21:30Z</time></trkpt><trkpt lat="44.89648792026098" lon="6.629400534402678"><ele>1216.6666666666667</ele><time>2026-04-18T13:21:31Z</time></trkpt><trkpt lat="44.8966907991906" lon="6.629463813466505"><ele>1221.0</ele><time>2026-04-18T13:21:32Z</time></trkpt><trkpt lat="44.89684828408475" lon="6.629441523357447"><ele>1221.0</ele><time>2026-04-18T13:21:33Z</time></trkpt><trkpt lat="44.89699224385558" lon="6.62942026877441"><ele>1221.0</ele><time>2026-04-18T13:21:34.001Z</time></trkpt><trkpt lat="44.89711060302229" lon="6.629397102587728"><ele>1221.0</ele><time>2026-04-18T13:21:35.001Z</time></trkpt><trkpt lat="44.89725610158579" lon="6.629366896230837"><ele>1221.0</ele><time>2026-04-18T13:21:36.001Z</time></trkpt><trkpt lat="44.89738478041205" lon="6.629341258171842"><ele>1221.0</ele><time>2026-04-18T13:21:37.001Z</time></trkpt><trkpt lat="44.89752620765979" lon="6.629309450598417"><ele>1221.0</ele><time>2026-04-18T13:21:38.001Z</time></trkpt><trkpt lat="44.8976634777091" lon="6.629296716900907"><ele>1221.0</ele><time>2026-04-18T13:21:39.001Z</time></trkpt><trkpt lat="44.897808963092736" lon="6.629284145465876"><ele>1221.0</ele><time>2026-04-18T13:21:40.001Z</time></trkpt><trkpt lat="44.89795129785042" lon="6.629205615855693"><ele>1219.5</ele><time>2026-04-18T13:21:41.001Z</time></trkpt><trkpt lat="44.89803516618711" lon="6.628949395596848"><ele>1218.0</ele><time>2026-04-18T13:21:42.001Z</time></trkpt><trkpt lat="44.89811584670408" lon="6.628808558370155"><ele>1216.5</ele><time>2026-04-18T13:21:43.001Z</time></trkpt><trkpt lat="44.89820954368085" lon="6.628712050324448"><ele>1215.0</ele><time>2026-04-18T13:21:44.001Z</time></trkpt><trkpt lat="44.89828309942155" lon="6.628631286926698"><ele>1215.4</ele><time>2026-04-18T13:21:45.001Z</time></trkpt><trkpt lat="44.89835495964939" lon="6.628576144164"><ele>1215.8</ele><time>2026-04-18T13:21:47.001Z</time></trkpt><trkpt lat="44.89845659801722" lon="6.62865498942701"><ele>1216.2</ele><time>2026-04-18T13:21:48.001Z</time></trkpt><trkpt lat="44.89850972263155" lon="6.628711897535554"><ele>1216.6</ele><time>2026-04-18T13:21:49.001Z</time></trkpt><trkpt lat="44.89859246443043" lon="6.628805896713557"><ele>1217.0</ele><time>2026-04-18T13:21:50.001Z</time></trkpt><trkpt lat="44.89867911573047" lon="6.628927776420522"><ele>1217.0</ele><time>2026-04-18T13:21:51.001Z</time></trkpt><trkpt lat="44.898783670437496" lon="6.629046298995672"><ele>1217.0</ele><time>2026-04-18T13:21:52.001Z</time></trkpt><trkpt lat="44.898902631751014" lon="6.629171295173661"><ele>1217.0</ele><time>2026-04-18T13:21:53.001Z</time></trkpt><trkpt lat="44.89906035768396" lon="6.629301633086316"><ele>1217.0</ele><time>2026-04-18T13:21:54.001Z</time></trkpt><trkpt lat="44.89920107090836" lon="6.62944463350528"><ele>1217.0</ele><time>2026-04-18T13:21:55.001Z</time></trkpt><trkpt lat="44.89934164535996" lon="6.6295977417643215"><ele>1217.0</ele><time>2026-04-18T13:21:56.001Z</time></trkpt><trkpt lat="44.89944084519613" lon="6.629720219495166"><ele>1221.75</ele><time>2026-04-18T13:21:57.001Z</time></trkpt><trkpt lat="44.8994944727978" lon="6.62987236603294"><ele>1226.5</ele><time>2026-04-18T13:21:58.001Z</time></trkpt><trkpt lat="44.899558463609026" lon="6.6300156400555075"><ele>1231.25</ele><time>2026-04-18T13:21:59.001Z</time></trkpt><trkpt lat="44.8996002390617" lon="6.630181497567437"><ele>1236.0</ele><time>2026-04-18T13:22:00.001Z</time></trkpt><trkpt lat="44.89957308555842" lon="6.630348442369674"><ele>1236.0</ele><time>2026-04-18T13:22:01.001Z</time></trkpt><trkpt lat="44.89953560440595" lon="6.630524886330256"><ele>1236.0</ele><time>2026-04-18T13:22:02.001Z</time></trkpt><trkpt lat="44.899491450875324" lon="6.630713008310893"><ele>1236.0</ele><time>2026-04-18T13:22:03.001Z</time></trkpt><trkpt lat="44.899445970934785" lon="6.630909186996241"><ele>1236.0</ele><time>2026-04-18T13:22:04.001Z</time></trkpt><trkpt lat="44.899434844423446" lon="6.631084299623417"><ele>1234.0</ele><time>2026-04-18T13:22:05.001Z</time></trkpt><trkpt lat="44.899430330259015" lon="6.631229502389314"><ele>1232.0</ele><time>2026-04-18T13:22:06.001Z</time></trkpt><trkpt lat="44.89944329179663" lon="6.631363332241844"><ele>1230.0</ele><time>2026-04-18T13:22:07.001Z</time></trkpt><trkpt lat="44.89949590260254" lon="6.631460182825516"><ele>1228.0</ele><time>2026-04-18T13:22:08.001Z</time></trkpt><trkpt lat="44.89958504954856" lon="6.631450989508888"><ele>1226.0</ele><time>2026-04-18T13:22:10.001Z</time></trkpt><trkpt lat="44.89964838011941" lon="6.63150869246024"><ele>1226.0</ele><time>2026-04-18T13:22:11.001Z</time></trkpt><trkpt lat="44.899868467500106" lon="6.631504170176912"><ele>1226.0</ele><time>2026-04-18T13:22:12.001Z</time></trkpt><trkpt lat="44.90006980737691" lon="6.631472612413311"><ele>1226.0</ele><time>2026-04-18T13:22:13.001Z</time></trkpt><trkpt lat="44.900261123740165" lon="6.631442497746005"><ele>1226.0</ele><time>2026-04-18T13:22:14.001Z</time></trkpt><trkpt lat="44.90045826098875" lon="6.631416157708196"><ele>1226.0</ele><time>2026-04-18T13:22:15.001Z</time></trkpt><trkpt lat="44.90070225214775" lon="6.631372024419118"><ele>1226.0</ele><time>2026-04-18T13:22:16.001Z</time></trkpt><trkpt lat="44.900907928629636" lon="6.63135169038277"><ele>1228.6666666666667</ele><time>2026-04-18T13:22:17.001Z</time></trkpt><trkpt lat="44.901094435128975" lon="6.6313223193874435"><ele>1231.3333333333333</ele><time>2026-04-18T13:22:18.001Z</time></trkpt><trkpt lat="44.901271138362496" lon="6.631300810339565"><ele>1234.0</ele><time>2026-04-18T13:22:19.001Z</time></trkpt><trkpt lat="44.90143483111892" lon="6.631283705344104"><ele>1234.0</ele><time>2026-04-18T13:22:20.001Z</time></trkpt><trkpt lat="44.90159415500573" lon="6.631296165737888"><ele>1234.0</ele><time>2026-04-18T13:22:21.001Z</time></trkpt><trkpt lat="44.901710286267814" lon="6.63135352602081"><ele>1234.0</ele><time>2026-04-18T13:22:22.001Z</time></trkpt><trkpt lat="44.901765065607684" lon="6.631429701811713"><ele>1234.0</ele><time>2026-04-18T13:22:23.001Z</time></trkpt><trkpt lat="44.90191237191767" lon="6.631438853641842"><ele>1235.75</ele><time>2026-04-18T13:22:24.002Z</time></trkpt><trkpt lat="44.90203091037493" lon="6.631431715253351"><ele>1237.5</ele><time>2026-04-18T13:22:25.002Z</time></trkpt><trkpt lat="44.90216135571093" lon="6.631452142207142"><ele>1239.25</ele><time>2026-04-18T13:22:26.002Z</time></trkpt><trkpt lat="44.90227431244823" lon="6.63147055409931"><ele>1241.0</ele><time>2026-04-18T13:22:27.002Z</time></trkpt><trkpt lat="44.90240092246585" lon="6.6315087660640275"><ele>1241.0</ele><time>2026-04-18T13:22:28.002Z</time></trkpt><trkpt lat="44.902470402387515" lon="6.631521988374196"><ele>1241.0</ele><time>2026-04-18T13:22:29.002Z</time></trkpt><trkpt lat="44.90253227265177" lon="6.631480542213727"><ele>1241.0</ele><time>2026-04-18T13:22:30.002Z</time></trkpt><trkpt lat="44.90252549680543" lon="6.631361459073809"><ele>1241.0</ele><time>2026-04-18T13:22:33.002Z</time></trkpt><trkpt lat="44.902607037146346" lon="6.631286379670446"><ele>1241.0</ele><time>2026-04-18T13:22:45.002Z</time></trkpt><trkpt lat="44.90269679378104" lon="6.631194068079545"><ele>1241.0</ele><time>2026-04-18T13:22:47.002Z</time></trkpt><trkpt lat="44.90275502013398" lon="6.631129093884897"><ele>1242.1666666666667</ele><time>2026-04-18T13:22:48.002Z</time></trkpt><trkpt lat="44.90280253350704" lon="6.631070134444676"><ele>1243.3333333333335</ele><time>2026-04-18T13:22:49.002Z</time></trkpt><trkpt lat="44.902857716266304" lon="6.630999611989493"><ele>1244.5</ele><time>2026-04-18T13:22:50.002Z</time></trkpt><trkpt lat="44.902946591848384" lon="6.63088738851584"><ele>1245.6666666666667</ele><time>2026-04-18T13:22:52.002Z</time></trkpt><trkpt lat="44.90300395349937" lon="6.630802509566079"><ele>1246.8333333333333</ele><time>2026-04-18T13:22:54Z</time></trkpt><trkpt lat="44.90306511945845" lon="6.630747365347714"><ele>1248.0</ele><time>2026-04-18T13:22:56Z</time></trkpt><trkpt lat="44.903133429968534" lon="6.630666017997832"><ele>1248.0</ele><time>2026-04-18T13:22:58Z</time></trkpt><trkpt lat="44.903211190955716" lon="6.630571345300139"><ele>1248.0</ele><time>2026-04-18T13:23:00Z</time></trkpt><trkpt lat="44.90327205514966" lon="6.630460465613353"><ele>1248.0</ele><time>2026-04-18T13:23:02Z</time></trkpt><trkpt lat="44.903338228184325" lon="6.630359222691787"><ele>1248.0</ele><time>2026-04-18T13:23:04Z</time></trkpt><trkpt lat="44.90344087068265" lon="6.63030039194596"><ele>1248.0</ele><time>2026-04-18T13:23:06Z</time></trkpt><trkpt lat="44.903555565071436" lon="6.630252726996555"><ele>1248.8333333333333</ele><time>2026-04-18T13:23:08Z</time></trkpt><trkpt lat="44.903626580681774" lon="6.630170820625017"><ele>1249.6666666666667</ele><time>2026-04-18T13:23:10Z</time></trkpt><trkpt lat="44.90357424087023" lon="6.6300370514817715"><ele>1250.5</ele><time>2026-04-18T13:23:11Z</time></trkpt><trkpt lat="44.90352819427451" lon="6.62996917634071"><ele>1251.3333333333335</ele><time>2026-04-18T13:23:12Z</time></trkpt><trkpt lat="44.90345667863521" lon="6.6298982377709015"><ele>1252.1666666666667</ele><time>2026-04-18T13:23:13Z</time></trkpt><trkpt lat="44.903451184901535" lon="6.6297735937997615"><ele>1253.0</ele><time>2026-04-18T13:23:14Z</time></trkpt><trkpt lat="44.90343051846134" lon="6.629655378718548"><ele>1253.0</ele><time>2026-04-18T13:23:15Z</time></trkpt><trkpt lat="44.90340997636885" lon="6.629543327928532"><ele>1253.0</ele><time>2026-04-18T13:23:16Z</time></trkpt><trkpt lat="44.90340835615115" lon="6.629402682196207"><ele>1253.0</ele><time>2026-04-18T13:23:17Z</time></trkpt><trkpt lat="44.90342217876983" lon="6.6292762798286535"><ele>1253.0</ele><time>2026-04-18T13:23:18Z</time></trkpt><trkpt lat="44.90343787243367" lon="6.629171398574548"><ele>1253.0</ele><time>2026-04-18T13:23:19Z</time></trkpt><trkpt lat="44.90345375581056" lon="6.62908383902366"><ele>1253.0</ele><time>2026-04-18T13:23:20Z</time></trkpt><trkpt lat="44.90347970976753" lon="6.628950278511475"><ele>1253.0</ele><time>2026-04-18T13:23:22Z</time></trkpt><trkpt lat="44.90351196594571" lon="6.628837475254628"><ele>1253.0</ele><time>2026-04-18T13:23:24Z</time></trkpt><trkpt lat="44.90353988660121" lon="6.628739942709174"><ele>1253.0</ele><time>2026-04-18T13:23:27Z</time></trkpt><trkpt lat="44.90359652842002" lon="6.628641921750043"><ele>1253.0</ele><time>2026-04-18T13:23:30Z</time></trkpt><trkpt lat="44.90363120694361" lon="6.628563353257945"><ele>1253.0</ele><time>2026-04-18T13:23:33Z</time></trkpt><trkpt lat="44.903690483972255" lon="6.628444420241997"><ele>1253.0</ele><time>2026-04-18T13:23:44.001Z</time></trkpt><trkpt lat="44.903804155507515" lon="6.628366787828953"><ele>1252.8</ele><time>2026-04-18T13:23:46.001Z</time></trkpt><trkpt lat="44.90390137263459" lon="6.62826910427191"><ele>1252.6</ele><time>2026-04-18T13:23:48.001Z</time></trkpt><trkpt lat="44.903955666776575" lon="6.628220863506111"><ele>1252.4</ele><time>2026-04-18T13:23:49.001Z</time></trkpt><trkpt lat="44.904087300705235" lon="6.628127311290628"><ele>1252.2</ele><time>2026-04-18T13:23:51.001Z</time></trkpt><trkpt lat="44.904188758371845" lon="6.628077709405527"><ele>1252.0</ele><time>2026-04-18T13:23:52.001Z</time></trkpt><trkpt lat="44.90428167648966" lon="6.628036968493503"><ele>1252.6</ele><time>2026-04-18T13:23:53.001Z</time></trkpt><trkpt lat="44.904366864565404" lon="6.627965025018324"><ele>1253.2</ele><time>2026-04-18T13:23:54.001Z</time></trkpt><trkpt lat="44.9044693960415" lon="6.62796648241649"><ele>1253.8</ele><time>2026-04-18T13:23:55.001Z</time></trkpt><trkpt lat="44.90457187733054" lon="6.627974821924159"><ele>1254.4</ele><time>2026-04-18T13:23:56.001Z</time></trkpt><trkpt lat="44.904675143818785" lon="6.627988620254442"><ele>1255.0</ele><time>2026-04-18T13:23:57.001Z</time></trkpt><trkpt lat="44.904775417468" lon="6.628010270198918"><ele>1255.0</ele><time>2026-04-18T13:23:58.001Z</time></trkpt><trkpt lat="44.90486282716317" lon="6.628060502124799"><ele>1255.0</ele><time>2026-04-18T13:23:59.001Z</time></trkpt><trkpt lat="44.90496977011152" lon="6.62814461349456"><ele>1255.0</ele><time>2026-04-18T13:24:00.001Z</time></trkpt><trkpt lat="44.905076282197776" lon="6.6282228788669"><ele>1255.0</ele><time>2026-04-18T13:24:01.001Z</time></trkpt><trkpt lat="44.90516713807354" lon="6.628290810009462"><ele>1255.0</ele><time>2026-04-18T13:24:02.001Z</time></trkpt><trkpt lat="44.905245799842525" lon="6.628364170971835"><ele>1256.8</ele><time>2026-04-18T13:24:03.001Z</time></trkpt><trkpt lat="44.90528725908065" lon="6.628463432013785"><ele>1258.6</ele><time>2026-04-18T13:24:04.001Z</time></trkpt><trkpt lat="44.90535398171014" lon="6.628552319518269"><ele>1260.4</ele><time>2026-04-18T13:24:05.001Z</time></trkpt><trkpt lat="44.90543087210746" lon="6.628646463981992"><ele>1262.2</ele><time>2026-04-18T13:24:06.001Z</time></trkpt><trkpt lat="44.905481800653" lon="6.6287555182199505"><ele>1264.0</ele><time>2026-04-18T13:24:07.001Z</time></trkpt><trkpt lat="44.90553289451903" lon="6.628866710274914"><ele>1264.8</ele><time>2026-04-18T13:24:08.001Z</time></trkpt><trkpt lat="44.90559008723534" lon="6.62893451334646"><ele>1265.6000000000001</ele><time>2026-04-18T13:24:09.001Z</time></trkpt><trkpt lat="44.905582174939106" lon="6.629128213552631"><ele>1266.4</ele><time>2026-04-18T13:24:10.001Z</time></trkpt><trkpt lat="44.90559424702212" lon="6.629265316304836"><ele>1267.2</ele><time>2026-04-18T13:24:11.001Z</time></trkpt><trkpt lat="44.90560014233515" lon="6.629408945879846"><ele>1268.0</ele><time>2026-04-18T13:24:12.001Z</time></trkpt><trkpt lat="44.90561022444961" lon="6.629552818236024"><ele>1269.5</ele><time>2026-04-18T13:24:13.001Z</time></trkpt><trkpt lat="44.90561409288621" lon="6.629720399520085"><ele>1271.0</ele><time>2026-04-18T13:24:14.001Z</time></trkpt><trkpt lat="44.905605600701335" lon="6.629893656903798"><ele>1272.5</ele><time>2026-04-18T13:24:15.001Z</time></trkpt><trkpt lat="44.905565652990525" lon="6.630072245729255"><ele>1274.0</ele><time>2026-04-18T13:24:16.001Z</time></trkpt><trkpt lat="44.90552596221262" lon="6.630266918684796"><ele>1276.3333333333335</ele><time>2026-04-18T13:24:17.001Z</time></trkpt><trkpt lat="44.90546115931591" lon="6.6304696397578216"><ele>1278.6666666666667</ele><time>2026-04-18T13:24:18.001Z</time></trkpt><trkpt lat="44.9054350273468" lon="6.6307001489500905"><ele>1281.0</ele><time>2026-04-18T13:24:19.001Z</time></trkpt><trkpt lat="44.90539043515923" lon="6.630924429612829"><ele>1283.0</ele><time>2026-04-18T13:24:20.001Z</time></trkpt><trkpt lat="44.90534775486423" lon="6.631157782891346"><ele>1285.0</ele><time>2026-04-18T13:24:21.001Z</time></trkpt><trkpt lat="44.905310532820096" lon="6.631416940845921"><ele>1287.0</ele><time>2026-04-18T13:24:22.001Z</time></trkpt><trkpt lat="44.9052677560991" lon="6.63166373166629"><ele>1287.0</ele><time>2026-04-18T13:24:23.001Z</time></trkpt><trkpt lat="44.90517798714121" lon="6.631870275834941"><ele>1287.0</ele><time>2026-04-18T13:24:24.002Z</time></trkpt><trkpt lat="44.90508014255734" lon="6.632074698273936"><ele>1287.0</ele><time>2026-04-18T13:24:25.002Z</time></trkpt><trkpt lat="44.90500466335883" lon="6.632301008965107"><ele>1287.6666666666667</ele><time>2026-04-18T13:24:26.002Z</time></trkpt><trkpt lat="44.90489510441859" lon="6.632511425143955"><ele>1288.3333333333335</ele><time>2026-04-18T13:24:27.002Z</time></trkpt><trkpt lat="44.904827867331434" lon="6.632745482019125"><ele>1289.0</ele><time>2026-04-18T13:24:28.002Z</time></trkpt><trkpt lat="44.90476608037115" lon="6.63297645820521"><ele>1289.0</ele><time>2026-04-18T13:24:29.002Z</time></trkpt><trkpt lat="44.90473760588789" lon="6.63322970528884"><ele>1289.0</ele><time>2026-04-18T13:24:30.002Z</time></trkpt><trkpt lat="44.90473287656245" lon="6.633465308224617"><ele>1289.0</ele><time>2026-04-18T13:24:31.002Z</time></trkpt><trkpt lat="44.90474898061444" lon="6.633688542748503"><ele>1290.25</ele><time>2026-04-18T13:24:32.002Z</time></trkpt><trkpt lat="44.90476094686813" lon="6.633904231410328"><ele>1291.5</ele><time>2026-04-18T13:24:33.002Z</time></trkpt><trkpt lat="44.90480567071375" lon="6.634105668607039"><ele>1292.75</ele><time>2026-04-18T13:24:34.002Z</time></trkpt><trkpt lat="44.904835021309864" lon="6.634303021129635"><ele>1294.0</ele><time>2026-04-18T13:24:35.002Z</time></trkpt><trkpt lat="44.90487793888308" lon="6.634497922280482"><ele>1296.5</ele><time>2026-04-18T13:24:36.002Z</time></trkpt><trkpt lat="44.90488467907628" lon="6.634643560649024"><ele>1299.0</ele><time>2026-04-18T13:24:37.002Z</time></trkpt><trkpt lat="44.90482585008796" lon="6.634802211075188"><ele>1301.5</ele><time>2026-04-18T13:24:38.002Z</time></trkpt><trkpt lat="44.90476243813847" lon="6.6349506408561485"><ele>1304.0</ele><time>2026-04-18T13:24:39.002Z</time></trkpt><trkpt lat="44.904659556694135" lon="6.6350972103261965"><ele>1304.0</ele><time>2026-04-18T13:24:40.002Z</time></trkpt><trkpt lat="44.904545282728215" lon="6.6352261674720445"><ele>1304.0</ele><time>2026-04-18T13:24:41.002Z</time></trkpt><trkpt lat="44.90445623546154" lon="6.635298521597709"><ele>1304.0</ele><time>2026-04-18T13:24:42.002Z</time></trkpt><trkpt lat="44.90436436445084" lon="6.635359128767303"><ele>1304.0</ele><time>2026-04-18T13:24:43.002Z</time></trkpt><trkpt lat="44.904254948709934" lon="6.635423063043009"><ele>1305.0</ele><time>2026-04-18T13:24:44.002Z</time></trkpt><trkpt lat="44.904114980492636" lon="6.635528048233862"><ele>1306.0</ele><time>2026-04-18T13:24:45.002Z</time></trkpt><trkpt lat="44.90397030806369" lon="6.6356825350694075"><ele>1307.0</ele><time>2026-04-18T13:24:46.002Z</time></trkpt><trkpt lat="44.903851175679925" lon="6.635833516791195"><ele>1307.0</ele><time>2026-04-18T13:24:47.002Z</time></trkpt><trkpt lat="44.90370380625428" lon="6.636007487220343"><ele>1307.0</ele><time>2026-04-18T13:24:48.002Z</time></trkpt><trkpt lat="44.903553087770085" lon="6.636210116252569"><ele>1307.0</ele><time>2026-04-18T13:24:49.002Z</time></trkpt><trkpt lat="44.90342609139866" lon="6.636372069540152"><ele>1306.0</ele><time>2026-04-18T13:24:50.002Z</time></trkpt><trkpt lat="44.903326809824705" lon="6.63653257617263"><ele>1305.0</ele><time>2026-04-18T13:24:51.002Z</time></trkpt><trkpt lat="44.90326757330987" lon="6.636680292704486"><ele>1304.0</ele><time>2026-04-18T13:24:52.002Z</time></trkpt><trkpt lat="44.90316371188229" lon="6.6368735256877125"><ele>1303.0</ele><time>2026-04-18T13:24:53.002Z</time></trkpt><trkpt lat="44.90312434165833" lon="6.637074940288351"><ele>1305.6666666666665</ele><time>2026-04-18T13:24:54.002Z</time></trkpt><trkpt lat="44.90316511095271" lon="6.637329133195467"><ele>1308.3333333333333</ele><time>2026-04-18T13:24:55.002Z</time></trkpt><trkpt lat="44.90309738927084" lon="6.637492692133724"><ele>1311.0</ele><time>2026-04-18T13:24:56.002Z</time></trkpt><trkpt lat="44.90300352854111" lon="6.637668476162367"><ele>1311.0</ele><time>2026-04-18T13:24:57.002Z</time></trkpt><trkpt lat="44.90287128639867" lon="6.637790796210438"><ele>1311.0</ele><time>2026-04-18T13:24:58.002Z</time></trkpt><trkpt lat="44.9027636417057" lon="6.637976038856879"><ele>1311.0</ele><time>2026-04-18T13:24:59.002Z</time></trkpt><trkpt lat="44.90267706857657" lon="6.638177445036332"><ele>1309.3333333333333</ele><time>2026-04-18T13:25:00.001Z</time></trkpt><trkpt lat="44.90254576613235" lon="6.638371361364067"><ele>1307.6666666666665</ele><time>2026-04-18T13:25:01.001Z</time></trkpt><trkpt lat="44.902455714685416" lon="6.638551949287411"><ele>1306.0</ele><time>2026-04-18T13:25:02.001Z</time></trkpt><trkpt lat="44.90237828197012" lon="6.638737186598519"><ele>1309.6666666666665</ele><time>2026-04-18T13:25:03.001Z</time></trkpt><trkpt lat="44.90231316503271" lon="6.638921136860503"><ele>1313.3333333333333</ele><time>2026-04-18T13:25:04.001Z</time></trkpt><trkpt lat="44.902265564060826" lon="6.63913560743888"><ele>1317.0</ele><time>2026-04-18T13:25:05.001Z</time></trkpt><trkpt lat="44.90221192716724" lon="6.639355414152916"><ele>1319.6666666666667</ele><time>2026-04-18T13:25:06.001Z</time></trkpt><trkpt lat="44.902196591617006" lon="6.6395996161137445"><ele>1322.3333333333335</ele><time>2026-04-18T13:25:07.001Z</time></trkpt><trkpt lat="44.9021568147925" lon="6.639814739317928"><ele>1325.0</ele><time>2026-04-18T13:25:08.001Z</time></trkpt><trkpt lat="44.902123713644166" lon="6.640021736725601"><ele>1325.0</ele><time>2026-04-18T13:25:09.001Z</time></trkpt><trkpt lat="44.90209120197192" lon="6.640212167424226"><ele>1325.0</ele><time>2026-04-18T13:25:10.001Z</time></trkpt><trkpt lat="44.90208130398634" lon="6.640408552841132"><ele>1325.0</ele><time>2026-04-18T13:25:11.001Z</time></trkpt><trkpt lat="44.902053834831335" lon="6.6405778134118645"><ele>1325.0</ele><time>2026-04-18T13:25:12.001Z</time></trkpt><trkpt lat="44.90202380866125" lon="6.640761785376596"><ele>1325.5</ele><time>2026-04-18T13:25:13.001Z</time></trkpt><trkpt lat="44.901956933578376" lon="6.640932847101798"><ele>1326.0</ele><time>2026-04-18T13:25:14.001Z</time></trkpt><trkpt lat="44.9019337149792" lon="6.641146003971384"><ele>1326.5</ele><time>2026-04-18T13:25:15.001Z</time></trkpt><trkpt lat="44.90189508588047" lon="6.641338673647917"><ele>1327.0</ele><time>2026-04-18T13:25:16.001Z</time></trkpt><trkpt lat="44.901867196931796" lon="6.641528434143314"><ele>1326.75</ele><time>2026-04-18T13:25:17.001Z</time></trkpt><trkpt lat="44.90182641265521" lon="6.6417103559967465"><ele>1326.5</ele><time>2026-04-18T13:25:18.001Z</time></trkpt><trkpt lat="44.901796201260424" lon="6.641904376358322"><ele>1326.25</ele><time>2026-04-18T13:25:19.001Z</time></trkpt><trkpt lat="44.90175869624394" lon="6.6420934921833785"><ele>1326.0</ele><time>2026-04-18T13:25:20.001Z</time></trkpt><trkpt lat="44.901733363684414" lon="6.642279144120938"><ele>1326.0</ele><time>2026-04-18T13:25:21.001Z</time></trkpt><trkpt lat="44.90169348893722" lon="6.642451361136581"><ele>1326.0</ele><time>2026-04-18T13:25:22.001Z</time></trkpt><trkpt lat="44.90166217090706" lon="6.642616080249459"><ele>1326.0</ele><time>2026-04-18T13:25:23.001Z</time></trkpt><trkpt lat="44.90164060527491" lon="6.642771642713699"><ele>1326.0</ele><time>2026-04-18T13:25:24.001Z</time></trkpt><trkpt lat="44.90160243138129" lon="6.642914499437311"><ele>1326.8</ele><time>2026-04-18T13:25:25.001Z</time></trkpt><trkpt lat="44.90156352792667" lon="6.64306254581625"><ele>1327.6</ele><time>2026-04-18T13:25:26.001Z</time></trkpt><trkpt lat="44.90150645610305" lon="6.643185843822134"><ele>1328.4</ele><time>2026-04-18T13:25:27.001Z</time></trkpt><trkpt lat="44.901478111678934" lon="6.643307325165323"><ele>1329.2</ele><time>2026-04-18T13:25:28.001Z</time></trkpt><trkpt lat="44.90145273177347" lon="6.643410723964468"><ele>1330.0</ele><time>2026-04-18T13:25:29.001Z</time></trkpt><trkpt lat="44.90141594416063" lon="6.643503388403554"><ele>1330.0</ele><time>2026-04-18T13:25:30.001Z</time></trkpt><trkpt lat="44.90138499404001" lon="6.64358703180031"><ele>1330.0</ele><time>2026-04-18T13:25:31.001Z</time></trkpt><trkpt lat="44.90135603146236" lon="6.643685135610607"><ele>1330.0</ele><time>2026-04-18T13:25:32.001Z</time></trkpt><trkpt lat="44.901339776892605" lon="6.643780928650268"><ele>1330.0</ele><time>2026-04-18T13:25:33.001Z</time></trkpt><trkpt lat="44.901358018660076" lon="6.643879000044689"><ele>1330.0</ele><time>2026-04-18T13:25:34.001Z</time></trkpt><trkpt lat="44.901387816160984" lon="6.643959759620721"><ele>1330.0</ele><time>2026-04-18T13:25:35.001Z</time></trkpt><trkpt lat="44.901429632547384" lon="6.644034922020543"><ele>1330.0</ele><time>2026-04-18T13:25:36.001Z</time></trkpt><trkpt lat="44.901483936179304" lon="6.644127979417164"><ele>1330.8333333333333</ele><time>2026-04-18T13:25:37.001Z</time></trkpt><trkpt lat="44.901497611474916" lon="6.644231843673201"><ele>1331.6666666666665</ele><time>2026-04-18T13:25:38.001Z</time></trkpt><trkpt lat="44.901477686703906" lon="6.644340966915927"><ele>1332.5</ele><time>2026-04-18T13:25:39.001Z</time></trkpt><trkpt lat="44.9014713133109" lon="6.644451710026178"><ele>1333.3333333333333</ele><time>2026-04-18T13:25:40.001Z</time></trkpt><trkpt lat="44.901472315690455" lon="6.644563468570449"><ele>1334.1666666666667</ele><time>2026-04-18T13:25:41.001Z</time></trkpt><trkpt lat="44.9014678733336" lon="6.644715443720897"><ele>1335.0</ele><time>2026-04-18T13:25:43.001Z</time></trkpt><trkpt lat="44.90147666580849" lon="6.644811396384129"><ele>1335.0</ele><time>2026-04-18T13:25:46.001Z</time></trkpt><trkpt lat="44.901484004134346" lon="6.644947654510461"><ele>1335.0</ele><time>2026-04-18T13:25:52.001Z</time></trkpt><trkpt lat="44.90149216828789" lon="6.645048923650124"><ele>1335.0</ele><time>2026-04-18T13:25:53.001Z</time></trkpt><trkpt lat="44.90150033556028" lon="6.645151750906614"><ele>1335.0</ele><time>2026-04-18T13:25:54.001Z</time></trkpt><trkpt lat="44.901542946157704" lon="6.645274366458761"><ele>1335.0</ele><time>2026-04-18T13:25:55.001Z</time></trkpt><trkpt lat="44.90156751841745" lon="6.645378592508891"><ele>1335.0</ele><time>2026-04-18T13:25:56.001Z</time></trkpt><trkpt lat="44.90158953219472" lon="6.645495185243731"><ele>1335.0</ele><time>2026-04-18T13:25:57.001Z</time></trkpt><trkpt lat="44.90161460768041" lon="6.645619067296455"><ele>1335.0</ele><time>2026-04-18T13:25:58.001Z</time></trkpt><trkpt lat="44.90165967817736" lon="6.645745849511979"><ele>1335.0</ele><time>2026-04-18T13:25:59.001Z</time></trkpt><trkpt lat="44.90170444218778" lon="6.64587312351593"><ele>1335.0</ele><time>2026-04-18T13:26:00.001Z</time></trkpt><trkpt lat="44.90176460711788" lon="6.646013249997341"><ele>1335.0</ele><time>2026-04-18T13:26:01.001Z</time></trkpt><trkpt lat="44.9018387961594" lon="6.646129869568626"><ele>1336.25</ele><time>2026-04-18T13:26:02.001Z</time></trkpt><trkpt lat="44.90190854885277" lon="6.646247233172201"><ele>1337.5</ele><time>2026-04-18T13:26:03.001Z</time></trkpt><trkpt lat="44.90198282609778" lon="6.646373108767542"><ele>1338.75</ele><time>2026-04-18T13:26:04.001Z</time></trkpt><trkpt lat="44.90206569338335" lon="6.646496686006008"><ele>1340.0</ele><time>2026-04-18T13:26:05.001Z</time></trkpt><trkpt lat="44.90214528319674" lon="6.646664309222613"><ele>1340.0</ele><time>2026-04-18T13:26:06.001Z</time></trkpt><trkpt lat="44.902266059476254" lon="6.646872642324763"><ele>1340.0</ele><time>2026-04-18T13:26:07.001Z</time></trkpt><trkpt lat="44.90236944295319" lon="6.6471029522471685"><ele>1340.0</ele><time>2026-04-18T13:26:08.001Z</time></trkpt><trkpt lat="44.90250000443708" lon="6.647310288435477"><ele>1343.0</ele><time>2026-04-18T13:26:09.001Z</time></trkpt><trkpt lat="44.902619331750564" lon="6.647496614094134"><ele>1346.0</ele><time>2026-04-18T13:26:10.001Z</time></trkpt><trkpt lat="44.9027241730289" lon="6.647658085948727"><ele>1349.0</ele><time>2026-04-18T13:26:11.001Z</time></trkpt><trkpt lat="44.902805524591656" lon="6.6478190598287386"><ele>1349.0</ele><time>2026-04-18T13:26:12.001Z</time></trkpt><trkpt lat="44.90291302081546" lon="6.647991217668636"><ele>1349.0</ele><time>2026-04-18T13:26:13.001Z</time></trkpt><trkpt lat="44.90296514287662" lon="6.648190580364665"><ele>1349.0</ele><time>2026-04-18T13:26:14.001Z</time></trkpt><trkpt lat="44.90301344408567" lon="6.648386524436578"><ele>1349.0</ele><time>2026-04-18T13:26:15.001Z</time></trkpt><trkpt lat="44.9030659259363" lon="6.648567847478269"><ele>1349.0</ele><time>2026-04-18T13:26:16.001Z</time></trkpt><trkpt lat="44.90309022167558" lon="6.64877256135392"><ele>1349.0</ele><time>2026-04-18T13:26:17.001Z</time></trkpt><trkpt lat="44.90311852345734" lon="6.648993832508714"><ele>1349.0</ele><time>2026-04-18T13:26:18.002Z</time></trkpt><trkpt lat="44.903113430096305" lon="6.64920278455669"><ele>1348.25</ele><time>2026-04-18T13:26:19.002Z</time></trkpt><trkpt lat="44.903106119773774" lon="6.649394711679988"><ele>1347.5</ele><time>2026-04-18T13:26:20.002Z</time></trkpt><trkpt lat="44.90304509287489" lon="6.649572424747889"><ele>1346.75</ele><time>2026-04-18T13:26:21.002Z</time></trkpt><trkpt lat="44.90298701888053" lon="6.649743592140758"><ele>1346.0</ele><time>2026-04-18T13:26:22.002Z</time></trkpt><trkpt lat="44.90291111565763" lon="6.649900472231456"><ele>1349.25</ele><time>2026-04-18T13:26:23.002Z</time></trkpt><trkpt lat="44.90283146614412" lon="6.650053608767048"><ele>1352.5</ele><time>2026-04-18T13:26:24.002Z</time></trkpt><trkpt lat="44.902757604196466" lon="6.650208093014115"><ele>1355.75</ele><time>2026-04-18T13:26:25.002Z</time></trkpt><trkpt lat="44.9027306119176" lon="6.650331630782823"><ele>1359.0</ele><time>2026-04-18T13:26:26.002Z</time></trkpt><trkpt lat="44.90271671100059" lon="6.650472846395156"><ele>1362.5</ele><time>2026-04-18T13:26:27.002Z</time></trkpt><trkpt lat="44.90273317086193" lon="6.650607181677311"><ele>1366.0</ele><time>2026-04-18T13:26:28.002Z</time></trkpt><trkpt lat="44.90277198380078" lon="6.650746131468394"><ele>1369.5</ele><time>2026-04-18T13:26:29.002Z</time></trkpt><trkpt lat="44.90284897316599" lon="6.650911599838414"><ele>1373.0</ele><time>2026-04-18T13:26:30.002Z</time></trkpt><trkpt lat="44.902959511298974" lon="6.651127743942897"><ele>1363.3333333333335</ele><time>2026-04-18T13:26:31.002Z</time></trkpt><trkpt lat="44.90308225160641" lon="6.651382641019797"><ele>1353.6666666666667</ele><time>2026-04-18T13:26:32.002Z</time></trkpt><trkpt lat="44.90320268827818" lon="6.651634326047276"><ele>1344.0</ele><time>2026-04-18T13:26:33.002Z</time></trkpt><trkpt lat="44.903360234132656" lon="6.6518991732340975"><ele>1356.5</ele><time>2026-04-18T13:26:34.002Z</time></trkpt><trkpt lat="44.90350767743535" lon="6.652226793488388"><ele>1369.0</ele><time>2026-04-18T13:26:35.002Z</time></trkpt><trkpt lat="44.903664955936314" lon="6.652545782773774"><ele>1356.5</ele><time>2026-04-18T13:26:36.002Z</time></trkpt><trkpt lat="44.90383724449573" lon="6.652885547556712"><ele>1344.0</ele><time>2026-04-18T13:26:37.002Z</time></trkpt><trkpt lat="44.90400903739884" lon="6.653196768242537"><ele>1344.0</ele><time>2026-04-18T13:26:38.002Z</time></trkpt><trkpt lat="44.90416208221666" lon="6.65349704011113"><ele>1344.0</ele><time>2026-04-18T13:26:39.002Z</time></trkpt><trkpt lat="44.904285670375046" lon="6.653834925030316"><ele>1350.5</ele><time>2026-04-18T13:26:40.002Z</time></trkpt><trkpt lat="44.904391045517364" lon="6.654181197161108"><ele>1357.0</ele><time>2026-04-18T13:26:41.002Z</time></trkpt><trkpt lat="44.90448977789879" lon="6.654504329917894"><ele>1357.0</ele><time>2026-04-18T13:26:42.002Z</time></trkpt><trkpt lat="44.90458353021314" lon="6.65480411034886"><ele>1357.0</ele><time>2026-04-18T13:26:43.002Z</time></trkpt><trkpt lat="44.904672630506454" lon="6.655101296170423"><ele>1354.0</ele><time>2026-04-18T13:26:44.002Z</time></trkpt><trkpt lat="44.904749664717286" lon="6.655384372988118"><ele>1351.0</ele><time>2026-04-18T13:26:45.002Z</time></trkpt><trkpt lat="44.90480109018751" lon="6.655668743640016"><ele>1348.0</ele><time>2026-04-18T13:26:46.002Z</time></trkpt><trkpt lat="44.90482732386033" lon="6.655976690300036"><ele>1344.6666666666665</ele><time>2026-04-18T13:26:47.002Z</time></trkpt><trkpt lat="44.90483360285986" lon="6.65626405952902"><ele>1341.3333333333333</ele><time>2026-04-18T13:26:48.002Z</time></trkpt><trkpt lat="44.9048350972105" lon="6.656566895288363"><ele>1338.0</ele><time>2026-04-18T13:26:49.002Z</time></trkpt><trkpt lat="44.90483540387255" lon="6.656829109749654"><ele>1336.6666666666667</ele><time>2026-04-18T13:26:50.002Z</time></trkpt><trkpt lat="44.904862136823915" lon="6.657105566507115"><ele>1335.3333333333335</ele><time>2026-04-18T13:26:51.002Z</time></trkpt><trkpt lat="44.90490334425255" lon="6.657337840215424"><ele>1334.0</ele><time>2026-04-18T13:26:52.002Z</time></trkpt><trkpt lat="44.904955369159474" lon="6.65752703516856"><ele>1334.0</ele><time>2026-04-18T13:26:53.002Z</time></trkpt><trkpt lat="44.905040876194434" lon="6.657703371689836"><ele>1334.0</ele><time>2026-04-18T13:26:54.002Z</time></trkpt><trkpt lat="44.90515434604242" lon="6.657923937121158"><ele>1334.0</ele><time>2026-04-18T13:26:55.002Z</time></trkpt><trkpt lat="44.90526571429327" lon="6.658150316978247"><ele>1341.5</ele><time>2026-04-18T13:26:56.002Z</time></trkpt><trkpt lat="44.905390728482686" lon="6.65840497351461"><ele>1349.0</ele><time>2026-04-18T13:26:57.002Z</time></trkpt><trkpt lat="44.905589488672284" lon="6.658602333570041"><ele>1356.5</ele><time>2026-04-18T13:26:58.002Z</time></trkpt><trkpt lat="44.905755300394624" lon="6.6588159093067985"><ele>1364.0</ele><time>2026-04-18T13:26:59.002Z</time></trkpt><trkpt lat="44.90592425926919" lon="6.659027746887994"><ele>1364.0</ele><time>2026-04-18T13:27:00.002Z</time></trkpt><trkpt lat="44.90608377763812" lon="6.659239641914359"><ele>1364.0</ele><time>2026-04-18T13:27:01.002Z</time></trkpt><trkpt lat="44.90627974328121" lon="6.659398432517122"><ele>1364.0</ele><time>2026-04-18T13:27:02.002Z</time></trkpt><trkpt lat="44.90646495609387" lon="6.659539221977384"><ele>1363.0</ele><time>2026-04-18T13:27:03.002Z</time></trkpt><trkpt lat="44.90665548095522" lon="6.65966371093853"><ele>1362.0</ele><time>2026-04-18T13:27:04.002Z</time></trkpt><trkpt lat="44.906873572209406" lon="6.659745705981686"><ele>1361.0</ele><time>2026-04-18T13:27:05.002Z</time></trkpt><trkpt lat="44.907055510276564" lon="6.659843743559682"><ele>1361.0</ele><time>2026-04-18T13:27:06.001Z</time></trkpt><trkpt lat="44.90718857786177" lon="6.659991096749206"><ele>1361.0</ele><time>2026-04-18T13:27:07.001Z</time></trkpt><trkpt lat="44.907304114225845" lon="6.6602002088550005"><ele>1361.0</ele><time>2026-04-18T13:27:08.001Z</time></trkpt><trkpt lat="44.907378133783986" lon="6.660422999176218"><ele>1356.0</ele><time>2026-04-18T13:27:09.001Z</time></trkpt><trkpt lat="44.907416654175265" lon="6.6606690965659245"><ele>1351.0</ele><time>2026-04-18T13:27:10.001Z</time></trkpt><trkpt lat="44.90742244343751" lon="6.6608855051720814"><ele>1346.0</ele><time>2026-04-18T13:27:11.001Z</time></trkpt><trkpt lat="44.907393379854184" lon="6.661090871897585"><ele>1342.3333333333335</ele><time>2026-04-18T13:27:12.001Z</time></trkpt><trkpt lat="44.90737267623256" lon="6.661302777458799"><ele>1338.6666666666667</ele><time>2026-04-18T13:27:13.001Z</time></trkpt><trkpt lat="44.907370320535975" lon="6.661528233872122"><ele>1335.0</ele><time>2026-04-18T13:27:14.001Z</time></trkpt><trkpt lat="44.90742280018757" lon="6.661729647625594"><ele>1335.0</ele><time>2026-04-18T13:27:15.001Z</time></trkpt><trkpt lat="44.907494528547964" lon="6.6618813742370175"><ele>1335.0</ele><time>2026-04-18T13:27:16.001Z</time></trkpt><trkpt lat="44.90761850967691" lon="6.661963527461753"><ele>1335.0</ele><time>2026-04-18T13:27:17.001Z</time></trkpt><trkpt lat="44.9077249896322" lon="6.662065976581684"><ele>1335.0</ele><time>2026-04-18T13:27:18.001Z</time></trkpt><trkpt lat="44.90786768905804" lon="6.66213434032596"><ele>1333.3333333333333</ele><time>2026-04-18T13:27:19.001Z</time></trkpt><trkpt lat="44.90805553038391" lon="6.662176603545412"><ele>1331.6666666666665</ele><time>2026-04-18T13:27:20.001Z</time></trkpt><trkpt lat="44.908294196037325" lon="6.6622153946836145"><ele>1330.0</ele><time>2026-04-18T13:27:21.001Z</time></trkpt><trkpt lat="44.908510648339586" lon="6.662266194291644"><ele>1334.6666666666665</ele><time>2026-04-18T13:27:22.001Z</time></trkpt><trkpt lat="44.90871696372997" lon="6.66225655460917"><ele>1339.3333333333333</ele><time>2026-04-18T13:27:23.001Z</time></trkpt><trkpt lat="44.90888673057128" lon="6.662228469912067"><ele>1344.0</ele><time>2026-04-18T13:27:24.001Z</time></trkpt><trkpt lat="44.90906192869559" lon="6.6623434210665184"><ele>1344.0</ele><time>2026-04-18T13:27:25.001Z</time></trkpt><trkpt lat="44.909226831628686" lon="6.662464851418204"><ele>1344.0</ele><time>2026-04-18T13:27:26.001Z</time></trkpt><trkpt lat="44.909350558207436" lon="6.662616728306667"><ele>1344.0</ele><time>2026-04-18T13:27:27.001Z</time></trkpt><trkpt lat="44.90947400538259" lon="6.662778150742241"><ele>1344.6666666666667</ele><time>2026-04-18T13:27:28.001Z</time></trkpt><trkpt lat="44.909561104877724" lon="6.6629514210395335"><ele>1345.3333333333335</ele><time>2026-04-18T13:27:29.001Z</time></trkpt><trkpt lat="44.90961763900947" lon="6.6631343380927115"><ele>1346.0</ele><time>2026-04-18T13:27:30.001Z</time></trkpt><trkpt lat="44.90965117720213" lon="6.663383210724799"><ele>1345.6666666666667</ele><time>2026-04-18T13:27:31.001Z</time></trkpt><trkpt lat="44.9097038055813" lon="6.663619496379048"><ele>1345.3333333333333</ele><time>2026-04-18T13:27:32.001Z</time></trkpt><trkpt lat="44.90972488534819" lon="6.6638885351467145"><ele>1345.0</ele><time>2026-04-18T13:27:33.001Z</time></trkpt><trkpt lat="44.909770073653156" lon="6.664180472442154"><ele>1345.3333333333333</ele><time>2026-04-18T13:27:34.001Z</time></trkpt><trkpt lat="44.90977261314296" lon="6.664498898343846"><ele>1345.6666666666667</ele><time>2026-04-18T13:27:35.001Z</time></trkpt><trkpt lat="44.909770562070186" lon="6.664805639575919"><ele>1346.0</ele><time>2026-04-18T13:27:36.001Z</time></trkpt><trkpt lat="44.909750012874035" lon="6.665113151736672"><ele>1347.6666666666667</ele><time>2026-04-18T13:27:37.001Z</time></trkpt><trkpt lat="44.909742151116" lon="6.6654193693520964"><ele>1349.3333333333333</ele><time>2026-04-18T13:27:38.001Z</time></trkpt><trkpt lat="44.90974610746269" lon="6.665708754806754"><ele>1351.0</ele><time>2026-04-18T13:27:39.001Z</time></trkpt><trkpt lat="44.909795781283584" lon="6.6659240557299615"><ele>1349.6666666666665</ele><time>2026-04-18T13:27:40.001Z</time></trkpt><trkpt lat="44.90984134863458" lon="6.666204012480597"><ele>1348.3333333333333</ele><time>2026-04-18T13:27:41.001Z</time></trkpt><trkpt lat="44.90990982528058" lon="6.666476038261885"><ele>1347.0</ele><time>2026-04-18T13:27:42.001Z</time></trkpt><trkpt lat="44.91002247050768" lon="6.66672355423007"><ele>1352.3333333333333</ele><time>2026-04-18T13:27:43.001Z</time></trkpt><trkpt lat="44.91014122957017" lon="6.666993650116073"><ele>1357.6666666666665</ele><time>2026-04-18T13:27:44.001Z</time></trkpt><trkpt lat="44.910281988255306" lon="6.667233556421826"><ele>1363.0</ele><time>2026-04-18T13:27:45.001Z</time></trkpt><trkpt lat="44.910391441803526" lon="6.667474966723414"><ele>1363.0</ele><time>2026-04-18T13:27:46.001Z</time></trkpt><trkpt lat="44.91050809563815" lon="6.667721811766722"><ele>1363.0</ele><time>2026-04-18T13:27:47.001Z</time></trkpt><trkpt lat="44.91061940592743" lon="6.6679584033965815"><ele>1363.0</ele><time>2026-04-18T13:27:48.001Z</time></trkpt><trkpt lat="44.91072985831145" lon="6.668205366064772"><ele>1361.3333333333333</ele><time>2026-04-18T13:27:49.001Z</time></trkpt><trkpt lat="44.910846651986475" lon="6.66844553987217"><ele>1359.6666666666667</ele><time>2026-04-18T13:27:50.001Z</time></trkpt><trkpt lat="44.9109680529571" lon="6.6686896825360344"><ele>1358.0</ele><time>2026-04-18T13:27:51.001Z</time></trkpt><trkpt lat="44.91108656455224" lon="6.668923934806082"><ele>1360.6666666666667</ele><time>2026-04-18T13:27:52.001Z</time></trkpt><trkpt lat="44.911187173544036" lon="6.669146033597075"><ele>1363.3333333333333</ele><time>2026-04-18T13:27:53.001Z</time></trkpt><trkpt lat="44.91130503650919" lon="6.669380242216649"><ele>1366.0</ele><time>2026-04-18T13:27:54.001Z</time></trkpt><trkpt lat="44.91142054472782" lon="6.669625449704422"><ele>1366.0</ele><time>2026-04-18T13:27:55.001Z</time></trkpt><trkpt lat="44.91153681603252" lon="6.6698721369757985"><ele>1366.0</ele><time>2026-04-18T13:27:56.001Z</time></trkpt><trkpt lat="44.91165151536913" lon="6.670113649213253"><ele>1366.0</ele><time>2026-04-18T13:27:57.001Z</time></trkpt><trkpt lat="44.911768327606154" lon="6.670369560406386"><ele>1367.6666666666665</ele><time>2026-04-18T13:27:58.001Z</time></trkpt><trkpt lat="44.9118958212729" lon="6.670609809150499"><ele>1369.3333333333333</ele><time>2026-04-18T13:27:59.001Z</time></trkpt><trkpt lat="44.912005146900825" lon="6.670850664835979"><ele>1371.0</ele><time>2026-04-18T13:28:00.001Z</time></trkpt><trkpt lat="44.91212577168911" lon="6.671088662324834"><ele>1368.3333333333333</ele><time>2026-04-18T13:28:01.001Z</time></trkpt><trkpt lat="44.91224702491189" lon="6.671312505030038"><ele>1365.6666666666665</ele><time>2026-04-18T13:28:02.001Z</time></trkpt><trkpt lat="44.9123531186113" lon="6.671515234786416"><ele>1363.0</ele><time>2026-04-18T13:28:03.001Z</time></trkpt><trkpt lat="44.91246646669599" lon="6.671705449768177"><ele>1363.0</ele><time>2026-04-18T13:28:04.001Z</time></trkpt><trkpt lat="44.91257273578652" lon="6.671893034415687"><ele>1363.0</ele><time>2026-04-18T13:28:05.001Z</time></trkpt><trkpt lat="44.91267472561603" lon="6.672045534154216"><ele>1363.0</ele><time>2026-04-18T13:28:06.001Z</time></trkpt><trkpt lat="44.91276707466385" lon="6.672209884679213"><ele>1362.3333333333333</ele><time>2026-04-18T13:28:07.001Z</time></trkpt><trkpt lat="44.91286464557665" lon="6.672382563862515"><ele>1361.6666666666667</ele><time>2026-04-18T13:28:08.001Z</time></trkpt><trkpt lat="44.91297623483468" lon="6.672570004359565"><ele>1361.0</ele><time>2026-04-18T13:28:09.001Z</time></trkpt><trkpt lat="44.91308169121352" lon="6.672756656642401"><ele>1360.0</ele><time>2026-04-18T13:28:10.001Z</time></trkpt><trkpt lat="44.91319824887258" lon="6.6729572735719085"><ele>1359.0</ele><time>2026-04-18T13:28:11.001Z</time></trkpt><trkpt lat="44.913329055422786" lon="6.673164152094152"><ele>1358.0</ele><time>2026-04-18T13:28:12.001Z</time></trkpt><trkpt lat="44.91346466527728" lon="6.673385682923648"><ele>1356.3333333333335</ele><time>2026-04-18T13:28:13.001Z</time></trkpt><trkpt lat="44.91359703457129" lon="6.673622810861309"><ele>1354.6666666666667</ele><time>2026-04-18T13:28:14.001Z</time></trkpt><trkpt lat="44.913763574528204" lon="6.673844491002325"><ele>1353.0</ele><time>2026-04-18T13:28:15.001Z</time></trkpt><trkpt lat="44.91392554552883" lon="6.674065644710982"><ele>1353.0</ele><time>2026-04-18T13:28:16.001Z</time></trkpt><trkpt lat="44.91410638686972" lon="6.674278693448102"><ele>1353.0</ele><time>2026-04-18T13:28:17.001Z</time></trkpt><trkpt lat="44.914299468536306" lon="6.6744791575549245"><ele>1359.5</ele><time>2026-04-18T13:28:18.002Z</time></trkpt><trkpt lat="44.91455299158653" lon="6.674620666931818"><ele>1366.0</ele><time>2026-04-18T13:28:19.002Z</time></trkpt><trkpt lat="44.914744764766986" lon="6.674796794603786"><ele>1366.0</ele><time>2026-04-18T13:28:20.002Z</time></trkpt><trkpt lat="44.91494271899822" lon="6.674953315885856"><ele>1366.0</ele><time>2026-04-18T13:28:21.002Z</time></trkpt><trkpt lat="44.915126945615384" lon="6.675086575731863"><ele>1366.0</ele><time>2026-04-18T13:28:22.002Z</time></trkpt><trkpt lat="44.91531256862562" lon="6.675229714188644"><ele>1368.3333333333333</ele><time>2026-04-18T13:28:23.002Z</time></trkpt><trkpt lat="44.915490232526565" lon="6.675348321559802"><ele>1370.6666666666667</ele><time>2026-04-18T13:28:24.002Z</time></trkpt><trkpt lat="44.91565551607809" lon="6.675466338122788"><ele>1373.0</ele><time>2026-04-18T13:28:25.002Z</time></trkpt><trkpt lat="44.9158396545169" lon="6.675603558808305"><ele>1371.0</ele><time>2026-04-18T13:28:26.002Z</time></trkpt><trkpt lat="44.91603991577056" lon="6.675723782067719"><ele>1369.0</ele><time>2026-04-18T13:28:27.002Z</time></trkpt><trkpt lat="44.91621194691759" lon="6.675868539114774"><ele>1367.0</ele><time>2026-04-18T13:28:28.002Z</time></trkpt><trkpt lat="44.9163853176408" lon="6.676002096577078"><ele>1368.3333333333335</ele><time>2026-04-18T13:28:29.002Z</time></trkpt><trkpt lat="44.9165783932356" lon="6.6761483322796105"><ele>1369.6666666666667</ele><time>2026-04-18T13:28:30.002Z</time></trkpt><trkpt lat="44.91677508705649" lon="6.676296215242527"><ele>1371.0</ele><time>2026-04-18T13:28:31.002Z</time></trkpt><trkpt lat="44.91696138628668" lon="6.676417448502416"><ele>1371.0</ele><time>2026-04-18T13:28:32.002Z</time></trkpt><trkpt lat="44.91714916863783" lon="6.676544169797823"><ele>1371.0</ele><time>2026-04-18T13:28:33.002Z</time></trkpt><trkpt lat="44.917332665914984" lon="6.676699143697164"><ele>1371.0</ele><time>2026-04-18T13:28:34.002Z</time></trkpt><trkpt lat="44.91750417041717" lon="6.676818309430936"><ele>1370.0</ele><time>2026-04-18T13:28:35.002Z</time></trkpt><trkpt lat="44.917678548591354" lon="6.67692607839347"><ele>1369.0</ele><time>2026-04-18T13:28:36.002Z</time></trkpt><trkpt lat="44.91784560474749" lon="6.677037214993047"><ele>1368.0</ele><time>2026-04-18T13:28:37.002Z</time></trkpt><trkpt lat="44.91803751507083" lon="6.677154660911481"><ele>1370.0</ele><time>2026-04-18T13:28:38.002Z</time></trkpt><trkpt lat="44.9182314197638" lon="6.677276312757521"><ele>1372.0</ele><time>2026-04-18T13:28:39.002Z</time></trkpt><trkpt lat="44.91843273153171" lon="6.677382104382969"><ele>1374.0</ele><time>2026-04-18T13:28:40.002Z</time></trkpt><trkpt lat="44.91861086081963" lon="6.677501762920223"><ele>1374.0</ele><time>2026-04-18T13:28:41.002Z</time></trkpt><trkpt lat="44.91877823930454" lon="6.677622354477848"><ele>1374.0</ele><time>2026-04-18T13:28:42.002Z</time></trkpt><trkpt lat="44.91895410986906" lon="6.677754519446817"><ele>1374.0</ele><time>2026-04-18T13:28:43.002Z</time></trkpt><trkpt lat="44.919114133768865" lon="6.6778876240782585"><ele>1375.0</ele><time>2026-04-18T13:28:44.002Z</time></trkpt><trkpt lat="44.91925029269197" lon="6.678022910419503"><ele>1376.0</ele><time>2026-04-18T13:28:45.002Z</time></trkpt><trkpt lat="44.91939080024246" lon="6.6781660047924065"><ele>1377.0</ele><time>2026-04-18T13:28:46.002Z</time></trkpt><trkpt lat="44.91953459717895" lon="6.678322463707378"><ele>1377.0</ele><time>2026-04-18T13:28:47.002Z</time></trkpt><trkpt lat="44.91966326972032" lon="6.678497437809785"><ele>1377.0</ele><time>2026-04-18T13:28:48.002Z</time></trkpt><trkpt lat="44.91979292340073" lon="6.678682569404031"><ele>1377.0</ele><time>2026-04-18T13:28:49.002Z</time></trkpt><trkpt lat="44.919916756308886" lon="6.678880669211687"><ele>1378.3333333333333</ele><time>2026-04-18T13:28:50.002Z</time></trkpt><trkpt lat="44.9200130138049" lon="6.679072026930468"><ele>1379.6666666666665</ele><time>2026-04-18T13:28:51.002Z</time></trkpt><trkpt lat="44.92010838952846" lon="6.6792442332396815"><ele>1381.0</ele><time>2026-04-18T13:28:52.002Z</time></trkpt><trkpt lat="44.920198382585056" lon="6.679396129661218"><ele>1383.0</ele><time>2026-04-18T13:28:53.002Z</time></trkpt><trkpt lat="44.92028048975348" lon="6.67954855585161"><ele>1385.0</ele><time>2026-04-18T13:28:54.002Z</time></trkpt><trkpt lat="44.92034962148091" lon="6.679698963570439"><ele>1387.0</ele><time>2026-04-18T13:28:55.002Z</time></trkpt><trkpt lat="44.92041432497447" lon="6.679851749204978"><ele>1389.0</ele><time>2026-04-18T13:28:56.002Z</time></trkpt><trkpt lat="44.92048567006544" lon="6.6800189676303185"><ele>1389.0</ele><time>2026-04-18T13:28:57.002Z</time></trkpt><trkpt lat="44.92056267728453" lon="6.6802139364291575"><ele>1389.0</ele><time>2026-04-18T13:28:58.002Z</time></trkpt><trkpt lat="44.920637988899564" lon="6.6804394398507565"><ele>1389.0</ele><time>2026-04-18T13:28:59.002Z</time></trkpt><trkpt lat="44.92068022601057" lon="6.680667183890869"><ele>1391.0</ele><time>2026-04-18T13:29:00.002Z</time></trkpt><trkpt lat="44.920747784548404" lon="6.680898821352955"><ele>1393.0</ele><time>2026-04-18T13:29:01.002Z</time></trkpt><trkpt lat="44.920813801153514" lon="6.681153298465651"><ele>1395.0</ele><time>2026-04-18T13:29:02.002Z</time></trkpt><trkpt lat="44.9208856046343" lon="6.6814372396746675"><ele>1395.0</ele><time>2026-04-18T13:29:03.002Z</time></trkpt><trkpt lat="44.920971159863335" lon="6.681746832027855"><ele>1395.0</ele><time>2026-04-18T13:29:04.002Z</time></trkpt><trkpt lat="44.92102302950456" lon="6.6820668233926215"><ele>1395.0</ele><time>2026-04-18T13:29:05.002Z</time></trkpt><trkpt lat="44.921074847568725" lon="6.682381934709429"><ele>1395.0</ele><time>2026-04-18T13:29:06.002Z</time></trkpt><trkpt lat="44.92112211347813" lon="6.682667883297535"><ele>1395.0</ele><time>2026-04-18T13:29:07.002Z</time></trkpt><trkpt lat="44.9211496018805" lon="6.682941963454287"><ele>1396.6666666666667</ele><time>2026-04-18T13:29:08.002Z</time></trkpt><trkpt lat="44.92119068278482" lon="6.683203426101579"><ele>1398.3333333333335</ele><time>2026-04-18T13:29:09.002Z</time></trkpt><trkpt lat="44.921223883771084" lon="6.683452934123378"><ele>1400.0</ele><time>2026-04-18T13:29:10.002Z</time></trkpt><trkpt lat="44.92122240736916" lon="6.683702464680429"><ele>1401.3333333333335</ele><time>2026-04-18T13:29:11.002Z</time></trkpt><trkpt lat="44.92120820062099" lon="6.683951987580424"><ele>1402.6666666666667</ele><time>2026-04-18T13:29:12.001Z</time></trkpt><trkpt lat="44.921140148244426" lon="6.684194579049136"><ele>1404.0</ele><time>2026-04-18T13:29:13.001Z</time></trkpt><trkpt lat="44.921078066038234" lon="6.684435491803217"><ele>1405.3333333333333</ele><time>2026-04-18T13:29:14.001Z</time></trkpt><trkpt lat="44.92100744733614" lon="6.684664016329929"><ele>1406.6666666666665</ele><time>2026-04-18T13:29:15.001Z</time></trkpt><trkpt lat="44.920953719374694" lon="6.684873652995288"><ele>1408.0</ele><time>2026-04-18T13:29:16.001Z</time></trkpt><trkpt lat="44.92091468287757" lon="6.685068250635243"><ele>1410.0</ele><time>2026-04-18T13:29:17.001Z</time></trkpt><trkpt lat="44.92089846141248" lon="6.685247848374299"><ele>1412.0</ele><time>2026-04-18T13:29:18.001Z</time></trkpt><trkpt lat="44.92091890016355" lon="6.685414387990334"><ele>1414.0</ele><time>2026-04-18T13:29:19.001Z</time></trkpt><trkpt lat="44.92096219966329" lon="6.685568547885938"><ele>1416.0</ele><time>2026-04-18T13:29:20.001Z</time></trkpt><trkpt lat="44.92102945878577" lon="6.6857383609095695"><ele>1416.0</ele><time>2026-04-18T13:29:21.001Z</time></trkpt><trkpt lat="44.9211184056213" lon="6.6859019890602545"><ele>1416.0</ele><time>2026-04-18T13:29:22.001Z</time></trkpt><trkpt lat="44.92123632747838" lon="6.686048334723595"><ele>1416.0</ele><time>2026-04-18T13:29:23.001Z</time></trkpt><trkpt lat="44.92137943967833" lon="6.686229148513968"><ele>1420.75</ele><time>2026-04-18T13:29:24.001Z</time></trkpt><trkpt lat="44.92146474342099" lon="6.686415032842494"><ele>1425.5</ele><time>2026-04-18T13:29:25.001Z</time></trkpt><trkpt lat="44.921536133926104" lon="6.686570733947016"><ele>1430.25</ele><time>2026-04-18T13:29:26.001Z</time></trkpt><trkpt lat="44.92157580934251" lon="6.686735489317145"><ele>1435.0</ele><time>2026-04-18T13:29:27.001Z</time></trkpt><trkpt lat="44.92164183928523" lon="6.686881747871712"><ele>1436.25</ele><time>2026-04-18T13:29:28.001Z</time></trkpt><trkpt lat="44.92173023612016" lon="6.68699582201669"><ele>1437.5</ele><time>2026-04-18T13:29:29.001Z</time></trkpt><trkpt lat="44.92183697437419" lon="6.687061174980656"><ele>1438.75</ele><time>2026-04-18T13:29:30.001Z</time></trkpt><trkpt lat="44.92194242127197" lon="6.687035505636102"><ele>1440.0</ele><time>2026-04-18T13:29:31.001Z</time></trkpt><trkpt lat="44.92205024344017" lon="6.687054283769667"><ele>1440.0</ele><time>2026-04-18T13:29:32.001Z</time></trkpt><trkpt lat="44.922176425409155" lon="6.687082897282842"><ele>1440.0</ele><time>2026-04-18T13:29:33.001Z</time></trkpt><trkpt lat="44.9223218670648" lon="6.687151567540101"><ele>1440.0</ele><time>2026-04-18T13:29:34.001Z</time></trkpt><trkpt lat="44.922426865925566" lon="6.687315713749305"><ele>1440.0</ele><time>2026-04-18T13:29:35.001Z</time></trkpt><trkpt lat="44.92250498023638" lon="6.6875328771152445"><ele>1440.0</ele><time>2026-04-18T13:29:36.001Z</time></trkpt><trkpt lat="44.922563146487484" lon="6.687758240923829"><ele>1440.0</ele><time>2026-04-18T13:29:37.001Z</time></trkpt><trkpt lat="44.922635030591366" lon="6.687996493563242"><ele>1440.0</ele><time>2026-04-18T13:29:38.001Z</time></trkpt><trkpt lat="44.92269419899925" lon="6.688251417661015"><ele>1440.0</ele><time>2026-04-18T13:29:39.001Z</time></trkpt><trkpt lat="44.92277092628261" lon="6.688516984788405"><ele>1440.0</ele><time>2026-04-18T13:29:40.001Z</time></trkpt><trkpt lat="44.92286017968502" lon="6.688761162266416"><ele>1440.0</ele><time>2026-04-18T13:29:41.001Z</time></trkpt><trkpt lat="44.92294665768119" lon="6.688994261045394"><ele>1440.0</ele><time>2026-04-18T13:29:42.001Z</time></trkpt><trkpt lat="44.92303890183932" lon="6.689226114912375"><ele>1440.0</ele><time>2026-04-18T13:29:43.001Z</time></trkpt><trkpt lat="44.923151898188735" lon="6.689441205363677"><ele>1440.0</ele><time>2026-04-18T13:29:44.001Z</time></trkpt><trkpt lat="44.92324722289641" lon="6.689640791917705"><ele>1445.0</ele><time>2026-04-18T13:29:45.001Z</time></trkpt><trkpt lat="44.92334254394294" lon="6.689813803921136"><ele>1450.0</ele><time>2026-04-18T13:29:46.001Z</time></trkpt><trkpt lat="44.92346581186308" lon="6.6899682956967945"><ele>1455.0</ele><time>2026-04-18T13:29:47.001Z</time></trkpt><trkpt lat="44.923559094555905" lon="6.6901336364501445"><ele>1458.5</ele><time>2026-04-18T13:29:48.001Z</time></trkpt><trkpt lat="44.923632405041424" lon="6.690301728211576"><ele>1462.0</ele><time>2026-04-18T13:29:49.001Z</time></trkpt><trkpt lat="44.92372144716291" lon="6.690474897939646"><ele>1465.5</ele><time>2026-04-18T13:29:50.001Z</time></trkpt><trkpt lat="44.923787958362986" lon="6.69063228940026"><ele>1469.0</ele><time>2026-04-18T13:29:51.001Z</time></trkpt><trkpt lat="44.92384934692819" lon="6.690754747889615"><ele>1469.0</ele><time>2026-04-18T13:29:52.001Z</time></trkpt><trkpt lat="44.92391585035207" lon="6.69084541760565"><ele>1469.0</ele><time>2026-04-18T13:29:53.001Z</time></trkpt><trkpt lat="44.92403535466788" lon="6.69089899859637"><ele>1469.0</ele><time>2026-04-18T13:29:54.001Z</time></trkpt><trkpt lat="44.92415748106329" lon="6.6909208232712984"><ele>1469.0</ele><time>2026-04-18T13:29:55.001Z</time></trkpt><trkpt lat="44.92425312877466" lon="6.690941008897866"><ele>1469.0</ele><time>2026-04-18T13:29:56.001Z</time></trkpt><trkpt lat="44.9243263549262" lon="6.690908061706238"><ele>1474.0</ele><time>2026-04-18T13:29:57.001Z</time></trkpt><trkpt lat="44.92436791344968" lon="6.690790974311562"><ele>1479.0</ele><time>2026-04-18T13:29:58.001Z</time></trkpt><trkpt lat="44.92439530030813" lon="6.6906513346030625"><ele>1484.0</ele><time>2026-04-18T13:29:59.001Z</time></trkpt><trkpt lat="44.924424826124934" lon="6.6904095477455465"><ele>1489.0</ele><time>2026-04-18T13:30:00.001Z</time></trkpt><trkpt lat="44.92445209811181" lon="6.690128092204857"><ele>1489.0</ele><time>2026-04-18T13:30:01.001Z</time></trkpt><trkpt lat="44.924455954872315" lon="6.689889684284889"><ele>1489.0</ele><time>2026-04-18T13:30:02.001Z</time></trkpt><trkpt lat="44.9244789647334" lon="6.689670333024274"><ele>1489.0</ele><time>2026-04-18T13:30:03.001Z</time></trkpt><trkpt lat="44.92449696410796" lon="6.68945737184527"><ele>1485.25</ele><time>2026-04-18T13:30:04.001Z</time></trkpt><trkpt lat="44.92451484309814" lon="6.689256698998295"><ele>1481.5</ele><time>2026-04-18T13:30:05.001Z</time></trkpt><trkpt lat="44.924535327641024" lon="6.689072464941764"><ele>1477.75</ele><time>2026-04-18T13:30:06.001Z</time></trkpt><trkpt lat="44.92456483908621" lon="6.688913838689676"><ele>1474.0</ele><time>2026-04-18T13:30:07.001Z</time></trkpt><trkpt lat="44.924608038590335" lon="6.688780793939801"><ele>1474.0</ele><time>2026-04-18T13:30:08.001Z</time></trkpt><trkpt lat="44.924668559384926" lon="6.688662908792203"><ele>1474.0</ele><time>2026-04-18T13:30:09.001Z</time></trkpt><trkpt lat="44.92477794488892" lon="6.688661394190071"><ele>1474.0</ele><time>2026-04-18T13:30:10.001Z</time></trkpt><trkpt lat="44.92488468598686" lon="6.688666840421425"><ele>1474.0</ele><time>2026-04-18T13:30:11.001Z</time></trkpt><trkpt lat="44.925010517476515" lon="6.688665982226986"><ele>1474.0</ele><time>2026-04-18T13:30:12.001Z</time></trkpt><trkpt lat="44.92513293624532" lon="6.68868578438467"><ele>1474.6666666666665</ele><time>2026-04-18T13:30:13.001Z</time></trkpt><trkpt lat="44.925295908392314" lon="6.688771456362314"><ele>1475.3333333333333</ele><time>2026-04-18T13:30:14.001Z</time></trkpt><trkpt lat="44.92545338173209" lon="6.6889288847709265"><ele>1476.0</ele><time>2026-04-18T13:30:15.001Z</time></trkpt><trkpt lat="44.925564588643574" lon="6.689109368507605"><ele>1476.0</ele><time>2026-04-18T13:30:16.001Z</time></trkpt><trkpt lat="44.925688842404774" lon="6.689232199793066"><ele>1476.0</ele><time>2026-04-18T13:30:17.001Z</time></trkpt><trkpt lat="44.925809443701596" lon="6.689319038926457"><ele>1476.0</ele><time>2026-04-18T13:30:18.001Z</time></trkpt><trkpt lat="44.92593156256992" lon="6.6893540485833425"><ele>1476.0</ele><time>2026-04-18T13:30:19.001Z</time></trkpt><trkpt lat="44.92604702586502" lon="6.689365312956604"><ele>1477.75</ele><time>2026-04-18T13:30:20.001Z</time></trkpt><trkpt lat="44.926174197018526" lon="6.689282983797532"><ele>1479.5</ele><time>2026-04-18T13:30:21.001Z</time></trkpt><trkpt lat="44.926289590850025" lon="6.689179371802624"><ele>1481.25</ele><time>2026-04-18T13:30:22.001Z</time></trkpt><trkpt lat="44.92641259565253" lon="6.689126754696435"><ele>1483.0</ele><time>2026-04-18T13:30:23.001Z</time></trkpt><trkpt lat="44.92652834150906" lon="6.689152285382155"><ele>1483.0</ele><time>2026-04-18T13:30:24.001Z</time></trkpt><trkpt lat="44.926645800963016" lon="6.689201166674188"><ele>1483.0</ele><time>2026-04-18T13:30:25.001Z</time></trkpt><trkpt lat="44.926761312173" lon="6.6892329765369585"><ele>1483.0</ele><time>2026-04-18T13:30:26.001Z</time></trkpt><trkpt lat="44.926880269074985" lon="6.689248139355725"><ele>1483.0</ele><time>2026-04-18T13:30:27.001Z</time></trkpt><trkpt lat="44.92698299809285" lon="6.6892492272849005"><ele>1481.6000000000001</ele><time>2026-04-18T13:30:28.001Z</time></trkpt><trkpt lat="44.92709189673375" lon="6.68926138567909"><ele>1480.2</ele><time>2026-04-18T13:30:29.001Z</time></trkpt><trkpt lat="44.92717896388186" lon="6.689337781654176"><ele>1478.8</ele><time>2026-04-18T13:30:30.001Z</time></trkpt><trkpt lat="44.927262102045106" lon="6.6894285521713845"><ele>1477.4</ele><time>2026-04-18T13:30:31.001Z</time></trkpt><trkpt lat="44.92736786059566" lon="6.689493180603998"><ele>1476.0</ele><time>2026-04-18T13:30:32.001Z</time></trkpt><trkpt lat="44.92746028695322" lon="6.68955149865241"><ele>1483.8333333333333</ele><time>2026-04-18T13:30:33.001Z</time></trkpt><trkpt lat="44.92756784202566" lon="6.689594600981219"><ele>1491.6666666666667</ele><time>2026-04-18T13:30:34.001Z</time></trkpt><trkpt lat="44.92765496810762" lon="6.6896274892078225"><ele>1499.5</ele><time>2026-04-18T13:30:35.001Z</time></trkpt><trkpt lat="44.92774200451434" lon="6.689656349399151"><ele>1507.3333333333335</ele><time>2026-04-18T13:30:36.001Z</time></trkpt><trkpt lat="44.927800350362396" lon="6.689691959877532"><ele>1515.1666666666667</ele><time>2026-04-18T13:30:37.001Z</time></trkpt><trkpt lat="44.92778596771682" lon="6.689815536486126"><ele>1523.0</ele><time>2026-04-18T13:30:39.001Z</time></trkpt><trkpt lat="44.9277537317968" lon="6.689893231244055"><ele>1523.0</ele><time>2026-04-18T13:30:40.001Z</time></trkpt><trkpt lat="44.9276436534651" lon="6.689933463183842"><ele>1523.0</ele><time>2026-04-18T13:30:42.001Z</time></trkpt><trkpt lat="44.92756322100253" lon="6.689833272221734"><ele>1523.0</ele><time>2026-04-18T13:30:43.001Z</time></trkpt><trkpt lat="44.927446157007" lon="6.689754881195702"><ele>1523.0</ele><time>2026-04-18T13:30:44.001Z</time></trkpt><trkpt lat="44.92733489964219" lon="6.689677484281696"><ele>1520.0</ele><time>2026-04-18T13:30:45.001Z</time></trkpt><trkpt lat="44.927190551800415" lon="6.689584743708468"><ele>1517.0</ele><time>2026-04-18T13:30:46.001Z</time></trkpt><trkpt lat="44.927059738960374" lon="6.689536385008132"><ele>1514.0</ele><time>2026-04-18T13:30:47.001Z</time></trkpt><trkpt lat="44.92693806278673" lon="6.689507521854207"><ele>1511.0</ele><time>2026-04-18T13:30:48.001Z</time></trkpt><trkpt lat="44.926811479399674" lon="6.689541627097077"><ele>1513.0</ele><time>2026-04-18T13:30:49.001Z</time></trkpt><trkpt lat="44.926690998415445" lon="6.689541176872381"><ele>1515.0</ele><time>2026-04-18T13:30:50.001Z</time></trkpt><trkpt lat="44.9265730122084" lon="6.689483471910949"><ele>1517.0</ele><time>2026-04-18T13:30:51.001Z</time></trkpt><trkpt lat="44.92648198510584" lon="6.689483471916203"><ele>1519.0</ele><time>2026-04-18T13:30:52.002Z</time></trkpt><trkpt lat="44.92640954155232" lon="6.689493235425767"><ele>1521.0</ele><time>2026-04-18T13:30:53.002Z</time></trkpt><trkpt lat="44.92632235379479" lon="6.689539504986143"><ele>1521.0</ele><time>2026-04-18T13:30:54.002Z</time></trkpt><trkpt lat="44.9262450012247" lon="6.689685180539175"><ele>1521.0</ele><time>2026-04-18T13:30:55.002Z</time></trkpt><trkpt lat="44.926152898249754" lon="6.689791888101968"><ele>1521.0</ele><time>2026-04-18T13:30:56.002Z</time></trkpt><trkpt lat="44.92603972233381" lon="6.689844202867384"><ele>1521.0</ele><time>2026-04-18T13:30:57.002Z</time></trkpt><trkpt lat="44.925939520914525" lon="6.689868714564973"><ele>1518.5</ele><time>2026-04-18T13:30:58.002Z</time></trkpt><trkpt lat="44.92583529828481" lon="6.68985919054254"><ele>1516.0</ele><time>2026-04-18T13:30:59.002Z</time></trkpt><trkpt lat="44.925720736129186" lon="6.689827608032266"><ele>1513.5</ele><time>2026-04-18T13:31:00.002Z</time></trkpt><trkpt lat="44.92556255428239" lon="6.689785449043953"><ele>1511.0</ele><time>2026-04-18T13:31:01.002Z</time></trkpt><trkpt lat="44.92544097526007" lon="6.6897688382863105"><ele>1511.0</ele><time>2026-04-18T13:31:02.002Z</time></trkpt><trkpt lat="44.92534049062682" lon="6.689775872589122"><ele>1511.0</ele><time>2026-04-18T13:31:03.002Z</time></trkpt><trkpt lat="44.925246843988" lon="6.6898202664293525"><ele>1511.0</ele><time>2026-04-18T13:31:04.002Z</time></trkpt><trkpt lat="44.925184850054805" lon="6.689934372788786"><ele>1511.0</ele><time>2026-04-18T13:31:05.002Z</time></trkpt><trkpt lat="44.9251369190814" lon="6.69007010909319"><ele>1511.0</ele><time>2026-04-18T13:31:06.002Z</time></trkpt><trkpt lat="44.925103915754775" lon="6.690213719373566"><ele>1509.1999999999998</ele><time>2026-04-18T13:31:07.002Z</time></trkpt><trkpt lat="44.92510388904245" lon="6.690398263786766"><ele>1507.3999999999999</ele><time>2026-04-18T13:31:08.002Z</time></trkpt><trkpt lat="44.92507141789404" lon="6.690555092557931"><ele>1505.6</ele><time>2026-04-18T13:31:09.002Z</time></trkpt><trkpt lat="44.925041272786835" lon="6.690677602960941"><ele>1503.8</ele><time>2026-04-18T13:31:10.002Z</time></trkpt><trkpt lat="44.92501700672206" lon="6.690769531949132"><ele>1502.0</ele><time>2026-04-18T13:31:11.002Z</time></trkpt><trkpt lat="44.92499723351599" lon="6.690872734132386"><ele>1502.0</ele><time>2026-04-18T13:31:12.002Z</time></trkpt><trkpt lat="44.92499708957515" lon="6.691025750564522"><ele>1502.0</ele><time>2026-04-18T13:31:14.002Z</time></trkpt><trkpt lat="44.925078220454004" lon="6.691081226406374"><ele>1502.0</ele><time>2026-04-18T13:31:16.002Z</time></trkpt><trkpt lat="44.925144795537264" lon="6.6910279228867395"><ele>1502.0</ele><time>2026-04-18T13:31:17.002Z</time></trkpt><trkpt lat="44.92520593571933" lon="6.69096212624537"><ele>1502.0</ele><time>2026-04-18T13:31:18.001Z</time></trkpt><trkpt lat="44.92522176009983" lon="6.690714030505638"><ele>1504.25</ele><time>2026-04-18T13:31:20.001Z</time></trkpt><trkpt lat="44.92526439007778" lon="6.690570537303698"><ele>1506.5</ele><time>2026-04-18T13:31:21.001Z</time></trkpt><trkpt lat="44.92531482866528" lon="6.690367561616929"><ele>1508.75</ele><time>2026-04-18T13:31:22.001Z</time></trkpt><trkpt lat="44.92535720807625" lon="6.690217579682777"><ele>1511.0</ele><time>2026-04-18T13:31:23.001Z</time></trkpt><trkpt lat="44.9254259247499" lon="6.690168130612803"><ele>1511.0</ele><time>2026-04-18T13:31:24.001Z</time></trkpt><trkpt lat="44.92552326481727" lon="6.6901748051883185"><ele>1511.0</ele><time>2026-04-18T13:31:25.001Z</time></trkpt><trkpt lat="44.925612648572155" lon="6.690219643406824"><ele>1511.0</ele><time>2026-04-18T13:31:26.001Z</time></trkpt><trkpt lat="44.92570619267123" lon="6.690274737901992"><ele>1511.0</ele><time>2026-04-18T13:31:27.001Z</time></trkpt><trkpt lat="44.92580239432366" lon="6.690291645225556"><ele>1511.0</ele><time>2026-04-18T13:31:28.001Z</time></trkpt><trkpt lat="44.92591343797432" lon="6.690320665249364"><ele>1522.25</ele><time>2026-04-18T13:31:29.001Z</time></trkpt><trkpt lat="44.9260482706329" lon="6.690344573968512"><ele>1533.5</ele><time>2026-04-18T13:31:30.001Z</time></trkpt><trkpt lat="44.92618413086684" lon="6.690350584839743"><ele>1544.75</ele><time>2026-04-18T13:31:31.001Z</time></trkpt><trkpt lat="44.92632638002396" lon="6.690311686292"><ele>1556.0</ele><time>2026-04-18T13:31:32.001Z</time></trkpt><trkpt lat="44.92642720215527" lon="6.690280440289109"><ele>1556.0</ele><time>2026-04-18T13:31:33.001Z</time></trkpt><trkpt lat="44.92653679760857" lon="6.6903090952243165"><ele>1556.0</ele><time>2026-04-18T13:31:34.001Z</time></trkpt><trkpt lat="44.92667746283099" lon="6.690324546221053"><ele>1556.0</ele><time>2026-04-18T13:31:35.001Z</time></trkpt><trkpt lat="44.926793277501304" lon="6.690377786093287"><ele>1556.0</ele><time>2026-04-18T13:31:36.001Z</time></trkpt><trkpt lat="44.926933847961514" lon="6.690486606524272"><ele>1550.6666666666665</ele><time>2026-04-18T13:31:37.001Z</time></trkpt><trkpt lat="44.9270597928415" lon="6.69064724752862"><ele>1545.3333333333335</ele><time>2026-04-18T13:31:38.001Z</time></trkpt><trkpt lat="44.927193431744136" lon="6.690750294660064"><ele>1540.0</ele><time>2026-04-18T13:31:39.001Z</time></trkpt><trkpt lat="44.92731669188425" lon="6.690839743529998"><ele>1540.0</ele><time>2026-04-18T13:31:40.001Z</time></trkpt><trkpt lat="44.927435466400404" lon="6.690889205656351"><ele>1540.0</ele><time>2026-04-18T13:31:41.001Z</time></trkpt><trkpt lat="44.92754473767908" lon="6.690997230364946"><ele>1540.0</ele><time>2026-04-18T13:31:42.001Z</time></trkpt><trkpt lat="44.927659324876835" lon="6.691111033643419"><ele>1540.0</ele><time>2026-04-18T13:31:43.001Z</time></trkpt><trkpt lat="44.9277643778416" lon="6.691196829763184"><ele>1546.75</ele><time>2026-04-18T13:31:44.001Z</time></trkpt><trkpt lat="44.92786302331097" lon="6.691301543061688"><ele>1553.5</ele><time>2026-04-18T13:31:45.001Z</time></trkpt><trkpt lat="44.92796247042523" lon="6.691401736797321"><ele>1560.25</ele><time>2026-04-18T13:31:46.001Z</time></trkpt><trkpt lat="44.92807173904796" lon="6.691486638441496"><ele>1567.0</ele><time>2026-04-18T13:31:47.001Z</time></trkpt><trkpt lat="44.92817956198957" lon="6.691546888823779"><ele>1567.0</ele><time>2026-04-18T13:31:48.001Z</time></trkpt><trkpt lat="44.9282782821572" lon="6.691596563803619"><ele>1567.0</ele><time>2026-04-18T13:31:49.001Z</time></trkpt><trkpt lat="44.928385352914454" lon="6.691606504002553"><ele>1567.0</ele><time>2026-04-18T13:31:50.001Z</time></trkpt><trkpt lat="44.928491625401435" lon="6.691596776746752"><ele>1567.0</ele><time>2026-04-18T13:31:51.001Z</time></trkpt><trkpt lat="44.92859622640569" lon="6.691489730170135"><ele>1567.0</ele><time>2026-04-18T13:31:52.001Z</time></trkpt><trkpt lat="44.92866812843319" lon="6.691364388870369"><ele>1567.6666666666667</ele><time>2026-04-18T13:31:53.001Z</time></trkpt><trkpt lat="44.92870314128141" lon="6.691213969883244"><ele>1568.3333333333335</ele><time>2026-04-18T13:31:54.001Z</time></trkpt><trkpt lat="44.92870918188333" lon="6.690927324886498"><ele>1569.0</ele><time>2026-04-18T13:31:55.001Z</time></trkpt><trkpt lat="44.928735100094165" lon="6.690724135774555"><ele>1569.0</ele><time>2026-04-18T13:31:56.001Z</time></trkpt><trkpt lat="44.92868842371823" lon="6.690522474927966"><ele>1569.0</ele><time>2026-04-18T13:31:57.001Z</time></trkpt><trkpt lat="44.92870164863393" lon="6.690363333988448"><ele>1569.0</ele><time>2026-04-18T13:31:58.001Z</time></trkpt><trkpt lat="44.92871671728872" lon="6.690229567481906"><ele>1569.0</ele><time>2026-04-18T13:31:59.001Z</time></trkpt><trkpt lat="44.92876992038754" lon="6.690132253702411"><ele>1569.0</ele><time>2026-04-18T13:32:00.001Z</time></trkpt><trkpt lat="44.9288587219516" lon="6.690109617294427"><ele>1569.0</ele><time>2026-04-18T13:32:01.001Z</time></trkpt><trkpt lat="44.928934079954004" lon="6.690120286243495"><ele>1569.0</ele><time>2026-04-18T13:32:02.001Z</time></trkpt><trkpt lat="44.92900790900362" lon="6.690128753289044"><ele>1569.0</ele><time>2026-04-18T13:32:03.001Z</time></trkpt><trkpt lat="44.92907297858079" lon="6.690141959653824"><ele>1569.0</ele><time>2026-04-18T13:32:04.001Z</time></trkpt><trkpt lat="44.929163803263414" lon="6.690222188636777"><ele>1569.0</ele><time>2026-04-18T13:32:06.001Z</time></trkpt><trkpt lat="44.929123559244765" lon="6.690350577680998"><ele>1569.0</ele><time>2026-04-18T13:32:08.001Z</time></trkpt><trkpt lat="44.929014070090915" lon="6.690377360295984"><ele>1569.0</ele><time>2026-04-18T13:32:10.001Z</time></trkpt><trkpt lat="44.928942831821395" lon="6.690434993699048"><ele>1569.0</ele><time>2026-04-18T13:32:11.001Z</time></trkpt><trkpt lat="44.92889626730542" lon="6.690530193129773"><ele>1569.0</ele><time>2026-04-18T13:32:12.001Z</time></trkpt><trkpt lat="44.92883508577436" lon="6.690623894135932"><ele>1569.0</ele><time>2026-04-18T13:32:13.001Z</time></trkpt><trkpt lat="44.92880396030915" lon="6.690745879454618"><ele>1569.0</ele><time>2026-04-18T13:32:14.001Z</time></trkpt><trkpt lat="44.928770434700105" lon="6.690918229378403"><ele>1576.6666666666665</ele><time>2026-04-18T13:32:15.001Z</time></trkpt><trkpt lat="44.92877870988498" lon="6.691174559389116"><ele>1584.3333333333333</ele><time>2026-04-18T13:32:16.001Z</time></trkpt><trkpt lat="44.92881289691852" lon="6.691436975930019"><ele>1592.0</ele><time>2026-04-18T13:32:17.001Z</time></trkpt><trkpt lat="44.92877726169821" lon="6.69160627338636"><ele>1592.0</ele><time>2026-04-18T13:32:18.001Z</time></trkpt><trkpt lat="44.92873161847769" lon="6.691775105202965"><ele>1592.0</ele><time>2026-04-18T13:32:19.001Z</time></trkpt><trkpt lat="44.92868064548579" lon="6.691894541988505"><ele>1592.0</ele><time>2026-04-18T13:32:20.001Z</time></trkpt><trkpt lat="44.92861728904992" lon="6.692002197378745"><ele>1592.0</ele><time>2026-04-18T13:32:21.001Z</time></trkpt><trkpt lat="44.92854598299713" lon="6.692087991346739"><ele>1592.0</ele><time>2026-04-18T13:32:22.001Z</time></trkpt><trkpt lat="44.92847969478244" lon="6.692146362447269"><ele>1594.75</ele><time>2026-04-18T13:32:23.001Z</time></trkpt><trkpt lat="44.92834408068114" lon="6.692147707053811"><ele>1597.5</ele><time>2026-04-18T13:32:24.001Z</time></trkpt><trkpt lat="44.928234138180464" lon="6.692129131910915"><ele>1600.25</ele><time>2026-04-18T13:32:25.001Z</time></trkpt><trkpt lat="44.92811693198394" lon="6.692073710405509"><ele>1603.0</ele><time>2026-04-18T13:32:26.001Z</time></trkpt><trkpt lat="44.928002176255575" lon="6.692019799931321"><ele>1603.0</ele><time>2026-04-18T13:32:27.001Z</time></trkpt><trkpt lat="44.92787206158392" lon="6.6919305679419185"><ele>1603.0</ele><time>2026-04-18T13:32:28.001Z</time></trkpt><trkpt lat="44.927708885506235" lon="6.691856268002516"><ele>1603.0</ele><time>2026-04-18T13:32:29.001Z</time></trkpt><trkpt lat="44.92751923948501" lon="6.691763441539487"><ele>1593.3333333333335</ele><time>2026-04-18T13:32:30.001Z</time></trkpt><trkpt lat="44.92735964646292" lon="6.691676270788156"><ele>1583.6666666666665</ele><time>2026-04-18T13:32:31.001Z</time></trkpt><trkpt lat="44.927214481027725" lon="6.691605919532386"><ele>1574.0</ele><time>2026-04-18T13:32:32.001Z</time></trkpt><trkpt lat="44.92708587458179" lon="6.691539979275444"><ele>1574.0</ele><time>2026-04-18T13:32:33.001Z</time></trkpt><trkpt lat="44.92699695196756" lon="6.691453298312805"><ele>1574.0</ele><time>2026-04-18T13:32:34.001Z</time></trkpt><trkpt lat="44.92690250927643" lon="6.691363491297797"><ele>1574.0</ele><time>2026-04-18T13:32:35.001Z</time></trkpt><trkpt lat="44.92680974814347" lon="6.691350690053444"><ele>1574.0</ele><time>2026-04-18T13:32:36.001Z</time></trkpt><trkpt lat="44.926664021745836" lon="6.691373099412688"><ele>1577.5</ele><time>2026-04-18T13:32:37.001Z</time></trkpt><trkpt lat="44.92657905262668" lon="6.691446184081222"><ele>1581.0</ele><time>2026-04-18T13:32:38.001Z</time></trkpt><trkpt lat="44.92649422025899" lon="6.691577016959261"><ele>1584.5</ele><time>2026-04-18T13:32:39.001Z</time></trkpt><trkpt lat="44.926414611452984" lon="6.691735455016766"><ele>1588.0</ele><time>2026-04-18T13:32:40.001Z</time></trkpt><trkpt lat="44.926350847362116" lon="6.691877949287762"><ele>1592.8000000000002</ele><time>2026-04-18T13:32:41.001Z</time></trkpt><trkpt lat="44.92626251578749" lon="6.692015411537283"><ele>1597.6</ele><time>2026-04-18T13:32:42.001Z</time></trkpt><trkpt lat="44.92619678226283" lon="6.692124108593733"><ele>1602.4</ele><time>2026-04-18T13:32:43.001Z</time></trkpt><trkpt lat="44.92614403214736" lon="6.692247287353262"><ele>1607.1999999999998</ele><time>2026-04-18T13:32:44.001Z</time></trkpt><trkpt lat="44.92613522980273" lon="6.692374106541764"><ele>1612.0</ele><time>2026-04-18T13:32:45.001Z</time></trkpt><trkpt lat="44.9261738162597" lon="6.692538479440708"><ele>1612.0</ele><time>2026-04-18T13:32:46.001Z</time></trkpt><trkpt lat="44.926217996454675" lon="6.6926903678103535"><ele>1612.0</ele><time>2026-04-18T13:32:47.001Z</time></trkpt><trkpt lat="44.9262427713867" lon="6.69289157012148"><ele>1612.0</ele><time>2026-04-18T13:32:48.001Z</time></trkpt><trkpt lat="44.92626792804758" lon="6.693095206310658"><ele>1612.0</ele><time>2026-04-18T13:32:49.001Z</time></trkpt><trkpt lat="44.92627041583827" lon="6.693320206371028"><ele>1614.25</ele><time>2026-04-18T13:32:50.001Z</time></trkpt><trkpt lat="44.926279357447925" lon="6.693525934295383"><ele>1616.5</ele><time>2026-04-18T13:32:51.001Z</time></trkpt><trkpt lat="44.926286361493624" lon="6.693683125892078"><ele>1618.75</ele><time>2026-04-18T13:32:52.001Z</time></trkpt><trkpt lat="44.92623041438349" lon="6.693828069489446"><ele>1621.0</ele><time>2026-04-18T13:32:53.001Z</time></trkpt><trkpt lat="44.92617786216057" lon="6.693920481916532"><ele>1624.75</ele><time>2026-04-18T13:32:54.001Z</time></trkpt><trkpt lat="44.92608589391975" lon="6.693995283952455"><ele>1628.5</ele><time>2026-04-18T13:32:55.001Z</time></trkpt><trkpt lat="44.92599461429379" lon="6.694062046990851"><ele>1632.25</ele><time>2026-04-18T13:32:56.001Z</time></trkpt><trkpt lat="44.92590132633288" lon="6.6941505012462965"><ele>1636.0</ele><time>2026-04-18T13:32:57.001Z</time></trkpt><trkpt lat="44.92576423985432" lon="6.694239890763814"><ele>1632.6</ele><time>2026-04-18T13:32:58.001Z</time></trkpt><trkpt lat="44.92565374147055" lon="6.694303762612056"><ele>1629.1999999999998</ele><time>2026-04-18T13:32:59.001Z</time></trkpt><trkpt lat="44.925544007984435" lon="6.69435885181237"><ele>1625.8000000000002</ele><time>2026-04-18T13:33:00.001Z</time></trkpt><trkpt lat="44.925484906374905" lon="6.694419248318335"><ele>1622.4</ele><time>2026-04-18T13:33:01.001Z</time></trkpt><trkpt lat="44.9254346401944" lon="6.694508942183395"><ele>1619.0</ele><time>2026-04-18T13:33:02.001Z</time></trkpt><trkpt lat="44.92541355601826" lon="6.6946329362118"><ele>1619.0</ele><time>2026-04-18T13:33:03.001Z</time></trkpt><trkpt lat="44.92544826873134" lon="6.694797739918521"><ele>1619.0</ele><time>2026-04-18T13:33:04.001Z</time></trkpt><trkpt lat="44.92545809666882" lon="6.694994351202971"><ele>1619.0</ele><time>2026-04-18T13:33:05.001Z</time></trkpt><trkpt lat="44.925490424240294" lon="6.695154782285183"><ele>1619.0</ele><time>2026-04-18T13:33:06.001Z</time></trkpt><trkpt lat="44.925513691349046" lon="6.695389116433363"><ele>1621.25</ele><time>2026-04-18T13:33:07.001Z</time></trkpt><trkpt lat="44.92546671612424" lon="6.695571155582455"><ele>1623.5</ele><time>2026-04-18T13:33:08.001Z</time></trkpt><trkpt lat="44.925414330367616" lon="6.695764563199266"><ele>1625.75</ele><time>2026-04-18T13:33:09.001Z</time></trkpt><trkpt lat="44.92537825625693" lon="6.6959668165720485"><ele>1628.0</ele><time>2026-04-18T13:33:10.001Z</time></trkpt><trkpt lat="44.92534210741703" lon="6.696150704142524"><ele>1629.1666666666665</ele><time>2026-04-18T13:33:11.001Z</time></trkpt><trkpt lat="44.92531228349274" lon="6.696299791064864"><ele>1630.3333333333333</ele><time>2026-04-18T13:33:12.001Z</time></trkpt><trkpt lat="44.925291216320325" lon="6.696436182955087"><ele>1631.5</ele><time>2026-04-18T13:33:13.001Z</time></trkpt><trkpt lat="44.92528350065305" lon="6.696525891173527"><ele>1632.6666666666665</ele><time>2026-04-18T13:33:14.001Z</time></trkpt><trkpt lat="44.925315397288365" lon="6.696608315226058"><ele>1633.8333333333333</ele><time>2026-04-18T13:33:15.001Z</time></trkpt><trkpt lat="44.92541863853842" lon="6.6966522016266845"><ele>1635.0</ele><time>2026-04-18T13:33:17.001Z</time></trkpt><trkpt lat="44.92551010575441" lon="6.696619170966323"><ele>1635.0</ele><time>2026-04-18T13:33:18.001Z</time></trkpt><trkpt lat="44.925531427667885" lon="6.696497450828697"><ele>1635.0</ele><time>2026-04-18T13:33:19.001Z</time></trkpt><trkpt lat="44.92557621225195" lon="6.6962705285334145"><ele>1635.0</ele><time>2026-04-18T13:33:21.001Z</time></trkpt><trkpt lat="44.925591689478296" lon="6.696082293974456"><ele>1635.0</ele><time>2026-04-18T13:33:22.001Z</time></trkpt><trkpt lat="44.92567732084356" lon="6.695826468513673"><ele>1633.25</ele><time>2026-04-18T13:33:23.001Z</time></trkpt><trkpt lat="44.92576702989009" lon="6.695611421380057"><ele>1631.5</ele><time>2026-04-18T13:33:24.001Z</time></trkpt><trkpt lat="44.925811211778424" lon="6.695438841040624"><ele>1629.75</ele><time>2026-04-18T13:33:25.001Z</time></trkpt><trkpt lat="44.92584520595258" lon="6.6952573681713226"><ele>1628.0</ele><time>2026-04-18T13:33:26.001Z</time></trkpt><trkpt lat="44.92585506382985" lon="6.695088973339739"><ele>1626.4999999999998</ele><time>2026-04-18T13:33:27.001Z</time></trkpt><trkpt lat="44.92584576315657" lon="6.694969390377613"><ele>1625.0</ele><time>2026-04-18T13:33:28.001Z</time></trkpt><trkpt lat="44.925849623173725" lon="6.6948730674578165"><ele>1623.5</ele><time>2026-04-18T13:33:29.001Z</time></trkpt><trkpt lat="44.925903608623955" lon="6.694779066773832"><ele>1622.0</ele><time>2026-04-18T13:33:30.001Z</time></trkpt><trkpt lat="44.92598334894299" lon="6.694699704221732"><ele>1620.4999999999998</ele><time>2026-04-18T13:33:31.001Z</time></trkpt><trkpt lat="44.92606085036373" lon="6.694624300466841"><ele>1619.0</ele><time>2026-04-18T13:33:32.001Z</time></trkpt><trkpt lat="44.92616256234762" lon="6.6945759551947575"><ele>1624.6666666666665</ele><time>2026-04-18T13:33:33.001Z</time></trkpt><trkpt lat="44.9262826963009" lon="6.6944998722858875"><ele>1630.3333333333335</ele><time>2026-04-18T13:33:34.001Z</time></trkpt><trkpt lat="44.92642580121229" lon="6.694363895155292"><ele>1636.0</ele><time>2026-04-18T13:33:35.001Z</time></trkpt><trkpt lat="44.92657575556005" lon="6.694292090531095"><ele>1636.0</ele><time>2026-04-18T13:33:36.001Z</time></trkpt><trkpt lat="44.926694067672344" lon="6.69419578867166"><ele>1636.0</ele><time>2026-04-18T13:33:37.001Z</time></trkpt><trkpt lat="44.92679314601745" lon="6.694103223179715"><ele>1636.0</ele><time>2026-04-18T13:33:38.001Z</time></trkpt><trkpt lat="44.92688216178408" lon="6.694023935073412"><ele>1636.0</ele><time>2026-04-18T13:33:39.001Z</time></trkpt><trkpt lat="44.92694854001944" lon="6.693928050118068"><ele>1641.0</ele><time>2026-04-18T13:33:40.001Z</time></trkpt><trkpt lat="44.9269968165157" lon="6.693784528420323"><ele>1646.0</ele><time>2026-04-18T13:33:41.001Z</time></trkpt><trkpt lat="44.926948453994065" lon="6.693568892229795"><ele>1651.0</ele><time>2026-04-18T13:33:42.001Z</time></trkpt><trkpt lat="44.926919146014136" lon="6.693411977353263"><ele>1656.0</ele><time>2026-04-18T13:33:43.001Z</time></trkpt><trkpt lat="44.92687047689441" lon="6.693201387771494"><ele>1656.0</ele><time>2026-04-18T13:33:44.001Z</time></trkpt><trkpt lat="44.92685765890336" lon="6.693042588254105"><ele>1656.0</ele><time>2026-04-18T13:33:45.001Z</time></trkpt><trkpt lat="44.926909186117136" lon="6.692884050912786"><ele>1656.0</ele><time>2026-04-18T13:33:46.001Z</time></trkpt><trkpt lat="44.92696187730233" lon="6.692721660694939"><ele>1656.0</ele><time>2026-04-18T13:33:47.001Z</time></trkpt><trkpt lat="44.92703469648824" lon="6.692616441489907"><ele>1656.0</ele><time>2026-04-18T13:33:48.001Z</time></trkpt><trkpt lat="44.927121472884934" lon="6.692567836498375"><ele>1656.0</ele><time>2026-04-18T13:33:49.001Z</time></trkpt><trkpt lat="44.927207192435574" lon="6.692550555500416"><ele>1656.0</ele><time>2026-04-18T13:33:50.001Z</time></trkpt><trkpt lat="44.92725698406307" lon="6.6926265684298"><ele>1656.0</ele><time>2026-04-18T13:33:51.001Z</time></trkpt><trkpt lat="44.92737016120633" lon="6.692725308649681"><ele>1656.0</ele><time>2026-04-18T13:33:52Z</time></trkpt><trkpt lat="44.92747780534054" lon="6.692831024387248"><ele>1651.75</ele><time>2026-04-18T13:33:53Z</time></trkpt><trkpt lat="44.92757616767827" lon="6.692967146268489"><ele>1647.5</ele><time>2026-04-18T13:33:54Z</time></trkpt><trkpt lat="44.927693887779824" lon="6.69310388495728"><ele>1643.25</ele><time>2026-04-18T13:33:55Z</time></trkpt><trkpt lat="44.92779449232211" lon="6.693221700470858"><ele>1639.0</ele><time>2026-04-18T13:33:56Z</time></trkpt><trkpt lat="44.92790078635289" lon="6.693345509043617"><ele>1639.0</ele><time>2026-04-18T13:33:57Z</time></trkpt><trkpt lat="44.92798910156034" lon="6.693455710398549"><ele>1639.0</ele><time>2026-04-18T13:33:58Z</time></trkpt><trkpt lat="44.92808227977576" lon="6.693555015607498"><ele>1639.0</ele><time>2026-04-18T13:33:59Z</time></trkpt><trkpt lat="44.928183838092494" lon="6.693604134283436"><ele>1639.0</ele><time>2026-04-18T13:34:00Z</time></trkpt><trkpt lat="44.92829872821401" lon="6.693672156008252"><ele>1642.6</ele><time>2026-04-18T13:34:01Z</time></trkpt><trkpt lat="44.92839497102417" lon="6.693740179608734"><ele>1646.2</ele><time>2026-04-18T13:34:02.001Z</time></trkpt><trkpt lat="44.928456451290444" lon="6.69384602077645"><ele>1649.8</ele><time>2026-04-18T13:34:03.001Z</time></trkpt><trkpt lat="44.92850810630448" lon="6.693994703779078"><ele>1653.3999999999999</ele><time>2026-04-18T13:34:04.001Z</time></trkpt><trkpt lat="44.928552366976305" lon="6.694138705327123"><ele>1657.0</ele><time>2026-04-18T13:34:05.001Z</time></trkpt><trkpt lat="44.92859954032927" lon="6.694290523030746"><ele>1657.0</ele><time>2026-04-18T13:34:06.001Z</time></trkpt><trkpt lat="44.92865969401178" lon="6.694403945322014"><ele>1657.0</ele><time>2026-04-18T13:34:07.001Z</time></trkpt><trkpt lat="44.928727818576604" lon="6.694485573182601"><ele>1657.0</ele><time>2026-04-18T13:34:08.001Z</time></trkpt><trkpt lat="44.92881186514489" lon="6.694538745047081"><ele>1657.0</ele><time>2026-04-18T13:34:09.001Z</time></trkpt><trkpt lat="44.928915446137346" lon="6.6945326940840015"><ele>1657.0</ele><time>2026-04-18T13:34:10.001Z</time></trkpt><trkpt lat="44.92900199573434" lon="6.694475637028891"><ele>1657.0</ele><time>2026-04-18T13:34:11.001Z</time></trkpt><trkpt lat="44.92919092979693" lon="6.694403802002552"><ele>1657.0</ele><time>2026-04-18T13:34:12.001Z</time></trkpt><trkpt lat="44.92940778742579" lon="6.694359751053044"><ele>1657.0</ele><time>2026-04-18T13:34:13.001Z</time></trkpt><trkpt lat="44.92952222346475" lon="6.694368082486729"><ele>1656.75</ele><time>2026-04-18T13:34:14.001Z</time></trkpt><trkpt lat="44.929645118058026" lon="6.694385986946421"><ele>1656.5</ele><time>2026-04-18T13:34:15.001Z</time></trkpt><trkpt lat="44.92976997823804" lon="6.694398781377558"><ele>1656.25</ele><time>2026-04-18T13:34:16.001Z</time></trkpt><trkpt lat="44.92986851553828" lon="6.694411951209657"><ele>1656.0</ele><time>2026-04-18T13:34:17.001Z</time></trkpt><trkpt lat="44.929969053110476" lon="6.694437025265437"><ele>1656.0</ele><time>2026-04-18T13:34:18.001Z</time></trkpt><trkpt lat="44.93006226172489" lon="6.6944301354202285"><ele>1656.0</ele><time>2026-04-18T13:34:19.001Z</time></trkpt><trkpt lat="44.93014657819373" lon="6.6944353829626"><ele>1656.0</ele><time>2026-04-18T13:34:20.001Z</time></trkpt><trkpt lat="44.93028326379734" lon="6.694429742907609"><ele>1656.0</ele><time>2026-04-18T13:34:22.001Z</time></trkpt><trkpt lat="44.93040756955432" lon="6.694414224738669"><ele>1656.0</ele><time>2026-04-18T13:34:24.001Z</time></trkpt><trkpt lat="44.930482069545164" lon="6.694499203223854"><ele>1662.6</ele><time>2026-04-18T13:34:26.001Z</time></trkpt><trkpt lat="44.930497753585136" lon="6.694586276765035"><ele>1669.1999999999998</ele><time>2026-04-18T13:34:27.001Z</time></trkpt><trkpt lat="44.930418254068776" lon="6.69462849100127"><ele>1675.8000000000002</ele><time>2026-04-18T13:34:28.001Z</time></trkpt><trkpt lat="44.93035643346295" lon="6.694579323001678"><ele>1682.4</ele><time>2026-04-18T13:34:29.001Z</time></trkpt><trkpt lat="44.930229299436235" lon="6.694541986871274"><ele>1689.0</ele><time>2026-04-18T13:34:31.001Z</time></trkpt><trkpt lat="44.930077201641964" lon="6.694488645068814"><ele>1689.5</ele><time>2026-04-18T13:34:32.001Z</time></trkpt><trkpt lat="44.92995075866373" lon="6.6944875617864765"><ele>1690.0</ele><time>2026-04-18T13:34:33.001Z</time></trkpt><trkpt lat="44.929824013671784" lon="6.694496959934838"><ele>1690.5</ele><time>2026-04-18T13:34:34.001Z</time></trkpt><trkpt lat="44.929689470987164" lon="6.69450800738849"><ele>1691.0</ele><time>2026-04-18T13:34:35.001Z</time></trkpt><trkpt lat="44.92954077628876" lon="6.694525383780881"><ele>1691.0</ele><time>2026-04-18T13:34:36.001Z</time></trkpt><trkpt lat="44.929404635249654" lon="6.694565812883439"><ele>1691.0</ele><time>2026-04-18T13:34:37.001Z</time></trkpt><trkpt lat="44.929275140510896" lon="6.694613814096183"><ele>1691.0</ele><time>2026-04-18T13:34:38.001Z</time></trkpt><trkpt lat="44.929132583937935" lon="6.6946831634096915"><ele>1691.0</ele><time>2026-04-18T13:34:39.001Z</time></trkpt><trkpt lat="44.928999503012044" lon="6.694753589708772"><ele>1691.0</ele><time>2026-04-18T13:34:40.001Z</time></trkpt><trkpt lat="44.92886691723127" lon="6.6948255583949035"><ele>1691.0</ele><time>2026-04-18T13:34:41.001Z</time></trkpt><trkpt lat="44.92873649002049" lon="6.69489276584376"><ele>1691.0</ele><time>2026-04-18T13:34:42.001Z</time></trkpt><trkpt lat="44.92860618834438" lon="6.694953327631458"><ele>1691.0</ele><time>2026-04-18T13:34:43.001Z</time></trkpt><trkpt lat="44.928467208924296" lon="6.694939697024819"><ele>1691.5</ele><time>2026-04-18T13:34:44.001Z</time></trkpt><trkpt lat="44.92833152088376" lon="6.69492052705009"><ele>1692.0</ele><time>2026-04-18T13:34:45.001Z</time></trkpt><trkpt lat="44.928203155158336" lon="6.694876067979237"><ele>1692.5</ele><time>2026-04-18T13:34:46.001Z</time></trkpt><trkpt lat="44.928073783185354" lon="6.694832297033006"><ele>1693.0</ele><time>2026-04-18T13:34:47.001Z</time></trkpt><trkpt lat="44.92795215262984" lon="6.694797325663102"><ele>1693.0</ele><time>2026-04-18T13:34:48.001Z</time></trkpt><trkpt lat="44.92782847310631" lon="6.6948124655279875"><ele>1693.0</ele><time>2026-04-18T13:34:49.001Z</time></trkpt><trkpt lat="44.92770518078357" lon="6.694852493250164"><ele>1693.0</ele><time>2026-04-18T13:34:50.001Z</time></trkpt><trkpt lat="44.92758492010566" lon="6.6949370873294125"><ele>1693.0</ele><time>2026-04-18T13:34:51.001Z</time></trkpt><trkpt lat="44.92746856763794" lon="6.695072854944205"><ele>1692.0</ele><time>2026-04-18T13:34:52.001Z</time></trkpt><trkpt lat="44.92734041686244" lon="6.695136568384176"><ele>1691.0</ele><time>2026-04-18T13:34:53.001Z</time></trkpt><trkpt lat="44.927221281162325" lon="6.695195061914433"><ele>1690.0</ele><time>2026-04-18T13:34:54.001Z</time></trkpt><trkpt lat="44.92713067422392" lon="6.69526764639574"><ele>1689.0</ele><time>2026-04-18T13:34:55.001Z</time></trkpt><trkpt lat="44.9270758103126" lon="6.695320923570463"><ele>1688.0</ele><time>2026-04-18T13:34:56.001Z</time></trkpt><trkpt lat="44.92703517995244" lon="6.6954627190148495"><ele>1694.0</ele><time>2026-04-18T13:34:57.001Z</time></trkpt><trkpt lat="44.9270213962207" lon="6.695666976424828"><ele>1700.0</ele><time>2026-04-18T13:34:58.001Z</time></trkpt><trkpt lat="44.927004590201086" lon="6.695822100964922"><ele>1706.0</ele><time>2026-04-18T13:34:59.001Z</time></trkpt><trkpt lat="44.927015070975855" lon="6.696066381289742"><ele>1712.0</ele><time>2026-04-18T13:35:00.001Z</time></trkpt><trkpt lat="44.92697728386275" lon="6.69624880411294"><ele>1715.6</ele><time>2026-04-18T13:35:01.001Z</time></trkpt><trkpt lat="44.926934737868486" lon="6.696409158490286"><ele>1719.1999999999998</ele><time>2026-04-18T13:35:02.001Z</time></trkpt><trkpt lat="44.926898073858986" lon="6.696557169814271"><ele>1722.8</ele><time>2026-04-18T13:35:03.001Z</time></trkpt><trkpt lat="44.926868002317036" lon="6.696696236961183"><ele>1726.4</ele><time>2026-04-18T13:35:04.001Z</time></trkpt><trkpt lat="44.92684869743619" lon="6.696843783615909"><ele>1730.0</ele><time>2026-04-18T13:35:05.001Z</time></trkpt><trkpt lat="44.926871769671266" lon="6.696972710326066"><ele>1731.2</ele><time>2026-04-18T13:35:06.001Z</time></trkpt><trkpt lat="44.926913012125354" lon="6.69710879618479"><ele>1732.4</ele><time>2026-04-18T13:35:07.001Z</time></trkpt><trkpt lat="44.92694337719247" lon="6.69723158217537"><ele>1733.6</ele><time>2026-04-18T13:35:08.001Z</time></trkpt><trkpt lat="44.92698222971553" lon="6.69735783262509"><ele>1734.8</ele><time>2026-04-18T13:35:09.001Z</time></trkpt><trkpt lat="44.92701001648924" lon="6.697491802565668"><ele>1736.0</ele><time>2026-04-18T13:35:10.001Z</time></trkpt><trkpt lat="44.927047664913665" lon="6.697637518445465"><ele>1738.0</ele><time>2026-04-18T13:35:11.001Z</time></trkpt><trkpt lat="44.927062639797256" lon="6.697777253122848"><ele>1740.0</ele><time>2026-04-18T13:35:12.001Z</time></trkpt><trkpt lat="44.927042009131114" lon="6.697919912165216"><ele>1742.0</ele><time>2026-04-18T13:35:13.001Z</time></trkpt><trkpt lat="44.92698757130869" lon="6.698042592594178"><ele>1744.0</ele><time>2026-04-18T13:35:14.001Z</time></trkpt><trkpt lat="44.92689251219121" lon="6.698065603266339"><ele>1746.0</ele><time>2026-04-18T13:35:15.001Z</time></trkpt><trkpt lat="44.926819366583366" lon="6.698124873997474"><ele>1738.0</ele><time>2026-04-18T13:35:16.001Z</time></trkpt><trkpt lat="44.92669417063854" lon="6.698263605828802"><ele>1730.0</ele><time>2026-04-18T13:35:17.001Z</time></trkpt><trkpt lat="44.92663375371923" lon="6.698393430493126"><ele>1722.0</ele><time>2026-04-18T13:35:18.001Z</time></trkpt><trkpt lat="44.92659669321939" lon="6.698523012829648"><ele>1714.0</ele><time>2026-04-18T13:35:19.001Z</time></trkpt><trkpt lat="44.926631131699736" lon="6.698734155070633"><ele>1714.0</ele><time>2026-04-18T13:35:20.001Z</time></trkpt><trkpt lat="44.926654120741" lon="6.6989138936050585"><ele>1714.0</ele><time>2026-04-18T13:35:21.001Z</time></trkpt><trkpt lat="44.92668161486063" lon="6.69909902853367"><ele>1714.0</ele><time>2026-04-18T13:35:22.001Z</time></trkpt><trkpt lat="44.926699550505184" lon="6.699307118744537"><ele>1714.0</ele><time>2026-04-18T13:35:23.001Z</time></trkpt><trkpt lat="44.926701054224594" lon="6.699475438542923"><ele>1715.75</ele><time>2026-04-18T13:35:24.001Z</time></trkpt><trkpt lat="44.926688225420556" lon="6.69964736290288"><ele>1717.5</ele><time>2026-04-18T13:35:25.001Z</time></trkpt><trkpt lat="44.92665048489762" lon="6.699831064506761"><ele>1719.25</ele><time>2026-04-18T13:35:26.001Z</time></trkpt><trkpt lat="44.92662256924477" lon="6.700001937889096"><ele>1721.0</ele><time>2026-04-18T13:35:27.001Z</time></trkpt><trkpt lat="44.92659024633825" lon="6.700164833060841"><ele>1721.75</ele><time>2026-04-18T13:35:28.001Z</time></trkpt><trkpt lat="44.92656193567924" lon="6.700320189258081"><ele>1722.5</ele><time>2026-04-18T13:35:29.001Z</time></trkpt><trkpt lat="44.92655008633382" lon="6.700459411399325"><ele>1723.25</ele><time>2026-04-18T13:35:30.001Z</time></trkpt><trkpt lat="44.92654667277651" lon="6.700637958220507"><ele>1724.0</ele><time>2026-04-18T13:35:31.001Z</time></trkpt><trkpt lat="44.926587301604975" lon="6.700791918121011"><ele>1724.0</ele><time>2026-04-18T13:35:32.001Z</time></trkpt><trkpt lat="44.926609290591834" lon="6.700965171705678"><ele>1724.0</ele><time>2026-04-18T13:35:33.001Z</time></trkpt><trkpt lat="44.92661856204194" lon="6.701146943326209"><ele>1724.0</ele><time>2026-04-18T13:35:34.001Z</time></trkpt><trkpt lat="44.92661394143914" lon="6.701339063864105"><ele>1724.0</ele><time>2026-04-18T13:35:35Z</time></trkpt><trkpt lat="44.9266098793235" lon="6.701516747143939"><ele>1724.0</ele><time>2026-04-18T13:35:36Z</time></trkpt><trkpt lat="44.92659310611332" lon="6.701677336604344"><ele>1724.0</ele><time>2026-04-18T13:35:37Z</time></trkpt><trkpt lat="44.926604690800836" lon="6.701832071511835"><ele>1724.0</ele><time>2026-04-18T13:35:38Z</time></trkpt><trkpt lat="44.926623490029016" lon="6.701963620129197"><ele>1724.0</ele><time>2026-04-18T13:35:39Z</time></trkpt><trkpt lat="44.92666521784756" lon="6.7021112885368535"><ele>1724.0</ele><time>2026-04-18T13:35:40Z</time></trkpt><trkpt lat="44.926716613965255" lon="6.702251400299544"><ele>1733.0</ele><time>2026-04-18T13:35:41Z</time></trkpt><trkpt lat="44.92680749143887" lon="6.702360380368578"><ele>1742.0</ele><time>2026-04-18T13:35:42Z</time></trkpt><trkpt lat="44.92685751297085" lon="6.702519884700513"><ele>1751.0</ele><time>2026-04-18T13:35:43Z</time></trkpt><trkpt lat="44.92685710103925" lon="6.702692474188992"><ele>1760.0</ele><time>2026-04-18T13:35:44Z</time></trkpt><trkpt lat="44.92687129932838" lon="6.702874296311158"><ele>1760.0</ele><time>2026-04-18T13:35:45Z</time></trkpt><trkpt lat="44.92691275957834" lon="6.703058102426856"><ele>1760.0</ele><time>2026-04-18T13:35:46Z</time></trkpt><trkpt lat="44.92696539843625" lon="6.7032245524526815"><ele>1760.0</ele><time>2026-04-18T13:35:47Z</time></trkpt><trkpt lat="44.9270342264033" lon="6.70338838158808"><ele>1760.0</ele><time>2026-04-18T13:35:48Z</time></trkpt><trkpt lat="44.92708888219967" lon="6.703535205593228"><ele>1758.0</ele><time>2026-04-18T13:35:49Z</time></trkpt><trkpt lat="44.92717753443825" lon="6.7036559333557415"><ele>1756.0</ele><time>2026-04-18T13:35:50Z</time></trkpt><trkpt lat="44.9272866876674" lon="6.7037612550702415"><ele>1754.0</ele><time>2026-04-18T13:35:51Z</time></trkpt><trkpt lat="44.92734486349131" lon="6.703907908413883"><ele>1752.0</ele><time>2026-04-18T13:35:52Z</time></trkpt><trkpt lat="44.927379333561355" lon="6.7040701255116115"><ele>1752.0</ele><time>2026-04-18T13:35:53Z</time></trkpt><trkpt lat="44.92735738261434" lon="6.704229272560073"><ele>1752.0</ele><time>2026-04-18T13:35:54Z</time></trkpt><trkpt lat="44.92729399260556" lon="6.704351057036872"><ele>1752.0</ele><time>2026-04-18T13:35:55Z</time></trkpt><trkpt lat="44.927251577280714" lon="6.704471141782832"><ele>1752.0</ele><time>2026-04-18T13:35:56Z</time></trkpt><trkpt lat="44.92719700912175" lon="6.704669721914897"><ele>1755.25</ele><time>2026-04-18T13:35:57Z</time></trkpt><trkpt lat="44.92715613632694" lon="6.704864648727792"><ele>1758.5</ele><time>2026-04-18T13:35:58Z</time></trkpt><trkpt lat="44.927118873824725" lon="6.7050432440617005"><ele>1761.75</ele><time>2026-04-18T13:35:59Z</time></trkpt><trkpt lat="44.92707550614142" lon="6.705230846472505"><ele>1765.0</ele><time>2026-04-18T13:36:00Z</time></trkpt><trkpt lat="44.92704070960463" lon="6.705389412014794"><ele>1768.5</ele><time>2026-04-18T13:36:01Z</time></trkpt><trkpt lat="44.92700798950413" lon="6.705559528537083"><ele>1772.0</ele><time>2026-04-18T13:36:02Z</time></trkpt><trkpt lat="44.92697119517016" lon="6.705725694506243"><ele>1775.5</ele><time>2026-04-18T13:36:03Z</time></trkpt><trkpt lat="44.926932213088186" lon="6.7058822092611425"><ele>1779.0</ele><time>2026-04-18T13:36:04Z</time></trkpt><trkpt lat="44.92689695557147" lon="6.706030997755195"><ele>1780.0</ele><time>2026-04-18T13:36:05Z</time></trkpt><trkpt lat="44.926858842623815" lon="6.706194144160818"><ele>1781.0</ele><time>2026-04-18T13:36:06Z</time></trkpt><trkpt lat="44.92682316364885" lon="6.7063616649071545"><ele>1782.0</ele><time>2026-04-18T13:36:07Z</time></trkpt><trkpt lat="44.92678603906697" lon="6.706544102717402"><ele>1783.0</ele><time>2026-04-18T13:36:08Z</time></trkpt><trkpt lat="44.92675704437675" lon="6.706745203248232"><ele>1783.0</ele><time>2026-04-18T13:36:09Z</time></trkpt><trkpt lat="44.926741065980615" lon="6.706928752391658"><ele>1783.0</ele><time>2026-04-18T13:36:10Z</time></trkpt><trkpt lat="44.92674016978398" lon="6.707102658350318"><ele>1783.0</ele><time>2026-04-18T13:36:11Z</time></trkpt><trkpt lat="44.92675129937093" lon="6.70726733779873"><ele>1783.0</ele><time>2026-04-18T13:36:12Z</time></trkpt><trkpt lat="44.92678310611771" lon="6.70743770564412"><ele>1783.0</ele><time>2026-04-18T13:36:13Z</time></trkpt><trkpt lat="44.926818369835345" lon="6.707605618619548"><ele>1783.0</ele><time>2026-04-18T13:36:14Z</time></trkpt><trkpt lat="44.92687167878697" lon="6.707768733618986"><ele>1783.0</ele><time>2026-04-18T13:36:15Z</time></trkpt><trkpt lat="44.926924328201096" lon="6.707893035575561"><ele>1783.0</ele><time>2026-04-18T13:36:16Z</time></trkpt><trkpt lat="44.926996731726945" lon="6.708048755093138"><ele>1783.5</ele><time>2026-04-18T13:36:17Z</time></trkpt><trkpt lat="44.92707606116151" lon="6.708228848151333"><ele>1784.0</ele><time>2026-04-18T13:36:18Z</time></trkpt><trkpt lat="44.927105279316486" lon="6.708423722434071"><ele>1784.5</ele><time>2026-04-18T13:36:19Z</time></trkpt><trkpt lat="44.927102347765995" lon="6.708609198929228"><ele>1785.0</ele><time>2026-04-18T13:36:20Z</time></trkpt><trkpt lat="44.92710848386193" lon="6.708787054469068"><ele>1784.0</ele><time>2026-04-18T13:36:21Z</time></trkpt><trkpt lat="44.92710214137679" lon="6.708944948273895"><ele>1783.0</ele><time>2026-04-18T13:36:22Z</time></trkpt><trkpt lat="44.92712440016274" lon="6.709093886200018"><ele>1782.0</ele><time>2026-04-18T13:36:23Z</time></trkpt><trkpt lat="44.92716471258866" lon="6.7092522970121165"><ele>1781.0</ele><time>2026-04-18T13:36:24Z</time></trkpt><trkpt lat="44.92722370326041" lon="6.709398226754319"><ele>1780.5</ele><time>2026-04-18T13:36:25Z</time></trkpt><trkpt lat="44.927274603581175" lon="6.70953084547281"><ele>1780.0</ele><time>2026-04-18T13:36:26Z</time></trkpt><trkpt lat="44.927348974699065" lon="6.709653754513739"><ele>1779.5</ele><time>2026-04-18T13:36:27Z</time></trkpt><trkpt lat="44.927415798690966" lon="6.709786212725105"><ele>1779.0</ele><time>2026-04-18T13:36:28Z</time></trkpt><trkpt lat="44.927470268598704" lon="6.709930486668003"><ele>1779.0</ele><time>2026-04-18T13:36:29Z</time></trkpt><trkpt lat="44.92753757125343" lon="6.710086203040392"><ele>1779.0</ele><time>2026-04-18T13:36:30Z</time></trkpt><trkpt lat="44.927572716677766" lon="6.710253376417328"><ele>1779.0</ele><time>2026-04-18T13:36:31Z</time></trkpt><trkpt lat="44.92763036664334" lon="6.710444087627137"><ele>1779.0</ele><time>2026-04-18T13:36:32Z</time></trkpt><trkpt lat="44.927677534919574" lon="6.710609063821843"><ele>1783.25</ele><time>2026-04-18T13:36:33Z</time></trkpt><trkpt lat="44.9277179092602" lon="6.710777521922007"><ele>1787.5</ele><time>2026-04-18T13:36:34Z</time></trkpt><trkpt lat="44.92775002477069" lon="6.71094579347009"><ele>1791.75</ele><time>2026-04-18T13:36:35Z</time></trkpt><trkpt lat="44.927788800479576" lon="6.711122926466676"><ele>1796.0</ele><time>2026-04-18T13:36:36Z</time></trkpt><trkpt lat="44.92783543587151" lon="6.7112941606371015"><ele>1796.0</ele><time>2026-04-18T13:36:37Z</time></trkpt><trkpt lat="44.927887404865274" lon="6.711472987253773"><ele>1796.0</ele><time>2026-04-18T13:36:38Z</time></trkpt><trkpt lat="44.92792838447145" lon="6.711639387472291"><ele>1796.0</ele><time>2026-04-18T13:36:39Z</time></trkpt><trkpt lat="44.92799227535409" lon="6.7118082261963385"><ele>1796.0</ele><time>2026-04-18T13:36:40Z</time></trkpt><trkpt lat="44.92804595602129" lon="6.711976000347344"><ele>1796.25</ele><time>2026-04-18T13:36:41Z</time></trkpt><trkpt lat="44.92810121049438" lon="6.71212027055059"><ele>1796.5</ele><time>2026-04-18T13:36:42Z</time></trkpt><trkpt lat="44.92814654423076" lon="6.712273540074524"><ele>1796.75</ele><time>2026-04-18T13:36:43.001Z</time></trkpt><trkpt lat="44.928198033505325" lon="6.7124374682363515"><ele>1797.0</ele><time>2026-04-18T13:36:44.001Z</time></trkpt><trkpt lat="44.92827726950143" lon="6.712587103116237"><ele>1797.75</ele><time>2026-04-18T13:36:45.001Z</time></trkpt><trkpt lat="44.928336254430754" lon="6.7127453713425975"><ele>1798.5</ele><time>2026-04-18T13:36:46.001Z</time></trkpt><trkpt lat="44.92839033728289" lon="6.712915182055687"><ele>1799.25</ele><time>2026-04-18T13:36:47.001Z</time></trkpt><trkpt lat="44.92845167719007" lon="6.713070232977425"><ele>1800.0</ele><time>2026-04-18T13:36:48.001Z</time></trkpt><trkpt lat="44.92849870286871" lon="6.713247249789217"><ele>1802.25</ele><time>2026-04-18T13:36:49.001Z</time></trkpt><trkpt lat="44.92854616188125" lon="6.713416713961701"><ele>1804.5</ele><time>2026-04-18T13:36:50.001Z</time></trkpt><trkpt lat="44.928588656379574" lon="6.713569209010095"><ele>1806.75</ele><time>2026-04-18T13:36:51.001Z</time></trkpt><trkpt lat="44.92864770472826" lon="6.713725126620444"><ele>1809.0</ele><time>2026-04-18T13:36:52.001Z</time></trkpt><trkpt lat="44.928685235051944" lon="6.713885392132689"><ele>1809.25</ele><time>2026-04-18T13:36:53.001Z</time></trkpt><trkpt lat="44.9287055951439" lon="6.714053699693662"><ele>1809.5</ele><time>2026-04-18T13:36:54.001Z</time></trkpt><trkpt lat="44.92873422382207" lon="6.714210490412733"><ele>1809.75</ele><time>2026-04-18T13:36:55.001Z</time></trkpt><trkpt lat="44.92875962012934" lon="6.714354124366092"><ele>1810.0</ele><time>2026-04-18T13:36:56.001Z</time></trkpt><trkpt lat="44.928784561914426" lon="6.714512437274841"><ele>1810.4</ele><time>2026-04-18T13:36:57.001Z</time></trkpt><trkpt lat="44.92882262584847" lon="6.714656732259081"><ele>1810.8</ele><time>2026-04-18T13:36:58.001Z</time></trkpt><trkpt lat="44.92882986262162" lon="6.714808487719245"><ele>1811.1999999999998</ele><time>2026-04-18T13:36:59.001Z</time></trkpt><trkpt lat="44.9288660003065" lon="6.714935003704443"><ele>1811.6</ele><time>2026-04-18T13:37:00.001Z</time></trkpt><trkpt lat="44.928872509692354" lon="6.715083207893754"><ele>1812.0</ele><time>2026-04-18T13:37:01.001Z</time></trkpt><trkpt lat="44.92889445532145" lon="6.715222408547256"><ele>1813.5</ele><time>2026-04-18T13:37:02.001Z</time></trkpt><trkpt lat="44.92893212467113" lon="6.715371196128099"><ele>1815.0</ele><time>2026-04-18T13:37:03.001Z</time></trkpt><trkpt lat="44.92895106460476" lon="6.715535122911531"><ele>1816.5</ele><time>2026-04-18T13:37:04.001Z</time></trkpt><trkpt lat="44.928968082864046" lon="6.7157076701242975"><ele>1818.0</ele><time>2026-04-18T13:37:05.001Z</time></trkpt><trkpt lat="44.92899249491023" lon="6.715869325920114"><ele>1818.0</ele><time>2026-04-18T13:37:06.001Z</time></trkpt><trkpt lat="44.92901998659177" lon="6.716042107873434"><ele>1818.0</ele><time>2026-04-18T13:37:07.001Z</time></trkpt><trkpt lat="44.92905946839576" lon="6.716210474272587"><ele>1818.0</ele><time>2026-04-18T13:37:08.001Z</time></trkpt><trkpt lat="44.92908274703712" lon="6.71637959820258"><ele>1818.0</ele><time>2026-04-18T13:37:09.001Z</time></trkpt><trkpt lat="44.9291034597375" lon="6.716541866283581"><ele>1818.6000000000001</ele><time>2026-04-18T13:37:10.001Z</time></trkpt><trkpt lat="44.9291280922391" lon="6.716695669199966"><ele>1819.2000000000003</ele><time>2026-04-18T13:37:11.001Z</time></trkpt><trkpt lat="44.929132103351265" lon="6.716829608592975"><ele>1819.8</ele><time>2026-04-18T13:37:12.001Z</time></trkpt><trkpt lat="44.929158207627296" lon="6.716981522280394"><ele>1820.4</ele><time>2026-04-18T13:37:13.001Z</time></trkpt><trkpt lat="44.9291789227739" lon="6.717126062081667"><ele>1821.0</ele><time>2026-04-18T13:37:14.001Z</time></trkpt><trkpt lat="44.929188700007565" lon="6.717279490164259"><ele>1821.8</ele><time>2026-04-18T13:37:15.001Z</time></trkpt><trkpt lat="44.92918612398125" lon="6.71743413600591"><ele>1822.6</ele><time>2026-04-18T13:37:16.001Z</time></trkpt><trkpt lat="44.92917876942284" lon="6.717583719398619"><ele>1823.4</ele><time>2026-04-18T13:37:17.001Z</time></trkpt><trkpt lat="44.92915455054407" lon="6.717733043831448"><ele>1824.2</ele><time>2026-04-18T13:37:18.001Z</time></trkpt><trkpt lat="44.92912764488733" lon="6.717882486878132"><ele>1825.0</ele><time>2026-04-18T13:37:19.001Z</time></trkpt><trkpt lat="44.929112553099664" lon="6.7180310360883615"><ele>1826.0</ele><time>2026-04-18T13:37:20.001Z</time></trkpt><trkpt lat="44.92910786853259" lon="6.71817397110913"><ele>1827.0</ele><time>2026-04-18T13:37:21.001Z</time></trkpt><trkpt lat="44.92910414785951" lon="6.71832060928845"><ele>1828.0</ele><time>2026-04-18T13:37:22.001Z</time></trkpt><trkpt lat="44.92910830414267" lon="6.71845092043872"><ele>1829.0</ele><time>2026-04-18T13:37:23.001Z</time></trkpt><trkpt lat="44.92911736095535" lon="6.718571612619537"><ele>1830.0</ele><time>2026-04-18T13:37:24.001Z</time></trkpt><trkpt lat="44.929117442145824" lon="6.718692604679739"><ele>1831.3333333333333</ele><time>2026-04-18T13:37:25.001Z</time></trkpt><trkpt lat="44.929107982909784" lon="6.718809887396099"><ele>1832.6666666666665</ele><time>2026-04-18T13:37:26.001Z</time></trkpt><trkpt lat="44.92910546361031" lon="6.718921591795102"><ele>1834.0</ele><time>2026-04-18T13:37:27.001Z</time></trkpt><trkpt lat="44.9291243257041" lon="6.719023907152703"><ele>1835.3333333333333</ele><time>2026-04-18T13:37:28.001Z</time></trkpt><trkpt lat="44.92919046047194" lon="6.719088073220602"><ele>1836.6666666666665</ele><time>2026-04-18T13:37:29.001Z</time></trkpt><trkpt lat="44.92925318098054" lon="6.719178672750194"><ele>1838.0</ele><time>2026-04-18T13:37:30.001Z</time></trkpt><trkpt lat="44.92931348579759" lon="6.719301593587204"><ele>1839.25</ele><time>2026-04-18T13:37:31.001Z</time></trkpt><trkpt lat="44.9293956027019" lon="6.719464602143267"><ele>1840.5</ele><time>2026-04-18T13:37:32.001Z</time></trkpt><trkpt lat="44.92945609933793" lon="6.719610246964852"><ele>1841.75</ele><time>2026-04-18T13:37:33.001Z</time></trkpt><trkpt lat="44.929516992903615" lon="6.719758566776834"><ele>1843.0</ele><time>2026-04-18T13:37:34.001Z</time></trkpt><trkpt lat="44.92957911003701" lon="6.7199009390377595"><ele>1843.0</ele><time>2026-04-18T13:37:35.001Z</time></trkpt><trkpt lat="44.9296389136769" lon="6.720042903337035"><ele>1843.0</ele><time>2026-04-18T13:37:36Z</time></trkpt><trkpt lat="44.929692829510394" lon="6.720194171400027"><ele>1843.0</ele><time>2026-04-18T13:37:37Z</time></trkpt><trkpt lat="44.92976044042537" lon="6.720343944416587"><ele>1843.0</ele><time>2026-04-18T13:37:38Z</time></trkpt><trkpt lat="44.929823966996" lon="6.72049754566972"><ele>1843.25</ele><time>2026-04-18T13:37:39Z</time></trkpt><trkpt lat="44.92989156774835" lon="6.720657270836082"><ele>1843.5</ele><time>2026-04-18T13:37:40Z</time></trkpt><trkpt lat="44.92995518145378" lon="6.720817302569116"><ele>1843.75</ele><time>2026-04-18T13:37:41Z</time></trkpt><trkpt lat="44.93001971661934" lon="6.720975066376385"><ele>1844.0</ele><time>2026-04-18T13:37:42Z</time></trkpt><trkpt lat="44.93008110880081" lon="6.721138103369051"><ele>1846.75</ele><time>2026-04-18T13:37:43Z</time></trkpt><trkpt lat="44.93014436663561" lon="6.721303417476624"><ele>1849.5</ele><time>2026-04-18T13:37:44.019Z</time></trkpt><trkpt lat="44.93020989679034" lon="6.721465047565814"><ele>1852.25</ele><time>2026-04-18T13:37:45.012Z</time></trkpt><trkpt lat="44.93021558538232" lon="6.721663889265441"><ele>1855.0</ele><time>2026-04-18T13:37:46.014Z</time></trkpt><trkpt lat="44.93026542659004" lon="6.721834915739613"><ele>1854.5</ele><time>2026-04-18T13:37:47.018Z</time></trkpt><trkpt lat="44.93031496568848" lon="6.722006167765915"><ele>1854.0</ele><time>2026-04-18T13:37:48.016Z</time></trkpt><trkpt lat="44.93069369585372" lon="6.724001564567209"><ele>1851.0</ele><time>2026-04-18T13:37:51.294Z</time></trkpt><trkpt lat="44.93088021450988" lon="6.724589562779606"><ele>1856.0</ele><time>2026-04-18T13:37:52.293Z</time></trkpt><trkpt lat="44.931052261137026" lon="6.7251762620348625"><ele>1851.0</ele><time>2026-04-18T13:37:53.293Z</time></trkpt><trkpt lat="44.93148374122845" lon="6.726185388888358"><ele>1851.0</ele><time>2026-04-18T13:38:14Z</time></trkpt><trkpt lat="44.93152215427956" lon="6.726363745545882"><ele>1851.0</ele><time>2026-04-18T13:38:15Z</time></trkpt><trkpt lat="44.93165995516983" lon="6.72652601104206"><ele>1851.0</ele><time>2026-04-18T13:38:16Z</time></trkpt><trkpt lat="44.931716350352964" lon="6.726651482580147"><ele>1851.0</ele><time>2026-04-18T13:38:17Z</time></trkpt><trkpt lat="44.931788974839094" lon="6.726742777743272"><ele>1850.8</ele><time>2026-04-18T13:38:18Z</time></trkpt><trkpt lat="44.93187505244616" lon="6.726865806583889"><ele>1850.6</ele><time>2026-04-18T13:38:19Z</time></trkpt><trkpt lat="44.93195016015184" lon="6.726984616918799"><ele>1850.4</ele><time>2026-04-18T13:38:20Z</time></trkpt><trkpt lat="44.93201342637301" lon="6.727087454903543"><ele>1850.2</ele><time>2026-04-18T13:38:21Z</time></trkpt><trkpt lat="44.93209013131524" lon="6.7272003555565725"><ele>1850.0</ele><time>2026-04-18T13:38:22Z</time></trkpt><trkpt lat="44.932174802741486" lon="6.72731501452896"><ele>1850.0</ele><time>2026-04-18T13:38:23Z</time></trkpt><trkpt lat="44.9322545555763" lon="6.727419313559827"><ele>1850.0</ele><time>2026-04-18T13:38:24Z</time></trkpt><trkpt lat="44.93233497427933" lon="6.72752688184696"><ele>1850.0</ele><time>2026-04-18T13:38:25Z</time></trkpt><trkpt lat="44.93240691393574" lon="6.727626235199035"><ele>1850.0</ele><time>2026-04-18T13:38:26Z</time></trkpt><trkpt lat="44.932479328497394" lon="6.727715319893636"><ele>1850.0</ele><time>2026-04-18T13:38:27Z</time></trkpt><trkpt lat="44.932549731960194" lon="6.727794391302111"><ele>1850.3333333333333</ele><time>2026-04-18T13:38:28Z</time></trkpt><trkpt lat="44.932602778779476" lon="6.727878092584707"><ele>1850.6666666666665</ele><time>2026-04-18T13:38:29Z</time></trkpt><trkpt lat="44.93265620694656" lon="6.727979061840305"><ele>1851.0</ele><time>2026-04-18T13:38:30Z</time></trkpt><trkpt lat="44.93268129148553" lon="6.7280945401730445"><ele>1851.3333333333335</ele><time>2026-04-18T13:38:31Z</time></trkpt><trkpt lat="44.932717770947235" lon="6.728201205764155"><ele>1851.6666666666667</ele><time>2026-04-18T13:38:32Z</time></trkpt><trkpt lat="44.93276408816023" lon="6.728303643640766"><ele>1852.0</ele><time>2026-04-18T13:38:33Z</time></trkpt><trkpt lat="44.93283938572891" lon="6.728364687916044"><ele>1852.0</ele><time>2026-04-18T13:38:34Z</time></trkpt><trkpt lat="44.932912614429476" lon="6.728409622004772"><ele>1851.9999999999998</ele><time>2026-04-18T13:38:35Z</time></trkpt><trkpt lat="44.932995806212034" lon="6.72847286348439"><ele>1851.9999999999998</ele><time>2026-04-18T13:38:36Z</time></trkpt><trkpt lat="44.93307994663763" lon="6.728577294904049"><ele>1852.0</ele><time>2026-04-18T13:38:37Z</time></trkpt><trkpt lat="44.93314709955571" lon="6.728697360631787"><ele>1852.0</ele><time>2026-04-18T13:38:38Z</time></trkpt><trkpt lat="44.93322379732716" lon="6.728813050718028"><ele>1851.25</ele><time>2026-04-18T13:38:39Z</time></trkpt><trkpt lat="44.93329236125309" lon="6.728929358219878"><ele>1850.5</ele><time>2026-04-18T13:38:40Z</time></trkpt><trkpt lat="44.93336016369931" lon="6.729049196375831"><ele>1849.75</ele><time>2026-04-18T13:38:41Z</time></trkpt><trkpt lat="44.93342311318138" lon="6.729188989856516"><ele>1849.0</ele><time>2026-04-18T13:38:42Z</time></trkpt><trkpt lat="44.93347308026632" lon="6.729337843208712"><ele>1850.25</ele><time>2026-04-18T13:38:43Z</time></trkpt><trkpt lat="44.933516792435796" lon="6.729487157245315"><ele>1851.5</ele><time>2026-04-18T13:38:44Z</time></trkpt><trkpt lat="44.933568331638384" lon="6.729634343664686"><ele>1852.75</ele><time>2026-04-18T13:38:45Z</time></trkpt><trkpt lat="44.933619555958785" lon="6.729778346986517"><ele>1854.0</ele><time>2026-04-18T13:38:46Z</time></trkpt><trkpt lat="44.9336712383041" lon="6.729923337127619"><ele>1854.0</ele><time>2026-04-18T13:38:47Z</time></trkpt><trkpt lat="44.9337116380891" lon="6.730073118715663"><ele>1854.0</ele><time>2026-04-18T13:38:48Z</time></trkpt><trkpt lat="44.933775973243335" lon="6.730224903162103"><ele>1854.0</ele><time>2026-04-18T13:38:49Z</time></trkpt><trkpt lat="44.9338230604021" lon="6.730391697663681"><ele>1854.0</ele><time>2026-04-18T13:38:50Z</time></trkpt><trkpt lat="44.933871245392574" lon="6.730569570654654"><ele>1852.0</ele><time>2026-04-18T13:38:51Z</time></trkpt><trkpt lat="44.93393261142285" lon="6.73075989068916"><ele>1850.0</ele><time>2026-04-18T13:38:52Z</time></trkpt><trkpt lat="44.9340035145388" lon="6.730949841542861"><ele>1848.0</ele><time>2026-04-18T13:38:53Z</time></trkpt><trkpt lat="44.93407374306371" lon="6.731139685337237"><ele>1847.5</ele><time>2026-04-18T13:38:54Z</time></trkpt><trkpt lat="44.934126862411766" lon="6.731323161035481"><ele>1847.0</ele><time>2026-04-18T13:38:55Z</time></trkpt><trkpt lat="44.934177254082165" lon="6.7315030140466545"><ele>1846.5</ele><time>2026-04-18T13:38:56Z</time></trkpt><trkpt lat="44.934212026801546" lon="6.7316720331552995"><ele>1846.0</ele><time>2026-04-18T13:38:57Z</time></trkpt><trkpt lat="44.93419456031407" lon="6.731839771558854"><ele>1846.0</ele><time>2026-04-18T13:38:58Z</time></trkpt><trkpt lat="44.93419308431825" lon="6.732022923110514"><ele>1846.0</ele><time>2026-04-18T13:38:59Z</time></trkpt><trkpt lat="44.934190299757844" lon="6.7321753171881005"><ele>1846.0</ele><time>2026-04-18T13:39:00Z</time></trkpt><trkpt lat="44.9341005928477" lon="6.732303589142337"><ele>1846.0</ele><time>2026-04-18T13:39:01Z</time></trkpt><trkpt lat="44.93406219592702" lon="6.732443342591223"><ele>1846.0</ele><time>2026-04-18T13:39:02Z</time></trkpt><trkpt lat="44.93402739419439" lon="6.732561587640391"><ele>1846.0</ele><time>2026-04-18T13:39:03Z</time></trkpt><trkpt lat="44.933996211688765" lon="6.732684396339202"><ele>1846.0</ele><time>2026-04-18T13:39:04Z</time></trkpt><trkpt lat="44.93396354450509" lon="6.732809120747722"><ele>1846.0</ele><time>2026-04-18T13:39:05Z</time></trkpt><trkpt lat="44.93393440317465" lon="6.732943432481523"><ele>1846.0</ele><time>2026-04-18T13:39:06Z</time></trkpt><trkpt lat="44.93389845169712" lon="6.7330671482882645"><ele>1846.3333333333335</ele><time>2026-04-18T13:39:07Z</time></trkpt><trkpt lat="44.93386856143356" lon="6.73319738487729"><ele>1846.6666666666667</ele><time>2026-04-18T13:39:08Z</time></trkpt><trkpt lat="44.93384073982234" lon="6.733319892413965"><ele>1847.0</ele><time>2026-04-18T13:39:09Z</time></trkpt><trkpt lat="44.93379819511404" lon="6.733443787063359"><ele>1847.3333333333335</ele><time>2026-04-18T13:39:10Z</time></trkpt><trkpt lat="44.93376806103372" lon="6.733553781675838"><ele>1847.6666666666667</ele><time>2026-04-18T13:39:11Z</time></trkpt><trkpt lat="44.93374762490615" lon="6.733643695842569"><ele>1848.0</ele><time>2026-04-18T13:39:12Z</time></trkpt><trkpt lat="44.93371009564781" lon="6.733724959209511"><ele>1848.0</ele><time>2026-04-18T13:39:13Z</time></trkpt><trkpt lat="44.93366794327853" lon="6.73380729281262"><ele>1848.0</ele><time>2026-04-18T13:39:14Z</time></trkpt><trkpt lat="44.93362292307195" lon="6.733897909790642"><ele>1848.0</ele><time>2026-04-18T13:39:15Z</time></trkpt><trkpt lat="44.93356861263895" lon="6.734000500928102"><ele>1848.0</ele><time>2026-04-18T13:39:16Z</time></trkpt><trkpt lat="44.933506888789275" lon="6.734105217443147"><ele>1848.0</ele><time>2026-04-18T13:39:17Z</time></trkpt><trkpt lat="44.933433210042935" lon="6.734219213827077"><ele>1848.0</ele><time>2026-04-18T13:39:18Z</time></trkpt><trkpt lat="44.93336765911687" lon="6.7343491156400965"><ele>1846.25</ele><time>2026-04-18T13:39:19Z</time></trkpt><trkpt lat="44.933273957318434" lon="6.734462796631865"><ele>1844.5</ele><time>2026-04-18T13:39:20Z</time></trkpt><trkpt lat="44.933204521790536" lon="6.734603748503652"><ele>1842.75</ele><time>2026-04-18T13:39:21Z</time></trkpt><trkpt lat="44.93315931212073" lon="6.734760104330364"><ele>1841.0</ele><time>2026-04-18T13:39:22.001Z</time></trkpt><trkpt lat="44.93312386355249" lon="6.734928648467505"><ele>1841.0</ele><time>2026-04-18T13:39:23.001Z</time></trkpt><trkpt lat="44.93310045489825" lon="6.735111012898337"><ele>1841.0</ele><time>2026-04-18T13:39:24.001Z</time></trkpt><trkpt lat="44.933083357138145" lon="6.7352877195025265"><ele>1841.0</ele><time>2026-04-18T13:39:25.001Z</time></trkpt><trkpt lat="44.933067837406085" lon="6.735460815141484"><ele>1841.0</ele><time>2026-04-18T13:39:26.001Z</time></trkpt><trkpt lat="44.933049819203774" lon="6.735634962882821"><ele>1840.75</ele><time>2026-04-18T13:39:27.001Z</time></trkpt><trkpt lat="44.93305419156296" lon="6.735801794631183"><ele>1840.5</ele><time>2026-04-18T13:39:28.001Z</time></trkpt><trkpt lat="44.93304441288466" lon="6.7359631674258695"><ele>1840.25</ele><time>2026-04-18T13:39:29.001Z</time></trkpt><trkpt lat="44.933032440319195" lon="6.736121247234757"><ele>1840.0</ele><time>2026-04-18T13:39:30.001Z</time></trkpt><trkpt lat="44.93303096499385" lon="6.736290974184788"><ele>1838.75</ele><time>2026-04-18T13:39:31.001Z</time></trkpt><trkpt lat="44.93304035878465" lon="6.736476109410834"><ele>1837.5</ele><time>2026-04-18T13:39:32.001Z</time></trkpt><trkpt lat="44.93306020147331" lon="6.736674650416678"><ele>1836.25</ele><time>2026-04-18T13:39:33.001Z</time></trkpt><trkpt lat="44.933119965950404" lon="6.736884124224961"><ele>1835.0</ele><time>2026-04-18T13:39:34.001Z</time></trkpt><trkpt lat="44.93315166636563" lon="6.73708416958444"><ele>1831.6666666666665</ele><time>2026-04-18T13:39:35.001Z</time></trkpt><trkpt lat="44.93319720143663" lon="6.737289661327509"><ele>1828.3333333333335</ele><time>2026-04-18T13:39:36.001Z</time></trkpt><trkpt lat="44.93323748055378" lon="6.737493066259865"><ele>1825.0</ele><time>2026-04-18T13:39:37.001Z</time></trkpt><trkpt lat="44.933283294496874" lon="6.7376990912991985"><ele>1822.6666666666667</ele><time>2026-04-18T13:39:38.001Z</time></trkpt><trkpt lat="44.933331456301666" lon="6.737918624742074"><ele>1820.3333333333335</ele><time>2026-04-18T13:39:39.001Z</time></trkpt><trkpt lat="44.93337789741593" lon="6.738129461528829"><ele>1818.0</ele><time>2026-04-18T13:39:40.001Z</time></trkpt><trkpt lat="44.933413736275625" lon="6.73833794065951"><ele>1823.6666666666665</ele><time>2026-04-18T13:39:41.001Z</time></trkpt><trkpt lat="44.93344630047898" lon="6.7385464274942475"><ele>1829.3333333333333</ele><time>2026-04-18T13:39:42Z</time></trkpt><trkpt lat="44.93347265294032" lon="6.738753640695345"><ele>1835.0</ele><time>2026-04-18T13:39:43Z</time></trkpt><trkpt lat="44.93350040474844" lon="6.738974613714143"><ele>1835.0</ele><time>2026-04-18T13:39:44Z</time></trkpt><trkpt lat="44.933504403332954" lon="6.739183118417793"><ele>1835.0</ele><time>2026-04-18T13:39:45Z</time></trkpt><trkpt lat="44.93351682953684" lon="6.739401301858913"><ele>1835.0</ele><time>2026-04-18T13:39:46Z</time></trkpt><trkpt lat="44.933527231730416" lon="6.7396153064086315"><ele>1832.6666666666665</ele><time>2026-04-18T13:39:47Z</time></trkpt><trkpt lat="44.93356942108394" lon="6.739830496079935"><ele>1830.3333333333335</ele><time>2026-04-18T13:39:48Z</time></trkpt><trkpt lat="44.9336127116858" lon="6.740043033977889"><ele>1828.0</ele><time>2026-04-18T13:39:49Z</time></trkpt><trkpt lat="44.93364011229519" lon="6.740263882093239"><ele>1825.0</ele><time>2026-04-18T13:39:50Z</time></trkpt><trkpt lat="44.93370293637647" lon="6.740483082439396"><ele>1822.0</ele><time>2026-04-18T13:39:51Z</time></trkpt><trkpt lat="44.93376896744939" lon="6.7406958055063715"><ele>1819.0</ele><time>2026-04-18T13:39:52Z</time></trkpt><trkpt lat="44.93384533840664" lon="6.74090225078006"><ele>1815.6666666666667</ele><time>2026-04-18T13:39:53Z</time></trkpt><trkpt lat="44.93389978751631" lon="6.741113257990088"><ele>1812.3333333333335</ele><time>2026-04-18T13:39:54Z</time></trkpt><trkpt lat="44.933946943349376" lon="6.741314158835382"><ele>1809.0</ele><time>2026-04-18T13:39:55Z</time></trkpt><trkpt lat="44.93398446776554" lon="6.741518620149129"><ele>1809.0</ele><time>2026-04-18T13:39:56Z</time></trkpt><trkpt lat="44.93401834171008" lon="6.74171278623847"><ele>1809.0</ele><time>2026-04-18T13:39:57Z</time></trkpt><trkpt lat="44.93406647112913" lon="6.741886818246259"><ele>1809.0</ele><time>2026-04-18T13:39:58Z</time></trkpt><trkpt lat="44.93410166509075" lon="6.742036583048623"><ele>1809.0</ele><time>2026-04-18T13:39:59Z</time></trkpt><trkpt lat="44.93419231242655" lon="6.742112164622159"><ele>1807.4</ele><time>2026-04-18T13:40:00Z</time></trkpt><trkpt lat="44.934289420152695" lon="6.742188392799533"><ele>1805.8000000000002</ele><time>2026-04-18T13:40:01Z</time></trkpt><trkpt lat="44.934380328145124" lon="6.742259542368446"><ele>1804.1999999999998</ele><time>2026-04-18T13:40:02Z</time></trkpt><trkpt lat="44.93447148960299" lon="6.74232121222976"><ele>1802.6</ele><time>2026-04-18T13:40:03Z</time></trkpt><trkpt lat="44.934581160445674" lon="6.742359104312196"><ele>1801.0</ele><time>2026-04-18T13:40:04Z</time></trkpt><trkpt lat="44.934689175478674" lon="6.742393505359356"><ele>1801.0</ele><time>2026-04-18T13:40:05Z</time></trkpt><trkpt lat="44.934796620562814" lon="6.742432950504201"><ele>1801.0</ele><time>2026-04-18T13:40:06Z</time></trkpt><trkpt lat="44.93490209676444" lon="6.742470312259346"><ele>1801.0</ele><time>2026-04-18T13:40:07Z</time></trkpt><trkpt lat="44.93500436270555" lon="6.74251201166249"><ele>1801.0</ele><time>2026-04-18T13:40:08Z</time></trkpt><trkpt lat="44.93511260533317" lon="6.742575886402638"><ele>1801.0</ele><time>2026-04-18T13:40:09Z</time></trkpt><trkpt lat="44.93519627453398" lon="6.7426532608928635"><ele>1801.1999999999998</ele><time>2026-04-18T13:40:10Z</time></trkpt><trkpt lat="44.93522967667974" lon="6.742749192286495"><ele>1801.3999999999999</ele><time>2026-04-18T13:40:11Z</time></trkpt><trkpt lat="44.93529519810525" lon="6.742870177038776"><ele>1801.6</ele><time>2026-04-18T13:40:12Z</time></trkpt><trkpt lat="44.93530803713525" lon="6.7430444380012595"><ele>1801.8</ele><time>2026-04-18T13:40:13Z</time></trkpt><trkpt lat="44.935314437676276" lon="6.7431833525442055"><ele>1802.0</ele><time>2026-04-18T13:40:14Z</time></trkpt><trkpt lat="44.93531019675291" lon="6.743328638920061"><ele>1802.0</ele><time>2026-04-18T13:40:15Z</time></trkpt><trkpt lat="44.935322518386094" lon="6.743464851962032"><ele>1801.9999999999998</ele><time>2026-04-18T13:40:16Z</time></trkpt><trkpt lat="44.93532805106867" lon="6.743611219256998"><ele>1801.9999999999998</ele><time>2026-04-18T13:40:17Z</time></trkpt><trkpt lat="44.93534278330276" lon="6.74375993741967"><ele>1802.0</ele><time>2026-04-18T13:40:18Z</time></trkpt><trkpt lat="44.935369565878034" lon="6.743918808520947"><ele>1802.0</ele><time>2026-04-18T13:40:19Z</time></trkpt><trkpt lat="44.93540118950816" lon="6.744053055144204"><ele>1800.8</ele><time>2026-04-18T13:40:20Z</time></trkpt><trkpt lat="44.93544382299421" lon="6.744178529142083"><ele>1799.6</ele><time>2026-04-18T13:40:21Z</time></trkpt><trkpt lat="44.93549169653249" lon="6.744308203996145"><ele>1798.3999999999999</ele><time>2026-04-18T13:40:22Z</time></trkpt><trkpt lat="44.935566585599254" lon="6.744416940780206"><ele>1797.1999999999998</ele><time>2026-04-18T13:40:23Z</time></trkpt><trkpt lat="44.93564280721237" lon="6.744528091348379"><ele>1796.0</ele><time>2026-04-18T13:40:24Z</time></trkpt><trkpt lat="44.935715278083514" lon="6.744654648684877"><ele>1794.0</ele><time>2026-04-18T13:40:25Z</time></trkpt><trkpt lat="44.93582158885554" lon="6.744772203855516"><ele>1792.0</ele><time>2026-04-18T13:40:26Z</time></trkpt><trkpt lat="44.93589588852374" lon="6.7449085696387225"><ele>1790.0</ele><time>2026-04-18T13:40:27Z</time></trkpt><trkpt lat="44.935976835464444" lon="6.74504721414965"><ele>1788.0</ele><time>2026-04-18T13:40:28Z</time></trkpt><trkpt lat="44.93604997110112" lon="6.745186282653063"><ele>1789.25</ele><time>2026-04-18T13:40:29Z</time></trkpt><trkpt lat="44.936130180399125" lon="6.745316527552324"><ele>1790.5</ele><time>2026-04-18T13:40:30Z</time></trkpt><trkpt lat="44.936197773300734" lon="6.745428836089095"><ele>1791.75</ele><time>2026-04-18T13:40:31Z</time></trkpt><trkpt lat="44.93630523943897" lon="6.745512473984031"><ele>1793.0</ele><time>2026-04-18T13:40:32Z</time></trkpt><trkpt lat="44.93640348550852" lon="6.745583907778489"><ele>1793.0</ele><time>2026-04-18T13:40:33Z</time></trkpt><trkpt lat="44.93651074006055" lon="6.745633360519679"><ele>1793.0</ele><time>2026-04-18T13:40:34Z</time></trkpt><trkpt lat="44.93662090533859" lon="6.745699114639274"><ele>1793.0</ele><time>2026-04-18T13:40:35Z</time></trkpt><trkpt lat="44.93673509252186" lon="6.745641407907163"><ele>1793.0</ele><time>2026-04-18T13:40:36.021Z</time></trkpt><trkpt lat="44.93685760043398" lon="6.745646389545352"><ele>1792.5</ele><time>2026-04-18T13:40:37.011Z</time></trkpt><trkpt lat="44.936984862922586" lon="6.745661097072104"><ele>1792.0</ele><time>2026-04-18T13:40:38.011Z</time></trkpt><trkpt lat="44.93708171915113" lon="6.745677537626295"><ele>1791.5</ele><time>2026-04-18T13:40:39.018Z</time></trkpt><trkpt lat="44.937196630395846" lon="6.745704174239915"><ele>1791.0</ele><time>2026-04-18T13:40:40.016Z</time></trkpt><trkpt lat="44.93860204009696" lon="6.7465657936084265"><ele>1811.5</ele><time>2026-04-18T13:40:43.294Z</time></trkpt><trkpt lat="44.938930346240376" lon="6.7469985815818"><ele>1832.0</ele><time>2026-04-18T13:40:44.295Z</time></trkpt><trkpt lat="44.93920673184176" lon="6.747497330638055"><ele>1842.0</ele><time>2026-04-18T13:40:45.294Z</time></trkpt><trkpt lat="44.939472205237706" lon="6.748008684978368"><ele>1852.0</ele><time>2026-04-18T13:40:46.294Z</time></trkpt><trkpt lat="44.9397362077592" lon="6.748522468682098"><ele>1852.0</ele><time>2026-04-18T13:40:47.295Z</time></trkpt><trkpt lat="44.93999991699934" lon="6.749035681621638"><ele>1852.0</ele><time>2026-04-18T13:40:48.295Z</time></trkpt><trkpt lat="44.94026350147862" lon="6.7495482059250165"><ele>1852.0</ele><time>2026-04-18T13:40:49.294Z</time></trkpt><trkpt lat="44.94052982253407" lon="6.7500589876138815"><ele>1852.0</ele><time>2026-04-18T13:40:50.294Z</time></trkpt><trkpt lat="44.940801600560796" lon="6.750563554016109"><ele>1865.0</ele><time>2026-04-18T13:40:51.294Z</time></trkpt><trkpt lat="44.9409056" lon="6.7507385"><ele>1878.0</ele><time>2026-04-18T13:40:52.294Z</time></trkpt><trkpt lat="44.94198339277731" lon="6.758350756719331"><ele>1845.75</ele><time>2026-04-18T13:41:59Z</time></trkpt><trkpt lat="44.94190229727268" lon="6.758060164093818"><ele>1813.5</ele><time>2026-04-18T13:42:00Z</time></trkpt><trkpt lat="44.94188062818907" lon="6.758160762961644"><ele>1781.25</ele><time>2026-04-18T13:42:01Z</time></trkpt><trkpt lat="44.94182333934286" lon="6.758239692314995"><ele>1749.0</ele><time>2026-04-18T13:42:02Z</time></trkpt><trkpt lat="44.941897467642455" lon="6.758337789365457"><ele>1749.0</ele><time>2026-04-18T13:42:03.001Z</time></trkpt><trkpt lat="44.94200507822386" lon="6.758278541201576"><ele>1749.0</ele><time>2026-04-18T13:42:04Z</time></trkpt><trkpt lat="44.942118017354275" lon="6.7583793891042525"><ele>1749.0</ele><time>2026-04-18T13:42:06Z</time></trkpt><trkpt lat="44.94220100863964" lon="6.758446563622583"><ele>1749.0</ele><time>2026-04-18T13:42:07Z</time></trkpt><trkpt lat="44.94229587591703" lon="6.7585198317117365"><ele>1747.3333333333335</ele><time>2026-04-18T13:42:08Z</time></trkpt><trkpt lat="44.94240003517393" lon="6.7586526021007085"><ele>1745.6666666666667</ele><time>2026-04-18T13:42:09Z</time></trkpt><trkpt lat="44.94255923778918" lon="6.758791924592454"><ele>1744.0</ele><time>2026-04-18T13:42:10Z</time></trkpt><trkpt lat="44.94273920764845" lon="6.758927675801822"><ele>1743.3333333333335</ele><time>2026-04-18T13:42:11Z</time></trkpt><trkpt lat="44.94287384077382" lon="6.759085465404705"><ele>1742.6666666666665</ele><time>2026-04-18T13:42:12Z</time></trkpt><trkpt lat="44.9430271721841" lon="6.759220089940228"><ele>1742.0</ele><time>2026-04-18T13:42:13Z</time></trkpt><trkpt lat="44.94318411785176" lon="6.759346241748219"><ele>1739.3333333333333</ele><time>2026-04-18T13:42:14Z</time></trkpt><trkpt lat="44.943334810481254" lon="6.759491619299334"><ele>1736.6666666666665</ele><time>2026-04-18T13:42:15Z</time></trkpt><trkpt lat="44.943447967348376" lon="6.759609766402871"><ele>1734.0</ele><time>2026-04-18T13:42:16Z</time></trkpt><trkpt lat="44.943609263417905" lon="6.759704619779962"><ele>1745.6666666666665</ele><time>2026-04-18T13:42:17Z</time></trkpt><trkpt lat="44.9437543478562" lon="6.759825351762714"><ele>1757.3333333333333</ele><time>2026-04-18T13:42:18Z</time></trkpt><trkpt lat="44.94387474970947" lon="6.759942883742336"><ele>1769.0</ele><time>2026-04-18T13:42:19Z</time></trkpt><trkpt lat="44.944008367425845" lon="6.760059537686856"><ele>1769.0</ele><time>2026-04-18T13:42:20.021Z</time></trkpt><trkpt lat="44.944148727300416" lon="6.760138424272031"><ele>1769.0</ele><time>2026-04-18T13:42:21.017Z</time></trkpt><trkpt lat="44.944290289253786" lon="6.760192868643001"><ele>1769.0</ele><time>2026-04-18T13:42:22.019Z</time></trkpt><trkpt lat="44.944435406751616" lon="6.760235907173855"><ele>1769.0</ele><time>2026-04-18T13:42:23.016Z</time></trkpt><trkpt lat="44.94456992830868" lon="6.760261879249231"><ele>1930.0</ele><time>2026-04-18T13:42:24.012Z</time></trkpt><trkpt lat="44.94605087127066" lon="6.760210046884923"><ele>1930.0</ele><time>2026-04-18T13:42:27.295Z</time></trkpt><trkpt lat="44.94649052432696" lon="6.760341999967389"><ele>1930.0</ele><time>2026-04-18T13:42:28.294Z</time></trkpt><trkpt lat="44.94691487731855" lon="6.760551917008711"><ele>1935.5</ele><time>2026-04-18T13:42:29.295Z</time></trkpt><trkpt lat="44.94731468716575" lon="6.760841534699873"><ele>1941.0</ele><time>2026-04-18T13:42:30.295Z</time></trkpt><trkpt lat="44.94768414431607" lon="6.7612016574555085"><ele>1941.0</ele><time>2026-04-18T13:42:31.295Z</time></trkpt><trkpt lat="44.94802113266026" lon="6.761621944502771"><ele>1941.0</ele><time>2026-04-18T13:42:32.295Z</time></trkpt><trkpt lat="44.94833781860632" lon="6.762071000537027"><ele>1889.0</ele><time>2026-04-18T13:42:33.294Z</time></trkpt><trkpt lat="44.94865349090223" lon="6.762523197859288"><ele>1898.5</ele><time>2026-04-18T13:42:34.295Z</time></trkpt><trkpt lat="44.94896845707989" lon="6.762975011293542"><ele>1908.0</ele><time>2026-04-18T13:42:35.295Z</time></trkpt><trkpt lat="44.9492493" lon="6.7633826"><ele>1568.0</ele><time>2026-04-18T13:42:36.295Z</time></trkpt><trkpt lat="44.95066958476682" lon="6.77699502201496"><ele>1568.0</ele><time>2026-04-18T13:44:03.001Z</time></trkpt><trkpt lat="44.950731224767914" lon="6.776667061388392"><ele>1568.0</ele><time>2026-04-18T13:44:04.001Z</time></trkpt><trkpt lat="44.95080198653842" lon="6.776891177601752"><ele>1568.0</ele><time>2026-04-18T13:44:05.001Z</time></trkpt><trkpt lat="44.950917187288674" lon="6.777082923666872"><ele>1578.0</ele><time>2026-04-18T13:44:06.001Z</time></trkpt><trkpt lat="44.95104713141108" lon="6.777238229492739"><ele>1588.0</ele><time>2026-04-18T13:44:07.001Z</time></trkpt><trkpt lat="44.95117377603314" lon="6.777397129450977"><ele>1598.0</ele><time>2026-04-18T13:44:08.001Z</time></trkpt><trkpt lat="44.951296644822925" lon="6.777551382068506"><ele>1587.6666666666665</ele><time>2026-04-18T13:44:09.001Z</time></trkpt><trkpt lat="44.95143767498227" lon="6.777708068675358"><ele>1577.3333333333335</ele><time>2026-04-18T13:44:10.001Z</time></trkpt><trkpt lat="44.9515560427653" lon="6.777838794525135"><ele>1567.0</ele><time>2026-04-18T13:44:11.001Z</time></trkpt><trkpt lat="44.95168278312905" lon="6.777986293729103"><ele>1573.75</ele><time>2026-04-18T13:44:12.001Z</time></trkpt><trkpt lat="44.95180513411983" lon="6.778104868374141"><ele>1580.5</ele><time>2026-04-18T13:44:13.001Z</time></trkpt><trkpt lat="44.95188465149856" lon="6.778268241649575"><ele>1587.25</ele><time>2026-04-18T13:44:14.001Z</time></trkpt><trkpt lat="44.95195406696046" lon="6.778440269365767"><ele>1594.0</ele><time>2026-04-18T13:44:15.001Z</time></trkpt><trkpt lat="44.95199597010557" lon="6.778616488714148"><ele>1594.0000000000002</ele><time>2026-04-18T13:44:16.001Z</time></trkpt><trkpt lat="44.95202167379792" lon="6.778760820400763"><ele>1594.0</ele><time>2026-04-18T13:44:17.001Z</time></trkpt><trkpt lat="44.952040344743054" lon="6.7789013190306315"><ele>1594.0</ele><time>2026-04-18T13:44:18.001Z</time></trkpt><trkpt lat="44.952046226907655" lon="6.779033412283994"><ele>1594.0</ele><time>2026-04-18T13:44:19.001Z</time></trkpt><trkpt lat="44.95203280407127" lon="6.779122018487832"><ele>1594.0000000000002</ele><time>2026-04-18T13:44:20.001Z</time></trkpt><trkpt lat="44.95196239210099" lon="6.779182384132221"><ele>1594.0</ele><time>2026-04-18T13:44:22.001Z</time></trkpt><trkpt lat="44.9518886976334" lon="6.779142387531426"><ele>1594.0</ele><time>2026-04-18T13:44:23.001Z</time></trkpt><trkpt lat="44.95178974953618" lon="6.778907995056028"><ele>1594.0</ele><time>2026-04-18T13:44:25.001Z</time></trkpt><trkpt lat="44.951753675762035" lon="6.778751586965279"><ele>1594.0</ele><time>2026-04-18T13:44:26.001Z</time></trkpt><trkpt lat="44.95170742764968" lon="6.778593865241385"><ele>1594.0</ele><time>2026-04-18T13:44:27.001Z</time></trkpt><trkpt lat="44.95166117316396" lon="6.778438642548554"><ele>1587.25</ele><time>2026-04-18T13:44:28.001Z</time></trkpt><trkpt lat="44.951593804589585" lon="6.778274609299917"><ele>1580.5</ele><time>2026-04-18T13:44:29.001Z</time></trkpt><trkpt lat="44.95148637511498" lon="6.778134884780694"><ele>1573.75</ele><time>2026-04-18T13:44:30.001Z</time></trkpt><trkpt lat="44.95139398682687" lon="6.777984760119282"><ele>1567.0</ele><time>2026-04-18T13:44:31.001Z</time></trkpt><trkpt lat="44.95126515313236" lon="6.777837141397492"><ele>1567.0</ele><time>2026-04-18T13:44:32.001Z</time></trkpt><trkpt lat="44.95112844318551" lon="6.7777185470829995"><ele>1567.0</ele><time>2026-04-18T13:44:33.001Z</time></trkpt><trkpt lat="44.950999242245246" lon="6.777603437932785"><ele>1567.0</ele><time>2026-04-18T13:44:34.001Z</time></trkpt><trkpt lat="44.95085545016734" lon="6.77750859829524"><ele>1567.3333333333335</ele><time>2026-04-18T13:44:35.001Z</time></trkpt><trkpt lat="44.95069548052187" lon="6.777449295802154"><ele>1567.6666666666665</ele><time>2026-04-18T13:44:36.001Z</time></trkpt><trkpt lat="44.950535157046396" lon="6.777443348810457"><ele>1568.0</ele><time>2026-04-18T13:44:37.001Z</time></trkpt><trkpt lat="44.95038232422004" lon="6.777430863877146"><ele>1568.0</ele><time>2026-04-18T13:44:38.001Z</time></trkpt><trkpt lat="44.950232232036434" lon="6.777401349239272"><ele>1568.0</ele><time>2026-04-18T13:44:39.001Z</time></trkpt><trkpt lat="44.950105138597124" lon="6.7773468240725165"><ele>1568.0</ele><time>2026-04-18T13:44:40.001Z</time></trkpt><trkpt lat="44.94998939610172" lon="6.777259158300201"><ele>1568.0</ele><time>2026-04-18T13:44:41Z</time></trkpt><trkpt lat="44.949898123159244" lon="6.777120153883643"><ele>1567.3333333333333</ele><time>2026-04-18T13:44:42Z</time></trkpt><trkpt lat="44.94980697831376" lon="6.776958510578363"><ele>1566.6666666666665</ele><time>2026-04-18T13:44:43Z</time></trkpt><trkpt lat="44.94968832689499" lon="6.776740587632182"><ele>1566.0</ele><time>2026-04-18T13:44:44Z</time></trkpt><trkpt lat="44.94959115446446" lon="6.776562536168633"><ele>1566.0</ele><time>2026-04-18T13:44:45Z</time></trkpt><trkpt lat="44.94948427769942" lon="6.776363745390298"><ele>1566.0</ele><time>2026-04-18T13:44:46Z</time></trkpt><trkpt lat="44.94938729636787" lon="6.776166697163707"><ele>1566.0</ele><time>2026-04-18T13:44:47Z</time></trkpt><trkpt lat="44.94931183090965" lon="6.77596940820629"><ele>1569.0</ele><time>2026-04-18T13:44:48Z</time></trkpt><trkpt lat="44.94924584553137" lon="6.775765456534448"><ele>1572.0</ele><time>2026-04-18T13:44:49Z</time></trkpt><trkpt lat="44.94919599612863" lon="6.775557893597044"><ele>1575.0</ele><time>2026-04-18T13:44:50Z</time></trkpt><trkpt lat="44.94915409236784" lon="6.775338920464724"><ele>1565.0</ele><time>2026-04-18T13:44:51Z</time></trkpt><trkpt lat="44.94911474621374" lon="6.7751101886024925"><ele>1555.0</ele><time>2026-04-18T13:44:52.012Z</time></trkpt><trkpt lat="44.949078436471474" lon="6.774881526552624"><ele>1545.0</ele><time>2026-04-18T13:44:53.019Z</time></trkpt><trkpt lat="44.949007686179115" lon="6.774420942526088"><ele>1543.0</ele><time>2026-04-18T13:44:55.017Z</time></trkpt><trkpt lat="44.94897232358252" lon="6.774190732200638"><ele>1541.0</ele><time>2026-04-18T13:44:56.018Z</time></trkpt><trkpt lat="44.948415449647214" lon="6.772344912257502"><ele>1526.0</ele><time>2026-04-18T13:44:59.295Z</time></trkpt><trkpt lat="44.94797717318399" lon="6.771912574774373"><ele>1533.5</ele><time>2026-04-18T13:45:09Z</time></trkpt><trkpt lat="44.94791059621276" lon="6.771726321648311"><ele>1541.0</ele><time>2026-04-18T13:45:10Z</time></trkpt><trkpt lat="44.94760088073614" lon="6.771836265156674"><ele>1541.0</ele><time>2026-04-18T13:45:11Z</time></trkpt><trkpt lat="44.94757335031636" lon="6.771745871875871"><ele>1541.0</ele><time>2026-04-18T13:45:12Z</time></trkpt><trkpt lat="44.947451287161115" lon="6.771822473437171"><ele>1541.0</ele><time>2026-04-18T13:45:13Z</time></trkpt><trkpt lat="44.9473602066697" lon="6.771895622051996"><ele>1541.0</ele><time>2026-04-18T13:45:14Z</time></trkpt><trkpt lat="44.94729590411754" lon="6.771809659613994"><ele>1541.0</ele><time>2026-04-18T13:45:15Z</time></trkpt><trkpt lat="44.94720327209454" lon="6.771943778877653"><ele>1532.25</ele><time>2026-04-18T13:45:16Z</time></trkpt><trkpt lat="44.94716043990205" lon="6.7720799621932946"><ele>1523.5</ele><time>2026-04-18T13:45:17Z</time></trkpt><trkpt lat="44.9471372597593" lon="6.7722324789423025"><ele>1514.75</ele><time>2026-04-18T13:45:18Z</time></trkpt><trkpt lat="44.94712582556917" lon="6.772375175815249"><ele>1506.0</ele><time>2026-04-18T13:45:19Z</time></trkpt><trkpt lat="44.9471143460351" lon="6.772590048599308"><ele>1504.3333333333333</ele><time>2026-04-18T13:45:20Z</time></trkpt><trkpt lat="44.947106644281526" lon="6.772789344174902"><ele>1502.6666666666665</ele><time>2026-04-18T13:45:21Z</time></trkpt><trkpt lat="44.94709682328889" lon="6.773043478051356"><ele>1501.0</ele><time>2026-04-18T13:45:22.001Z</time></trkpt><trkpt lat="44.94708721060865" lon="6.77329222182764"><ele>1501.0</ele><time>2026-04-18T13:45:23.001Z</time></trkpt><trkpt lat="44.947079224573955" lon="6.773498872893006"><ele>1501.0</ele><time>2026-04-18T13:45:24.001Z</time></trkpt><trkpt lat="44.94708186649328" lon="6.773734770638178"><ele>1501.0</ele><time>2026-04-18T13:45:25.001Z</time></trkpt><trkpt lat="44.94707727397695" lon="6.773970852972458"><ele>1501.0</ele><time>2026-04-18T13:45:26.001Z</time></trkpt><trkpt lat="44.94706457871231" lon="6.774238981769831"><ele>1501.0</ele><time>2026-04-18T13:45:27.001Z</time></trkpt><trkpt lat="44.94704537347751" lon="6.774479536214254"><ele>1501.0</ele><time>2026-04-18T13:45:28.001Z</time></trkpt><trkpt lat="44.947035938812405" lon="6.774683914413895"><ele>1502.0</ele><time>2026-04-18T13:45:29.001Z</time></trkpt><trkpt lat="44.94702981946332" lon="6.774917580477325"><ele>1503.0</ele><time>2026-04-18T13:45:30.001Z</time></trkpt><trkpt lat="44.94703085130148" lon="6.77514032765461"><ele>1504.0</ele><time>2026-04-18T13:45:31.001Z</time></trkpt><trkpt lat="44.94702440110316" lon="6.775376963656235"><ele>1503.6666666666665</ele><time>2026-04-18T13:45:32.001Z</time></trkpt><trkpt lat="44.94701734629013" lon="6.77562159115669"><ele>1503.3333333333333</ele><time>2026-04-18T13:45:33.001Z</time></trkpt><trkpt lat="44.94701283180272" lon="6.7758998210332635"><ele>1503.0</ele><time>2026-04-18T13:45:34.001Z</time></trkpt><trkpt lat="44.94700374079986" lon="6.776173999962936"><ele>1503.0</ele><time>2026-04-18T13:45:35.001Z</time></trkpt><trkpt lat="44.94699663966493" lon="6.7764205799324815"><ele>1503.0</ele><time>2026-04-18T13:45:36.001Z</time></trkpt><trkpt lat="44.9469793445303" lon="6.776671631801058"><ele>1503.0</ele><time>2026-04-18T13:45:37.001Z</time></trkpt><trkpt lat="44.94697234712472" lon="6.77690491423005"><ele>1500.5</ele><time>2026-04-18T13:45:38.001Z</time></trkpt><trkpt lat="44.946981204769095" lon="6.777130162800404"><ele>1498.0</ele><time>2026-04-18T13:45:39.001Z</time></trkpt><trkpt lat="44.94700613778496" lon="6.7773032284764065"><ele>1495.5</ele><time>2026-04-18T13:45:40.001Z</time></trkpt><trkpt lat="44.94708071649417" lon="6.777441093970458"><ele>1493.0</ele><time>2026-04-18T13:45:41.001Z</time></trkpt><trkpt lat="44.94715878568045" lon="6.77756021885578"><ele>1493.0</ele><time>2026-04-18T13:45:42.001Z</time></trkpt><trkpt lat="44.9472482419638" lon="6.777626559519601"><ele>1493.0</ele><time>2026-04-18T13:45:43.001Z</time></trkpt><trkpt lat="44.94734482585888" lon="6.777717970521598"><ele>1493.0</ele><time>2026-04-18T13:45:44.001Z</time></trkpt><trkpt lat="44.947444984496116" lon="6.777806189193425"><ele>1493.0</ele><time>2026-04-18T13:45:45.001Z</time></trkpt><trkpt lat="44.947545790791125" lon="6.777913285073734"><ele>1489.3333333333335</ele><time>2026-04-18T13:45:46.001Z</time></trkpt><trkpt lat="44.947685789434686" lon="6.77806084561649"><ele>1485.6666666666667</ele><time>2026-04-18T13:45:47.001Z</time></trkpt><trkpt lat="44.94781628524976" lon="6.778191382369897"><ele>1482.0</ele><time>2026-04-18T13:45:48.001Z</time></trkpt><trkpt lat="44.94808275346131" lon="6.77843223058747"><ele>1482.6666666666667</ele><time>2026-04-18T13:45:49.001Z</time></trkpt><trkpt lat="44.94823590941021" lon="6.778664507148203"><ele>1483.3333333333335</ele><time>2026-04-18T13:45:50.001Z</time></trkpt><trkpt lat="44.948348162507344" lon="6.778898853303097"><ele>1484.0</ele><time>2026-04-18T13:45:51.001Z</time></trkpt><trkpt lat="44.94846740275736" lon="6.779147359902426"><ele>1476.6666666666667</ele><time>2026-04-18T13:45:52.001Z</time></trkpt><trkpt lat="44.948577314001085" lon="6.779379726280568"><ele>1469.3333333333333</ele><time>2026-04-18T13:45:53.001Z</time></trkpt><trkpt lat="44.94867473805208" lon="6.779585693056081"><ele>1462.0</ele><time>2026-04-18T13:45:54.001Z</time></trkpt><trkpt lat="44.94879107157208" lon="6.779831399445533"><ele>1462.0</ele><time>2026-04-18T13:45:55.001Z</time></trkpt><trkpt lat="44.94891409251412" lon="6.780024297124782"><ele>1462.0</ele><time>2026-04-18T13:45:56.001Z</time></trkpt><trkpt lat="44.94901124634579" lon="6.780271915315579"><ele>1462.0</ele><time>2026-04-18T13:45:57.001Z</time></trkpt><trkpt lat="44.949085301944464" lon="6.7805300614016755"><ele>1460.6666666666665</ele><time>2026-04-18T13:45:58.001Z</time></trkpt><trkpt lat="44.9491424917634" lon="6.780799005060053"><ele>1459.3333333333333</ele><time>2026-04-18T13:45:59.001Z</time></trkpt><trkpt lat="44.94921260239916" lon="6.7810527254305315"><ele>1458.0</ele><time>2026-04-18T13:46:00.001Z</time></trkpt><trkpt lat="44.94929921312423" lon="6.781316532863757"><ele>1445.5</ele><time>2026-04-18T13:46:01.001Z</time></trkpt><trkpt lat="44.9494243709068" lon="6.781647101608975"><ele>1433.0</ele><time>2026-04-18T13:46:02.001Z</time></trkpt><trkpt lat="44.94953102456055" lon="6.781890422191385"><ele>1432.3333333333335</ele><time>2026-04-18T13:46:03.001Z</time></trkpt><trkpt lat="44.94963856525894" lon="6.782093655776476"><ele>1431.6666666666667</ele><time>2026-04-18T13:46:04.001Z</time></trkpt><trkpt lat="44.949713173092746" lon="6.782329613277857"><ele>1431.0</ele><time>2026-04-18T13:46:05.001Z</time></trkpt><trkpt lat="44.94977157282501" lon="6.782532231887765"><ele>1431.0</ele><time>2026-04-18T13:46:06.001Z</time></trkpt><trkpt lat="44.94982172289877" lon="6.782788899146977"><ele>1431.0</ele><time>2026-04-18T13:46:07.001Z</time></trkpt><trkpt lat="44.94983793070704" lon="6.783046014170643"><ele>1431.0</ele><time>2026-04-18T13:46:08.001Z</time></trkpt><trkpt lat="44.94983546392941" lon="6.783281238642455"><ele>1431.0</ele><time>2026-04-18T13:46:09.001Z</time></trkpt><trkpt lat="44.94979567491515" lon="6.783507172730135"><ele>1431.0</ele><time>2026-04-18T13:46:10.001Z</time></trkpt><trkpt lat="44.949732762740325" lon="6.783723299409729"><ele>1431.0</ele><time>2026-04-18T13:46:11.001Z</time></trkpt><trkpt lat="44.94962972118256" lon="6.783922756146599"><ele>1429.5</ele><time>2026-04-18T13:46:12.001Z</time></trkpt><trkpt lat="44.9495276577105" lon="6.784040377761822"><ele>1428.0</ele><time>2026-04-18T13:46:13.001Z</time></trkpt><trkpt lat="44.94939341320687" lon="6.7841621973787385"><ele>1426.5</ele><time>2026-04-18T13:46:14.001Z</time></trkpt><trkpt lat="44.94925465892859" lon="6.7842291516452145"><ele>1425.0</ele><time>2026-04-18T13:46:15.001Z</time></trkpt><trkpt lat="44.94907270314416" lon="6.784310525660972"><ele>1423.6666666666667</ele><time>2026-04-18T13:46:16.001Z</time></trkpt><trkpt lat="44.94890379493434" lon="6.7844282000055625"><ele>1422.3333333333335</ele><time>2026-04-18T13:46:17.001Z</time></trkpt><trkpt lat="44.94876860493055" lon="6.784556637728062"><ele>1421.0</ele><time>2026-04-18T13:46:18.001Z</time></trkpt><trkpt lat="44.94864114191365" lon="6.784690896333198"><ele>1421.0</ele><time>2026-04-18T13:46:19.001Z</time></trkpt><trkpt lat="44.948511740584195" lon="6.784834965463606"><ele>1421.0</ele><time>2026-04-18T13:46:20.001Z</time></trkpt><trkpt lat="44.94840226802576" lon="6.784973097489552"><ele>1421.0</ele><time>2026-04-18T13:46:21.001Z</time></trkpt><trkpt lat="44.9483205250818" lon="6.785108687277433"><ele>1421.0</ele><time>2026-04-18T13:46:22.001Z</time></trkpt><trkpt lat="44.94824654158643" lon="6.785246251077664"><ele>1422.0</ele><time>2026-04-18T13:46:23.001Z</time></trkpt><trkpt lat="44.94824159669488" lon="6.78535008205681"><ele>1423.0</ele><time>2026-04-18T13:46:24.001Z</time></trkpt><trkpt lat="44.94826301654419" lon="6.785523001886639"><ele>1424.0</ele><time>2026-04-18T13:46:25.001Z</time></trkpt><trkpt lat="44.948328777540716" lon="6.785668558411917"><ele>1425.0</ele><time>2026-04-18T13:46:26.001Z</time></trkpt><trkpt lat="44.948409916803094" lon="6.785794274656228"><ele>1426.0</ele><time>2026-04-18T13:46:27.001Z</time></trkpt><trkpt lat="44.94847209160096" lon="6.7858716470564895"><ele>1422.3333333333333</ele><time>2026-04-18T13:46:28.001Z</time></trkpt><trkpt lat="44.94853926478863" lon="6.785909556376489"><ele>1418.6666666666667</ele><time>2026-04-18T13:46:29.001Z</time></trkpt><trkpt lat="44.94878708624364" lon="6.786061073969766"><ele>1415.0</ele><time>2026-04-18T13:46:30.001Z</time></trkpt><trkpt lat="44.948904549857275" lon="6.786137011826291"><ele>1415.0</ele><time>2026-04-18T13:46:31.001Z</time></trkpt><trkpt lat="44.94906667923624" lon="6.786252927312511"><ele>1415.0</ele><time>2026-04-18T13:46:32.001Z</time></trkpt><trkpt lat="44.94923160471559" lon="6.786375567444696"><ele>1415.0</ele><time>2026-04-18T13:46:33.001Z</time></trkpt><trkpt lat="44.949349211755454" lon="6.786491447277464"><ele>1406.6666666666667</ele><time>2026-04-18T13:46:34.001Z</time></trkpt><trkpt lat="44.94944725611353" lon="6.786664247764145"><ele>1398.3333333333333</ele><time>2026-04-18T13:46:35.001Z</time></trkpt><trkpt lat="44.94953967891773" lon="6.7868372118587335"><ele>1390.0</ele><time>2026-04-18T13:46:36.001Z</time></trkpt><trkpt lat="44.94961550651735" lon="6.787005157914203"><ele>1390.0</ele><time>2026-04-18T13:46:37.001Z</time></trkpt><trkpt lat="44.94964971460517" lon="6.787211852505734"><ele>1390.0</ele><time>2026-04-18T13:46:38.001Z</time></trkpt><trkpt lat="44.94964133174134" lon="6.787402567511594"><ele>1390.0</ele><time>2026-04-18T13:46:39.001Z</time></trkpt><trkpt lat="44.949650828057855" lon="6.787600242045073"><ele>1390.0</ele><time>2026-04-18T13:46:40.001Z</time></trkpt><trkpt lat="44.94962851797312" lon="6.787787416665197"><ele>1388.0</ele><time>2026-04-18T13:46:41.001Z</time></trkpt><trkpt lat="44.949591910231526" lon="6.7879595755715405"><ele>1386.0</ele><time>2026-04-18T13:46:42.001Z</time></trkpt><trkpt lat="44.94954863257223" lon="6.788131858009002"><ele>1384.0</ele><time>2026-04-18T13:46:43.001Z</time></trkpt><trkpt lat="44.94948351181719" lon="6.788300075576278"><ele>1382.0</ele><time>2026-04-18T13:46:44.001Z</time></trkpt><trkpt lat="44.949433784864134" lon="6.788487815442827"><ele>1383.1999999999998</ele><time>2026-04-18T13:46:45.001Z</time></trkpt><trkpt lat="44.94944164475969" lon="6.788612619713798"><ele>1384.4</ele><time>2026-04-18T13:46:46.001Z</time></trkpt><trkpt lat="44.949487747057304" lon="6.788747721909996"><ele>1385.6</ele><time>2026-04-18T13:46:47.001Z</time></trkpt><trkpt lat="44.94955482789451" lon="6.788834159792937"><ele>1386.8000000000002</ele><time>2026-04-18T13:46:48.001Z</time></trkpt><trkpt lat="44.94965503832413" lon="6.788901521079904"><ele>1388.0</ele><time>2026-04-18T13:46:50.001Z</time></trkpt><trkpt lat="44.949789555766145" lon="6.788947861049893"><ele>1388.0</ele><time>2026-04-18T13:46:52Z</time></trkpt><trkpt lat="44.94993720284363" lon="6.788849555117493"><ele>1388.0</ele><time>2026-04-18T13:46:53Z</time></trkpt><trkpt lat="44.950114534251455" lon="6.788770123408667"><ele>1388.0</ele><time>2026-04-18T13:46:54Z</time></trkpt><trkpt lat="44.95028431899182" lon="6.7886057104452115"><ele>1382.75</ele><time>2026-04-18T13:46:55Z</time></trkpt><trkpt lat="44.95038207680828" lon="6.788423487263881"><ele>1377.5</ele><time>2026-04-18T13:46:56Z</time></trkpt><trkpt lat="44.95043904572127" lon="6.788249409057174"><ele>1372.25</ele><time>2026-04-18T13:46:57Z</time></trkpt><trkpt lat="44.95047040155855" lon="6.788055828831012"><ele>1367.0</ele><time>2026-04-18T13:46:58Z</time></trkpt><trkpt lat="44.95051158862038" lon="6.787884208370982"><ele>1367.0</ele><time>2026-04-18T13:46:59Z</time></trkpt><trkpt lat="44.95048490688702" lon="6.7877267696360795"><ele>1367.0</ele><time>2026-04-18T13:47:00Z</time></trkpt><trkpt lat="44.95044488369054" lon="6.7874989610569845"><ele>1367.0</ele><time>2026-04-18T13:47:01Z</time></trkpt><trkpt lat="44.95034059074179" lon="6.787212754382576"><ele>1366.5</ele><time>2026-04-18T13:47:02Z</time></trkpt><trkpt lat="44.950308285636936" lon="6.787014060385282"><ele>1366.0</ele><time>2026-04-18T13:47:03Z</time></trkpt><trkpt lat="44.950274136523475" lon="6.786820127413331"><ele>1365.5</ele><time>2026-04-18T13:47:04Z</time></trkpt><trkpt lat="44.95024192108555" lon="6.786628934917872"><ele>1365.0</ele><time>2026-04-18T13:47:05Z</time></trkpt><trkpt lat="44.9502135241894" lon="6.786452756631242"><ele>1364.75</ele><time>2026-04-18T13:47:06Z</time></trkpt><trkpt lat="44.95020156964417" lon="6.786278510078544"><ele>1364.5</ele><time>2026-04-18T13:47:07Z</time></trkpt><trkpt lat="44.95018357107153" lon="6.7861043610255845"><ele>1364.25</ele><time>2026-04-18T13:47:08Z</time></trkpt><trkpt lat="44.95022081235799" lon="6.785966027286659"><ele>1364.0</ele><time>2026-04-18T13:47:09Z</time></trkpt><trkpt lat="44.9502687526392" lon="6.785819690315032"><ele>1365.5</ele><time>2026-04-18T13:47:10Z</time></trkpt><trkpt lat="44.95034736549996" lon="6.785647128319334"><ele>1367.0</ele><time>2026-04-18T13:47:11Z</time></trkpt><trkpt lat="44.9504309358706" lon="6.785513963851668"><ele>1368.5</ele><time>2026-04-18T13:47:12Z</time></trkpt><trkpt lat="44.950515965782365" lon="6.785435500681651"><ele>1370.0</ele><time>2026-04-18T13:47:13Z</time></trkpt><trkpt lat="44.950619996773604" lon="6.785361414864158"><ele>1370.0</ele><time>2026-04-18T13:47:14Z</time></trkpt><trkpt lat="44.95073006367818" lon="6.78531265842904"><ele>1370.0</ele><time>2026-04-18T13:47:15Z</time></trkpt><trkpt lat="44.950853661697245" lon="6.785286279467449"><ele>1370.0</ele><time>2026-04-18T13:47:16Z</time></trkpt><trkpt lat="44.95096110367377" lon="6.785277984541157"><ele>1370.0</ele><time>2026-04-18T13:47:17Z</time></trkpt><trkpt lat="44.95109796000176" lon="6.785304574258615"><ele>1371.0</ele><time>2026-04-18T13:47:18Z</time></trkpt><trkpt lat="44.95127201766279" lon="6.785385161621968"><ele>1372.0</ele><time>2026-04-18T13:47:19Z</time></trkpt><trkpt lat="44.95141112842413" lon="6.7855022721460685"><ele>1373.0</ele><time>2026-04-18T13:47:20Z</time></trkpt><trkpt lat="44.951512516676054" lon="6.785611811293182"><ele>1373.0</ele><time>2026-04-18T13:47:21Z</time></trkpt><trkpt lat="44.95159836465071" lon="6.785750915210733"><ele>1373.0</ele><time>2026-04-18T13:47:22Z</time></trkpt><trkpt lat="44.95167185329102" lon="6.785915124081102"><ele>1373.0</ele><time>2026-04-18T13:47:23Z</time></trkpt><trkpt lat="44.9517340934501" lon="6.78613247182259"><ele>1373.0</ele><time>2026-04-18T13:47:24Z</time></trkpt><trkpt lat="44.95178235832612" lon="6.7863250148488135"><ele>1374.0</ele><time>2026-04-18T13:47:25Z</time></trkpt><trkpt lat="44.9518309537687" lon="6.786525101848358"><ele>1375.0</ele><time>2026-04-18T13:47:26Z</time></trkpt><trkpt lat="44.95188217229521" lon="6.786735167624009"><ele>1376.0</ele><time>2026-04-18T13:47:27Z</time></trkpt><trkpt lat="44.95193715369706" lon="6.786930702052163"><ele>1370.0</ele><time>2026-04-18T13:47:28Z</time></trkpt><trkpt lat="44.95199437749831" lon="6.787124547213172"><ele>1364.0</ele><time>2026-04-18T13:47:29Z</time></trkpt><trkpt lat="44.952071724478174" lon="6.787335698001989"><ele>1358.0</ele><time>2026-04-18T13:47:30Z</time></trkpt><trkpt lat="44.95215686727879" lon="6.787529633854329"><ele>1357.0</ele><time>2026-04-18T13:47:31Z</time></trkpt><trkpt lat="44.95223560795632" lon="6.787688860011689"><ele>1356.0</ele><time>2026-04-18T13:47:32Z</time></trkpt><trkpt lat="44.95233420270701" lon="6.787870481600077"><ele>1355.0</ele><time>2026-04-18T13:47:33Z</time></trkpt><trkpt lat="44.952398961357474" lon="6.788041766785536"><ele>1354.0</ele><time>2026-04-18T13:47:34Z</time></trkpt><trkpt lat="44.95247854625139" lon="6.788184713142535"><ele>1353.75</ele><time>2026-04-18T13:47:35Z</time></trkpt><trkpt lat="44.95254123062108" lon="6.788348030462814"><ele>1353.5</ele><time>2026-04-18T13:47:36Z</time></trkpt><trkpt lat="44.95261685826765" lon="6.788508085122601"><ele>1353.25</ele><time>2026-04-18T13:47:37Z</time></trkpt><trkpt lat="44.95269333733418" lon="6.78865419765055"><ele>1353.0</ele><time>2026-04-18T13:47:38Z</time></trkpt><trkpt lat="44.95277063940371" lon="6.788817861253781"><ele>1352.75</ele><time>2026-04-18T13:47:39Z</time></trkpt><trkpt lat="44.952852136889284" lon="6.7889622652048205"><ele>1352.5</ele><time>2026-04-18T13:47:40Z</time></trkpt><trkpt lat="44.95293002475879" lon="6.789104857307656"><ele>1352.25</ele><time>2026-04-18T13:47:41Z</time></trkpt><trkpt lat="44.95302334243287" lon="6.7892295873954565"><ele>1352.0</ele><time>2026-04-18T13:47:42Z</time></trkpt><trkpt lat="44.953122729661665" lon="6.789350249291806"><ele>1352.0</ele><time>2026-04-18T13:47:43Z</time></trkpt><trkpt lat="44.953213053829195" lon="6.789493837270985"><ele>1352.0</ele><time>2026-04-18T13:47:44Z</time></trkpt><trkpt lat="44.95331104280591" lon="6.7895995815012276"><ele>1352.0</ele><time>2026-04-18T13:47:45Z</time></trkpt><trkpt lat="44.953416417996245" lon="6.789707260485447"><ele>1352.0</ele><time>2026-04-18T13:47:46Z</time></trkpt><trkpt lat="44.95351254413359" lon="6.789819485013751"><ele>1350.8</ele><time>2026-04-18T13:47:47Z</time></trkpt><trkpt lat="44.95360650275648" lon="6.789910958122187"><ele>1349.6</ele><time>2026-04-18T13:47:48Z</time></trkpt><trkpt lat="44.95370476490942" lon="6.789997661369482"><ele>1348.3999999999999</ele><time>2026-04-18T13:47:49Z</time></trkpt><trkpt lat="44.95383965266557" lon="6.7900485534264705"><ele>1347.1999999999998</ele><time>2026-04-18T13:47:50Z</time></trkpt><trkpt lat="44.95389888600856" lon="6.790109594037038"><ele>1346.0</ele><time>2026-04-18T13:47:51Z</time></trkpt><trkpt lat="44.95395098052817" lon="6.790209564302518"><ele>1346.0</ele><time>2026-04-18T13:47:52Z</time></trkpt><trkpt lat="44.95400609107838" lon="6.790313303108153"><ele>1346.0</ele><time>2026-04-18T13:47:53Z</time></trkpt><trkpt lat="44.95407751458348" lon="6.790407594555531"><ele>1346.0</ele><time>2026-04-18T13:47:54Z</time></trkpt><trkpt lat="44.95413672851721" lon="6.790493362835424"><ele>1346.0</ele><time>2026-04-18T13:47:55Z</time></trkpt><trkpt lat="44.954193457925285" lon="6.7905665536831235"><ele>1346.0</ele><time>2026-04-18T13:47:56Z</time></trkpt><trkpt lat="44.954259012818916" lon="6.790668414807909"><ele>1346.0</ele><time>2026-04-18T13:47:57Z</time></trkpt><trkpt lat="44.95425392018301" lon="6.790790822606917"><ele>1345.5</ele><time>2026-04-18T13:47:58Z</time></trkpt><trkpt lat="44.9542587230876" lon="6.790915715570686"><ele>1345.0</ele><time>2026-04-18T13:47:59Z</time></trkpt><trkpt lat="44.95422822120601" lon="6.791050313471941"><ele>1344.5</ele><time>2026-04-18T13:48:00Z</time></trkpt><trkpt lat="44.95422891379731" lon="6.791172551086724"><ele>1344.0</ele><time>2026-04-18T13:48:01Z</time></trkpt><trkpt lat="44.95424458727734" lon="6.791294902719739"><ele>1343.5</ele><time>2026-04-18T13:48:02Z</time></trkpt><trkpt lat="44.95427474951631" lon="6.791401776234185"><ele>1343.0</ele><time>2026-04-18T13:48:03Z</time></trkpt><trkpt lat="44.95430244255277" lon="6.791534882745721"><ele>1343.0</ele><time>2026-04-18T13:48:04Z</time></trkpt><trkpt lat="44.95433915127338" lon="6.791676037013937"><ele>1343.0</ele><time>2026-04-18T13:48:05Z</time></trkpt><trkpt lat="44.95438679267623" lon="6.791819267576501"><ele>1343.0</ele><time>2026-04-18T13:48:06Z</time></trkpt><trkpt lat="44.954463647112576" lon="6.791956351937171"><ele>1343.0</ele><time>2026-04-18T13:48:07Z</time></trkpt><trkpt lat="44.954578627152" lon="6.792103531467205"><ele>1342.75</ele><time>2026-04-18T13:48:08Z</time></trkpt><trkpt lat="44.95469654075108" lon="6.7922234346353685"><ele>1342.5</ele><time>2026-04-18T13:48:09Z</time></trkpt><trkpt lat="44.95481929194149" lon="6.792327081635468"><ele>1342.25</ele><time>2026-04-18T13:48:10Z</time></trkpt><trkpt lat="44.95489588349205" lon="6.792451472821526"><ele>1342.0</ele><time>2026-04-18T13:48:11Z</time></trkpt><trkpt lat="44.954972891073545" lon="6.792565583602879"><ele>1341.5</ele><time>2026-04-18T13:48:12Z</time></trkpt><trkpt lat="44.955047449888106" lon="6.79265699531596"><ele>1341.0</ele><time>2026-04-18T13:48:13Z</time></trkpt><trkpt lat="44.955118169653474" lon="6.792687526668008"><ele>1340.5</ele><time>2026-04-18T13:48:14Z</time></trkpt><trkpt lat="44.95520297206113" lon="6.792820701833582"><ele>1340.0</ele><time>2026-04-18T13:48:16Z</time></trkpt><trkpt lat="44.955233022436325" lon="6.792898981061545"><ele>1339.5</ele><time>2026-04-18T13:48:17Z</time></trkpt><trkpt lat="44.95527147865315" lon="6.792986240287752"><ele>1339.0</ele><time>2026-04-18T13:48:18Z</time></trkpt><trkpt lat="44.955338136654504" lon="6.793103849650468"><ele>1340.25</ele><time>2026-04-18T13:48:20Z</time></trkpt><trkpt lat="44.95540569993704" lon="6.793118271817342"><ele>1341.5</ele><time>2026-04-18T13:48:21Z</time></trkpt><trkpt lat="44.95556123397834" lon="6.793093556525083"><ele>1342.75</ele><time>2026-04-18T13:48:23.001Z</time></trkpt><trkpt lat="44.95569527613576" lon="6.7931126371128645"><ele>1344.0</ele><time>2026-04-18T13:48:24.001Z</time></trkpt><trkpt lat="44.955871164572244" lon="6.793073776524203"><ele>1344.0</ele><time>2026-04-18T13:48:25.001Z</time></trkpt><trkpt lat="44.9559935272696" lon="6.793079205260073"><ele>1344.0</ele><time>2026-04-18T13:48:26.001Z</time></trkpt><trkpt lat="44.95614452562947" lon="6.793088533712329"><ele>1344.0</ele><time>2026-04-18T13:48:27.001Z</time></trkpt><trkpt lat="44.95625971525719" lon="6.793078705076286"><ele>1344.0</ele><time>2026-04-18T13:48:28.001Z</time></trkpt><trkpt lat="44.95639273951514" lon="6.7931077109265985"><ele>1344.0</ele><time>2026-04-18T13:48:29.001Z</time></trkpt><trkpt lat="44.956530844457184" lon="6.7933116748951425"><ele>1344.0</ele><time>2026-04-18T13:48:30.001Z</time></trkpt><trkpt lat="44.95664441347769" lon="6.793487213126221"><ele>1344.0</ele><time>2026-04-18T13:48:31.001Z</time></trkpt><trkpt lat="44.95675542436238" lon="6.7936462746390776"><ele>1343.3333333333333</ele><time>2026-04-18T13:48:32.001Z</time></trkpt><trkpt lat="44.956885842731985" lon="6.793821749997021"><ele>1342.6666666666665</ele><time>2026-04-18T13:48:33.001Z</time></trkpt><trkpt lat="44.956990076789324" lon="6.793991950181747"><ele>1342.0</ele><time>2026-04-18T13:48:34Z</time></trkpt><trkpt lat="44.95711896767526" lon="6.794138681813635"><ele>1342.0</ele><time>2026-04-18T13:48:35Z</time></trkpt><trkpt lat="44.95726723292556" lon="6.79427098692326"><ele>1342.0</ele><time>2026-04-18T13:48:36Z</time></trkpt><trkpt lat="44.95741199828094" lon="6.794367576878681"><ele>1342.0</ele><time>2026-04-18T13:48:37Z</time></trkpt><trkpt lat="44.9575716334868" lon="6.794446216208824"><ele>1341.3333333333333</ele><time>2026-04-18T13:48:38Z</time></trkpt><trkpt lat="44.95772234759306" lon="6.794561627097605"><ele>1340.6666666666667</ele><time>2026-04-18T13:48:39Z</time></trkpt><trkpt lat="44.95787869624618" lon="6.794683815480804"><ele>1340.0</ele><time>2026-04-18T13:48:40Z</time></trkpt><trkpt lat="44.95803836144373" lon="6.794801472236801"><ele>1340.0</ele><time>2026-04-18T13:48:41Z</time></trkpt><trkpt lat="44.958204471283175" lon="6.794899735944036"><ele>1340.0</ele><time>2026-04-18T13:48:42Z</time></trkpt><trkpt lat="44.95836894497031" lon="6.794992684519003"><ele>1340.0</ele><time>2026-04-18T13:48:43Z</time></trkpt><trkpt lat="44.95851229500722" lon="6.795113352015697"><ele>1347.0</ele><time>2026-04-18T13:48:44Z</time></trkpt><trkpt lat="44.95864803672888" lon="6.795225461610682"><ele>1354.0</ele><time>2026-04-18T13:48:45Z</time></trkpt><trkpt lat="44.95882401397303" lon="6.795286810856828"><ele>1361.0</ele><time>2026-04-18T13:48:46Z</time></trkpt><trkpt lat="44.95898175985021" lon="6.795339754277191"><ele>1361.0</ele><time>2026-04-18T13:48:47Z</time></trkpt><trkpt lat="44.95916902846187" lon="6.795380361998198"><ele>1361.0</ele><time>2026-04-18T13:48:48Z</time></trkpt><trkpt lat="44.95935956720419" lon="6.795436348177812"><ele>1361.0</ele><time>2026-04-18T13:48:49Z</time></trkpt><trkpt lat="44.959534226991195" lon="6.795490900243777"><ele>1362.0</ele><time>2026-04-18T13:48:50Z</time></trkpt><trkpt lat="44.959726935791466" lon="6.79547433167142"><ele>1363.0</ele><time>2026-04-18T13:48:51Z</time></trkpt><trkpt lat="44.95989880124767" lon="6.795406149230093"><ele>1364.0</ele><time>2026-04-18T13:48:52Z</time></trkpt><trkpt lat="44.96008461088223" lon="6.795345724071913"><ele>1364.6666666666667</ele><time>2026-04-18T13:48:53Z</time></trkpt><trkpt lat="44.96026377876004" lon="6.795264978858996"><ele>1365.3333333333333</ele><time>2026-04-18T13:48:54Z</time></trkpt><trkpt lat="44.96044040558105" lon="6.795210989363916"><ele>1366.0</ele><time>2026-04-18T13:48:55Z</time></trkpt><trkpt lat="44.96061915821607" lon="6.795169854711361"><ele>1360.0</ele><time>2026-04-18T13:48:56Z</time></trkpt><trkpt lat="44.960789983453154" lon="6.795149788655791"><ele>1354.0</ele><time>2026-04-18T13:48:57Z</time></trkpt><trkpt lat="44.96094445813271" lon="6.79511796804091"><ele>1348.0</ele><time>2026-04-18T13:48:58Z</time></trkpt><trkpt lat="44.961096840672994" lon="6.795216287560802"><ele>1348.0</ele><time>2026-04-18T13:48:59Z</time></trkpt><trkpt lat="44.96122713931399" lon="6.795301919125503"><ele>1348.0</ele><time>2026-04-18T13:49:00Z</time></trkpt><trkpt lat="44.961363151315176" lon="6.795459665063304"><ele>1348.0</ele><time>2026-04-18T13:49:01Z</time></trkpt><trkpt lat="44.961501512333044" lon="6.795617807365294"><ele>1348.0</ele><time>2026-04-18T13:49:02Z</time></trkpt><trkpt lat="44.96164266712031" lon="6.795785074267099"><ele>1348.0</ele><time>2026-04-18T13:49:03Z</time></trkpt><trkpt lat="44.96180217801887" lon="6.795902158552518"><ele>1348.0</ele><time>2026-04-18T13:49:04Z</time></trkpt><trkpt lat="44.96197710248598" lon="6.796083653975741"><ele>1348.0</ele><time>2026-04-18T13:49:05Z</time></trkpt><trkpt lat="44.96215334523315" lon="6.796165184224482"><ele>1348.0</ele><time>2026-04-18T13:49:06Z</time></trkpt><trkpt lat="44.962365412801205" lon="6.796212593041459"><ele>1348.0</ele><time>2026-04-18T13:49:07Z</time></trkpt><trkpt lat="44.96256018801512" lon="6.796222724161265"><ele>1345.6666666666665</ele><time>2026-04-18T13:49:08Z</time></trkpt><trkpt lat="44.96276486831132" lon="6.796201011793314"><ele>1343.3333333333333</ele><time>2026-04-18T13:49:09Z</time></trkpt><trkpt lat="44.96299237922064" lon="6.796145631688729"><ele>1341.0</ele><time>2026-04-18T13:49:10Z</time></trkpt><trkpt lat="44.9631890986211" lon="6.796119095797749"><ele>1337.6666666666667</ele><time>2026-04-18T13:49:11Z</time></trkpt><trkpt lat="44.963383970780086" lon="6.796074293612752"><ele>1334.3333333333335</ele><time>2026-04-18T13:49:12Z</time></trkpt><trkpt lat="44.96357541732826" lon="6.796044001610179"><ele>1331.0</ele><time>2026-04-18T13:49:13Z</time></trkpt><trkpt lat="44.963759450977086" lon="6.796022891235577"><ele>1331.0</ele><time>2026-04-18T13:49:14Z</time></trkpt><trkpt lat="44.96393345364919" lon="6.79600696428515"><ele>1331.0</ele><time>2026-04-18T13:49:15Z</time></trkpt><trkpt lat="44.9641058730888" lon="6.796059623263749"><ele>1331.0</ele><time>2026-04-18T13:49:16Z</time></trkpt><trkpt lat="44.96424713686565" lon="6.796125141060075"><ele>1325.3333333333335</ele><time>2026-04-18T13:49:17Z</time></trkpt><trkpt lat="44.96438575699775" lon="6.796222802462118"><ele>1319.6666666666667</ele><time>2026-04-18T13:49:18Z</time></trkpt><trkpt lat="44.964603721956095" lon="6.7963714150126275"><ele>1314.0</ele><time>2026-04-18T13:49:19Z</time></trkpt><trkpt lat="44.96480262585373" lon="6.796509066240032"><ele>1314.0</ele><time>2026-04-18T13:49:20Z</time></trkpt><trkpt lat="44.964980364783635" lon="6.79663140542139"><ele>1314.0</ele><time>2026-04-18T13:49:21Z</time></trkpt><trkpt lat="44.96516484481718" lon="6.796743615534316"><ele>1314.0</ele><time>2026-04-18T13:49:22Z</time></trkpt><trkpt lat="44.96533675019874" lon="6.796817991325665"><ele>1314.3333333333333</ele><time>2026-04-18T13:49:23Z</time></trkpt><trkpt lat="44.965505917207174" lon="6.796948582978208"><ele>1314.6666666666665</ele><time>2026-04-18T13:49:24Z</time></trkpt><trkpt lat="44.96567482852678" lon="6.797053090190254"><ele>1315.0</ele><time>2026-04-18T13:49:25Z</time></trkpt><trkpt lat="44.96583114536636" lon="6.797148783361762"><ele>1313.6666666666665</ele><time>2026-04-18T13:49:26Z</time></trkpt><trkpt lat="44.96599220422021" lon="6.797246881305791"><ele>1312.3333333333333</ele><time>2026-04-18T13:49:27Z</time></trkpt><trkpt lat="44.96613677061669" lon="6.797340697342783"><ele>1311.0</ele><time>2026-04-18T13:49:28Z</time></trkpt><trkpt lat="44.96630037300394" lon="6.79744601484865"><ele>1311.0</ele><time>2026-04-18T13:49:29Z</time></trkpt><trkpt lat="44.96647051589184" lon="6.79754923138074"><ele>1311.0</ele><time>2026-04-18T13:49:30Z</time></trkpt><trkpt lat="44.96664126570666" lon="6.797646542966519"><ele>1311.0</ele><time>2026-04-18T13:49:31Z</time></trkpt><trkpt lat="44.96679898483744" lon="6.797739608612273"><ele>1310.6666666666667</ele><time>2026-04-18T13:49:32Z</time></trkpt><trkpt lat="44.96695301039512" lon="6.797839700304942"><ele>1310.3333333333335</ele><time>2026-04-18T13:49:33Z</time></trkpt><trkpt lat="44.9670867402444" lon="6.797950694817073"><ele>1310.0</ele><time>2026-04-18T13:49:34Z</time></trkpt><trkpt lat="44.96720203373045" lon="6.798082410302488"><ele>1310.0</ele><time>2026-04-18T13:49:35Z</time></trkpt><trkpt lat="44.96734556042016" lon="6.798237340076492"><ele>1310.0</ele><time>2026-04-18T13:49:36Z</time></trkpt><trkpt lat="44.96748834554403" lon="6.798363644911312"><ele>1310.0</ele><time>2026-04-18T13:49:37Z</time></trkpt><trkpt lat="44.967645102475444" lon="6.798451355133008"><ele>1313.6666666666667</ele><time>2026-04-18T13:49:38Z</time></trkpt><trkpt lat="44.96776887798947" lon="6.798551029902536"><ele>1317.3333333333333</ele><time>2026-04-18T13:49:39Z</time></trkpt><trkpt lat="44.967933307074915" lon="6.7986222037224096"><ele>1321.0</ele><time>2026-04-18T13:49:40Z</time></trkpt><trkpt lat="44.9681123605944" lon="6.798638085477035"><ele>1321.0</ele><time>2026-04-18T13:49:41Z</time></trkpt><trkpt lat="44.96827426956206" lon="6.798612779823574"><ele>1321.0</ele><time>2026-04-18T13:49:42Z</time></trkpt><trkpt lat="44.968466080357295" lon="6.7986199395608"><ele>1321.0</ele><time>2026-04-18T13:49:43Z</time></trkpt><trkpt lat="44.96866686355992" lon="6.798602496536942"><ele>1321.6666666666665</ele><time>2026-04-18T13:49:44Z</time></trkpt><trkpt lat="44.968861481185954" lon="6.798613188282158"><ele>1322.3333333333333</ele><time>2026-04-18T13:49:45Z</time></trkpt><trkpt lat="44.96905713793873" lon="6.798615996985673"><ele>1323.0</ele><time>2026-04-18T13:49:46Z</time></trkpt><trkpt lat="44.96924288854959" lon="6.79863286849911"><ele>1323.0</ele><time>2026-04-18T13:49:47Z</time></trkpt><trkpt lat="44.96942182690753" lon="6.798633050515386"><ele>1323.0</ele><time>2026-04-18T13:49:48Z</time></trkpt><trkpt lat="44.96959944857724" lon="6.79864054424804"><ele>1323.0</ele><time>2026-04-18T13:49:49Z</time></trkpt><trkpt lat="44.96978471275524" lon="6.798669733365583"><ele>1323.0</ele><time>2026-04-18T13:49:50Z</time></trkpt><trkpt lat="44.96994592795168" lon="6.79867608008049"><ele>1323.0</ele><time>2026-04-18T13:49:51Z</time></trkpt><trkpt lat="44.97009111416095" lon="6.798574916188121"><ele>1323.0</ele><time>2026-04-18T13:49:52Z</time></trkpt><trkpt lat="44.97024390799557" lon="6.798482158710774"><ele>1317.0</ele><time>2026-04-18T13:49:53Z</time></trkpt><trkpt lat="44.9703647657623" lon="6.798364878223357"><ele>1311.0</ele><time>2026-04-18T13:49:54Z</time></trkpt><trkpt lat="44.97049411128855" lon="6.798257835042833"><ele>1305.0</ele><time>2026-04-18T13:49:55Z</time></trkpt><trkpt lat="44.970638357512414" lon="6.7981851918425"><ele>1305.0</ele><time>2026-04-18T13:49:56Z</time></trkpt><trkpt lat="44.970780868043725" lon="6.798091465194795"><ele>1305.0</ele><time>2026-04-18T13:49:57Z</time></trkpt><trkpt lat="44.970928563497814" lon="6.798026024007283"><ele>1305.0</ele><time>2026-04-18T13:49:58Z</time></trkpt><trkpt lat="44.97106858598572" lon="6.798011647491443"><ele>1301.6666666666667</ele><time>2026-04-18T13:49:59Z</time></trkpt><trkpt lat="44.97122216911603" lon="6.798063561546474"><ele>1298.3333333333335</ele><time>2026-04-18T13:50:00Z</time></trkpt><trkpt lat="44.97141419036876" lon="6.798182505799994"><ele>1295.0</ele><time>2026-04-18T13:50:01Z</time></trkpt><trkpt lat="44.97157263592225" lon="6.798264084334009"><ele>1296.6666666666667</ele><time>2026-04-18T13:50:02Z</time></trkpt><trkpt lat="44.97173528142104" lon="6.798350857074829"><ele>1298.3333333333333</ele><time>2026-04-18T13:50:03Z</time></trkpt><trkpt lat="44.971945518396915" lon="6.798448449773518"><ele>1300.0</ele><time>2026-04-18T13:50:04Z</time></trkpt><trkpt lat="44.97211388121194" lon="6.7985444113761755"><ele>1300.0</ele><time>2026-04-18T13:50:05Z</time></trkpt><trkpt lat="44.97228748493348" lon="6.798622837798361"><ele>1300.0</ele><time>2026-04-18T13:50:06Z</time></trkpt><trkpt lat="44.97245631160299" lon="6.798717397592987"><ele>1300.0</ele><time>2026-04-18T13:50:07Z</time></trkpt><trkpt lat="44.97265367587734" lon="6.798785450263714"><ele>1297.0</ele><time>2026-04-18T13:50:08Z</time></trkpt><trkpt lat="44.972840656174796" lon="6.798843099955369"><ele>1294.0</ele><time>2026-04-18T13:50:09Z</time></trkpt><trkpt lat="44.97302884102798" lon="6.79891230510444"><ele>1291.0</ele><time>2026-04-18T13:50:10Z</time></trkpt><trkpt lat="44.97319323415876" lon="6.7989801104192225"><ele>1289.6666666666665</ele><time>2026-04-18T13:50:11Z</time></trkpt><trkpt lat="44.97336732259707" lon="6.799026389382444"><ele>1288.3333333333333</ele><time>2026-04-18T13:50:12Z</time></trkpt><trkpt lat="44.97354099768042" lon="6.799087995976867"><ele>1287.0</ele><time>2026-04-18T13:50:13Z</time></trkpt><trkpt lat="44.97370765990733" lon="6.79913655509276"><ele>1287.0</ele><time>2026-04-18T13:50:14Z</time></trkpt><trkpt lat="44.97386330764684" lon="6.799216823363265"><ele>1287.0</ele><time>2026-04-18T13:50:15Z</time></trkpt><trkpt lat="44.97403605419714" lon="6.7992713580046"><ele>1287.0</ele><time>2026-04-18T13:50:16Z</time></trkpt><trkpt lat="44.97422099551771" lon="6.799334942400047"><ele>1292.6666666666667</ele><time>2026-04-18T13:50:17Z</time></trkpt><trkpt lat="44.97439244129515" lon="6.799378598722669"><ele>1298.3333333333335</ele><time>2026-04-18T13:50:18Z</time></trkpt><trkpt lat="44.974567721484526" lon="6.799433072340669"><ele>1304.0</ele><time>2026-04-18T13:50:19Z</time></trkpt><trkpt lat="44.97477865418811" lon="6.79949886070102"><ele>1304.0</ele><time>2026-04-18T13:50:20Z</time></trkpt><trkpt lat="44.97496957099916" lon="6.799552113970849"><ele>1304.0</ele><time>2026-04-18T13:50:21Z</time></trkpt><trkpt lat="44.97513871004482" lon="6.799621933611215"><ele>1304.0</ele><time>2026-04-18T13:50:22Z</time></trkpt><trkpt lat="44.975304683758125" lon="6.799673301659376"><ele>1298.0</ele><time>2026-04-18T13:50:23Z</time></trkpt><trkpt lat="44.97545186268676" lon="6.799700111674069"><ele>1292.0</ele><time>2026-04-18T13:50:24Z</time></trkpt><trkpt lat="44.975622668950024" lon="6.7997739304853555"><ele>1286.0</ele><time>2026-04-18T13:50:25Z</time></trkpt><trkpt lat="44.9757864331508" lon="6.799821429841224"><ele>1284.0</ele><time>2026-04-18T13:50:26Z</time></trkpt><trkpt lat="44.9759201325546" lon="6.799921016348432"><ele>1282.0</ele><time>2026-04-18T13:50:27Z</time></trkpt><trkpt lat="44.97606501446925" lon="6.800038200299065"><ele>1280.0</ele><time>2026-04-18T13:50:28Z</time></trkpt><trkpt lat="44.9761911471381" lon="6.800181403931248"><ele>1280.0</ele><time>2026-04-18T13:50:29Z</time></trkpt><trkpt lat="44.97629729246732" lon="6.800327378374374"><ele>1280.0</ele><time>2026-04-18T13:50:30Z</time></trkpt><trkpt lat="44.976387716850084" lon="6.800485145554744"><ele>1280.0</ele><time>2026-04-18T13:50:31Z</time></trkpt><trkpt lat="44.976473335216326" lon="6.80067170515728"><ele>1280.0</ele><time>2026-04-18T13:50:32Z</time></trkpt><trkpt lat="44.976545876878745" lon="6.800898518081982"><ele>1281.6666666666667</ele><time>2026-04-18T13:50:33Z</time></trkpt><trkpt lat="44.97661079389311" lon="6.80113215876445"><ele>1283.3333333333333</ele><time>2026-04-18T13:50:34Z</time></trkpt><trkpt lat="44.97666999557272" lon="6.801356456089334"><ele>1285.0</ele><time>2026-04-18T13:50:35Z</time></trkpt><trkpt lat="44.97672621212214" lon="6.8015694440201795"><ele>1279.0</ele><time>2026-04-18T13:50:36Z</time></trkpt><trkpt lat="44.97678167373986" lon="6.801779571637378"><ele>1273.0</ele><time>2026-04-18T13:50:37Z</time></trkpt><trkpt lat="44.97685796717502" lon="6.801997710860352"><ele>1267.0</ele><time>2026-04-18T13:50:38Z</time></trkpt><trkpt lat="44.97690797520725" lon="6.802238392092829"><ele>1267.0</ele><time>2026-04-18T13:50:39Z</time></trkpt><trkpt lat="44.97697573988627" lon="6.802462505873875"><ele>1267.0</ele><time>2026-04-18T13:50:40Z</time></trkpt><trkpt lat="44.977054521030205" lon="6.802665352225152"><ele>1267.0</ele><time>2026-04-18T13:50:41Z</time></trkpt><trkpt lat="44.97712184338966" lon="6.802850675429707"><ele>1272.0</ele><time>2026-04-18T13:50:42Z</time></trkpt><trkpt lat="44.97719471688771" lon="6.803066663958869"><ele>1277.0</ele><time>2026-04-18T13:50:43Z</time></trkpt><trkpt lat="44.97729184248221" lon="6.803234723478256"><ele>1282.0</ele><time>2026-04-18T13:50:44Z</time></trkpt><trkpt lat="44.97743115061979" lon="6.803414749371924"><ele>1278.0</ele><time>2026-04-18T13:50:45Z</time></trkpt><trkpt lat="44.97757483271813" lon="6.803598295757618"><ele>1274.0</ele><time>2026-04-18T13:50:46Z</time></trkpt><trkpt lat="44.97769414074577" lon="6.803752845746893"><ele>1270.0</ele><time>2026-04-18T13:50:47Z</time></trkpt><trkpt lat="44.97781353691426" lon="6.803907510277183"><ele>1270.0</ele><time>2026-04-18T13:50:48Z</time></trkpt><trkpt lat="44.97793200119015" lon="6.804060967390563"><ele>1270.0</ele><time>2026-04-18T13:50:49Z</time></trkpt><trkpt lat="44.978076686751976" lon="6.804247898961129"><ele>1270.0</ele><time>2026-04-18T13:50:50Z</time></trkpt><trkpt lat="44.97819751348483" lon="6.804402887245034"><ele>1266.0</ele><time>2026-04-18T13:50:51Z</time></trkpt><trkpt lat="44.97832451253003" lon="6.804565793119155"><ele>1262.0</ele><time>2026-04-18T13:50:52Z</time></trkpt><trkpt lat="44.978418186018985" lon="6.804685951527425"><ele>1258.0</ele><time>2026-04-18T13:50:53Z</time></trkpt><trkpt lat="44.97854654442502" lon="6.804832640948761"><ele>1258.0</ele><time>2026-04-18T13:50:54Z</time></trkpt><trkpt lat="44.97866276429787" lon="6.804960823348583"><ele>1258.0</ele><time>2026-04-18T13:50:55Z</time></trkpt><trkpt lat="44.97877925243839" lon="6.805121650468183"><ele>1258.0</ele><time>2026-04-18T13:50:56Z</time></trkpt><trkpt lat="44.978909327929195" lon="6.805237840597264"><ele>1261.6666666666665</ele><time>2026-04-18T13:50:57Z</time></trkpt><trkpt lat="44.97903304176798" lon="6.805373464153857"><ele>1265.3333333333333</ele><time>2026-04-18T13:50:58Z</time></trkpt><trkpt lat="44.979164945365575" lon="6.805520400593358"><ele>1269.0</ele><time>2026-04-18T13:50:59Z</time></trkpt><trkpt lat="44.979375468487426" lon="6.805574791676595"><ele>1269.0</ele><time>2026-04-18T13:51:00Z</time></trkpt><trkpt lat="44.97954718337642" lon="6.80561833024907"><ele>1269.0</ele><time>2026-04-18T13:51:01Z</time></trkpt><trkpt lat="44.97971068703177" lon="6.805674684442634"><ele>1269.0</ele><time>2026-04-18T13:51:02Z</time></trkpt><trkpt lat="44.979866159886804" lon="6.805752989975226"><ele>1266.0</ele><time>2026-04-18T13:51:03Z</time></trkpt><trkpt lat="44.98002225131806" lon="6.805826292698428"><ele>1263.0</ele><time>2026-04-18T13:51:04Z</time></trkpt><trkpt lat="44.98016468519586" lon="6.805857222915152"><ele>1260.0</ele><time>2026-04-18T13:51:05Z</time></trkpt><trkpt lat="44.980323298655875" lon="6.805861776788567"><ele>1260.0</ele><time>2026-04-18T13:51:06Z</time></trkpt><trkpt lat="44.98047464839096" lon="6.8059088880608405"><ele>1260.0</ele><time>2026-04-18T13:51:07Z</time></trkpt><trkpt lat="44.98061301782634" lon="6.805934641623986"><ele>1260.0</ele><time>2026-04-18T13:51:08Z</time></trkpt><trkpt lat="44.98076033831753" lon="6.805953709401214"><ele>1260.0</ele><time>2026-04-18T13:51:09Z</time></trkpt><trkpt lat="44.98090198700884" lon="6.805956891494445"><ele>1262.25</ele><time>2026-04-18T13:51:10Z</time></trkpt><trkpt lat="44.98104064879033" lon="6.805972578424579"><ele>1264.5</ele><time>2026-04-18T13:51:11Z</time></trkpt><trkpt lat="44.98117473252612" lon="6.80603035895079"><ele>1266.75</ele><time>2026-04-18T13:51:12Z</time></trkpt><trkpt lat="44.98130845421915" lon="6.806135956675869"><ele>1269.0</ele><time>2026-04-18T13:51:13Z</time></trkpt><trkpt lat="44.98145115522236" lon="6.806252936941269"><ele>1269.0</ele><time>2026-04-18T13:51:14Z</time></trkpt><trkpt lat="44.981595409855366" lon="6.806354350785331"><ele>1269.0</ele><time>2026-04-18T13:51:15Z</time></trkpt><trkpt lat="44.981718195791075" lon="6.806471548124978"><ele>1269.0</ele><time>2026-04-18T13:51:16Z</time></trkpt><trkpt lat="44.9818612709066" lon="6.806558737272329"><ele>1264.25</ele><time>2026-04-18T13:51:17Z</time></trkpt><trkpt lat="44.98201182243771" lon="6.806617967368306"><ele>1259.5</ele><time>2026-04-18T13:51:18Z</time></trkpt><trkpt lat="44.98214989619576" lon="6.806696020510481"><ele>1254.75</ele><time>2026-04-18T13:51:19Z</time></trkpt><trkpt lat="44.98225962150561" lon="6.8067079051524395"><ele>1250.0</ele><time>2026-04-18T13:51:20Z</time></trkpt><trkpt lat="44.98241707812323" lon="6.80672496404996"><ele>1249.5</ele><time>2026-04-18T13:51:21Z</time></trkpt><trkpt lat="44.98256513859908" lon="6.806684017349943"><ele>1249.0</ele><time>2026-04-18T13:51:22Z</time></trkpt><trkpt lat="44.98270805341965" lon="6.806691366245622"><ele>1248.5</ele><time>2026-04-18T13:51:23Z</time></trkpt><trkpt lat="44.98284677484074" lon="6.806765738576357"><ele>1248.0</ele><time>2026-04-18T13:51:24Z</time></trkpt><trkpt lat="44.982980344251935" lon="6.806766087547192"><ele>1248.0</ele><time>2026-04-18T13:51:25Z</time></trkpt><trkpt lat="44.983097604747556" lon="6.806769336910161"><ele>1248.0</ele><time>2026-04-18T13:51:26Z</time></trkpt><trkpt lat="44.983211277410895" lon="6.806758807200756"><ele>1248.0</ele><time>2026-04-18T13:51:27Z</time></trkpt><trkpt lat="44.98331363981826" lon="6.80676155867576"><ele>1248.0</ele><time>2026-04-18T13:51:28Z</time></trkpt><trkpt lat="44.983413309859294" lon="6.806776735388598"><ele>1248.0</ele><time>2026-04-18T13:51:29Z</time></trkpt><trkpt lat="44.9835075661524" lon="6.806853411883115"><ele>1253.5</ele><time>2026-04-18T13:51:30Z</time></trkpt><trkpt lat="44.983610418050496" lon="6.806894621536212"><ele>1259.0</ele><time>2026-04-18T13:51:31Z</time></trkpt><trkpt lat="44.983728353024134" lon="6.806921619011319"><ele>1264.5</ele><time>2026-04-18T13:51:32Z</time></trkpt><trkpt lat="44.983874636846565" lon="6.806933523184411"><ele>1270.0</ele><time>2026-04-18T13:51:33Z</time></trkpt><trkpt lat="44.984090165862966" lon="6.80689696161634"><ele>1266.6666666666665</ele><time>2026-04-18T13:51:34Z</time></trkpt><trkpt lat="44.98424012276569" lon="6.806898962567347"><ele>1263.3333333333333</ele><time>2026-04-18T13:51:35Z</time></trkpt><trkpt lat="44.98438276232183" lon="6.806881422796477"><ele>1260.0</ele><time>2026-04-18T13:51:36Z</time></trkpt><trkpt lat="44.98454132579582" lon="6.8068937103309315"><ele>1260.0</ele><time>2026-04-18T13:51:37Z</time></trkpt><trkpt lat="44.98472825223122" lon="6.8069368853593435"><ele>1260.0</ele><time>2026-04-18T13:51:38Z</time></trkpt><trkpt lat="44.984903246786374" lon="6.806975120393018"><ele>1260.0</ele><time>2026-04-18T13:51:39Z</time></trkpt><trkpt lat="44.985084829734056" lon="6.807018916337871"><ele>1257.0</ele><time>2026-04-18T13:51:40Z</time></trkpt><trkpt lat="44.98527451521676" lon="6.80706651931816"><ele>1254.0</ele><time>2026-04-18T13:51:41Z</time></trkpt><trkpt lat="44.98545197948521" lon="6.807142293545189"><ele>1251.0</ele><time>2026-04-18T13:51:42Z</time></trkpt><trkpt lat="44.985643630071884" lon="6.807227738806725"><ele>1251.0</ele><time>2026-04-18T13:51:43Z</time></trkpt><trkpt lat="44.98582158782001" lon="6.807291052230687"><ele>1251.0</ele><time>2026-04-18T13:51:44Z</time></trkpt><trkpt lat="44.98600413854024" lon="6.8073789885177804"><ele>1251.0</ele><time>2026-04-18T13:51:45Z</time></trkpt><trkpt lat="44.98621045719344" lon="6.807435150683446"><ele>1248.6666666666667</ele><time>2026-04-18T13:51:46Z</time></trkpt><trkpt lat="44.98638740843032" lon="6.8075433894800135"><ele>1246.3333333333335</ele><time>2026-04-18T13:51:47Z</time></trkpt><trkpt lat="44.986571788015546" lon="6.807643244421129"><ele>1244.0</ele><time>2026-04-18T13:51:48Z</time></trkpt><trkpt lat="44.986768594825605" lon="6.807750572708777"><ele>1251.6666666666667</ele><time>2026-04-18T13:51:49Z</time></trkpt><trkpt lat="44.986971957182234" lon="6.807814890235865"><ele>1259.3333333333333</ele><time>2026-04-18T13:51:50Z</time></trkpt><trkpt lat="44.98718349938442" lon="6.807888401725241"><ele>1267.0</ele><time>2026-04-18T13:51:51Z</time></trkpt><trkpt lat="44.98738832833695" lon="6.807945465232675"><ele>1266.0</ele><time>2026-04-18T13:51:52Z</time></trkpt><trkpt lat="44.98758163282691" lon="6.808020646719876"><ele>1265.0</ele><time>2026-04-18T13:51:53Z</time></trkpt><trkpt lat="44.98776936623285" lon="6.808086207560001"><ele>1264.0</ele><time>2026-04-18T13:51:54Z</time></trkpt><trkpt lat="44.987944313308894" lon="6.808130000936279"><ele>1264.0</ele><time>2026-04-18T13:51:55Z</time></trkpt><trkpt lat="44.98809615047789" lon="6.8081624312474505"><ele>1264.0</ele><time>2026-04-18T13:51:56Z</time></trkpt><trkpt lat="44.9882754188025" lon="6.8081835517161355"><ele>1264.0</ele><time>2026-04-18T13:51:57Z</time></trkpt><trkpt lat="44.98841973766324" lon="6.808240141730494"><ele>1260.3333333333333</ele><time>2026-04-18T13:51:58Z</time></trkpt><trkpt lat="44.988585842001235" lon="6.808293777163118"><ele>1256.6666666666667</ele><time>2026-04-18T13:51:59Z</time></trkpt><trkpt lat="44.988737300018556" lon="6.808329641544422"><ele>1253.0</ele><time>2026-04-18T13:52:00Z</time></trkpt><trkpt lat="44.9888663359423" lon="6.808290422326194"><ele>1253.0</ele><time>2026-04-18T13:52:01Z</time></trkpt><trkpt lat="44.98899777891326" lon="6.808294991631857"><ele>1253.0</ele><time>2026-04-18T13:52:02Z</time></trkpt><trkpt lat="44.989133076310345" lon="6.808361683671705"><ele>1253.0</ele><time>2026-04-18T13:52:03Z</time></trkpt><trkpt lat="44.989276925890884" lon="6.808421379594245"><ele>1253.0</ele><time>2026-04-18T13:52:04Z</time></trkpt><trkpt lat="44.98942294788733" lon="6.808446918523791"><ele>1250.5</ele><time>2026-04-18T13:52:05Z</time></trkpt><trkpt lat="44.9895785391041" lon="6.808472825443907"><ele>1248.0</ele><time>2026-04-18T13:52:06Z</time></trkpt><trkpt lat="44.989719293289646" lon="6.808510164648538"><ele>1245.5</ele><time>2026-04-18T13:52:07Z</time></trkpt><trkpt lat="44.98986878100235" lon="6.808505928919983"><ele>1243.0</ele><time>2026-04-18T13:52:08Z</time></trkpt><trkpt lat="44.990073858445314" lon="6.808575677681901"><ele>1256.3333333333333</ele><time>2026-04-18T13:52:09Z</time></trkpt><trkpt lat="44.99022762288958" lon="6.808599104227625"><ele>1269.6666666666667</ele><time>2026-04-18T13:52:10Z</time></trkpt><trkpt lat="44.99040386433607" lon="6.80865915558303"><ele>1283.0</ele><time>2026-04-18T13:52:11Z</time></trkpt><trkpt lat="44.99058215002914" lon="6.808654494732771"><ele>1283.0</ele><time>2026-04-18T13:52:12Z</time></trkpt><trkpt lat="44.99071919373592" lon="6.808599250395806"><ele>1283.0</ele><time>2026-04-18T13:52:13Z</time></trkpt><trkpt lat="44.99086490273024" lon="6.808535081477382"><ele>1283.0</ele><time>2026-04-18T13:52:14Z</time></trkpt><trkpt lat="44.99101363584221" lon="6.808446608063183"><ele>1274.6666666666667</ele><time>2026-04-18T13:52:15Z</time></trkpt><trkpt lat="44.99114827000338" lon="6.808340363139213"><ele>1266.3333333333333</ele><time>2026-04-18T13:52:16Z</time></trkpt><trkpt lat="44.99129284677562" lon="6.808243129705976"><ele>1258.0</ele><time>2026-04-18T13:52:17Z</time></trkpt><trkpt lat="44.991415163298804" lon="6.808132180420649"><ele>1258.0</ele><time>2026-04-18T13:52:18Z</time></trkpt><trkpt lat="44.991555470630246" lon="6.808053912705023"><ele>1258.0</ele><time>2026-04-18T13:52:19Z</time></trkpt><trkpt lat="44.99168143161583" lon="6.807957982422886"><ele>1258.0</ele><time>2026-04-18T13:52:20Z</time></trkpt><trkpt lat="44.9918131166615" lon="6.807864776025149"><ele>1258.0</ele><time>2026-04-18T13:52:21Z</time></trkpt><trkpt lat="44.991945524761135" lon="6.807789200479241"><ele>1261.3333333333333</ele><time>2026-04-18T13:52:22Z</time></trkpt><trkpt lat="44.992098600286326" lon="6.807773079261138"><ele>1264.6666666666667</ele><time>2026-04-18T13:52:23Z</time></trkpt><trkpt lat="44.99226069833066" lon="6.807847703575296"><ele>1268.0</ele><time>2026-04-18T13:52:24Z</time></trkpt><trkpt lat="44.99241095230235" lon="6.80782566070392"><ele>1269.0</ele><time>2026-04-18T13:52:25Z</time></trkpt><trkpt lat="44.99256412518348" lon="6.807807895195884"><ele>1270.0</ele><time>2026-04-18T13:52:26Z</time></trkpt><trkpt lat="44.99271624170511" lon="6.807793815094824"><ele>1271.0</ele><time>2026-04-18T13:52:27Z</time></trkpt><trkpt lat="44.99287348939629" lon="6.807815582141188"><ele>1271.0</ele><time>2026-04-18T13:52:28Z</time></trkpt><trkpt lat="44.99301506616946" lon="6.807784230342595"><ele>1271.0</ele><time>2026-04-18T13:52:29Z</time></trkpt><trkpt lat="44.99315154833944" lon="6.807782978002021"><ele>1271.0</ele><time>2026-04-18T13:52:30Z</time></trkpt><trkpt lat="44.99331179878897" lon="6.807773269471458"><ele>1271.0</ele><time>2026-04-18T13:52:31Z</time></trkpt><trkpt lat="44.99345342973528" lon="6.80774436917283"><ele>1268.6666666666667</ele><time>2026-04-18T13:52:32Z</time></trkpt><trkpt lat="44.99361836419021" lon="6.807742246143345"><ele>1266.3333333333333</ele><time>2026-04-18T13:52:33Z</time></trkpt><trkpt lat="44.99377759491934" lon="6.8077247239764676"><ele>1264.0</ele><time>2026-04-18T13:52:34Z</time></trkpt><trkpt lat="44.99393527676363" lon="6.8076998265763145"><ele>1264.0</ele><time>2026-04-18T13:52:35Z</time></trkpt><trkpt lat="44.99407496309207" lon="6.807737466062925"><ele>1264.0</ele><time>2026-04-18T13:52:36Z</time></trkpt><trkpt lat="44.99423405901998" lon="6.8078222014710175"><ele>1264.0</ele><time>2026-04-18T13:52:37Z</time></trkpt><trkpt lat="44.99441515998156" lon="6.807920983663482"><ele>1258.0</ele><time>2026-04-18T13:52:38Z</time></trkpt><trkpt lat="44.99457925554522" lon="6.8080111880216485"><ele>1252.0</ele><time>2026-04-18T13:52:39Z</time></trkpt><trkpt lat="44.994732966208055" lon="6.808096104480878"><ele>1246.0</ele><time>2026-04-18T13:52:40Z</time></trkpt><trkpt lat="44.99488242820416" lon="6.808179642334591"><ele>1239.0</ele><time>2026-04-18T13:52:41Z</time></trkpt><trkpt lat="44.99504677944237" lon="6.808190395422132"><ele>1232.0</ele><time>2026-04-18T13:52:42Z</time></trkpt><trkpt lat="44.99519827079626" lon="6.808273808478791"><ele>1225.0</ele><time>2026-04-18T13:52:43Z</time></trkpt><trkpt lat="44.995361199569615" lon="6.808376218502924"><ele>1237.3333333333333</ele><time>2026-04-18T13:52:44Z</time></trkpt><trkpt lat="44.99553287646917" lon="6.808495980311496"><ele>1249.6666666666667</ele><time>2026-04-18T13:52:45Z</time></trkpt><trkpt lat="44.99567461771248" lon="6.808594980758052"><ele>1262.0</ele><time>2026-04-18T13:52:46Z</time></trkpt><trkpt lat="44.99580061914485" lon="6.808789562728072"><ele>1253.3333333333335</ele><time>2026-04-18T13:52:47Z</time></trkpt><trkpt lat="44.99592614910951" lon="6.808880187413982"><ele>1244.6666666666667</ele><time>2026-04-18T13:52:48Z</time></trkpt><trkpt lat="44.996047025167776" lon="6.8089855842374165"><ele>1236.0</ele><time>2026-04-18T13:52:49Z</time></trkpt><trkpt lat="44.99618183758651" lon="6.809133878225076"><ele>1236.0</ele><time>2026-04-18T13:52:50Z</time></trkpt><trkpt lat="44.996324490707586" lon="6.809300593680011"><ele>1236.0</ele><time>2026-04-18T13:52:51Z</time></trkpt><trkpt lat="44.99645037048394" lon="6.809447706233103"><ele>1236.0</ele><time>2026-04-18T13:52:52Z</time></trkpt><trkpt lat="44.99657412556228" lon="6.809592336034198"><ele>1232.0</ele><time>2026-04-18T13:52:53Z</time></trkpt><trkpt lat="44.99670391644198" lon="6.809742920146487"><ele>1228.0</ele><time>2026-04-18T13:52:54Z</time></trkpt><trkpt lat="44.996826135828556" lon="6.809884478149703"><ele>1224.0</ele><time>2026-04-18T13:52:55Z</time></trkpt><trkpt lat="44.99694318350397" lon="6.810021083928408"><ele>1224.0</ele><time>2026-04-18T13:52:56Z</time></trkpt><trkpt lat="44.99705442543944" lon="6.810143631988899"><ele>1224.0</ele><time>2026-04-18T13:52:57Z</time></trkpt><trkpt lat="44.99716515085001" lon="6.810318686614374"><ele>1224.0</ele><time>2026-04-18T13:52:58Z</time></trkpt><trkpt lat="44.99730180453453" lon="6.810473530132592"><ele>1219.3333333333333</ele><time>2026-04-18T13:52:59Z</time></trkpt><trkpt lat="44.99743394224119" lon="6.810614949126259"><ele>1214.6666666666665</ele><time>2026-04-18T13:53:00Z</time></trkpt><trkpt lat="44.997570676827195" lon="6.810766715429355"><ele>1210.0</ele><time>2026-04-18T13:53:01Z</time></trkpt><trkpt lat="44.99768770035854" lon="6.810885330383961"><ele>1219.6666666666665</ele><time>2026-04-18T13:53:02Z</time></trkpt><trkpt lat="44.99780301875561" lon="6.81104020854699"><ele>1229.3333333333333</ele><time>2026-04-18T13:53:03Z</time></trkpt><trkpt lat="44.9979257338433" lon="6.811167567477485"><ele>1239.0</ele><time>2026-04-18T13:53:04Z</time></trkpt><trkpt lat="44.998036599772185" lon="6.811327943895623"><ele>1239.0</ele><time>2026-04-18T13:53:05Z</time></trkpt><trkpt lat="44.998143411462316" lon="6.811445686417208"><ele>1239.0</ele><time>2026-04-18T13:53:06Z</time></trkpt><trkpt lat="44.99829095508609" lon="6.8115783333005"><ele>1239.0</ele><time>2026-04-18T13:53:07Z</time></trkpt><trkpt lat="44.99842498932249" lon="6.8116827029024485"><ele>1242.0</ele><time>2026-04-18T13:53:08Z</time></trkpt><trkpt lat="44.99854174396565" lon="6.811805571124"><ele>1245.0</ele><time>2026-04-18T13:53:09Z</time></trkpt><trkpt lat="44.99869142517547" lon="6.8119055764645"><ele>1248.0</ele><time>2026-04-18T13:53:10Z</time></trkpt><trkpt lat="44.99888424710945" lon="6.811958294630043"><ele>1248.0</ele><time>2026-04-18T13:53:11Z</time></trkpt><trkpt lat="44.99902162727949" lon="6.8120525035532795"><ele>1248.0</ele><time>2026-04-18T13:53:12Z</time></trkpt><trkpt lat="44.99914925059932" lon="6.812102238799133"><ele>1248.0</ele><time>2026-04-18T13:53:13Z</time></trkpt><trkpt lat="44.999277191418095" lon="6.812141162537605"><ele>1248.0</ele><time>2026-04-18T13:53:14Z</time></trkpt><trkpt lat="44.99945207082889" lon="6.812194366566099"><ele>1242.3333333333333</ele><time>2026-04-18T13:53:15Z</time></trkpt><trkpt lat="44.99965735383873" lon="6.812257272705718"><ele>1236.6666666666665</ele><time>2026-04-18T13:53:16Z</time></trkpt><trkpt lat="44.999838447165175" lon="6.812317081842576"><ele>1231.0</ele><time>2026-04-18T13:53:17Z</time></trkpt><trkpt lat="45.00005774679981" lon="6.812424870557337"><ele>1231.0</ele><time>2026-04-18T13:53:18Z</time></trkpt><trkpt lat="45.00026293198481" lon="6.812495936634842"><ele>1231.0</ele><time>2026-04-18T13:53:19Z</time></trkpt><trkpt lat="45.00043316771784" lon="6.812626873305632"><ele>1231.0</ele><time>2026-04-18T13:53:20Z</time></trkpt><trkpt lat="45.0006033103012" lon="6.812722269968232"><ele>1234.3333333333333</ele><time>2026-04-18T13:53:21Z</time></trkpt><trkpt lat="45.00075892165311" lon="6.812778146561179"><ele>1237.6666666666667</ele><time>2026-04-18T13:53:22Z</time></trkpt><trkpt lat="45.000935912917164" lon="6.812849368277967"><ele>1241.0</ele><time>2026-04-18T13:53:23Z</time></trkpt><trkpt lat="45.00109215130505" lon="6.812945550239136"><ele>1241.0</ele><time>2026-04-18T13:53:24Z</time></trkpt><trkpt lat="45.00125218841218" lon="6.813016397506434"><ele>1241.0</ele><time>2026-04-18T13:53:25Z</time></trkpt><trkpt lat="45.00137333721238" lon="6.813129901252337"><ele>1241.0</ele><time>2026-04-18T13:53:26Z</time></trkpt><trkpt lat="45.00147822202757" lon="6.813228526227347"><ele>1241.0</ele><time>2026-04-18T13:53:27Z</time></trkpt><trkpt lat="45.00158357230097" lon="6.813368026293443"><ele>1238.0</ele><time>2026-04-18T13:53:28Z</time></trkpt><trkpt lat="45.001684671620716" lon="6.813534773584387"><ele>1235.0</ele><time>2026-04-18T13:53:29Z</time></trkpt><trkpt lat="45.00175042846387" lon="6.8136994139487275"><ele>1232.0</ele><time>2026-04-18T13:53:30Z</time></trkpt><trkpt lat="45.00182766602983" lon="6.813910771858015"><ele>1232.0</ele><time>2026-04-18T13:53:31Z</time></trkpt><trkpt lat="45.00189212212686" lon="6.814093321445292"><ele>1232.0</ele><time>2026-04-18T13:53:32Z</time></trkpt><trkpt lat="45.001964628052555" lon="6.8142986699836605"><ele>1232.0</ele><time>2026-04-18T13:53:33Z</time></trkpt><trkpt lat="45.00203829513049" lon="6.814507306830226"><ele>1235.6666666666667</ele><time>2026-04-18T13:53:34Z</time></trkpt><trkpt lat="45.002109882969535" lon="6.8147100550156905"><ele>1239.3333333333333</ele><time>2026-04-18T13:53:35Z</time></trkpt><trkpt lat="45.00218183302358" lon="6.814913828851913"><ele>1243.0</ele><time>2026-04-18T13:53:36Z</time></trkpt><trkpt lat="45.00225007346301" lon="6.8151070966345255"><ele>1248.0</ele><time>2026-04-18T13:53:37Z</time></trkpt><trkpt lat="45.00231252221666" lon="6.815283961488165"><ele>1253.0</ele><time>2026-04-18T13:53:38Z</time></trkpt><trkpt lat="45.002384544673404" lon="6.815487940300566"><ele>1258.0</ele><time>2026-04-18T13:53:39Z</time></trkpt><trkpt lat="45.00245148668996" lon="6.815677530794765"><ele>1251.5</ele><time>2026-04-18T13:53:40Z</time></trkpt><trkpt lat="45.00251122964435" lon="6.815840017834291"><ele>1245.0</ele><time>2026-04-18T13:53:41Z</time></trkpt><trkpt lat="45.002585046122796" lon="6.816028255565244"><ele>1238.5</ele><time>2026-04-18T13:53:42Z</time></trkpt><trkpt lat="45.002679951059484" lon="6.816213115168052"><ele>1232.0</ele><time>2026-04-18T13:53:43Z</time></trkpt><trkpt lat="45.00278241785426" lon="6.816362568163945"><ele>1232.0</ele><time>2026-04-18T13:53:44Z</time></trkpt><trkpt lat="45.00286124813588" lon="6.816543138723012"><ele>1232.0</ele><time>2026-04-18T13:53:45Z</time></trkpt><trkpt lat="45.00294275762169" lon="6.816721620084149"><ele>1232.0</ele><time>2026-04-18T13:53:46.009Z</time></trkpt><trkpt lat="45.003044827083706" lon="6.816878473069094"><ele>1227.3333333333335</ele><time>2026-04-18T13:53:47.012Z</time></trkpt><trkpt lat="45.003161275183345" lon="6.817032464039721"><ele>1222.6666666666667</ele><time>2026-04-18T13:53:48.018Z</time></trkpt><trkpt lat="45.00326749099348" lon="6.817192175691472"><ele>1218.0</ele><time>2026-04-18T13:53:49.01Z</time></trkpt><trkpt lat="45.00373887368012" lon="6.818038942298682"><ele>1218.0</ele><time>2026-04-18T13:53:53Z</time></trkpt><trkpt lat="45.00383693819324" lon="6.818245815236246"><ele>1218.0</ele><time>2026-04-18T13:53:54Z</time></trkpt><trkpt lat="45.00396276362299" lon="6.818421972152923"><ele>1218.0</ele><time>2026-04-18T13:53:55Z</time></trkpt><trkpt lat="45.00412461013286" lon="6.818613721931656"><ele>1210.3333333333333</ele><time>2026-04-18T13:53:56Z</time></trkpt><trkpt lat="45.00421217865003" lon="6.818811578763803"><ele>1202.6666666666665</ele><time>2026-04-18T13:53:57Z</time></trkpt><trkpt lat="45.00432383455049" lon="6.819029885450399"><ele>1195.0</ele><time>2026-04-18T13:53:58Z</time></trkpt><trkpt lat="45.00438610680099" lon="6.819195266774578"><ele>1197.3333333333333</ele><time>2026-04-18T13:53:59Z</time></trkpt><trkpt lat="45.00446865635907" lon="6.819408559283323"><ele>1199.6666666666667</ele><time>2026-04-18T13:54:00Z</time></trkpt><trkpt lat="45.00452689768624" lon="6.819679560946132"><ele>1202.0</ele><time>2026-04-18T13:54:01Z</time></trkpt><trkpt lat="45.00456911773122" lon="6.819933824357376"><ele>1205.3333333333335</ele><time>2026-04-18T13:54:02Z</time></trkpt><trkpt lat="45.00461157803884" lon="6.82018886274873"><ele>1208.6666666666667</ele><time>2026-04-18T13:54:03Z</time></trkpt><trkpt lat="45.004653970640504" lon="6.820431766414968"><ele>1212.0</ele><time>2026-04-18T13:54:04Z</time></trkpt><trkpt lat="45.00471621203954" lon="6.820713735134344"><ele>1212.0</ele><time>2026-04-18T13:54:05Z</time></trkpt><trkpt lat="45.00478875776556" lon="6.820945105798146"><ele>1212.0</ele><time>2026-04-18T13:54:06Z</time></trkpt><trkpt lat="45.00488589602336" lon="6.821174799637836"><ele>1212.0</ele><time>2026-04-18T13:54:07Z</time></trkpt><trkpt lat="45.005010491711595" lon="6.821435179079315"><ele>1210.3333333333333</ele><time>2026-04-18T13:54:08Z</time></trkpt><trkpt lat="45.005107119732" lon="6.821674235785654"><ele>1208.6666666666665</ele><time>2026-04-18T13:54:09Z</time></trkpt><trkpt lat="45.00521651322592" lon="6.821888739389643"><ele>1207.0</ele><time>2026-04-18T13:54:10Z</time></trkpt><trkpt lat="45.00535453077228" lon="6.8220608725125516"><ele>1207.0</ele><time>2026-04-18T13:54:11.015Z</time></trkpt><trkpt lat="45.00549836841285" lon="6.822239181095893"><ele>1207.0</ele><time>2026-04-18T13:54:12.017Z</time></trkpt><trkpt lat="45.005639690558155" lon="6.822414879733078"><ele>1207.0</ele><time>2026-04-18T13:54:13.013Z</time></trkpt><trkpt lat="45.005790312584104" lon="6.822602730298552"><ele>1204.3333333333333</ele><time>2026-04-18T13:54:14.019Z</time></trkpt><trkpt lat="45.00589313764664" lon="6.8227309298596515"><ele>1201.6666666666667</ele><time>2026-04-18T13:54:15.018Z</time></trkpt><trkpt lat="45.00604586959269" lon="6.822921345534554"><ele>1199.0</ele><time>2026-04-18T13:54:16.018Z</time></trkpt><trkpt lat="45.00619406253367" lon="6.823106329668667"><ele>1199.0</ele><time>2026-04-18T13:54:17Z</time></trkpt><trkpt lat="45.0063234555696" lon="6.8232683502144775"><ele>1199.0</ele><time>2026-04-18T13:54:18Z</time></trkpt><trkpt lat="45.006444443601495" lon="6.823419845122241"><ele>1199.0</ele><time>2026-04-18T13:54:19Z</time></trkpt><trkpt lat="45.006587899014114" lon="6.823599474002384"><ele>1195.3333333333335</ele><time>2026-04-18T13:54:20Z</time></trkpt><trkpt lat="45.006757055985375" lon="6.8238112932512545"><ele>1191.6666666666667</ele><time>2026-04-18T13:54:21Z</time></trkpt><trkpt lat="45.00688209711748" lon="6.823967618140982"><ele>1188.0</ele><time>2026-04-18T13:54:22Z</time></trkpt><trkpt lat="45.00701763673933" lon="6.824133986661655"><ele>1188.0</ele><time>2026-04-18T13:54:23Z</time></trkpt><trkpt lat="45.00720943515479" lon="6.8243116081761"><ele>1188.0</ele><time>2026-04-18T13:54:24Z</time></trkpt><trkpt lat="45.007353166487846" lon="6.824383864594658"><ele>1188.0</ele><time>2026-04-18T13:54:25Z</time></trkpt><trkpt lat="45.00751994460496" lon="6.8244390791217935"><ele>1183.0</ele><time>2026-04-18T13:54:26Z</time></trkpt><trkpt lat="45.007727874193435" lon="6.8244676644531355"><ele>1178.0</ele><time>2026-04-18T13:54:27Z</time></trkpt><trkpt lat="45.00788328637917" lon="6.82446857572153"><ele>1173.0</ele><time>2026-04-18T13:54:28Z</time></trkpt><trkpt lat="45.008047969967514" lon="6.824469982864219"><ele>1173.0</ele><time>2026-04-18T13:54:29Z</time></trkpt><trkpt lat="45.00818975234519" lon="6.824479368595006"><ele>1173.0</ele><time>2026-04-18T13:54:30Z</time></trkpt><trkpt lat="45.00835696671099" lon="6.824527329291345"><ele>1173.0</ele><time>2026-04-18T13:54:31Z</time></trkpt><trkpt lat="45.00853741879275" lon="6.824516657977409"><ele>1170.3333333333333</ele><time>2026-04-18T13:54:32Z</time></trkpt><trkpt lat="45.008661601047834" lon="6.824654217690338"><ele>1167.6666666666665</ele><time>2026-04-18T13:54:33Z</time></trkpt><trkpt lat="45.00882133689248" lon="6.824794082087174"><ele>1165.0</ele><time>2026-04-18T13:54:34Z</time></trkpt><trkpt lat="45.00897501741534" lon="6.824932089400008"><ele>1165.0</ele><time>2026-04-18T13:54:35Z</time></trkpt><trkpt lat="45.00909898822708" lon="6.825093341946868"><ele>1165.0</ele><time>2026-04-18T13:54:36Z</time></trkpt><trkpt lat="45.0092362863447" lon="6.825243419229036"><ele>1165.0</ele><time>2026-04-18T13:54:37Z</time></trkpt><trkpt lat="45.00937257780262" lon="6.825413746297835"><ele>1162.0</ele><time>2026-04-18T13:54:38Z</time></trkpt><trkpt lat="45.009533324830606" lon="6.8255910022473065"><ele>1159.0</ele><time>2026-04-18T13:54:39Z</time></trkpt><trkpt lat="45.009657303784735" lon="6.8257542068091706"><ele>1156.0</ele><time>2026-04-18T13:54:40Z</time></trkpt><trkpt lat="45.009824047868115" lon="6.825911039254638"><ele>1164.0</ele><time>2026-04-18T13:54:41Z</time></trkpt><trkpt lat="45.00997847920109" lon="6.8260203480458"><ele>1172.0</ele><time>2026-04-18T13:54:42Z</time></trkpt><trkpt lat="45.01015631463114" lon="6.826102729244697"><ele>1180.0</ele><time>2026-04-18T13:54:43Z</time></trkpt><trkpt lat="45.0103434861492" lon="6.826195001909405"><ele>1180.0</ele><time>2026-04-18T13:54:44Z</time></trkpt><trkpt lat="45.01050938317106" lon="6.8262999229971735"><ele>1180.0</ele><time>2026-04-18T13:54:45Z</time></trkpt><trkpt lat="45.01067462801833" lon="6.826429747234452"><ele>1180.0</ele><time>2026-04-18T13:54:46Z</time></trkpt><trkpt lat="45.01084618123306" lon="6.826584738608468"><ele>1180.0</ele><time>2026-04-18T13:54:47Z</time></trkpt><trkpt lat="45.01094850167511" lon="6.826746994984307"><ele>1180.0</ele><time>2026-04-18T13:54:48Z</time></trkpt><trkpt lat="45.011107360867314" lon="6.826885496362648"><ele>1180.0</ele><time>2026-04-18T13:54:49Z</time></trkpt><trkpt lat="45.01126866995042" lon="6.8270225750852545"><ele>1180.0</ele><time>2026-04-18T13:54:50Z</time></trkpt><trkpt lat="45.01142445037409" lon="6.827135838049803"><ele>1180.0</ele><time>2026-04-18T13:54:51Z</time></trkpt><trkpt lat="45.01157879484914" lon="6.82725566613111"><ele>1180.0</ele><time>2026-04-18T13:54:52Z</time></trkpt><trkpt lat="45.011732102688455" lon="6.827370930990568"><ele>1184.3333333333333</ele><time>2026-04-18T13:54:53Z</time></trkpt><trkpt lat="45.01187291761109" lon="6.8274448445866325"><ele>1188.6666666666667</ele><time>2026-04-18T13:54:54Z</time></trkpt><trkpt lat="45.01202569565741" lon="6.827580927984894"><ele>1193.0</ele><time>2026-04-18T13:54:55Z</time></trkpt><trkpt lat="45.01219096264475" lon="6.82769701619663"><ele>1193.0</ele><time>2026-04-18T13:54:56Z</time></trkpt><trkpt lat="45.012371032106174" lon="6.827820579245304"><ele>1193.0</ele><time>2026-04-18T13:54:57Z</time></trkpt><trkpt lat="45.012554505702234" lon="6.827921323785727"><ele>1193.0</ele><time>2026-04-18T13:54:58Z</time></trkpt><trkpt lat="45.012746297507846" lon="6.8280012840148085"><ele>1177.0</ele><time>2026-04-18T13:54:59Z</time></trkpt><trkpt lat="45.01290803823259" lon="6.828092645236546"><ele>1161.0</ele><time>2026-04-18T13:55:00Z</time></trkpt><trkpt lat="45.01306999683901" lon="6.828211460682817"><ele>1145.0</ele><time>2026-04-18T13:55:01Z</time></trkpt><trkpt lat="45.01324303294126" lon="6.828308311759391"><ele>1149.0</ele><time>2026-04-18T13:55:02Z</time></trkpt><trkpt lat="45.013397533971975" lon="6.828436528363105"><ele>1153.0</ele><time>2026-04-18T13:55:03Z</time></trkpt><trkpt lat="45.01357024086734" lon="6.828541987376247"><ele>1157.0</ele><time>2026-04-18T13:55:04Z</time></trkpt><trkpt lat="45.01374447643153" lon="6.828658085753504"><ele>1157.0</ele><time>2026-04-18T13:55:05Z</time></trkpt><trkpt lat="45.01391834107812" lon="6.828801139404351"><ele>1157.0</ele><time>2026-04-18T13:55:06Z</time></trkpt><trkpt lat="45.014092488267444" lon="6.828947335609449"><ele>1157.0</ele><time>2026-04-18T13:55:07Z</time></trkpt><trkpt lat="45.01427308954482" lon="6.82909506512371"><ele>1155.6666666666667</ele><time>2026-04-18T13:55:08Z</time></trkpt><trkpt lat="45.01444589136898" lon="6.829268546648293"><ele>1154.3333333333333</ele><time>2026-04-18T13:55:09Z</time></trkpt><trkpt lat="45.01463137459893" lon="6.829439740068977"><ele>1153.0</ele><time>2026-04-18T13:55:10Z</time></trkpt><trkpt lat="45.01479545582712" lon="6.829591847755708"><ele>1153.0</ele><time>2026-04-18T13:55:11Z</time></trkpt><trkpt lat="45.014975089241794" lon="6.829758372862874"><ele>1153.0</ele><time>2026-04-18T13:55:12Z</time></trkpt><trkpt lat="45.01512874831113" lon="6.829900819053627"><ele>1153.0</ele><time>2026-04-18T13:55:13Z</time></trkpt><trkpt lat="45.015282062316665" lon="6.830031010515509"><ele>1155.3333333333333</ele><time>2026-04-18T13:55:14Z</time></trkpt><trkpt lat="45.015417931489516" lon="6.830178723357372"><ele>1157.6666666666667</ele><time>2026-04-18T13:55:15Z</time></trkpt><trkpt lat="45.015579171144005" lon="6.830316691050106"><ele>1160.0</ele><time>2026-04-18T13:55:16Z</time></trkpt><trkpt lat="45.01575222736819" lon="6.8304459401689135"><ele>1150.0</ele><time>2026-04-18T13:55:17Z</time></trkpt><trkpt lat="45.01591960446366" lon="6.830568676185745"><ele>1140.0</ele><time>2026-04-18T13:55:18Z</time></trkpt><trkpt lat="45.016122805892024" lon="6.830657629719764"><ele>1130.0</ele><time>2026-04-18T13:55:19Z</time></trkpt><trkpt lat="45.01628994166495" lon="6.830753374513087"><ele>1130.0</ele><time>2026-04-18T13:55:20Z</time></trkpt><trkpt lat="45.01643534520129" lon="6.830857915996364"><ele>1130.0</ele><time>2026-04-18T13:55:21Z</time></trkpt><trkpt lat="45.01659412770322" lon="6.830971678232942"><ele>1130.0</ele><time>2026-04-18T13:55:22Z</time></trkpt><trkpt lat="45.016745636005176" lon="6.831069094733725"><ele>1128.0</ele><time>2026-04-18T13:55:23Z</time></trkpt><trkpt lat="45.01694644237323" lon="6.831126158746019"><ele>1126.0</ele><time>2026-04-18T13:55:24Z</time></trkpt><trkpt lat="45.017092621224144" lon="6.83121108686985"><ele>1124.0</ele><time>2026-04-18T13:55:25Z</time></trkpt><trkpt lat="45.0172419691722" lon="6.831291715327074"><ele>1124.0</ele><time>2026-04-18T13:55:26Z</time></trkpt><trkpt lat="45.017406124149204" lon="6.831387123168667"><ele>1124.0</ele><time>2026-04-18T13:55:27Z</time></trkpt><trkpt lat="45.01756933563323" lon="6.831480932579287"><ele>1124.0</ele><time>2026-04-18T13:55:28Z</time></trkpt><trkpt lat="45.017729181881265" lon="6.831551416481715"><ele>1122.0</ele><time>2026-04-18T13:55:29Z</time></trkpt><trkpt lat="45.01789534219044" lon="6.8316322935039455"><ele>1120.0</ele><time>2026-04-18T13:55:30Z</time></trkpt><trkpt lat="45.018081952339834" lon="6.831670400315528"><ele>1118.0</ele><time>2026-04-18T13:55:31Z</time></trkpt><trkpt lat="45.018250097366305" lon="6.831724691120819"><ele>1115.3333333333335</ele><time>2026-04-18T13:55:32Z</time></trkpt><trkpt lat="45.01842794928264" lon="6.831771045594501"><ele>1112.6666666666667</ele><time>2026-04-18T13:55:33Z</time></trkpt><trkpt lat="45.018566568772" lon="6.831799529009984"><ele>1110.0</ele><time>2026-04-18T13:55:34Z</time></trkpt><trkpt lat="45.0187251618309" lon="6.831787988888942"><ele>1110.0</ele><time>2026-04-18T13:55:35Z</time></trkpt><trkpt lat="45.01891197480347" lon="6.831796122059026"><ele>1110.0</ele><time>2026-04-18T13:55:36Z</time></trkpt><trkpt lat="45.019088860947555" lon="6.83179702222237"><ele>1110.0</ele><time>2026-04-18T13:55:37Z</time></trkpt><trkpt lat="45.019268945826106" lon="6.8317473202578824"><ele>1109.6666666666667</ele><time>2026-04-18T13:55:38Z</time></trkpt><trkpt lat="45.01945638507456" lon="6.831702861701763"><ele>1109.3333333333335</ele><time>2026-04-18T13:55:39Z</time></trkpt><trkpt lat="45.01962945245809" lon="6.831626031805293"><ele>1109.0</ele><time>2026-04-18T13:55:40Z</time></trkpt><trkpt lat="45.01980394756" lon="6.831573595267548"><ele>1109.0</ele><time>2026-04-18T13:55:41Z</time></trkpt><trkpt lat="45.019968480758855" lon="6.831519072920173"><ele>1109.0</ele><time>2026-04-18T13:55:42Z</time></trkpt><trkpt lat="45.020126772231094" lon="6.8314727871332295"><ele>1109.0</ele><time>2026-04-18T13:55:43Z</time></trkpt><trkpt lat="45.02028288258102" lon="6.831395933348934"><ele>1112.6666666666667</ele><time>2026-04-18T13:55:44Z</time></trkpt><trkpt lat="45.02044224408706" lon="6.831351842821158"><ele>1116.3333333333333</ele><time>2026-04-18T13:55:45Z</time></trkpt><trkpt lat="45.02058032389421" lon="6.831276853753529"><ele>1120.0</ele><time>2026-04-18T13:55:46Z</time></trkpt><trkpt lat="45.02073361409705" lon="6.831227125894675"><ele>1123.6666666666665</ele><time>2026-04-18T13:55:47Z</time></trkpt><trkpt lat="45.020878401918594" lon="6.8311953075732665"><ele>1127.3333333333333</ele><time>2026-04-18T13:55:48Z</time></trkpt><trkpt lat="45.021031921304676" lon="6.831146621589332"><ele>1131.0</ele><time>2026-04-18T13:55:49Z</time></trkpt><trkpt lat="45.02120198771334" lon="6.831094639432165"><ele>1131.0</ele><time>2026-04-18T13:55:50Z</time></trkpt><trkpt lat="45.02136400725652" lon="6.831045114965012"><ele>1131.0</ele><time>2026-04-18T13:55:51Z</time></trkpt><trkpt lat="45.02151915626926" lon="6.83098980225325"><ele>1131.0</ele><time>2026-04-18T13:55:52Z</time></trkpt><trkpt lat="45.02169813799926" lon="6.830976861259482"><ele>1132.3333333333333</ele><time>2026-04-18T13:55:53Z</time></trkpt><trkpt lat="45.02187402866194" lon="6.830970922143492"><ele>1133.6666666666665</ele><time>2026-04-18T13:55:54Z</time></trkpt><trkpt lat="45.02205486579716" lon="6.830999400636827"><ele>1135.0</ele><time>2026-04-18T13:55:55Z</time></trkpt><trkpt lat="45.02223046329526" lon="6.8310038802329"><ele>1135.0</ele><time>2026-04-18T13:55:56Z</time></trkpt><trkpt lat="45.02238469766813" lon="6.83100304552966"><ele>1135.0</ele><time>2026-04-18T13:55:57Z</time></trkpt><trkpt lat="45.02254753980101" lon="6.831041230473595"><ele>1135.0</ele><time>2026-04-18T13:55:58Z</time></trkpt><trkpt lat="45.022711988470874" lon="6.831036130610379"><ele>1130.3333333333333</ele><time>2026-04-18T13:55:59Z</time></trkpt><trkpt lat="45.022880979076454" lon="6.831053774859289"><ele>1125.6666666666667</ele><time>2026-04-18T13:56:00Z</time></trkpt><trkpt lat="45.02305489126243" lon="6.831030005430861"><ele>1121.0</ele><time>2026-04-18T13:56:01Z</time></trkpt><trkpt lat="45.023225839781304" lon="6.831024611204023"><ele>1116.6666666666667</ele><time>2026-04-18T13:56:02Z</time></trkpt><trkpt lat="45.023400664255846" lon="6.83101563386039"><ele>1112.3333333333333</ele><time>2026-04-18T13:56:03Z</time></trkpt><trkpt lat="45.02357597883131" lon="6.8309847596685005"><ele>1108.0</ele><time>2026-04-18T13:56:04Z</time></trkpt><trkpt lat="45.023745158259125" lon="6.83090334184539"><ele>1105.0</ele><time>2026-04-18T13:56:05Z</time></trkpt><trkpt lat="45.02390887442624" lon="6.830875173027351"><ele>1102.0</ele><time>2026-04-18T13:56:06Z</time></trkpt><trkpt lat="45.02406428069763" lon="6.830839619117558"><ele>1099.0</ele><time>2026-04-18T13:56:07Z</time></trkpt><trkpt lat="45.02423225185841" lon="6.830807704911374"><ele>1098.6666666666665</ele><time>2026-04-18T13:56:08Z</time></trkpt><trkpt lat="45.024392147372936" lon="6.8307589706705105"><ele>1098.3333333333333</ele><time>2026-04-18T13:56:09Z</time></trkpt><trkpt lat="45.02455559175483" lon="6.830716055745472"><ele>1098.0</ele><time>2026-04-18T13:56:10Z</time></trkpt><trkpt lat="45.02471961481034" lon="6.830671395376234"><ele>1098.0</ele><time>2026-04-18T13:56:11Z</time></trkpt><trkpt lat="45.02487786454066" lon="6.830629174097086"><ele>1098.0</ele><time>2026-04-18T13:56:12Z</time></trkpt><trkpt lat="45.025040667420356" lon="6.830597340550683"><ele>1098.0</ele><time>2026-04-18T13:56:13Z</time></trkpt><trkpt lat="45.025197664995396" lon="6.830548937756343"><ele>1097.3333333333333</ele><time>2026-04-18T13:56:14Z</time></trkpt><trkpt lat="45.02535660956325" lon="6.830519961517769"><ele>1096.6666666666665</ele><time>2026-04-18T13:56:15Z</time></trkpt><trkpt lat="45.02550448827232" lon="6.830487811014372"><ele>1096.0</ele><time>2026-04-18T13:56:16Z</time></trkpt><trkpt lat="45.02566977602196" lon="6.830467982088649"><ele>1094.6666666666665</ele><time>2026-04-18T13:56:17Z</time></trkpt><trkpt lat="45.02583323129008" lon="6.830437251687626"><ele>1093.3333333333333</ele><time>2026-04-18T13:56:18Z</time></trkpt><trkpt lat="45.02599477913091" lon="6.830407914510001"><ele>1092.0</ele><time>2026-04-18T13:56:19Z</time></trkpt><trkpt lat="45.026154830766785" lon="6.830355507407522"><ele>1092.0</ele><time>2026-04-18T13:56:20Z</time></trkpt><trkpt lat="45.02632764322689" lon="6.830313784139661"><ele>1092.0</ele><time>2026-04-18T13:56:21Z</time></trkpt><trkpt lat="45.026493132863024" lon="6.830277447285596"><ele>1092.0</ele><time>2026-04-18T13:56:22Z</time></trkpt><trkpt lat="45.026649824139994" lon="6.830223855641042"><ele>1091.6666666666667</ele><time>2026-04-18T13:56:23Z</time></trkpt><trkpt lat="45.02680552152016" lon="6.830183667626443"><ele>1091.3333333333335</ele><time>2026-04-18T13:56:24Z</time></trkpt><trkpt lat="45.026941841488146" lon="6.8301366927593765"><ele>1091.0</ele><time>2026-04-18T13:56:25Z</time></trkpt><trkpt lat="45.02709185526679" lon="6.830096688480671"><ele>1090.75</ele><time>2026-04-18T13:56:26Z</time></trkpt><trkpt lat="45.027241304552994" lon="6.830065408400224"><ele>1090.5</ele><time>2026-04-18T13:56:27Z</time></trkpt><trkpt lat="45.027379635223085" lon="6.830019523267864"><ele>1090.25</ele><time>2026-04-18T13:56:28Z</time></trkpt><trkpt lat="45.027522571717526" lon="6.829990907888685"><ele>1090.0</ele><time>2026-04-18T13:56:29Z</time></trkpt><trkpt lat="45.02766975278996" lon="6.8299660213373405"><ele>1090.0</ele><time>2026-04-18T13:56:30Z</time></trkpt><trkpt lat="45.027803025238036" lon="6.829925480912766"><ele>1090.0</ele><time>2026-04-18T13:56:31Z</time></trkpt><trkpt lat="45.02794966701783" lon="6.829889763319173"><ele>1090.0</ele><time>2026-04-18T13:56:32Z</time></trkpt><trkpt lat="45.02809808586734" lon="6.829863203028506"><ele>1090.0</ele><time>2026-04-18T13:56:33Z</time></trkpt><trkpt lat="45.028251362939685" lon="6.829803287791951"><ele>1091.25</ele><time>2026-04-18T13:56:34Z</time></trkpt><trkpt lat="45.02842041708366" lon="6.829799289499276"><ele>1092.5</ele><time>2026-04-18T13:56:35Z</time></trkpt><trkpt lat="45.028551425689024" lon="6.829764832561266"><ele>1093.75</ele><time>2026-04-18T13:56:36Z</time></trkpt><trkpt lat="45.028693172635" lon="6.829721165737157"><ele>1095.0</ele><time>2026-04-18T13:56:37Z</time></trkpt><trkpt lat="45.028832770266824" lon="6.829681409885283"><ele>1095.0</ele><time>2026-04-18T13:56:38Z</time></trkpt><trkpt lat="45.02897820647282" lon="6.829698407001398"><ele>1095.0</ele><time>2026-04-18T13:56:39Z</time></trkpt><trkpt lat="45.02910261573222" lon="6.8297487132551336"><ele>1095.0</ele><time>2026-04-18T13:56:40Z</time></trkpt><trkpt lat="45.029190211445616" lon="6.829859730772582"><ele>1095.0</ele><time>2026-04-18T13:56:41Z</time></trkpt><trkpt lat="45.02929028603357" lon="6.829936286816708"><ele>1093.0</ele><time>2026-04-18T13:56:42Z</time></trkpt><trkpt lat="45.02943015562136" lon="6.830073655355366"><ele>1091.0</ele><time>2026-04-18T13:56:43Z</time></trkpt><trkpt lat="45.02953804986044" lon="6.830185060735763"><ele>1089.0</ele><time>2026-04-18T13:56:44Z</time></trkpt><trkpt lat="45.02971508961142" lon="6.830370435765244"><ele>1088.25</ele><time>2026-04-18T13:56:45Z</time></trkpt><trkpt lat="45.0298203515894" lon="6.830475187532993"><ele>1087.5</ele><time>2026-04-18T13:56:46Z</time></trkpt><trkpt lat="45.02993197135201" lon="6.83058626625372"><ele>1086.75</ele><time>2026-04-18T13:56:47Z</time></trkpt><trkpt lat="45.03003153576159" lon="6.830661612143809"><ele>1086.0</ele><time>2026-04-18T13:56:48Z</time></trkpt><trkpt lat="45.0300893170726" lon="6.830781502364391"><ele>1086.0</ele><time>2026-04-18T13:56:49Z</time></trkpt><trkpt lat="45.030188563698424" lon="6.830884110360113"><ele>1086.0</ele><time>2026-04-18T13:56:50Z</time></trkpt><trkpt lat="45.030283784453104" lon="6.830976681829957"><ele>1086.0</ele><time>2026-04-18T13:56:51Z</time></trkpt><trkpt lat="45.030391240479254" lon="6.831075598643867"><ele>1086.0</ele><time>2026-04-18T13:56:52Z</time></trkpt><trkpt lat="45.03047130830127" lon="6.831163518054158"><ele>1085.6666666666667</ele><time>2026-04-18T13:56:53Z</time></trkpt><trkpt lat="45.030552078610405" lon="6.831246210320413"><ele>1085.3333333333333</ele><time>2026-04-18T13:56:54Z</time></trkpt><trkpt lat="45.03062386306261" lon="6.831318284142295"><ele>1085.0</ele><time>2026-04-18T13:56:55Z</time></trkpt><trkpt lat="45.03068512429933" lon="6.831379906811107"><ele>1084.6666666666665</ele><time>2026-04-18T13:56:56Z</time></trkpt><trkpt lat="45.03074626468126" lon="6.831458397704954"><ele>1084.3333333333333</ele><time>2026-04-18T13:56:57Z</time></trkpt><trkpt lat="45.030817574884196" lon="6.8315054818711465"><ele>1084.0</ele><time>2026-04-18T13:56:58Z</time></trkpt><trkpt lat="45.03089526722277" lon="6.8315326410249435"><ele>1084.0</ele><time>2026-04-18T13:56:59Z</time></trkpt><trkpt lat="45.03093560248562" lon="6.8316136080631145"><ele>1084.0</ele><time>2026-04-18T13:57:00Z</time></trkpt><trkpt lat="45.030993275216105" lon="6.831673315219508"><ele>1084.0</ele><time>2026-04-18T13:57:01Z</time></trkpt><trkpt lat="45.03104507834339" lon="6.83172669278342"><ele>1084.0</ele><time>2026-04-18T13:57:02Z</time></trkpt><trkpt lat="45.03114483655886" lon="6.831672105796921"><ele>1084.0</ele><time>2026-04-18T13:57:03Z</time></trkpt><trkpt lat="45.03122540029101" lon="6.831790590415275"><ele>1084.0</ele><time>2026-04-18T13:57:05Z</time></trkpt><trkpt lat="45.031301826368534" lon="6.831846958046216"><ele>1083.8333333333333</ele><time>2026-04-18T13:57:06Z</time></trkpt><trkpt lat="45.03135960298237" lon="6.831956185392033"><ele>1083.6666666666665</ele><time>2026-04-18T13:57:08Z</time></trkpt><trkpt lat="45.03142034033537" lon="6.832019242423557"><ele>1083.5</ele><time>2026-04-18T13:57:09Z</time></trkpt><trkpt lat="45.03147475492878" lon="6.8320710945352445"><ele>1083.3333333333333</ele><time>2026-04-18T13:57:10Z</time></trkpt><trkpt lat="45.03151991718973" lon="6.832210177000914"><ele>1083.1666666666667</ele><time>2026-04-18T13:57:12Z</time></trkpt><trkpt lat="45.031595699317" lon="6.8322874798808515"><ele>1083.0</ele><time>2026-04-18T13:57:14Z</time></trkpt><trkpt lat="45.03167108552547" lon="6.832364281111327"><ele>1083.0</ele><time>2026-04-18T13:57:16Z</time></trkpt><trkpt lat="45.03172546265991" lon="6.832473504130779"><ele>1083.0</ele><time>2026-04-18T13:57:19Z</time></trkpt><trkpt lat="45.0317889973743" lon="6.832552844963121"><ele>1083.0</ele><time>2026-04-18T13:57:21Z</time></trkpt><trkpt lat="45.0318671085545" lon="6.832647985229735"><ele>1083.0</ele><time>2026-04-18T13:57:23Z</time></trkpt><trkpt lat="45.031946785974455" lon="6.832742211176034"><ele>1083.0</ele><time>2026-04-18T13:57:26Z</time></trkpt><trkpt lat="45.03201192306636" lon="6.832830482206548"><ele>1083.0</ele><time>2026-04-18T13:57:28Z</time></trkpt><trkpt lat="45.032099111995976" lon="6.832953691613919"><ele>1083.0</ele><time>2026-04-18T13:57:31Z</time></trkpt><trkpt lat="45.032186463289186" lon="6.83303094999605"><ele>1083.0</ele><time>2026-04-18T13:57:33Z</time></trkpt><trkpt lat="45.0322925264817" lon="6.8330154070056235"><ele>1083.0</ele><time>2026-04-18T13:57:34Z</time></trkpt><trkpt lat="45.03240578083987" lon="6.833023021235901"><ele>1083.0</ele><time>2026-04-18T13:57:36Z</time></trkpt><trkpt lat="45.032474951822955" lon="6.8330449418015204"><ele>1082.3333333333333</ele><time>2026-04-18T13:57:37Z</time></trkpt><trkpt lat="45.032556480282466" lon="6.833093607693394"><ele>1081.6666666666667</ele><time>2026-04-18T13:57:38Z</time></trkpt><trkpt lat="45.032632815013876" lon="6.833105740701457"><ele>1081.0</ele><time>2026-04-18T13:57:39Z</time></trkpt><trkpt lat="45.032685011116456" lon="6.833173556268342"><ele>1080.3333333333335</ele><time>2026-04-18T13:57:40Z</time></trkpt><trkpt lat="45.03278167705732" lon="6.833223843542348"><ele>1079.6666666666667</ele><time>2026-04-18T13:57:42Z</time></trkpt><trkpt lat="45.032881128626734" lon="6.833286998441543"><ele>1079.0</ele><time>2026-04-18T13:57:44Z</time></trkpt><trkpt lat="45.03299474862416" lon="6.833320628766519"><ele>1079.0</ele><time>2026-04-18T13:57:46Z</time></trkpt><trkpt lat="45.033079974719065" lon="6.833388709308335"><ele>1079.0</ele><time>2026-04-18T13:57:48Z</time></trkpt><trkpt lat="45.03317016767606" lon="6.833472924814759"><ele>1079.0</ele><time>2026-04-18T13:57:50Z</time></trkpt><trkpt lat="45.0332593657446" lon="6.833578006654763"><ele>1079.0</ele><time>2026-04-18T13:57:52Z</time></trkpt><trkpt lat="45.03333010099612" lon="6.833670409255313"><ele>1079.0</ele><time>2026-04-18T13:57:54Z</time></trkpt><trkpt lat="45.03337857802013" lon="6.833733661181701"><ele>1079.0</ele><time>2026-04-18T13:57:55Z</time></trkpt><trkpt lat="45.03345751568468" lon="6.833853568757412"><ele>1079.0</ele><time>2026-04-18T13:57:56Z</time></trkpt><trkpt lat="45.03353289215238" lon="6.833963835297344"><ele>1079.0</ele><time>2026-04-18T13:57:57Z</time></trkpt><trkpt lat="45.033623593302714" lon="6.83409646042061"><ele>1079.0</ele><time>2026-04-18T13:57:58Z</time></trkpt><trkpt lat="45.033752923506356" lon="6.834299506952022"><ele>1078.3333333333335</ele><time>2026-04-18T13:57:59Z</time></trkpt><trkpt lat="45.033812603847316" lon="6.834464936206959"><ele>1077.6666666666667</ele><time>2026-04-18T13:58:00Z</time></trkpt><trkpt lat="45.03394088136572" lon="6.834662231399594"><ele>1077.0</ele><time>2026-04-18T13:58:01Z</time></trkpt><trkpt lat="45.034056942487034" lon="6.834833759716015"><ele>1076.6666666666667</ele><time>2026-04-18T13:58:02Z</time></trkpt><trkpt lat="45.03417080940556" lon="6.834986287227575"><ele>1076.3333333333335</ele><time>2026-04-18T13:58:03Z</time></trkpt><trkpt lat="45.034292518861484" lon="6.835121116902988"><ele>1076.0</ele><time>2026-04-18T13:58:04Z</time></trkpt><trkpt lat="45.03441387368466" lon="6.835309898953725"><ele>1077.0</ele><time>2026-04-18T13:58:05Z</time></trkpt><trkpt lat="45.03454089077606" lon="6.83548600948204"><ele>1078.0</ele><time>2026-04-18T13:58:06Z</time></trkpt><trkpt lat="45.03467480030325" lon="6.835603090203341"><ele>1079.0</ele><time>2026-04-18T13:58:07Z</time></trkpt><trkpt lat="45.03478405058538" lon="6.835747944326622"><ele>1079.0</ele><time>2026-04-18T13:58:08Z</time></trkpt><trkpt lat="45.03489040994983" lon="6.835893859049831"><ele>1079.0</ele><time>2026-04-18T13:58:09Z</time></trkpt><trkpt lat="45.03497659069794" lon="6.836048096442535"><ele>1079.0</ele><time>2026-04-18T13:58:10Z</time></trkpt><trkpt lat="45.03508058521924" lon="6.836198105822567"><ele>1079.0</ele><time>2026-04-18T13:58:11Z</time></trkpt><trkpt lat="45.03518567449868" lon="6.836317226914842"><ele>1078.25</ele><time>2026-04-18T13:58:12Z</time></trkpt><trkpt lat="45.035262057132705" lon="6.836459874442947"><ele>1077.5</ele><time>2026-04-18T13:58:13Z</time></trkpt><trkpt lat="45.035362918379654" lon="6.836600659048109"><ele>1076.75</ele><time>2026-04-18T13:58:14Z</time></trkpt><trkpt lat="45.03546021075114" lon="6.836727001382984"><ele>1076.0</ele><time>2026-04-18T13:58:15Z</time></trkpt><trkpt lat="45.03556632677275" lon="6.836838678770608"><ele>1077.0</ele><time>2026-04-18T13:58:16Z</time></trkpt><trkpt lat="45.035662840589595" lon="6.836974880132928"><ele>1078.0</ele><time>2026-04-18T13:58:17Z</time></trkpt><trkpt lat="45.03580032183513" lon="6.837129942398866"><ele>1079.0</ele><time>2026-04-18T13:58:18Z</time></trkpt><trkpt lat="45.0359412500815" lon="6.837258755284097"><ele>1079.0</ele><time>2026-04-18T13:58:19Z</time></trkpt><trkpt lat="45.03609678217042" lon="6.837386427077025"><ele>1079.0</ele><time>2026-04-18T13:58:20Z</time></trkpt><trkpt lat="45.036259095543464" lon="6.837541333696492"><ele>1079.0</ele><time>2026-04-18T13:58:21Z</time></trkpt><trkpt lat="45.03645448042413" lon="6.837766664476716"><ele>1079.0</ele><time>2026-04-18T13:58:22Z</time></trkpt><trkpt lat="45.03666808862951" lon="6.83796106464123"><ele>1079.0</ele><time>2026-04-18T13:58:23Z</time></trkpt><trkpt lat="45.03690788660171" lon="6.838249364687361"><ele>1087.5</ele><time>2026-04-18T13:58:24Z</time></trkpt><trkpt lat="45.037183249888955" lon="6.838491341411304"><ele>1096.0</ele><time>2026-04-18T13:58:25Z</time></trkpt><trkpt lat="45.03742789731554" lon="6.838750174185777"><ele>1086.0</ele><time>2026-04-18T13:58:26Z</time></trkpt><trkpt lat="45.03767324823359" lon="6.838992707372599"><ele>1076.0</ele><time>2026-04-18T13:58:27Z</time></trkpt><trkpt lat="45.03790759997701" lon="6.839211697939853"><ele>1083.5</ele><time>2026-04-18T13:58:28Z</time></trkpt><trkpt lat="45.03810099010576" lon="6.839415922496843"><ele>1091.0</ele><time>2026-04-18T13:58:29Z</time></trkpt><trkpt lat="45.038297133579356" lon="6.83958892477317"><ele>1081.0</ele><time>2026-04-18T13:58:30Z</time></trkpt><trkpt lat="45.038517158511375" lon="6.839784942481841"><ele>1071.0</ele><time>2026-04-18T13:58:31Z</time></trkpt><trkpt lat="45.038695271681185" lon="6.839978846189823"><ele>1068.3333333333333</ele><time>2026-04-18T13:58:32Z</time></trkpt><trkpt lat="45.03885739613553" lon="6.840151579399392"><ele>1065.6666666666665</ele><time>2026-04-18T13:58:33Z</time></trkpt><trkpt lat="45.03902360966102" lon="6.8403452110947915"><ele>1063.0</ele><time>2026-04-18T13:58:34Z</time></trkpt><trkpt lat="45.039185563893405" lon="6.840514152934948"><ele>1063.0</ele><time>2026-04-18T13:58:35Z</time></trkpt><trkpt lat="45.03935789276634" lon="6.84067809813758"><ele>1063.0</ele><time>2026-04-18T13:58:36Z</time></trkpt><trkpt lat="45.03952211038326" lon="6.84083085407932"><ele>1063.0</ele><time>2026-04-18T13:58:37Z</time></trkpt><trkpt lat="45.039684651677575" lon="6.840979467770154"><ele>1062.6666666666665</ele><time>2026-04-18T13:58:38Z</time></trkpt><trkpt lat="45.03983324033102" lon="6.841138551258126"><ele>1062.3333333333333</ele><time>2026-04-18T13:58:39Z</time></trkpt><trkpt lat="45.03995466198763" lon="6.84129977336092"><ele>1062.0</ele><time>2026-04-18T13:58:40Z</time></trkpt><trkpt lat="45.040088629103344" lon="6.841447802320839"><ele>1062.0</ele><time>2026-04-18T13:58:41Z</time></trkpt><trkpt lat="45.04020740595911" lon="6.841584650608042"><ele>1062.0</ele><time>2026-04-18T13:58:42Z</time></trkpt><trkpt lat="45.04033730718255" lon="6.84172870953543"><ele>1062.0</ele><time>2026-04-18T13:58:43Z</time></trkpt><trkpt lat="45.04046225852886" lon="6.8418608244290136"><ele>1061.5</ele><time>2026-04-18T13:58:44Z</time></trkpt><trkpt lat="45.0405654449255" lon="6.84198290933095"><ele>1061.0</ele><time>2026-04-18T13:58:45Z</time></trkpt><trkpt lat="45.040674403976894" lon="6.842088292159394"><ele>1060.5</ele><time>2026-04-18T13:58:46Z</time></trkpt><trkpt lat="45.040781078826775" lon="6.842207010563189"><ele>1060.0</ele><time>2026-04-18T13:58:47Z</time></trkpt><trkpt lat="45.04087823664749" lon="6.8423227924133645"><ele>1060.0</ele><time>2026-04-18T13:58:48Z</time></trkpt><trkpt lat="45.040966123788024" lon="6.8424194996111884"><ele>1060.0</ele><time>2026-04-18T13:58:49Z</time></trkpt><trkpt lat="45.0410258669678" lon="6.842518241020714"><ele>1060.0</ele><time>2026-04-18T13:58:50Z</time></trkpt><trkpt lat="45.0411179161633" lon="6.842629982175794"><ele>1060.0</ele><time>2026-04-18T13:58:51Z</time></trkpt><trkpt lat="45.04120503804933" lon="6.842726560902541"><ele>1060.0</ele><time>2026-04-18T13:58:52Z</time></trkpt><trkpt lat="45.04130547277078" lon="6.842833466798697"><ele>1059.6666666666665</ele><time>2026-04-18T13:58:53Z</time></trkpt><trkpt lat="45.04138536462873" lon="6.842920406099658"><ele>1059.3333333333333</ele><time>2026-04-18T13:58:54Z</time></trkpt><trkpt lat="45.04146074174674" lon="6.843004431416209"><ele>1059.0</ele><time>2026-04-18T13:58:55Z</time></trkpt><trkpt lat="45.04146139272507" lon="6.843095327966176"><ele>1058.6666666666667</ele><time>2026-04-18T13:58:56Z</time></trkpt><trkpt lat="45.04149165366221" lon="6.84322375464358"><ele>1058.3333333333335</ele><time>2026-04-18T13:58:57Z</time></trkpt><trkpt lat="45.041525394101185" lon="6.843334307756921"><ele>1058.0</ele><time>2026-04-18T13:58:58Z</time></trkpt><trkpt lat="45.041591948223065" lon="6.84343827281548"><ele>1057.6</ele><time>2026-04-18T13:58:59Z</time></trkpt><trkpt lat="45.04167063520924" lon="6.843484858722972"><ele>1057.1999999999998</ele><time>2026-04-18T13:59:00Z</time></trkpt><trkpt lat="45.04174490027924" lon="6.843513985880822"><ele>1056.8</ele><time>2026-04-18T13:59:01Z</time></trkpt><trkpt lat="45.04183526220547" lon="6.843580252255135"><ele>1056.3999999999999</ele><time>2026-04-18T13:59:02Z</time></trkpt><trkpt lat="45.04195008717674" lon="6.8436574588329835"><ele>1056.0</ele><time>2026-04-18T13:59:03Z</time></trkpt><trkpt lat="45.04205702182964" lon="6.8437661575262245"><ele>1056.0</ele><time>2026-04-18T13:59:04Z</time></trkpt><trkpt lat="45.042180830599705" lon="6.843896839581535"><ele>1056.0</ele><time>2026-04-18T13:59:05Z</time></trkpt><trkpt lat="45.042343513955885" lon="6.844063084338239"><ele>1056.0</ele><time>2026-04-18T13:59:06Z</time></trkpt><trkpt lat="45.042515654502324" lon="6.844244276049153"><ele>1055.0</ele><time>2026-04-18T13:59:07Z</time></trkpt><trkpt lat="45.0426792677434" lon="6.84446689614806"><ele>1054.0</ele><time>2026-04-18T13:59:08Z</time></trkpt><trkpt lat="45.04288383039678" lon="6.8447114500551"><ele>1054.0</ele><time>2026-04-18T13:59:09Z</time></trkpt><trkpt lat="45.04312507515331" lon="6.844977139999262"><ele>1054.0</ele><time>2026-04-18T13:59:10Z</time></trkpt><trkpt lat="45.04336272074876" lon="6.845292379138741"><ele>1053.5</ele><time>2026-04-18T13:59:11Z</time></trkpt><trkpt lat="45.04356310914128" lon="6.8455690330729055"><ele>1053.0</ele><time>2026-04-18T13:59:12Z</time></trkpt><trkpt lat="45.04376367129145" lon="6.845759998667312"><ele>1052.0</ele><time>2026-04-18T13:59:13Z</time></trkpt><trkpt lat="45.04394617947616" lon="6.845988005183159"><ele>1051.0</ele><time>2026-04-18T13:59:14Z</time></trkpt><trkpt lat="45.044128381876405" lon="6.8462200233881765"><ele>1051.0</ele><time>2026-04-18T13:59:15Z</time></trkpt><trkpt lat="45.04429555039208" lon="6.846419988805656"><ele>1051.0</ele><time>2026-04-18T13:59:16Z</time></trkpt><trkpt lat="45.04446440551638" lon="6.8466172875201154"><ele>1051.0</ele><time>2026-04-18T13:59:17Z</time></trkpt><trkpt lat="45.044614008929166" lon="6.846791783356854"><ele>1050.6666666666665</ele><time>2026-04-18T13:59:18Z</time></trkpt><trkpt lat="45.04477339934187" lon="6.846992579034618"><ele>1050.3333333333333</ele><time>2026-04-18T13:59:19Z</time></trkpt><trkpt lat="45.04494929107218" lon="6.847165029563967"><ele>1050.0</ele><time>2026-04-18T13:59:20Z</time></trkpt><trkpt lat="45.045095997297494" lon="6.847360104460885"><ele>1049.6666666666667</ele><time>2026-04-18T13:59:21Z</time></trkpt><trkpt lat="45.045286129313496" lon="6.84753103498638"><ele>1049.3333333333335</ele><time>2026-04-18T13:59:22Z</time></trkpt><trkpt lat="45.04545357631721" lon="6.847713340197622"><ele>1049.0</ele><time>2026-04-18T13:59:23Z</time></trkpt><trkpt lat="45.0456184153201" lon="6.847908919160125"><ele>1049.0</ele><time>2026-04-18T13:59:24Z</time></trkpt><trkpt lat="45.04575658476067" lon="6.848152910399457"><ele>1049.0</ele><time>2026-04-18T13:59:25Z</time></trkpt><trkpt lat="45.045932516135146" lon="6.848366362387071"><ele>1049.5</ele><time>2026-04-18T13:59:26Z</time></trkpt><trkpt lat="45.046137868233224" lon="6.848613378343362"><ele>1050.0</ele><time>2026-04-18T13:59:27Z</time></trkpt><trkpt lat="45.046388647402445" lon="6.848914553888712"><ele>1049.0</ele><time>2026-04-18T13:59:28Z</time></trkpt><trkpt lat="45.04663730024125" lon="6.849210151030908"><ele>1048.0</ele><time>2026-04-18T13:59:29Z</time></trkpt><trkpt lat="45.04689177810782" lon="6.849514595015739"><ele>1048.0</ele><time>2026-04-18T13:59:30Z</time></trkpt><trkpt lat="45.04715688466842" lon="6.849809650911971"><ele>1048.0</ele><time>2026-04-18T13:59:31Z</time></trkpt><trkpt lat="45.047423513512484" lon="6.850131946709278"><ele>1047.5</ele><time>2026-04-18T13:59:32Z</time></trkpt><trkpt lat="45.04767617933448" lon="6.850457648252839"><ele>1047.0</ele><time>2026-04-18T13:59:33Z</time></trkpt><trkpt lat="45.04793215293275" lon="6.85079876544991"><ele>1047.0</ele><time>2026-04-18T13:59:34Z</time></trkpt><trkpt lat="45.04817039391052" lon="6.8511120320958625"><ele>1047.0</ele><time>2026-04-18T13:59:35Z</time></trkpt><trkpt lat="45.04842213787196" lon="6.851402297901218"><ele>1047.0</ele><time>2026-04-18T13:59:36Z</time></trkpt><trkpt lat="45.048673437332305" lon="6.851697560859626"><ele>1047.0</ele><time>2026-04-18T13:59:37Z</time></trkpt><trkpt lat="45.04891001637931" lon="6.851966014180915"><ele>1045.5</ele><time>2026-04-18T13:59:38Z</time></trkpt><trkpt lat="45.04920089230433" lon="6.852222699892242"><ele>1044.0</ele><time>2026-04-18T13:59:39Z</time></trkpt><trkpt lat="45.04948526702004" lon="6.8524965387358945"><ele>1044.0</ele><time>2026-04-18T13:59:40Z</time></trkpt><trkpt lat="45.049758764725894" lon="6.852769112070065"><ele>1044.0</ele><time>2026-04-18T13:59:41Z</time></trkpt><trkpt lat="45.050030353030614" lon="6.853001199428183"><ele>1044.0</ele><time>2026-04-18T13:59:42Z</time></trkpt><trkpt lat="45.050275792042456" lon="6.853245566541938"><ele>1044.0</ele><time>2026-04-18T13:59:43Z</time></trkpt><trkpt lat="45.05052299331412" lon="6.853459406655164"><ele>1044.5</ele><time>2026-04-18T13:59:44Z</time></trkpt><trkpt lat="45.050772711005294" lon="6.853656069296595"><ele>1045.0</ele><time>2026-04-18T13:59:45Z</time></trkpt><trkpt lat="45.05097929612955" lon="6.853856795350645"><ele>1043.5</ele><time>2026-04-18T13:59:46Z</time></trkpt><trkpt lat="45.051205917796025" lon="6.854027314700339"><ele>1042.0</ele><time>2026-04-18T13:59:47Z</time></trkpt><trkpt lat="45.05140570529721" lon="6.854183139804869"><ele>1042.5</ele><time>2026-04-18T13:59:48Z</time></trkpt><trkpt lat="45.0516284930459" lon="6.854345415153525"><ele>1043.0</ele><time>2026-04-18T13:59:49Z</time></trkpt><trkpt lat="45.05183212850783" lon="6.854482661095786"><ele>1043.0</ele><time>2026-04-18T13:59:50Z</time></trkpt><trkpt lat="45.05202617179766" lon="6.854588301991893"><ele>1043.0</ele><time>2026-04-18T13:59:51Z</time></trkpt><trkpt lat="45.05222350398319" lon="6.854673331029662"><ele>1043.0</ele><time>2026-04-18T13:59:52Z</time></trkpt><trkpt lat="45.0523941682056" lon="6.854804190335523"><ele>1043.6666666666667</ele><time>2026-04-18T13:59:53Z</time></trkpt><trkpt lat="45.05255854057118" lon="6.8549096539980425"><ele>1044.3333333333333</ele><time>2026-04-18T13:59:54Z</time></trkpt><trkpt lat="45.052683025638856" lon="6.855055311673886"><ele>1045.0</ele><time>2026-04-18T13:59:55Z</time></trkpt><trkpt lat="45.05278816753774" lon="6.855200608163715"><ele>1043.5</ele><time>2026-04-18T13:59:56Z</time></trkpt><trkpt lat="45.052974718428224" lon="6.85525400929714"><ele>1042.0</ele><time>2026-04-18T13:59:57Z</time></trkpt><trkpt lat="45.05302763045639" lon="6.855392114065409"><ele>1040.5</ele><time>2026-04-18T13:59:58Z</time></trkpt><trkpt lat="45.05313781632424" lon="6.855510010576716"><ele>1039.0</ele><time>2026-04-18T13:59:59Z</time></trkpt><trkpt lat="45.05321682994557" lon="6.855520200684143"><ele>1040.6000000000001</ele><time>2026-04-18T14:00:00Z</time></trkpt><trkpt lat="45.05329777129182" lon="6.855585834022192"><ele>1042.2</ele><time>2026-04-18T14:00:01Z</time></trkpt><trkpt lat="45.05335843362456" lon="6.8556169493468655"><ele>1043.8000000000002</ele><time>2026-04-18T14:00:02Z</time></trkpt><trkpt lat="45.053441753598" lon="6.85565968628338"><ele>1045.4</ele><time>2026-04-18T14:00:05Z</time></trkpt><trkpt lat="45.05346797499733" lon="6.855816893037229"><ele>1047.0</ele><time>2026-04-18T14:00:06Z</time></trkpt><trkpt lat="45.05355815411209" lon="6.855951131321251"><ele>1045.0</ele><time>2026-04-18T14:00:07Z</time></trkpt><trkpt lat="45.05366566933157" lon="6.856126363036132"><ele>1043.0</ele><time>2026-04-18T14:00:08Z</time></trkpt><trkpt lat="45.05377673283365" lon="6.8563449136185435"><ele>1041.0</ele><time>2026-04-18T14:00:09Z</time></trkpt><trkpt lat="45.05389944278836" lon="6.856594209335328"><ele>1041.6666666666667</ele><time>2026-04-18T14:00:10Z</time></trkpt><trkpt lat="45.05402569584182" lon="6.8568568207336265"><ele>1042.3333333333335</ele><time>2026-04-18T14:00:11Z</time></trkpt><trkpt lat="45.05414820765243" lon="6.857111650186461"><ele>1043.0</ele><time>2026-04-18T14:00:12Z</time></trkpt><trkpt lat="45.05427304804828" lon="6.8573713844328035"><ele>1043.0</ele><time>2026-04-18T14:00:13Z</time></trkpt><trkpt lat="45.05437115698088" lon="6.857576418373624"><ele>1043.0</ele><time>2026-04-18T14:00:14Z</time></trkpt><trkpt lat="45.054457853164195" lon="6.857757601261431"><ele>1043.0</ele><time>2026-04-18T14:00:15Z</time></trkpt><trkpt lat="45.0545567249013" lon="6.85796408698535"><ele>1041.6666666666667</ele><time>2026-04-18T14:00:16Z</time></trkpt><trkpt lat="45.05466054950089" lon="6.858180753538898"><ele>1040.3333333333333</ele><time>2026-04-18T14:00:17Z</time></trkpt><trkpt lat="45.054759618789774" lon="6.858387363074876"><ele>1039.0</ele><time>2026-04-18T14:00:18Z</time></trkpt><trkpt lat="45.054872510663834" lon="6.85862277324778"><ele>1039.6666666666665</ele><time>2026-04-18T14:00:19Z</time></trkpt><trkpt lat="45.05497563372846" lon="6.858840913069729"><ele>1040.3333333333333</ele><time>2026-04-18T14:00:20Z</time></trkpt><trkpt lat="45.05508449878386" lon="6.859044658958096"><ele>1041.0</ele><time>2026-04-18T14:00:21Z</time></trkpt><trkpt lat="45.05519405860486" lon="6.8592656365983125"><ele>1039.3333333333333</ele><time>2026-04-18T14:00:22Z</time></trkpt><trkpt lat="45.05528672922034" lon="6.859500385440075"><ele>1037.6666666666665</ele><time>2026-04-18T14:00:23Z</time></trkpt><trkpt lat="45.055393021575334" lon="6.8597226298127385"><ele>1036.0</ele><time>2026-04-18T14:00:24Z</time></trkpt><trkpt lat="45.05549519948951" lon="6.8599362903766705"><ele>1035.6666666666665</ele><time>2026-04-18T14:00:25Z</time></trkpt><trkpt lat="45.05560448516527" lon="6.8601615220505385"><ele>1035.3333333333333</ele><time>2026-04-18T14:00:26Z</time></trkpt><trkpt lat="45.05571626747099" lon="6.860382618781874"><ele>1035.0</ele><time>2026-04-18T14:00:27Z</time></trkpt><trkpt lat="45.055839864130505" lon="6.860610157148985"><ele>1035.0</ele><time>2026-04-18T14:00:28Z</time></trkpt><trkpt lat="45.05595776840541" lon="6.860830544963065"><ele>1035.0</ele><time>2026-04-18T14:00:29Z</time></trkpt><trkpt lat="45.05611133740959" lon="6.861038901106171"><ele>1035.0</ele><time>2026-04-18T14:00:30Z</time></trkpt><trkpt lat="45.05623180962329" lon="6.861268460037723"><ele>1034.0</ele><time>2026-04-18T14:00:31Z</time></trkpt><trkpt lat="45.05636871116664" lon="6.861452925277845"><ele>1033.0</ele><time>2026-04-18T14:00:32Z</time></trkpt><trkpt lat="45.05647719178729" lon="6.861637897759472"><ele>1032.0</ele><time>2026-04-18T14:00:33Z</time></trkpt><trkpt lat="45.056600219848" lon="6.861804809810688"><ele>1031.6666666666667</ele><time>2026-04-18T14:00:34Z</time></trkpt><trkpt lat="45.05672608873023" lon="6.861974145905966"><ele>1031.3333333333335</ele><time>2026-04-18T14:00:35Z</time></trkpt><trkpt lat="45.0568503366062" lon="6.86214870321286"><ele>1031.0</ele><time>2026-04-18T14:00:36Z</time></trkpt><trkpt lat="45.0569575756061" lon="6.862335696444324"><ele>1031.0</ele><time>2026-04-18T14:00:37Z</time></trkpt><trkpt lat="45.0571060358256" lon="6.862483976056213"><ele>1031.0</ele><time>2026-04-18T14:00:38Z</time></trkpt><trkpt lat="45.05722248376268" lon="6.862674673942204"><ele>1031.0</ele><time>2026-04-18T14:00:39Z</time></trkpt><trkpt lat="45.0573331770326" lon="6.862834836022001"><ele>1030.3333333333335</ele><time>2026-04-18T14:00:40Z</time></trkpt><trkpt lat="45.05745870730764" lon="6.863009032778209"><ele>1029.6666666666667</ele><time>2026-04-18T14:00:41Z</time></trkpt><trkpt lat="45.05756159855176" lon="6.863184643185164"><ele>1029.0</ele><time>2026-04-18T14:00:42Z</time></trkpt><trkpt lat="45.05767856062218" lon="6.863369757011086"><ele>1030.0</ele><time>2026-04-18T14:00:43Z</time></trkpt><trkpt lat="45.057782229212464" lon="6.863555197821588"><ele>1031.0</ele><time>2026-04-18T14:00:44Z</time></trkpt><trkpt lat="45.0578735535092" lon="6.863758142153878"><ele>1032.0</ele><time>2026-04-18T14:00:45Z</time></trkpt><trkpt lat="45.05796172516061" lon="6.863976557943823"><ele>1032.0</ele><time>2026-04-18T14:00:46Z</time></trkpt><trkpt lat="45.05808601512785" lon="6.864223644542338"><ele>1032.0</ele><time>2026-04-18T14:00:47Z</time></trkpt><trkpt lat="45.05821439777079" lon="6.864412144334315"><ele>1032.0</ele><time>2026-04-18T14:00:48Z</time></trkpt><trkpt lat="45.05831165846026" lon="6.8646403240995175"><ele>1031.6666666666667</ele><time>2026-04-18T14:00:49Z</time></trkpt><trkpt lat="45.05845705131229" lon="6.864827333408531"><ele>1031.3333333333335</ele><time>2026-04-18T14:00:50Z</time></trkpt><trkpt lat="45.05858020630621" lon="6.865027832076784"><ele>1031.0</ele><time>2026-04-18T14:00:51Z</time></trkpt><trkpt lat="45.05869156646022" lon="6.865222901557604"><ele>1031.0</ele><time>2026-04-18T14:00:52Z</time></trkpt><trkpt lat="45.058819446449455" lon="6.865441232483606"><ele>1031.0</ele><time>2026-04-18T14:00:53Z</time></trkpt><trkpt lat="45.058941988839834" lon="6.865632014693351"><ele>1031.0</ele><time>2026-04-18T14:00:54Z</time></trkpt><trkpt lat="45.05906802152399" lon="6.86583300368037"><ele>1029.6666666666667</ele><time>2026-04-18T14:00:55Z</time></trkpt><trkpt lat="45.05921989572394" lon="6.866008843499934"><ele>1028.3333333333333</ele><time>2026-04-18T14:00:56Z</time></trkpt><trkpt lat="45.059351815109586" lon="6.8661756577138995"><ele>1027.0</ele><time>2026-04-18T14:00:57Z</time></trkpt><trkpt lat="45.0595042057433" lon="6.866346366845522"><ele>1027.0</ele><time>2026-04-18T14:00:58Z</time></trkpt><trkpt lat="45.059647626143835" lon="6.866501795721334"><ele>1027.0</ele><time>2026-04-18T14:00:59Z</time></trkpt><trkpt lat="45.059816684636225" lon="6.866672365266755"><ele>1027.0</ele><time>2026-04-18T14:01:00Z</time></trkpt><trkpt lat="45.059959434024634" lon="6.866838895996005"><ele>1027.0</ele><time>2026-04-18T14:01:01Z</time></trkpt><trkpt lat="45.06011397820179" lon="6.867013193082869"><ele>1027.0</ele><time>2026-04-18T14:01:02Z</time></trkpt><trkpt lat="45.06030797586328" lon="6.867190855440887"><ele>1027.0</ele><time>2026-04-18T14:01:03Z</time></trkpt><trkpt lat="45.06057146115211" lon="6.8673415605531565"><ele>1026.5</ele><time>2026-04-18T14:01:04Z</time></trkpt><trkpt lat="45.06082711374862" lon="6.86751224829716"><ele>1026.0</ele><time>2026-04-18T14:01:05Z</time></trkpt><trkpt lat="45.06110098114819" lon="6.867770638991473"><ele>1026.0</ele><time>2026-04-18T14:01:06Z</time></trkpt><trkpt lat="45.06142049737332" lon="6.8680554028027005"><ele>1026.0</ele><time>2026-04-18T14:01:07Z</time></trkpt><trkpt lat="45.061666745171046" lon="6.868317681820535"><ele>1025.5</ele><time>2026-04-18T14:01:08Z</time></trkpt><trkpt lat="45.06190763131604" lon="6.86853369640428"><ele>1025.0</ele><time>2026-04-18T14:01:09Z</time></trkpt><trkpt lat="45.06214449717996" lon="6.868754281617285"><ele>1025.0</ele><time>2026-04-18T14:01:10Z</time></trkpt><trkpt lat="45.062364236023875" lon="6.868980018740393"><ele>1025.0</ele><time>2026-04-18T14:01:11Z</time></trkpt><trkpt lat="45.062582145585964" lon="6.869204230739097"><ele>1025.0</ele><time>2026-04-18T14:01:12Z</time></trkpt><trkpt lat="45.06278071866655" lon="6.869416572776633"><ele>1025.0</ele><time>2026-04-18T14:01:13Z</time></trkpt><trkpt lat="45.06294655870283" lon="6.869595863995218"><ele>1025.0</ele><time>2026-04-18T14:01:14Z</time></trkpt><trkpt lat="45.06311599093289" lon="6.869774619066596"><ele>1025.0</ele><time>2026-04-18T14:01:15Z</time></trkpt><trkpt lat="45.06325692721977" lon="6.869941917259711"><ele>1025.0</ele><time>2026-04-18T14:01:16Z</time></trkpt><trkpt lat="45.063386114739465" lon="6.870131431992554"><ele>1025.0</ele><time>2026-04-18T14:01:17Z</time></trkpt><trkpt lat="45.06348268417535" lon="6.870295129264175"><ele>1025.0</ele><time>2026-04-18T14:01:18Z</time></trkpt><trkpt lat="45.063591813876755" lon="6.870518236027237"><ele>1025.0</ele><time>2026-04-18T14:01:19Z</time></trkpt><trkpt lat="45.0636685925417" lon="6.870751081411573"><ele>1025.0</ele><time>2026-04-18T14:01:20Z</time></trkpt><trkpt lat="45.06376103632596" lon="6.871008082897027"><ele>1025.0</ele><time>2026-04-18T14:01:21Z</time></trkpt><trkpt lat="45.06384646849863" lon="6.871269686428676"><ele>1025.0</ele><time>2026-04-18T14:01:22Z</time></trkpt><trkpt lat="45.06394541657999" lon="6.8715679798004805"><ele>1025.0</ele><time>2026-04-18T14:01:23Z</time></trkpt><trkpt lat="45.06406528834144" lon="6.871849537094837"><ele>1025.0</ele><time>2026-04-18T14:01:24Z</time></trkpt><trkpt lat="45.0641648956226" lon="6.872129937911784"><ele>1025.0</ele><time>2026-04-18T14:01:25Z</time></trkpt><trkpt lat="45.06428637234701" lon="6.872417073072808"><ele>1025.0</ele><time>2026-04-18T14:01:26Z</time></trkpt><trkpt lat="45.06440083463936" lon="6.872689173795182"><ele>1025.5</ele><time>2026-04-18T14:01:27Z</time></trkpt><trkpt lat="45.06454701847037" lon="6.872966885585541"><ele>1026.0</ele><time>2026-04-18T14:01:28Z</time></trkpt><trkpt lat="45.064698019846276" lon="6.873228440010907"><ele>1026.0</ele><time>2026-04-18T14:01:29Z</time></trkpt><trkpt lat="45.06484190706228" lon="6.873468784213678"><ele>1026.0</ele><time>2026-04-18T14:01:30Z</time></trkpt><trkpt lat="45.06498875457819" lon="6.873715802475247"><ele>1026.0</ele><time>2026-04-18T14:01:31Z</time></trkpt><trkpt lat="45.065155938315705" lon="6.873947263211474"><ele>1026.0</ele><time>2026-04-18T14:01:32Z</time></trkpt><trkpt lat="45.065317218660766" lon="6.874202139678546"><ele>1026.0</ele><time>2026-04-18T14:01:33Z</time></trkpt><trkpt lat="45.0654847587946" lon="6.874441587480014"><ele>1026.0</ele><time>2026-04-18T14:01:34Z</time></trkpt><trkpt lat="45.065660460932975" lon="6.874692288627703"><ele>1026.5</ele><time>2026-04-18T14:01:35Z</time></trkpt><trkpt lat="45.065871565915124" lon="6.874949125713704"><ele>1027.0</ele><time>2026-04-18T14:01:36Z</time></trkpt><trkpt lat="45.0660903096382" lon="6.875220606927959"><ele>1027.5</ele><time>2026-04-18T14:01:37Z</time></trkpt><trkpt lat="45.06634552059347" lon="6.875497148610687"><ele>1028.0</ele><time>2026-04-18T14:01:38Z</time></trkpt><trkpt lat="45.06656192925696" lon="6.8758278205863474"><ele>1028.0</ele><time>2026-04-18T14:01:39Z</time></trkpt><trkpt lat="45.066806052003265" lon="6.8761232357364985"><ele>1028.0</ele><time>2026-04-18T14:01:40Z</time></trkpt><trkpt lat="45.06703770067227" lon="6.876384983660207"><ele>1028.0</ele><time>2026-04-18T14:01:41Z</time></trkpt><trkpt lat="45.06726731204186" lon="6.876636724230415"><ele>1028.0</ele><time>2026-04-18T14:01:42Z</time></trkpt><trkpt lat="45.06747908244649" lon="6.876875497911173"><ele>1027.0</ele><time>2026-04-18T14:01:43Z</time></trkpt><trkpt lat="45.0676837984432" lon="6.877131633577501"><ele>1026.0</ele><time>2026-04-18T14:01:44Z</time></trkpt><trkpt lat="45.06788129569634" lon="6.8773238426773275"><ele>1026.0</ele><time>2026-04-18T14:01:45Z</time></trkpt><trkpt lat="45.068064856141916" lon="6.877531885065633"><ele>1026.0</ele><time>2026-04-18T14:01:46Z</time></trkpt><trkpt lat="45.06823760348673" lon="6.877732390169162"><ele>1028.0</ele><time>2026-04-18T14:01:47Z</time></trkpt><trkpt lat="45.0683886110364" lon="6.87793019802505"><ele>1030.0</ele><time>2026-04-18T14:01:48Z</time></trkpt><trkpt lat="45.068549363123154" lon="6.87811972032976"><ele>1032.0</ele><time>2026-04-18T14:01:49Z</time></trkpt><trkpt lat="45.06869499689384" lon="6.878310232367964"><ele>1031.6666666666667</ele><time>2026-04-18T14:01:50Z</time></trkpt><trkpt lat="45.06885165330543" lon="6.878465791622011"><ele>1031.3333333333335</ele><time>2026-04-18T14:01:51Z</time></trkpt><trkpt lat="45.068954632325266" lon="6.87867297293963"><ele>1031.0</ele><time>2026-04-18T14:01:52Z</time></trkpt><trkpt lat="45.069043674988755" lon="6.878877297524725"><ele>1033.0</ele><time>2026-04-18T14:01:53Z</time></trkpt><trkpt lat="45.06911858624527" lon="6.87909212863361"><ele>1035.0</ele><time>2026-04-18T14:01:54Z</time></trkpt><trkpt lat="45.069231162807014" lon="6.879331265303396"><ele>1037.0</ele><time>2026-04-18T14:01:55Z</time></trkpt><trkpt lat="45.069309661275334" lon="6.879587274918039"><ele>1037.0</ele><time>2026-04-18T14:01:56Z</time></trkpt><trkpt lat="45.06938943682806" lon="6.879883860840793"><ele>1037.0</ele><time>2026-04-18T14:01:57Z</time></trkpt><trkpt lat="45.06945824291877" lon="6.880246241438379"><ele>1036.3333333333335</ele><time>2026-04-18T14:01:58Z</time></trkpt><trkpt lat="45.069518544634604" lon="6.880554586947076"><ele>1035.6666666666667</ele><time>2026-04-18T14:01:59Z</time></trkpt><trkpt lat="45.06957971042679" lon="6.880839536001041"><ele>1035.0</ele><time>2026-04-18T14:02:00Z</time></trkpt><trkpt lat="45.06963665228091" lon="6.881108197698665"><ele>1032.6666666666667</ele><time>2026-04-18T14:02:01Z</time></trkpt><trkpt lat="45.069659828964355" lon="6.881387582187058"><ele>1030.3333333333335</ele><time>2026-04-18T14:02:02Z</time></trkpt><trkpt lat="45.06972921513937" lon="6.881648625458507"><ele>1028.0</ele><time>2026-04-18T14:02:03Z</time></trkpt><trkpt lat="45.0698228981025" lon="6.881914839222353"><ele>1026.6666666666667</ele><time>2026-04-18T14:02:04Z</time></trkpt><trkpt lat="45.06988706135255" lon="6.882170182916324"><ele>1025.3333333333333</ele><time>2026-04-18T14:02:05Z</time></trkpt><trkpt lat="45.069981190327425" lon="6.8824474905705735"><ele>1024.0</ele><time>2026-04-18T14:02:06Z</time></trkpt><trkpt lat="45.07008951624062" lon="6.882691000799718"><ele>1024.0</ele><time>2026-04-18T14:02:07Z</time></trkpt><trkpt lat="45.070198827180576" lon="6.88288878560337"><ele>1024.0</ele><time>2026-04-18T14:02:08Z</time></trkpt><trkpt lat="45.07027735118596" lon="6.883034554043858"><ele>1024.0</ele><time>2026-04-18T14:02:09Z</time></trkpt><trkpt lat="45.07034805157544" lon="6.8831946639579975"><ele>1024.0</ele><time>2026-04-18T14:02:10Z</time></trkpt><trkpt lat="45.07040349121834" lon="6.883360080930128"><ele>1022.2</ele><time>2026-04-18T14:02:11Z</time></trkpt><trkpt lat="45.070487180295586" lon="6.8834779054926285"><ele>1020.4000000000001</ele><time>2026-04-18T14:02:12Z</time></trkpt><trkpt lat="45.0705548141212" lon="6.883590919970908"><ele>1018.6</ele><time>2026-04-18T14:02:13Z</time></trkpt><trkpt lat="45.070622238302285" lon="6.883731078591019"><ele>1016.8</ele><time>2026-04-18T14:02:14Z</time></trkpt><trkpt lat="45.07068536260224" lon="6.883851544659633"><ele>1015.0</ele><time>2026-04-18T14:02:15Z</time></trkpt><trkpt lat="45.07076837281034" lon="6.883970543947135"><ele>1014.75</ele><time>2026-04-18T14:02:16Z</time></trkpt><trkpt lat="45.07085866967569" lon="6.8840945488200305"><ele>1014.5</ele><time>2026-04-18T14:02:17Z</time></trkpt><trkpt lat="45.07093612256024" lon="6.884206007084255"><ele>1014.25</ele><time>2026-04-18T14:02:18Z</time></trkpt><trkpt lat="45.07107471398787" lon="6.884219842464255"><ele>1014.0</ele><time>2026-04-18T14:02:19Z</time></trkpt><trkpt lat="45.07117577343457" lon="6.884287241363685"><ele>1014.0</ele><time>2026-04-18T14:02:20Z</time></trkpt><trkpt lat="45.07127416291697" lon="6.884340902100714"><ele>1014.0000000000001</ele><time>2026-04-18T14:02:21Z</time></trkpt><trkpt lat="45.071394607386765" lon="6.884389952851845"><ele>1014.0000000000001</ele><time>2026-04-18T14:02:22Z</time></trkpt><trkpt lat="45.07149931347214" lon="6.884388154627061"><ele>1014.0</ele><time>2026-04-18T14:02:23Z</time></trkpt><trkpt lat="45.07159206214662" lon="6.884432272229405"><ele>1014.0</ele><time>2026-04-18T14:02:24Z</time></trkpt><trkpt lat="45.071677686084335" lon="6.884450603906343"><ele>1014.2</ele><time>2026-04-18T14:02:25Z</time></trkpt><trkpt lat="45.07180923804305" lon="6.8844998599995835"><ele>1014.4000000000001</ele><time>2026-04-18T14:02:27Z</time></trkpt><trkpt lat="45.07190445447283" lon="6.884547118552609"><ele>1014.6</ele><time>2026-04-18T14:02:28Z</time></trkpt><trkpt lat="45.072019188695194" lon="6.884628718563233"><ele>1014.8</ele><time>2026-04-18T14:02:30Z</time></trkpt><trkpt lat="45.072088899308845" lon="6.884637863738203"><ele>1015.0</ele><time>2026-04-18T14:02:32Z</time></trkpt><trkpt lat="45.07215170203635" lon="6.884687962063534"><ele>1014.9999999999999</ele><time>2026-04-18T14:02:36Z</time></trkpt><trkpt lat="45.0722168040027" lon="6.884669668127571"><ele>1015.0</ele><time>2026-04-18T14:02:46Z</time></trkpt><trkpt lat="45.072307475798304" lon="6.884706221493787"><ele>1015.0</ele><time>2026-04-18T14:02:48Z</time></trkpt><trkpt lat="45.07237157362708" lon="6.884732061848877"><ele>1015.0</ele><time>2026-04-18T14:02:49Z</time></trkpt><trkpt lat="45.07245718736724" lon="6.884766576281972"><ele>1014.9999999999999</ele><time>2026-04-18T14:02:50Z</time></trkpt><trkpt lat="45.072562078454744" lon="6.884808861044746"><ele>1015.0</ele><time>2026-04-18T14:02:51Z</time></trkpt><trkpt lat="45.072695503544935" lon="6.884860507781831"><ele>1014.6666666666666</ele><time>2026-04-18T14:02:52Z</time></trkpt><trkpt lat="45.072904333979125" lon="6.884942724398463"><ele>1014.3333333333333</ele><time>2026-04-18T14:02:53Z</time></trkpt><trkpt lat="45.07308831858476" lon="6.88499603335804"><ele>1014.0</ele><time>2026-04-18T14:02:54Z</time></trkpt><trkpt lat="45.07332711445126" lon="6.885110489317952"><ele>1014.0</ele><time>2026-04-18T14:02:55Z</time></trkpt><trkpt lat="45.07351188737495" lon="6.885166855512409"><ele>1014.0</ele><time>2026-04-18T14:02:56Z</time></trkpt><trkpt lat="45.07367701186396" lon="6.885264585729579"><ele>1014.0</ele><time>2026-04-18T14:02:57Z</time></trkpt><trkpt lat="45.073775431061705" lon="6.885331503859019"><ele>1014.0</ele><time>2026-04-18T14:02:58Z</time></trkpt><trkpt lat="45.0739308592118" lon="6.885450791665078"><ele>1014.0</ele><time>2026-04-18T14:02:59Z</time></trkpt><trkpt lat="45.07408224139647" lon="6.885591206653712"><ele>1014.0</ele><time>2026-04-18T14:03:00Z</time></trkpt><trkpt lat="45.0742335192764" lon="6.885765394007971"><ele>1011.0</ele><time>2026-04-18T14:03:01Z</time></trkpt><trkpt lat="45.07437741595582" lon="6.8859756982068685"><ele>1008.0</ele><time>2026-04-18T14:03:02Z</time></trkpt><trkpt lat="45.07455929775123" lon="6.8862565957725534"><ele>1008.0</ele><time>2026-04-18T14:03:03Z</time></trkpt><trkpt lat="45.07469776908198" lon="6.886476863810513"><ele>1008.0</ele><time>2026-04-18T14:03:04Z</time></trkpt><trkpt lat="45.074803430386275" lon="6.886699538661179"><ele>1008.0</ele><time>2026-04-18T14:03:05Z</time></trkpt><trkpt lat="45.074922527393895" lon="6.886956982584076"><ele>1010.0</ele><time>2026-04-18T14:03:06Z</time></trkpt><trkpt lat="45.07504587974806" lon="6.887136411990068"><ele>1012.0</ele><time>2026-04-18T14:03:07Z</time></trkpt><trkpt lat="45.07521484606995" lon="6.887310770547692"><ele>1014.0</ele><time>2026-04-18T14:03:08Z</time></trkpt><trkpt lat="45.0753676240782" lon="6.887498085418393"><ele>1015.6666666666667</ele><time>2026-04-18T14:03:09Z</time></trkpt><trkpt lat="45.075515421701404" lon="6.887704526249142"><ele>1017.3333333333334</ele><time>2026-04-18T14:03:10Z</time></trkpt><trkpt lat="45.0756604838003" lon="6.887938301939597"><ele>1019.0</ele><time>2026-04-18T14:03:11Z</time></trkpt><trkpt lat="45.07578212586008" lon="6.888197274720541"><ele>1016.0</ele><time>2026-04-18T14:03:12Z</time></trkpt><trkpt lat="45.07587908556566" lon="6.888459503314757"><ele>1013.0</ele><time>2026-04-18T14:03:13Z</time></trkpt><trkpt lat="45.076008149751054" lon="6.888705938637222"><ele>1010.0</ele><time>2026-04-18T14:03:14Z</time></trkpt><trkpt lat="45.0761684020334" lon="6.888913758302979"><ele>1010.0</ele><time>2026-04-18T14:03:15Z</time></trkpt><trkpt lat="45.07634286997839" lon="6.88915011253976"><ele>1010.0</ele><time>2026-04-18T14:03:16Z</time></trkpt><trkpt lat="45.07652471422147" lon="6.889470376624037"><ele>1014.5</ele><time>2026-04-18T14:03:17Z</time></trkpt><trkpt lat="45.07669393628685" lon="6.8897435746862605"><ele>1019.0</ele><time>2026-04-18T14:03:18Z</time></trkpt><trkpt lat="45.076837805369706" lon="6.889979940209191"><ele>1014.3333333333334</ele><time>2026-04-18T14:03:19Z</time></trkpt><trkpt lat="45.076955213333115" lon="6.890234493406163"><ele>1009.6666666666667</ele><time>2026-04-18T14:03:20Z</time></trkpt><trkpt lat="45.07702929342744" lon="6.890476561815027"><ele>1005.0</ele><time>2026-04-18T14:03:21Z</time></trkpt><trkpt lat="45.07715045442118" lon="6.890780892805306"><ele>1003.0</ele><time>2026-04-18T14:03:22Z</time></trkpt><trkpt lat="45.07730490302652" lon="6.891063946466452"><ele>1001.0</ele><time>2026-04-18T14:03:23Z</time></trkpt><trkpt lat="45.07748096543979" lon="6.891345370070822"><ele>1004.5</ele><time>2026-04-18T14:03:24Z</time></trkpt><trkpt lat="45.07767461386023" lon="6.891633426326082"><ele>1008.0</ele><time>2026-04-18T14:03:25Z</time></trkpt><trkpt lat="45.07782493363531" lon="6.891926526996316"><ele>1008.0</ele><time>2026-04-18T14:03:26Z</time></trkpt><trkpt lat="45.07795458654498" lon="6.892225095071312"><ele>1008.0</ele><time>2026-04-18T14:03:27Z</time></trkpt><trkpt lat="45.078099138678645" lon="6.892557521600146"><ele>1007.0</ele><time>2026-04-18T14:03:28Z</time></trkpt><trkpt lat="45.078265240994284" lon="6.892847360740486"><ele>1006.0</ele><time>2026-04-18T14:03:29Z</time></trkpt><trkpt lat="45.07843922976382" lon="6.893193080993604"><ele>1010.0</ele><time>2026-04-18T14:03:30Z</time></trkpt><trkpt lat="45.078594147101185" lon="6.8935279759416535"><ele>1014.0</ele><time>2026-04-18T14:03:31Z</time></trkpt><trkpt lat="45.07873410963099" lon="6.893831879586585"><ele>1014.0</ele><time>2026-04-18T14:03:32Z</time></trkpt><trkpt lat="45.078869812006694" lon="6.894130866611605"><ele>1014.0</ele><time>2026-04-18T14:03:33Z</time></trkpt><trkpt lat="45.07900179034994" lon="6.89441630205038"><ele>1019.6666666666667</ele><time>2026-04-18T14:03:34Z</time></trkpt><trkpt lat="45.07912059418508" lon="6.894672812469859"><ele>1025.3333333333335</ele><time>2026-04-18T14:03:35Z</time></trkpt><trkpt lat="45.07922976221137" lon="6.894924815230884"><ele>1031.0</ele><time>2026-04-18T14:03:36Z</time></trkpt><trkpt lat="45.079298542839695" lon="6.895163185114393"><ele>1031.0</ele><time>2026-04-18T14:03:37Z</time></trkpt><trkpt lat="45.079320269985246" lon="6.895401841443904"><ele>1031.0</ele><time>2026-04-18T14:03:38Z</time></trkpt><trkpt lat="45.07931350956934" lon="6.895629719477349"><ele>1031.0</ele><time>2026-04-18T14:03:39Z</time></trkpt><trkpt lat="45.079264035162" lon="6.895880253460002"><ele>1029.0</ele><time>2026-04-18T14:03:40Z</time></trkpt><trkpt lat="45.07921347782875" lon="6.896171602092101"><ele>1027.0</ele><time>2026-04-18T14:03:41Z</time></trkpt><trkpt lat="45.07919115501848" lon="6.89648128142473"><ele>1025.0</ele><time>2026-04-18T14:03:42Z</time></trkpt><trkpt lat="45.07918906839913" lon="6.896782613750597"><ele>1025.0</ele><time>2026-04-18T14:03:43Z</time></trkpt><trkpt lat="45.07919591623464" lon="6.89709886438223"><ele>1025.0</ele><time>2026-04-18T14:03:44Z</time></trkpt><trkpt lat="45.079218639925145" lon="6.89738258176257"><ele>1025.0</ele><time>2026-04-18T14:03:45Z</time></trkpt><trkpt lat="45.07925156274021" lon="6.897693636630491"><ele>1024.6666666666667</ele><time>2026-04-18T14:03:46Z</time></trkpt><trkpt lat="45.07932435210852" lon="6.897945449445638"><ele>1024.3333333333333</ele><time>2026-04-18T14:03:47Z</time></trkpt><trkpt lat="45.07939770132157" lon="6.898142501224131"><ele>1024.0</ele><time>2026-04-18T14:03:48Z</time></trkpt><trkpt lat="45.079479178156106" lon="6.898308067612878"><ele>1025.3333333333333</ele><time>2026-04-18T14:03:49Z</time></trkpt><trkpt lat="45.07945569037549" lon="6.898511712522423"><ele>1026.6666666666667</ele><time>2026-04-18T14:03:50Z</time></trkpt><trkpt lat="45.07938779907901" lon="6.8987161326371735"><ele>1028.0</ele><time>2026-04-18T14:03:51Z</time></trkpt><trkpt lat="45.079297875353454" lon="6.89894467185681"><ele>1036.0</ele><time>2026-04-18T14:03:52Z</time></trkpt><trkpt lat="45.079163774859616" lon="6.899258386932419"><ele>1044.0</ele><time>2026-04-18T14:03:53Z</time></trkpt><trkpt lat="45.0790280658945" lon="6.8995483549601575"><ele>1034.3333333333333</ele><time>2026-04-18T14:03:54Z</time></trkpt><trkpt lat="45.07890227569956" lon="6.899798063604961"><ele>1024.6666666666665</ele><time>2026-04-18T14:03:55Z</time></trkpt><trkpt lat="45.07877774148598" lon="6.9000695167994195"><ele>1015.0</ele><time>2026-04-18T14:03:56Z</time></trkpt><trkpt lat="45.07868193500764" lon="6.900352878910433"><ele>1015.0</ele><time>2026-04-18T14:03:57Z</time></trkpt><trkpt lat="45.07865012814555" lon="6.90061518688938"><ele>1015.0</ele><time>2026-04-18T14:03:58Z</time></trkpt><trkpt lat="45.07859515472964" lon="6.9008344397881585"><ele>1015.0</ele><time>2026-04-18T14:03:59Z</time></trkpt><trkpt lat="45.078570718489495" lon="6.901088865376852"><ele>1014.0</ele><time>2026-04-18T14:04:00Z</time></trkpt><trkpt lat="45.078592199708304" lon="6.901331820476789"><ele>1013.0</ele><time>2026-04-18T14:04:01Z</time></trkpt><trkpt lat="45.07861986928037" lon="6.901651958687674"><ele>1012.0</ele><time>2026-04-18T14:04:02Z</time></trkpt><trkpt lat="45.078660037375656" lon="6.901997247064239"><ele>1011.5</ele><time>2026-04-18T14:04:03Z</time></trkpt><trkpt lat="45.07870908419907" lon="6.902182301899347"><ele>1011.0</ele><time>2026-04-18T14:04:04Z</time></trkpt><trkpt lat="45.07877082312579" lon="6.90231806966507"><ele>1010.5</ele><time>2026-04-18T14:04:05Z</time></trkpt><trkpt lat="45.07887837283345" lon="6.902463033279365"><ele>1010.0</ele><time>2026-04-18T14:04:06Z</time></trkpt><trkpt lat="45.078991242153755" lon="6.902586218658459"><ele>1018.5</ele><time>2026-04-18T14:04:07Z</time></trkpt><trkpt lat="45.07912596911812" lon="6.9027067393969155"><ele>1027.0</ele><time>2026-04-18T14:04:08Z</time></trkpt><trkpt lat="45.079392510168624" lon="6.903023572358703"><ele>1027.0</ele><time>2026-04-18T14:04:09Z</time></trkpt><trkpt lat="45.07956816595077" lon="6.903252176320286"><ele>1027.0</ele><time>2026-04-18T14:04:10Z</time></trkpt><trkpt lat="45.07970361897518" lon="6.903461979064826"><ele>1027.0</ele><time>2026-04-18T14:04:11Z</time></trkpt><trkpt lat="45.07981809670655" lon="6.903677035030589"><ele>1028.25</ele><time>2026-04-18T14:04:12Z</time></trkpt><trkpt lat="45.079918610642416" lon="6.903838382849767"><ele>1029.5</ele><time>2026-04-18T14:04:13Z</time></trkpt><trkpt lat="45.08003474064143" lon="6.903968941813189"><ele>1030.75</ele><time>2026-04-18T14:04:14Z</time></trkpt><trkpt lat="45.080143759509916" lon="6.903978393391678"><ele>1032.0</ele><time>2026-04-18T14:04:15Z</time></trkpt><trkpt lat="45.08022105054379" lon="6.903948150700597"><ele>1032.0</ele><time>2026-04-18T14:04:16Z</time></trkpt><trkpt lat="45.080354669629386" lon="6.903887241288718"><ele>1032.0</ele><time>2026-04-18T14:04:17Z</time></trkpt><trkpt lat="45.08037590025166" lon="6.9037162229263505"><ele>1032.0</ele><time>2026-04-18T14:04:18Z</time></trkpt><trkpt lat="45.080360324947755" lon="6.9035520296851045"><ele>1032.0</ele><time>2026-04-18T14:04:20Z</time></trkpt><trkpt lat="45.08022594760939" lon="6.903289246131661"><ele>1029.5</ele><time>2026-04-18T14:04:21Z</time></trkpt><trkpt lat="45.08002627824324" lon="6.903032907067383"><ele>1027.0</ele><time>2026-04-18T14:04:22Z</time></trkpt><trkpt lat="45.079892545693355" lon="6.902750215547235"><ele>1030.5</ele><time>2026-04-18T14:04:23Z</time></trkpt><trkpt lat="45.079760399489494" lon="6.9024800386253515"><ele>1034.0</ele><time>2026-04-18T14:04:24Z</time></trkpt><trkpt lat="45.0795484251912" lon="6.902240557165323"><ele>1034.0</ele><time>2026-04-18T14:04:25Z</time></trkpt><trkpt lat="45.079447707630486" lon="6.902041847036203"><ele>1034.0</ele><time>2026-04-18T14:04:26Z</time></trkpt><trkpt lat="45.07933804856529" lon="6.901841990277715"><ele>1034.0</ele><time>2026-04-18T14:04:27Z</time></trkpt><trkpt lat="45.079243008989735" lon="6.901685160816522"><ele>1036.75</ele><time>2026-04-18T14:04:28Z</time></trkpt><trkpt lat="45.079200042874874" lon="6.901524946931543"><ele>1039.5</ele><time>2026-04-18T14:04:29Z</time></trkpt><trkpt lat="45.0791924605577" lon="6.90134147978199"><ele>1042.25</ele><time>2026-04-18T14:04:30Z</time></trkpt><trkpt lat="45.07921367031442" lon="6.9011739677224995"><ele>1045.0</ele><time>2026-04-18T14:04:31Z</time></trkpt><trkpt lat="45.07924559576254" lon="6.901036083519999"><ele>1045.0</ele><time>2026-04-18T14:04:32Z</time></trkpt><trkpt lat="45.07929881298262" lon="6.90094743956876"><ele>1045.0</ele><time>2026-04-18T14:04:33Z</time></trkpt><trkpt lat="45.07937537620683" lon="6.9010551127454995"><ele>1045.0</ele><time>2026-04-18T14:04:34Z</time></trkpt><trkpt lat="45.07943936309153" lon="6.901131735306271"><ele>1045.0</ele><time>2026-04-18T14:04:35Z</time></trkpt><trkpt lat="45.07951770079854" lon="6.901269034593964"><ele>1045.0</ele><time>2026-04-18T14:04:36Z</time></trkpt><trkpt lat="45.07954558767414" lon="6.901448971784086"><ele>1045.0</ele><time>2026-04-18T14:04:37Z</time></trkpt><trkpt lat="45.07958228336057" lon="6.901639242407162"><ele>1045.0</ele><time>2026-04-18T14:04:38Z</time></trkpt><trkpt lat="45.07965388637435" lon="6.901844591088255"><ele>1045.0</ele><time>2026-04-18T14:04:39Z</time></trkpt><trkpt lat="45.079773548795245" lon="6.902029177554734"><ele>1041.3333333333333</ele><time>2026-04-18T14:04:40Z</time></trkpt><trkpt lat="45.07988367938997" lon="6.902229528551517"><ele>1037.6666666666667</ele><time>2026-04-18T14:04:41Z</time></trkpt><trkpt lat="45.08001918334587" lon="6.90240977347217"><ele>1034.0</ele><time>2026-04-18T14:04:42Z</time></trkpt><trkpt lat="45.08019789637032" lon="6.902556474713815"><ele>1038.0</ele><time>2026-04-18T14:04:43Z</time></trkpt><trkpt lat="45.080542370676056" lon="6.902757948789095"><ele>1042.0</ele><time>2026-04-18T14:04:44Z</time></trkpt><trkpt lat="45.080729348157156" lon="6.902916556560166"><ele>1044.3333333333333</ele><time>2026-04-18T14:04:45Z</time></trkpt><trkpt lat="45.08089696838288" lon="6.903084157258343"><ele>1046.6666666666667</ele><time>2026-04-18T14:04:46Z</time></trkpt><trkpt lat="45.08103043876779" lon="6.903270839523799"><ele>1049.0</ele><time>2026-04-18T14:04:47Z</time></trkpt><trkpt lat="45.081157255849945" lon="6.903480612653643"><ele>1049.0</ele><time>2026-04-18T14:04:48Z</time></trkpt><trkpt lat="45.08129391174457" lon="6.903693788852212"><ele>1049.0</ele><time>2026-04-18T14:04:49Z</time></trkpt><trkpt lat="45.08145617887052" lon="6.903851344913589"><ele>1049.0</ele><time>2026-04-18T14:04:50Z</time></trkpt><trkpt lat="45.08158499726976" lon="6.903909678441765"><ele>1053.5</ele><time>2026-04-18T14:04:51Z</time></trkpt><trkpt lat="45.08170916448185" lon="6.903955088853713"><ele>1058.0</ele><time>2026-04-18T14:04:52Z</time></trkpt><trkpt lat="45.081797479658235" lon="6.90390984553246"><ele>1062.5</ele><time>2026-04-18T14:04:53Z</time></trkpt><trkpt lat="45.08195947199787" lon="6.903893776633946"><ele>1067.0</ele><time>2026-04-18T14:04:54Z</time></trkpt><trkpt lat="45.08210535676859" lon="6.903873951401163"><ele>1067.0</ele><time>2026-04-18T14:04:55Z</time></trkpt><trkpt lat="45.082271102038895" lon="6.903829284578018"><ele>1067.0</ele><time>2026-04-18T14:04:56Z</time></trkpt><trkpt lat="45.08240166758366" lon="6.903832739920506"><ele>1067.0</ele><time>2026-04-18T14:04:57Z</time></trkpt><trkpt lat="45.08250678987935" lon="6.903882671006641"><ele>1067.0</ele><time>2026-04-18T14:04:58Z</time></trkpt><trkpt lat="45.082617192934755" lon="6.903978491119914"><ele>1072.3333333333335</ele><time>2026-04-18T14:04:59Z</time></trkpt><trkpt lat="45.08279600160697" lon="6.903998094280131"><ele>1077.6666666666667</ele><time>2026-04-18T14:05:00Z</time></trkpt><trkpt lat="45.08295719769347" lon="6.904091015432613"><ele>1083.0</ele><time>2026-04-18T14:05:01Z</time></trkpt><trkpt lat="45.08313782801024" lon="6.904150053881055"><ele>1090.5</ele><time>2026-04-18T14:05:02Z</time></trkpt><trkpt lat="45.083291898446845" lon="6.90419917739339"><ele>1098.0</ele><time>2026-04-18T14:05:03Z</time></trkpt><trkpt lat="45.08320331945371" lon="6.9048651156927585"><ele>1078.0</ele><time>2026-04-18T14:05:04Z</time></trkpt><trkpt lat="45.08331753244346" lon="6.9051631907888344"><ele>1058.0</ele><time>2026-04-18T14:05:05Z</time></trkpt><trkpt lat="45.083441417929116" lon="6.905538944895394"><ele>1058.0</ele><time>2026-04-18T14:05:06Z</time></trkpt><trkpt lat="45.08352201803076" lon="6.905797276110348"><ele>1058.0</ele><time>2026-04-18T14:05:07Z</time></trkpt><trkpt lat="45.0836312801397" lon="6.906058041563838"><ele>1058.0</ele><time>2026-04-18T14:05:08Z</time></trkpt><trkpt lat="45.08372789024903" lon="6.906348420853783"><ele>1053.3333333333335</ele><time>2026-04-18T14:05:09Z</time></trkpt><trkpt lat="45.08390611179027" lon="6.9065548940306565"><ele>1048.6666666666667</ele><time>2026-04-18T14:05:10Z</time></trkpt><trkpt lat="45.0840596996582" lon="6.906774945473236"><ele>1044.0</ele><time>2026-04-18T14:05:11Z</time></trkpt><trkpt lat="45.084226256700866" lon="6.906886454387935"><ele>1044.0</ele><time>2026-04-18T14:05:12Z</time></trkpt><trkpt lat="45.08436636368365" lon="6.907094843392226"><ele>1044.0</ele><time>2026-04-18T14:05:13Z</time></trkpt><trkpt lat="45.08452402726773" lon="6.90726232360059"><ele>1044.0</ele><time>2026-04-18T14:05:14Z</time></trkpt><trkpt lat="45.08468076328357" lon="6.907368493498051"><ele>1044.0</ele><time>2026-04-18T14:05:15Z</time></trkpt><trkpt lat="45.08484285815359" lon="6.907482122684389"><ele>1044.0</ele><time>2026-04-18T14:05:16Z</time></trkpt><trkpt lat="45.08497357829897" lon="6.907576841405864"><ele>1044.0</ele><time>2026-04-18T14:05:17Z</time></trkpt><trkpt lat="45.085093623842276" lon="6.9076896637329215"><ele>1039.75</ele><time>2026-04-18T14:05:18Z</time></trkpt><trkpt lat="45.08521167587" lon="6.907775203736285"><ele>1035.5</ele><time>2026-04-18T14:05:19Z</time></trkpt><trkpt lat="45.085326188960494" lon="6.907852443959299"><ele>1031.25</ele><time>2026-04-18T14:05:20Z</time></trkpt><trkpt lat="45.08545287187137" lon="6.907770371981713"><ele>1027.0</ele><time>2026-04-18T14:05:21Z</time></trkpt><trkpt lat="45.08554458960219" lon="6.907817199851108"><ele>1027.0</ele><time>2026-04-18T14:05:22Z</time></trkpt><trkpt lat="45.08562019829615" lon="6.907845817035025"><ele>1027.0</ele><time>2026-04-18T14:05:24Z</time></trkpt><trkpt lat="45.0855568063136" lon="6.908026584449709"><ele>1027.0</ele><time>2026-04-18T14:05:26Z</time></trkpt><trkpt lat="45.08546929283815" lon="6.907988179349888"><ele>1027.0</ele><time>2026-04-18T14:05:27Z</time></trkpt><trkpt lat="45.08539259052478" lon="6.907951588956735"><ele>1027.0</ele><time>2026-04-18T14:05:28Z</time></trkpt><trkpt lat="45.08524284484859" lon="6.9079181779838175"><ele>1027.0</ele><time>2026-04-18T14:05:29Z</time></trkpt><trkpt lat="45.08507669062153" lon="6.907826308920276"><ele>1027.0</ele><time>2026-04-18T14:05:30Z</time></trkpt><trkpt lat="45.08492342298467" lon="6.907787343406627"><ele>1027.0</ele><time>2026-04-18T14:05:31Z</time></trkpt><trkpt lat="45.08477353598556" lon="6.907747076059513"><ele>1023.6666666666666</ele><time>2026-04-18T14:05:32Z</time></trkpt><trkpt lat="45.084616050582994" lon="6.907693726830983"><ele>1020.3333333333333</ele><time>2026-04-18T14:05:33Z</time></trkpt><trkpt lat="45.08446690080277" lon="6.907631536395349"><ele>1017.0</ele><time>2026-04-18T14:05:34Z</time></trkpt><trkpt lat="45.08433921934532" lon="6.907566258031296"><ele>1017.0</ele><time>2026-04-18T14:05:35Z</time></trkpt><trkpt lat="45.08421628055047" lon="6.907531922197352"><ele>1017.0</ele><time>2026-04-18T14:05:36Z</time></trkpt><trkpt lat="45.08411912563443" lon="6.907607076007685"><ele>1017.0</ele><time>2026-04-18T14:05:37Z</time></trkpt><trkpt lat="45.084025467859206" lon="6.907655491001912"><ele>1017.0</ele><time>2026-04-18T14:05:38Z</time></trkpt><trkpt lat="45.083974721563116" lon="6.907710693809145"><ele>1017.0</ele><time>2026-04-18T14:05:39Z</time></trkpt><trkpt lat="45.0839697211037" lon="6.9078202426373885"><ele>1017.0</ele><time>2026-04-18T14:05:40Z</time></trkpt><trkpt lat="45.084014058315034" lon="6.907969071810012"><ele>1017.0</ele><time>2026-04-18T14:05:42Z</time></trkpt><trkpt lat="45.084052790138024" lon="6.908051793791926"><ele>1017.0</ele><time>2026-04-18T14:05:43Z</time></trkpt><trkpt lat="45.08414285467925" lon="6.908178480041555"><ele>1017.0</ele><time>2026-04-18T14:05:44Z</time></trkpt><trkpt lat="45.08432107608129" lon="6.908348276990968"><ele>1017.0</ele><time>2026-04-18T14:05:45Z</time></trkpt><trkpt lat="45.08446621887969" lon="6.908366802221745"><ele>1017.0</ele><time>2026-04-18T14:05:46Z</time></trkpt><trkpt lat="45.084697152635066" lon="6.908400662144246"><ele>1017.0</ele><time>2026-04-18T14:05:47Z</time></trkpt><trkpt lat="45.08501749550107" lon="6.908461998515271"><ele>1009.3333333333333</ele><time>2026-04-18T14:05:48Z</time></trkpt><trkpt lat="45.08519759329536" lon="6.908486748900283"><ele>1001.6666666666666</ele><time>2026-04-18T14:05:49Z</time></trkpt><trkpt lat="45.08537179860534" lon="6.9085209192256665"><ele>994.0</ele><time>2026-04-18T14:05:50Z</time></trkpt><trkpt lat="45.085543432133676" lon="6.9085221811759645"><ele>994.0</ele><time>2026-04-18T14:05:51Z</time></trkpt><trkpt lat="45.085693735690086" lon="6.908489298999062"><ele>994.0</ele><time>2026-04-18T14:05:52Z</time></trkpt><trkpt lat="45.08583952467407" lon="6.908406634573475"><ele>994.0</ele><time>2026-04-18T14:05:53Z</time></trkpt><trkpt lat="45.08604837063443" lon="6.908281990015171"><ele>1004.3333333333333</ele><time>2026-04-18T14:05:54Z</time></trkpt><trkpt lat="45.08620566860284" lon="6.908167339648858"><ele>1014.6666666666667</ele><time>2026-04-18T14:05:55Z</time></trkpt><trkpt lat="45.086391767507315" lon="6.908124736842375"><ele>1025.0</ele><time>2026-04-18T14:05:56Z</time></trkpt><trkpt lat="45.086589574227254" lon="6.9081018487401185"><ele>1019.6666666666667</ele><time>2026-04-18T14:05:57Z</time></trkpt><trkpt lat="45.08679548878597" lon="6.90806708764754"><ele>1014.3333333333333</ele><time>2026-04-18T14:05:58Z</time></trkpt><trkpt lat="45.087025612031276" lon="6.908076296637671"><ele>1009.0</ele><time>2026-04-18T14:05:59Z</time></trkpt><trkpt lat="45.087234621285965" lon="6.908050890264459"><ele>1009.0</ele><time>2026-04-18T14:06:00Z</time></trkpt><trkpt lat="45.08741917887591" lon="6.9079952788758945"><ele>1009.0</ele><time>2026-04-18T14:06:01Z</time></trkpt><trkpt lat="45.08758287466327" lon="6.907898345964544"><ele>1009.0</ele><time>2026-04-18T14:06:02Z</time></trkpt><trkpt lat="45.08773642132311" lon="6.907828462267253"><ele>1006.5</ele><time>2026-04-18T14:06:03Z</time></trkpt><trkpt lat="45.08788404471898" lon="6.907748372644186"><ele>1004.0</ele><time>2026-04-18T14:06:04Z</time></trkpt><trkpt lat="45.08797208941196" lon="6.9077690392317725"><ele>1001.5</ele><time>2026-04-18T14:06:05Z</time></trkpt><trkpt lat="45.08806317764082" lon="6.907794648049846"><ele>999.0</ele><time>2026-04-18T14:06:06Z</time></trkpt><trkpt lat="45.08816701096193" lon="6.907897507150261"><ele>998.3333333333333</ele><time>2026-04-18T14:06:07Z</time></trkpt><trkpt lat="45.08827030446243" lon="6.908010275970076"><ele>997.6666666666666</ele><time>2026-04-18T14:06:08Z</time></trkpt><trkpt lat="45.08834415788218" lon="6.908240443901976"><ele>997.0</ele><time>2026-04-18T14:06:09Z</time></trkpt><trkpt lat="45.0883834622055" lon="6.908506578181411"><ele>997.0</ele><time>2026-04-18T14:06:10Z</time></trkpt><trkpt lat="45.0884228725978" lon="6.908793618115501"><ele>997.0</ele><time>2026-04-18T14:06:11Z</time></trkpt><trkpt lat="45.08845667805449" lon="6.909039717499344"><ele>997.0</ele><time>2026-04-18T14:06:12Z</time></trkpt><trkpt lat="45.088495032387975" lon="6.909292595639556"><ele>993.5</ele><time>2026-04-18T14:06:13Z</time></trkpt><trkpt lat="45.08854189688362" lon="6.909656833828383"><ele>990.0</ele><time>2026-04-18T14:06:14Z</time></trkpt><trkpt lat="45.088579419052394" lon="6.90998422630204"><ele>987.6666666666667</ele><time>2026-04-18T14:06:15Z</time></trkpt><trkpt lat="45.08857073746221" lon="6.9102639803673975"><ele>985.3333333333334</ele><time>2026-04-18T14:06:16Z</time></trkpt><trkpt lat="45.08853998744859" lon="6.910500076307128"><ele>983.0</ele><time>2026-04-18T14:06:17Z</time></trkpt><trkpt lat="45.088517106944536" lon="6.910754402287958"><ele>974.6666666666667</ele><time>2026-04-18T14:06:18Z</time></trkpt><trkpt lat="45.08852620930343" lon="6.9109940024630765"><ele>966.3333333333333</ele><time>2026-04-18T14:06:19Z</time></trkpt><trkpt lat="45.088553980112096" lon="6.911228282399083"><ele>958.0</ele><time>2026-04-18T14:06:20Z</time></trkpt><trkpt lat="45.088672209183635" lon="6.911388074530047"><ele>958.0</ele><time>2026-04-18T14:06:21Z</time></trkpt><trkpt lat="45.0887835997868" lon="6.911552041366627"><ele>958.0</ele><time>2026-04-18T14:06:22Z</time></trkpt><trkpt lat="45.08891293999187" lon="6.9117095312671815"><ele>958.0</ele><time>2026-04-18T14:06:23Z</time></trkpt><trkpt lat="45.08909163258508" lon="6.911929745118565"><ele>963.5</ele><time>2026-04-18T14:06:24Z</time></trkpt><trkpt lat="45.089283646860785" lon="6.91222672228402"><ele>969.0</ele><time>2026-04-18T14:06:25Z</time></trkpt><trkpt lat="45.0894070462746" lon="6.912488960675505"><ele>960.5</ele><time>2026-04-18T14:06:26Z</time></trkpt><trkpt lat="45.089536819016935" lon="6.912806647017835"><ele>952.0</ele><time>2026-04-18T14:06:27Z</time></trkpt><trkpt lat="45.0896532346149" lon="6.913090502435119"><ele>946.5</ele><time>2026-04-18T14:06:28Z</time></trkpt><trkpt lat="45.08974400082461" lon="6.913409344155664"><ele>941.0</ele><time>2026-04-18T14:06:29Z</time></trkpt><trkpt lat="45.089858197637064" lon="6.913719253005715"><ele>944.5</ele><time>2026-04-18T14:06:30Z</time></trkpt><trkpt lat="45.089993654494535" lon="6.914050201238547"><ele>948.0</ele><time>2026-04-18T14:06:31Z</time></trkpt><trkpt lat="45.09012130676764" lon="6.914387214967932"><ele>948.0</ele><time>2026-04-18T14:06:32Z</time></trkpt><trkpt lat="45.09026731284298" lon="6.914720237915994"><ele>948.0</ele><time>2026-04-18T14:06:33Z</time></trkpt><trkpt lat="45.09038494885482" lon="6.915027949597498"><ele>929.5</ele><time>2026-04-18T14:06:34Z</time></trkpt><trkpt lat="45.090539749598" lon="6.915367544108975"><ele>911.0</ele><time>2026-04-18T14:06:35Z</time></trkpt><trkpt lat="45.090695233618405" lon="6.91567075447935"><ele>918.0</ele><time>2026-04-18T14:06:36Z</time></trkpt><trkpt lat="45.09086480007624" lon="6.915989170700694"><ele>925.0</ele><time>2026-04-18T14:06:37Z</time></trkpt><trkpt lat="45.09106933730976" lon="6.916243592588122"><ele>925.0</ele><time>2026-04-18T14:06:38Z</time></trkpt><trkpt lat="45.09126634256139" lon="6.916562241231423"><ele>925.0</ele><time>2026-04-18T14:06:39Z</time></trkpt><trkpt lat="45.09145712371624" lon="6.916915676614639"><ele>920.0</ele><time>2026-04-18T14:06:40Z</time></trkpt><trkpt lat="45.09165164335577" lon="6.917263654046572"><ele>915.0</ele><time>2026-04-18T14:06:41Z</time></trkpt><trkpt lat="45.0918250492034" lon="6.917571611204976"><ele>915.0</ele><time>2026-04-18T14:06:42Z</time></trkpt><trkpt lat="45.09199775135772" lon="6.917873609610027"><ele>915.0</ele><time>2026-04-18T14:06:43Z</time></trkpt><trkpt lat="45.09217306254244" lon="6.918174152953137"><ele>918.5</ele><time>2026-04-18T14:06:44Z</time></trkpt><trkpt lat="45.09234022553572" lon="6.918460238220914"><ele>922.0</ele><time>2026-04-18T14:06:45Z</time></trkpt><trkpt lat="45.092512316035425" lon="6.918752019832579"><ele>922.0</ele><time>2026-04-18T14:06:46Z</time></trkpt><trkpt lat="45.09267604280188" lon="6.919030189078606"><ele>922.0</ele><time>2026-04-18T14:06:47Z</time></trkpt><trkpt lat="45.09283036215282" lon="6.91930280980791"><ele>910.0</ele><time>2026-04-18T14:06:48Z</time></trkpt><trkpt lat="45.09298474496571" lon="6.919602018535461"><ele>898.0</ele><time>2026-04-18T14:06:49Z</time></trkpt><trkpt lat="45.09312970176427" lon="6.91990068343655"><ele>890.0</ele><time>2026-04-18T14:06:50Z</time></trkpt><trkpt lat="45.093251792142446" lon="6.920186144948869"><ele>882.0</ele><time>2026-04-18T14:06:51Z</time></trkpt><trkpt lat="45.09338346002297" lon="6.920555153176299"><ele>891.0</ele><time>2026-04-18T14:06:52Z</time></trkpt><trkpt lat="45.093506735097776" lon="6.9209308140971215"><ele>900.0</ele><time>2026-04-18T14:06:53Z</time></trkpt><trkpt lat="45.093610756982685" lon="6.921264707533404"><ele>900.0</ele><time>2026-04-18T14:06:54Z</time></trkpt><trkpt lat="45.09371803371213" lon="6.921607643729896"><ele>900.0</ele><time>2026-04-18T14:06:55Z</time></trkpt><trkpt lat="45.09377055847452" lon="6.921970042963403"><ele>894.5</ele><time>2026-04-18T14:06:56Z</time></trkpt><trkpt lat="45.09382461288947" lon="6.922346982617184"><ele>889.0</ele><time>2026-04-18T14:06:57Z</time></trkpt><trkpt lat="45.09387446899384" lon="6.9226828024896285"><ele>880.0</ele><time>2026-04-18T14:06:58Z</time></trkpt><trkpt lat="45.09394257351535" lon="6.922979808668876"><ele>871.0</ele><time>2026-04-18T14:06:59Z</time></trkpt><trkpt lat="45.094017437785446" lon="6.923295803801691"><ele>884.5</ele><time>2026-04-18T14:07:00Z</time></trkpt><trkpt lat="45.09410907736464" lon="6.923597269947159"><ele>898.0</ele><time>2026-04-18T14:07:01Z</time></trkpt><trkpt lat="45.09424593722342" lon="6.923901854320516"><ele>898.0</ele><time>2026-04-18T14:07:02Z</time></trkpt><trkpt lat="45.094393794647374" lon="6.9241975228285675"><ele>898.0</ele><time>2026-04-18T14:07:03Z</time></trkpt><trkpt lat="45.09452115177841" lon="6.924481164834714"><ele>882.5</ele><time>2026-04-18T14:07:04Z</time></trkpt><trkpt lat="45.094641410226195" lon="6.924779740474953"><ele>867.0</ele><time>2026-04-18T14:07:05Z</time></trkpt><trkpt lat="45.094799050434645" lon="6.925042452617264"><ele>873.5</ele><time>2026-04-18T14:07:06Z</time></trkpt><trkpt lat="45.094951503976965" lon="6.925283777637562"><ele>880.0</ele><time>2026-04-18T14:07:07Z</time></trkpt><trkpt lat="45.09511800799373" lon="6.925512406936601"><ele>880.0</ele><time>2026-04-18T14:07:08Z</time></trkpt><trkpt lat="45.0952887203433" lon="6.925725383814437"><ele>880.0</ele><time>2026-04-18T14:07:09Z</time></trkpt><trkpt lat="45.095456646786324" lon="6.92590110304889"><ele>880.0</ele><time>2026-04-18T14:07:10Z</time></trkpt><trkpt lat="45.09563411142085" lon="6.926065038424143"><ele>878.6666666666666</ele><time>2026-04-18T14:07:11Z</time></trkpt><trkpt lat="45.09580251094224" lon="6.926198834447638"><ele>877.3333333333333</ele><time>2026-04-18T14:07:12Z</time></trkpt><trkpt lat="45.09587855355259" lon="6.9262532672058175"><ele>876.0</ele><time>2026-04-18T14:07:13Z</time></trkpt><trkpt lat="45.09611441217893" lon="6.926361351232601"><ele>876.0</ele><time>2026-04-18T14:07:14Z</time></trkpt><trkpt lat="45.09631431984217" lon="6.926417617965825"><ele>876.0</ele><time>2026-04-18T14:07:15Z</time></trkpt><trkpt lat="45.096486904207744" lon="6.926549749810586"><ele>876.0</ele><time>2026-04-18T14:07:16Z</time></trkpt><trkpt lat="45.096639070669845" lon="6.926610395022065"><ele>882.0</ele><time>2026-04-18T14:07:17Z</time></trkpt><trkpt lat="45.096823620148115" lon="6.92663775180293"><ele>888.0</ele><time>2026-04-18T14:07:18Z</time></trkpt><trkpt lat="45.09699319252268" lon="6.926649041310317"><ele>894.0</ele><time>2026-04-18T14:07:19Z</time></trkpt><trkpt lat="45.09714257915532" lon="6.926713243171335"><ele>894.0</ele><time>2026-04-18T14:07:20Z</time></trkpt><trkpt lat="45.09729702179746" lon="6.926783965596432"><ele>894.0</ele><time>2026-04-18T14:07:21Z</time></trkpt><trkpt lat="45.09742067944629" lon="6.926879594397173"><ele>894.0</ele><time>2026-04-18T14:07:22Z</time></trkpt><trkpt lat="45.0975111170505" lon="6.927020126660399"><ele>894.0</ele><time>2026-04-18T14:07:23Z</time></trkpt><trkpt lat="45.097600517893575" lon="6.9271968863284625"><ele>894.0</ele><time>2026-04-18T14:07:24Z</time></trkpt><trkpt lat="45.09766662176743" lon="6.927373407060359"><ele>894.0</ele><time>2026-04-18T14:07:25Z</time></trkpt><trkpt lat="45.09773932684881" lon="6.927566384448816"><ele>894.0</ele><time>2026-04-18T14:07:26Z</time></trkpt><trkpt lat="45.09782575206935" lon="6.92779577889107"><ele>890.6666666666667</ele><time>2026-04-18T14:07:27Z</time></trkpt><trkpt lat="45.097919610766475" lon="6.928044946006226"><ele>887.3333333333334</ele><time>2026-04-18T14:07:28Z</time></trkpt><trkpt lat="45.098024508036936" lon="6.928323422451626"><ele>884.0</ele><time>2026-04-18T14:07:29Z</time></trkpt><trkpt lat="45.09813289996977" lon="6.9286111764016045"><ele>883.0</ele><time>2026-04-18T14:07:30Z</time></trkpt><trkpt lat="45.09823311194339" lon="6.928877214425819"><ele>882.0</ele><time>2026-04-18T14:07:31Z</time></trkpt><trkpt lat="45.098328533284096" lon="6.92913091610553"><ele>881.0</ele><time>2026-04-18T14:07:32Z</time></trkpt><trkpt lat="45.098415305871505" lon="6.9293618595047946"><ele>881.0</ele><time>2026-04-18T14:07:33Z</time></trkpt><trkpt lat="45.098517874265276" lon="6.929632681760803"><ele>881.0</ele><time>2026-04-18T14:07:34Z</time></trkpt><trkpt lat="45.098603864782866" lon="6.929858735531083"><ele>881.0</ele><time>2026-04-18T14:07:35Z</time></trkpt><trkpt lat="45.09869478937942" lon="6.9300897334935065"><ele>877.0</ele><time>2026-04-18T14:07:36Z</time></trkpt><trkpt lat="45.0988030704738" lon="6.930328797971201"><ele>873.0</ele><time>2026-04-18T14:07:37Z</time></trkpt><trkpt lat="45.09892124211133" lon="6.930557486348444"><ele>869.0</ele><time>2026-04-18T14:07:38Z</time></trkpt><trkpt lat="45.09904677591833" lon="6.930779214628677"><ele>868.3333333333334</ele><time>2026-04-18T14:07:39Z</time></trkpt><trkpt lat="45.09918118086425" lon="6.930977786999832"><ele>867.6666666666667</ele><time>2026-04-18T14:07:40Z</time></trkpt><trkpt lat="45.09931370877055" lon="6.931179564488507"><ele>867.0</ele><time>2026-04-18T14:07:41Z</time></trkpt><trkpt lat="45.09944517635131" lon="6.931365739922133"><ele>867.0</ele><time>2026-04-18T14:07:42Z</time></trkpt><trkpt lat="45.09957148288476" lon="6.931555583158542"><ele>867.0</ele><time>2026-04-18T14:07:43Z</time></trkpt><trkpt lat="45.09970514451027" lon="6.931723268308623"><ele>867.0</ele><time>2026-04-18T14:07:44Z</time></trkpt><trkpt lat="45.099842407456634" lon="6.931853713687473"><ele>867.3333333333333</ele><time>2026-04-18T14:07:45Z</time></trkpt><trkpt lat="45.099961009095146" lon="6.932004055576635"><ele>867.6666666666666</ele><time>2026-04-18T14:07:46Z</time></trkpt><trkpt lat="45.10010486229396" lon="6.932097930131178"><ele>868.0</ele><time>2026-04-18T14:07:47Z</time></trkpt><trkpt lat="45.100243864738566" lon="6.932228635779311"><ele>868.0</ele><time>2026-04-18T14:07:48Z</time></trkpt><trkpt lat="45.10036876176244" lon="6.932355442334506"><ele>868.0</ele><time>2026-04-18T14:07:49Z</time></trkpt><trkpt lat="45.10046350262245" lon="6.932492954358859"><ele>868.0</ele><time>2026-04-18T14:07:50Z</time></trkpt><trkpt lat="45.10053562437269" lon="6.932628840886267"><ele>868.0</ele><time>2026-04-18T14:07:51Z</time></trkpt><trkpt lat="45.100608638238086" lon="6.932798197812145"><ele>867.0</ele><time>2026-04-18T14:07:52Z</time></trkpt><trkpt lat="45.100664719414276" lon="6.932986902918303"><ele>866.0</ele><time>2026-04-18T14:07:53Z</time></trkpt><trkpt lat="45.10071413380559" lon="6.9331987068724485"><ele>865.0</ele><time>2026-04-18T14:07:54Z</time></trkpt><trkpt lat="45.10075833564742" lon="6.933389310608859"><ele>864.0</ele><time>2026-04-18T14:07:55Z</time></trkpt><trkpt lat="45.100773171263235" lon="6.933599181107789"><ele>864.0</ele><time>2026-04-18T14:07:56Z</time></trkpt><trkpt lat="45.10082060399963" lon="6.933814562678018"><ele>864.0</ele><time>2026-04-18T14:07:57Z</time></trkpt><trkpt lat="45.100860961982924" lon="6.934027048141829"><ele>864.0</ele><time>2026-04-18T14:07:58Z</time></trkpt><trkpt lat="45.100922326706005" lon="6.934240317358101"><ele>864.0</ele><time>2026-04-18T14:07:59Z</time></trkpt><trkpt lat="45.10099394714717" lon="6.9344593836487665"><ele>864.0</ele><time>2026-04-18T14:08:00Z</time></trkpt><trkpt lat="45.101100758808414" lon="6.934624395132065"><ele>864.0</ele><time>2026-04-18T14:08:01Z</time></trkpt><trkpt lat="45.10120436389514" lon="6.934844369966582"><ele>864.0</ele><time>2026-04-18T14:08:02Z</time></trkpt><trkpt lat="45.10130325805441" lon="6.935043809802998"><ele>864.0</ele><time>2026-04-18T14:08:03Z</time></trkpt><trkpt lat="45.101410078178205" lon="6.93524723250961"><ele>864.0</ele><time>2026-04-18T14:08:04Z</time></trkpt><trkpt lat="45.10152465345434" lon="6.935473962963686"><ele>862.3333333333333</ele><time>2026-04-18T14:08:05Z</time></trkpt><trkpt lat="45.10162439729733" lon="6.935698633098222"><ele>860.6666666666666</ele><time>2026-04-18T14:08:06Z</time></trkpt><trkpt lat="45.101709324465276" lon="6.935937463695197"><ele>859.0</ele><time>2026-04-18T14:08:07Z</time></trkpt><trkpt lat="45.10175736762823" lon="6.93616615461369"><ele>858.0</ele><time>2026-04-18T14:08:08Z</time></trkpt><trkpt lat="45.10182410462288" lon="6.936421077284513"><ele>857.0</ele><time>2026-04-18T14:08:09Z</time></trkpt><trkpt lat="45.101880951858284" lon="6.936663786004035"><ele>856.0</ele><time>2026-04-18T14:08:10Z</time></trkpt><trkpt lat="45.10188540103725" lon="6.936923182292462"><ele>854.6666666666666</ele><time>2026-04-18T14:08:11Z</time></trkpt><trkpt lat="45.10188637590004" lon="6.9371706632621795"><ele>853.3333333333333</ele><time>2026-04-18T14:08:12Z</time></trkpt><trkpt lat="45.10187657300067" lon="6.9374416372271135"><ele>852.0</ele><time>2026-04-18T14:08:13Z</time></trkpt><trkpt lat="45.10185458786821" lon="6.937692840204494"><ele>851.0</ele><time>2026-04-18T14:08:14Z</time></trkpt><trkpt lat="45.101819064113066" lon="6.937956919960909"><ele>850.0</ele><time>2026-04-18T14:08:15Z</time></trkpt><trkpt lat="45.10180542208618" lon="6.9382228868851925"><ele>849.0</ele><time>2026-04-18T14:08:16Z</time></trkpt><trkpt lat="45.101855693582436" lon="6.93844834651184"><ele>848.0</ele><time>2026-04-18T14:08:17Z</time></trkpt><trkpt lat="45.10183004667911" lon="6.93866051310368"><ele>847.0</ele><time>2026-04-18T14:08:18Z</time></trkpt><trkpt lat="45.101847658184596" lon="6.938873010711099"><ele>846.0</ele><time>2026-04-18T14:08:19Z</time></trkpt><trkpt lat="45.10190706024963" lon="6.939044974304363"><ele>845.0</ele><time>2026-04-18T14:08:20Z</time></trkpt><trkpt lat="45.102006659455185" lon="6.939238299513193"><ele>842.0</ele><time>2026-04-18T14:08:21Z</time></trkpt><trkpt lat="45.10209825188847" lon="6.939424948961937"><ele>839.0</ele><time>2026-04-18T14:08:22Z</time></trkpt><trkpt lat="45.1021771046903" lon="6.939668233452698"><ele>836.0</ele><time>2026-04-18T14:08:23Z</time></trkpt><trkpt lat="45.10222952814038" lon="6.939926269257693"><ele>832.0</ele><time>2026-04-18T14:08:24Z</time></trkpt><trkpt lat="45.102310286219044" lon="6.940193470134884"><ele>828.0</ele><time>2026-04-18T14:08:25Z</time></trkpt><trkpt lat="45.10240931110219" lon="6.940424514842128"><ele>824.0</ele><time>2026-04-18T14:08:26Z</time></trkpt><trkpt lat="45.102436113978456" lon="6.940668379873013"><ele>826.3333333333334</ele><time>2026-04-18T14:08:27Z</time></trkpt><trkpt lat="45.102475452088164" lon="6.940917273123329"><ele>828.6666666666667</ele><time>2026-04-18T14:08:28Z</time></trkpt><trkpt lat="45.10252161257655" lon="6.941139118837564"><ele>831.0</ele><time>2026-04-18T14:08:29Z</time></trkpt><trkpt lat="45.102583360994075" lon="6.941380987389949"><ele>831.0</ele><time>2026-04-18T14:08:30Z</time></trkpt><trkpt lat="45.10258892092673" lon="6.941567131855056"><ele>831.0</ele><time>2026-04-18T14:08:31Z</time></trkpt><trkpt lat="45.10260307324518" lon="6.941786597078169"><ele>831.0</ele><time>2026-04-18T14:08:32Z</time></trkpt><trkpt lat="45.1026206591907" lon="6.942030396888072"><ele>827.0</ele><time>2026-04-18T14:08:33Z</time></trkpt><trkpt lat="45.10264457677381" lon="6.942257284930245"><ele>823.0</ele><time>2026-04-18T14:08:34Z</time></trkpt><trkpt lat="45.10270835184671" lon="6.942459496217619"><ele>819.0</ele><time>2026-04-18T14:08:35Z</time></trkpt><trkpt lat="45.10277767496366" lon="6.9426753987353305"><ele>814.3333333333333</ele><time>2026-04-18T14:08:36Z</time></trkpt><trkpt lat="45.102879527039335" lon="6.942811837571248"><ele>809.6666666666666</ele><time>2026-04-18T14:08:37Z</time></trkpt><trkpt lat="45.102987218662726" lon="6.942976337727138"><ele>805.0</ele><time>2026-04-18T14:08:38Z</time></trkpt><trkpt lat="45.103097340687086" lon="6.9431464000193115"><ele>806.3333333333333</ele><time>2026-04-18T14:08:39Z</time></trkpt><trkpt lat="45.10320588602684" lon="6.943402411322993"><ele>807.6666666666667</ele><time>2026-04-18T14:08:40Z</time></trkpt><trkpt lat="45.103279708113156" lon="6.943652891764013"><ele>809.0</ele><time>2026-04-18T14:08:41Z</time></trkpt><trkpt lat="45.10337709199965" lon="6.943868642032201"><ele>809.0</ele><time>2026-04-18T14:08:42Z</time></trkpt><trkpt lat="45.103493604534016" lon="6.9441239733142215"><ele>809.0</ele><time>2026-04-18T14:08:43Z</time></trkpt><trkpt lat="45.10361283710631" lon="6.944340737182386"><ele>809.0</ele><time>2026-04-18T14:08:44Z</time></trkpt><trkpt lat="45.10374741522009" lon="6.944552022611718"><ele>801.6666666666667</ele><time>2026-04-18T14:08:45Z</time></trkpt><trkpt lat="45.103881460297295" lon="6.944765955661152"><ele>794.3333333333333</ele><time>2026-04-18T14:08:46Z</time></trkpt><trkpt lat="45.10400307171068" lon="6.944980815857345"><ele>787.0</ele><time>2026-04-18T14:08:47Z</time></trkpt><trkpt lat="45.10413937582529" lon="6.945178243230149"><ele>787.0</ele><time>2026-04-18T14:08:48Z</time></trkpt><trkpt lat="45.104214817864516" lon="6.945402570908025"><ele>787.0</ele><time>2026-04-18T14:08:49Z</time></trkpt><trkpt lat="45.10433688976823" lon="6.945596756426344"><ele>787.0</ele><time>2026-04-18T14:08:50Z</time></trkpt><trkpt lat="45.10444149552775" lon="6.945773141295819"><ele>779.6666666666666</ele><time>2026-04-18T14:08:51Z</time></trkpt><trkpt lat="45.10458409404391" lon="6.945944003040728"><ele>772.3333333333333</ele><time>2026-04-18T14:08:52Z</time></trkpt><trkpt lat="45.10475608282874" lon="6.9460213464105705"><ele>765.0</ele><time>2026-04-18T14:08:53Z</time></trkpt><trkpt lat="45.10489700604757" lon="6.946137650360285"><ele>773.6666666666667</ele><time>2026-04-18T14:08:54Z</time></trkpt><trkpt lat="45.10505416652435" lon="6.946223359738322"><ele>782.3333333333334</ele><time>2026-04-18T14:08:55Z</time></trkpt><trkpt lat="45.105187567328976" lon="6.946373052859395"><ele>791.0</ele><time>2026-04-18T14:08:56Z</time></trkpt><trkpt lat="45.105303517216406" lon="6.946548659701906"><ele>782.3333333333334</ele><time>2026-04-18T14:08:57Z</time></trkpt><trkpt lat="45.105414586386146" lon="6.946773424952187"><ele>773.6666666666667</ele><time>2026-04-18T14:08:58Z</time></trkpt><trkpt lat="45.10551331166818" lon="6.94697928646385"><ele>765.0</ele><time>2026-04-18T14:08:59Z</time></trkpt><trkpt lat="45.105617115379154" lon="6.947195398020635"><ele>765.0</ele><time>2026-04-18T14:09:00Z</time></trkpt><trkpt lat="45.10572782067593" lon="6.947422478666304"><ele>765.0</ele><time>2026-04-18T14:09:01Z</time></trkpt><trkpt lat="45.105828353785405" lon="6.947625884086856"><ele>765.0</ele><time>2026-04-18T14:09:02Z</time></trkpt><trkpt lat="45.105908895747845" lon="6.947834942353427"><ele>767.3333333333333</ele><time>2026-04-18T14:09:03Z</time></trkpt><trkpt lat="45.10592752631975" lon="6.94805060436792"><ele>769.6666666666666</ele><time>2026-04-18T14:09:04Z</time></trkpt><trkpt lat="45.10589235827546" lon="6.94824900471643"><ele>772.0</ele><time>2026-04-18T14:09:05Z</time></trkpt><trkpt lat="45.10590931202205" lon="6.948473486886802"><ele>772.0</ele><time>2026-04-18T14:09:06Z</time></trkpt><trkpt lat="45.10595967418593" lon="6.948676638972731"><ele>772.0</ele><time>2026-04-18T14:09:07Z</time></trkpt><trkpt lat="45.10601726711349" lon="6.948894612089224"><ele>772.0</ele><time>2026-04-18T14:09:08Z</time></trkpt><trkpt lat="45.10607593002203" lon="6.949124405511137"><ele>766.3333333333333</ele><time>2026-04-18T14:09:09Z</time></trkpt><trkpt lat="45.1061452046763" lon="6.949341636835556"><ele>760.6666666666666</ele><time>2026-04-18T14:09:10Z</time></trkpt><trkpt lat="45.10625565963616" lon="6.9494926301529905"><ele>755.0</ele><time>2026-04-18T14:09:11Z</time></trkpt><trkpt lat="45.1063630845274" lon="6.949609963526047"><ele>755.0</ele><time>2026-04-18T14:09:12Z</time></trkpt><trkpt lat="45.10643194682225" lon="6.949780767731378"><ele>755.0</ele><time>2026-04-18T14:09:13Z</time></trkpt><trkpt lat="45.10648750055195" lon="6.949970768060578"><ele>755.0</ele><time>2026-04-18T14:09:14Z</time></trkpt><trkpt lat="45.10652716014853" lon="6.950227699354203"><ele>758.0</ele><time>2026-04-18T14:09:15Z</time></trkpt><trkpt lat="45.10655067968927" lon="6.950501005835147"><ele>761.0</ele><time>2026-04-18T14:09:16Z</time></trkpt><trkpt lat="45.10660607719392" lon="6.950740095205429"><ele>764.0</ele><time>2026-04-18T14:09:17Z</time></trkpt><trkpt lat="45.10667023610234" lon="6.950970471544494"><ele>764.0</ele><time>2026-04-18T14:09:18Z</time></trkpt><trkpt lat="45.106771057761584" lon="6.951214966934474"><ele>764.0</ele><time>2026-04-18T14:09:19Z</time></trkpt><trkpt lat="45.10687972055779" lon="6.951495994177455"><ele>764.0</ele><time>2026-04-18T14:09:20Z</time></trkpt><trkpt lat="45.10698992339351" lon="6.951768350748162"><ele>759.6666666666666</ele><time>2026-04-18T14:09:21Z</time></trkpt><trkpt lat="45.10705772437795" lon="6.952064602327904"><ele>755.3333333333334</ele><time>2026-04-18T14:09:22Z</time></trkpt><trkpt lat="45.10713483420407" lon="6.952355698971761"><ele>751.0</ele><time>2026-04-18T14:09:23Z</time></trkpt><trkpt lat="45.10721595667426" lon="6.9526800241396325"><ele>745.5</ele><time>2026-04-18T14:09:24Z</time></trkpt><trkpt lat="45.10729323128209" lon="6.953032437267845"><ele>740.0</ele><time>2026-04-18T14:09:25Z</time></trkpt><trkpt lat="45.107369159604616" lon="6.953387039441435"><ele>746.5</ele><time>2026-04-18T14:09:26Z</time></trkpt><trkpt lat="45.10744452173893" lon="6.9537158324533905"><ele>753.0</ele><time>2026-04-18T14:09:27Z</time></trkpt><trkpt lat="45.10754190067445" lon="6.954040326424415"><ele>745.5</ele><time>2026-04-18T14:09:28Z</time></trkpt><trkpt lat="45.10762538767262" lon="6.954383313874305"><ele>738.0</ele><time>2026-04-18T14:09:29Z</time></trkpt><trkpt lat="45.10770069371861" lon="6.954715349865366"><ele>741.0</ele><time>2026-04-18T14:09:30Z</time></trkpt><trkpt lat="45.10777694432874" lon="6.955046504497436"><ele>744.0</ele><time>2026-04-18T14:09:31Z</time></trkpt><trkpt lat="45.107856351302885" lon="6.95536341215966"><ele>744.0</ele><time>2026-04-18T14:09:32Z</time></trkpt><trkpt lat="45.107939902950214" lon="6.955683111671823"><ele>744.0</ele><time>2026-04-18T14:09:33Z</time></trkpt><trkpt lat="45.108036763167895" lon="6.955985620506509"><ele>751.0</ele><time>2026-04-18T14:09:34Z</time></trkpt><trkpt lat="45.1081357429765" lon="6.95627959165988"><ele>758.0</ele><time>2026-04-18T14:09:35Z</time></trkpt><trkpt lat="45.10823073362747" lon="6.95660675873016"><ele>765.5</ele><time>2026-04-18T14:09:36Z</time></trkpt><trkpt lat="45.108334628654156" lon="6.95689984597176"><ele>773.0</ele><time>2026-04-18T14:09:37Z</time></trkpt><trkpt lat="45.108444022875986" lon="6.957194773865634"><ele>773.0</ele><time>2026-04-18T14:09:38Z</time></trkpt><trkpt lat="45.10852486556349" lon="6.957471546468569"><ele>773.0</ele><time>2026-04-18T14:09:39Z</time></trkpt><trkpt lat="45.108585413475254" lon="6.957747038593859"><ele>773.0</ele><time>2026-04-18T14:09:40Z</time></trkpt><trkpt lat="45.10861138032674" lon="6.958054636182164"><ele>774.6666666666667</ele><time>2026-04-18T14:09:41Z</time></trkpt><trkpt lat="45.10863116856661" lon="6.958343085143398"><ele>776.3333333333333</ele><time>2026-04-18T14:09:42Z</time></trkpt><trkpt lat="45.10863431919566" lon="6.958676678487333"><ele>778.0</ele><time>2026-04-18T14:09:43Z</time></trkpt><trkpt lat="45.108633907074825" lon="6.9590033041619535"><ele>784.6666666666666</ele><time>2026-04-18T14:09:44Z</time></trkpt><trkpt lat="45.10863645648039" lon="6.959301990693856"><ele>791.3333333333333</ele><time>2026-04-18T14:09:45Z</time></trkpt><trkpt lat="45.108647061468275" lon="6.959580694328794"><ele>798.0</ele><time>2026-04-18T14:09:46Z</time></trkpt><trkpt lat="45.10866704806422" lon="6.959855494639632"><ele>805.0</ele><time>2026-04-18T14:09:47Z</time></trkpt><trkpt lat="45.10874777660383" lon="6.9600950382634315"><ele>812.0</ele><time>2026-04-18T14:09:48Z</time></trkpt><trkpt lat="45.10885629226273" lon="6.960324119799636"><ele>819.0</ele><time>2026-04-18T14:09:49Z</time></trkpt><trkpt lat="45.108982892113296" lon="6.960598776720012"><ele>812.6666666666667</ele><time>2026-04-18T14:09:50Z</time></trkpt><trkpt lat="45.109142741451315" lon="6.960848503494944"><ele>806.3333333333334</ele><time>2026-04-18T14:09:51Z</time></trkpt><trkpt lat="45.10924233488222" lon="6.961070155098206"><ele>800.0</ele><time>2026-04-18T14:09:52Z</time></trkpt><trkpt lat="45.109317018230996" lon="6.961338292129008"><ele>800.0</ele><time>2026-04-18T14:09:53Z</time></trkpt><trkpt lat="45.109398443819494" lon="6.961570266339472"><ele>800.0</ele><time>2026-04-18T14:09:54Z</time></trkpt><trkpt lat="45.109481750814254" lon="6.961777522005118"><ele>800.0</ele><time>2026-04-18T14:09:55Z</time></trkpt><trkpt lat="45.109570647900625" lon="6.961995905835767"><ele>805.3333333333334</ele><time>2026-04-18T14:09:56Z</time></trkpt><trkpt lat="45.1096847598151" lon="6.962198847048381"><ele>810.6666666666667</ele><time>2026-04-18T14:09:57Z</time></trkpt><trkpt lat="45.10980475523463" lon="6.962390582972602"><ele>816.0</ele><time>2026-04-18T14:09:58Z</time></trkpt><trkpt lat="45.10989022395184" lon="6.962564125328629"><ele>808.3333333333333</ele><time>2026-04-18T14:09:59Z</time></trkpt><trkpt lat="45.10994321917463" lon="6.962765882534168"><ele>800.6666666666666</ele><time>2026-04-18T14:10:00Z</time></trkpt><trkpt lat="45.110003850334934" lon="6.962971059093109"><ele>793.0</ele><time>2026-04-18T14:10:01Z</time></trkpt><trkpt lat="45.11007610286339" lon="6.9631811216242365"><ele>798.6666666666666</ele><time>2026-04-18T14:10:02Z</time></trkpt><trkpt lat="45.110163493913745" lon="6.96339077880361"><ele>804.3333333333333</ele><time>2026-04-18T14:10:03Z</time></trkpt><trkpt lat="45.110275256873315" lon="6.963573365995714"><ele>810.0</ele><time>2026-04-18T14:10:04Z</time></trkpt><trkpt lat="45.11036268500852" lon="6.963794435447522"><ele>810.0</ele><time>2026-04-18T14:10:05Z</time></trkpt><trkpt lat="45.11048448371779" lon="6.964000714273377"><ele>810.0</ele><time>2026-04-18T14:10:06Z</time></trkpt><trkpt lat="45.11059023780045" lon="6.964220809325682"><ele>810.0</ele><time>2026-04-18T14:10:07Z</time></trkpt><trkpt lat="45.110693959267934" lon="6.964421287596421"><ele>804.6666666666667</ele><time>2026-04-18T14:10:08Z</time></trkpt><trkpt lat="45.11081343836078" lon="6.964603427013117"><ele>799.3333333333334</ele><time>2026-04-18T14:10:09Z</time></trkpt><trkpt lat="45.11096844959402" lon="6.964732645106428"><ele>794.0</ele><time>2026-04-18T14:10:10Z</time></trkpt><trkpt lat="45.111063680992075" lon="6.96494212609994"><ele>798.3333333333334</ele><time>2026-04-18T14:10:11Z</time></trkpt><trkpt lat="45.11118279251938" lon="6.96512091403049"><ele>802.6666666666667</ele><time>2026-04-18T14:10:12Z</time></trkpt><trkpt lat="45.11125262293607" lon="6.9652723488469075"><ele>807.0</ele><time>2026-04-18T14:10:13Z</time></trkpt><trkpt lat="45.11136581163814" lon="6.965412435040247"><ele>807.0</ele><time>2026-04-18T14:10:14Z</time></trkpt><trkpt lat="45.11142066146607" lon="6.9655908375795885"><ele>807.0</ele><time>2026-04-18T14:10:15Z</time></trkpt><trkpt lat="45.11155309880693" lon="6.965736278223155"><ele>807.0</ele><time>2026-04-18T14:10:16Z</time></trkpt><trkpt lat="45.11163774417948" lon="6.965886403409168"><ele>807.0</ele><time>2026-04-18T14:10:17Z</time></trkpt><trkpt lat="45.11171231948994" lon="6.965971709675306"><ele>804.8333333333334</ele><time>2026-04-18T14:10:18Z</time></trkpt><trkpt lat="45.111779570885616" lon="6.966087188076433"><ele>802.6666666666667</ele><time>2026-04-18T14:10:19Z</time></trkpt><trkpt lat="45.111806352692476" lon="6.96618340850037"><ele>800.5</ele><time>2026-04-18T14:10:20Z</time></trkpt><trkpt lat="45.111848837238604" lon="6.966276456631607"><ele>798.3333333333334</ele><time>2026-04-18T14:10:22Z</time></trkpt><trkpt lat="45.111865672350184" lon="6.966379094773717"><ele>796.1666666666667</ele><time>2026-04-18T14:10:26Z</time></trkpt><trkpt lat="45.11186635828734" lon="6.966496793196255"><ele>794.0</ele><time>2026-04-18T14:10:29Z</time></trkpt><trkpt lat="45.11187033710173" lon="6.966588502071628"><ele>794.0000000000001</ele><time>2026-04-18T14:10:31Z</time></trkpt><trkpt lat="45.11187476851894" lon="6.966690643170665"><ele>794.0</ele><time>2026-04-18T14:10:34Z</time></trkpt><trkpt lat="45.11187940013193" lon="6.9668008759601925"><ele>794.0</ele><time>2026-04-18T14:10:36Z</time></trkpt><trkpt lat="45.11188320273097" lon="6.96690151805554"><ele>794.0</ele><time>2026-04-18T14:10:38Z</time></trkpt><trkpt lat="45.11188709020038" lon="6.967016290518175"><ele>794.0000000000001</ele><time>2026-04-18T14:10:40Z</time></trkpt><trkpt lat="45.11189122708197" lon="6.967166161726545"><ele>794.0</ele><time>2026-04-18T14:10:42Z</time></trkpt><trkpt lat="45.11189347969232" lon="6.9672586116573685"><ele>795.0</ele><time>2026-04-18T14:10:43Z</time></trkpt><trkpt lat="45.11189744341055" lon="6.967424670562645"><ele>796.0</ele><time>2026-04-18T14:10:45Z</time></trkpt><trkpt lat="45.111898943983036" lon="6.967536124894027"><ele>797.0</ele><time>2026-04-18T14:10:46Z</time></trkpt><trkpt lat="45.11190058354896" lon="6.967652150294926"><ele>798.0</ele><time>2026-04-18T14:10:47Z</time></trkpt><trkpt lat="45.11190195545441" lon="6.967768633103319"><ele>799.0</ele><time>2026-04-18T14:10:48Z</time></trkpt><trkpt lat="45.11190195545741" lon="6.9679161444842554"><ele>799.0</ele><time>2026-04-18T14:10:49Z</time></trkpt><trkpt lat="45.11189967809571" lon="6.968068847888417"><ele>799.0</ele><time>2026-04-18T14:10:50Z</time></trkpt><trkpt lat="45.11189436755811" lon="6.968250694519546"><ele>799.0</ele><time>2026-04-18T14:10:51Z</time></trkpt><trkpt lat="45.11188855419863" lon="6.968425126027081"><ele>799.0</ele><time>2026-04-18T14:10:52Z</time></trkpt><trkpt lat="45.1118817457682" lon="6.968629414782428"><ele>799.25</ele><time>2026-04-18T14:10:53Z</time></trkpt><trkpt lat="45.11187647718014" lon="6.968811005797678"><ele>799.5</ele><time>2026-04-18T14:10:54Z</time></trkpt><trkpt lat="45.11189311087463" lon="6.9690049085616765"><ele>799.75</ele><time>2026-04-18T14:10:55Z</time></trkpt><trkpt lat="45.11191535378318" lon="6.969179353889965"><ele>800.0</ele><time>2026-04-18T14:10:56Z</time></trkpt><trkpt lat="45.111959292781926" lon="6.9693603618112405"><ele>804.75</ele><time>2026-04-18T14:10:57Z</time></trkpt><trkpt lat="45.112006236214775" lon="6.9695557722209305"><ele>809.5</ele><time>2026-04-18T14:10:58Z</time></trkpt><trkpt lat="45.11206354038337" lon="6.969741187294336"><ele>814.25</ele><time>2026-04-18T14:10:59Z</time></trkpt><trkpt lat="45.112177977386125" lon="6.969791779157934"><ele>819.0</ele><time>2026-04-18T14:11:00Z</time></trkpt><trkpt lat="45.112285223545975" lon="6.969873581246022"><ele>815.6666666666667</ele><time>2026-04-18T14:11:01Z</time></trkpt><trkpt lat="45.11242627188242" lon="6.969974400100064"><ele>812.3333333333334</ele><time>2026-04-18T14:11:02Z</time></trkpt><trkpt lat="45.11254444343962" lon="6.970059727736056"><ele>809.0</ele><time>2026-04-18T14:11:03Z</time></trkpt><trkpt lat="45.11269781356381" lon="6.970170470625336"><ele>809.0</ele><time>2026-04-18T14:11:04Z</time></trkpt><trkpt lat="45.11286446107467" lon="6.970294408496613"><ele>809.0</ele><time>2026-04-18T14:11:05Z</time></trkpt><trkpt lat="45.11305841563798" lon="6.970467081622761"><ele>809.0</ele><time>2026-04-18T14:11:06Z</time></trkpt><trkpt lat="45.11324272570272" lon="6.970654117855478"><ele>803.0</ele><time>2026-04-18T14:11:07Z</time></trkpt><trkpt lat="45.1133596988004" lon="6.9708573100306355"><ele>797.0</ele><time>2026-04-18T14:11:08Z</time></trkpt><trkpt lat="45.1134545869434" lon="6.971090883154076"><ele>791.0</ele><time>2026-04-18T14:11:09Z</time></trkpt><trkpt lat="45.113552879371035" lon="6.971383921287849"><ele>791.0</ele><time>2026-04-18T14:11:10Z</time></trkpt><trkpt lat="45.11363746136214" lon="6.971632295086238"><ele>791.0</ele><time>2026-04-18T14:11:11Z</time></trkpt><trkpt lat="45.11374492734774" lon="6.97185653296434"><ele>791.0</ele><time>2026-04-18T14:11:12Z</time></trkpt><trkpt lat="45.11380770197575" lon="6.972101289603378"><ele>789.6666666666667</ele><time>2026-04-18T14:11:13Z</time></trkpt><trkpt lat="45.11389383772861" lon="6.9723150693347495"><ele>788.3333333333333</ele><time>2026-04-18T14:11:14Z</time></trkpt><trkpt lat="45.11398156009962" lon="6.9725127038239885"><ele>787.0</ele><time>2026-04-18T14:11:15Z</time></trkpt><trkpt lat="45.11409449404158" lon="6.97267296613018"><ele>787.0</ele><time>2026-04-18T14:11:16Z</time></trkpt><trkpt lat="45.11419376275935" lon="6.972884388291866"><ele>787.0</ele><time>2026-04-18T14:11:17Z</time></trkpt><trkpt lat="45.114335136541385" lon="6.973091067796653"><ele>787.0</ele><time>2026-04-18T14:11:18Z</time></trkpt><trkpt lat="45.114468494119755" lon="6.973284371166727"><ele>789.3333333333333</ele><time>2026-04-18T14:11:19Z</time></trkpt><trkpt lat="45.1146370005109" lon="6.973458938849565"><ele>791.6666666666667</ele><time>2026-04-18T14:11:20Z</time></trkpt><trkpt lat="45.114758099111334" lon="6.973643364416998"><ele>794.0</ele><time>2026-04-18T14:11:21Z</time></trkpt><trkpt lat="45.11488838972195" lon="6.973818897330262"><ele>791.0</ele><time>2026-04-18T14:11:22Z</time></trkpt><trkpt lat="45.11505173660914" lon="6.973996390902821"><ele>788.0</ele><time>2026-04-18T14:11:23Z</time></trkpt><trkpt lat="45.115206010273354" lon="6.974195004103214"><ele>785.0</ele><time>2026-04-18T14:11:24Z</time></trkpt><trkpt lat="45.115339823049965" lon="6.9744020320728355"><ele>785.0</ele><time>2026-04-18T14:11:25Z</time></trkpt><trkpt lat="45.11545762030727" lon="6.974622922371412"><ele>785.0</ele><time>2026-04-18T14:11:26Z</time></trkpt><trkpt lat="45.11559382152778" lon="6.974828220032535"><ele>785.0</ele><time>2026-04-18T14:11:27Z</time></trkpt><trkpt lat="45.11574064192024" lon="6.97503359897119"><ele>783.3333333333334</ele><time>2026-04-18T14:11:28Z</time></trkpt><trkpt lat="45.11587494756124" lon="6.97523713912847"><ele>781.6666666666667</ele><time>2026-04-18T14:11:29Z</time></trkpt><trkpt lat="45.1159981260991" lon="6.975455360635906"><ele>780.0</ele><time>2026-04-18T14:11:30Z</time></trkpt><trkpt lat="45.1161391052896" lon="6.975626774800638"><ele>780.0</ele><time>2026-04-18T14:11:31Z</time></trkpt><trkpt lat="45.116266560112805" lon="6.97583659017887"><ele>780.0</ele><time>2026-04-18T14:11:32Z</time></trkpt><trkpt lat="45.11639157913339" lon="6.976041573495231"><ele>780.0</ele><time>2026-04-18T14:11:33Z</time></trkpt><trkpt lat="45.1165224682855" lon="6.976245031307701"><ele>777.0</ele><time>2026-04-18T14:11:34Z</time></trkpt><trkpt lat="45.11663779901322" lon="6.976433402743284"><ele>774.0</ele><time>2026-04-18T14:11:35Z</time></trkpt><trkpt lat="45.11675893473343" lon="6.976617964611531"><ele>771.0</ele><time>2026-04-18T14:11:36Z</time></trkpt><trkpt lat="45.11685090022333" lon="6.976826193027528"><ele>770.0</ele><time>2026-04-18T14:11:37Z</time></trkpt><trkpt lat="45.11692710800773" lon="6.977028164072553"><ele>769.0</ele><time>2026-04-18T14:11:38Z</time></trkpt><trkpt lat="45.11698729227618" lon="6.97723120054936"><ele>768.0</ele><time>2026-04-18T14:11:39Z</time></trkpt><trkpt lat="45.1171096757488" lon="6.977385079338765"><ele>767.6666666666666</ele><time>2026-04-18T14:11:40Z</time></trkpt><trkpt lat="45.11708130767801" lon="6.977622149527683"><ele>767.3333333333333</ele><time>2026-04-18T14:11:41Z</time></trkpt><trkpt lat="45.117094021815106" lon="6.9778403230300015"><ele>767.0</ele><time>2026-04-18T14:11:42Z</time></trkpt><trkpt lat="45.11710875989713" lon="6.978059812852671"><ele>767.0</ele><time>2026-04-18T14:11:43Z</time></trkpt><trkpt lat="45.117113773627985" lon="6.978277909248732"><ele>767.0</ele><time>2026-04-18T14:11:44Z</time></trkpt><trkpt lat="45.11709241778952" lon="6.978482707919397"><ele>767.0</ele><time>2026-04-18T14:11:45Z</time></trkpt><trkpt lat="45.11709754839954" lon="6.978683697555775"><ele>767.0</ele><time>2026-04-18T14:11:46Z</time></trkpt><trkpt lat="45.11710244223547" lon="6.978875411877743"><ele>766.25</ele><time>2026-04-18T14:11:47Z</time></trkpt><trkpt lat="45.11710740599207" lon="6.979069864992098"><ele>765.5</ele><time>2026-04-18T14:11:48Z</time></trkpt><trkpt lat="45.11711240213385" lon="6.979265587081262"><ele>764.75</ele><time>2026-04-18T14:11:49Z</time></trkpt><trkpt lat="45.11711798539907" lon="6.979456921128507"><ele>764.0</ele><time>2026-04-18T14:11:50Z</time></trkpt><trkpt lat="45.117123756944146" lon="6.9796380677467535"><ele>763.75</ele><time>2026-04-18T14:11:51Z</time></trkpt><trkpt lat="45.11714602073143" lon="6.979823403870301"><ele>763.5</ele><time>2026-04-18T14:11:52Z</time></trkpt><trkpt lat="45.11715054434215" lon="6.98000884481318"><ele>763.25</ele><time>2026-04-18T14:11:53Z</time></trkpt><trkpt lat="45.117130257204785" lon="6.980201430959969"><ele>763.0</ele><time>2026-04-18T14:11:54Z</time></trkpt><trkpt lat="45.11714136002071" lon="6.980394736550966"><ele>764.5</ele><time>2026-04-18T14:11:55Z</time></trkpt><trkpt lat="45.11714603971237" lon="6.980579898611311"><ele>766.0</ele><time>2026-04-18T14:11:56Z</time></trkpt><trkpt lat="45.117152728278434" lon="6.980764337099811"><ele>767.5</ele><time>2026-04-18T14:11:57Z</time></trkpt><trkpt lat="45.117159222493974" lon="6.980956502881333"><ele>769.0</ele><time>2026-04-18T14:11:58Z</time></trkpt><trkpt lat="45.117173721024756" lon="6.9811377133867065"><ele>770.25</ele><time>2026-04-18T14:11:59Z</time></trkpt><trkpt lat="45.11717811521193" lon="6.9813326352210545"><ele>771.5</ele><time>2026-04-18T14:12:00Z</time></trkpt><trkpt lat="45.117198369291785" lon="6.981507936782395"><ele>772.75</ele><time>2026-04-18T14:12:01Z</time></trkpt><trkpt lat="45.117204028417426" lon="6.981677879980887"><ele>774.0</ele><time>2026-04-18T14:12:02Z</time></trkpt><trkpt lat="45.11721599876005" lon="6.981869852468702"><ele>776.25</ele><time>2026-04-18T14:12:03Z</time></trkpt><trkpt lat="45.11722679059152" lon="6.982069730842737"><ele>778.5</ele><time>2026-04-18T14:12:04Z</time></trkpt><trkpt lat="45.11724879238026" lon="6.9822635527600605"><ele>780.75</ele><time>2026-04-18T14:12:05Z</time></trkpt><trkpt lat="45.117271053640394" lon="6.982424976292268"><ele>783.0</ele><time>2026-04-18T14:12:06Z</time></trkpt><trkpt lat="45.117303567480114" lon="6.982608318704813"><ele>785.0</ele><time>2026-04-18T14:12:07Z</time></trkpt><trkpt lat="45.11735256214561" lon="6.982791413134351"><ele>787.0</ele><time>2026-04-18T14:12:08Z</time></trkpt><trkpt lat="45.11740103583428" lon="6.982959378964522"><ele>789.0</ele><time>2026-04-18T14:12:09Z</time></trkpt><trkpt lat="45.1174779526489" lon="6.983112105324573"><ele>791.0</ele><time>2026-04-18T14:12:10Z</time></trkpt><trkpt lat="45.11756251774525" lon="6.983264024282784"><ele>785.5</ele><time>2026-04-18T14:12:11Z</time></trkpt><trkpt lat="45.11764268788049" lon="6.983392321570289"><ele>780.0</ele><time>2026-04-18T14:12:12Z</time></trkpt><trkpt lat="45.1177339852414" lon="6.9835016799496135"><ele>774.5</ele><time>2026-04-18T14:12:13Z</time></trkpt><trkpt lat="45.11782084756518" lon="6.983608457890565"><ele>769.0</ele><time>2026-04-18T14:12:14Z</time></trkpt><trkpt lat="45.11789825645672" lon="6.983737603545713"><ele>769.0</ele><time>2026-04-18T14:12:15Z</time></trkpt><trkpt lat="45.11799132891453" lon="6.983828428469044"><ele>769.0</ele><time>2026-04-18T14:12:16Z</time></trkpt><trkpt lat="45.118053576410816" lon="6.98396642603343"><ele>769.0</ele><time>2026-04-18T14:12:17Z</time></trkpt><trkpt lat="45.11811396804733" lon="6.984087502265106"><ele>769.0</ele><time>2026-04-18T14:12:18Z</time></trkpt><trkpt lat="45.11818508067081" lon="6.984195202496513"><ele>769.0</ele><time>2026-04-18T14:12:19Z</time></trkpt><trkpt lat="45.118269741850284" lon="6.984297556392523"><ele>767.75</ele><time>2026-04-18T14:12:20Z</time></trkpt><trkpt lat="45.11835118209408" lon="6.984404790094048"><ele>766.5</ele><time>2026-04-18T14:12:21Z</time></trkpt><trkpt lat="45.11844002360756" lon="6.984534800512611"><ele>765.25</ele><time>2026-04-18T14:12:22Z</time></trkpt><trkpt lat="45.11852301447532" lon="6.984682334727013"><ele>764.0</ele><time>2026-04-18T14:12:23Z</time></trkpt><trkpt lat="45.118582619115884" lon="6.984796510930886"><ele>764.0</ele><time>2026-04-18T14:12:24Z</time></trkpt><trkpt lat="45.11864939880386" lon="6.984921829165662"><ele>764.0</ele><time>2026-04-18T14:12:25Z</time></trkpt><trkpt lat="45.11873201083666" lon="6.985054327638238"><ele>764.0</ele><time>2026-04-18T14:12:26Z</time></trkpt><trkpt lat="45.11882150273576" lon="6.9851811402294315"><ele>764.0</ele><time>2026-04-18T14:12:27Z</time></trkpt><trkpt lat="45.11890746242001" lon="6.9853115982969785"><ele>765.25</ele><time>2026-04-18T14:12:28Z</time></trkpt><trkpt lat="45.11897599083764" lon="6.98546246478389"><ele>766.5</ele><time>2026-04-18T14:12:29Z</time></trkpt><trkpt lat="45.119067565974355" lon="6.985584527768825"><ele>767.75</ele><time>2026-04-18T14:12:30Z</time></trkpt><trkpt lat="45.11916914195968" lon="6.985714542733432"><ele>769.0</ele><time>2026-04-18T14:12:31Z</time></trkpt><trkpt lat="45.119266295530096" lon="6.985820715644641"><ele>768.0</ele><time>2026-04-18T14:12:32Z</time></trkpt><trkpt lat="45.11935923985029" lon="6.985932782599362"><ele>767.0</ele><time>2026-04-18T14:12:33Z</time></trkpt><trkpt lat="45.11946642203352" lon="6.986058665538103"><ele>766.0</ele><time>2026-04-18T14:12:34Z</time></trkpt><trkpt lat="45.119589235028" lon="6.986155362607647"><ele>765.0</ele><time>2026-04-18T14:12:35Z</time></trkpt><trkpt lat="45.119692436526165" lon="6.986250698328887"><ele>765.0</ele><time>2026-04-18T14:12:36Z</time></trkpt><trkpt lat="45.11978205659886" lon="6.986338907712364"><ele>765.0</ele><time>2026-04-18T14:12:37Z</time></trkpt><trkpt lat="45.11990696092607" lon="6.986391485777842"><ele>765.0</ele><time>2026-04-18T14:12:38Z</time></trkpt><trkpt lat="45.1200463117281" lon="6.986410948070425"><ele>765.0</ele><time>2026-04-18T14:12:39Z</time></trkpt><trkpt lat="45.12019942229965" lon="6.986417817956518"><ele>764.75</ele><time>2026-04-18T14:12:40Z</time></trkpt><trkpt lat="45.12032925449541" lon="6.986479361323953"><ele>764.5</ele><time>2026-04-18T14:12:41Z</time></trkpt><trkpt lat="45.120458393161705" lon="6.986552627660639"><ele>764.25</ele><time>2026-04-18T14:12:42Z</time></trkpt><trkpt lat="45.12057556279219" lon="6.986703642217154"><ele>764.0</ele><time>2026-04-18T14:12:43Z</time></trkpt><trkpt lat="45.12069765480954" lon="6.986813199090774"><ele>760.6666666666666</ele><time>2026-04-18T14:12:44Z</time></trkpt><trkpt lat="45.12076750350579" lon="6.986974098959773"><ele>757.3333333333334</ele><time>2026-04-18T14:12:45Z</time></trkpt><trkpt lat="45.12083522610749" lon="6.987151820217525"><ele>754.0</ele><time>2026-04-18T14:12:46Z</time></trkpt><trkpt lat="45.12092553051019" lon="6.9873949235114425"><ele>754.6666666666667</ele><time>2026-04-18T14:12:47Z</time></trkpt><trkpt lat="45.121011515521786" lon="6.9876294857805865"><ele>755.3333333333334</ele><time>2026-04-18T14:12:48Z</time></trkpt><trkpt lat="45.121094065909176" lon="6.987854779639516"><ele>756.0</ele><time>2026-04-18T14:12:49Z</time></trkpt><trkpt lat="45.121179542366" lon="6.988088987380319"><ele>756.0</ele><time>2026-04-18T14:12:50Z</time></trkpt><trkpt lat="45.12126861640326" lon="6.988333052589276"><ele>756.0</ele><time>2026-04-18T14:12:51Z</time></trkpt><trkpt lat="45.121365041150284" lon="6.9885727208069754"><ele>756.0</ele><time>2026-04-18T14:12:52Z</time></trkpt><trkpt lat="45.12145616826892" lon="6.988784191065545"><ele>756.6666666666666</ele><time>2026-04-18T14:12:53Z</time></trkpt><trkpt lat="45.12153590483581" lon="6.989012639236781"><ele>757.3333333333333</ele><time>2026-04-18T14:12:54Z</time></trkpt><trkpt lat="45.12161141383892" lon="6.989214918883404"><ele>758.0</ele><time>2026-04-18T14:12:55Z</time></trkpt><trkpt lat="45.121689724507306" lon="6.989432256898675"><ele>755.0</ele><time>2026-04-18T14:12:56Z</time></trkpt><trkpt lat="45.12175026526106" lon="6.989670829714007"><ele>752.0</ele><time>2026-04-18T14:12:57Z</time></trkpt><trkpt lat="45.121818060042024" lon="6.989880556713728"><ele>749.0</ele><time>2026-04-18T14:12:58Z</time></trkpt><trkpt lat="45.12187537108861" lon="6.990103938500712"><ele>749.0</ele><time>2026-04-18T14:12:59Z</time></trkpt><trkpt lat="45.12192120113658" lon="6.990342512929164"><ele>749.0</ele><time>2026-04-18T14:13:00Z</time></trkpt><trkpt lat="45.12195705801055" lon="6.9905917711518635"><ele>749.0</ele><time>2026-04-18T14:13:01Z</time></trkpt><trkpt lat="45.12199793993084" lon="6.990866995374503"><ele>750.0</ele><time>2026-04-18T14:13:02Z</time></trkpt><trkpt lat="45.12205298199175" lon="6.9911349383494"><ele>751.0</ele><time>2026-04-18T14:13:03Z</time></trkpt><trkpt lat="45.12212032499535" lon="6.991406020585554"><ele>752.0</ele><time>2026-04-18T14:13:04Z</time></trkpt><trkpt lat="45.12220751122416" lon="6.9916761806284"><ele>753.0</ele><time>2026-04-18T14:13:05Z</time></trkpt><trkpt lat="45.122275891282214" lon="6.991943872487162"><ele>754.0</ele><time>2026-04-18T14:13:06Z</time></trkpt><trkpt lat="45.122340090316875" lon="6.9922202658354955"><ele>755.0</ele><time>2026-04-18T14:13:07Z</time></trkpt><trkpt lat="45.12241641276577" lon="6.992500912172533"><ele>751.0</ele><time>2026-04-18T14:13:08Z</time></trkpt><trkpt lat="45.12249180891937" lon="6.992778144956412"><ele>747.0</ele><time>2026-04-18T14:13:09Z</time></trkpt><trkpt lat="45.122566715569114" lon="6.993059673130999"><ele>743.0</ele><time>2026-04-18T14:13:10Z</time></trkpt><trkpt lat="45.1226418391264" lon="6.99334316279621"><ele>743.0</ele><time>2026-04-18T14:13:11Z</time></trkpt><trkpt lat="45.122717272802355" lon="6.993627822663899"><ele>743.0</ele><time>2026-04-18T14:13:12Z</time></trkpt><trkpt lat="45.12279482699317" lon="6.993919679856974"><ele>743.0</ele><time>2026-04-18T14:13:13Z</time></trkpt><trkpt lat="45.12287152396452" lon="6.994207504247584"><ele>745.0</ele><time>2026-04-18T14:13:14Z</time></trkpt><trkpt lat="45.122948435420994" lon="6.994496133462696"><ele>747.0</ele><time>2026-04-18T14:13:15Z</time></trkpt><trkpt lat="45.1230342578826" lon="6.994765084760593"><ele>749.0</ele><time>2026-04-18T14:13:16Z</time></trkpt><trkpt lat="45.12310800641472" lon="6.9950651478327766"><ele>747.3333333333333</ele><time>2026-04-18T14:13:17Z</time></trkpt><trkpt lat="45.12317810206901" lon="6.995332723855614"><ele>745.6666666666666</ele><time>2026-04-18T14:13:18Z</time></trkpt><trkpt lat="45.12323929752619" lon="6.995599561978284"><ele>744.0</ele><time>2026-04-18T14:13:19Z</time></trkpt><trkpt lat="45.12332795530469" lon="6.9958381838318475"><ele>744.0</ele><time>2026-04-18T14:13:20Z</time></trkpt><trkpt lat="45.12341210491214" lon="6.996076427967357"><ele>744.0</ele><time>2026-04-18T14:13:21Z</time></trkpt><trkpt lat="45.123504433514164" lon="6.996313025047222"><ele>744.0</ele><time>2026-04-18T14:13:22Z</time></trkpt><trkpt lat="45.1235900845471" lon="6.996547516522981"><ele>745.6666666666666</ele><time>2026-04-18T14:13:23Z</time></trkpt><trkpt lat="45.12370039475689" lon="6.996769981593281"><ele>747.3333333333333</ele><time>2026-04-18T14:13:24Z</time></trkpt><trkpt lat="45.12380848395314" lon="6.996990758262191"><ele>749.0</ele><time>2026-04-18T14:13:25Z</time></trkpt><trkpt lat="45.123920371780926" lon="6.997198550761377"><ele>746.6666666666666</ele><time>2026-04-18T14:13:26Z</time></trkpt><trkpt lat="45.12407441206311" lon="6.99736549645737"><ele>744.3333333333334</ele><time>2026-04-18T14:13:27Z</time></trkpt><trkpt lat="45.12419959122226" lon="6.997571410401334"><ele>742.0</ele><time>2026-04-18T14:13:28Z</time></trkpt><trkpt lat="45.12434235320298" lon="6.997755681372999"><ele>742.0</ele><time>2026-04-18T14:13:29Z</time></trkpt><trkpt lat="45.12443272260539" lon="6.997966016606031"><ele>742.0</ele><time>2026-04-18T14:13:30Z</time></trkpt><trkpt lat="45.12451889279528" lon="6.99817325749387"><ele>742.0</ele><time>2026-04-18T14:13:31Z</time></trkpt><trkpt lat="45.124586159480224" lon="6.998380203275187"><ele>742.0</ele><time>2026-04-18T14:13:32Z</time></trkpt><trkpt lat="45.12464729359721" lon="6.998610453591533"><ele>742.0</ele><time>2026-04-18T14:13:33Z</time></trkpt><trkpt lat="45.124693209608516" lon="6.998848310194424"><ele>742.0</ele><time>2026-04-18T14:13:34Z</time></trkpt><trkpt lat="45.12472014286959" lon="6.999112188515614"><ele>743.0</ele><time>2026-04-18T14:13:35Z</time></trkpt><trkpt lat="45.124727455388154" lon="6.999378050075004"><ele>744.0</ele><time>2026-04-18T14:13:36Z</time></trkpt><trkpt lat="45.1247151919652" lon="6.999665417444899"><ele>745.0</ele><time>2026-04-18T14:13:37Z</time></trkpt><trkpt lat="45.124691275267516" lon="6.999961166780818"><ele>745.0</ele><time>2026-04-18T14:13:38Z</time></trkpt><trkpt lat="45.124663087397" lon="7.000258403020012"><ele>745.0</ele><time>2026-04-18T14:13:39Z</time></trkpt><trkpt lat="45.12463450329896" lon="7.000556562425271"><ele>745.0</ele><time>2026-04-18T14:13:40Z</time></trkpt><trkpt lat="45.12460568669632" lon="7.00085159105816"><ele>745.0</ele><time>2026-04-18T14:13:41Z</time></trkpt><trkpt lat="45.12457846476063" lon="7.001138459850603"><ele>745.0</ele><time>2026-04-18T14:13:42Z</time></trkpt><trkpt lat="45.12455666725068" lon="7.001421771158986"><ele>745.0</ele><time>2026-04-18T14:13:43Z</time></trkpt><trkpt lat="45.12455667084746" lon="7.001690431687493"><ele>745.6666666666667</ele><time>2026-04-18T14:13:44Z</time></trkpt><trkpt lat="45.12456782652903" lon="7.001949251575112"><ele>746.3333333333334</ele><time>2026-04-18T14:13:45Z</time></trkpt><trkpt lat="45.1245765118756" lon="7.0022072135009905"><ele>747.0</ele><time>2026-04-18T14:13:46Z</time></trkpt><trkpt lat="45.124656064979874" lon="7.00244193336618"><ele>748.6666666666666</ele><time>2026-04-18T14:13:47Z</time></trkpt><trkpt lat="45.12477411701528" lon="7.002686497098455"><ele>750.3333333333333</ele><time>2026-04-18T14:13:48Z</time></trkpt><trkpt lat="45.12488354926385" lon="7.002892313733417"><ele>752.0</ele><time>2026-04-18T14:13:49Z</time></trkpt><trkpt lat="45.12498214545583" lon="7.003076524765327"><ele>748.0</ele><time>2026-04-18T14:13:50Z</time></trkpt><trkpt lat="45.125115960832424" lon="7.0033321617253055"><ele>744.0</ele><time>2026-04-18T14:13:51Z</time></trkpt><trkpt lat="45.1252508885817" lon="7.003591480477822"><ele>744.0</ele><time>2026-04-18T14:13:52Z</time></trkpt><trkpt lat="45.12535562980934" lon="7.003834663842607"><ele>744.0</ele><time>2026-04-18T14:13:53Z</time></trkpt><trkpt lat="45.125485020994425" lon="7.004068712915818"><ele>744.0</ele><time>2026-04-18T14:13:54Z</time></trkpt><trkpt lat="45.12558941334144" lon="7.004306215426282"><ele>744.6666666666666</ele><time>2026-04-18T14:13:55Z</time></trkpt><trkpt lat="45.12568866493362" lon="7.004530757939065"><ele>745.3333333333333</ele><time>2026-04-18T14:13:56Z</time></trkpt><trkpt lat="45.12580719165926" lon="7.004746853627654"><ele>746.0</ele><time>2026-04-18T14:13:57Z</time></trkpt><trkpt lat="45.125883194058154" lon="7.00497522045222"><ele>745.0</ele><time>2026-04-18T14:13:58Z</time></trkpt><trkpt lat="45.12596768733158" lon="7.005225153961551"><ele>744.0</ele><time>2026-04-18T14:13:59Z</time></trkpt><trkpt lat="45.12604696180419" lon="7.005452466910387"><ele>743.0</ele><time>2026-04-18T14:14:00Z</time></trkpt><trkpt lat="45.12611764028477" lon="7.0057036751807"><ele>744.0</ele><time>2026-04-18T14:14:01Z</time></trkpt><trkpt lat="45.126180665976094" lon="7.005950306084075"><ele>745.0</ele><time>2026-04-18T14:14:02Z</time></trkpt><trkpt lat="45.12623892607158" lon="7.00618050552968"><ele>746.0</ele><time>2026-04-18T14:14:03Z</time></trkpt><trkpt lat="45.12627626919466" lon="7.006427946335959"><ele>745.6666666666666</ele><time>2026-04-18T14:14:04Z</time></trkpt><trkpt lat="45.126325385011" lon="7.0066678987669935"><ele>745.3333333333334</ele><time>2026-04-18T14:14:05Z</time></trkpt><trkpt lat="45.12636592083727" lon="7.00689191108094"><ele>745.0</ele><time>2026-04-18T14:14:06Z</time></trkpt><trkpt lat="45.126410646822656" lon="7.007126285119491"><ele>745.0</ele><time>2026-04-18T14:14:07Z</time></trkpt><trkpt lat="45.12644548763473" lon="7.007360009107637"><ele>745.0</ele><time>2026-04-18T14:14:08Z</time></trkpt><trkpt lat="45.12647965987063" lon="7.007586682460121"><ele>745.0</ele><time>2026-04-18T14:14:09Z</time></trkpt><trkpt lat="45.12651478969605" lon="7.007807959830399"><ele>744.6666666666667</ele><time>2026-04-18T14:14:10Z</time></trkpt><trkpt lat="45.126541105832715" lon="7.008042335010118"><ele>744.3333333333334</ele><time>2026-04-18T14:14:11Z</time></trkpt><trkpt lat="45.12657217721733" lon="7.008283051053734"><ele>744.0</ele><time>2026-04-18T14:14:12Z</time></trkpt><trkpt lat="45.12661684937937" lon="7.008507675321761"><ele>743.6666666666666</ele><time>2026-04-18T14:14:13Z</time></trkpt><trkpt lat="45.126657052545845" lon="7.008748369907172"><ele>743.3333333333333</ele><time>2026-04-18T14:14:14Z</time></trkpt><trkpt lat="45.12669579097439" lon="7.00899298338556"><ele>743.0</ele><time>2026-04-18T14:14:15Z</time></trkpt><trkpt lat="45.126722359635714" lon="7.009231532689379"><ele>743.0</ele><time>2026-04-18T14:14:16Z</time></trkpt><trkpt lat="45.12676067018186" lon="7.009459754955336"><ele>743.0</ele><time>2026-04-18T14:14:17Z</time></trkpt><trkpt lat="45.12679275589226" lon="7.009668388119597"><ele>743.0</ele><time>2026-04-18T14:14:18Z</time></trkpt><trkpt lat="45.12681655737725" lon="7.009861940665929"><ele>743.75</ele><time>2026-04-18T14:14:19Z</time></trkpt><trkpt lat="45.12683988954361" lon="7.010039155735806"><ele>744.5</ele><time>2026-04-18T14:14:20Z</time></trkpt><trkpt lat="45.12687076560008" lon="7.0101962473695405"><ele>745.25</ele><time>2026-04-18T14:14:21Z</time></trkpt><trkpt lat="45.12689167862597" lon="7.010347054577852"><ele>746.0</ele><time>2026-04-18T14:14:22Z</time></trkpt><trkpt lat="45.12692540673261" lon="7.010488965703479"><ele>746.0</ele><time>2026-04-18T14:14:23Z</time></trkpt><trkpt lat="45.12694536322916" lon="7.010653355190907"><ele>746.0</ele><time>2026-04-18T14:14:24Z</time></trkpt><trkpt lat="45.126971584800565" lon="7.010811572986564"><ele>746.0</ele><time>2026-04-18T14:14:25Z</time></trkpt><trkpt lat="45.126969799647554" lon="7.010991505951547"><ele>746.0</ele><time>2026-04-18T14:14:26Z</time></trkpt><trkpt lat="45.126991741944295" lon="7.011147273706674"><ele>746.25</ele><time>2026-04-18T14:14:27Z</time></trkpt><trkpt lat="45.127025550133375" lon="7.011311287668307"><ele>746.5</ele><time>2026-04-18T14:14:28Z</time></trkpt><trkpt lat="45.12705528412711" lon="7.011477953403653"><ele>746.75</ele><time>2026-04-18T14:14:29Z</time></trkpt><trkpt lat="45.12707440578611" lon="7.011660992284167"><ele>747.0</ele><time>2026-04-18T14:14:30Z</time></trkpt><trkpt lat="45.12708839861917" lon="7.01183568648355"><ele>747.5</ele><time>2026-04-18T14:14:31Z</time></trkpt><trkpt lat="45.127099831796414" lon="7.012007169260279"><ele>748.0</ele><time>2026-04-18T14:14:32Z</time></trkpt><trkpt lat="45.12712576074124" lon="7.0121761025953635"><ele>748.5</ele><time>2026-04-18T14:14:33Z</time></trkpt><trkpt lat="45.1271400190108" lon="7.012342694514801"><ele>749.0</ele><time>2026-04-18T14:14:34Z</time></trkpt><trkpt lat="45.12715657754736" lon="7.01250379026645"><ele>749.8000000000001</ele><time>2026-04-18T14:14:35Z</time></trkpt><trkpt lat="45.127180840750974" lon="7.012657669338522"><ele>750.6</ele><time>2026-04-18T14:14:36Z</time></trkpt><trkpt lat="45.127196968611216" lon="7.012805834763874"><ele>751.4</ele><time>2026-04-18T14:14:37Z</time></trkpt><trkpt lat="45.12721138771624" lon="7.012952305034394"><ele>752.2</ele><time>2026-04-18T14:14:38Z</time></trkpt><trkpt lat="45.127226395402644" lon="7.013108754787725"><ele>753.0</ele><time>2026-04-18T14:14:39Z</time></trkpt><trkpt lat="45.12724001602812" lon="7.013260711429333"><ele>754.25</ele><time>2026-04-18T14:14:40Z</time></trkpt><trkpt lat="45.12726024146742" lon="7.013413453281853"><ele>755.5</ele><time>2026-04-18T14:14:41Z</time></trkpt><trkpt lat="45.12728695451101" lon="7.013572854796857"><ele>756.75</ele><time>2026-04-18T14:14:42Z</time></trkpt><trkpt lat="45.127295865110426" lon="7.01374163894528"><ele>758.0</ele><time>2026-04-18T14:14:43Z</time></trkpt><trkpt lat="45.12731149775756" lon="7.0138950052404825"><ele>758.0</ele><time>2026-04-18T14:14:44Z</time></trkpt><trkpt lat="45.12732593162479" lon="7.014057929960719"><ele>758.0</ele><time>2026-04-18T14:14:45Z</time></trkpt><trkpt lat="45.1273220670779" lon="7.01423086873204"><ele>758.0</ele><time>2026-04-18T14:14:46Z</time></trkpt><trkpt lat="45.12731280195665" lon="7.014400257370875"><ele>758.0</ele><time>2026-04-18T14:14:47Z</time></trkpt><trkpt lat="45.127278261162054" lon="7.014568043442537"><ele>757.75</ele><time>2026-04-18T14:14:48Z</time></trkpt><trkpt lat="45.12724670609124" lon="7.014729189298818"><ele>757.5</ele><time>2026-04-18T14:14:49Z</time></trkpt><trkpt lat="45.1272075646562" lon="7.01489034519509"><ele>757.25</ele><time>2026-04-18T14:14:50Z</time></trkpt><trkpt lat="45.127162926037904" lon="7.015047457802341"><ele>757.0</ele><time>2026-04-18T14:14:51Z</time></trkpt><trkpt lat="45.12711660367097" lon="7.01521007972832"><ele>757.5</ele><time>2026-04-18T14:14:52Z</time></trkpt><trkpt lat="45.12707312398102" lon="7.015364838611776"><ele>758.0</ele><time>2026-04-18T14:14:53Z</time></trkpt><trkpt lat="45.12704744013937" lon="7.015529036037352"><ele>758.5</ele><time>2026-04-18T14:14:54Z</time></trkpt><trkpt lat="45.12700957385141" lon="7.015680754560742"><ele>759.0</ele><time>2026-04-18T14:14:55Z</time></trkpt><trkpt lat="45.12695704718696" lon="7.015827486306425"><ele>759.25</ele><time>2026-04-18T14:14:56Z</time></trkpt><trkpt lat="45.1269377913593" lon="7.015992161850963"><ele>759.5</ele><time>2026-04-18T14:14:57Z</time></trkpt><trkpt lat="45.12691427063131" lon="7.016152902839966"><ele>759.75</ele><time>2026-04-18T14:14:58Z</time></trkpt><trkpt lat="45.12688587959968" lon="7.016330058126243"><ele>760.0</ele><time>2026-04-18T14:14:59Z</time></trkpt><trkpt lat="45.12686684896362" lon="7.016506297844895"><ele>760.0</ele><time>2026-04-18T14:15:00Z</time></trkpt><trkpt lat="45.126809957872815" lon="7.016651418191678"><ele>760.0</ele><time>2026-04-18T14:15:01Z</time></trkpt><trkpt lat="45.12678089139635" lon="7.016780995534417"><ele>760.0</ele><time>2026-04-18T14:15:02Z</time></trkpt><trkpt lat="45.126737551136536" lon="7.01690423418687"><ele>760.0</ele><time>2026-04-18T14:15:03Z</time></trkpt><trkpt lat="45.12668942157005" lon="7.017030203441407"><ele>760.0</ele><time>2026-04-18T14:15:04Z</time></trkpt><trkpt lat="45.126630847938586" lon="7.01715396741521"><ele>760.0</ele><time>2026-04-18T14:15:05Z</time></trkpt><trkpt lat="45.12658892017682" lon="7.017274808384136"><ele>760.0</ele><time>2026-04-18T14:15:06Z</time></trkpt><trkpt lat="45.126564208242726" lon="7.017429933466376"><ele>760.0</ele><time>2026-04-18T14:15:07Z</time></trkpt><trkpt lat="45.12654913895805" lon="7.017580596664085"><ele>760.0</ele><time>2026-04-18T14:15:08Z</time></trkpt><trkpt lat="45.12653764520105" lon="7.017721236769776"><ele>760.0</ele><time>2026-04-18T14:15:09Z</time></trkpt><trkpt lat="45.12654054670149" lon="7.017868258243892"><ele>760.8</ele><time>2026-04-18T14:15:10Z</time></trkpt><trkpt lat="45.126546287056826" lon="7.018027289386382"><ele>761.6</ele><time>2026-04-18T14:15:11Z</time></trkpt><trkpt lat="45.126540329923635" lon="7.01818321287946"><ele>762.4000000000001</ele><time>2026-04-18T14:15:12Z</time></trkpt><trkpt lat="45.126554539606346" lon="7.018348033686909"><ele>763.2</ele><time>2026-04-18T14:15:13Z</time></trkpt><trkpt lat="45.12653589458336" lon="7.0184956396245335"><ele>764.0</ele><time>2026-04-18T14:15:14Z</time></trkpt><trkpt lat="45.12650773996445" lon="7.018665292753626"><ele>764.0</ele><time>2026-04-18T14:15:15Z</time></trkpt><trkpt lat="45.12641569641889" lon="7.018817768305595"><ele>764.0</ele><time>2026-04-18T14:15:16Z</time></trkpt><trkpt lat="45.126365791697495" lon="7.0189885201986915"><ele>764.0</ele><time>2026-04-18T14:15:17Z</time></trkpt><trkpt lat="45.12631210386117" lon="7.019164312873673"><ele>764.0</ele><time>2026-04-18T14:15:18Z</time></trkpt><trkpt lat="45.12621833760045" lon="7.019321662105314"><ele>762.0</ele><time>2026-04-18T14:15:19Z</time></trkpt><trkpt lat="45.12616077291205" lon="7.019509575387464"><ele>760.0</ele><time>2026-04-18T14:15:20Z</time></trkpt><trkpt lat="45.12611238844853" lon="7.019693414916907"><ele>758.0</ele><time>2026-04-18T14:15:21Z</time></trkpt><trkpt lat="45.126063113716" lon="7.019847813158639"><ele>756.0</ele><time>2026-04-18T14:15:22Z</time></trkpt><trkpt lat="45.12600899984241" lon="7.020001968781662"><ele>754.8</ele><time>2026-04-18T14:15:23Z</time></trkpt><trkpt lat="45.12594865975155" lon="7.020139340636552"><ele>753.5999999999999</ele><time>2026-04-18T14:15:24Z</time></trkpt><trkpt lat="45.12587137388056" lon="7.020260545047081"><ele>752.4</ele><time>2026-04-18T14:15:25Z</time></trkpt><trkpt lat="45.12580190345688" lon="7.020379687353064"><ele>751.2</ele><time>2026-04-18T14:15:26Z</time></trkpt><trkpt lat="45.125736085325705" lon="7.020489465638592"><ele>750.0</ele><time>2026-04-18T14:15:27Z</time></trkpt><trkpt lat="45.12566275971461" lon="7.020604899986921"><ele>756.25</ele><time>2026-04-18T14:15:28Z</time></trkpt><trkpt lat="45.1256057103327" lon="7.020752709996567"><ele>762.5</ele><time>2026-04-18T14:15:29Z</time></trkpt><trkpt lat="45.12557077414509" lon="7.020909297898475"><ele>768.75</ele><time>2026-04-18T14:15:30Z</time></trkpt><trkpt lat="45.12556368833755" lon="7.021074756470317"><ele>775.0</ele><time>2026-04-18T14:15:31Z</time></trkpt><trkpt lat="45.12556773155723" lon="7.021268904930181"><ele>779.3333333333333</ele><time>2026-04-18T14:15:32Z</time></trkpt><trkpt lat="45.12557656687085" lon="7.021489307042135"><ele>783.6666666666667</ele><time>2026-04-18T14:15:33Z</time></trkpt><trkpt lat="45.125589829372146" lon="7.021700945594733"><ele>788.0</ele><time>2026-04-18T14:15:34Z</time></trkpt><trkpt lat="45.12563986075692" lon="7.021929504979069"><ele>791.3333333333334</ele><time>2026-04-18T14:15:35Z</time></trkpt><trkpt lat="45.12569876295163" lon="7.022159908226896"><ele>794.6666666666667</ele><time>2026-04-18T14:15:36Z</time></trkpt><trkpt lat="45.12576082884696" lon="7.022362254444938"><ele>798.0</ele><time>2026-04-18T14:15:37Z</time></trkpt><trkpt lat="45.12581746770175" lon="7.0225798793986876"><ele>783.3333333333334</ele><time>2026-04-18T14:15:38Z</time></trkpt><trkpt lat="45.125898150722044" lon="7.022819161867374"><ele>768.6666666666667</ele><time>2026-04-18T14:15:39Z</time></trkpt><trkpt lat="45.125964800477995" lon="7.023007993515094"><ele>754.0</ele><time>2026-04-18T14:15:40Z</time></trkpt><trkpt lat="45.12603831021716" lon="7.023236311105277"><ele>762.5</ele><time>2026-04-18T14:15:40.999Z</time></trkpt><trkpt lat="45.12610163587884" lon="7.0234251871961355"><ele>771.0</ele><time>2026-04-18T14:15:41.999Z</time></trkpt><trkpt lat="45.12705353547561" lon="7.023527906472586"><ele>751.5</ele><time>2026-04-18T14:15:43.999Z</time></trkpt><trkpt lat="45.1273012714855" lon="7.023712000077458"><ele>732.0</ele><time>2026-04-18T14:15:44.999Z</time></trkpt><trkpt lat="45.12759968256131" lon="7.023899435196682"><ele>733.0</ele><time>2026-04-18T14:15:45.999Z</time></trkpt><trkpt lat="45.1278477329844" lon="7.024117954725709"><ele>734.0</ele><time>2026-04-18T14:15:46.999Z</time></trkpt><trkpt lat="45.128124363363504" lon="7.024316609994858"><ele>722.0</ele><time>2026-04-18T14:15:47.999Z</time></trkpt><trkpt lat="45.12836130402579" lon="7.024470394679045"><ele>710.0</ele><time>2026-04-18T14:15:48.999Z</time></trkpt><trkpt lat="45.128563294945664" lon="7.024662169014782"><ele>710.0</ele><time>2026-04-18T14:15:49.999Z</time></trkpt><trkpt lat="45.128777556168906" lon="7.024829334320625"><ele>710.0</ele><time>2026-04-18T14:15:51Z</time></trkpt><trkpt lat="45.128978283781294" lon="7.024988342298693"><ele>706.0</ele><time>2026-04-18T14:15:52Z</time></trkpt><trkpt lat="45.12912402545596" lon="7.025176973550627"><ele>702.0</ele><time>2026-04-18T14:15:53Z</time></trkpt><trkpt lat="45.129244504988144" lon="7.025380463600653"><ele>698.0</ele><time>2026-04-18T14:15:54Z</time></trkpt><trkpt lat="45.129354152449956" lon="7.025601318186289"><ele>698.0</ele><time>2026-04-18T14:15:55Z</time></trkpt><trkpt lat="45.12943163661151" lon="7.025785259968355"><ele>698.0</ele><time>2026-04-18T14:15:56Z</time></trkpt><trkpt lat="45.129510911140066" lon="7.0260153509004235"><ele>698.0</ele><time>2026-04-18T14:15:57Z</time></trkpt><trkpt lat="45.12957505206995" lon="7.026265797729635"><ele>697.6666666666666</ele><time>2026-04-18T14:15:58Z</time></trkpt><trkpt lat="45.12966627057596" lon="7.0265538881592144"><ele>697.3333333333334</ele><time>2026-04-18T14:15:59Z</time></trkpt><trkpt lat="45.129674670736435" lon="7.026845031489304"><ele>697.0</ele><time>2026-04-18T14:16:00Z</time></trkpt><trkpt lat="45.129701716391594" lon="7.027156564240298"><ele>696.0</ele><time>2026-04-18T14:16:01Z</time></trkpt><trkpt lat="45.129675083521" lon="7.02750493646554"><ele>695.0</ele><time>2026-04-18T14:16:02Z</time></trkpt><trkpt lat="45.12963065486927" lon="7.0278144816683925"><ele>695.0</ele><time>2026-04-18T14:16:03Z</time></trkpt><trkpt lat="45.12961223797916" lon="7.028101753323288"><ele>695.0</ele><time>2026-04-18T14:16:04Z</time></trkpt><trkpt lat="45.12959271360387" lon="7.0283699986979995"><ele>695.0</ele><time>2026-04-18T14:16:05Z</time></trkpt><trkpt lat="45.12957754507019" lon="7.0286269881745564"><ele>694.0</ele><time>2026-04-18T14:16:06Z</time></trkpt><trkpt lat="45.12953505422617" lon="7.02885508418432"><ele>693.0</ele><time>2026-04-18T14:16:07Z</time></trkpt><trkpt lat="45.129463837609244" lon="7.029024215899729"><ele>692.0</ele><time>2026-04-18T14:16:08Z</time></trkpt><trkpt lat="45.1293694805971" lon="7.029211928866058"><ele>691.0</ele><time>2026-04-18T14:16:09Z</time></trkpt><trkpt lat="45.12927354420819" lon="7.029415367533851"><ele>690.0</ele><time>2026-04-18T14:16:10Z</time></trkpt><trkpt lat="45.12917523527201" lon="7.029642064218823"><ele>689.0</ele><time>2026-04-18T14:16:11Z</time></trkpt><trkpt lat="45.12910271597709" lon="7.029878785973297"><ele>686.6666666666666</ele><time>2026-04-18T14:16:12Z</time></trkpt><trkpt lat="45.12907686225512" lon="7.030091343611099"><ele>684.3333333333334</ele><time>2026-04-18T14:16:13Z</time></trkpt><trkpt lat="45.12907625393442" lon="7.0303144795491574"><ele>682.0</ele><time>2026-04-18T14:16:14Z</time></trkpt><trkpt lat="45.129080054649826" lon="7.030549754503853"><ele>682.0</ele><time>2026-04-18T14:16:15Z</time></trkpt><trkpt lat="45.12911982297772" lon="7.030803232678735"><ele>682.0</ele><time>2026-04-18T14:16:16Z</time></trkpt><trkpt lat="45.1292476561444" lon="7.031041353828922"><ele>682.0</ele><time>2026-04-18T14:16:17Z</time></trkpt><trkpt lat="45.1294000093024" lon="7.031276607677353"><ele>682.0</ele><time>2026-04-18T14:16:18Z</time></trkpt><trkpt lat="45.12956656700319" lon="7.031511434441268"><ele>682.0</ele><time>2026-04-18T14:16:19Z</time></trkpt><trkpt lat="45.12964891665516" lon="7.031853948810451"><ele>682.0</ele><time>2026-04-18T14:16:20Z</time></trkpt><trkpt lat="45.12979194894547" lon="7.032087112208942"><ele>682.0</ele><time>2026-04-18T14:16:21Z</time></trkpt><trkpt lat="45.13001205083774" lon="7.03231230284255"><ele>667.0</ele><time>2026-04-18T14:16:22Z</time></trkpt><trkpt lat="45.130164882884955" lon="7.032579322824842"><ele>652.0</ele><time>2026-04-18T14:16:23Z</time></trkpt><trkpt lat="45.13031937094119" lon="7.032831812957146"><ele>652.0</ele><time>2026-04-18T14:16:24Z</time></trkpt><trkpt lat="45.130463304223944" lon="7.033078821999232"><ele>652.0</ele><time>2026-04-18T14:16:25Z</time></trkpt><trkpt lat="45.130579886357125" lon="7.033312526048187"><ele>652.0</ele><time>2026-04-18T14:16:26Z</time></trkpt><trkpt lat="45.130696389389016" lon="7.0335871963487495"><ele>653.0</ele><time>2026-04-18T14:16:27Z</time></trkpt><trkpt lat="45.130842979512465" lon="7.033836090485319"><ele>654.0</ele><time>2026-04-18T14:16:28Z</time></trkpt><trkpt lat="45.13094476010131" lon="7.034056181662492"><ele>655.0</ele><time>2026-04-18T14:16:29Z</time></trkpt><trkpt lat="45.1310563251253" lon="7.034278006920702"><ele>649.6666666666667</ele><time>2026-04-18T14:16:30Z</time></trkpt><trkpt lat="45.13112716117662" lon="7.034531665302113"><ele>644.3333333333334</ele><time>2026-04-18T14:16:31Z</time></trkpt><trkpt lat="45.13121184936425" lon="7.034802256879687"><ele>639.0</ele><time>2026-04-18T14:16:32Z</time></trkpt><trkpt lat="45.13125823711509" lon="7.035087341680122"><ele>636.0</ele><time>2026-04-18T14:16:33Z</time></trkpt><trkpt lat="45.13130690868598" lon="7.03538317138652"><ele>633.0</ele><time>2026-04-18T14:16:34Z</time></trkpt><trkpt lat="45.13136054910165" lon="7.035701715565317"><ele>630.0</ele><time>2026-04-18T14:16:35Z</time></trkpt><trkpt lat="45.13137670343753" lon="7.035991423846873"><ele>625.6666666666666</ele><time>2026-04-18T14:16:36Z</time></trkpt><trkpt lat="45.1314301935343" lon="7.036290739475026"><ele>621.3333333333333</ele><time>2026-04-18T14:16:37Z</time></trkpt><trkpt lat="45.131474080362224" lon="7.036585313439286"><ele>617.0</ele><time>2026-04-18T14:16:38Z</time></trkpt><trkpt lat="45.13149226618042" lon="7.036876760145708"><ele>614.0</ele><time>2026-04-18T14:16:39Z</time></trkpt><trkpt lat="45.131503646637185" lon="7.037163310062519"><ele>611.0</ele><time>2026-04-18T14:16:40Z</time></trkpt><trkpt lat="45.13152341057569" lon="7.037440671013326"><ele>608.0</ele><time>2026-04-18T14:16:41Z</time></trkpt><trkpt lat="45.13154809355644" lon="7.0376793930184"><ele>608.6666666666666</ele><time>2026-04-18T14:16:42Z</time></trkpt><trkpt lat="45.13156463656483" lon="7.037943874371188"><ele>609.3333333333334</ele><time>2026-04-18T14:16:43Z</time></trkpt><trkpt lat="45.13159987069774" lon="7.03818526330067"><ele>610.0</ele><time>2026-04-18T14:16:44Z</time></trkpt><trkpt lat="45.13162293073557" lon="7.0383993447065505"><ele>610.0</ele><time>2026-04-18T14:16:45Z</time></trkpt><trkpt lat="45.13164731624089" lon="7.038504463145404"><ele>610.0</ele><time>2026-04-18T14:16:46Z</time></trkpt><trkpt lat="45.131633689902955" lon="7.038673439639638"><ele>610.0</ele><time>2026-04-18T14:16:47Z</time></trkpt><trkpt lat="45.13154516306822" lon="7.038796550835954"><ele>610.0</ele><time>2026-04-18T14:16:48Z</time></trkpt><trkpt lat="45.13147992482164" lon="7.038977127186907"><ele>605.3333333333334</ele><time>2026-04-18T14:16:49Z</time></trkpt><trkpt lat="45.13138597437771" lon="7.0391375161959955"><ele>600.6666666666666</ele><time>2026-04-18T14:16:50Z</time></trkpt><trkpt lat="45.13125999275045" lon="7.039254771949341"><ele>596.0</ele><time>2026-04-18T14:16:51Z</time></trkpt><trkpt lat="45.13112611954608" lon="7.039367008032569"><ele>596.0</ele><time>2026-04-18T14:16:52Z</time></trkpt><trkpt lat="45.13101532192293" lon="7.039505694781989"><ele>596.0</ele><time>2026-04-18T14:16:53Z</time></trkpt><trkpt lat="45.130938081218574" lon="7.039680526593685"><ele>596.0</ele><time>2026-04-18T14:16:54Z</time></trkpt><trkpt lat="45.130892143660745" lon="7.039832906758005"><ele>596.0</ele><time>2026-04-18T14:16:55Z</time></trkpt><trkpt lat="45.13087163198063" lon="7.039997541141908"><ele>595.0</ele><time>2026-04-18T14:16:56Z</time></trkpt><trkpt lat="45.13096289965321" lon="7.040174697333731"><ele>594.0</ele><time>2026-04-18T14:16:57Z</time></trkpt><trkpt lat="45.1310507275224" lon="7.040342145403853"><ele>593.0</ele><time>2026-04-18T14:16:58Z</time></trkpt><trkpt lat="45.131116533166434" lon="7.040511291704521"><ele>592.0</ele><time>2026-04-18T14:16:59Z</time></trkpt><trkpt lat="45.13126442469482" lon="7.040593055044552"><ele>592.0</ele><time>2026-04-18T14:17:00Z</time></trkpt><trkpt lat="45.13135796453977" lon="7.040624771117722"><ele>592.0</ele><time>2026-04-18T14:17:01Z</time></trkpt><trkpt lat="45.13145555522453" lon="7.040636846290612"><ele>592.0</ele><time>2026-04-18T14:17:02Z</time></trkpt><trkpt lat="45.13157916647412" lon="7.040618515762897"><ele>592.0</ele><time>2026-04-18T14:17:03Z</time></trkpt><trkpt lat="45.131704613708564" lon="7.040558616585805"><ele>596.0</ele><time>2026-04-18T14:17:04Z</time></trkpt><trkpt lat="45.13187894814484" lon="7.040392648710425"><ele>600.0</ele><time>2026-04-18T14:17:05Z</time></trkpt><trkpt lat="45.13204450071989" lon="7.040231499868202"><ele>604.0</ele><time>2026-04-18T14:17:06Z</time></trkpt><trkpt lat="45.13216485712082" lon="7.0400981464138255"><ele>605.3333333333334</ele><time>2026-04-18T14:17:07Z</time></trkpt><trkpt lat="45.13226673832211" lon="7.039880049896325"><ele>606.6666666666666</ele><time>2026-04-18T14:17:08Z</time></trkpt><trkpt lat="45.132360331267364" lon="7.039711580322001"><ele>608.0</ele><time>2026-04-18T14:17:09Z</time></trkpt><trkpt lat="45.132481231902226" lon="7.039602591587354"><ele>608.5</ele><time>2026-04-18T14:17:10Z</time></trkpt><trkpt lat="45.13256426818792" lon="7.039463049443487"><ele>609.0</ele><time>2026-04-18T14:17:11Z</time></trkpt><trkpt lat="45.13268634434773" lon="7.039468646515564"><ele>609.5</ele><time>2026-04-18T14:17:12Z</time></trkpt><trkpt lat="45.13277677422961" lon="7.039507547220871"><ele>610.0</ele><time>2026-04-18T14:17:13Z</time></trkpt><trkpt lat="45.13286533366246" lon="7.039618314041186"><ele>610.0</ele><time>2026-04-18T14:17:14Z</time></trkpt><trkpt lat="45.13297995461269" lon="7.039715575400185"><ele>610.0</ele><time>2026-04-18T14:17:15Z</time></trkpt><trkpt lat="45.13310826123611" lon="7.0398273943595955"><ele>610.0</ele><time>2026-04-18T14:17:16Z</time></trkpt><trkpt lat="45.13322362569906" lon="7.039943441436014"><ele>610.0</ele><time>2026-04-18T14:17:17Z</time></trkpt><trkpt lat="45.13329454002372" lon="7.040071844524491"><ele>605.0</ele><time>2026-04-18T14:17:18Z</time></trkpt><trkpt lat="45.13335933688707" lon="7.040318395911759"><ele>600.0</ele><time>2026-04-18T14:17:19Z</time></trkpt><trkpt lat="45.13337811332728" lon="7.040476592338511"><ele>595.0</ele><time>2026-04-18T14:17:20Z</time></trkpt><trkpt lat="45.13334790244201" lon="7.040659657783543"><ele>590.0</ele><time>2026-04-18T14:17:21Z</time></trkpt><trkpt lat="45.13330182482237" lon="7.040817777103952"><ele>587.0</ele><time>2026-04-18T14:17:22Z</time></trkpt><trkpt lat="45.133205559264276" lon="7.040964808420054"><ele>584.0</ele><time>2026-04-18T14:17:23Z</time></trkpt><trkpt lat="45.13311775518568" lon="7.04108038944177"><ele>581.0</ele><time>2026-04-18T14:17:24Z</time></trkpt><trkpt lat="45.13299691680597" lon="7.041225422420642"><ele>578.0</ele><time>2026-04-18T14:17:25Z</time></trkpt><trkpt lat="45.13290382026025" lon="7.0413718719068905"><ele>578.0</ele><time>2026-04-18T14:17:26Z</time></trkpt><trkpt lat="45.13281740910177" lon="7.041539652000928"><ele>578.0</ele><time>2026-04-18T14:17:27Z</time></trkpt><trkpt lat="45.13276618764984" lon="7.041688979854558"><ele>578.0</ele><time>2026-04-18T14:17:28Z</time></trkpt><trkpt lat="45.13271661933593" lon="7.041886928762416"><ele>578.0</ele><time>2026-04-18T14:17:29Z</time></trkpt><trkpt lat="45.13272802889591" lon="7.04211809592162"><ele>575.75</ele><time>2026-04-18T14:17:30Z</time></trkpt><trkpt lat="45.13273362620666" lon="7.042329266168639"><ele>573.5</ele><time>2026-04-18T14:17:31Z</time></trkpt><trkpt lat="45.13275368200237" lon="7.042549084085189"><ele>571.25</ele><time>2026-04-18T14:17:32Z</time></trkpt><trkpt lat="45.1327890705249" lon="7.0427369845019285"><ele>569.0</ele><time>2026-04-18T14:17:33Z</time></trkpt><trkpt lat="45.1328711068454" lon="7.042942576768174"><ele>566.25</ele><time>2026-04-18T14:17:34Z</time></trkpt><trkpt lat="45.132924423987326" lon="7.043130979961506"><ele>563.5</ele><time>2026-04-18T14:17:35Z</time></trkpt><trkpt lat="45.13298120957518" lon="7.04329734452302"><ele>560.75</ele><time>2026-04-18T14:17:36Z</time></trkpt><trkpt lat="45.13300280783988" lon="7.043450541783754"><ele>558.0</ele><time>2026-04-18T14:17:37Z</time></trkpt><trkpt lat="45.132984725135515" lon="7.043581973877524"><ele>556.4</ele><time>2026-04-18T14:17:38Z</time></trkpt><trkpt lat="45.1329193811132" lon="7.043696759856986"><ele>554.8</ele><time>2026-04-18T14:17:39Z</time></trkpt><trkpt lat="45.132840702464094" lon="7.043766976936289"><ele>553.2</ele><time>2026-04-18T14:17:40Z</time></trkpt><trkpt lat="45.13273533245797" lon="7.04374101362017"><ele>551.6</ele><time>2026-04-18T14:17:41Z</time></trkpt><trkpt lat="45.13267021934289" lon="7.043693447880841"><ele>550.0</ele><time>2026-04-18T14:17:42Z</time></trkpt><trkpt lat="45.132595921215525" lon="7.043624076511624"><ele>550.0</ele><time>2026-04-18T14:17:43Z</time></trkpt><trkpt lat="45.13257731638009" lon="7.043472058818504"><ele>550.0</ele><time>2026-04-18T14:17:44Z</time></trkpt><trkpt lat="45.13253504391098" lon="7.043301973830955"><ele>550.0</ele><time>2026-04-18T14:17:45Z</time></trkpt><trkpt lat="45.132518087210066" lon="7.043126186613821"><ele>550.0</ele><time>2026-04-18T14:17:46Z</time></trkpt><trkpt lat="45.132496105786224" lon="7.04289378965548"><ele>552.0</ele><time>2026-04-18T14:17:47Z</time></trkpt><trkpt lat="45.132467971460066" lon="7.042665242847919"><ele>554.0</ele><time>2026-04-18T14:17:48Z</time></trkpt><trkpt lat="45.13240795273505" lon="7.042492287465866"><ele>556.0</ele><time>2026-04-18T14:17:49Z</time></trkpt><trkpt lat="45.132354022376205" lon="7.042319846495071"><ele>558.0</ele><time>2026-04-18T14:17:50Z</time></trkpt><trkpt lat="45.13227130210999" lon="7.04217728780298"><ele>562.3333333333334</ele><time>2026-04-18T14:17:51Z</time></trkpt><trkpt lat="45.13215707137644" lon="7.0420948548312685"><ele>566.6666666666667</ele><time>2026-04-18T14:17:52Z</time></trkpt><trkpt lat="45.13201625776984" lon="7.042081485736183"><ele>571.0</ele><time>2026-04-18T14:17:53Z</time></trkpt><trkpt lat="45.13182761788438" lon="7.042147727602832"><ele>571.0</ele><time>2026-04-18T14:17:54Z</time></trkpt><trkpt lat="45.13167731833889" lon="7.042150903091988"><ele>571.0</ele><time>2026-04-18T14:17:55Z</time></trkpt><trkpt lat="45.131529996443625" lon="7.042189124475526"><ele>571.0</ele><time>2026-04-18T14:17:56Z</time></trkpt><trkpt lat="45.131368919033704" lon="7.042147326998629"><ele>567.3333333333334</ele><time>2026-04-18T14:17:57Z</time></trkpt><trkpt lat="45.13121641401929" lon="7.042103554347146"><ele>563.6666666666666</ele><time>2026-04-18T14:17:58Z</time></trkpt><trkpt lat="45.13106336382928" lon="7.042040270010584"><ele>560.0</ele><time>2026-04-18T14:17:59Z</time></trkpt><trkpt lat="45.13090960258035" lon="7.042002848992022"><ele>560.0</ele><time>2026-04-18T14:18:00Z</time></trkpt><trkpt lat="45.13076525700253" lon="7.041956085439598"><ele>560.0</ele><time>2026-04-18T14:18:01Z</time></trkpt><trkpt lat="45.13062993093175" lon="7.041911036320994"><ele>560.0</ele><time>2026-04-18T14:18:02Z</time></trkpt><trkpt lat="45.13051860432258" lon="7.041860695944691"><ele>560.0</ele><time>2026-04-18T14:18:03Z</time></trkpt><trkpt lat="45.130407057714635" lon="7.041833828536481"><ele>559.4</ele><time>2026-04-18T14:18:04Z</time></trkpt><trkpt lat="45.130299507617494" lon="7.041860757869552"><ele>558.8</ele><time>2026-04-18T14:18:05Z</time></trkpt><trkpt lat="45.13021015164691" lon="7.041939156167391"><ele>558.2</ele><time>2026-04-18T14:18:06Z</time></trkpt><trkpt lat="45.13014952743781" lon="7.04199016227504"><ele>557.6</ele><time>2026-04-18T14:18:07Z</time></trkpt><trkpt lat="45.13011781871293" lon="7.042133844084007"><ele>557.0</ele><time>2026-04-18T14:18:08Z</time></trkpt><trkpt lat="45.130121278853714" lon="7.042261996120106"><ele>557.0</ele><time>2026-04-18T14:18:09Z</time></trkpt><trkpt lat="45.13015587716697" lon="7.042410476319614"><ele>557.0</ele><time>2026-04-18T14:18:10Z</time></trkpt><trkpt lat="45.13017794098058" lon="7.042513245072522"><ele>557.0</ele><time>2026-04-18T14:18:11Z</time></trkpt><trkpt lat="45.13025059894673" lon="7.042628309239562"><ele>557.0</ele><time>2026-04-18T14:18:12Z</time></trkpt><trkpt lat="45.13035158607764" lon="7.042670351547963"><ele>557.0</ele><time>2026-04-18T14:18:14Z</time></trkpt><trkpt lat="45.130442200764314" lon="7.042702991925701"><ele>555.3333333333333</ele><time>2026-04-18T14:18:15Z</time></trkpt><trkpt lat="45.13057274471404" lon="7.04275085652253"><ele>553.6666666666666</ele><time>2026-04-18T14:18:16Z</time></trkpt><trkpt lat="45.130809381810565" lon="7.042827623764289"><ele>552.0</ele><time>2026-04-18T14:18:17Z</time></trkpt><trkpt lat="45.130998238980375" lon="7.042911439367874"><ele>550.3333333333334</ele><time>2026-04-18T14:18:18Z</time></trkpt><trkpt lat="45.131141777376904" lon="7.043066046649172"><ele>548.6666666666667</ele><time>2026-04-18T14:18:19Z</time></trkpt><trkpt lat="45.131197704398296" lon="7.043219066658457"><ele>547.0</ele><time>2026-04-18T14:18:20Z</time></trkpt><trkpt lat="45.1311333116519" lon="7.043486312926238"><ele>546.25</ele><time>2026-04-18T14:18:21Z</time></trkpt><trkpt lat="45.13118113298073" lon="7.043636191184856"><ele>545.5</ele><time>2026-04-18T14:18:22Z</time></trkpt><trkpt lat="45.131119702107874" lon="7.043895871483554"><ele>544.75</ele><time>2026-04-18T14:18:23Z</time></trkpt><trkpt lat="45.13114864940702" lon="7.044085407750489"><ele>544.0</ele><time>2026-04-18T14:18:24Z</time></trkpt><trkpt lat="45.13120225334979" lon="7.044269808987568"><ele>542.3333333333334</ele><time>2026-04-18T14:18:25Z</time></trkpt><trkpt lat="45.13128034793191" lon="7.0444475977404934"><ele>540.6666666666666</ele><time>2026-04-18T14:18:26Z</time></trkpt><trkpt lat="45.131379052480995" lon="7.0446565775949885"><ele>539.0</ele><time>2026-04-18T14:18:27Z</time></trkpt><trkpt lat="45.13149299672695" lon="7.04488900457298"><ele>535.6666666666666</ele><time>2026-04-18T14:18:28Z</time></trkpt><trkpt lat="45.13161685769319" lon="7.045113341153637"><ele>532.3333333333334</ele><time>2026-04-18T14:18:29Z</time></trkpt><trkpt lat="45.131707942341485" lon="7.045280005665496"><ele>529.0</ele><time>2026-04-18T14:18:30Z</time></trkpt><trkpt lat="45.1318069341764" lon="7.045429384629419"><ele>529.0</ele><time>2026-04-18T14:18:31Z</time></trkpt><trkpt lat="45.13191900469249" lon="7.04557638740777"><ele>529.0</ele><time>2026-04-18T14:18:32Z</time></trkpt><trkpt lat="45.13202495077123" lon="7.045733665786774"><ele>529.0</ele><time>2026-04-18T14:18:33Z</time></trkpt><trkpt lat="45.13213550809957" lon="7.045861934716604"><ele>529.0</ele><time>2026-04-18T14:18:34Z</time></trkpt><trkpt lat="45.13225068392897" lon="7.045962705129092"><ele>529.25</ele><time>2026-04-18T14:18:35Z</time></trkpt><trkpt lat="45.132359912518446" lon="7.046092139864993"><ele>529.5</ele><time>2026-04-18T14:18:36Z</time></trkpt><trkpt lat="45.1324864466121" lon="7.046239495123781"><ele>529.75</ele><time>2026-04-18T14:18:37Z</time></trkpt><trkpt lat="45.13259374174601" lon="7.04637163447229"><ele>530.0</ele><time>2026-04-18T14:18:38Z</time></trkpt><trkpt lat="45.132712540322025" lon="7.046524279496184"><ele>527.0</ele><time>2026-04-18T14:18:39Z</time></trkpt><trkpt lat="45.13283277251642" lon="7.0466453624252265"><ele>524.0</ele><time>2026-04-18T14:18:40Z</time></trkpt><trkpt lat="45.13294174880517" lon="7.046793782143616"><ele>521.0</ele><time>2026-04-18T14:18:41Z</time></trkpt><trkpt lat="45.13305614547109" lon="7.046940729720145"><ele>521.0</ele><time>2026-04-18T14:18:42Z</time></trkpt><trkpt lat="45.13315996098605" lon="7.0471071197499375"><ele>521.0</ele><time>2026-04-18T14:18:43Z</time></trkpt><trkpt lat="45.13326288410529" lon="7.047251438625037"><ele>521.0</ele><time>2026-04-18T14:18:44Z</time></trkpt><trkpt lat="45.13335921029549" lon="7.047396999271246"><ele>521.0</ele><time>2026-04-18T14:18:45Z</time></trkpt><trkpt lat="45.1334317764327" lon="7.047558345983365"><ele>519.0</ele><time>2026-04-18T14:18:46Z</time></trkpt><trkpt lat="45.13351759528844" lon="7.04772552487517"><ele>517.0</ele><time>2026-04-18T14:18:47Z</time></trkpt><trkpt lat="45.133611100640586" lon="7.047892290247954"><ele>515.0</ele><time>2026-04-18T14:18:48Z</time></trkpt><trkpt lat="45.13368689351525" lon="7.048089222390765"><ele>515.0</ele><time>2026-04-18T14:18:49Z</time></trkpt><trkpt lat="45.133763337351766" lon="7.048267889958139"><ele>515.0</ele><time>2026-04-18T14:18:50Z</time></trkpt><trkpt lat="45.13383570156423" lon="7.0484514300155245"><ele>515.0</ele><time>2026-04-18T14:18:51Z</time></trkpt><trkpt lat="45.1338955517853" lon="7.04861034469302"><ele>515.0</ele><time>2026-04-18T14:18:52Z</time></trkpt><trkpt lat="45.13395450795406" lon="7.0487781121340465"><ele>515.5</ele><time>2026-04-18T14:18:53Z</time></trkpt><trkpt lat="45.13400739685045" lon="7.048932816001966"><ele>516.0</ele><time>2026-04-18T14:18:54Z</time></trkpt><trkpt lat="45.13405815699975" lon="7.049082761790632"><ele>516.5</ele><time>2026-04-18T14:18:55Z</time></trkpt><trkpt lat="45.134107913692084" lon="7.0492303526880535"><ele>517.0</ele><time>2026-04-18T14:18:56Z</time></trkpt><trkpt lat="45.13416371589243" lon="7.0493930405582725"><ele>515.0</ele><time>2026-04-18T14:18:57Z</time></trkpt><trkpt lat="45.13420985571794" lon="7.049525327785263"><ele>513.0</ele><time>2026-04-18T14:18:58Z</time></trkpt><trkpt lat="45.13425137166388" lon="7.0496443578884485"><ele>511.00000000000006</ele><time>2026-04-18T14:18:59Z</time></trkpt><trkpt lat="45.13429602352348" lon="7.049774879728085"><ele>509.0</ele><time>2026-04-18T14:19:00Z</time></trkpt><trkpt lat="45.13433893821234" lon="7.049900902153967"><ele>507.0</ele><time>2026-04-18T14:19:01Z</time></trkpt><trkpt lat="45.134373192992676" lon="7.050043181572581"><ele>506.40000000000003</ele><time>2026-04-18T14:19:02Z</time></trkpt><trkpt lat="45.134417551882564" lon="7.050176833350014"><ele>505.80000000000007</ele><time>2026-04-18T14:19:03Z</time></trkpt><trkpt lat="45.13445971164896" lon="7.0503050513785075"><ele>505.2</ele><time>2026-04-18T14:19:04Z</time></trkpt><trkpt lat="45.134505805152486" lon="7.05043680157533"><ele>504.6</ele><time>2026-04-18T14:19:05Z</time></trkpt><trkpt lat="45.13455433628957" lon="7.050577187067146"><ele>504.0</ele><time>2026-04-18T14:19:06Z</time></trkpt><trkpt lat="45.13461896983473" lon="7.050714353940853"><ele>503.5</ele><time>2026-04-18T14:19:07Z</time></trkpt><trkpt lat="45.134682779688085" lon="7.0508783809499285"><ele>503.0</ele><time>2026-04-18T14:19:08Z</time></trkpt><trkpt lat="45.13473595783296" lon="7.051041037049984"><ele>502.5</ele><time>2026-04-18T14:19:09Z</time></trkpt><trkpt lat="45.13479531229968" lon="7.051189289142598"><ele>502.0</ele><time>2026-04-18T14:19:10Z</time></trkpt><trkpt lat="45.13483116575061" lon="7.051346672808807"><ele>501.25</ele><time>2026-04-18T14:19:11Z</time></trkpt><trkpt lat="45.13490782184315" lon="7.051510338765502"><ele>500.5</ele><time>2026-04-18T14:19:12Z</time></trkpt><trkpt lat="45.134960197522105" lon="7.051669041629173"><ele>499.75</ele><time>2026-04-18T14:19:13Z</time></trkpt><trkpt lat="45.13500787560558" lon="7.051819539051695"><ele>499.0</ele><time>2026-04-18T14:19:14Z</time></trkpt><trkpt lat="45.135060157196456" lon="7.051985839089612"><ele>498.75</ele><time>2026-04-18T14:19:15Z</time></trkpt><trkpt lat="45.13511945237517" lon="7.052154300151275"><ele>498.5</ele><time>2026-04-18T14:19:16Z</time></trkpt><trkpt lat="45.1351721297713" lon="7.052319586399322"><ele>498.25</ele><time>2026-04-18T14:19:17Z</time></trkpt><trkpt lat="45.1352333533314" lon="7.052484934263535"><ele>498.0</ele><time>2026-04-18T14:19:18Z</time></trkpt><trkpt lat="45.135260695144154" lon="7.052665150617604"><ele>497.79999999999995</ele><time>2026-04-18T14:19:19Z</time></trkpt><trkpt lat="45.13531324877368" lon="7.05280034153161"><ele>497.59999999999997</ele><time>2026-04-18T14:19:20Z</time></trkpt><trkpt lat="45.13537242175593" lon="7.0529438272720455"><ele>497.40000000000003</ele><time>2026-04-18T14:19:21Z</time></trkpt><trkpt lat="45.135421558290446" lon="7.05306365551824"><ele>497.20000000000005</ele><time>2026-04-18T14:19:22Z</time></trkpt><trkpt lat="45.13547132665736" lon="7.053180770628585"><ele>497.0</ele><time>2026-04-18T14:19:23Z</time></trkpt><trkpt lat="45.1355369701902" lon="7.053309996863064"><ele>496.20000000000005</ele><time>2026-04-18T14:19:24Z</time></trkpt><trkpt lat="45.135591056627426" lon="7.053440563171553"><ele>495.40000000000003</ele><time>2026-04-18T14:19:25Z</time></trkpt><trkpt lat="45.135643132960766" lon="7.053563547339341"><ele>494.59999999999997</ele><time>2026-04-18T14:19:26Z</time></trkpt><trkpt lat="45.1357079573449" lon="7.053689925390076"><ele>493.79999999999995</ele><time>2026-04-18T14:19:27Z</time></trkpt><trkpt lat="45.135765812569545" lon="7.053823214361404"><ele>493.0</ele><time>2026-04-18T14:19:28Z</time></trkpt><trkpt lat="45.135816639660796" lon="7.0539654324964856"><ele>494.0</ele><time>2026-04-18T14:19:29Z</time></trkpt><trkpt lat="45.135866643368196" lon="7.054126394583107"><ele>495.0</ele><time>2026-04-18T14:19:30Z</time></trkpt><trkpt lat="45.135928064421265" lon="7.054299080053396"><ele>496.0</ele><time>2026-04-18T14:19:31Z</time></trkpt><trkpt lat="45.135988077595044" lon="7.054444096392604"><ele>497.0</ele><time>2026-04-18T14:19:32Z</time></trkpt><trkpt lat="45.13604229666601" lon="7.0545887573691815"><ele>497.0</ele><time>2026-04-18T14:19:33Z</time></trkpt><trkpt lat="45.13607255697245" lon="7.054745041198878"><ele>497.0</ele><time>2026-04-18T14:19:34Z</time></trkpt><trkpt lat="45.13605976177163" lon="7.054900223836029"><ele>497.0</ele><time>2026-04-18T14:19:35Z</time></trkpt><trkpt lat="45.136046516480675" lon="7.055056430055728"><ele>497.0</ele><time>2026-04-18T14:19:36Z</time></trkpt><trkpt lat="45.13602657374258" lon="7.055236983057483"><ele>497.25</ele><time>2026-04-18T14:19:37Z</time></trkpt><trkpt lat="45.13600070558268" lon="7.055410346779021"><ele>497.5</ele><time>2026-04-18T14:19:38Z</time></trkpt><trkpt lat="45.13596641763936" lon="7.055601511575537"><ele>497.75</ele><time>2026-04-18T14:19:39Z</time></trkpt><trkpt lat="45.135919754793164" lon="7.055789977220638"><ele>498.0</ele><time>2026-04-18T14:19:40Z</time></trkpt><trkpt lat="45.13585982418542" lon="7.055971755579297"><ele>496.25</ele><time>2026-04-18T14:19:41Z</time></trkpt><trkpt lat="45.135804999891626" lon="7.056140806187469"><ele>494.5</ele><time>2026-04-18T14:19:42Z</time></trkpt><trkpt lat="45.13574415980891" lon="7.0563313771837874"><ele>492.75</ele><time>2026-04-18T14:19:43Z</time></trkpt><trkpt lat="45.13569917521683" lon="7.056525225673245"><ele>491.0</ele><time>2026-04-18T14:19:44Z</time></trkpt><trkpt lat="45.13560690625906" lon="7.0566834360959865"><ele>490.75</ele><time>2026-04-18T14:19:45Z</time></trkpt><trkpt lat="45.135558183447685" lon="7.05687091175519"><ele>490.5</ele><time>2026-04-18T14:19:46Z</time></trkpt><trkpt lat="45.13549332052851" lon="7.0570464237048585"><ele>490.25</ele><time>2026-04-18T14:19:47Z</time></trkpt><trkpt lat="45.1354247800414" lon="7.057224655274705"><ele>490.0</ele><time>2026-04-18T14:19:48Z</time></trkpt><trkpt lat="45.13535690498589" lon="7.05739723927606"><ele>489.6666666666667</ele><time>2026-04-18T14:19:49Z</time></trkpt><trkpt lat="45.13528423389247" lon="7.05758141771741"><ele>489.33333333333337</ele><time>2026-04-18T14:19:50Z</time></trkpt><trkpt lat="45.135175915622604" lon="7.0577472891900825"><ele>489.0</ele><time>2026-04-18T14:19:51Z</time></trkpt><trkpt lat="45.1351011672782" lon="7.057932346021936"><ele>489.0</ele><time>2026-04-18T14:19:52Z</time></trkpt><trkpt lat="45.13503596121907" lon="7.058100900246845"><ele>489.0</ele><time>2026-04-18T14:19:53Z</time></trkpt><trkpt lat="45.13496949886104" lon="7.058273963557741"><ele>489.0</ele><time>2026-04-18T14:19:54Z</time></trkpt><trkpt lat="45.13491291279965" lon="7.058430181976927"><ele>489.0</ele><time>2026-04-18T14:19:55Z</time></trkpt><trkpt lat="45.13486175911351" lon="7.058571904237013"><ele>488.79999999999995</ele><time>2026-04-18T14:19:56Z</time></trkpt><trkpt lat="45.13481107965951" lon="7.058702787590032"><ele>488.59999999999997</ele><time>2026-04-18T14:19:57Z</time></trkpt><trkpt lat="45.13477454424286" lon="7.0588057676496545"><ele>488.4</ele><time>2026-04-18T14:19:58Z</time></trkpt><trkpt lat="45.13474329443231" lon="7.058934173017807"><ele>488.2</ele><time>2026-04-18T14:19:59Z</time></trkpt><trkpt lat="45.134716949202016" lon="7.059059445911392"><ele>488.0</ele><time>2026-04-18T14:20:00Z</time></trkpt><trkpt lat="45.13465424043225" lon="7.059219738748604"><ele>487.99999999999994</ele><time>2026-04-18T14:20:02Z</time></trkpt><trkpt lat="45.13462457606669" lon="7.059320278099589"><ele>488.0</ele><time>2026-04-18T14:20:03Z</time></trkpt><trkpt lat="45.13460817247708" lon="7.059424610479266"><ele>488.0</ele><time>2026-04-18T14:20:04Z</time></trkpt><trkpt lat="45.13457888390671" lon="7.059513426176533"><ele>488.0</ele><time>2026-04-18T14:20:05Z</time></trkpt><trkpt lat="45.13454442261165" lon="7.059597964290833"><ele>487.99999999999994</ele><time>2026-04-18T14:20:06Z</time></trkpt><trkpt lat="45.13449569770665" lon="7.05968642758974"><ele>488.0</ele><time>2026-04-18T14:20:07Z</time></trkpt><trkpt lat="45.134465943346925" lon="7.059800607737229"><ele>488.0</ele><time>2026-04-18T14:20:08Z</time></trkpt><trkpt lat="45.13443241738881" lon="7.059928199784933"><ele>488.0</ele><time>2026-04-18T14:20:09Z</time></trkpt><trkpt lat="45.13438349345064" lon="7.060083547224514"><ele>488.0</ele><time>2026-04-18T14:20:10Z</time></trkpt><trkpt lat="45.13431452271553" lon="7.06024126635476"><ele>488.0</ele><time>2026-04-18T14:20:11Z</time></trkpt><trkpt lat="45.13424568604175" lon="7.06042620394804"><ele>487.66666666666663</ele><time>2026-04-18T14:20:12Z</time></trkpt><trkpt lat="45.13417012637757" lon="7.0606395869639496"><ele>487.33333333333337</ele><time>2026-04-18T14:20:13Z</time></trkpt><trkpt lat="45.134070370457025" lon="7.060855823945966"><ele>487.0</ele><time>2026-04-18T14:20:14Z</time></trkpt><trkpt lat="45.13399263156395" lon="7.061079646781424"><ele>486.0</ele><time>2026-04-18T14:20:15Z</time></trkpt><trkpt lat="45.133921524068874" lon="7.06131483751291"><ele>485.0</ele><time>2026-04-18T14:20:16Z</time></trkpt><trkpt lat="45.13384013550635" lon="7.061530138728052"><ele>484.0</ele><time>2026-04-18T14:20:17Z</time></trkpt><trkpt lat="45.13375524693191" lon="7.061744821542566"><ele>484.0</ele><time>2026-04-18T14:20:18Z</time></trkpt><trkpt lat="45.13367281192283" lon="7.0619638550776695"><ele>484.0</ele><time>2026-04-18T14:20:19Z</time></trkpt><trkpt lat="45.133592717297425" lon="7.062187415145362"><ele>484.0</ele><time>2026-04-18T14:20:20Z</time></trkpt><trkpt lat="45.133513966565445" lon="7.062407297390957"><ele>484.0</ele><time>2026-04-18T14:20:21Z</time></trkpt><trkpt lat="45.13342740706515" lon="7.062648982720574"><ele>484.0</ele><time>2026-04-18T14:20:22Z</time></trkpt><trkpt lat="45.133354054624164" lon="7.0628867007299325"><ele>484.0</ele><time>2026-04-18T14:20:23Z</time></trkpt><trkpt lat="45.133278020091055" lon="7.063116808451888"><ele>484.6666666666667</ele><time>2026-04-18T14:20:24Z</time></trkpt><trkpt lat="45.13319015083417" lon="7.06335388357618"><ele>485.33333333333337</ele><time>2026-04-18T14:20:25Z</time></trkpt><trkpt lat="45.1331050707503" lon="7.063580967766878"><ele>486.0</ele><time>2026-04-18T14:20:26Z</time></trkpt><trkpt lat="45.13301267902634" lon="7.063787234885333"><ele>486.0</ele><time>2026-04-18T14:20:27Z</time></trkpt><trkpt lat="45.13294093032868" lon="7.064012795432471"><ele>486.0</ele><time>2026-04-18T14:20:28Z</time></trkpt><trkpt lat="45.1328633403203" lon="7.064247532200169"><ele>486.0</ele><time>2026-04-18T14:20:29Z</time></trkpt><trkpt lat="45.13281561645256" lon="7.06449032079974"><ele>485.66666666666663</ele><time>2026-04-18T14:20:30Z</time></trkpt><trkpt lat="45.13279226298816" lon="7.064744243922618"><ele>485.3333333333333</ele><time>2026-04-18T14:20:31Z</time></trkpt><trkpt lat="45.132778077453764" lon="7.065000876512494"><ele>485.0</ele><time>2026-04-18T14:20:32Z</time></trkpt><trkpt lat="45.13275855442855" lon="7.065257235346344"><ele>485.0</ele><time>2026-04-18T14:20:33Z</time></trkpt><trkpt lat="45.132758859972846" lon="7.0655139065415"><ele>485.0</ele><time>2026-04-18T14:20:34Z</time></trkpt><trkpt lat="45.13276244898824" lon="7.065778529882387"><ele>485.0</ele><time>2026-04-18T14:20:35Z</time></trkpt><trkpt lat="45.132774276722664" lon="7.066078111449351"><ele>485.3333333333333</ele><time>2026-04-18T14:20:36Z</time></trkpt><trkpt lat="45.13277288341588" lon="7.066354305621195"><ele>485.66666666666663</ele><time>2026-04-18T14:20:37Z</time></trkpt><trkpt lat="45.13277796454342" lon="7.066626102520178"><ele>486.0</ele><time>2026-04-18T14:20:38Z</time></trkpt><trkpt lat="45.13276564255756" lon="7.066891325718417"><ele>486.0</ele><time>2026-04-18T14:20:39Z</time></trkpt><trkpt lat="45.13277227409269" lon="7.06715606533182"><ele>486.0</ele><time>2026-04-18T14:20:40Z</time></trkpt><trkpt lat="45.1327606940006" lon="7.067413057663145"><ele>486.0</ele><time>2026-04-18T14:20:41Z</time></trkpt><trkpt lat="45.132756597634675" lon="7.067658520448155"><ele>485.0</ele><time>2026-04-18T14:20:42Z</time></trkpt><trkpt lat="45.13277043623356" lon="7.067906836590307"><ele>484.0</ele><time>2026-04-18T14:20:43Z</time></trkpt><trkpt lat="45.132767681088744" lon="7.068145937293648"><ele>483.0</ele><time>2026-04-18T14:20:44Z</time></trkpt><trkpt lat="45.13276980167265" lon="7.068384281859915"><ele>482.0</ele><time>2026-04-18T14:20:45Z</time></trkpt><trkpt lat="45.13276089873778" lon="7.068630754614463"><ele>481.0</ele><time>2026-04-18T14:20:46Z</time></trkpt><trkpt lat="45.13276448177289" lon="7.06888405348893"><ele>480.0</ele><time>2026-04-18T14:20:47Z</time></trkpt><trkpt lat="45.13277714942677" lon="7.069126267752862"><ele>479.66666666666663</ele><time>2026-04-18T14:20:48Z</time></trkpt><trkpt lat="45.132774587917204" lon="7.069372695451492"><ele>479.3333333333333</ele><time>2026-04-18T14:20:49Z</time></trkpt><trkpt lat="45.13277724231233" lon="7.069611735969428"><ele>479.0</ele><time>2026-04-18T14:20:50Z</time></trkpt><trkpt lat="45.132773285415915" lon="7.069860110283489"><ele>478.66666666666663</ele><time>2026-04-18T14:20:51Z</time></trkpt><trkpt lat="45.132780503080134" lon="7.070103751796185"><ele>478.33333333333337</ele><time>2026-04-18T14:20:52Z</time></trkpt><trkpt lat="45.13278771212054" lon="7.070349998425862"><ele>478.0</ele><time>2026-04-18T14:20:53Z</time></trkpt><trkpt lat="45.132782490445635" lon="7.070582110735932"><ele>478.33333333333337</ele><time>2026-04-18T14:20:54Z</time></trkpt><trkpt lat="45.132773183564446" lon="7.070826702931752"><ele>478.66666666666663</ele><time>2026-04-18T14:20:55Z</time></trkpt><trkpt lat="45.13278244613132" lon="7.071083481611306"><ele>479.0</ele><time>2026-04-18T14:20:56Z</time></trkpt><trkpt lat="45.132779454732294" lon="7.071315803638699"><ele>479.0</ele><time>2026-04-18T14:20:57Z</time></trkpt><trkpt lat="45.132793977783535" lon="7.071565030683931"><ele>479.0</ele><time>2026-04-18T14:20:58Z</time></trkpt><trkpt lat="45.132787905857505" lon="7.071814478367591"><ele>479.0</ele><time>2026-04-18T14:20:59Z</time></trkpt><trkpt lat="45.13278663124433" lon="7.0720638269991944"><ele>478.3333333333333</ele><time>2026-04-18T14:21:00Z</time></trkpt><trkpt lat="45.13278875648187" lon="7.072316787133214"><ele>477.66666666666663</ele><time>2026-04-18T14:21:01Z</time></trkpt><trkpt lat="45.132782284485074" lon="7.0725618850942205"><ele>477.0</ele><time>2026-04-18T14:21:02Z</time></trkpt><trkpt lat="45.13279874470676" lon="7.072816561018943"><ele>476.66666666666663</ele><time>2026-04-18T14:21:03Z</time></trkpt><trkpt lat="45.132783154732714" lon="7.073080801732846"><ele>476.3333333333333</ele><time>2026-04-18T14:21:04Z</time></trkpt><trkpt lat="45.13279824905794" lon="7.073350858121294"><ele>476.0</ele><time>2026-04-18T14:21:05Z</time></trkpt><trkpt lat="45.132799062361364" lon="7.073609758215748"><ele>476.0</ele><time>2026-04-18T14:21:06Z</time></trkpt><trkpt lat="45.13279930736999" lon="7.073846138807224"><ele>476.0</ele><time>2026-04-18T14:21:07Z</time></trkpt><trkpt lat="45.13280520010339" lon="7.074067478163567"><ele>476.0</ele><time>2026-04-18T14:21:08Z</time></trkpt><trkpt lat="45.132794000278764" lon="7.0742907180594985"><ele>476.0</ele><time>2026-04-18T14:21:09Z</time></trkpt><trkpt lat="45.13280745060721" lon="7.074524312243471"><ele>476.0</ele><time>2026-04-18T14:21:10Z</time></trkpt><trkpt lat="45.13283308818014" lon="7.074767904218167"><ele>476.0</ele><time>2026-04-18T14:21:11Z</time></trkpt><trkpt lat="45.13286685426983" lon="7.075021693029126"><ele>476.0</ele><time>2026-04-18T14:21:12Z</time></trkpt><trkpt lat="45.13291118511236" lon="7.0752887462003775"><ele>476.0</ele><time>2026-04-18T14:21:13Z</time></trkpt><trkpt lat="45.13297247464315" lon="7.075551213784891"><ele>476.0</ele><time>2026-04-18T14:21:14Z</time></trkpt><trkpt lat="45.13303203616152" lon="7.075829661008009"><ele>475.0</ele><time>2026-04-18T14:21:15Z</time></trkpt><trkpt lat="45.13311047708324" lon="7.076109754759142"><ele>474.0</ele><time>2026-04-18T14:21:16Z</time></trkpt><trkpt lat="45.13316201097046" lon="7.076396498299141"><ele>473.0</ele><time>2026-04-18T14:21:17Z</time></trkpt><trkpt lat="45.1332225678964" lon="7.076695308529395"><ele>473.0</ele><time>2026-04-18T14:21:18Z</time></trkpt><trkpt lat="45.133284265289575" lon="7.07700304897521"><ele>473.0</ele><time>2026-04-18T14:21:19Z</time></trkpt><trkpt lat="45.13332307769375" lon="7.077299922998581"><ele>473.0</ele><time>2026-04-18T14:21:20Z</time></trkpt><trkpt lat="45.133380310559595" lon="7.077570189276413"><ele>473.3333333333333</ele><time>2026-04-18T14:21:21Z</time></trkpt><trkpt lat="45.13343458412878" lon="7.077826480827928"><ele>473.66666666666663</ele><time>2026-04-18T14:21:22Z</time></trkpt><trkpt lat="45.13348432801357" lon="7.078063752611918"><ele>474.0</ele><time>2026-04-18T14:21:23Z</time></trkpt><trkpt lat="45.1335339207536" lon="7.078301186174626"><ele>474.33333333333337</ele><time>2026-04-18T14:21:24Z</time></trkpt><trkpt lat="45.133591076973" lon="7.078538525785787"><ele>474.6666666666667</ele><time>2026-04-18T14:21:25Z</time></trkpt><trkpt lat="45.133647285225265" lon="7.078777929646791"><ele>475.0</ele><time>2026-04-18T14:21:26Z</time></trkpt><trkpt lat="45.13369757597233" lon="7.079022334837527"><ele>475.33333333333337</ele><time>2026-04-18T14:21:27Z</time></trkpt><trkpt lat="45.13373778031125" lon="7.079282121792879"><ele>475.66666666666663</ele><time>2026-04-18T14:21:28Z</time></trkpt><trkpt lat="45.133813071566365" lon="7.079550397890111"><ele>476.0</ele><time>2026-04-18T14:21:29Z</time></trkpt><trkpt lat="45.13387507457148" lon="7.079849834041552"><ele>476.5</ele><time>2026-04-18T14:21:30Z</time></trkpt><trkpt lat="45.13395437337557" lon="7.080168883546588"><ele>477.0</ele><time>2026-04-18T14:21:31Z</time></trkpt><trkpt lat="45.13404714866008" lon="7.080505683928942"><ele>476.0</ele><time>2026-04-18T14:21:32Z</time></trkpt><trkpt lat="45.134146545544986" lon="7.080845253043577"><ele>475.0</ele><time>2026-04-18T14:21:33Z</time></trkpt><trkpt lat="45.13425394595651" lon="7.081211250121143"><ele>475.0</ele><time>2026-04-18T14:21:34Z</time></trkpt><trkpt lat="45.13434798383001" lon="7.081538100146779"><ele>475.0</ele><time>2026-04-18T14:21:35Z</time></trkpt><trkpt lat="45.13444712495608" lon="7.081834065634275"><ele>476.0</ele><time>2026-04-18T14:21:36Z</time></trkpt><trkpt lat="45.13451678071218" lon="7.082133995761502"><ele>477.0</ele><time>2026-04-18T14:21:37Z</time></trkpt><trkpt lat="45.13458887117676" lon="7.082402316290983"><ele>478.0</ele><time>2026-04-18T14:21:38Z</time></trkpt><trkpt lat="45.134643714758774" lon="7.082634152302422"><ele>478.33333333333337</ele><time>2026-04-18T14:21:39Z</time></trkpt><trkpt lat="45.134710278298066" lon="7.082855611568384"><ele>478.66666666666663</ele><time>2026-04-18T14:21:40Z</time></trkpt><trkpt lat="45.13475308541149" lon="7.083050064886454"><ele>479.0</ele><time>2026-04-18T14:21:41Z</time></trkpt><trkpt lat="45.134805316341776" lon="7.083232728005537"><ele>479.2</ele><time>2026-04-18T14:21:42Z</time></trkpt><trkpt lat="45.13484434905702" lon="7.0833941929512365"><ele>479.4</ele><time>2026-04-18T14:21:43Z</time></trkpt><trkpt lat="45.13485462358258" lon="7.08354001867128"><ele>479.6</ele><time>2026-04-18T14:21:44Z</time></trkpt><trkpt lat="45.13487092824977" lon="7.083640314720091"><ele>479.8</ele><time>2026-04-18T14:21:45Z</time></trkpt><trkpt lat="45.13488658207181" lon="7.083753893029091"><ele>480.0</ele><time>2026-04-18T14:21:47Z</time></trkpt><trkpt lat="45.134903936324186" lon="7.083890925530443"><ele>479.25</ele><time>2026-04-18T14:22:11Z</time></trkpt><trkpt lat="45.134916028639296" lon="7.083998856068958"><ele>478.5</ele><time>2026-04-18T14:22:12Z</time></trkpt><trkpt lat="45.13493157839243" lon="7.084162214868828"><ele>477.75</ele><time>2026-04-18T14:22:13Z</time></trkpt><trkpt lat="45.134945648773076" lon="7.084347657458767"><ele>477.0</ele><time>2026-04-18T14:22:14Z</time></trkpt><trkpt lat="45.134958458136694" lon="7.0845578781130545"><ele>477.0</ele><time>2026-04-18T14:22:15Z</time></trkpt><trkpt lat="45.13497018576781" lon="7.084799098496647"><ele>477.0</ele><time>2026-04-18T14:22:16Z</time></trkpt><trkpt lat="45.134977159439316" lon="7.085092194291882"><ele>477.0</ele><time>2026-04-18T14:22:17Z</time></trkpt><trkpt lat="45.13496562299583" lon="7.0854250694574334"><ele>475.5</ele><time>2026-04-18T14:22:18Z</time></trkpt><trkpt lat="45.13494250233665" lon="7.08579171775921"><ele>474.0</ele><time>2026-04-18T14:22:19Z</time></trkpt><trkpt lat="45.134917552993" lon="7.086156358984667"><ele>474.5</ele><time>2026-04-18T14:22:20Z</time></trkpt><trkpt lat="45.134886565494206" lon="7.086536036939404"><ele>475.0</ele><time>2026-04-18T14:22:21Z</time></trkpt><trkpt lat="45.13485370817919" lon="7.086933827826869"><ele>475.0</ele><time>2026-04-18T14:22:22Z</time></trkpt><trkpt lat="45.13482065796378" lon="7.087333954051628"><ele>475.0</ele><time>2026-04-18T14:22:23Z</time></trkpt><trkpt lat="45.134798378404085" lon="7.087742841062016"><ele>475.0</ele><time>2026-04-18T14:22:24Z</time></trkpt><trkpt lat="45.13476644189863" lon="7.088147204245796"><ele>475.0</ele><time>2026-04-18T14:22:25Z</time></trkpt><trkpt lat="45.13473446432759" lon="7.088557047309405"><ele>475.0</ele><time>2026-04-18T14:22:26Z</time></trkpt><trkpt lat="45.13470012274473" lon="7.088965954242061"><ele>475.0</ele><time>2026-04-18T14:22:27Z</time></trkpt><trkpt lat="45.1346671787466" lon="7.08936703697327"><ele>474.0</ele><time>2026-04-18T14:22:28Z</time></trkpt><trkpt lat="45.13462447979326" lon="7.089773458236812"><ele>473.0</ele><time>2026-04-18T14:22:29Z</time></trkpt><trkpt lat="45.134595693562694" lon="7.090174506751052"><ele>473.0</ele><time>2026-04-18T14:22:30Z</time></trkpt><trkpt lat="45.1345513163156" lon="7.090550706800623"><ele>473.0</ele><time>2026-04-18T14:22:31Z</time></trkpt><trkpt lat="45.134499317683535" lon="7.090935584019922"><ele>471.5</ele><time>2026-04-18T14:22:32Z</time></trkpt><trkpt lat="45.134475660815276" lon="7.09129813534754"><ele>470.0</ele><time>2026-04-18T14:22:33Z</time></trkpt><trkpt lat="45.1344443810264" lon="7.091664669839364"><ele>469.5</ele><time>2026-04-18T14:22:34Z</time></trkpt><trkpt lat="45.1344113960005" lon="7.0920280028302765"><ele>469.0</ele><time>2026-04-18T14:22:35Z</time></trkpt><trkpt lat="45.134385949358865" lon="7.092360357260672"><ele>469.0</ele><time>2026-04-18T14:22:36Z</time></trkpt><trkpt lat="45.13436645896056" lon="7.092690390012923"><ele>469.0</ele><time>2026-04-18T14:22:37Z</time></trkpt><trkpt lat="45.134338524348266" lon="7.092991616276121"><ele>469.0</ele><time>2026-04-18T14:22:38Z</time></trkpt><trkpt lat="45.13431505491357" lon="7.093312546574987"><ele>468.0</ele><time>2026-04-18T14:22:39Z</time></trkpt><trkpt lat="45.134278344080066" lon="7.09364203035972"><ele>467.0</ele><time>2026-04-18T14:22:40Z</time></trkpt><trkpt lat="45.13423253695527" lon="7.0939665811328405"><ele>468.5</ele><time>2026-04-18T14:22:41Z</time></trkpt><trkpt lat="45.13416259253499" lon="7.094277059037952"><ele>470.0</ele><time>2026-04-18T14:22:42Z</time></trkpt><trkpt lat="45.13405858340928" lon="7.094605143388811"><ele>470.0</ele><time>2026-04-18T14:22:43Z</time></trkpt><trkpt lat="45.13395498708659" lon="7.094930950908216"><ele>470.0</ele><time>2026-04-18T14:22:44Z</time></trkpt><trkpt lat="45.13385113167778" lon="7.095265464140522"><ele>470.0</ele><time>2026-04-18T14:22:45Z</time></trkpt><trkpt lat="45.13370184625467" lon="7.095616265652497"><ele>470.0</ele><time>2026-04-18T14:22:46Z</time></trkpt><trkpt lat="45.133587372444" lon="7.095921742524137"><ele>469.0</ele><time>2026-04-18T14:22:47Z</time></trkpt><trkpt lat="45.13346891061857" lon="7.096238363131532"><ele>468.0</ele><time>2026-04-18T14:22:48Z</time></trkpt><trkpt lat="45.13334699042884" lon="7.096548842480709"><ele>467.5</ele><time>2026-04-18T14:22:49Z</time></trkpt><trkpt lat="45.133238305148794" lon="7.0968381596233305"><ele>467.0</ele><time>2026-04-18T14:22:50Z</time></trkpt><trkpt lat="45.13313567593655" lon="7.097118744512573"><ele>467.0</ele><time>2026-04-18T14:22:51Z</time></trkpt><trkpt lat="45.133097648973205" lon="7.0974619725487775"><ele>467.0</ele><time>2026-04-18T14:22:52Z</time></trkpt><trkpt lat="45.13304435758042" lon="7.097826089558831"><ele>467.0</ele><time>2026-04-18T14:22:53Z</time></trkpt><trkpt lat="45.13298995769353" lon="7.098214695576003"><ele>467.0</ele><time>2026-04-18T14:22:54Z</time></trkpt><trkpt lat="45.13294555840352" lon="7.098619325129086"><ele>466.0</ele><time>2026-04-18T14:22:55Z</time></trkpt><trkpt lat="45.13287853413627" lon="7.099041704226659"><ele>465.0</ele><time>2026-04-18T14:22:56Z</time></trkpt><trkpt lat="45.13280468205298" lon="7.0994641587384235"><ele>464.5</ele><time>2026-04-18T14:22:57Z</time></trkpt><trkpt lat="45.13270806928804" lon="7.099861563824498"><ele>464.0</ele><time>2026-04-18T14:22:58Z</time></trkpt><trkpt lat="45.13257527121145" lon="7.1002359228214385"><ele>463.5</ele><time>2026-04-18T14:22:59Z</time></trkpt><trkpt lat="45.13247027575723" lon="7.1006212130015065"><ele>463.0</ele><time>2026-04-18T14:23:00Z</time></trkpt><trkpt lat="45.13236307092795" lon="7.101008137662047"><ele>463.0</ele><time>2026-04-18T14:23:01Z</time></trkpt><trkpt lat="45.13227838291831" lon="7.101384936630099"><ele>463.0</ele><time>2026-04-18T14:23:02Z</time></trkpt><trkpt lat="45.13221113458625" lon="7.101757809569604"><ele>462.5</ele><time>2026-04-18T14:23:03Z</time></trkpt><trkpt lat="45.132171001879215" lon="7.1021235447020485"><ele>462.0</ele><time>2026-04-18T14:23:04Z</time></trkpt><trkpt lat="45.132139851799224" lon="7.102490428931717"><ele>461.0</ele><time>2026-04-18T14:23:05Z</time></trkpt><trkpt lat="45.13214024134825" lon="7.102881050228435"><ele>460.0</ele><time>2026-04-18T14:23:06Z</time></trkpt><trkpt lat="45.13215518544637" lon="7.10326990787171"><ele>460.0</ele><time>2026-04-18T14:23:07Z</time></trkpt><trkpt lat="45.132165823192885" lon="7.103666288466982"><ele>460.0</ele><time>2026-04-18T14:23:08Z</time></trkpt><trkpt lat="45.13218803601868" lon="7.104046275371423"><ele>459.0</ele><time>2026-04-18T14:23:09Z</time></trkpt><trkpt lat="45.1322053114745" lon="7.104402113510893"><ele>458.0</ele><time>2026-04-18T14:23:10Z</time></trkpt><trkpt lat="45.13221864129568" lon="7.104761850687298"><ele>457.0</ele><time>2026-04-18T14:23:11Z</time></trkpt><trkpt lat="45.13222029697512" lon="7.105111842200174"><ele>456.0</ele><time>2026-04-18T14:23:12Z</time></trkpt><trkpt lat="45.1322022781646" lon="7.105488929269378"><ele>455.5</ele><time>2026-04-18T14:23:13Z</time></trkpt><trkpt lat="45.13216103233658" lon="7.105852971539229"><ele>455.0</ele><time>2026-04-18T14:23:14Z</time></trkpt><trkpt lat="45.13211464724893" lon="7.106247872305597"><ele>454.5</ele><time>2026-04-18T14:23:15Z</time></trkpt><trkpt lat="45.13207034236559" lon="7.106636589829525"><ele>454.0</ele><time>2026-04-18T14:23:16Z</time></trkpt><trkpt lat="45.132016508820655" lon="7.107017285081306"><ele>454.0</ele><time>2026-04-18T14:23:17Z</time></trkpt><trkpt lat="45.13195222889191" lon="7.107398798104633"><ele>454.0</ele><time>2026-04-18T14:23:18Z</time></trkpt><trkpt lat="45.13189135017738" lon="7.10777247985483"><ele>454.5</ele><time>2026-04-18T14:23:19Z</time></trkpt><trkpt lat="45.13183371885733" lon="7.10813189562077"><ele>455.0</ele><time>2026-04-18T14:23:20Z</time></trkpt><trkpt lat="45.13181004823755" lon="7.108457592634333"><ele>456.0</ele><time>2026-04-18T14:23:21Z</time></trkpt><trkpt lat="45.13181369424349" lon="7.10878581297443"><ele>457.0</ele><time>2026-04-18T14:23:22Z</time></trkpt><trkpt lat="45.13183477301081" lon="7.109139788367697"><ele>458.0</ele><time>2026-04-18T14:23:23Z</time></trkpt><trkpt lat="45.131919196467685" lon="7.109465946709964"><ele>459.0</ele><time>2026-04-18T14:23:24Z</time></trkpt><trkpt lat="45.13196423276532" lon="7.109797317603999"><ele>459.0</ele><time>2026-04-18T14:23:25Z</time></trkpt><trkpt lat="45.13199499283864" lon="7.11009801173977"><ele>459.0</ele><time>2026-04-18T14:23:26Z</time></trkpt><trkpt lat="45.13203960500449" lon="7.1104054473002645"><ele>459.0</ele><time>2026-04-18T14:23:27Z</time></trkpt><trkpt lat="45.132065630392844" lon="7.110705454108929"><ele>459.33333333333337</ele><time>2026-04-18T14:23:28Z</time></trkpt><trkpt lat="45.13210708761134" lon="7.111014775258793"><ele>459.6666666666667</ele><time>2026-04-18T14:23:29Z</time></trkpt><trkpt lat="45.13215200822119" lon="7.1113189196291025"><ele>460.0</ele><time>2026-04-18T14:23:30Z</time></trkpt><trkpt lat="45.132192557410306" lon="7.1116343554489125"><ele>460.0</ele><time>2026-04-18T14:23:31Z</time></trkpt><trkpt lat="45.13222192221718" lon="7.11195073444256"><ele>460.0</ele><time>2026-04-18T14:23:32Z</time></trkpt><trkpt lat="45.13225331295037" lon="7.112260210197685"><ele>460.0</ele><time>2026-04-18T14:23:33Z</time></trkpt><trkpt lat="45.13228797230054" lon="7.112553421189514"><ele>460.33333333333337</ele><time>2026-04-18T14:23:34Z</time></trkpt><trkpt lat="45.13234038051838" lon="7.112861034918241"><ele>460.66666666666663</ele><time>2026-04-18T14:23:35Z</time></trkpt><trkpt lat="45.13238085327982" lon="7.1131758410518415"><ele>461.0</ele><time>2026-04-18T14:23:36Z</time></trkpt><trkpt lat="45.132417935464154" lon="7.113482834024206"><ele>459.3333333333333</ele><time>2026-04-18T14:23:37Z</time></trkpt><trkpt lat="45.13246351066459" lon="7.113784714395277"><ele>457.66666666666663</ele><time>2026-04-18T14:23:38Z</time></trkpt><trkpt lat="45.13249788581204" lon="7.114084635184257"><ele>456.0</ele><time>2026-04-18T14:23:39Z</time></trkpt><trkpt lat="45.13252612921048" lon="7.114381706657577"><ele>455.66666666666663</ele><time>2026-04-18T14:23:40Z</time></trkpt><trkpt lat="45.13256512528207" lon="7.114670725635385"><ele>455.3333333333333</ele><time>2026-04-18T14:23:41Z</time></trkpt><trkpt lat="45.132611825250045" lon="7.114967938395476"><ele>455.0</ele><time>2026-04-18T14:23:42Z</time></trkpt><trkpt lat="45.13262933002164" lon="7.11527922956092"><ele>454.3333333333333</ele><time>2026-04-18T14:23:43Z</time></trkpt><trkpt lat="45.13264096447241" lon="7.115582673870946"><ele>453.66666666666663</ele><time>2026-04-18T14:23:44Z</time></trkpt><trkpt lat="45.132605640164876" lon="7.115890138435751"><ele>453.0</ele><time>2026-04-18T14:23:45Z</time></trkpt><trkpt lat="45.13255364888342" lon="7.116189749317365"><ele>452.0</ele><time>2026-04-18T14:23:46Z</time></trkpt><trkpt lat="45.132469945076664" lon="7.1164883393666845"><ele>451.0</ele><time>2026-04-18T14:23:47Z</time></trkpt><trkpt lat="45.132376893925425" lon="7.11678348255975"><ele>451.0</ele><time>2026-04-18T14:23:48Z</time></trkpt><trkpt lat="45.132274021912984" lon="7.117102621492717"><ele>451.0</ele><time>2026-04-18T14:23:49Z</time></trkpt><trkpt lat="45.13217576245567" lon="7.1174085282979815"><ele>450.6666666666667</ele><time>2026-04-18T14:23:50Z</time></trkpt><trkpt lat="45.13208337166806" lon="7.117706651269199"><ele>450.33333333333337</ele><time>2026-04-18T14:23:51Z</time></trkpt><trkpt lat="45.13202652144477" lon="7.118001365905794"><ele>450.0</ele><time>2026-04-18T14:23:52Z</time></trkpt><trkpt lat="45.13199301431977" lon="7.118290693768132"><ele>449.5</ele><time>2026-04-18T14:23:53Z</time></trkpt><trkpt lat="45.131968850041616" lon="7.118608072385396"><ele>449.0</ele><time>2026-04-18T14:23:54Z</time></trkpt><trkpt lat="45.131970922609774" lon="7.118970765339137"><ele>448.66666666666663</ele><time>2026-04-18T14:23:55Z</time></trkpt><trkpt lat="45.131950055256866" lon="7.119289301047184"><ele>448.33333333333337</ele><time>2026-04-18T14:23:56Z</time></trkpt><trkpt lat="45.13194502284296" lon="7.119601742147797"><ele>448.0</ele><time>2026-04-18T14:23:57Z</time></trkpt><trkpt lat="45.13193881991774" lon="7.119928886309084"><ele>448.0</ele><time>2026-04-18T14:23:58Z</time></trkpt><trkpt lat="45.131931402273516" lon="7.120252513686558"><ele>448.0</ele><time>2026-04-18T14:23:59Z</time></trkpt><trkpt lat="45.13192288945162" lon="7.120577065900325"><ele>448.0</ele><time>2026-04-18T14:24:00Z</time></trkpt><trkpt lat="45.13189917661655" lon="7.120905935430651"><ele>448.0</ele><time>2026-04-18T14:24:01Z</time></trkpt><trkpt lat="45.13186139827719" lon="7.121230716339323"><ele>447.5</ele><time>2026-04-18T14:24:02Z</time></trkpt><trkpt lat="45.131807775905145" lon="7.121567669160058"><ele>447.0</ele><time>2026-04-18T14:24:03Z</time></trkpt><trkpt lat="45.1317492273042" lon="7.121930654441558"><ele>447.0</ele><time>2026-04-18T14:24:04Z</time></trkpt><trkpt lat="45.13169387440116" lon="7.122271208032037"><ele>447.0</ele><time>2026-04-18T14:24:05Z</time></trkpt><trkpt lat="45.13163780760285" lon="7.122615903633367"><ele>447.0</ele><time>2026-04-18T14:24:06Z</time></trkpt><trkpt lat="45.1315839096466" lon="7.1229454533206455"><ele>447.0</ele><time>2026-04-18T14:24:07Z</time></trkpt><trkpt lat="45.13153864911455" lon="7.123237224489324"><ele>447.0</ele><time>2026-04-18T14:24:08Z</time></trkpt><trkpt lat="45.131499120566595" lon="7.123550463653721"><ele>447.0</ele><time>2026-04-18T14:24:09Z</time></trkpt><trkpt lat="45.1314932227105" lon="7.123854868007152"><ele>447.0</ele><time>2026-04-18T14:24:10Z</time></trkpt><trkpt lat="45.131516065365446" lon="7.124134409258132"><ele>447.0</ele><time>2026-04-18T14:24:11Z</time></trkpt><trkpt lat="45.13154813497774" lon="7.124419759094362"><ele>447.33333333333337</ele><time>2026-04-18T14:24:12Z</time></trkpt><trkpt lat="45.13163809554976" lon="7.124643785578044"><ele>447.6666666666667</ele><time>2026-04-18T14:24:13Z</time></trkpt><trkpt lat="45.131753237423595" lon="7.124924947604521"><ele>448.0</ele><time>2026-04-18T14:24:14Z</time></trkpt><trkpt lat="45.13191247053866" lon="7.12522656298122"><ele>448.0</ele><time>2026-04-18T14:24:15Z</time></trkpt><trkpt lat="45.13208377739972" lon="7.125518138343648"><ele>448.0</ele><time>2026-04-18T14:24:16Z</time></trkpt><trkpt lat="45.132214208199535" lon="7.125748663460466"><ele>447.5</ele><time>2026-04-18T14:24:17Z</time></trkpt><trkpt lat="45.132368363094436" lon="7.125993040391567"><ele>447.0</ele><time>2026-04-18T14:24:18Z</time></trkpt><trkpt lat="45.13256376550132" lon="7.12620724262039"><ele>447.0</ele><time>2026-04-18T14:24:19Z</time></trkpt><trkpt lat="45.132656033314674" lon="7.126508888840905"><ele>447.0</ele><time>2026-04-18T14:24:20Z</time></trkpt><trkpt lat="45.13276048618546" lon="7.126801969647007"><ele>448.0</ele><time>2026-04-18T14:24:21Z</time></trkpt><trkpt lat="45.13286417951422" lon="7.127093312747766"><ele>449.0</ele><time>2026-04-18T14:24:22Z</time></trkpt><trkpt lat="45.132955568150436" lon="7.127365046272792"><ele>450.0</ele><time>2026-04-18T14:24:23Z</time></trkpt><trkpt lat="45.13301875059434" lon="7.12759432018955"><ele>452.0</ele><time>2026-04-18T14:24:24Z</time></trkpt><trkpt lat="45.13308720774678" lon="7.1279313948224505"><ele>454.0</ele><time>2026-04-18T14:24:25Z</time></trkpt><trkpt lat="45.133128429552364" lon="7.128233563895028"><ele>455.5</ele><time>2026-04-18T14:24:26Z</time></trkpt><trkpt lat="45.13316489670461" lon="7.128563427503432"><ele>457.0</ele><time>2026-04-18T14:24:27Z</time></trkpt><trkpt lat="45.133176884808165" lon="7.128876558058511"><ele>455.0</ele><time>2026-04-18T14:24:28Z</time></trkpt><trkpt lat="45.13317672851985" lon="7.129211546685992"><ele>453.0</ele><time>2026-04-18T14:24:29Z</time></trkpt><trkpt lat="45.1331755167265" lon="7.129559523694614"><ele>449.5</ele><time>2026-04-18T14:24:30Z</time></trkpt><trkpt lat="45.13319466742237" lon="7.129914938716234"><ele>446.0</ele><time>2026-04-18T14:24:31Z</time></trkpt><trkpt lat="45.13320717559773" lon="7.130305673696193"><ele>446.0</ele><time>2026-04-18T14:24:32Z</time></trkpt><trkpt lat="45.133219396937626" lon="7.130713504672275"><ele>446.0</ele><time>2026-04-18T14:24:33Z</time></trkpt><trkpt lat="45.133223449648575" lon="7.131103062439659"><ele>445.0</ele><time>2026-04-18T14:24:34Z</time></trkpt><trkpt lat="45.13323946198311" lon="7.131480358400058"><ele>444.0</ele><time>2026-04-18T14:24:35Z</time></trkpt><trkpt lat="45.13324899958329" lon="7.131837938551126"><ele>443.5</ele><time>2026-04-18T14:24:36Z</time></trkpt><trkpt lat="45.13326050969991" lon="7.132189213636964"><ele>443.0</ele><time>2026-04-18T14:24:37Z</time></trkpt><trkpt lat="45.133263963105044" lon="7.132522122344331"><ele>445.0</ele><time>2026-04-18T14:24:38Z</time></trkpt><trkpt lat="45.13329804048947" lon="7.132836697099438"><ele>447.0</ele><time>2026-04-18T14:24:39Z</time></trkpt><trkpt lat="45.13333122313679" lon="7.133158541831409"><ele>448.33333333333337</ele><time>2026-04-18T14:24:40Z</time></trkpt><trkpt lat="45.13337378915324" lon="7.133458312586899"><ele>449.6666666666667</ele><time>2026-04-18T14:24:41Z</time></trkpt><trkpt lat="45.13344327816277" lon="7.1337711359012514"><ele>451.0</ele><time>2026-04-18T14:24:42Z</time></trkpt><trkpt lat="45.133522809525594" lon="7.134083889258045"><ele>451.0</ele><time>2026-04-18T14:24:43Z</time></trkpt><trkpt lat="45.13364238088245" lon="7.1343848007469335"><ele>451.0</ele><time>2026-04-18T14:24:44Z</time></trkpt><trkpt lat="45.13375412842999" lon="7.134670846125405"><ele>451.5</ele><time>2026-04-18T14:24:45Z</time></trkpt><trkpt lat="45.13384647203239" lon="7.134974331781795"><ele>452.0</ele><time>2026-04-18T14:24:46Z</time></trkpt><trkpt lat="45.133924046359596" lon="7.13528596155052"><ele>452.0</ele><time>2026-04-18T14:24:47Z</time></trkpt><trkpt lat="45.13401529844102" lon="7.135598212375348"><ele>452.0</ele><time>2026-04-18T14:24:48Z</time></trkpt><trkpt lat="45.134121416362774" lon="7.135890885206574"><ele>451.0</ele><time>2026-04-18T14:24:49Z</time></trkpt><trkpt lat="45.13420940884316" lon="7.136161269292876"><ele>450.0</ele><time>2026-04-18T14:24:50Z</time></trkpt><trkpt lat="45.13432172331206" lon="7.1364640858847475"><ele>451.5</ele><time>2026-04-18T14:24:51Z</time></trkpt><trkpt lat="45.134430618113655" lon="7.136790290672784"><ele>453.0</ele><time>2026-04-18T14:24:52Z</time></trkpt><trkpt lat="45.13455151041525" lon="7.137157486282232"><ele>454.5</ele><time>2026-04-18T14:24:53Z</time></trkpt><trkpt lat="45.13464964972409" lon="7.13754056100306"><ele>456.0</ele><time>2026-04-18T14:24:54Z</time></trkpt><trkpt lat="45.13478316394243" lon="7.137932198078712"><ele>453.5</ele><time>2026-04-18T14:24:55Z</time></trkpt><trkpt lat="45.134887662759255" lon="7.1383170744825435"><ele>451.0</ele><time>2026-04-18T14:24:56Z</time></trkpt><trkpt lat="45.13498146335158" lon="7.138676312574501"><ele>451.0</ele><time>2026-04-18T14:24:57Z</time></trkpt><trkpt lat="45.13508476469057" lon="7.1390055662356655"><ele>451.0</ele><time>2026-04-18T14:24:58Z</time></trkpt><trkpt lat="45.13516022926524" lon="7.139322828488983"><ele>451.6666666666667</ele><time>2026-04-18T14:24:59Z</time></trkpt><trkpt lat="45.13523355763316" lon="7.139618701675548"><ele>452.33333333333337</ele><time>2026-04-18T14:25:00Z</time></trkpt><trkpt lat="45.13531424080098" lon="7.139897495791159"><ele>453.0</ele><time>2026-04-18T14:25:01Z</time></trkpt><trkpt lat="45.13537465817228" lon="7.140194318110512"><ele>453.0</ele><time>2026-04-18T14:25:02Z</time></trkpt><trkpt lat="45.13542861756621" lon="7.14049710255495"><ele>453.0</ele><time>2026-04-18T14:25:03Z</time></trkpt><trkpt lat="45.135458186498745" lon="7.14081652974622"><ele>453.0</ele><time>2026-04-18T14:25:04Z</time></trkpt><trkpt lat="45.13549903401037" lon="7.141139630966112"><ele>453.0</ele><time>2026-04-18T14:25:05Z</time></trkpt><trkpt lat="45.13553766871694" lon="7.141443720591502"><ele>453.0</ele><time>2026-04-18T14:25:06Z</time></trkpt><trkpt lat="45.13557461922288" lon="7.141736284380715"><ele>453.0</ele><time>2026-04-18T14:25:07Z</time></trkpt><trkpt lat="45.13560971549217" lon="7.1420098093705455"><ele>452.66666666666663</ele><time>2026-04-18T14:25:08Z</time></trkpt><trkpt lat="45.13564515619321" lon="7.142286006160676"><ele>452.3333333333333</ele><time>2026-04-18T14:25:09Z</time></trkpt><trkpt lat="45.1356794027412" lon="7.142552896684864"><ele>452.0</ele><time>2026-04-18T14:25:10Z</time></trkpt><trkpt lat="45.13572135013358" lon="7.142797974040816"><ele>451.3333333333333</ele><time>2026-04-18T14:25:11Z</time></trkpt><trkpt lat="45.13575431895742" lon="7.143069593135638"><ele>450.66666666666663</ele><time>2026-04-18T14:25:12Z</time></trkpt><trkpt lat="45.13576299266797" lon="7.1433465089536785"><ele>450.0</ele><time>2026-04-18T14:25:13Z</time></trkpt><trkpt lat="45.135774744787895" lon="7.143616466650462"><ele>450.0</ele><time>2026-04-18T14:25:14Z</time></trkpt><trkpt lat="45.13577664552893" lon="7.143861428408796"><ele>450.0</ele><time>2026-04-18T14:25:15Z</time></trkpt><trkpt lat="45.13576694527815" lon="7.144080350295232"><ele>450.0</ele><time>2026-04-18T14:25:16Z</time></trkpt><trkpt lat="45.1357572892384" lon="7.144305541842526"><ele>450.0</ele><time>2026-04-18T14:25:17Z</time></trkpt><trkpt lat="45.13574784224387" lon="7.144514725278074"><ele>450.0</ele><time>2026-04-18T14:25:18Z</time></trkpt><trkpt lat="45.1357380681685" lon="7.144713758982809"><ele>450.0</ele><time>2026-04-18T14:25:19Z</time></trkpt><trkpt lat="45.135728090246" lon="7.1449122313085764"><ele>450.0</ele><time>2026-04-18T14:25:20Z</time></trkpt><trkpt lat="45.13571859264511" lon="7.145101149593515"><ele>450.6</ele><time>2026-04-18T14:25:21Z</time></trkpt><trkpt lat="45.135711478034395" lon="7.145266459557476"><ele>451.2</ele><time>2026-04-18T14:25:22Z</time></trkpt><trkpt lat="45.13572022642202" lon="7.145419905717348"><ele>451.79999999999995</ele><time>2026-04-18T14:25:23Z</time></trkpt><trkpt lat="45.135679827576716" lon="7.145556032038105"><ele>452.4</ele><time>2026-04-18T14:25:24Z</time></trkpt><trkpt lat="45.13567519123408" lon="7.145670754873423"><ele>453.0</ele><time>2026-04-18T14:25:25Z</time></trkpt><trkpt lat="45.13567185200542" lon="7.145770904649873"><ele>453.0</ele><time>2026-04-18T14:25:26Z</time></trkpt><trkpt lat="45.13567197545595" lon="7.145883694287463"><ele>453.0</ele><time>2026-04-18T14:25:27Z</time></trkpt><trkpt lat="45.13567541797916" lon="7.145986579555536"><ele>453.0</ele><time>2026-04-18T14:25:28Z</time></trkpt><trkpt lat="45.13566653724607" lon="7.146083778196549"><ele>453.0</ele><time>2026-04-18T14:25:29Z</time></trkpt><trkpt lat="45.13564600787107" lon="7.146175318536575"><ele>453.0</ele><time>2026-04-18T14:25:30Z</time></trkpt><trkpt lat="45.135601182456476" lon="7.146260449891082"><ele>453.0</ele><time>2026-04-18T14:25:31Z</time></trkpt><trkpt lat="45.135589184506685" lon="7.146435690743696"><ele>453.0</ele><time>2026-04-18T14:25:33Z</time></trkpt><trkpt lat="45.13558338196855" lon="7.1465402076983935"><ele>452.99999999999994</ele><time>2026-04-18T14:25:34Z</time></trkpt><trkpt lat="45.135577705582186" lon="7.146645283521649"><ele>452.99999999999994</ele><time>2026-04-18T14:25:35Z</time></trkpt><trkpt lat="45.135555773910745" lon="7.146786287655914"><ele>453.0</ele><time>2026-04-18T14:25:36Z</time></trkpt><trkpt lat="45.135589100649746" lon="7.146942671122012"><ele>453.0</ele><time>2026-04-18T14:25:37Z</time></trkpt><trkpt lat="45.13561193896144" lon="7.147156783544337"><ele>451.66666666666663</ele><time>2026-04-18T14:25:38Z</time></trkpt><trkpt lat="45.13561856348345" lon="7.1473801652109925"><ele>450.3333333333333</ele><time>2026-04-18T14:25:39Z</time></trkpt><trkpt lat="45.13561070900162" lon="7.147643061335766"><ele>449.0</ele><time>2026-04-18T14:25:40Z</time></trkpt><trkpt lat="45.135586742595066" lon="7.147889651694505"><ele>449.0</ele><time>2026-04-18T14:25:41Z</time></trkpt><trkpt lat="45.13557466840786" lon="7.148130999911236"><ele>449.0</ele><time>2026-04-18T14:25:42Z</time></trkpt><trkpt lat="45.13556205049035" lon="7.1483832166366525"><ele>449.0</ele><time>2026-04-18T14:25:43Z</time></trkpt><trkpt lat="45.13554964481659" lon="7.148631190969422"><ele>447.66666666666663</ele><time>2026-04-18T14:25:44Z</time></trkpt><trkpt lat="45.13555355812298" lon="7.148884281051737"><ele>446.33333333333337</ele><time>2026-04-18T14:25:45Z</time></trkpt><trkpt lat="45.13552475289004" lon="7.149130416659541"><ele>445.0</ele><time>2026-04-18T14:25:46Z</time></trkpt><trkpt lat="45.13551214404535" lon="7.149379953884638"><ele>444.6666666666667</ele><time>2026-04-18T14:25:47Z</time></trkpt><trkpt lat="45.13549975956824" lon="7.149625050722852"><ele>444.33333333333337</ele><time>2026-04-18T14:25:48Z</time></trkpt><trkpt lat="45.1354874363028" lon="7.149870279372615"><ele>444.0</ele><time>2026-04-18T14:25:49Z</time></trkpt><trkpt lat="45.1354752583919" lon="7.150122387869868"><ele>443.66666666666663</ele><time>2026-04-18T14:25:50Z</time></trkpt><trkpt lat="45.13548691964329" lon="7.150359956579791"><ele>443.3333333333333</ele><time>2026-04-18T14:25:51Z</time></trkpt><trkpt lat="45.13548097305525" lon="7.1505789393900026"><ele>443.0</ele><time>2026-04-18T14:25:52Z</time></trkpt><trkpt lat="45.13547801166564" lon="7.150778329854001"><ele>443.0</ele><time>2026-04-18T14:25:53Z</time></trkpt><trkpt lat="45.13546152998213" lon="7.150955698428183"><ele>443.0</ele><time>2026-04-18T14:25:54Z</time></trkpt><trkpt lat="45.1354267098958" lon="7.151115027416511"><ele>443.0</ele><time>2026-04-18T14:25:55Z</time></trkpt><trkpt lat="45.135419151497395" lon="7.151259386072687"><ele>443.0</ele><time>2026-04-18T14:25:56Z</time></trkpt><trkpt lat="45.13541136376026" lon="7.151411982592787"><ele>442.49999999999994</ele><time>2026-04-18T14:25:57Z</time></trkpt><trkpt lat="45.13540420042663" lon="7.151552344219674"><ele>442.0</ele><time>2026-04-18T14:25:58Z</time></trkpt><trkpt lat="45.13539742083639" lon="7.151685186617743"><ele>441.5</ele><time>2026-04-18T14:25:59.001Z</time></trkpt><trkpt lat="45.13539144023621" lon="7.151802373163599"><ele>441.0</ele><time>2026-04-18T14:26:00.001Z</time></trkpt><trkpt lat="45.135424440661765" lon="7.151914814075212"><ele>440.49999999999994</ele><time>2026-04-18T14:26:01.001Z</time></trkpt><trkpt lat="45.135408536043364" lon="7.152021664250778"><ele>440.0</ele><time>2026-04-18T14:26:02.001Z</time></trkpt><trkpt lat="45.13536952305861" lon="7.152120454709805"><ele>439.99999999999994</ele><time>2026-04-18T14:26:03.001Z</time></trkpt><trkpt lat="45.13533984870794" lon="7.15220418290531"><ele>440.0</ele><time>2026-04-18T14:26:04.001Z</time></trkpt><trkpt lat="45.13529433099432" lon="7.15229054530799"><ele>440.0</ele><time>2026-04-18T14:26:05.001Z</time></trkpt><trkpt lat="45.135226485958" lon="7.1523503782269895"><ele>440.0</ele><time>2026-04-18T14:26:06.001Z</time></trkpt><trkpt lat="45.13517142179677" lon="7.15243560278949"><ele>439.99999999999994</ele><time>2026-04-18T14:26:07.001Z</time></trkpt><trkpt lat="45.13516545395855" lon="7.152562977266678"><ele>440.0</ele><time>2026-04-18T14:26:08.001Z</time></trkpt><trkpt lat="45.13516679033339" lon="7.152680916319453"><ele>439.8</ele><time>2026-04-18T14:26:09.001Z</time></trkpt><trkpt lat="45.13520476081553" lon="7.152777837801036"><ele>439.6</ele><time>2026-04-18T14:26:09.999Z</time></trkpt><trkpt lat="45.135253742657504" lon="7.1528716794366"><ele>439.4</ele><time>2026-04-18T14:26:10.999Z</time></trkpt><trkpt lat="45.13529375107933" lon="7.152997547034661"><ele>439.2</ele><time>2026-04-18T14:26:11.999Z</time></trkpt><trkpt lat="45.13532084585413" lon="7.153169272347303"><ele>439.0</ele><time>2026-04-18T14:26:12.999Z</time></trkpt><trkpt lat="45.13531815247178" lon="7.153406582636463"><ele>438.6666666666667</ele><time>2026-04-18T14:26:14Z</time></trkpt><trkpt lat="45.13528412656868" lon="7.1536041395736785"><ele>438.33333333333337</ele><time>2026-04-18T14:26:15Z</time></trkpt><trkpt lat="45.13525474957843" lon="7.15382110739754"><ele>438.0</ele><time>2026-04-18T14:26:16Z</time></trkpt><trkpt lat="45.135213275703634" lon="7.154035255431767"><ele>437.66666666666663</ele><time>2026-04-18T14:26:17Z</time></trkpt><trkpt lat="45.135166234164394" lon="7.154236383799228"><ele>437.3333333333333</ele><time>2026-04-18T14:26:18Z</time></trkpt><trkpt lat="45.13510516615229" lon="7.154434419117411"><ele>437.0</ele><time>2026-04-18T14:26:19Z</time></trkpt><trkpt lat="45.13503343470844" lon="7.154639605219918"><ele>437.0</ele><time>2026-04-18T14:26:20Z</time></trkpt><trkpt lat="45.13494956327543" lon="7.154869387265787"><ele>437.0</ele><time>2026-04-18T14:26:21Z</time></trkpt><trkpt lat="45.13484670625535" lon="7.155134996423175"><ele>437.0</ele><time>2026-04-18T14:26:22Z</time></trkpt><trkpt lat="45.13471990514663" lon="7.155461539893312"><ele>437.5</ele><time>2026-04-18T14:26:23Z</time></trkpt><trkpt lat="45.13459345213668" lon="7.155785550604367"><ele>438.0</ele><time>2026-04-18T14:26:24Z</time></trkpt><trkpt lat="45.13444588101655" lon="7.156163672240808"><ele>437.5</ele><time>2026-04-18T14:26:25Z</time></trkpt><trkpt lat="45.13429955798959" lon="7.156538595953567"><ele>437.0</ele><time>2026-04-18T14:26:26Z</time></trkpt><trkpt lat="45.1341530255061" lon="7.156914056295401"><ele>437.0</ele><time>2026-04-18T14:26:27Z</time></trkpt><trkpt lat="45.134012024125745" lon="7.1572787146789105"><ele>437.0</ele><time>2026-04-18T14:26:28Z</time></trkpt><trkpt lat="45.13386782021909" lon="7.157665316496924"><ele>437.0</ele><time>2026-04-18T14:26:29Z</time></trkpt><trkpt lat="45.133741899498595" lon="7.158084708287706"><ele>437.0</ele><time>2026-04-18T14:26:30Z</time></trkpt><trkpt lat="45.13363359106766" lon="7.158500573696747"><ele>436.5</ele><time>2026-04-18T14:26:31Z</time></trkpt><trkpt lat="45.13351815759255" lon="7.158907883538173"><ele>436.0</ele><time>2026-04-18T14:26:32Z</time></trkpt><trkpt lat="45.13343095586027" lon="7.159318545729797"><ele>436.0</ele><time>2026-04-18T14:26:33Z</time></trkpt><trkpt lat="45.13332744755583" lon="7.159707860710953"><ele>436.0</ele><time>2026-04-18T14:26:34Z</time></trkpt><trkpt lat="45.13323569045387" lon="7.160085236779968"><ele>435.0</ele><time>2026-04-18T14:26:35Z</time></trkpt><trkpt lat="45.13314765232264" lon="7.160447317356426"><ele>434.0</ele><time>2026-04-18T14:26:36Z</time></trkpt><trkpt lat="45.13306915916492" lon="7.160790018345856"><ele>432.5</ele><time>2026-04-18T14:26:37Z</time></trkpt><trkpt lat="45.1329629152603" lon="7.1611373457967815"><ele>431.0</ele><time>2026-04-18T14:26:38Z</time></trkpt><trkpt lat="45.13283507278235" lon="7.161468417774207"><ele>431.0</ele><time>2026-04-18T14:26:39Z</time></trkpt><trkpt lat="45.13272233150487" lon="7.1618121052994645"><ele>431.0</ele><time>2026-04-18T14:26:40Z</time></trkpt><trkpt lat="45.13257497551587" lon="7.16215699242575"><ele>432.0</ele><time>2026-04-18T14:26:41Z</time></trkpt><trkpt lat="45.132432835586684" lon="7.162522023482486"><ele>433.0</ele><time>2026-04-18T14:26:42Z</time></trkpt><trkpt lat="45.13229578860358" lon="7.162878291564191"><ele>433.0</ele><time>2026-04-18T14:26:43Z</time></trkpt><trkpt lat="45.132149058358614" lon="7.163260445446598"><ele>433.0</ele><time>2026-04-18T14:26:44Z</time></trkpt><trkpt lat="45.13200845525511" lon="7.163627221034027"><ele>433.0</ele><time>2026-04-18T14:26:45Z</time></trkpt><trkpt lat="45.13185524924422" lon="7.164023081645876"><ele>433.0</ele><time>2026-04-18T14:26:46Z</time></trkpt><trkpt lat="45.13173368772541" lon="7.164338804378019"><ele>433.5</ele><time>2026-04-18T14:26:47Z</time></trkpt><trkpt lat="45.13161180528461" lon="7.164657264523868"><ele>434.0</ele><time>2026-04-18T14:26:48Z</time></trkpt><trkpt lat="45.13149414832557" lon="7.164966789699067"><ele>434.0</ele><time>2026-04-18T14:26:49Z</time></trkpt><trkpt lat="45.13138575394071" lon="7.165270084856773"><ele>434.0</ele><time>2026-04-18T14:26:50Z</time></trkpt><trkpt lat="45.131296197239486" lon="7.165585297267864"><ele>433.0</ele><time>2026-04-18T14:26:51Z</time></trkpt><trkpt lat="45.1312369967559" lon="7.1659038047847226"><ele>432.0</ele><time>2026-04-18T14:26:52Z</time></trkpt><trkpt lat="45.13118964225197" lon="7.166229778308204"><ele>431.66666666666663</ele><time>2026-04-18T14:26:53Z</time></trkpt><trkpt lat="45.13114993764966" lon="7.166534987251926"><ele>431.3333333333333</ele><time>2026-04-18T14:26:54Z</time></trkpt><trkpt lat="45.13110984506442" lon="7.166840321395284"><ele>431.0</ele><time>2026-04-18T14:26:55Z</time></trkpt><trkpt lat="45.13107274210879" lon="7.167120670373843"><ele>430.3333333333333</ele><time>2026-04-18T14:26:56Z</time></trkpt><trkpt lat="45.13103130955592" lon="7.167434248004573"><ele>429.66666666666663</ele><time>2026-04-18T14:26:57Z</time></trkpt><trkpt lat="45.13099022209792" lon="7.167745213761517"><ele>429.0</ele><time>2026-04-18T14:26:58Z</time></trkpt><trkpt lat="45.13094867997082" lon="7.168059710112217"><ele>429.0</ele><time>2026-04-18T14:26:59Z</time></trkpt><trkpt lat="45.13090743962144" lon="7.168372136664983"><ele>429.0</ele><time>2026-04-18T14:27:00Z</time></trkpt><trkpt lat="45.13086090531303" lon="7.168692048578928"><ele>429.0</ele><time>2026-04-18T14:27:01Z</time></trkpt><trkpt lat="45.13082477925087" lon="7.169011184680905"><ele>429.0</ele><time>2026-04-18T14:27:02Z</time></trkpt><trkpt lat="45.13076350213935" lon="7.169337601754548"><ele>431.5</ele><time>2026-04-18T14:27:03Z</time></trkpt><trkpt lat="45.130717402477266" lon="7.169675208291313"><ele>434.0</ele><time>2026-04-18T14:27:04Z</time></trkpt><trkpt lat="45.13067304949382" lon="7.169992810119186"><ele>434.0</ele><time>2026-04-18T14:27:05Z</time></trkpt><trkpt lat="45.13062792215281" lon="7.1702913682542455"><ele>434.0</ele><time>2026-04-18T14:27:06Z</time></trkpt><trkpt lat="45.13059850589303" lon="7.170588935442911"><ele>434.0</ele><time>2026-04-18T14:27:07Z</time></trkpt><trkpt lat="45.130572187571225" lon="7.170879497164301"><ele>433.3333333333333</ele><time>2026-04-18T14:27:08Z</time></trkpt><trkpt lat="45.130527986753954" lon="7.171154012992419"><ele>432.66666666666663</ele><time>2026-04-18T14:27:09Z</time></trkpt><trkpt lat="45.13049429359457" lon="7.1714281883358835"><ele>432.0</ele><time>2026-04-18T14:27:10Z</time></trkpt><trkpt lat="45.13046605669662" lon="7.171685406667657"><ele>431.66666666666663</ele><time>2026-04-18T14:27:11Z</time></trkpt><trkpt lat="45.13043562357303" lon="7.171941742060568"><ele>431.3333333333333</ele><time>2026-04-18T14:27:12Z</time></trkpt><trkpt lat="45.13036406104987" lon="7.172187445608574"><ele>431.0</ele><time>2026-04-18T14:27:13Z</time></trkpt><trkpt lat="45.13028232234597" lon="7.17242896059906"><ele>430.0</ele><time>2026-04-18T14:27:14Z</time></trkpt><trkpt lat="45.1301884063792" lon="7.172685038081027"><ele>429.0</ele><time>2026-04-18T14:27:15Z</time></trkpt><trkpt lat="45.130082166802765" lon="7.1728874053738485"><ele>428.0</ele><time>2026-04-18T14:27:16Z</time></trkpt><trkpt lat="45.12997471277241" lon="7.17305288197257"><ele>428.5</ele><time>2026-04-18T14:27:17Z</time></trkpt><trkpt lat="45.12987108705062" lon="7.1732021668094035"><ele>429.0</ele><time>2026-04-18T14:27:18Z</time></trkpt><trkpt lat="45.129768077861364" lon="7.173342813595302"><ele>429.5</ele><time>2026-04-18T14:27:19Z</time></trkpt><trkpt lat="45.129670762965816" lon="7.1734699926746615"><ele>430.0</ele><time>2026-04-18T14:27:20Z</time></trkpt><trkpt lat="45.12958624405412" lon="7.173576657898332"><ele>430.0</ele><time>2026-04-18T14:27:21Z</time></trkpt><trkpt lat="45.12951794166983" lon="7.1736628573468755"><ele>430.0</ele><time>2026-04-18T14:27:22Z</time></trkpt><trkpt lat="45.129420783650026" lon="7.173784717684425"><ele>430.0</ele><time>2026-04-18T14:27:23Z</time></trkpt><trkpt lat="45.129336059894094" lon="7.173894117457386"><ele>430.0</ele><time>2026-04-18T14:27:24Z</time></trkpt><trkpt lat="45.129237162503614" lon="7.174023123148828"><ele>429.75</ele><time>2026-04-18T14:27:25Z</time></trkpt><trkpt lat="45.12914265063484" lon="7.174146529706202"><ele>429.5</ele><time>2026-04-18T14:27:26Z</time></trkpt><trkpt lat="45.129047675531375" lon="7.174270583704563"><ele>429.25</ele><time>2026-04-18T14:27:27Z</time></trkpt><trkpt lat="45.12895657222854" lon="7.174389158591119"><ele>429.0</ele><time>2026-04-18T14:27:28Z</time></trkpt><trkpt lat="45.12887423973178" lon="7.174526033050501"><ele>429.0</ele><time>2026-04-18T14:27:29Z</time></trkpt><trkpt lat="45.128770120534284" lon="7.174631902608473"><ele>429.0</ele><time>2026-04-18T14:27:30Z</time></trkpt><trkpt lat="45.12867324159603" lon="7.174758030427146"><ele>429.0</ele><time>2026-04-18T14:27:31Z</time></trkpt><trkpt lat="45.128584399475265" lon="7.174873695132091"><ele>429.0</ele><time>2026-04-18T14:27:32Z</time></trkpt><trkpt lat="45.128508936207865" lon="7.175003308654677"><ele>429.25</ele><time>2026-04-18T14:27:33Z</time></trkpt><trkpt lat="45.12841310674079" lon="7.175080131774396"><ele>429.5</ele><time>2026-04-18T14:27:34Z</time></trkpt><trkpt lat="45.12832853058519" lon="7.175193132024601"><ele>429.75</ele><time>2026-04-18T14:27:35Z</time></trkpt><trkpt lat="45.12823369004775" lon="7.175324399762609"><ele>430.0</ele><time>2026-04-18T14:27:36Z</time></trkpt><trkpt lat="45.12814840388685" lon="7.1754367140193525"><ele>430.0</ele><time>2026-04-18T14:27:37Z</time></trkpt><trkpt lat="45.12805255630488" lon="7.1755856928096255"><ele>430.0</ele><time>2026-04-18T14:27:38Z</time></trkpt><trkpt lat="45.1279518763158" lon="7.175720339906151"><ele>430.0</ele><time>2026-04-18T14:27:39Z</time></trkpt><trkpt lat="45.12783470122958" lon="7.175808842796522"><ele>430.0</ele><time>2026-04-18T14:27:40Z</time></trkpt><trkpt lat="45.12773394578548" lon="7.175953537927514"><ele>429.25</ele><time>2026-04-18T14:27:41Z</time></trkpt><trkpt lat="45.12765344227797" lon="7.176072427321137"><ele>428.5</ele><time>2026-04-18T14:27:42Z</time></trkpt><trkpt lat="45.12756681383065" lon="7.176202288701787"><ele>427.75</ele><time>2026-04-18T14:27:43Z</time></trkpt><trkpt lat="45.12748406057015" lon="7.176306255679078"><ele>427.0</ele><time>2026-04-18T14:27:44Z</time></trkpt><trkpt lat="45.12740463705657" lon="7.176411772429923"><ele>428.0</ele><time>2026-04-18T14:27:45Z</time></trkpt><trkpt lat="45.12732812833173" lon="7.176528501069211"><ele>429.0</ele><time>2026-04-18T14:27:46Z</time></trkpt><trkpt lat="45.127262018116106" lon="7.176662481718688"><ele>430.0</ele><time>2026-04-18T14:27:47Z</time></trkpt><trkpt lat="45.12719737576705" lon="7.17679699936582"><ele>431.0</ele><time>2026-04-18T14:27:48Z</time></trkpt><trkpt lat="45.12713937942875" lon="7.176944696497615"><ele>431.0</ele><time>2026-04-18T14:27:49Z</time></trkpt><trkpt lat="45.12708807835214" lon="7.1770811185477275"><ele>431.0</ele><time>2026-04-18T14:27:50Z</time></trkpt><trkpt lat="45.1270643776588" lon="7.177237704034073"><ele>431.0</ele><time>2026-04-18T14:27:51Z</time></trkpt><trkpt lat="45.12704974097048" lon="7.177393600118139"><ele>431.0</ele><time>2026-04-18T14:27:52Z</time></trkpt><trkpt lat="45.127016614816064" lon="7.177560790032543"><ele>431.5</ele><time>2026-04-18T14:27:53Z</time></trkpt><trkpt lat="45.126995711361474" lon="7.177730132434179"><ele>432.0</ele><time>2026-04-18T14:27:54Z</time></trkpt><trkpt lat="45.12698446542815" lon="7.177896024624511"><ele>432.5</ele><time>2026-04-18T14:27:55Z</time></trkpt><trkpt lat="45.126978241968786" lon="7.178064210116726"><ele>433.0</ele><time>2026-04-18T14:27:56Z</time></trkpt><trkpt lat="45.12698309799657" lon="7.178231359629152"><ele>434.25</ele><time>2026-04-18T14:27:57Z</time></trkpt><trkpt lat="45.12696560815335" lon="7.178398028482316"><ele>435.5</ele><time>2026-04-18T14:27:58.001Z</time></trkpt><trkpt lat="45.12696163530069" lon="7.178551338823718"><ele>436.75</ele><time>2026-04-18T14:27:59.001Z</time></trkpt><trkpt lat="45.12695568113186" lon="7.1787182607433575"><ele>438.0</ele><time>2026-04-18T14:28:00.001Z</time></trkpt><trkpt lat="45.126952663661505" lon="7.1788727270302015"><ele>437.75</ele><time>2026-04-18T14:28:01.001Z</time></trkpt><trkpt lat="45.12694847109793" lon="7.17903994127554"><ele>437.5</ele><time>2026-04-18T14:28:02.001Z</time></trkpt><trkpt lat="45.126945727281125" lon="7.179201380631283"><ele>437.25</ele><time>2026-04-18T14:28:03.001Z</time></trkpt><trkpt lat="45.126936491209214" lon="7.179356322017231"><ele>437.0</ele><time>2026-04-18T14:28:04.001Z</time></trkpt><trkpt lat="45.1269462276611" lon="7.179513677530606"><ele>437.0</ele><time>2026-04-18T14:28:05.001Z</time></trkpt><trkpt lat="45.126936762074834" lon="7.179669424859482"><ele>437.00000000000006</ele><time>2026-04-18T14:28:06.001Z</time></trkpt><trkpt lat="45.12692196019159" lon="7.179823140562897"><ele>437.00000000000006</ele><time>2026-04-18T14:28:07.001Z</time></trkpt><trkpt lat="45.12691153570044" lon="7.179988435593856"><ele>437.0</ele><time>2026-04-18T14:28:08.001Z</time></trkpt><trkpt lat="45.12690613683539" lon="7.180146901525795"><ele>437.0</ele><time>2026-04-18T14:28:09.001Z</time></trkpt><trkpt lat="45.126888295595116" lon="7.180299627354733"><ele>437.5</ele><time>2026-04-18T14:28:10.001Z</time></trkpt><trkpt lat="45.126872473489875" lon="7.180454651056485"><ele>438.0</ele><time>2026-04-18T14:28:11.001Z</time></trkpt><trkpt lat="45.12683958183054" lon="7.180611362813645"><ele>438.5</ele><time>2026-04-18T14:28:12.001Z</time></trkpt><trkpt lat="45.12680078853492" lon="7.180764497662931"><ele>439.0</ele><time>2026-04-18T14:28:13.001Z</time></trkpt><trkpt lat="45.12677467430001" lon="7.180934146688921"><ele>439.0</ele><time>2026-04-18T14:28:14.001Z</time></trkpt><trkpt lat="45.12675142750176" lon="7.181124176408756"><ele>439.0</ele><time>2026-04-18T14:28:15.001Z</time></trkpt><trkpt lat="45.126720869067874" lon="7.181290514345278"><ele>439.0</ele><time>2026-04-18T14:28:16Z</time></trkpt><trkpt lat="45.12669547998045" lon="7.181480710393909"><ele>439.0</ele><time>2026-04-18T14:28:17Z</time></trkpt><trkpt lat="45.12666473107388" lon="7.181634042099741"><ele>439.0</ele><time>2026-04-18T14:28:18Z</time></trkpt><trkpt lat="45.12663786131256" lon="7.181802704599548"><ele>439.0</ele><time>2026-04-18T14:28:19Z</time></trkpt><trkpt lat="45.12661319771229" lon="7.181968700626367"><ele>439.0</ele><time>2026-04-18T14:28:20Z</time></trkpt><trkpt lat="45.126578687186864" lon="7.182152163231118"><ele>439.0</ele><time>2026-04-18T14:28:21Z</time></trkpt><trkpt lat="45.12652547373275" lon="7.182312563616859"><ele>440.25</ele><time>2026-04-18T14:28:22Z</time></trkpt><trkpt lat="45.12645649659991" lon="7.1824534098456985"><ele>441.5</ele><time>2026-04-18T14:28:23Z</time></trkpt><trkpt lat="45.12637610605329" lon="7.182583399000393"><ele>442.75</ele><time>2026-04-18T14:28:24Z</time></trkpt><trkpt lat="45.12627614430502" lon="7.182707530100454"><ele>444.0</ele><time>2026-04-18T14:28:25Z</time></trkpt><trkpt lat="45.126158886075764" lon="7.182840866717729"><ele>444.0</ele><time>2026-04-18T14:28:26Z</time></trkpt><trkpt lat="45.12599873067972" lon="7.183013091601197"><ele>444.0</ele><time>2026-04-18T14:28:27Z</time></trkpt><trkpt lat="45.12587655448229" lon="7.1831703820071"><ele>444.0</ele><time>2026-04-18T14:28:28Z</time></trkpt><trkpt lat="45.12575365237233" lon="7.183258496133673"><ele>444.75</ele><time>2026-04-18T14:28:29Z</time></trkpt><trkpt lat="45.125646140592984" lon="7.183377771316572"><ele>445.5</ele><time>2026-04-18T14:28:30Z</time></trkpt><trkpt lat="45.125548368000366" lon="7.183494984462577"><ele>446.25</ele><time>2026-04-18T14:28:31Z</time></trkpt><trkpt lat="45.125470576638854" lon="7.183595918921842"><ele>447.0</ele><time>2026-04-18T14:28:32Z</time></trkpt><trkpt lat="45.125377843669824" lon="7.183700274016642"><ele>447.0</ele><time>2026-04-18T14:28:33Z</time></trkpt><trkpt lat="45.12528666906125" lon="7.183806696771065"><ele>447.0</ele><time>2026-04-18T14:28:34Z</time></trkpt><trkpt lat="45.12518567094631" lon="7.183909722083583"><ele>447.0</ele><time>2026-04-18T14:28:35Z</time></trkpt><trkpt lat="45.125091277397054" lon="7.184026154140294"><ele>447.0</ele><time>2026-04-18T14:28:36Z</time></trkpt><trkpt lat="45.12499321589811" lon="7.184141052480433"><ele>447.0</ele><time>2026-04-18T14:28:37Z</time></trkpt><trkpt lat="45.1248976118501" lon="7.184254807945279"><ele>447.0</ele><time>2026-04-18T14:28:38Z</time></trkpt><trkpt lat="45.124804807906045" lon="7.184372805302957"><ele>447.0</ele><time>2026-04-18T14:28:39Z</time></trkpt><trkpt lat="45.12471646925402" lon="7.184496784084756"><ele>447.0</ele><time>2026-04-18T14:28:40Z</time></trkpt><trkpt lat="45.12463866034337" lon="7.184635949678948"><ele>447.0</ele><time>2026-04-18T14:28:41Z</time></trkpt><trkpt lat="45.124553983163004" lon="7.184844702554621"><ele>447.0</ele><time>2026-04-18T14:28:42Z</time></trkpt><trkpt lat="45.12449899333583" lon="7.185025559820099"><ele>447.0</ele><time>2026-04-18T14:28:43Z</time></trkpt><trkpt lat="45.12446044998515" lon="7.185243250837672"><ele>444.33333333333337</ele><time>2026-04-18T14:28:44Z</time></trkpt><trkpt lat="45.124454718342605" lon="7.185458000076772"><ele>441.6666666666667</ele><time>2026-04-18T14:28:45Z</time></trkpt><trkpt lat="45.124456835953175" lon="7.185675209393612"><ele>439.0</ele><time>2026-04-18T14:28:46Z</time></trkpt><trkpt lat="45.12445456040513" lon="7.185945290300715"><ele>435.5</ele><time>2026-04-18T14:28:47Z</time></trkpt><trkpt lat="45.12447022587204" lon="7.18625916104173"><ele>432.0</ele><time>2026-04-18T14:28:48Z</time></trkpt><trkpt lat="45.12447058752795" lon="7.186602400713932"><ele>430.5</ele><time>2026-04-18T14:28:49Z</time></trkpt><trkpt lat="45.12445769241596" lon="7.186965644261622"><ele>429.0</ele><time>2026-04-18T14:28:50Z</time></trkpt><trkpt lat="45.124462460157616" lon="7.187310683744603"><ele>430.0</ele><time>2026-04-18T14:28:51Z</time></trkpt><trkpt lat="45.124447684299746" lon="7.18764845206469"><ele>431.0</ele><time>2026-04-18T14:28:52Z</time></trkpt><trkpt lat="45.12444550245397" lon="7.187967333235823"><ele>431.66666666666663</ele><time>2026-04-18T14:28:53Z</time></trkpt><trkpt lat="45.12444053169916" lon="7.188266462217643"><ele>432.33333333333337</ele><time>2026-04-18T14:28:54Z</time></trkpt><trkpt lat="45.12443530370473" lon="7.188558611361613"><ele>433.0</ele><time>2026-04-18T14:28:55Z</time></trkpt><trkpt lat="45.12441982505688" lon="7.188888541934038"><ele>434.0</ele><time>2026-04-18T14:28:56Z</time></trkpt><trkpt lat="45.12435921830971" lon="7.189222245134846"><ele>435.0</ele><time>2026-04-18T14:28:57Z</time></trkpt><trkpt lat="45.12428104157129" lon="7.189567353164499"><ele>436.0</ele><time>2026-04-18T14:28:58Z</time></trkpt><trkpt lat="45.12420174559306" lon="7.189929601082961"><ele>437.0</ele><time>2026-04-18T14:28:59Z</time></trkpt><trkpt lat="45.12411686218822" lon="7.190267180818744"><ele>436.5</ele><time>2026-04-18T14:29:00Z</time></trkpt><trkpt lat="45.124026567866444" lon="7.190586398794859"><ele>436.0</ele><time>2026-04-18T14:29:01Z</time></trkpt><trkpt lat="45.12392833884035" lon="7.190882349194031"><ele>435.0</ele><time>2026-04-18T14:29:02Z</time></trkpt><trkpt lat="45.12382302036526" lon="7.1912097751544595"><ele>434.0</ele><time>2026-04-18T14:29:03Z</time></trkpt><trkpt lat="45.12369484877219" lon="7.191555903219464"><ele>432.0</ele><time>2026-04-18T14:29:04Z</time></trkpt><trkpt lat="45.12357235355493" lon="7.191881537032881"><ele>430.0</ele><time>2026-04-18T14:29:05Z</time></trkpt><trkpt lat="45.123450649673096" lon="7.192205562194663"><ele>427.5</ele><time>2026-04-18T14:29:06Z</time></trkpt><trkpt lat="45.12333603164586" lon="7.192509245730234"><ele>425.0</ele><time>2026-04-18T14:29:07Z</time></trkpt><trkpt lat="45.12321472759502" lon="7.192823828690168"><ele>428.0</ele><time>2026-04-18T14:29:08Z</time></trkpt><trkpt lat="45.12309364854027" lon="7.1931076219900545"><ele>431.0</ele><time>2026-04-18T14:29:09Z</time></trkpt><trkpt lat="45.12298599401644" lon="7.193378649719465"><ele>431.0</ele><time>2026-04-18T14:29:10Z</time></trkpt><trkpt lat="45.12286871602089" lon="7.19364059925635"><ele>431.0</ele><time>2026-04-18T14:29:11Z</time></trkpt><trkpt lat="45.12272243273159" lon="7.19390318082931"><ele>428.0</ele><time>2026-04-18T14:29:12Z</time></trkpt><trkpt lat="45.122567068901716" lon="7.194162827303262"><ele>425.0</ele><time>2026-04-18T14:29:13Z</time></trkpt><trkpt lat="45.12240809547878" lon="7.194426799705344"><ele>425.0</ele><time>2026-04-18T14:29:14Z</time></trkpt><trkpt lat="45.122242241313074" lon="7.194703286352356"><ele>425.0</ele><time>2026-04-18T14:29:15Z</time></trkpt><trkpt lat="45.122115479186114" lon="7.195030337707788"><ele>425.0</ele><time>2026-04-18T14:29:16Z</time></trkpt><trkpt lat="45.121949672921396" lon="7.195316542799156"><ele>425.0</ele><time>2026-04-18T14:29:17Z</time></trkpt><trkpt lat="45.12180682218601" lon="7.19559623620286"><ele>425.5</ele><time>2026-04-18T14:29:18Z</time></trkpt><trkpt lat="45.121676183102956" lon="7.195889572313826"><ele>426.0</ele><time>2026-04-18T14:29:19Z</time></trkpt><trkpt lat="45.12155736942806" lon="7.19617625171322"><ele>426.0</ele><time>2026-04-18T14:29:20Z</time></trkpt><trkpt lat="45.121448048339396" lon="7.19645447169958"><ele>426.0</ele><time>2026-04-18T14:29:21Z</time></trkpt><trkpt lat="45.12138318944896" lon="7.196727418031667"><ele>426.0</ele><time>2026-04-18T14:29:22Z</time></trkpt><trkpt lat="45.12136618840641" lon="7.196967722226319"><ele>426.0</ele><time>2026-04-18T14:29:23Z</time></trkpt><trkpt lat="45.12133506138937" lon="7.197257056300696"><ele>426.0</ele><time>2026-04-18T14:29:24Z</time></trkpt><trkpt lat="45.12129904828726" lon="7.197532866798638"><ele>426.0</ele><time>2026-04-18T14:29:25Z</time></trkpt><trkpt lat="45.12131053221119" lon="7.197838273927775"><ele>429.5</ele><time>2026-04-18T14:29:26Z</time></trkpt><trkpt lat="45.12134442688243" lon="7.198216124733934"><ele>433.0</ele><time>2026-04-18T14:29:27Z</time></trkpt><trkpt lat="45.121391301577" lon="7.198602896102764"><ele>433.0</ele><time>2026-04-18T14:29:28Z</time></trkpt><trkpt lat="45.12143855680329" lon="7.198912767925153"><ele>433.0</ele><time>2026-04-18T14:29:29Z</time></trkpt><trkpt lat="45.1214720074406" lon="7.199197664095878"><ele>433.0</ele><time>2026-04-18T14:29:30Z</time></trkpt><trkpt lat="45.12150591404722" lon="7.199445848318142"><ele>434.75</ele><time>2026-04-18T14:29:31Z</time></trkpt><trkpt lat="45.12153560816005" lon="7.1996322455965"><ele>436.5</ele><time>2026-04-18T14:29:32Z</time></trkpt><trkpt lat="45.12151579804988" lon="7.19984747771705"><ele>438.25</ele><time>2026-04-18T14:29:33Z</time></trkpt><trkpt lat="45.12148440726063" lon="7.200056147122848"><ele>440.0</ele><time>2026-04-18T14:29:34Z</time></trkpt><trkpt lat="45.12144933067628" lon="7.200262691038256"><ele>440.0</ele><time>2026-04-18T14:29:35Z</time></trkpt><trkpt lat="45.12141949711856" lon="7.200436413758969"><ele>440.0</ele><time>2026-04-18T14:29:36Z</time></trkpt><trkpt lat="45.1213866809768" lon="7.200627504236162"><ele>440.0</ele><time>2026-04-18T14:29:37Z</time></trkpt><trkpt lat="45.12135608029688" lon="7.200805693962922"><ele>440.0</ele><time>2026-04-18T14:29:38Z</time></trkpt><trkpt lat="45.121321745675196" lon="7.201005626683503"><ele>439.0</ele><time>2026-04-18T14:29:39Z</time></trkpt><trkpt lat="45.121288020692255" lon="7.201202009413371"><ele>438.0</ele><time>2026-04-18T14:29:40Z</time></trkpt><trkpt lat="45.12125021777498" lon="7.2014196610028955"><ele>437.0</ele><time>2026-04-18T14:29:41Z</time></trkpt><trkpt lat="45.12120769558312" lon="7.201663267210167"><ele>435.3333333333333</ele><time>2026-04-18T14:29:42Z</time></trkpt><trkpt lat="45.12116543942471" lon="7.201905349369303"><ele>433.66666666666663</ele><time>2026-04-18T14:29:43Z</time></trkpt><trkpt lat="45.121118187516075" lon="7.202176309101147"><ele>432.0</ele><time>2026-04-18T14:29:44Z</time></trkpt><trkpt lat="45.12106891764616" lon="7.202463293424515"><ele>428.0</ele><time>2026-04-18T14:29:45Z</time></trkpt><trkpt lat="45.121009913172145" lon="7.202796727353084"><ele>424.0</ele><time>2026-04-18T14:29:46Z</time></trkpt><trkpt lat="45.12095647999976" lon="7.203092588799407"><ele>421.6666666666667</ele><time>2026-04-18T14:29:47Z</time></trkpt><trkpt lat="45.120904885133776" lon="7.203390160254428"><ele>419.33333333333337</ele><time>2026-04-18T14:29:48Z</time></trkpt><trkpt lat="45.12085231772973" lon="7.203693461173565"><ele>417.0</ele><time>2026-04-18T14:29:49Z</time></trkpt><trkpt lat="45.12079743089457" lon="7.204005479774272"><ele>414.5</ele><time>2026-04-18T14:29:50Z</time></trkpt><trkpt lat="45.12074024742712" lon="7.204330554155149"><ele>412.0</ele><time>2026-04-18T14:29:51.001Z</time></trkpt><trkpt lat="45.12068302537952" lon="7.204669193933945"><ele>416.5</ele><time>2026-04-18T14:29:52.001Z</time></trkpt><trkpt lat="45.12065242085946" lon="7.2050718465692825"><ele>421.0</ele><time>2026-04-18T14:29:53.001Z</time></trkpt><trkpt lat="45.12058709723821" lon="7.205435176127716"><ele>418.0</ele><time>2026-04-18T14:29:54.001Z</time></trkpt><trkpt lat="45.12052355163757" lon="7.205809276828346"><ele>415.0</ele><time>2026-04-18T14:29:55.001Z</time></trkpt><trkpt lat="45.1204499891652" lon="7.206176688831595"><ele>414.0</ele><time>2026-04-18T14:29:56.001Z</time></trkpt><trkpt lat="45.120354760078065" lon="7.206540176775841"><ele>413.0</ele><time>2026-04-18T14:29:57.001Z</time></trkpt><trkpt lat="45.120291917245765" lon="7.206906270853294"><ele>413.0</ele><time>2026-04-18T14:29:58.001Z</time></trkpt><trkpt lat="45.12023110650418" lon="7.207258544998864"><ele>413.0</ele><time>2026-04-18T14:29:59.001Z</time></trkpt><trkpt lat="45.12016499073537" lon="7.207600528298455"><ele>414.0</ele><time>2026-04-18T14:30:00.001Z</time></trkpt><trkpt lat="45.120092711903006" lon="7.207941770529088"><ele>415.0</ele><time>2026-04-18T14:30:01.001Z</time></trkpt><trkpt lat="45.12001877464364" lon="7.2082767004950465"><ele>415.0</ele><time>2026-04-18T14:30:02.001Z</time></trkpt><trkpt lat="45.119943472987245" lon="7.208601233131599"><ele>415.0</ele><time>2026-04-18T14:30:03.001Z</time></trkpt><trkpt lat="45.119872673581554" lon="7.208889990377756"><ele>421.6666666666667</ele><time>2026-04-18T14:30:04.001Z</time></trkpt><trkpt lat="45.119797599980664" lon="7.20916450779093"><ele>428.33333333333337</ele><time>2026-04-18T14:30:05.001Z</time></trkpt><trkpt lat="45.119705921535534" lon="7.209409600990646"><ele>435.0</ele><time>2026-04-18T14:30:06.001Z</time></trkpt><trkpt lat="45.11961719098916" lon="7.209657940800645"><ele>430.0</ele><time>2026-04-18T14:30:07.001Z</time></trkpt><trkpt lat="45.119501384321524" lon="7.209920379689853"><ele>425.0</ele><time>2026-04-18T14:30:08.001Z</time></trkpt><trkpt lat="45.119381760494605" lon="7.21016703486259"><ele>420.0</ele><time>2026-04-18T14:30:09.001Z</time></trkpt><trkpt lat="45.11927660207963" lon="7.210436941834054"><ele>416.33333333333337</ele><time>2026-04-18T14:30:10.001Z</time></trkpt><trkpt lat="45.11918613085928" lon="7.210704990555781"><ele>412.6666666666667</ele><time>2026-04-18T14:30:11.001Z</time></trkpt><trkpt lat="45.119124478673314" lon="7.211007961077412"><ele>409.0</ele><time>2026-04-18T14:30:12.001Z</time></trkpt><trkpt lat="45.11906509726653" lon="7.211319392085651"><ele>414.0</ele><time>2026-04-18T14:30:13.001Z</time></trkpt><trkpt lat="45.11902567186425" lon="7.211622612693208"><ele>419.0</ele><time>2026-04-18T14:30:14.001Z</time></trkpt><trkpt lat="45.11896691283657" lon="7.2119167996229185"><ele>424.0</ele><time>2026-04-18T14:30:15.001Z</time></trkpt><trkpt lat="45.11891796668828" lon="7.212218991401021"><ele>420.33333333333337</ele><time>2026-04-18T14:30:16.001Z</time></trkpt><trkpt lat="45.118870899983996" lon="7.21253135358119"><ele>416.66666666666663</ele><time>2026-04-18T14:30:17.001Z</time></trkpt><trkpt lat="45.118829871140406" lon="7.212838176080005"><ele>413.0</ele><time>2026-04-18T14:30:18.001Z</time></trkpt><trkpt lat="45.11879403769747" lon="7.213163659662361"><ele>410.5</ele><time>2026-04-18T14:30:19.001Z</time></trkpt><trkpt lat="45.11876876757892" lon="7.213525207111904"><ele>408.0</ele><time>2026-04-18T14:30:20.001Z</time></trkpt><trkpt lat="45.11873975143306" lon="7.213900827382616"><ele>406.0</ele><time>2026-04-18T14:30:21.001Z</time></trkpt><trkpt lat="45.11872001904957" lon="7.21429435480327"><ele>404.0</ele><time>2026-04-18T14:30:22Z</time></trkpt><trkpt lat="45.11871400902915" lon="7.2146788018350865"><ele>403.0</ele><time>2026-04-18T14:30:23Z</time></trkpt><trkpt lat="45.11869475621931" lon="7.215045825106201"><ele>402.0</ele><time>2026-04-18T14:30:24Z</time></trkpt><trkpt lat="45.118702928533324" lon="7.215408248370551"><ele>402.0</ele><time>2026-04-18T14:30:25Z</time></trkpt><trkpt lat="45.11872032294843" lon="7.215768469497329"><ele>402.0</ele><time>2026-04-18T14:30:26Z</time></trkpt><trkpt lat="45.11875209397309" lon="7.2161699470436975"><ele>402.0</ele><time>2026-04-18T14:30:27Z</time></trkpt><trkpt lat="45.11881216769601" lon="7.216592855255398"><ele>402.0</ele><time>2026-04-18T14:30:28Z</time></trkpt><trkpt lat="45.118858302698804" lon="7.21699620422017"><ele>404.0</ele><time>2026-04-18T14:30:29Z</time></trkpt><trkpt lat="45.11889936003356" lon="7.217405394096983"><ele>406.0</ele><time>2026-04-18T14:30:30Z</time></trkpt><trkpt lat="45.11895314096907" lon="7.217792343165559"><ele>406.5</ele><time>2026-04-18T14:30:31Z</time></trkpt><trkpt lat="45.11899236833785" lon="7.218156863454488"><ele>407.0</ele><time>2026-04-18T14:30:32Z</time></trkpt><trkpt lat="45.119041969502" lon="7.218519793237609"><ele>407.0</ele><time>2026-04-18T14:30:33Z</time></trkpt><trkpt lat="45.11907157703057" lon="7.218875164647735"><ele>407.0</ele><time>2026-04-18T14:30:34Z</time></trkpt><trkpt lat="45.11911686391456" lon="7.21922674184351"><ele>407.0</ele><time>2026-04-18T14:30:35Z</time></trkpt><trkpt lat="45.119158424590985" lon="7.219560761999528"><ele>407.0</ele><time>2026-04-18T14:30:36Z</time></trkpt><trkpt lat="45.11921072424004" lon="7.219903843570813"><ele>406.5</ele><time>2026-04-18T14:30:37Z</time></trkpt><trkpt lat="45.119231341724074" lon="7.22026045391758"><ele>406.0</ele><time>2026-04-18T14:30:38Z</time></trkpt><trkpt lat="45.119269108525295" lon="7.220619033493408"><ele>406.5</ele><time>2026-04-18T14:30:39Z</time></trkpt><trkpt lat="45.11929075125608" lon="7.220956050414047"><ele>407.0</ele><time>2026-04-18T14:30:40Z</time></trkpt><trkpt lat="45.1193228170092" lon="7.2213190252028125"><ele>407.5</ele><time>2026-04-18T14:30:41Z</time></trkpt><trkpt lat="45.11929905780736" lon="7.221693322409174"><ele>408.0</ele><time>2026-04-18T14:30:42Z</time></trkpt><trkpt lat="45.1192949670501" lon="7.222039576763696"><ele>407.5</ele><time>2026-04-18T14:30:43Z</time></trkpt><trkpt lat="45.119293152993116" lon="7.222388600546097"><ele>407.0</ele><time>2026-04-18T14:30:44Z</time></trkpt><trkpt lat="45.11930655350827" lon="7.222743573676145"><ele>407.0</ele><time>2026-04-18T14:30:45Z</time></trkpt><trkpt lat="45.11931041133477" lon="7.223106466259228"><ele>407.0</ele><time>2026-04-18T14:30:46Z</time></trkpt><trkpt lat="45.11930309776671" lon="7.223488187122494"><ele>407.0</ele><time>2026-04-18T14:30:47Z</time></trkpt><trkpt lat="45.119320058349565" lon="7.22385260518702"><ele>407.0</ele><time>2026-04-18T14:30:48Z</time></trkpt><trkpt lat="45.11935469743636" lon="7.224203690674078"><ele>406.5</ele><time>2026-04-18T14:30:49Z</time></trkpt><trkpt lat="45.1193588461352" lon="7.224554587265723"><ele>406.0</ele><time>2026-04-18T14:30:50Z</time></trkpt><trkpt lat="45.119388795211634" lon="7.224892408158853"><ele>406.0</ele><time>2026-04-18T14:30:51Z</time></trkpt><trkpt lat="45.11939753772069" lon="7.225220121961708"><ele>406.0</ele><time>2026-04-18T14:30:52Z</time></trkpt><trkpt lat="45.119416409569475" lon="7.225544976975174"><ele>406.0</ele><time>2026-04-18T14:30:53Z</time></trkpt><trkpt lat="45.11943204517603" lon="7.225861921096272"><ele>406.0</ele><time>2026-04-18T14:30:54Z</time></trkpt><trkpt lat="45.11945866716718" lon="7.226176943568737"><ele>406.0</ele><time>2026-04-18T14:30:55Z</time></trkpt><trkpt lat="45.11947401519447" lon="7.226496919442123"><ele>406.0</ele><time>2026-04-18T14:30:56Z</time></trkpt><trkpt lat="45.11948943395746" lon="7.226818961477809"><ele>406.0</ele><time>2026-04-18T14:30:57Z</time></trkpt><trkpt lat="45.11949723877123" lon="7.227149319714798"><ele>405.5</ele><time>2026-04-18T14:30:58Z</time></trkpt><trkpt lat="45.119477708302725" lon="7.227487396458338"><ele>405.0</ele><time>2026-04-18T14:30:59Z</time></trkpt><trkpt lat="45.11946528144952" lon="7.227819008526481"><ele>405.0</ele><time>2026-04-18T14:31:00Z</time></trkpt><trkpt lat="45.11946478157238" lon="7.228144852575378"><ele>405.0</ele><time>2026-04-18T14:31:01Z</time></trkpt><trkpt lat="45.11945178395259" lon="7.22847179145585"><ele>405.0</ele><time>2026-04-18T14:31:02Z</time></trkpt><trkpt lat="45.11942177651639" lon="7.2287942008092445"><ele>405.0</ele><time>2026-04-18T14:31:03Z</time></trkpt><trkpt lat="45.119424921165994" lon="7.229096911661415"><ele>405.0</ele><time>2026-04-18T14:31:04Z</time></trkpt><trkpt lat="45.11940459900176" lon="7.229389590785264"><ele>404.33333333333337</ele><time>2026-04-18T14:31:05Z</time></trkpt><trkpt lat="45.119392418453025" lon="7.229660313529992"><ele>403.6666666666667</ele><time>2026-04-18T14:31:06Z</time></trkpt><trkpt lat="45.119377301091355" lon="7.229921736403192"><ele>403.0</ele><time>2026-04-18T14:31:07Z</time></trkpt><trkpt lat="45.119370934632386" lon="7.230176650883499"><ele>403.0</ele><time>2026-04-18T14:31:08Z</time></trkpt><trkpt lat="45.11936287183076" lon="7.230417352534533"><ele>403.0</ele><time>2026-04-18T14:31:09Z</time></trkpt><trkpt lat="45.11936053054024" lon="7.230618489894312"><ele>403.0</ele><time>2026-04-18T14:31:10Z</time></trkpt><trkpt lat="45.11934828992997" lon="7.230819196310905"><ele>403.0</ele><time>2026-04-18T14:31:11Z</time></trkpt><trkpt lat="45.11932418618622" lon="7.230991744090545"><ele>403.0</ele><time>2026-04-18T14:31:12Z</time></trkpt><trkpt lat="45.11930730409078" lon="7.2311428496571875"><ele>403.0</ele><time>2026-04-18T14:31:13Z</time></trkpt><trkpt lat="45.11925232761457" lon="7.231282550464206"><ele>403.0</ele><time>2026-04-18T14:31:14Z</time></trkpt><trkpt lat="45.119191838955636" lon="7.231401941486625"><ele>403.0</ele><time>2026-04-18T14:31:15Z</time></trkpt><trkpt lat="45.11915447246706" lon="7.23151385721809"><ele>403.00000000000006</ele><time>2026-04-18T14:31:16Z</time></trkpt><trkpt lat="45.119143720986656" lon="7.231615959561216"><ele>403.0</ele><time>2026-04-18T14:31:17Z</time></trkpt><trkpt lat="45.1191741431774" lon="7.231740729449617"><ele>403.0</ele><time>2026-04-18T14:31:18Z</time></trkpt><trkpt lat="45.119232972452075" lon="7.231873010110716"><ele>403.0</ele><time>2026-04-18T14:31:19Z</time></trkpt><trkpt lat="45.11926064273644" lon="7.231976594445836"><ele>403.00000000000006</ele><time>2026-04-18T14:31:20Z</time></trkpt><trkpt lat="45.119239867833635" lon="7.232098050031379"><ele>403.0</ele><time>2026-04-18T14:31:21Z</time></trkpt><trkpt lat="45.119208860976826" lon="7.232235315328802"><ele>402.75</ele><time>2026-04-18T14:31:22Z</time></trkpt><trkpt lat="45.1191875855209" lon="7.232395362977131"><ele>402.5</ele><time>2026-04-18T14:31:23Z</time></trkpt><trkpt lat="45.119127900126124" lon="7.232557888325074"><ele>402.25</ele><time>2026-04-18T14:31:24Z</time></trkpt><trkpt lat="45.119045325720094" lon="7.232759666230349"><ele>402.0</ele><time>2026-04-18T14:31:25Z</time></trkpt><trkpt lat="45.11897537071733" lon="7.2329875182461985"><ele>401.66666666666663</ele><time>2026-04-18T14:31:26Z</time></trkpt><trkpt lat="45.118891664907245" lon="7.233216094809708"><ele>401.3333333333333</ele><time>2026-04-18T14:31:27Z</time></trkpt><trkpt lat="45.11882507459163" lon="7.2334689444121745"><ele>401.0</ele><time>2026-04-18T14:31:28Z</time></trkpt><trkpt lat="45.11875695524674" lon="7.233710714169749"><ele>401.0</ele><time>2026-04-18T14:31:29Z</time></trkpt><trkpt lat="45.11868953398379" lon="7.233928776959575"><ele>401.0</ele><time>2026-04-18T14:31:30Z</time></trkpt><trkpt lat="45.11860894503215" lon="7.234139803674681"><ele>401.0</ele><time>2026-04-18T14:31:31Z</time></trkpt><trkpt lat="45.11853683911681" lon="7.23437282145225"><ele>400.3333333333333</ele><time>2026-04-18T14:31:32Z</time></trkpt><trkpt lat="45.11845455580054" lon="7.234586542717298"><ele>399.66666666666663</ele><time>2026-04-18T14:31:33Z</time></trkpt><trkpt lat="45.118357692960856" lon="7.234789537887045"><ele>399.0</ele><time>2026-04-18T14:31:34Z</time></trkpt><trkpt lat="45.11822790310566" lon="7.2349877606659305"><ele>399.0</ele><time>2026-04-18T14:31:35Z</time></trkpt><trkpt lat="45.118087741432454" lon="7.2351894960578695"><ele>399.0</ele><time>2026-04-18T14:31:36Z</time></trkpt><trkpt lat="45.11796094577986" lon="7.2354029955262"><ele>399.0</ele><time>2026-04-18T14:31:37Z</time></trkpt><trkpt lat="45.117837696306005" lon="7.235612614437543"><ele>398.33333333333337</ele><time>2026-04-18T14:31:38Z</time></trkpt><trkpt lat="45.117694711778284" lon="7.235816496442365"><ele>397.6666666666667</ele><time>2026-04-18T14:31:39Z</time></trkpt><trkpt lat="45.11754119060083" lon="7.236006174041969"><ele>397.0</ele><time>2026-04-18T14:31:40Z</time></trkpt><trkpt lat="45.11740489669927" lon="7.236193105625087"><ele>397.33333333333337</ele><time>2026-04-18T14:31:41.001Z</time></trkpt><trkpt lat="45.11727850476055" lon="7.236364408448042"><ele>397.66666666666663</ele><time>2026-04-18T14:31:42.001Z</time></trkpt><trkpt lat="45.11714500224229" lon="7.236558978260559"><ele>398.0</ele><time>2026-04-18T14:31:43.001Z</time></trkpt><trkpt lat="45.117014774099744" lon="7.236758908916259"><ele>397.3333333333333</ele><time>2026-04-18T14:31:44.001Z</time></trkpt><trkpt lat="45.116903283829565" lon="7.236957518490902"><ele>396.66666666666663</ele><time>2026-04-18T14:31:45.001Z</time></trkpt><trkpt lat="45.11677730781862" lon="7.237156153008394"><ele>396.0</ele><time>2026-04-18T14:31:46.001Z</time></trkpt><trkpt lat="45.11666153687776" lon="7.237352366128275"><ele>395.33333333333337</ele><time>2026-04-18T14:31:47.001Z</time></trkpt><trkpt lat="45.11655889673731" lon="7.2375317328323545"><ele>394.6666666666667</ele><time>2026-04-18T14:31:48.001Z</time></trkpt><trkpt lat="45.11645844342693" lon="7.237691876896951"><ele>394.0</ele><time>2026-04-18T14:31:49.001Z</time></trkpt><trkpt lat="45.116369335378984" lon="7.237839413058611"><ele>394.0</ele><time>2026-04-18T14:31:50.001Z</time></trkpt><trkpt lat="45.11629415901543" lon="7.2379325092602045"><ele>394.0</ele><time>2026-04-18T14:31:51.001Z</time></trkpt><trkpt lat="45.116188397356034" lon="7.238029448702151"><ele>394.0</ele><time>2026-04-18T14:31:53.001Z</time></trkpt><trkpt lat="45.11610005965086" lon="7.238107341446425"><ele>394.0</ele><time>2026-04-18T14:31:54.001Z</time></trkpt><trkpt lat="45.1160538740491" lon="7.238239211148111"><ele>394.0</ele><time>2026-04-18T14:31:55.001Z</time></trkpt><trkpt lat="45.11603530652598" lon="7.2383967439163746"><ele>394.0</ele><time>2026-04-18T14:31:56.001Z</time></trkpt><trkpt lat="45.11599028902803" lon="7.23859475959353"><ele>394.0</ele><time>2026-04-18T14:31:57.001Z</time></trkpt><trkpt lat="45.11592919553135" lon="7.2387855181470036"><ele>394.0</ele><time>2026-04-18T14:31:58.001Z</time></trkpt><trkpt lat="45.11583822860839" lon="7.238970617554968"><ele>394.6666666666667</ele><time>2026-04-18T14:31:59.001Z</time></trkpt><trkpt lat="45.1157156663127" lon="7.239187636479355"><ele>395.33333333333337</ele><time>2026-04-18T14:32:00.001Z</time></trkpt><trkpt lat="45.11558596342834" lon="7.239373493318212"><ele>396.0</ele><time>2026-04-18T14:32:01.001Z</time></trkpt><trkpt lat="45.11544038360487" lon="7.239595514869277"><ele>396.0</ele><time>2026-04-18T14:32:02.001Z</time></trkpt><trkpt lat="45.11527397950453" lon="7.239791800686628"><ele>396.0</ele><time>2026-04-18T14:32:03.001Z</time></trkpt><trkpt lat="45.11514507163996" lon="7.240004258226078"><ele>396.0</ele><time>2026-04-18T14:32:04.001Z</time></trkpt><trkpt lat="45.11501841593485" lon="7.240228876810558"><ele>396.33333333333337</ele><time>2026-04-18T14:32:05.001Z</time></trkpt><trkpt lat="45.11490374830732" lon="7.240473549167765"><ele>396.6666666666667</ele><time>2026-04-18T14:32:06.001Z</time></trkpt><trkpt lat="45.1147967603442" lon="7.2406911668681495"><ele>397.0</ele><time>2026-04-18T14:32:07.001Z</time></trkpt><trkpt lat="45.114688826499595" lon="7.240940877918728"><ele>396.33333333333337</ele><time>2026-04-18T14:32:08.001Z</time></trkpt><trkpt lat="45.11457605268207" lon="7.241200615730205"><ele>395.66666666666663</ele><time>2026-04-18T14:32:09.001Z</time></trkpt><trkpt lat="45.11447212403073" lon="7.241458999116757"><ele>395.0</ele><time>2026-04-18T14:32:10.001Z</time></trkpt><trkpt lat="45.11437428123593" lon="7.2417091615511335"><ele>394.0</ele><time>2026-04-18T14:32:11.001Z</time></trkpt><trkpt lat="45.114285857712716" lon="7.24195911433716"><ele>393.0</ele><time>2026-04-18T14:32:12.001Z</time></trkpt><trkpt lat="45.114194804520345" lon="7.242217297439149"><ele>392.0</ele><time>2026-04-18T14:32:13.001Z</time></trkpt><trkpt lat="45.114115761292595" lon="7.2424766208741564"><ele>391.66666666666663</ele><time>2026-04-18T14:32:14.001Z</time></trkpt><trkpt lat="45.11402738436242" lon="7.242707606313856"><ele>391.33333333333337</ele><time>2026-04-18T14:32:15.001Z</time></trkpt><trkpt lat="45.11394047411938" lon="7.242966082329524"><ele>391.0</ele><time>2026-04-18T14:32:16.001Z</time></trkpt><trkpt lat="45.113870170150285" lon="7.243232429315363"><ele>391.0</ele><time>2026-04-18T14:32:17.001Z</time></trkpt><trkpt lat="45.11378746123673" lon="7.24349575286423"><ele>391.0</ele><time>2026-04-18T14:32:18.001Z</time></trkpt><trkpt lat="45.1137000861487" lon="7.243732769189539"><ele>391.0</ele><time>2026-04-18T14:32:19.001Z</time></trkpt><trkpt lat="45.11361143292012" lon="7.2439837534206415"><ele>391.0</ele><time>2026-04-18T14:32:20.001Z</time></trkpt><trkpt lat="45.113518959570364" lon="7.244235661957983"><ele>391.0</ele><time>2026-04-18T14:32:21.001Z</time></trkpt><trkpt lat="45.11343066051286" lon="7.244493010249099"><ele>391.0</ele><time>2026-04-18T14:32:22.001Z</time></trkpt><trkpt lat="45.11335278881197" lon="7.244766172152242"><ele>391.0</ele><time>2026-04-18T14:32:23.001Z</time></trkpt><trkpt lat="45.11326203586153" lon="7.245031445740648"><ele>391.0</ele><time>2026-04-18T14:32:24.001Z</time></trkpt><trkpt lat="45.1131765449057" lon="7.245278857097332"><ele>391.0</ele><time>2026-04-18T14:32:25.001Z</time></trkpt><trkpt lat="45.11309397144242" lon="7.245519112008677"><ele>390.6666666666667</ele><time>2026-04-18T14:32:26.001Z</time></trkpt><trkpt lat="45.11301064082264" lon="7.24578709549976"><ele>390.33333333333337</ele><time>2026-04-18T14:32:27.001Z</time></trkpt><trkpt lat="45.11292612720156" lon="7.246037916527488"><ele>390.0</ele><time>2026-04-18T14:32:28Z</time></trkpt><trkpt lat="45.112839532377755" lon="7.246297336130012"><ele>390.0</ele><time>2026-04-18T14:32:29Z</time></trkpt><trkpt lat="45.11277036898936" lon="7.246569904251824"><ele>390.0</ele><time>2026-04-18T14:32:30Z</time></trkpt><trkpt lat="45.112677747550336" lon="7.24685012776691"><ele>390.0</ele><time>2026-04-18T14:32:31Z</time></trkpt><trkpt lat="45.1125696410074" lon="7.247118421942937"><ele>390.0</ele><time>2026-04-18T14:32:32Z</time></trkpt><trkpt lat="45.112466666503884" lon="7.247387951893621"><ele>390.0</ele><time>2026-04-18T14:32:33Z</time></trkpt><trkpt lat="45.11237246503713" lon="7.247649310050955"><ele>390.0</ele><time>2026-04-18T14:32:34Z</time></trkpt><trkpt lat="45.11226120852135" lon="7.24791381218203"><ele>389.33333333333337</ele><time>2026-04-18T14:32:35Z</time></trkpt><trkpt lat="45.11217326853154" lon="7.248179823026196"><ele>388.6666666666667</ele><time>2026-04-18T14:32:36Z</time></trkpt><trkpt lat="45.112089080100546" lon="7.248434139808731"><ele>388.0</ele><time>2026-04-18T14:32:37Z</time></trkpt><trkpt lat="45.11201658941778" lon="7.248684397770207"><ele>388.0</ele><time>2026-04-18T14:32:38Z</time></trkpt><trkpt lat="45.111934508782326" lon="7.248934859576959"><ele>388.0</ele><time>2026-04-18T14:32:39Z</time></trkpt><trkpt lat="45.111866281055306" lon="7.249174196386379"><ele>388.0</ele><time>2026-04-18T14:32:40Z</time></trkpt><trkpt lat="45.111778235824865" lon="7.2494060911567"><ele>388.0</ele><time>2026-04-18T14:32:41Z</time></trkpt><trkpt lat="45.11171158774693" lon="7.249648668989614"><ele>388.0</ele><time>2026-04-18T14:32:42Z</time></trkpt><trkpt lat="45.11161862583368" lon="7.249890424630854"><ele>388.0</ele><time>2026-04-18T14:32:43Z</time></trkpt><trkpt lat="45.11153583281282" lon="7.250113805571835"><ele>388.0</ele><time>2026-04-18T14:32:44Z</time></trkpt><trkpt lat="45.11145998026393" lon="7.250339705006872"><ele>388.0</ele><time>2026-04-18T14:32:45Z</time></trkpt><trkpt lat="45.11139648087035" lon="7.250572913653684"><ele>388.0</ele><time>2026-04-18T14:32:46Z</time></trkpt><trkpt lat="45.111331031343816" lon="7.2508074394163815"><ele>387.6666666666667</ele><time>2026-04-18T14:32:47Z</time></trkpt><trkpt lat="45.11126356203099" lon="7.251046050044719"><ele>387.33333333333337</ele><time>2026-04-18T14:32:48Z</time></trkpt><trkpt lat="45.11116025344031" lon="7.251277222573379"><ele>387.0</ele><time>2026-04-18T14:32:49Z</time></trkpt><trkpt lat="45.11107068462614" lon="7.25152543977639"><ele>387.0</ele><time>2026-04-18T14:32:50Z</time></trkpt><trkpt lat="45.11098805521224" lon="7.251774157308134"><ele>387.0</ele><time>2026-04-18T14:32:51Z</time></trkpt><trkpt lat="45.110900980171046" lon="7.252024563830905"><ele>387.0</ele><time>2026-04-18T14:32:52Z</time></trkpt><trkpt lat="45.11083058622471" lon="7.252283362140635"><ele>387.33333333333337</ele><time>2026-04-18T14:32:53Z</time></trkpt><trkpt lat="45.110754853437435" lon="7.252527231575057"><ele>387.6666666666667</ele><time>2026-04-18T14:32:54Z</time></trkpt><trkpt lat="45.11065926794778" lon="7.252726649706137"><ele>388.0</ele><time>2026-04-18T14:32:55Z</time></trkpt><trkpt lat="45.110592084242924" lon="7.252936849066267"><ele>387.33333333333337</ele><time>2026-04-18T14:32:56Z</time></trkpt><trkpt lat="45.11051481808372" lon="7.253158931081995"><ele>386.66666666666663</ele><time>2026-04-18T14:32:57Z</time></trkpt><trkpt lat="45.110431617597854" lon="7.253395757090407"><ele>386.0</ele><time>2026-04-18T14:32:58Z</time></trkpt><trkpt lat="45.110349959806484" lon="7.253619787635676"><ele>386.0</ele><time>2026-04-18T14:32:59Z</time></trkpt><trkpt lat="45.110259296678805" lon="7.2538431333145965"><ele>386.0</ele><time>2026-04-18T14:33:00Z</time></trkpt><trkpt lat="45.11017340861259" lon="7.254057156151443"><ele>386.0</ele><time>2026-04-18T14:33:01Z</time></trkpt><trkpt lat="45.11011224196723" lon="7.2542829300540435"><ele>386.0</ele><time>2026-04-18T14:33:02Z</time></trkpt><trkpt lat="45.11003623519599" lon="7.254500060251644"><ele>386.0</ele><time>2026-04-18T14:33:03Z</time></trkpt><trkpt lat="45.10994924809509" lon="7.2546979796662105"><ele>386.0</ele><time>2026-04-18T14:33:04Z</time></trkpt><trkpt lat="45.10987463327473" lon="7.254902381729559"><ele>386.0</ele><time>2026-04-18T14:33:05Z</time></trkpt><trkpt lat="45.10981735987311" lon="7.2551222614128195"><ele>386.0</ele><time>2026-04-18T14:33:06Z</time></trkpt><trkpt lat="45.10973953022477" lon="7.255318942619795"><ele>386.0</ele><time>2026-04-18T14:33:07Z</time></trkpt><trkpt lat="45.10968443681908" lon="7.255529130427645"><ele>386.3333333333333</ele><time>2026-04-18T14:33:08Z</time></trkpt><trkpt lat="45.109622529544566" lon="7.255738591840009"><ele>386.66666666666663</ele><time>2026-04-18T14:33:09Z</time></trkpt><trkpt lat="45.10956602851278" lon="7.255947695002176"><ele>387.0</ele><time>2026-04-18T14:33:10Z</time></trkpt><trkpt lat="45.10949686315248" lon="7.256121101180121"><ele>387.0</ele><time>2026-04-18T14:33:11Z</time></trkpt><trkpt lat="45.10945006094173" lon="7.256300606575308"><ele>387.0</ele><time>2026-04-18T14:33:12Z</time></trkpt><trkpt lat="45.109392464639896" lon="7.256470796472548"><ele>387.0</ele><time>2026-04-18T14:33:13Z</time></trkpt><trkpt lat="45.10932126343769" lon="7.256637467502361"><ele>387.0</ele><time>2026-04-18T14:33:14Z</time></trkpt><trkpt lat="45.109270713450634" lon="7.256820955717272"><ele>387.0</ele><time>2026-04-18T14:33:15Z</time></trkpt><trkpt lat="45.10920803545291" lon="7.25696527561025"><ele>387.0</ele><time>2026-04-18T14:33:16Z</time></trkpt><trkpt lat="45.10916563615476" lon="7.257120023662447"><ele>387.0</ele><time>2026-04-18T14:33:17Z</time></trkpt><trkpt lat="45.10911417057189" lon="7.257245789190054"><ele>387.0</ele><time>2026-04-18T14:33:18Z</time></trkpt><trkpt lat="45.109078424923275" lon="7.257387591912578"><ele>387.0</ele><time>2026-04-18T14:33:19Z</time></trkpt><trkpt lat="45.10899640331467" lon="7.2574789319668875"><ele>386.6</ele><time>2026-04-18T14:33:20Z</time></trkpt><trkpt lat="45.10895390166606" lon="7.257591410953292"><ele>386.20000000000005</ele><time>2026-04-18T14:33:21Z</time></trkpt><trkpt lat="45.10889920956038" lon="7.257715597629858"><ele>385.8</ele><time>2026-04-18T14:33:22Z</time></trkpt><trkpt lat="45.10885451744907" lon="7.257833635117739"><ele>385.4</ele><time>2026-04-18T14:33:23Z</time></trkpt><trkpt lat="45.10883097842837" lon="7.2579447998214555"><ele>385.0</ele><time>2026-04-18T14:33:24Z</time></trkpt><trkpt lat="45.108799007554765" lon="7.258048597182499"><ele>385.33333333333337</ele><time>2026-04-18T14:33:25Z</time></trkpt><trkpt lat="45.108763691248654" lon="7.258148449274276"><ele>385.6666666666667</ele><time>2026-04-18T14:33:26Z</time></trkpt><trkpt lat="45.108737413033936" lon="7.258240663009518"><ele>386.0</ele><time>2026-04-18T14:33:27Z</time></trkpt><trkpt lat="45.108678448347064" lon="7.2583885793920855"><ele>386.33333333333337</ele><time>2026-04-18T14:33:29Z</time></trkpt><trkpt lat="45.108641129983155" lon="7.258495294881578"><ele>386.6666666666667</ele><time>2026-04-18T14:33:30Z</time></trkpt><trkpt lat="45.10861005719398" lon="7.258603034843221"><ele>387.0</ele><time>2026-04-18T14:33:31Z</time></trkpt><trkpt lat="45.10857625285075" lon="7.258724604507329"><ele>387.0</ele><time>2026-04-18T14:33:32Z</time></trkpt><trkpt lat="45.108541071931704" lon="7.258876404640084"><ele>387.0</ele><time>2026-04-18T14:33:33Z</time></trkpt><trkpt lat="45.10848838394551" lon="7.259006001896858"><ele>387.0</ele><time>2026-04-18T14:33:34Z</time></trkpt><trkpt lat="45.10844792415927" lon="7.259143511876742"><ele>387.0</ele><time>2026-04-18T14:33:35Z</time></trkpt><trkpt lat="45.10840023154919" lon="7.259274839927235"><ele>387.0</ele><time>2026-04-18T14:33:36Z</time></trkpt><trkpt lat="45.10834738193309" lon="7.25942729569009"><ele>387.0</ele><time>2026-04-18T14:33:37Z</time></trkpt><trkpt lat="45.108293234439515" lon="7.25955155200183"><ele>387.0</ele><time>2026-04-18T14:33:38Z</time></trkpt><trkpt lat="45.10824131665152" lon="7.259669600087979"><ele>387.0</ele><time>2026-04-18T14:33:39Z</time></trkpt><trkpt lat="45.10820935022349" lon="7.2597701579481875"><ele>387.0</ele><time>2026-04-18T14:33:40Z</time></trkpt><trkpt lat="45.10816766773963" lon="7.259912461875395"><ele>387.0</ele><time>2026-04-18T14:33:42.001Z</time></trkpt><trkpt lat="45.10812822335702" lon="7.260065238676701"><ele>386.8</ele><time>2026-04-18T14:33:44.001Z</time></trkpt><trkpt lat="45.10810695504127" lon="7.260153383581063"><ele>386.6</ele><time>2026-04-18T14:33:45.001Z</time></trkpt><trkpt lat="45.10807235195975" lon="7.26025707314224"><ele>386.40000000000003</ele><time>2026-04-18T14:33:46.001Z</time></trkpt><trkpt lat="45.108041498323324" lon="7.260410552850925"><ele>386.20000000000005</ele><time>2026-04-18T14:33:47.001Z</time></trkpt><trkpt lat="45.10798692279809" lon="7.260584620284569"><ele>386.0</ele><time>2026-04-18T14:33:48.001Z</time></trkpt><trkpt lat="45.10787276007267" lon="7.260804967598268"><ele>386.0</ele><time>2026-04-18T14:33:49.001Z</time></trkpt><trkpt lat="45.1077956345692" lon="7.261070128870103"><ele>386.0</ele><time>2026-04-18T14:33:50.001Z</time></trkpt><trkpt lat="45.107732314025576" lon="7.261322794554115"><ele>386.0</ele><time>2026-04-18T14:33:51.001Z</time></trkpt><trkpt lat="45.10764570755199" lon="7.261555915341056"><ele>385.66666666666663</ele><time>2026-04-18T14:33:52.001Z</time></trkpt><trkpt lat="45.107570492998306" lon="7.261778660297471"><ele>385.33333333333337</ele><time>2026-04-18T14:33:53.001Z</time></trkpt><trkpt lat="45.107502924760766" lon="7.261981513577526"><ele>385.0</ele><time>2026-04-18T14:33:54.001Z</time></trkpt><trkpt lat="45.107439376057954" lon="7.2621792946685515"><ele>384.75</ele><time>2026-04-18T14:33:55.001Z</time></trkpt><trkpt lat="45.10738237994643" lon="7.262357986925006"><ele>384.5</ele><time>2026-04-18T14:33:56.001Z</time></trkpt><trkpt lat="45.1073571255145" lon="7.262479215984215"><ele>384.25</ele><time>2026-04-18T14:33:57.001Z</time></trkpt><trkpt lat="45.10727429007899" lon="7.2626359082953105"><ele>384.0</ele><time>2026-04-18T14:33:59.001Z</time></trkpt><trkpt lat="45.1071525888208" lon="7.262666770714399"><ele>384.0</ele><time>2026-04-18T14:34:00.001Z</time></trkpt><trkpt lat="45.10709495611026" lon="7.262748097387594"><ele>384.0</ele><time>2026-04-18T14:34:01.001Z</time></trkpt><trkpt lat="45.10704819989627" lon="7.262851300523258"><ele>384.0</ele><time>2026-04-18T14:34:02.001Z</time></trkpt><trkpt lat="45.10705446637548" lon="7.262974993504439"><ele>384.0</ele><time>2026-04-18T14:34:03.001Z</time></trkpt><trkpt lat="45.107077726075225" lon="7.263081006695263"><ele>384.0</ele><time>2026-04-18T14:34:04.001Z</time></trkpt><trkpt lat="45.107117769263375" lon="7.263201273477861"><ele>384.0</ele><time>2026-04-18T14:34:05.001Z</time></trkpt><trkpt lat="45.10720084623467" lon="7.263317821104005"><ele>384.75</ele><time>2026-04-18T14:34:06.001Z</time></trkpt><trkpt lat="45.10725409771135" lon="7.263495690686039"><ele>385.5</ele><time>2026-04-18T14:34:07.001Z</time></trkpt><trkpt lat="45.10729343304065" lon="7.263689704889005"><ele>386.25</ele><time>2026-04-18T14:34:08.001Z</time></trkpt><trkpt lat="45.10732573193747" lon="7.263901903469314"><ele>387.0</ele><time>2026-04-18T14:34:09.001Z</time></trkpt><trkpt lat="45.10734725952699" lon="7.264129572877649"><ele>387.0</ele><time>2026-04-18T14:34:10.001Z</time></trkpt><trkpt lat="45.10739574506631" lon="7.264406398272"><ele>387.0</ele><time>2026-04-18T14:34:11.001Z</time></trkpt><trkpt lat="45.10743445500987" lon="7.264666453816728"><ele>387.0</ele><time>2026-04-18T14:34:12.001Z</time></trkpt><trkpt lat="45.10746478098903" lon="7.26493850991454"><ele>386.0</ele><time>2026-04-18T14:34:13.001Z</time></trkpt><trkpt lat="45.10749451524443" lon="7.265193327833674"><ele>385.0</ele><time>2026-04-18T14:34:14.001Z</time></trkpt><trkpt lat="45.10752698258064" lon="7.265445290185761"><ele>384.0</ele><time>2026-04-18T14:34:15.001Z</time></trkpt><trkpt lat="45.10755682997714" lon="7.2657009912669235"><ele>383.6666666666667</ele><time>2026-04-18T14:34:16.001Z</time></trkpt><trkpt lat="45.10759296149826" lon="7.26595362030095"><ele>383.33333333333337</ele><time>2026-04-18T14:34:17.001Z</time></trkpt><trkpt lat="45.10762613169377" lon="7.266200319610316"><ele>383.0</ele><time>2026-04-18T14:34:18.001Z</time></trkpt><trkpt lat="45.10766417259882" lon="7.266473439232228"><ele>383.0</ele><time>2026-04-18T14:34:19.001Z</time></trkpt><trkpt lat="45.10770636135569" lon="7.266731814934799"><ele>383.0</ele><time>2026-04-18T14:34:20.001Z</time></trkpt><trkpt lat="45.10774735145516" lon="7.266994024240703"><ele>383.0</ele><time>2026-04-18T14:34:21.001Z</time></trkpt><trkpt lat="45.10777541521995" lon="7.26726542576904"><ele>382.6666666666667</ele><time>2026-04-18T14:34:22.001Z</time></trkpt><trkpt lat="45.107809125706915" lon="7.267521541357145"><ele>382.3333333333333</ele><time>2026-04-18T14:34:23.001Z</time></trkpt><trkpt lat="45.10784250200848" lon="7.267775730149012"><ele>382.0</ele><time>2026-04-18T14:34:24.001Z</time></trkpt><trkpt lat="45.10787612511347" lon="7.268031799515717"><ele>382.3333333333333</ele><time>2026-04-18T14:34:25.001Z</time></trkpt><trkpt lat="45.10790877203861" lon="7.268267925842197"><ele>382.6666666666667</ele><time>2026-04-18T14:34:26.001Z</time></trkpt><trkpt lat="45.107939771660966" lon="7.268495325333178"><ele>383.0</ele><time>2026-04-18T14:34:27.001Z</time></trkpt><trkpt lat="45.1079670312548" lon="7.268690600285392"><ele>383.0</ele><time>2026-04-18T14:34:28.001Z</time></trkpt><trkpt lat="45.10799103700347" lon="7.268862566177843"><ele>383.0</ele><time>2026-04-18T14:34:29.001Z</time></trkpt><trkpt lat="45.10802447545165" lon="7.269001012783116"><ele>383.0</ele><time>2026-04-18T14:34:30.001Z</time></trkpt><trkpt lat="45.108004769518914" lon="7.269142100222984"><ele>383.0</ele><time>2026-04-18T14:34:31.001Z</time></trkpt><trkpt lat="45.108018256635454" lon="7.26924962922915"><ele>383.0</ele><time>2026-04-18T14:34:32.001Z</time></trkpt><trkpt lat="45.10806104725661" lon="7.269368529693483"><ele>383.25</ele><time>2026-04-18T14:34:33.001Z</time></trkpt><trkpt lat="45.10809078690282" lon="7.269523587942878"><ele>383.5</ele><time>2026-04-18T14:34:34Z</time></trkpt><trkpt lat="45.10811691252476" lon="7.2697166781538325"><ele>383.75</ele><time>2026-04-18T14:34:35Z</time></trkpt><trkpt lat="45.108137922209686" lon="7.269924811186074"><ele>384.0</ele><time>2026-04-18T14:34:36Z</time></trkpt><trkpt lat="45.10816028446189" lon="7.270185267428378"><ele>384.0</ele><time>2026-04-18T14:34:37Z</time></trkpt><trkpt lat="45.10819447921298" lon="7.270422432958838"><ele>384.0</ele><time>2026-04-18T14:34:38Z</time></trkpt><trkpt lat="45.10821859420471" lon="7.270670267587559"><ele>384.0</ele><time>2026-04-18T14:34:39Z</time></trkpt><trkpt lat="45.108261440274454" lon="7.270926828617023"><ele>383.6666666666667</ele><time>2026-04-18T14:34:40Z</time></trkpt><trkpt lat="45.1083209197114" lon="7.271185815151519"><ele>383.33333333333337</ele><time>2026-04-18T14:34:41Z</time></trkpt><trkpt lat="45.10834192304932" lon="7.271430428686554"><ele>383.0</ele><time>2026-04-18T14:34:42Z</time></trkpt><trkpt lat="45.108383305541054" lon="7.271664554540782"><ele>383.0</ele><time>2026-04-18T14:34:43Z</time></trkpt><trkpt lat="45.10840224416015" lon="7.271915862483787"><ele>383.0</ele><time>2026-04-18T14:34:44Z</time></trkpt><trkpt lat="45.108434934503194" lon="7.272150792975318"><ele>383.0</ele><time>2026-04-18T14:34:45Z</time></trkpt><trkpt lat="45.108463225287394" lon="7.27238119997851"><ele>383.0</ele><time>2026-04-18T14:34:46Z</time></trkpt><trkpt lat="45.108495495439065" lon="7.272612029965373"><ele>383.0</ele><time>2026-04-18T14:34:47Z</time></trkpt><trkpt lat="45.10853150094462" lon="7.2728397973704455"><ele>383.0</ele><time>2026-04-18T14:34:48Z</time></trkpt><trkpt lat="45.108562701162384" lon="7.273071520686331"><ele>382.75</ele><time>2026-04-18T14:34:49Z</time></trkpt><trkpt lat="45.10858633486631" lon="7.273289971511908"><ele>382.5</ele><time>2026-04-18T14:34:50Z</time></trkpt><trkpt lat="45.10861432336776" lon="7.273491345579048"><ele>382.25</ele><time>2026-04-18T14:34:51Z</time></trkpt><trkpt lat="45.10861335711866" lon="7.273672074994747"><ele>382.0</ele><time>2026-04-18T14:34:52Z</time></trkpt><trkpt lat="45.108628411972234" lon="7.273841408913699"><ele>382.5</ele><time>2026-04-18T14:34:53Z</time></trkpt><trkpt lat="45.10864152597668" lon="7.274008106308149"><ele>383.0</ele><time>2026-04-18T14:34:54Z</time></trkpt><trkpt lat="45.108638481065235" lon="7.274185252572714"><ele>383.5</ele><time>2026-04-18T14:34:55Z</time></trkpt><trkpt lat="45.10864089439016" lon="7.274376253071423"><ele>384.0</ele><time>2026-04-18T14:34:56Z</time></trkpt><trkpt lat="45.10862155430858" lon="7.274585184237424"><ele>384.0</ele><time>2026-04-18T14:34:57Z</time></trkpt><trkpt lat="45.10862901851272" lon="7.274770134024849"><ele>384.0</ele><time>2026-04-18T14:34:58Z</time></trkpt><trkpt lat="45.108612767162015" lon="7.274932812171175"><ele>384.0</ele><time>2026-04-18T14:34:59Z</time></trkpt><trkpt lat="45.10859478304229" lon="7.275074273230937"><ele>384.0</ele><time>2026-04-18T14:35:00Z</time></trkpt><trkpt lat="45.10859578015161" lon="7.275215622294895"><ele>384.0</ele><time>2026-04-18T14:35:01Z</time></trkpt><trkpt lat="45.108595261113194" lon="7.2753326624274655"><ele>384.1666666666667</ele><time>2026-04-18T14:35:02Z</time></trkpt><trkpt lat="45.1085828017083" lon="7.275423682547549"><ele>384.33333333333337</ele><time>2026-04-18T14:35:03Z</time></trkpt><trkpt lat="45.10857598453776" lon="7.275548816996599"><ele>384.5</ele><time>2026-04-18T14:35:05Z</time></trkpt><trkpt lat="45.10855419123548" lon="7.275670875037786"><ele>384.6666666666667</ele><time>2026-04-18T14:35:08Z</time></trkpt><trkpt lat="45.108547222992065" lon="7.275821232199309"><ele>384.83333333333337</ele><time>2026-04-18T14:35:10Z</time></trkpt><trkpt lat="45.10853085190725" lon="7.275959986225968"><ele>385.0</ele><time>2026-04-18T14:35:11Z</time></trkpt><trkpt lat="45.10852209293473" lon="7.276073313673835"><ele>385.0</ele><time>2026-04-18T14:35:12Z</time></trkpt><trkpt lat="45.10852866913355" lon="7.276229184785735"><ele>385.0</ele><time>2026-04-18T14:35:13Z</time></trkpt><trkpt lat="45.10852252214383" lon="7.276359148237247"><ele>385.0</ele><time>2026-04-18T14:35:14Z</time></trkpt><trkpt lat="45.10852008892041" lon="7.27650087346243"><ele>385.0</ele><time>2026-04-18T14:35:15Z</time></trkpt><trkpt lat="45.10849207937569" lon="7.2766755680826245"><ele>385.0</ele><time>2026-04-18T14:35:16Z</time></trkpt><trkpt lat="45.10845822258375" lon="7.2768526513018505"><ele>384.5</ele><time>2026-04-18T14:35:17Z</time></trkpt><trkpt lat="45.10842308112301" lon="7.277045095669034"><ele>384.0</ele><time>2026-04-18T14:35:18Z</time></trkpt><trkpt lat="45.10837386279577" lon="7.27722786345062"><ele>383.5</ele><time>2026-04-18T14:35:19Z</time></trkpt><trkpt lat="45.108324226134336" lon="7.277442926888784"><ele>383.0</ele><time>2026-04-18T14:35:20Z</time></trkpt><trkpt lat="45.108239922152585" lon="7.277702675778243"><ele>382.5</ele><time>2026-04-18T14:35:21Z</time></trkpt><trkpt lat="45.108178165217375" lon="7.27798318532753"><ele>382.0</ele><time>2026-04-18T14:35:22Z</time></trkpt><trkpt lat="45.10810466890503" lon="7.278318893813784"><ele>381.66666666666663</ele><time>2026-04-18T14:35:23Z</time></trkpt><trkpt lat="45.1080267456276" lon="7.278584785105068"><ele>381.3333333333333</ele><time>2026-04-18T14:35:24Z</time></trkpt><trkpt lat="45.10798175870365" lon="7.27886350358093"><ele>381.0</ele><time>2026-04-18T14:35:25Z</time></trkpt><trkpt lat="45.1079536916003" lon="7.27913756682644"><ele>381.0</ele><time>2026-04-18T14:35:26Z</time></trkpt><trkpt lat="45.10794423495193" lon="7.279417251028056"><ele>381.0</ele><time>2026-04-18T14:35:27Z</time></trkpt><trkpt lat="45.10790656979204" lon="7.279663847761883"><ele>381.0</ele><time>2026-04-18T14:35:28Z</time></trkpt><trkpt lat="45.10789847396907" lon="7.279896812659902"><ele>381.0</ele><time>2026-04-18T14:35:29Z</time></trkpt><trkpt lat="45.10787785789402" lon="7.280107513019279"><ele>381.0</ele><time>2026-04-18T14:35:30Z</time></trkpt><trkpt lat="45.10787066624672" lon="7.280286631375687"><ele>381.0</ele><time>2026-04-18T14:35:31Z</time></trkpt><trkpt lat="45.107862449537095" lon="7.280430998881971"><ele>381.0</ele><time>2026-04-18T14:35:32Z</time></trkpt><trkpt lat="45.10787149588262" lon="7.280540978267543"><ele>381.0</ele><time>2026-04-18T14:35:33Z</time></trkpt><trkpt lat="45.10786308868451" lon="7.280668464997508"><ele>381.0</ele><time>2026-04-18T14:35:34Z</time></trkpt><trkpt lat="45.107860494308795" lon="7.280784127098708"><ele>381.0</ele><time>2026-04-18T14:35:35Z</time></trkpt><trkpt lat="45.10784859435376" lon="7.280887323152104"><ele>381.0</ele><time>2026-04-18T14:35:37Z</time></trkpt><trkpt lat="45.10787207352754" lon="7.2810070502759805"><ele>381.0</ele><time>2026-04-18T14:36:45Z</time></trkpt><trkpt lat="45.10786541949812" lon="7.281108464996862"><ele>381.0</ele><time>2026-04-18T14:36:46Z</time></trkpt><trkpt lat="45.10785309691598" lon="7.281239434335753"><ele>381.0</ele><time>2026-04-18T14:36:47Z</time></trkpt><trkpt lat="45.10785563111203" lon="7.28137607592032"><ele>381.0</ele><time>2026-04-18T14:36:48Z</time></trkpt><trkpt lat="45.10785011717404" lon="7.2815261152583775"><ele>381.0</ele><time>2026-04-18T14:36:49Z</time></trkpt><trkpt lat="45.10783345164821" lon="7.281686564618501"><ele>381.0</ele><time>2026-04-18T14:36:50Z</time></trkpt><trkpt lat="45.10782588537205" lon="7.2818573557979915"><ele>381.0</ele><time>2026-04-18T14:36:51Z</time></trkpt><trkpt lat="45.107817674586514" lon="7.2820426952914366"><ele>381.0</ele><time>2026-04-18T14:36:52Z</time></trkpt><trkpt lat="45.10782100406973" lon="7.282242702457641"><ele>381.0</ele><time>2026-04-18T14:36:53Z</time></trkpt><trkpt lat="45.10780314244804" lon="7.282444193495683"><ele>381.0</ele><time>2026-04-18T14:36:54Z</time></trkpt><trkpt lat="45.10778650612594" lon="7.28266275775794"><ele>381.0</ele><time>2026-04-18T14:36:55Z</time></trkpt><trkpt lat="45.10776119325117" lon="7.282889176939345"><ele>380.0</ele><time>2026-04-18T14:36:56Z</time></trkpt><trkpt lat="45.1077533169696" lon="7.283125286217144"><ele>379.0</ele><time>2026-04-18T14:36:57Z</time></trkpt><trkpt lat="45.107741721770026" lon="7.283364358375867"><ele>378.0</ele><time>2026-04-18T14:36:58Z</time></trkpt><trkpt lat="45.10773567071882" lon="7.283620674559615"><ele>378.0</ele><time>2026-04-18T14:36:59Z</time></trkpt><trkpt lat="45.107732105905754" lon="7.283912415239743"><ele>378.0</ele><time>2026-04-18T14:37:00Z</time></trkpt><trkpt lat="45.10772796800068" lon="7.284234420220547"><ele>378.0</ele><time>2026-04-18T14:37:01Z</time></trkpt><trkpt lat="45.10771451703386" lon="7.284557883279026"><ele>377.3333333333333</ele><time>2026-04-18T14:37:02Z</time></trkpt><trkpt lat="45.107707153000476" lon="7.284881111678006"><ele>376.66666666666663</ele><time>2026-04-18T14:37:03Z</time></trkpt><trkpt lat="45.10768900835895" lon="7.285177726978047"><ele>376.0</ele><time>2026-04-18T14:37:04Z</time></trkpt><trkpt lat="45.10767407693413" lon="7.285479214479811"><ele>376.0</ele><time>2026-04-18T14:37:05Z</time></trkpt><trkpt lat="45.10765313278945" lon="7.285759766107717"><ele>376.0</ele><time>2026-04-18T14:37:06Z</time></trkpt><trkpt lat="45.10764271745272" lon="7.286035036315702"><ele>376.0</ele><time>2026-04-18T14:37:07Z</time></trkpt><trkpt lat="45.107621498882274" lon="7.286298810113219"><ele>376.3333333333333</ele><time>2026-04-18T14:37:08Z</time></trkpt><trkpt lat="45.10761920732164" lon="7.286556066603194"><ele>376.6666666666667</ele><time>2026-04-18T14:37:09Z</time></trkpt><trkpt lat="45.10760629505126" lon="7.286803759351185"><ele>377.0</ele><time>2026-04-18T14:37:10Z</time></trkpt><trkpt lat="45.10759461101301" lon="7.287045400084274"><ele>377.5</ele><time>2026-04-18T14:37:11Z</time></trkpt><trkpt lat="45.107598317640516" lon="7.28726784323767"><ele>378.0</ele><time>2026-04-18T14:37:12Z</time></trkpt><trkpt lat="45.107584237635045" lon="7.287461577755305"><ele>378.5</ele><time>2026-04-18T14:37:13Z</time></trkpt><trkpt lat="45.10757287572533" lon="7.287658907003717"><ele>379.0</ele><time>2026-04-18T14:37:14Z</time></trkpt><trkpt lat="45.107568365958365" lon="7.287845663154823"><ele>379.0</ele><time>2026-04-18T14:37:15Z</time></trkpt><trkpt lat="45.107564847015375" lon="7.288039395255827"><ele>379.0</ele><time>2026-04-18T14:37:16Z</time></trkpt><trkpt lat="45.10755233958924" lon="7.288223076967495"><ele>379.0</ele><time>2026-04-18T14:37:17Z</time></trkpt><trkpt lat="45.107553512532306" lon="7.288394052654311"><ele>379.0</ele><time>2026-04-18T14:37:18Z</time></trkpt><trkpt lat="45.10753740955661" lon="7.28855889303525"><ele>378.6</ele><time>2026-04-18T14:37:19Z</time></trkpt><trkpt lat="45.10751770387297" lon="7.288703084786048"><ele>378.2</ele><time>2026-04-18T14:37:20Z</time></trkpt><trkpt lat="45.10749678961692" lon="7.288828482330034"><ele>377.8</ele><time>2026-04-18T14:37:21Z</time></trkpt><trkpt lat="45.10744155222992" lon="7.2889332757453955"><ele>377.40000000000003</ele><time>2026-04-18T14:37:22Z</time></trkpt><trkpt lat="45.10738806835185" lon="7.289031399491062"><ele>377.0</ele><time>2026-04-18T14:37:23Z</time></trkpt><trkpt lat="45.107355421859666" lon="7.28913654331572"><ele>377.0</ele><time>2026-04-18T14:37:24Z</time></trkpt><trkpt lat="45.10733844050757" lon="7.289239891627632"><ele>377.0</ele><time>2026-04-18T14:37:25Z</time></trkpt><trkpt lat="45.10735829126977" lon="7.289341706425665"><ele>377.0</ele><time>2026-04-18T14:37:26Z</time></trkpt><trkpt lat="45.10739190515609" lon="7.289452192856043"><ele>377.0</ele><time>2026-04-18T14:37:27Z</time></trkpt><trkpt lat="45.10744485985633" lon="7.289583729696738"><ele>377.0</ele><time>2026-04-18T14:37:28Z</time></trkpt><trkpt lat="45.10747675597491" lon="7.289733877073105"><ele>377.25</ele><time>2026-04-18T14:37:29Z</time></trkpt><trkpt lat="45.10748025000036" lon="7.289917676650877"><ele>377.5</ele><time>2026-04-18T14:37:30Z</time></trkpt><trkpt lat="45.107480128223116" lon="7.290099744591589"><ele>377.75</ele><time>2026-04-18T14:37:31Z</time></trkpt><trkpt lat="45.10745462769109" lon="7.290322941053204"><ele>378.0</ele><time>2026-04-18T14:37:32Z</time></trkpt><trkpt lat="45.107443318526734" lon="7.290577277726644"><ele>376.0</ele><time>2026-04-18T14:37:33Z</time></trkpt><trkpt lat="45.10742866580621" lon="7.290920684323634"><ele>374.0</ele><time>2026-04-18T14:37:34Z</time></trkpt><trkpt lat="45.10741383633857" lon="7.291276509124106"><ele>373.5</ele><time>2026-04-18T14:37:35Z</time></trkpt><trkpt lat="45.10739869830237" lon="7.291639737920215"><ele>373.0</ele><time>2026-04-18T14:37:36Z</time></trkpt><trkpt lat="45.10738227653409" lon="7.29203376937531"><ele>373.5</ele><time>2026-04-18T14:37:37Z</time></trkpt><trkpt lat="45.10736573585031" lon="7.2923917437268155"><ele>374.0</ele><time>2026-04-18T14:37:38Z</time></trkpt><trkpt lat="45.107349485119414" lon="7.292746833103127"><ele>374.0</ele><time>2026-04-18T14:37:39Z</time></trkpt><trkpt lat="45.107332834536294" lon="7.293110659479218"><ele>374.0</ele><time>2026-04-18T14:37:40Z</time></trkpt><trkpt lat="45.107329983268805" lon="7.293470483461354"><ele>374.0</ele><time>2026-04-18T14:37:41Z</time></trkpt><trkpt lat="45.10731405514875" lon="7.2938068764876345"><ele>374.0</ele><time>2026-04-18T14:37:42Z</time></trkpt><trkpt lat="45.10728664860839" lon="7.294147453781078"><ele>373.5</ele><time>2026-04-18T14:37:43Z</time></trkpt><trkpt lat="45.10728862705976" lon="7.294491307744313"><ele>373.0</ele><time>2026-04-18T14:37:44Z</time></trkpt><trkpt lat="45.10726955559168" lon="7.294839105343135"><ele>373.0</ele><time>2026-04-18T14:37:45Z</time></trkpt><trkpt lat="45.10725099840752" lon="7.295178655324035"><ele>373.0</ele><time>2026-04-18T14:37:46Z</time></trkpt><trkpt lat="45.10722844575105" lon="7.295514972847909"><ele>373.0</ele><time>2026-04-18T14:37:47Z</time></trkpt><trkpt lat="45.10720935242131" lon="7.2958496095111025"><ele>373.0</ele><time>2026-04-18T14:37:48Z</time></trkpt><trkpt lat="45.10719571092994" lon="7.296190980916561"><ele>373.0</ele><time>2026-04-18T14:37:49Z</time></trkpt><trkpt lat="45.10719304958352" lon="7.2965179684308"><ele>373.0</ele><time>2026-04-18T14:37:50Z</time></trkpt><trkpt lat="45.10717416297256" lon="7.2968509786925715"><ele>373.0</ele><time>2026-04-18T14:37:51Z</time></trkpt><trkpt lat="45.107154966434194" lon="7.29718681916882"><ele>373.0</ele><time>2026-04-18T14:37:52Z</time></trkpt><trkpt lat="45.10714577977079" lon="7.297524019742206"><ele>373.5</ele><time>2026-04-18T14:37:53Z</time></trkpt><trkpt lat="45.10712899209291" lon="7.297860351371196"><ele>374.0</ele><time>2026-04-18T14:37:54Z</time></trkpt><trkpt lat="45.10710902879087" lon="7.298201683515804"><ele>373.0</ele><time>2026-04-18T14:37:55Z</time></trkpt><trkpt lat="45.10709001202902" lon="7.298552885386312"><ele>372.0</ele><time>2026-04-18T14:37:56Z</time></trkpt><trkpt lat="45.10706105384688" lon="7.298908600369148"><ele>372.5</ele><time>2026-04-18T14:37:57Z</time></trkpt><trkpt lat="45.107052907801574" lon="7.299285301038861"><ele>373.0</ele><time>2026-04-18T14:37:58Z</time></trkpt><trkpt lat="45.107037012781376" lon="7.299659436525139"><ele>373.5</ele><time>2026-04-18T14:37:59Z</time></trkpt><trkpt lat="45.10701274913152" lon="7.300030604920795"><ele>374.0</ele><time>2026-04-18T14:38:00Z</time></trkpt><trkpt lat="45.107006100054775" lon="7.300405622034505"><ele>373.5</ele><time>2026-04-18T14:38:01Z</time></trkpt><trkpt lat="45.10697904063224" lon="7.30075796418631"><ele>373.0</ele><time>2026-04-18T14:38:02Z</time></trkpt><trkpt lat="45.1069597027596" lon="7.301116955340639"><ele>373.0</ele><time>2026-04-18T14:38:03Z</time></trkpt><trkpt lat="45.10693731092419" lon="7.301466213031009"><ele>373.0</ele><time>2026-04-18T14:38:04Z</time></trkpt><trkpt lat="45.106921093314234" lon="7.301815634195323"><ele>373.0</ele><time>2026-04-18T14:38:05Z</time></trkpt><trkpt lat="45.1068961724704" lon="7.302159892859645"><ele>373.0</ele><time>2026-04-18T14:38:06Z</time></trkpt><trkpt lat="45.106871544714316" lon="7.3025119868268185"><ele>373.0</ele><time>2026-04-18T14:38:07Z</time></trkpt><trkpt lat="45.106844208284784" lon="7.3028622179730185"><ele>373.0</ele><time>2026-04-18T14:38:08Z</time></trkpt><trkpt lat="45.10683829041057" lon="7.30321574696059"><ele>373.5</ele><time>2026-04-18T14:38:09Z</time></trkpt><trkpt lat="45.10683012174596" lon="7.303571601147565"><ele>374.0</ele><time>2026-04-18T14:38:10Z</time></trkpt><trkpt lat="45.10682409507038" lon="7.303917849353576"><ele>374.5</ele><time>2026-04-18T14:38:11Z</time></trkpt><trkpt lat="45.106806597932156" lon="7.304263545437264"><ele>375.0</ele><time>2026-04-18T14:38:12Z</time></trkpt><trkpt lat="45.10678260660577" lon="7.3046116484913695"><ele>374.5</ele><time>2026-04-18T14:38:13Z</time></trkpt><trkpt lat="45.10676245125597" lon="7.304957026758963"><ele>374.0</ele><time>2026-04-18T14:38:14Z</time></trkpt><trkpt lat="45.10673966650979" lon="7.305300838026873"><ele>372.5</ele><time>2026-04-18T14:38:15Z</time></trkpt><trkpt lat="45.10672318837336" lon="7.305644594029364"><ele>371.0</ele><time>2026-04-18T14:38:16Z</time></trkpt><trkpt lat="45.1067180777221" lon="7.305986869332603"><ele>371.0</ele><time>2026-04-18T14:38:17Z</time></trkpt><trkpt lat="45.10669602684059" lon="7.306329289230393"><ele>371.0</ele><time>2026-04-18T14:38:18Z</time></trkpt><trkpt lat="45.106685769773435" lon="7.306669819135431"><ele>370.5</ele><time>2026-04-18T14:38:19Z</time></trkpt><trkpt lat="45.10668050394422" lon="7.3070055412676505"><ele>370.0</ele><time>2026-04-18T14:38:20Z</time></trkpt><trkpt lat="45.10665566373865" lon="7.307339882917522"><ele>370.0</ele><time>2026-04-18T14:38:21Z</time></trkpt><trkpt lat="45.10664422352595" lon="7.307677875743964"><ele>370.0</ele><time>2026-04-18T14:38:22Z</time></trkpt><trkpt lat="45.10663040158722" lon="7.30800729133852"><ele>370.0</ele><time>2026-04-18T14:38:23Z</time></trkpt><trkpt lat="45.1066116198212" lon="7.308311072052328"><ele>370.0</ele><time>2026-04-18T14:38:24.001Z</time></trkpt><trkpt lat="45.106607778375775" lon="7.308608360560827"><ele>370.0</ele><time>2026-04-18T14:38:25.001Z</time></trkpt><trkpt lat="45.10658186201547" lon="7.308874926562148"><ele>370.3333333333333</ele><time>2026-04-18T14:38:26.001Z</time></trkpt><trkpt lat="45.10657703080744" lon="7.309139526219231"><ele>370.6666666666667</ele><time>2026-04-18T14:38:27.001Z</time></trkpt><trkpt lat="45.106566174400385" lon="7.309390730384618"><ele>371.0</ele><time>2026-04-18T14:38:28.001Z</time></trkpt><trkpt lat="45.106538630211986" lon="7.309630005168962"><ele>371.0</ele><time>2026-04-18T14:38:29.001Z</time></trkpt><trkpt lat="45.10653172373762" lon="7.309851020829888"><ele>371.0</ele><time>2026-04-18T14:38:30.001Z</time></trkpt><trkpt lat="45.106525533773265" lon="7.310060309308391"><ele>371.0</ele><time>2026-04-18T14:38:31.001Z</time></trkpt><trkpt lat="45.106529803152455" lon="7.31027277547517"><ele>371.0</ele><time>2026-04-18T14:38:32.001Z</time></trkpt><trkpt lat="45.10651859457931" lon="7.310450929439767"><ele>371.0</ele><time>2026-04-18T14:38:33.001Z</time></trkpt><trkpt lat="45.106494086907134" lon="7.310623312730386"><ele>371.0</ele><time>2026-04-18T14:38:34.001Z</time></trkpt><trkpt lat="45.10648692569968" lon="7.310787301686257"><ele>371.0</ele><time>2026-04-18T14:38:35.001Z</time></trkpt><trkpt lat="45.106477721974215" lon="7.310899080369702"><ele>371.0</ele><time>2026-04-18T14:38:36.001Z</time></trkpt><trkpt lat="45.106479200985575" lon="7.3109937619241885"><ele>370.83333333333337</ele><time>2026-04-18T14:38:37.001Z</time></trkpt><trkpt lat="45.10645059098513" lon="7.31108052808798"><ele>370.6666666666667</ele><time>2026-04-18T14:38:38.001Z</time></trkpt><trkpt lat="45.10640025434494" lon="7.311182333275383"><ele>370.5</ele><time>2026-04-18T14:38:39.001Z</time></trkpt><trkpt lat="45.10632374178945" lon="7.311251102495067"><ele>370.3333333333333</ele><time>2026-04-18T14:38:40.001Z</time></trkpt><trkpt lat="45.10629550551091" lon="7.311338174891794"><ele>370.16666666666663</ele><time>2026-04-18T14:38:41.001Z</time></trkpt><trkpt lat="45.10630725230706" lon="7.311461344619357"><ele>370.0</ele><time>2026-04-18T14:38:42.001Z</time></trkpt><trkpt lat="45.10634861761746" lon="7.311554980125564"><ele>370.2</ele><time>2026-04-18T14:38:43.001Z</time></trkpt><trkpt lat="45.106388772550474" lon="7.311661999356137"><ele>370.4</ele><time>2026-04-18T14:38:44.001Z</time></trkpt><trkpt lat="45.10644845247684" lon="7.311744476861903"><ele>370.6</ele><time>2026-04-18T14:38:45.001Z</time></trkpt><trkpt lat="45.10643487915089" lon="7.31193643809758"><ele>370.8</ele><time>2026-04-18T14:38:46Z</time></trkpt><trkpt lat="45.106436895915174" lon="7.3121200964626425"><ele>371.0</ele><time>2026-04-18T14:38:47Z</time></trkpt><trkpt lat="45.106437937573624" lon="7.312354156771385"><ele>371.0</ele><time>2026-04-18T14:38:48Z</time></trkpt><trkpt lat="45.10642740999468" lon="7.312639846172673"><ele>371.0</ele><time>2026-04-18T14:38:49Z</time></trkpt><trkpt lat="45.10638795693539" lon="7.3129496541841625"><ele>371.0</ele><time>2026-04-18T14:38:50Z</time></trkpt><trkpt lat="45.106371348881396" lon="7.3132934684365525"><ele>370.0</ele><time>2026-04-18T14:38:51Z</time></trkpt><trkpt lat="45.106339661248086" lon="7.313629581892927"><ele>369.0</ele><time>2026-04-18T14:38:52Z</time></trkpt><trkpt lat="45.10630674831372" lon="7.313948851236527"><ele>369.0</ele><time>2026-04-18T14:38:53Z</time></trkpt><trkpt lat="45.10629442873131" lon="7.3142284728114415"><ele>369.0</ele><time>2026-04-18T14:38:54Z</time></trkpt><trkpt lat="45.10628258489277" lon="7.314490451836156"><ele>369.0</ele><time>2026-04-18T14:38:55Z</time></trkpt><trkpt lat="45.1062662195881" lon="7.314693555301428"><ele>369.0</ele><time>2026-04-18T14:38:56Z</time></trkpt><trkpt lat="45.10627027186866" lon="7.314843172873874"><ele>369.0</ele><time>2026-04-18T14:38:57Z</time></trkpt><trkpt lat="45.106267520207126" lon="7.3150205788542895"><ele>369.0</ele><time>2026-04-18T14:38:59Z</time></trkpt><trkpt lat="45.1062254617577" lon="7.315125654902709"><ele>369.0</ele><time>2026-04-18T14:39:11Z</time></trkpt><trkpt lat="45.10621261055408" lon="7.315302086605928"><ele>369.0</ele><time>2026-04-18T14:39:13Z</time></trkpt><trkpt lat="45.10620258544135" lon="7.315427152511069"><ele>368.75</ele><time>2026-04-18T14:39:14Z</time></trkpt><trkpt lat="45.10621704748398" lon="7.315603991802358"><ele>368.5</ele><time>2026-04-18T14:39:15Z</time></trkpt><trkpt lat="45.10621481926537" lon="7.315798133280923"><ele>368.25</ele><time>2026-04-18T14:39:16Z</time></trkpt><trkpt lat="45.106203681012914" lon="7.315992119318923"><ele>368.0</ele><time>2026-04-18T14:39:17Z</time></trkpt><trkpt lat="45.10618214120225" lon="7.316182651250535"><ele>368.0</ele><time>2026-04-18T14:39:18Z</time></trkpt><trkpt lat="45.10617803889156" lon="7.3163924225379615"><ele>368.0</ele><time>2026-04-18T14:39:19Z</time></trkpt><trkpt lat="45.10616291033624" lon="7.316622564689174"><ele>368.0</ele><time>2026-04-18T14:39:20Z</time></trkpt><trkpt lat="45.106166544241425" lon="7.316878674020072"><ele>368.0</ele><time>2026-04-18T14:39:21Z</time></trkpt><trkpt lat="45.106161381127045" lon="7.317134019324021"><ele>368.0</ele><time>2026-04-18T14:39:22Z</time></trkpt><trkpt lat="45.106127181276214" lon="7.317398021206843"><ele>368.0</ele><time>2026-04-18T14:39:23Z</time></trkpt><trkpt lat="45.10611846743985" lon="7.3176634138884085"><ele>368.0</ele><time>2026-04-18T14:39:24Z</time></trkpt><trkpt lat="45.106096206208484" lon="7.31792171473269"><ele>368.0</ele><time>2026-04-18T14:39:25Z</time></trkpt><trkpt lat="45.106075922103514" lon="7.318185086119111"><ele>368.0</ele><time>2026-04-18T14:39:26Z</time></trkpt><trkpt lat="45.106078545888934" lon="7.318461550194646"><ele>368.33333333333337</ele><time>2026-04-18T14:39:27Z</time></trkpt><trkpt lat="45.10606728252297" lon="7.318732998075873"><ele>368.6666666666667</ele><time>2026-04-18T14:39:28Z</time></trkpt><trkpt lat="45.10604531059475" lon="7.318996237338185"><ele>369.0</ele><time>2026-04-18T14:39:29Z</time></trkpt><trkpt lat="45.106027111946304" lon="7.319243486596553"><ele>369.0</ele><time>2026-04-18T14:39:30Z</time></trkpt><trkpt lat="45.10600816376761" lon="7.319476516393668"><ele>369.0</ele><time>2026-04-18T14:39:31Z</time></trkpt><trkpt lat="45.105998522937874" lon="7.31970372483715"><ele>369.0</ele><time>2026-04-18T14:39:32Z</time></trkpt><trkpt lat="45.106000263351575" lon="7.319924480794923"><ele>369.0</ele><time>2026-04-18T14:39:33Z</time></trkpt><trkpt lat="45.105992120452456" lon="7.320142561789638"><ele>369.0</ele><time>2026-04-18T14:39:34Z</time></trkpt><trkpt lat="45.10598162650433" lon="7.3203776053687095"><ele>369.0</ele><time>2026-04-18T14:39:35Z</time></trkpt><trkpt lat="45.105961834708786" lon="7.320613090073442"><ele>369.0</ele><time>2026-04-18T14:39:36Z</time></trkpt><trkpt lat="45.10594710565583" lon="7.3208481516412505"><ele>369.0</ele><time>2026-04-18T14:39:37Z</time></trkpt><trkpt lat="45.10592391189359" lon="7.321085265928684"><ele>369.0</ele><time>2026-04-18T14:39:38Z</time></trkpt><trkpt lat="45.10591878688761" lon="7.321322455392603"><ele>368.75</ele><time>2026-04-18T14:39:39Z</time></trkpt><trkpt lat="45.10590774981484" lon="7.321542414596292"><ele>368.5</ele><time>2026-04-18T14:39:40Z</time></trkpt><trkpt lat="45.105906211264696" lon="7.321747706304992"><ele>368.25</ele><time>2026-04-18T14:39:41Z</time></trkpt><trkpt lat="45.10590178861443" lon="7.321948153794973"><ele>368.0</ele><time>2026-04-18T14:39:42Z</time></trkpt><trkpt lat="45.10589110171659" lon="7.32215161682924"><ele>368.0</ele><time>2026-04-18T14:39:43Z</time></trkpt><trkpt lat="45.10587395488526" lon="7.322367968800138"><ele>368.0</ele><time>2026-04-18T14:39:44Z</time></trkpt><trkpt lat="45.105864013589475" lon="7.322590971496534"><ele>368.0</ele><time>2026-04-18T14:39:45Z</time></trkpt><trkpt lat="45.10585778088029" lon="7.3228169930278915"><ele>368.0</ele><time>2026-04-18T14:39:46Z</time></trkpt><trkpt lat="45.10584874268418" lon="7.323050278737481"><ele>368.0</ele><time>2026-04-18T14:39:47Z</time></trkpt><trkpt lat="45.105823790762614" lon="7.323291996503483"><ele>368.0</ele><time>2026-04-18T14:39:48Z</time></trkpt><trkpt lat="45.10581883953661" lon="7.323531694581478"><ele>368.0</ele><time>2026-04-18T14:39:49Z</time></trkpt><trkpt lat="45.10580714962491" lon="7.3237670559323425"><ele>368.0</ele><time>2026-04-18T14:39:50Z</time></trkpt><trkpt lat="45.105797400558615" lon="7.324010789983985"><ele>368.0</ele><time>2026-04-18T14:39:51Z</time></trkpt><trkpt lat="45.10579118231253" lon="7.324266218719315"><ele>367.6666666666667</ele><time>2026-04-18T14:39:52Z</time></trkpt><trkpt lat="45.10578027566872" lon="7.324517090729144"><ele>367.3333333333333</ele><time>2026-04-18T14:39:53Z</time></trkpt><trkpt lat="45.10575541442916" lon="7.324766564580408"><ele>367.0</ele><time>2026-04-18T14:39:54Z</time></trkpt><trkpt lat="45.10573812625804" lon="7.3250169719623095"><ele>367.3333333333333</ele><time>2026-04-18T14:39:55Z</time></trkpt><trkpt lat="45.10572113687287" lon="7.325257202255537"><ele>367.6666666666667</ele><time>2026-04-18T14:39:56Z</time></trkpt><trkpt lat="45.105706861954594" lon="7.325488745144623"><ele>368.0</ele><time>2026-04-18T14:39:57Z</time></trkpt><trkpt lat="45.10568428377152" lon="7.325725324311996"><ele>368.0</ele><time>2026-04-18T14:39:58Z</time></trkpt><trkpt lat="45.105676172715526" lon="7.325965424747469"><ele>368.0</ele><time>2026-04-18T14:39:59Z</time></trkpt><trkpt lat="45.10566165360905" lon="7.326207725641444"><ele>368.0</ele><time>2026-04-18T14:40:00Z</time></trkpt><trkpt lat="45.10564267237622" lon="7.326446157267492"><ele>367.6666666666667</ele><time>2026-04-18T14:40:01Z</time></trkpt><trkpt lat="45.105635994250946" lon="7.326683115326683"><ele>367.3333333333333</ele><time>2026-04-18T14:40:02Z</time></trkpt><trkpt lat="45.10562639086773" lon="7.326915854810059"><ele>367.0</ele><time>2026-04-18T14:40:03Z</time></trkpt><trkpt lat="45.10561356120159" lon="7.327151095445004"><ele>366.66666666666663</ele><time>2026-04-18T14:40:04Z</time></trkpt><trkpt lat="45.10559354050528" lon="7.327377906812071"><ele>366.3333333333333</ele><time>2026-04-18T14:40:05Z</time></trkpt><trkpt lat="45.105587294641346" lon="7.327611788876623"><ele>366.0</ele><time>2026-04-18T14:40:06Z</time></trkpt><trkpt lat="45.105576529731394" lon="7.327842376027783"><ele>365.6666666666667</ele><time>2026-04-18T14:40:07Z</time></trkpt><trkpt lat="45.10556635468365" lon="7.328082201525157"><ele>365.33333333333337</ele><time>2026-04-18T14:40:08Z</time></trkpt><trkpt lat="45.105553896042615" lon="7.328321136207301"><ele>365.0</ele><time>2026-04-18T14:40:09Z</time></trkpt><trkpt lat="45.10554638105974" lon="7.328552203416799"><ele>365.0</ele><time>2026-04-18T14:40:10Z</time></trkpt><trkpt lat="45.10553117944408" lon="7.328795309376816"><ele>365.0</ele><time>2026-04-18T14:40:11Z</time></trkpt><trkpt lat="45.10552069616616" lon="7.329054512855348"><ele>365.0</ele><time>2026-04-18T14:40:12Z</time></trkpt><trkpt lat="45.10551323447529" lon="7.329311960574543"><ele>365.33333333333337</ele><time>2026-04-18T14:40:13Z</time></trkpt><trkpt lat="45.10550392386632" lon="7.329573417594393"><ele>365.6666666666667</ele><time>2026-04-18T14:40:14Z</time></trkpt><trkpt lat="45.105501112844856" lon="7.329816173848647"><ele>366.0</ele><time>2026-04-18T14:40:15Z</time></trkpt><trkpt lat="45.1054889041927" lon="7.330033976064779"><ele>366.0</ele><time>2026-04-18T14:40:16Z</time></trkpt><trkpt lat="45.105478741840926" lon="7.330246907966176"><ele>366.0</ele><time>2026-04-18T14:40:17Z</time></trkpt><trkpt lat="45.105458207336504" lon="7.330451906843976"><ele>366.0</ele><time>2026-04-18T14:40:18Z</time></trkpt><trkpt lat="45.105445135950696" lon="7.33066824947154"><ele>365.3333333333333</ele><time>2026-04-18T14:40:19Z</time></trkpt><trkpt lat="45.105445318674235" lon="7.330892743871825"><ele>364.66666666666663</ele><time>2026-04-18T14:40:20Z</time></trkpt><trkpt lat="45.10542193225294" lon="7.331119009686704"><ele>364.0</ele><time>2026-04-18T14:40:21Z</time></trkpt><trkpt lat="45.10541092879004" lon="7.3313327595819295"><ele>364.0</ele><time>2026-04-18T14:40:22Z</time></trkpt><trkpt lat="45.1053995877873" lon="7.3315528399735665"><ele>364.0</ele><time>2026-04-18T14:40:23Z</time></trkpt><trkpt lat="45.105388205865054" lon="7.331773498097084"><ele>364.0</ele><time>2026-04-18T14:40:24Z</time></trkpt><trkpt lat="45.10537735819166" lon="7.3319835171699514"><ele>364.0</ele><time>2026-04-18T14:40:25Z</time></trkpt><trkpt lat="45.1053774619622" lon="7.332201242475662"><ele>364.0</ele><time>2026-04-18T14:40:26Z</time></trkpt><trkpt lat="45.105355306068766" lon="7.3324084894681825"><ele>364.0</ele><time>2026-04-18T14:40:27Z</time></trkpt><trkpt lat="45.10533299160699" lon="7.332599475910454"><ele>364.0</ele><time>2026-04-18T14:40:28Z</time></trkpt><trkpt lat="45.10532382355373" lon="7.3327963097509254"><ele>364.0</ele><time>2026-04-18T14:40:29Z</time></trkpt><trkpt lat="45.105314461634194" lon="7.332988961783993"><ele>364.0</ele><time>2026-04-18T14:40:30Z</time></trkpt><trkpt lat="45.10529837872617" lon="7.333194716228089"><ele>364.0</ele><time>2026-04-18T14:40:31Z</time></trkpt><trkpt lat="45.10528572576698" lon="7.333413539372824"><ele>364.0</ele><time>2026-04-18T14:40:32Z</time></trkpt><trkpt lat="45.105288282972715" lon="7.333636893799535"><ele>364.0</ele><time>2026-04-18T14:40:33Z</time></trkpt><trkpt lat="45.105285776258825" lon="7.333860444462463"><ele>364.0</ele><time>2026-04-18T14:40:34Z</time></trkpt><trkpt lat="45.10527270308042" lon="7.334086432645382"><ele>364.0</ele><time>2026-04-18T14:40:35Z</time></trkpt><trkpt lat="45.105258433830535" lon="7.334308975103426"><ele>364.0</ele><time>2026-04-18T14:40:36Z</time></trkpt><trkpt lat="45.10525018670976" lon="7.334514508361202"><ele>364.0</ele><time>2026-04-18T14:40:37Z</time></trkpt><trkpt lat="45.105246437719416" lon="7.334724998756073"><ele>364.0</ele><time>2026-04-18T14:40:38Z</time></trkpt><trkpt lat="45.10523936286411" lon="7.334930783307109"><ele>364.0</ele><time>2026-04-18T14:40:39Z</time></trkpt><trkpt lat="45.10522670946304" lon="7.33514121405615"><ele>364.0</ele><time>2026-04-18T14:40:40Z</time></trkpt><trkpt lat="45.10520126836792" lon="7.33536053912899"><ele>364.0</ele><time>2026-04-18T14:40:41.001Z</time></trkpt><trkpt lat="45.105188947843004" lon="7.335592884279942"><ele>364.0</ele><time>2026-04-18T14:40:42.001Z</time></trkpt><trkpt lat="45.10516677174024" lon="7.335820897796411"><ele>364.0</ele><time>2026-04-18T14:40:43.001Z</time></trkpt><trkpt lat="45.10515583237164" lon="7.33604207953612"><ele>364.0</ele><time>2026-04-18T14:40:44.001Z</time></trkpt><trkpt lat="45.10515169905711" lon="7.336254416873042"><ele>364.0</ele><time>2026-04-18T14:40:45.001Z</time></trkpt><trkpt lat="45.10514104034794" lon="7.336466827021035"><ele>364.0</ele><time>2026-04-18T14:40:46.001Z</time></trkpt><trkpt lat="45.10513020358754" lon="7.336682624991956"><ele>364.0</ele><time>2026-04-18T14:40:47.001Z</time></trkpt><trkpt lat="45.10511643826318" lon="7.3368863153916015"><ele>364.0</ele><time>2026-04-18T14:40:48.001Z</time></trkpt><trkpt lat="45.10509803950969" lon="7.337088027539155"><ele>364.0</ele><time>2026-04-18T14:40:49.001Z</time></trkpt><trkpt lat="45.105094525721384" lon="7.337283464243941"><ele>363.5</ele><time>2026-04-18T14:40:50.001Z</time></trkpt><trkpt lat="45.10508504169756" lon="7.3374734909138555"><ele>363.0</ele><time>2026-04-18T14:40:51.001Z</time></trkpt><trkpt lat="45.10508017126911" lon="7.337678736324411"><ele>362.5</ele><time>2026-04-18T14:40:52Z</time></trkpt><trkpt lat="45.105063115840096" lon="7.337881807667227"><ele>362.0</ele><time>2026-04-18T14:40:53Z</time></trkpt><trkpt lat="45.1050503934884" lon="7.338089571230627"><ele>361.6666666666667</ele><time>2026-04-18T14:40:54Z</time></trkpt><trkpt lat="45.10503989276096" lon="7.3383078558663435"><ele>361.3333333333333</ele><time>2026-04-18T14:40:55Z</time></trkpt><trkpt lat="45.10502427355173" lon="7.33852216691302"><ele>361.0</ele><time>2026-04-18T14:40:56Z</time></trkpt><trkpt lat="45.105016102120615" lon="7.338731389060545"><ele>361.3333333333333</ele><time>2026-04-18T14:40:57Z</time></trkpt><trkpt lat="45.105002760503716" lon="7.338976401289415"><ele>361.6666666666667</ele><time>2026-04-18T14:40:58Z</time></trkpt><trkpt lat="45.104988730804386" lon="7.339217818131546"><ele>362.0</ele><time>2026-04-18T14:40:59Z</time></trkpt><trkpt lat="45.10497484707704" lon="7.339457467027978"><ele>362.0</ele><time>2026-04-18T14:41:00Z</time></trkpt><trkpt lat="45.104965729588216" lon="7.339703710655708"><ele>362.0</ele><time>2026-04-18T14:41:01Z</time></trkpt><trkpt lat="45.1049457478269" lon="7.339961605569507"><ele>362.0</ele><time>2026-04-18T14:41:02Z</time></trkpt><trkpt lat="45.10492519671613" lon="7.340245352715259"><ele>361.5</ele><time>2026-04-18T14:41:03Z</time></trkpt><trkpt lat="45.10492215995157" lon="7.34053608619805"><ele>361.0</ele><time>2026-04-18T14:41:04Z</time></trkpt><trkpt lat="45.10489954978112" lon="7.340902945518755"><ele>364.5</ele><time>2026-04-18T14:41:05Z</time></trkpt><trkpt lat="45.1048913105371" lon="7.341257935998064"><ele>368.0</ele><time>2026-04-18T14:41:06Z</time></trkpt><trkpt lat="45.1048723926418" lon="7.341589454409012"><ele>368.0</ele><time>2026-04-18T14:41:07Z</time></trkpt><trkpt lat="45.10485260664509" lon="7.341901311162749"><ele>368.0</ele><time>2026-04-18T14:41:08Z</time></trkpt><trkpt lat="45.10482846464651" lon="7.342186407761451"><ele>368.0</ele><time>2026-04-18T14:41:09Z</time></trkpt><trkpt lat="45.10481229446448" lon="7.342467697045959"><ele>366.33333333333337</ele><time>2026-04-18T14:41:10Z</time></trkpt><trkpt lat="45.10479196058687" lon="7.342712492185078"><ele>364.6666666666667</ele><time>2026-04-18T14:41:11Z</time></trkpt><trkpt lat="45.10477896236519" lon="7.342928365661384"><ele>363.0</ele><time>2026-04-18T14:41:12Z</time></trkpt><trkpt lat="45.10476083856318" lon="7.343125516897525"><ele>362.3333333333333</ele><time>2026-04-18T14:41:13Z</time></trkpt><trkpt lat="45.104723716594876" lon="7.343333930209714"><ele>361.66666666666663</ele><time>2026-04-18T14:41:14Z</time></trkpt><trkpt lat="45.10473267796268" lon="7.343547247672157"><ele>361.0</ele><time>2026-04-18T14:41:15Z</time></trkpt><trkpt lat="45.10472129216738" lon="7.343796473547227"><ele>361.0</ele><time>2026-04-18T14:41:16Z</time></trkpt><trkpt lat="45.104704278356635" lon="7.344072653048063"><ele>361.0</ele><time>2026-04-18T14:41:17Z</time></trkpt><trkpt lat="45.104691342941706" lon="7.344386552538623"><ele>361.0</ele><time>2026-04-18T14:41:18Z</time></trkpt><trkpt lat="45.10464871401452" lon="7.344744248891642"><ele>361.5</ele><time>2026-04-18T14:41:19Z</time></trkpt><trkpt lat="45.10464492547224" lon="7.345125517349838"><ele>362.0</ele><time>2026-04-18T14:41:20Z</time></trkpt><trkpt lat="45.104648457005524" lon="7.345515535712404"><ele>361.5</ele><time>2026-04-18T14:41:21Z</time></trkpt><trkpt lat="45.10462678358399" lon="7.34587521724698"><ele>361.0</ele><time>2026-04-18T14:41:22Z</time></trkpt><trkpt lat="45.104618125329246" lon="7.346224578426722"><ele>362.0</ele><time>2026-04-18T14:41:23Z</time></trkpt><trkpt lat="45.10459773996469" lon="7.346566092921614"><ele>363.0</ele><time>2026-04-18T14:41:24Z</time></trkpt><trkpt lat="45.10457174993744" lon="7.346875373655948"><ele>363.0</ele><time>2026-04-18T14:41:25Z</time></trkpt><trkpt lat="45.10455323302384" lon="7.347162657373516"><ele>363.0</ele><time>2026-04-18T14:41:26Z</time></trkpt><trkpt lat="45.10453886855517" lon="7.347445395792664"><ele>363.0</ele><time>2026-04-18T14:41:27Z</time></trkpt><trkpt lat="45.10451644437559" lon="7.347709407345706"><ele>362.6666666666667</ele><time>2026-04-18T14:41:28Z</time></trkpt><trkpt lat="45.10449722537602" lon="7.347979746339483"><ele>362.33333333333337</ele><time>2026-04-18T14:41:29Z</time></trkpt><trkpt lat="45.104484743723106" lon="7.3482559366788855"><ele>362.0</ele><time>2026-04-18T14:41:30Z</time></trkpt><trkpt lat="45.10446832753177" lon="7.348518352072831"><ele>362.0</ele><time>2026-04-18T14:41:31Z</time></trkpt><trkpt lat="45.10446491603305" lon="7.3487764501294945"><ele>362.0</ele><time>2026-04-18T14:41:32Z</time></trkpt><trkpt lat="45.10444989497196" lon="7.349015463624929"><ele>362.0</ele><time>2026-04-18T14:41:33Z</time></trkpt><trkpt lat="45.10443745975756" lon="7.349221790842744"><ele>362.0</ele><time>2026-04-18T14:41:34Z</time></trkpt><trkpt lat="45.10441647326974" lon="7.349389214781228"><ele>362.0</ele><time>2026-04-18T14:41:35Z</time></trkpt><trkpt lat="45.10436246312414" lon="7.34951021711103"><ele>362.0</ele><time>2026-04-18T14:41:36Z</time></trkpt><trkpt lat="45.104322587552254" lon="7.349609718905614"><ele>362.0</ele><time>2026-04-18T14:41:37Z</time></trkpt><trkpt lat="45.104249895310055" lon="7.349703452139483"><ele>362.0</ele><time>2026-04-18T14:41:38Z</time></trkpt><trkpt lat="45.10417290147524" lon="7.349785009238467"><ele>362.0</ele><time>2026-04-18T14:41:39Z</time></trkpt><trkpt lat="45.10414360488233" lon="7.349897997869316"><ele>362.0</ele><time>2026-04-18T14:41:40Z</time></trkpt><trkpt lat="45.104148255042325" lon="7.350015889136987"><ele>362.0</ele><time>2026-04-18T14:41:41Z</time></trkpt><trkpt lat="45.10416273760503" lon="7.3501622957390875"><ele>362.0</ele><time>2026-04-18T14:41:42Z</time></trkpt><trkpt lat="45.10415639478397" lon="7.3503479085124415"><ele>362.0</ele><time>2026-04-18T14:41:43Z</time></trkpt><trkpt lat="45.104116406069274" lon="7.350548690500746"><ele>361.0</ele><time>2026-04-18T14:41:44Z</time></trkpt><trkpt lat="45.104034892376674" lon="7.350794584706134"><ele>360.0</ele><time>2026-04-18T14:41:45Z</time></trkpt><trkpt lat="45.10394214725697" lon="7.351100268061131"><ele>359.0</ele><time>2026-04-18T14:41:46Z</time></trkpt><trkpt lat="45.10386934035347" lon="7.351407697240041"><ele>358.5</ele><time>2026-04-18T14:41:47Z</time></trkpt><trkpt lat="45.10377348470952" lon="7.351727473996325"><ele>358.0</ele><time>2026-04-18T14:41:48Z</time></trkpt><trkpt lat="45.10369894878505" lon="7.35200277250103"><ele>358.0</ele><time>2026-04-18T14:41:49Z</time></trkpt><trkpt lat="45.10362919862313" lon="7.352263535375669"><ele>358.0</ele><time>2026-04-18T14:41:50Z</time></trkpt><trkpt lat="45.10355855082512" lon="7.35249662146087"><ele>358.0</ele><time>2026-04-18T14:41:51Z</time></trkpt><trkpt lat="45.10349296596773" lon="7.352714125804567"><ele>358.0</ele><time>2026-04-18T14:41:52Z</time></trkpt><trkpt lat="45.10341397892938" lon="7.352902300445791"><ele>358.0</ele><time>2026-04-18T14:41:53Z</time></trkpt><trkpt lat="45.10336543073029" lon="7.353115670610915"><ele>358.0</ele><time>2026-04-18T14:41:54Z</time></trkpt><trkpt lat="45.103302007270464" lon="7.3533181384052435"><ele>358.0</ele><time>2026-04-18T14:41:55Z</time></trkpt><trkpt lat="45.10325203351635" lon="7.35353679464638"><ele>358.0</ele><time>2026-04-18T14:41:56Z</time></trkpt><trkpt lat="45.10319832056032" lon="7.353761497745617"><ele>358.0</ele><time>2026-04-18T14:41:57Z</time></trkpt><trkpt lat="45.103125635163856" lon="7.353975980887317"><ele>358.0</ele><time>2026-04-18T14:41:58Z</time></trkpt><trkpt lat="45.103059346086226" lon="7.354220468998127"><ele>358.0</ele><time>2026-04-18T14:41:59Z</time></trkpt><trkpt lat="45.102998871862724" lon="7.354458457451427"><ele>358.0</ele><time>2026-04-18T14:42:00Z</time></trkpt><trkpt lat="45.10292721035517" lon="7.354675638421929"><ele>358.0</ele><time>2026-04-18T14:42:01Z</time></trkpt><trkpt lat="45.102861189429724" lon="7.354902106369276"><ele>358.0</ele><time>2026-04-18T14:42:02Z</time></trkpt><trkpt lat="45.102804032409956" lon="7.355123990855742"><ele>358.0</ele><time>2026-04-18T14:42:03Z</time></trkpt><trkpt lat="45.10273208411935" lon="7.35533922653398"><ele>358.3333333333333</ele><time>2026-04-18T14:42:04Z</time></trkpt><trkpt lat="45.10266667332121" lon="7.355556108039882"><ele>358.6666666666667</ele><time>2026-04-18T14:42:05Z</time></trkpt><trkpt lat="45.10260732652655" lon="7.355768180663378"><ele>359.0</ele><time>2026-04-18T14:42:06Z</time></trkpt><trkpt lat="45.10254525969573" lon="7.3559904402327865"><ele>359.0</ele><time>2026-04-18T14:42:07Z</time></trkpt><trkpt lat="45.102473662307375" lon="7.356228281942874"><ele>359.0</ele><time>2026-04-18T14:42:08Z</time></trkpt><trkpt lat="45.102407966769356" lon="7.3564732439981615"><ele>359.0</ele><time>2026-04-18T14:42:09Z</time></trkpt><trkpt lat="45.102343809504276" lon="7.35670133407697"><ele>358.6666666666667</ele><time>2026-04-18T14:42:10Z</time></trkpt><trkpt lat="45.10228920766247" lon="7.356918437317443"><ele>358.3333333333333</ele><time>2026-04-18T14:42:11Z</time></trkpt><trkpt lat="45.102232059096224" lon="7.3571381000506975"><ele>358.0</ele><time>2026-04-18T14:42:12Z</time></trkpt><trkpt lat="45.10216314288972" lon="7.3573324447848245"><ele>357.66666666666663</ele><time>2026-04-18T14:42:13Z</time></trkpt><trkpt lat="45.102090822423605" lon="7.357522148950512"><ele>357.3333333333333</ele><time>2026-04-18T14:42:14Z</time></trkpt><trkpt lat="45.10203934942368" lon="7.357738215757681"><ele>357.0</ele><time>2026-04-18T14:42:15Z</time></trkpt><trkpt lat="45.101972816277744" lon="7.357948112894983"><ele>357.0</ele><time>2026-04-18T14:42:16Z</time></trkpt><trkpt lat="45.10190875733311" lon="7.358170471933592"><ele>357.0</ele><time>2026-04-18T14:42:17Z</time></trkpt><trkpt lat="45.10184305652352" lon="7.358388126657477"><ele>357.0</ele><time>2026-04-18T14:42:18Z</time></trkpt><trkpt lat="45.10176685227223" lon="7.358595299264918"><ele>357.0</ele><time>2026-04-18T14:42:19Z</time></trkpt><trkpt lat="45.10168436679535" lon="7.358780074652427"><ele>357.0</ele><time>2026-04-18T14:42:20Z</time></trkpt><trkpt lat="45.10158578198409" lon="7.358961764342773"><ele>357.0</ele><time>2026-04-18T14:42:21Z</time></trkpt><trkpt lat="45.101457748414546" lon="7.359116629974754"><ele>357.3333333333333</ele><time>2026-04-18T14:42:22Z</time></trkpt><trkpt lat="45.10132853450701" lon="7.359290333591036"><ele>357.66666666666663</ele><time>2026-04-18T14:42:23Z</time></trkpt><trkpt lat="45.10120798649966" lon="7.3594568517497"><ele>358.0</ele><time>2026-04-18T14:42:24Z</time></trkpt><trkpt lat="45.1010977276981" lon="7.359630307803154"><ele>358.0</ele><time>2026-04-18T14:42:25Z</time></trkpt><trkpt lat="45.10099092906407" lon="7.359784590478933"><ele>358.0</ele><time>2026-04-18T14:42:26.001Z</time></trkpt><trkpt lat="45.10088447191992" lon="7.359939905301154"><ele>358.0</ele><time>2026-04-18T14:42:27.001Z</time></trkpt><trkpt lat="45.1007870858676" lon="7.360083724349067"><ele>358.0</ele><time>2026-04-18T14:42:28.001Z</time></trkpt><trkpt lat="45.100704369970195" lon="7.360211025969731"><ele>358.0</ele><time>2026-04-18T14:42:29.001Z</time></trkpt><trkpt lat="45.100633182567684" lon="7.360329443902341"><ele>358.0</ele><time>2026-04-18T14:42:30.001Z</time></trkpt><trkpt lat="45.10056668279325" lon="7.360474236897829"><ele>358.0</ele><time>2026-04-18T14:42:31.001Z</time></trkpt><trkpt lat="45.10049318577451" lon="7.360612817139895"><ele>358.0</ele><time>2026-04-18T14:42:32.001Z</time></trkpt><trkpt lat="45.10043012945803" lon="7.360772125337396"><ele>357.5</ele><time>2026-04-18T14:42:33.001Z</time></trkpt><trkpt lat="45.100379481175985" lon="7.360949307541106"><ele>357.0</ele><time>2026-04-18T14:42:34.001Z</time></trkpt><trkpt lat="45.10033891028187" lon="7.3611259730106715"><ele>356.5</ele><time>2026-04-18T14:42:35.001Z</time></trkpt><trkpt lat="45.100272519309165" lon="7.361299223604606"><ele>356.0</ele><time>2026-04-18T14:42:36.001Z</time></trkpt><trkpt lat="45.10022054515893" lon="7.36147244842119"><ele>356.0</ele><time>2026-04-18T14:42:37.001Z</time></trkpt><trkpt lat="45.100140805727804" lon="7.361630596092686"><ele>356.0</ele><time>2026-04-18T14:42:38.001Z</time></trkpt><trkpt lat="45.100083834841755" lon="7.3618208689425275"><ele>356.0</ele><time>2026-04-18T14:42:39.001Z</time></trkpt><trkpt lat="45.100027062277505" lon="7.362008176673462"><ele>356.0</ele><time>2026-04-18T14:42:40.001Z</time></trkpt><trkpt lat="45.09996666262017" lon="7.362217129753167"><ele>355.6666666666667</ele><time>2026-04-18T14:42:41.001Z</time></trkpt><trkpt lat="45.099899170574936" lon="7.3624172475312575"><ele>355.3333333333333</ele><time>2026-04-18T14:42:42.001Z</time></trkpt><trkpt lat="45.09983922131697" lon="7.362631154702598"><ele>355.0</ele><time>2026-04-18T14:42:43.001Z</time></trkpt><trkpt lat="45.09977534741485" lon="7.3628471509237015"><ele>354.66666666666663</ele><time>2026-04-18T14:42:44.001Z</time></trkpt><trkpt lat="45.09970704094689" lon="7.363065820092558"><ele>354.3333333333333</ele><time>2026-04-18T14:42:45.001Z</time></trkpt><trkpt lat="45.0996414021455" lon="7.36329736924982"><ele>354.0</ele><time>2026-04-18T14:42:46.001Z</time></trkpt><trkpt lat="45.09956966091357" lon="7.363522792337333"><ele>354.0</ele><time>2026-04-18T14:42:47.001Z</time></trkpt><trkpt lat="45.09950072721077" lon="7.363755852260447"><ele>354.0</ele><time>2026-04-18T14:42:48.001Z</time></trkpt><trkpt lat="45.09943784941219" lon="7.363981730386001"><ele>354.0</ele><time>2026-04-18T14:42:49.001Z</time></trkpt><trkpt lat="45.09936882736431" lon="7.364201993435167"><ele>354.3333333333333</ele><time>2026-04-18T14:42:50.001Z</time></trkpt><trkpt lat="45.09930021005989" lon="7.3644174705693475"><ele>354.66666666666663</ele><time>2026-04-18T14:42:51.001Z</time></trkpt><trkpt lat="45.09922509663013" lon="7.364633941669518"><ele>355.0</ele><time>2026-04-18T14:42:52.001Z</time></trkpt><trkpt lat="45.09914948420342" lon="7.3648331142767915"><ele>354.3333333333333</ele><time>2026-04-18T14:42:53.001Z</time></trkpt><trkpt lat="45.09905768564506" lon="7.365028385295366"><ele>353.6666666666667</ele><time>2026-04-18T14:42:54.001Z</time></trkpt><trkpt lat="45.09892664231345" lon="7.365226877423494"><ele>353.0</ele><time>2026-04-18T14:42:55.001Z</time></trkpt><trkpt lat="45.09878580090656" lon="7.365413761217951"><ele>353.0</ele><time>2026-04-18T14:42:56.001Z</time></trkpt><trkpt lat="45.09860325456672" lon="7.36556629720389"><ele>353.0</ele><time>2026-04-18T14:42:57.001Z</time></trkpt><trkpt lat="45.09841771248963" lon="7.365725889149231"><ele>353.0</ele><time>2026-04-18T14:42:58Z</time></trkpt><trkpt lat="45.0982332013593" lon="7.365903172771048"><ele>353.0</ele><time>2026-04-18T14:42:59Z</time></trkpt><trkpt lat="45.09803984087011" lon="7.36605175672336"><ele>353.0</ele><time>2026-04-18T14:43:00Z</time></trkpt><trkpt lat="45.09787850918489" lon="7.366190245161472"><ele>353.0</ele><time>2026-04-18T14:43:01Z</time></trkpt><trkpt lat="45.097716417688524" lon="7.366316307519246"><ele>353.0</ele><time>2026-04-18T14:43:02Z</time></trkpt><trkpt lat="45.09755159450014" lon="7.366447423787456"><ele>353.0</ele><time>2026-04-18T14:43:03Z</time></trkpt><trkpt lat="45.097408778801196" lon="7.36658256656128"><ele>353.0</ele><time>2026-04-18T14:43:04Z</time></trkpt><trkpt lat="45.097257709818415" lon="7.366700422090212"><ele>353.33333333333337</ele><time>2026-04-18T14:43:05Z</time></trkpt><trkpt lat="45.09712177688513" lon="7.3668254621870055"><ele>353.6666666666667</ele><time>2026-04-18T14:43:06Z</time></trkpt><trkpt lat="45.09697593712785" lon="7.366924935180702"><ele>354.0</ele><time>2026-04-18T14:43:07Z</time></trkpt><trkpt lat="45.096836924242716" lon="7.367040041630917"><ele>354.0</ele><time>2026-04-18T14:43:08Z</time></trkpt><trkpt lat="45.09670409892086" lon="7.367150582870476"><ele>354.0</ele><time>2026-04-18T14:43:09Z</time></trkpt><trkpt lat="45.09660208639273" lon="7.367236986372487"><ele>354.0</ele><time>2026-04-18T14:43:10Z</time></trkpt><trkpt lat="45.09649396322194" lon="7.367355055892066"><ele>354.0</ele><time>2026-04-18T14:43:11Z</time></trkpt><trkpt lat="45.096378863119085" lon="7.3674119323641065"><ele>354.0</ele><time>2026-04-18T14:43:12Z</time></trkpt><trkpt lat="45.096278416351055" lon="7.367503681834446"><ele>354.0</ele><time>2026-04-18T14:43:13Z</time></trkpt><trkpt lat="45.09616836565521" lon="7.367611724826051"><ele>354.0</ele><time>2026-04-18T14:43:14Z</time></trkpt><trkpt lat="45.096063667634446" lon="7.367730411951294"><ele>354.0</ele><time>2026-04-18T14:43:15Z</time></trkpt><trkpt lat="45.09596548502144" lon="7.367861031777302"><ele>354.0</ele><time>2026-04-18T14:43:16Z</time></trkpt><trkpt lat="45.095875212404465" lon="7.367996281441072"><ele>354.0</ele><time>2026-04-18T14:43:17Z</time></trkpt><trkpt lat="45.09577540618667" lon="7.368138683719105"><ele>354.0</ele><time>2026-04-18T14:43:18Z</time></trkpt><trkpt lat="45.09568423250072" lon="7.368312770102527"><ele>354.0</ele><time>2026-04-18T14:43:19Z</time></trkpt><trkpt lat="45.095596559321756" lon="7.368510733812758"><ele>354.0</ele><time>2026-04-18T14:43:20Z</time></trkpt><trkpt lat="45.095517828909" lon="7.368707375940717"><ele>354.0</ele><time>2026-04-18T14:43:21Z</time></trkpt><trkpt lat="45.09546904273415" lon="7.368914883138398"><ele>354.0</ele><time>2026-04-18T14:43:22Z</time></trkpt><trkpt lat="45.095417077452744" lon="7.3691011243353515"><ele>354.0</ele><time>2026-04-18T14:43:23Z</time></trkpt><trkpt lat="45.095367194471756" lon="7.3692927133859545"><ele>354.0</ele><time>2026-04-18T14:43:24Z</time></trkpt><trkpt lat="45.09530821652045" lon="7.369484861914118"><ele>354.0</ele><time>2026-04-18T14:43:25Z</time></trkpt><trkpt lat="45.09522323280977" lon="7.369666483346712"><ele>354.0</ele><time>2026-04-18T14:43:26Z</time></trkpt><trkpt lat="45.09515820306241" lon="7.3698809388418995"><ele>354.0</ele><time>2026-04-18T14:43:27Z</time></trkpt><trkpt lat="45.09508779543247" lon="7.370108458161312"><ele>354.0</ele><time>2026-04-18T14:43:28Z</time></trkpt><trkpt lat="45.09502502270898" lon="7.370359351610858"><ele>354.0</ele><time>2026-04-18T14:43:29Z</time></trkpt><trkpt lat="45.09495812554004" lon="7.370587620882269"><ele>353.3333333333333</ele><time>2026-04-18T14:43:30Z</time></trkpt><trkpt lat="45.094904291975475" lon="7.370796558219344"><ele>352.66666666666663</ele><time>2026-04-18T14:43:31Z</time></trkpt><trkpt lat="45.09483677370782" lon="7.370990584313966"><ele>352.0</ele><time>2026-04-18T14:43:32Z</time></trkpt><trkpt lat="45.09478459169916" lon="7.371200369593897"><ele>352.0</ele><time>2026-04-18T14:43:33Z</time></trkpt><trkpt lat="45.09472992409422" lon="7.371393622582665"><ele>352.0</ele><time>2026-04-18T14:43:34Z</time></trkpt><trkpt lat="45.09468796128978" lon="7.371589284063067"><ele>352.0</ele><time>2026-04-18T14:43:35Z</time></trkpt><trkpt lat="45.094624094887386" lon="7.371770127470119"><ele>352.0</ele><time>2026-04-18T14:43:36Z</time></trkpt><trkpt lat="45.094565831413846" lon="7.37195701249971"><ele>352.0</ele><time>2026-04-18T14:43:37Z</time></trkpt><trkpt lat="45.09450713366999" lon="7.372139115572259"><ele>352.0</ele><time>2026-04-18T14:43:38Z</time></trkpt><trkpt lat="45.094453976320146" lon="7.372318502241458"><ele>352.0</ele><time>2026-04-18T14:43:39Z</time></trkpt><trkpt lat="45.09440091984091" lon="7.372511501219291"><ele>352.0</ele><time>2026-04-18T14:43:40Z</time></trkpt><trkpt lat="45.094353435519615" lon="7.37269297050621"><ele>352.0</ele><time>2026-04-18T14:43:41Z</time></trkpt><trkpt lat="45.09429211655352" lon="7.372884473441053"><ele>352.0</ele><time>2026-04-18T14:43:42Z</time></trkpt><trkpt lat="45.09423593072251" lon="7.373053322160118"><ele>352.0</ele><time>2026-04-18T14:43:43Z</time></trkpt><trkpt lat="45.09417815583837" lon="7.373243176339919"><ele>352.0</ele><time>2026-04-18T14:43:44Z</time></trkpt><trkpt lat="45.0941332160329" lon="7.373446273926158"><ele>351.3333333333333</ele><time>2026-04-18T14:43:45Z</time></trkpt><trkpt lat="45.09406762586872" lon="7.373650705048152"><ele>350.6666666666667</ele><time>2026-04-18T14:43:46Z</time></trkpt><trkpt lat="45.094017015718464" lon="7.373864933836644"><ele>350.0</ele><time>2026-04-18T14:43:47Z</time></trkpt><trkpt lat="45.0939396569974" lon="7.37407273009449"><ele>350.0</ele><time>2026-04-18T14:43:48Z</time></trkpt><trkpt lat="45.09385134994481" lon="7.37427135321867"><ele>350.0</ele><time>2026-04-18T14:43:49Z</time></trkpt><trkpt lat="45.093786886647436" lon="7.3744960797680275"><ele>350.0</ele><time>2026-04-18T14:43:50Z</time></trkpt><trkpt lat="45.093725911419995" lon="7.374708035288788"><ele>350.33333333333337</ele><time>2026-04-18T14:43:51Z</time></trkpt><trkpt lat="45.0936628883077" lon="7.3749145472620885"><ele>350.6666666666667</ele><time>2026-04-18T14:43:52Z</time></trkpt><trkpt lat="45.09360855530653" lon="7.375107978175398"><ele>351.0</ele><time>2026-04-18T14:43:53Z</time></trkpt><trkpt lat="45.093552536635606" lon="7.375315287084376"><ele>351.0</ele><time>2026-04-18T14:43:54Z</time></trkpt><trkpt lat="45.09347975559389" lon="7.375506596001489"><ele>351.0</ele><time>2026-04-18T14:43:55Z</time></trkpt><trkpt lat="45.09341815585028" lon="7.375703340259301"><ele>351.0</ele><time>2026-04-18T14:43:56Z</time></trkpt><trkpt lat="45.09335975647431" lon="7.375890978331108"><ele>351.0</ele><time>2026-04-18T14:43:57Z</time></trkpt><trkpt lat="45.09330502803323" lon="7.376100122396458"><ele>351.0</ele><time>2026-04-18T14:43:58Z</time></trkpt><trkpt lat="45.093262166076585" lon="7.3763053897948065"><ele>351.0</ele><time>2026-04-18T14:43:59Z</time></trkpt><trkpt lat="45.09320478472661" lon="7.3764938403464635"><ele>351.0</ele><time>2026-04-18T14:44:00Z</time></trkpt><trkpt lat="45.09314672512464" lon="7.376671335212473"><ele>351.0</ele><time>2026-04-18T14:44:01Z</time></trkpt><trkpt lat="45.09308769325224" lon="7.376836113264025"><ele>351.0</ele><time>2026-04-18T14:44:02Z</time></trkpt><trkpt lat="45.09304557538863" lon="7.377008566664279"><ele>351.0</ele><time>2026-04-18T14:44:03Z</time></trkpt><trkpt lat="45.09300182072638" lon="7.377158857228587"><ele>350.75</ele><time>2026-04-18T14:44:04Z</time></trkpt><trkpt lat="45.09295132141469" lon="7.3773076425846495"><ele>350.5</ele><time>2026-04-18T14:44:05Z</time></trkpt><trkpt lat="45.09289956005022" lon="7.377461748211175"><ele>350.25</ele><time>2026-04-18T14:44:06Z</time></trkpt><trkpt lat="45.09286613620974" lon="7.377637021895007"><ele>350.0</ele><time>2026-04-18T14:44:07Z</time></trkpt><trkpt lat="45.092824511052214" lon="7.377805418177371"><ele>350.0</ele><time>2026-04-18T14:44:08Z</time></trkpt><trkpt lat="45.092775837468054" lon="7.377968601525056"><ele>350.0</ele><time>2026-04-18T14:44:09Z</time></trkpt><trkpt lat="45.09272528515075" lon="7.378129781796421"><ele>350.0</ele><time>2026-04-18T14:44:10Z</time></trkpt><trkpt lat="45.092678136841734" lon="7.378287837340867"><ele>350.0</ele><time>2026-04-18T14:44:11Z</time></trkpt><trkpt lat="45.0926364825033" lon="7.378449019595501"><ele>350.25</ele><time>2026-04-18T14:44:12Z</time></trkpt><trkpt lat="45.09259012290313" lon="7.378603407561107"><ele>350.5</ele><time>2026-04-18T14:44:13Z</time></trkpt><trkpt lat="45.09253251082788" lon="7.378772455890655"><ele>350.75</ele><time>2026-04-18T14:44:14Z</time></trkpt><trkpt lat="45.092482059306946" lon="7.378932230484458"><ele>351.0</ele><time>2026-04-18T14:44:15Z</time></trkpt><trkpt lat="45.09243428118702" lon="7.37908252729235"><ele>350.4</ele><time>2026-04-18T14:44:16Z</time></trkpt><trkpt lat="45.09239688622942" lon="7.379230765981894"><ele>349.8</ele><time>2026-04-18T14:44:17Z</time></trkpt><trkpt lat="45.09234977327033" lon="7.379366057141354"><ele>349.2</ele><time>2026-04-18T14:44:18Z</time></trkpt><trkpt lat="45.09231014445254" lon="7.379490159779576"><ele>348.59999999999997</ele><time>2026-04-18T14:44:19Z</time></trkpt><trkpt lat="45.092274374969804" lon="7.379600506880027"><ele>348.0</ele><time>2026-04-18T14:44:20Z</time></trkpt><trkpt lat="45.09223509649935" lon="7.379724926529926"><ele>348.0</ele><time>2026-04-18T14:44:21Z</time></trkpt><trkpt lat="45.09219619340741" lon="7.379836082627808"><ele>348.0</ele><time>2026-04-18T14:44:22Z</time></trkpt><trkpt lat="45.09216380441914" lon="7.379961813378418"><ele>348.0</ele><time>2026-04-18T14:44:23.001Z</time></trkpt><trkpt lat="45.09213182720087" lon="7.380076174758375"><ele>348.0</ele><time>2026-04-18T14:44:24.001Z</time></trkpt><trkpt lat="45.092097290849864" lon="7.380180137020915"><ele>348.0</ele><time>2026-04-18T14:44:25.001Z</time></trkpt><trkpt lat="45.092067518453405" lon="7.380279599640055"><ele>348.0</ele><time>2026-04-18T14:44:26.001Z</time></trkpt><trkpt lat="45.09204491581899" lon="7.380365333651098"><ele>348.0</ele><time>2026-04-18T14:44:27.001Z</time></trkpt><trkpt lat="45.09202226996091" lon="7.380453266482607"><ele>348.0</ele><time>2026-04-18T14:44:28.001Z</time></trkpt><trkpt lat="45.091994656064635" lon="7.380538573710814"><ele>348.0</ele><time>2026-04-18T14:44:29.001Z</time></trkpt><trkpt lat="45.09197920774106" lon="7.380642429724041"><ele>348.0</ele><time>2026-04-18T14:44:30.001Z</time></trkpt><trkpt lat="45.09193377485428" lon="7.380781490143662"><ele>348.0</ele><time>2026-04-18T14:44:32.001Z</time></trkpt><trkpt lat="45.0919053546501" lon="7.3808749097991635"><ele>348.0</ele><time>2026-04-18T14:44:34.001Z</time></trkpt><trkpt lat="45.09187232696203" lon="7.380997890380015"><ele>348.25</ele><time>2026-04-18T14:44:38.001Z</time></trkpt><trkpt lat="45.09184459864489" lon="7.381100400530685"><ele>348.5</ele><time>2026-04-18T14:44:39.001Z</time></trkpt><trkpt lat="45.0917855459465" lon="7.3812481882105025"><ele>348.75</ele><time>2026-04-18T14:44:40.001Z</time></trkpt><trkpt lat="45.09170776407145" lon="7.3814309885368745"><ele>349.0</ele><time>2026-04-18T14:44:41.001Z</time></trkpt><trkpt lat="45.09162372416803" lon="7.381663081492244"><ele>347.5</ele><time>2026-04-18T14:44:42.001Z</time></trkpt><trkpt lat="45.09153726821148" lon="7.381943110481858"><ele>346.0</ele><time>2026-04-18T14:44:43.001Z</time></trkpt><trkpt lat="45.091451341217706" lon="7.382253421353676"><ele>346.0</ele><time>2026-04-18T14:44:44.001Z</time></trkpt><trkpt lat="45.09136527737269" lon="7.382558523247375"><ele>346.0</ele><time>2026-04-18T14:44:45.001Z</time></trkpt><trkpt lat="45.09128573099775" lon="7.382889618133666"><ele>345.66666666666663</ele><time>2026-04-18T14:44:46.001Z</time></trkpt><trkpt lat="45.09120600818079" lon="7.383176448367296"><ele>345.3333333333333</ele><time>2026-04-18T14:44:47.001Z</time></trkpt><trkpt lat="45.09112469806479" lon="7.383436977156547"><ele>345.0</ele><time>2026-04-18T14:44:48.001Z</time></trkpt><trkpt lat="45.09105835993918" lon="7.383670660089967"><ele>344.6666666666667</ele><time>2026-04-18T14:44:49.001Z</time></trkpt><trkpt lat="45.09097358343924" lon="7.383885207627591"><ele>344.33333333333337</ele><time>2026-04-18T14:44:50.001Z</time></trkpt><trkpt lat="45.09091863565583" lon="7.384119195284622"><ele>344.0</ele><time>2026-04-18T14:44:51.001Z</time></trkpt><trkpt lat="45.09086657338368" lon="7.384334373606492"><ele>344.0</ele><time>2026-04-18T14:44:52.001Z</time></trkpt><trkpt lat="45.09086501672384" lon="7.384569079873633"><ele>344.0</ele><time>2026-04-18T14:44:53.001Z</time></trkpt><trkpt lat="45.09086642194647" lon="7.384806961114684"><ele>344.0</ele><time>2026-04-18T14:44:54.001Z</time></trkpt><trkpt lat="45.09090719578493" lon="7.385044840363611"><ele>344.33333333333337</ele><time>2026-04-18T14:44:55.001Z</time></trkpt><trkpt lat="45.09096641977047" lon="7.38529322148556"><ele>344.6666666666667</ele><time>2026-04-18T14:44:56.001Z</time></trkpt><trkpt lat="45.09102321101475" lon="7.385539640061448"><ele>345.0</ele><time>2026-04-18T14:44:57.001Z</time></trkpt><trkpt lat="45.09106640607576" lon="7.3857872723973905"><ele>345.6666666666667</ele><time>2026-04-18T14:44:58.001Z</time></trkpt><trkpt lat="45.09109485290476" lon="7.386024261764703"><ele>346.33333333333337</ele><time>2026-04-18T14:44:59.001Z</time></trkpt><trkpt lat="45.09106636414558" lon="7.386262006211567"><ele>347.0</ele><time>2026-04-18T14:45:00.001Z</time></trkpt><trkpt lat="45.09100657810122" lon="7.386488972631829"><ele>347.33333333333337</ele><time>2026-04-18T14:45:01.001Z</time></trkpt><trkpt lat="45.090931031900105" lon="7.386710283356575"><ele>347.6666666666667</ele><time>2026-04-18T14:45:02.001Z</time></trkpt><trkpt lat="45.09084476902304" lon="7.386955076001748"><ele>348.0</ele><time>2026-04-18T14:45:03.001Z</time></trkpt><trkpt lat="45.09074838041233" lon="7.387225768919369"><ele>347.0</ele><time>2026-04-18T14:45:04Z</time></trkpt><trkpt lat="45.090634772555205" lon="7.387519627879225"><ele>346.0</ele><time>2026-04-18T14:45:05Z</time></trkpt><trkpt lat="45.09050564890667" lon="7.387827924547278"><ele>346.0</ele><time>2026-04-18T14:45:06Z</time></trkpt><trkpt lat="45.09035957207417" lon="7.388181765621079"><ele>346.0</ele><time>2026-04-18T14:45:07Z</time></trkpt><trkpt lat="45.09021132667118" lon="7.3885394315151585"><ele>345.5</ele><time>2026-04-18T14:45:08Z</time></trkpt><trkpt lat="45.09008188237274" lon="7.388887039342699"><ele>345.0</ele><time>2026-04-18T14:45:09Z</time></trkpt><trkpt lat="45.08994455452248" lon="7.389228256481708"><ele>345.0</ele><time>2026-04-18T14:45:10Z</time></trkpt><trkpt lat="45.08981228811698" lon="7.3895538342688285"><ele>345.0</ele><time>2026-04-18T14:45:11Z</time></trkpt><trkpt lat="45.089688210072275" lon="7.389863534044439"><ele>345.0</ele><time>2026-04-18T14:45:12Z</time></trkpt><trkpt lat="45.089552578778" lon="7.39017121598939"><ele>345.0</ele><time>2026-04-18T14:45:13Z</time></trkpt><trkpt lat="45.089413261966904" lon="7.39046961529301"><ele>346.0</ele><time>2026-04-18T14:45:14Z</time></trkpt><trkpt lat="45.0893023250487" lon="7.390779621653488"><ele>347.0</ele><time>2026-04-18T14:45:15Z</time></trkpt><trkpt lat="45.08918933465607" lon="7.391057115015627"><ele>347.0</ele><time>2026-04-18T14:45:16Z</time></trkpt><trkpt lat="45.08907366368839" lon="7.39132679896653"><ele>347.0</ele><time>2026-04-18T14:45:17Z</time></trkpt><trkpt lat="45.08896522760307" lon="7.391555898010466"><ele>347.0</ele><time>2026-04-18T14:45:18Z</time></trkpt><trkpt lat="45.08888340270964" lon="7.391791811824218"><ele>346.5</ele><time>2026-04-18T14:45:19Z</time></trkpt><trkpt lat="45.088785037723774" lon="7.392003479089024"><ele>346.0</ele><time>2026-04-18T14:45:20Z</time></trkpt><trkpt lat="45.088690520357915" lon="7.392151762853386"><ele>345.5</ele><time>2026-04-18T14:45:21Z</time></trkpt><trkpt lat="45.08865077951182" lon="7.3923110687868085"><ele>345.0</ele><time>2026-04-18T14:45:22Z</time></trkpt><trkpt lat="45.08858926104361" lon="7.392467563435645"><ele>345.0</ele><time>2026-04-18T14:45:23Z</time></trkpt><trkpt lat="45.08853847474039" lon="7.392615919527845"><ele>345.0</ele><time>2026-04-18T14:45:24Z</time></trkpt><trkpt lat="45.08849989721121" lon="7.392734286696323"><ele>345.0</ele><time>2026-04-18T14:45:25Z</time></trkpt><trkpt lat="45.088470624196766" lon="7.392832296783275"><ele>345.0</ele><time>2026-04-18T14:45:26Z</time></trkpt><trkpt lat="45.088432133725995" lon="7.392969599704403"><ele>345.0</ele><time>2026-04-18T14:45:27Z</time></trkpt><trkpt lat="45.08840188983841" lon="7.3931001696718335"><ele>344.8</ele><time>2026-04-18T14:45:28Z</time></trkpt><trkpt lat="45.08844303915054" lon="7.393191843167525"><ele>344.6</ele><time>2026-04-18T14:45:29Z</time></trkpt><trkpt lat="45.08848741669374" lon="7.393313784418077"><ele>344.4</ele><time>2026-04-18T14:45:30Z</time></trkpt><trkpt lat="45.088528834688496" lon="7.393442569370004"><ele>344.2</ele><time>2026-04-18T14:45:31Z</time></trkpt><trkpt lat="45.088621404373185" lon="7.393553121450136"><ele>344.0</ele><time>2026-04-18T14:45:32Z</time></trkpt><trkpt lat="45.088681849840896" lon="7.393759707380667"><ele>344.33333333333337</ele><time>2026-04-18T14:45:33Z</time></trkpt><trkpt lat="45.088687142742494" lon="7.393959440577648"><ele>344.6666666666667</ele><time>2026-04-18T14:45:34Z</time></trkpt><trkpt lat="45.08868487597086" lon="7.394215975759904"><ele>345.0</ele><time>2026-04-18T14:45:35Z</time></trkpt><trkpt lat="45.08867647246359" lon="7.394532185784026"><ele>345.0</ele><time>2026-04-18T14:45:36Z</time></trkpt><trkpt lat="45.088669127688746" lon="7.394887885360584"><ele>345.0</ele><time>2026-04-18T14:45:37Z</time></trkpt><trkpt lat="45.08867371002501" lon="7.395274554409579"><ele>344.0</ele><time>2026-04-18T14:45:38Z</time></trkpt><trkpt lat="45.08864623956158" lon="7.395725053252994"><ele>343.0</ele><time>2026-04-18T14:45:39Z</time></trkpt><trkpt lat="45.08863392193909" lon="7.396171195331024"><ele>343.0</ele><time>2026-04-18T14:45:40Z</time></trkpt><trkpt lat="45.08863644767748" lon="7.396645958414895"><ele>343.0</ele><time>2026-04-18T14:45:41Z</time></trkpt><trkpt lat="45.08861827912445" lon="7.397082229048169"><ele>344.0</ele><time>2026-04-18T14:45:42Z</time></trkpt><trkpt lat="45.088607697314764" lon="7.397476035199065"><ele>345.0</ele><time>2026-04-18T14:45:43Z</time></trkpt><trkpt lat="45.088594410106424" lon="7.397867592758513"><ele>345.0</ele><time>2026-04-18T14:45:44Z</time></trkpt><trkpt lat="45.088581811004" lon="7.398242821827354"><ele>345.0</ele><time>2026-04-18T14:45:45Z</time></trkpt><trkpt lat="45.08856491501963" lon="7.398591133011651"><ele>344.5</ele><time>2026-04-18T14:45:46Z</time></trkpt><trkpt lat="45.08856031512174" lon="7.398922918785251"><ele>344.0</ele><time>2026-04-18T14:45:47Z</time></trkpt><trkpt lat="45.088545016016276" lon="7.399255934664395"><ele>344.0</ele><time>2026-04-18T14:45:48Z</time></trkpt><trkpt lat="45.088506848056895" lon="7.399558276122477"><ele>344.0</ele><time>2026-04-18T14:45:49Z</time></trkpt><trkpt lat="45.08847133375902" lon="7.399844134579553"><ele>344.0</ele><time>2026-04-18T14:45:50Z</time></trkpt><trkpt lat="45.08842903573814" lon="7.400127008467712"><ele>344.0</ele><time>2026-04-18T14:45:51Z</time></trkpt><trkpt lat="45.08837534288133" lon="7.400378688741082"><ele>344.0</ele><time>2026-04-18T14:45:52Z</time></trkpt><trkpt lat="45.08829909291288" lon="7.400627471633158"><ele>344.0</ele><time>2026-04-18T14:45:53Z</time></trkpt><trkpt lat="45.08821946137088" lon="7.400869133063926"><ele>343.6666666666667</ele><time>2026-04-18T14:45:54Z</time></trkpt><trkpt lat="45.088153969083294" lon="7.401095733205136"><ele>343.3333333333333</ele><time>2026-04-18T14:45:55Z</time></trkpt><trkpt lat="45.088100394115216" lon="7.401296660647672"><ele>343.0</ele><time>2026-04-18T14:45:56Z</time></trkpt><trkpt lat="45.08804744980398" lon="7.401467890047379"><ele>342.8333333333333</ele><time>2026-04-18T14:45:57Z</time></trkpt><trkpt lat="45.08799532765158" lon="7.401605214368441"><ele>342.66666666666663</ele><time>2026-04-18T14:45:58Z</time></trkpt><trkpt lat="45.087959473336284" lon="7.40172804716067"><ele>342.5</ele><time>2026-04-18T14:45:59Z</time></trkpt><trkpt lat="45.0879160221841" lon="7.40182447307804"><ele>342.3333333333333</ele><time>2026-04-18T14:46:00Z</time></trkpt><trkpt lat="45.087873776925335" lon="7.401898306696026"><ele>342.1666666666667</ele><time>2026-04-18T14:46:01Z</time></trkpt><trkpt lat="45.087805743100844" lon="7.401978046884108"><ele>342.0</ele><time>2026-04-18T14:46:03Z</time></trkpt><trkpt lat="45.08773722319792" lon="7.402073111437418"><ele>341.75</ele><time>2026-04-18T14:46:05Z</time></trkpt><trkpt lat="45.08773442473124" lon="7.402221130560513"><ele>341.5</ele><time>2026-04-18T14:46:06Z</time></trkpt><trkpt lat="45.08770735372698" lon="7.402368627600693"><ele>341.25</ele><time>2026-04-18T14:46:07Z</time></trkpt><trkpt lat="45.08768268169926" lon="7.402522735407521"><ele>341.0</ele><time>2026-04-18T14:46:08Z</time></trkpt><trkpt lat="45.08762522453086" lon="7.402688183312236"><ele>341.0</ele><time>2026-04-18T14:46:09Z</time></trkpt><trkpt lat="45.087558651663684" lon="7.402884138899742"><ele>341.0</ele><time>2026-04-18T14:46:10Z</time></trkpt><trkpt lat="45.08748248886265" lon="7.4030820940553435"><ele>341.0</ele><time>2026-04-18T14:46:11Z</time></trkpt><trkpt lat="45.08742026670438" lon="7.4032704260778965"><ele>341.0</ele><time>2026-04-18T14:46:12Z</time></trkpt><trkpt lat="45.08735884349425" lon="7.403467135640837"><ele>341.0</ele><time>2026-04-18T14:46:13Z</time></trkpt><trkpt lat="45.08729135987657" lon="7.403628264531099"><ele>341.0</ele><time>2026-04-18T14:46:14Z</time></trkpt><trkpt lat="45.087238653217014" lon="7.403787622560147"><ele>341.0</ele><time>2026-04-18T14:46:15.001Z</time></trkpt><trkpt lat="45.087182469942384" lon="7.403920703734823"><ele>341.0</ele><time>2026-04-18T14:46:16.001Z</time></trkpt><trkpt lat="45.08712806452372" lon="7.404059534229094"><ele>341.0</ele><time>2026-04-18T14:46:17.001Z</time></trkpt><trkpt lat="45.087083102771096" lon="7.404206705136395"><ele>341.0</ele><time>2026-04-18T14:46:18.001Z</time></trkpt><trkpt lat="45.087027466646404" lon="7.404338221701099"><ele>341.0</ele><time>2026-04-18T14:46:19.001Z</time></trkpt><trkpt lat="45.0869846250414" lon="7.40449163502567"><ele>341.0</ele><time>2026-04-18T14:46:20.001Z</time></trkpt><trkpt lat="45.08692759969807" lon="7.404630455233778"><ele>341.0</ele><time>2026-04-18T14:46:21.001Z</time></trkpt><trkpt lat="45.08687507113012" lon="7.404772588699119"><ele>341.0</ele><time>2026-04-18T14:46:22.001Z</time></trkpt><trkpt lat="45.086827583914484" lon="7.404922249121456"><ele>341.0</ele><time>2026-04-18T14:46:23.001Z</time></trkpt><trkpt lat="45.08676535379853" lon="7.405065848628063"><ele>341.0</ele><time>2026-04-18T14:46:24.001Z</time></trkpt><trkpt lat="45.08672661944346" lon="7.4052399357023235"><ele>341.0</ele><time>2026-04-18T14:46:25.001Z</time></trkpt><trkpt lat="45.086663742544275" lon="7.405401805802123"><ele>341.0</ele><time>2026-04-18T14:46:26.001Z</time></trkpt><trkpt lat="45.08660619507694" lon="7.405572202881024"><ele>341.0</ele><time>2026-04-18T14:46:27.001Z</time></trkpt><trkpt lat="45.0865383124052" lon="7.405735267247328"><ele>341.0</ele><time>2026-04-18T14:46:28.001Z</time></trkpt><trkpt lat="45.0864807678683" lon="7.4059050915644375"><ele>341.0</ele><time>2026-04-18T14:46:29.001Z</time></trkpt><trkpt lat="45.08641898551859" lon="7.406072203547978"><ele>341.0</ele><time>2026-04-18T14:46:30.001Z</time></trkpt><trkpt lat="45.08637399180885" lon="7.406228740003214"><ele>341.0</ele><time>2026-04-18T14:46:31.001Z</time></trkpt><trkpt lat="45.08634006251794" lon="7.406399286757153"><ele>341.0</ele><time>2026-04-18T14:46:32.001Z</time></trkpt><trkpt lat="45.086295555038085" lon="7.406540350906165"><ele>341.0</ele><time>2026-04-18T14:46:33.001Z</time></trkpt><trkpt lat="45.08625519665771" lon="7.406670905218721"><ele>341.0</ele><time>2026-04-18T14:46:34.001Z</time></trkpt><trkpt lat="45.08622891975376" lon="7.4067973674341445"><ele>341.0</ele><time>2026-04-18T14:46:35.001Z</time></trkpt><trkpt lat="45.086206078104546" lon="7.406903822542072"><ele>341.0</ele><time>2026-04-18T14:46:36.001Z</time></trkpt><trkpt lat="45.08619419512464" lon="7.407002856424109"><ele>341.0</ele><time>2026-04-18T14:46:37.001Z</time></trkpt><trkpt lat="45.086184845113216" lon="7.407099736815399"><ele>341.0</ele><time>2026-04-18T14:46:38.001Z</time></trkpt><trkpt lat="45.08616544882414" lon="7.4071988918874565"><ele>341.0</ele><time>2026-04-18T14:46:41.001Z</time></trkpt><trkpt lat="45.08615190003367" lon="7.407290613418007"><ele>341.0</ele><time>2026-04-18T14:46:45.001Z</time></trkpt><trkpt lat="45.08611661062582" lon="7.407369634555118"><ele>341.0</ele><time>2026-04-18T14:46:49.001Z</time></trkpt><trkpt lat="45.086080852853605" lon="7.407464411988778"><ele>341.0</ele><time>2026-04-18T14:46:51.001Z</time></trkpt><trkpt lat="45.08600038037438" lon="7.407528379907796"><ele>341.0</ele><time>2026-04-18T14:46:52.001Z</time></trkpt><trkpt lat="45.085921699096936" lon="7.407589062127318"><ele>341.0</ele><time>2026-04-18T14:46:53.001Z</time></trkpt><trkpt lat="45.08585928444579" lon="7.407659793740273"><ele>341.0</ele><time>2026-04-18T14:46:54.001Z</time></trkpt><trkpt lat="45.0858308585183" lon="7.407743490405537"><ele>341.0</ele><time>2026-04-18T14:46:55.001Z</time></trkpt><trkpt lat="45.085838918055124" lon="7.407892956184573"><ele>341.0</ele><time>2026-04-18T14:46:56.001Z</time></trkpt><trkpt lat="45.08585621556896" lon="7.407985738106032"><ele>341.0</ele><time>2026-04-18T14:46:57.001Z</time></trkpt><trkpt lat="45.08588308151533" lon="7.408082906075798"><ele>341.0</ele><time>2026-04-18T14:46:58.001Z</time></trkpt><trkpt lat="45.085918683058374" lon="7.40819606798805"><ele>341.0</ele><time>2026-04-18T14:46:59.001Z</time></trkpt><trkpt lat="45.08593102253892" lon="7.408326297911785"><ele>341.0</ele><time>2026-04-18T14:47:00.001Z</time></trkpt><trkpt lat="45.08591154015364" lon="7.408470516447686"><ele>341.0</ele><time>2026-04-18T14:47:01.001Z</time></trkpt><trkpt lat="45.08587835119823" lon="7.408663887146504"><ele>341.0</ele><time>2026-04-18T14:47:02.001Z</time></trkpt><trkpt lat="45.08583853732181" lon="7.408871396987562"><ele>340.33333333333337</ele><time>2026-04-18T14:47:03.001Z</time></trkpt><trkpt lat="45.085782179697176" lon="7.4091063136222095"><ele>339.6666666666667</ele><time>2026-04-18T14:47:04.001Z</time></trkpt><trkpt lat="45.085725635132114" lon="7.409366213921135"><ele>339.0</ele><time>2026-04-18T14:47:05.001Z</time></trkpt><trkpt lat="45.08565760926593" lon="7.409619522761444"><ele>338.6666666666667</ele><time>2026-04-18T14:47:06.001Z</time></trkpt><trkpt lat="45.08559394277158" lon="7.409831529855976"><ele>338.33333333333337</ele><time>2026-04-18T14:47:07.001Z</time></trkpt><trkpt lat="45.08553892015539" lon="7.410044464111774"><ele>338.0</ele><time>2026-04-18T14:47:08.001Z</time></trkpt><trkpt lat="45.08547826898247" lon="7.410241300466776"><ele>338.0</ele><time>2026-04-18T14:47:09.001Z</time></trkpt><trkpt lat="45.08541960463923" lon="7.410424037048784"><ele>338.0</ele><time>2026-04-18T14:47:10Z</time></trkpt><trkpt lat="45.08537028855363" lon="7.410611404636275"><ele>338.0</ele><time>2026-04-18T14:47:11Z</time></trkpt><trkpt lat="45.08531641233929" lon="7.410769262811176"><ele>338.0</ele><time>2026-04-18T14:47:12Z</time></trkpt><trkpt lat="45.0852773040593" lon="7.410918938246962"><ele>338.2</ele><time>2026-04-18T14:47:13Z</time></trkpt><trkpt lat="45.085237581163746" lon="7.411064440928714"><ele>338.4</ele><time>2026-04-18T14:47:14Z</time></trkpt><trkpt lat="45.08519873470299" lon="7.411192904749304"><ele>338.59999999999997</ele><time>2026-04-18T14:47:15Z</time></trkpt><trkpt lat="45.0851571283475" lon="7.411293072742291"><ele>338.79999999999995</ele><time>2026-04-18T14:47:16Z</time></trkpt><trkpt lat="45.08510258894596" lon="7.411420430917917"><ele>339.0</ele><time>2026-04-18T14:47:18Z</time></trkpt><trkpt lat="45.08506468779366" lon="7.4115070046285485"><ele>339.0</ele><time>2026-04-18T14:47:20Z</time></trkpt><trkpt lat="45.08501627067793" lon="7.411620563938308"><ele>339.0</ele><time>2026-04-18T14:47:22Z</time></trkpt><trkpt lat="45.08494919284399" lon="7.411717128662553"><ele>339.0</ele><time>2026-04-18T14:47:24Z</time></trkpt><trkpt lat="45.084835917559005" lon="7.411789346512068"><ele>339.0</ele><time>2026-04-18T14:47:26Z</time></trkpt><trkpt lat="45.08475399363334" lon="7.411822066644674"><ele>339.0</ele><time>2026-04-18T14:47:27Z</time></trkpt><trkpt lat="45.08467113773132" lon="7.411870975885652"><ele>339.0</ele><time>2026-04-18T14:47:28Z</time></trkpt><trkpt lat="45.084586425461985" lon="7.4119327405278685"><ele>339.0</ele><time>2026-04-18T14:47:29Z</time></trkpt><trkpt lat="45.08451395930624" lon="7.412029980027652"><ele>339.0</ele><time>2026-04-18T14:47:30Z</time></trkpt><trkpt lat="45.084467901592475" lon="7.412154602596774"><ele>339.0</ele><time>2026-04-18T14:47:31Z</time></trkpt><trkpt lat="45.084446537110146" lon="7.412293019461486"><ele>339.0</ele><time>2026-04-18T14:47:32Z</time></trkpt><trkpt lat="45.08444586505317" lon="7.412430978350827"><ele>339.0</ele><time>2026-04-18T14:47:33Z</time></trkpt><trkpt lat="45.084446762997025" lon="7.412558327481179"><ele>339.0</ele><time>2026-04-18T14:47:34Z</time></trkpt><trkpt lat="45.08447328094454" lon="7.412705158360675"><ele>339.0</ele><time>2026-04-18T14:47:35Z</time></trkpt><trkpt lat="45.08451716614347" lon="7.412876858804366"><ele>339.0</ele><time>2026-04-18T14:47:36Z</time></trkpt><trkpt lat="45.08453632733008" lon="7.413027785736729"><ele>339.0</ele><time>2026-04-18T14:47:37Z</time></trkpt><trkpt lat="45.08451614174759" lon="7.41317935503799"><ele>339.6666666666667</ele><time>2026-04-18T14:47:38Z</time></trkpt><trkpt lat="45.08452419858498" lon="7.413349470498819"><ele>340.33333333333337</ele><time>2026-04-18T14:47:39Z</time></trkpt><trkpt lat="45.084396395610554" lon="7.413532911450361"><ele>341.0</ele><time>2026-04-18T14:47:40Z</time></trkpt><trkpt lat="45.084321916303814" lon="7.413729675224609"><ele>341.33333333333337</ele><time>2026-04-18T14:47:41Z</time></trkpt><trkpt lat="45.08424690272116" lon="7.413942297142901"><ele>341.6666666666667</ele><time>2026-04-18T14:47:42Z</time></trkpt><trkpt lat="45.08417593525985" lon="7.41417517047338"><ele>342.0</ele><time>2026-04-18T14:47:43Z</time></trkpt><trkpt lat="45.084083861199666" lon="7.414416242845132"><ele>341.3333333333333</ele><time>2026-04-18T14:47:44Z</time></trkpt><trkpt lat="45.083991396531154" lon="7.414656223497437"><ele>340.66666666666663</ele><time>2026-04-18T14:47:45Z</time></trkpt><trkpt lat="45.0838882678636" lon="7.4149148123815865"><ele>340.0</ele><time>2026-04-18T14:47:46Z</time></trkpt><trkpt lat="45.08378813598613" lon="7.4151680432676885"><ele>340.0</ele><time>2026-04-18T14:47:47Z</time></trkpt><trkpt lat="45.0836904336901" lon="7.415423187100987"><ele>340.0</ele><time>2026-04-18T14:47:48Z</time></trkpt><trkpt lat="45.08360489168979" lon="7.415679362447311"><ele>340.0</ele><time>2026-04-18T14:47:49Z</time></trkpt><trkpt lat="45.083520024115245" lon="7.415928361199957"><ele>340.0</ele><time>2026-04-18T14:47:50Z</time></trkpt><trkpt lat="45.08344522576221" lon="7.416166478256072"><ele>340.0</ele><time>2026-04-18T14:47:51Z</time></trkpt><trkpt lat="45.08335580977915" lon="7.416407624347616"><ele>340.0</ele><time>2026-04-18T14:47:52Z</time></trkpt><trkpt lat="45.08326787333292" lon="7.416654698870073"><ele>340.0</ele><time>2026-04-18T14:47:53Z</time></trkpt><trkpt lat="45.083189152652764" lon="7.416904483060452"><ele>340.0</ele><time>2026-04-18T14:47:54Z</time></trkpt><trkpt lat="45.083130391679674" lon="7.417154556227317"><ele>340.0</ele><time>2026-04-18T14:47:55Z</time></trkpt><trkpt lat="45.08308178804708" lon="7.417401405225687"><ele>340.3333333333333</ele><time>2026-04-18T14:47:56Z</time></trkpt><trkpt lat="45.083051050830505" lon="7.417640635853912"><ele>340.6666666666667</ele><time>2026-04-18T14:47:57Z</time></trkpt><trkpt lat="45.08303511351095" lon="7.417866490822592"><ele>341.0</ele><time>2026-04-18T14:47:58Z</time></trkpt><trkpt lat="45.08301935679746" lon="7.418080653593938"><ele>341.0</ele><time>2026-04-18T14:47:59Z</time></trkpt><trkpt lat="45.08301683380645" lon="7.418282526873678"><ele>341.0</ele><time>2026-04-18T14:48:00Z</time></trkpt><trkpt lat="45.083022854572626" lon="7.418464617530061"><ele>341.0</ele><time>2026-04-18T14:48:01Z</time></trkpt><trkpt lat="45.083026019456085" lon="7.418628158678229"><ele>341.0</ele><time>2026-04-18T14:48:02Z</time></trkpt><trkpt lat="45.083020500856904" lon="7.4187759725842"><ele>341.0</ele><time>2026-04-18T14:48:03Z</time></trkpt><trkpt lat="45.08299281032136" lon="7.418910402169794"><ele>341.0</ele><time>2026-04-18T14:48:04Z</time></trkpt><trkpt lat="45.08292992428218" lon="7.419025097518447"><ele>341.0</ele><time>2026-04-18T14:48:05Z</time></trkpt><trkpt lat="45.08286982841354" lon="7.419154540550084"><ele>341.0</ele><time>2026-04-18T14:48:06Z</time></trkpt><trkpt lat="45.08280632153309" lon="7.4192962216140215"><ele>341.0</ele><time>2026-04-18T14:48:07Z</time></trkpt><trkpt lat="45.08278860650467" lon="7.419439662544444"><ele>341.0</ele><time>2026-04-18T14:48:08Z</time></trkpt><trkpt lat="45.082810340809175" lon="7.419586711554746"><ele>341.0</ele><time>2026-04-18T14:48:09Z</time></trkpt><trkpt lat="45.0828612772885" lon="7.419713000602488"><ele>341.0</ele><time>2026-04-18T14:48:10Z</time></trkpt><trkpt lat="45.08291012666222" lon="7.4198168925547145"><ele>341.0</ele><time>2026-04-18T14:48:11Z</time></trkpt><trkpt lat="45.083002755372085" lon="7.419914978098095"><ele>341.0</ele><time>2026-04-18T14:48:12Z</time></trkpt><trkpt lat="45.0830524426555" lon="7.420048402569037"><ele>340.25</ele><time>2026-04-18T14:48:13Z</time></trkpt><trkpt lat="45.08310047804464" lon="7.420211351547626"><ele>339.5</ele><time>2026-04-18T14:48:14Z</time></trkpt><trkpt lat="45.08309601153219" lon="7.420428136436943"><ele>338.75</ele><time>2026-04-18T14:48:15Z</time></trkpt><trkpt lat="45.08310267619856" lon="7.420656383369227"><ele>338.0</ele><time>2026-04-18T14:48:16Z</time></trkpt><trkpt lat="45.083110965142644" lon="7.420956552985994"><ele>338.0</ele><time>2026-04-18T14:48:17Z</time></trkpt><trkpt lat="45.083120864874196" lon="7.421315054599383"><ele>338.0</ele><time>2026-04-18T14:48:18Z</time></trkpt><trkpt lat="45.08312977676282" lon="7.421637782707142"><ele>338.0</ele><time>2026-04-18T14:48:19Z</time></trkpt><trkpt lat="45.083139898623045" lon="7.422004327956529"><ele>338.0</ele><time>2026-04-18T14:48:20Z</time></trkpt><trkpt lat="45.083149729533694" lon="7.422355754573164"><ele>338.5</ele><time>2026-04-18T14:48:21Z</time></trkpt><trkpt lat="45.08317270565572" lon="7.422687974662225"><ele>339.0</ele><time>2026-04-18T14:48:22Z</time></trkpt><trkpt lat="45.0831784873591" lon="7.423000167925815"><ele>339.3333333333333</ele><time>2026-04-18T14:48:23Z</time></trkpt><trkpt lat="45.08318333618777" lon="7.423306300006841"><ele>339.66666666666663</ele><time>2026-04-18T14:48:24Z</time></trkpt><trkpt lat="45.083186801360625" lon="7.423591076004036"><ele>340.0</ele><time>2026-04-18T14:48:25Z</time></trkpt><trkpt lat="45.0831881562496" lon="7.423861312208391"><ele>340.0</ele><time>2026-04-18T14:48:26.001Z</time></trkpt><trkpt lat="45.08319205276169" lon="7.424084697835724"><ele>340.0</ele><time>2026-04-18T14:48:27.001Z</time></trkpt><trkpt lat="45.083187511173456" lon="7.42432574200869"><ele>340.0</ele><time>2026-04-18T14:48:28.001Z</time></trkpt><trkpt lat="45.08318675045562" lon="7.424557588958261"><ele>340.25</ele><time>2026-04-18T14:48:29.001Z</time></trkpt><trkpt lat="45.083194750401304" lon="7.424750346223532"><ele>340.5</ele><time>2026-04-18T14:48:30.001Z</time></trkpt><trkpt lat="45.08319378523743" lon="7.424945257078226"><ele>340.75</ele><time>2026-04-18T14:48:31.001Z</time></trkpt><trkpt lat="45.08319943966443" lon="7.425146076429124"><ele>341.0</ele><time>2026-04-18T14:48:32.001Z</time></trkpt><trkpt lat="45.08320052917795" lon="7.425347817183382"><ele>341.25</ele><time>2026-04-18T14:48:33.001Z</time></trkpt><trkpt lat="45.08319990188614" lon="7.425547277924918"><ele>341.5</ele><time>2026-04-18T14:48:34.001Z</time></trkpt><trkpt lat="45.08320692534705" lon="7.425743796557737"><ele>341.75</ele><time>2026-04-18T14:48:35.001Z</time></trkpt><trkpt lat="45.083205000119555" lon="7.42593928383944"><ele>342.0</ele><time>2026-04-18T14:48:36.001Z</time></trkpt><trkpt lat="45.08322287260891" lon="7.426111508653857"><ele>342.0</ele><time>2026-04-18T14:48:37.001Z</time></trkpt><trkpt lat="45.08322961001143" lon="7.426295647161618"><ele>342.0</ele><time>2026-04-18T14:48:38.001Z</time></trkpt><trkpt lat="45.08323928742031" lon="7.426471350349103"><ele>342.0</ele><time>2026-04-18T14:48:39.001Z</time></trkpt><trkpt lat="45.08323920187877" lon="7.426635190763801"><ele>342.0</ele><time>2026-04-18T14:48:40.001Z</time></trkpt><trkpt lat="45.08323018049059" lon="7.4267781536526245"><ele>341.8333333333333</ele><time>2026-04-18T14:48:41.001Z</time></trkpt><trkpt lat="45.08323155689607" lon="7.42690903942479"><ele>341.6666666666667</ele><time>2026-04-18T14:48:42.001Z</time></trkpt><trkpt lat="45.08324029510691" lon="7.42702032397499"><ele>341.5</ele><time>2026-04-18T14:48:43.001Z</time></trkpt><trkpt lat="45.083274707883014" lon="7.427130351626096"><ele>341.33333333333337</ele><time>2026-04-18T14:48:47.001Z</time></trkpt><trkpt lat="45.083284856336924" lon="7.427254201057873"><ele>341.1666666666667</ele><time>2026-04-18T14:48:49.001Z</time></trkpt><trkpt lat="45.083296178527206" lon="7.42735182743503"><ele>341.0</ele><time>2026-04-18T14:48:50.001Z</time></trkpt><trkpt lat="45.08328965412948" lon="7.42746795657803"><ele>340.75</ele><time>2026-04-18T14:48:51.001Z</time></trkpt><trkpt lat="45.08329356196977" lon="7.427612341880115"><ele>340.5</ele><time>2026-04-18T14:48:52.001Z</time></trkpt><trkpt lat="45.08329901667801" lon="7.427813282531043"><ele>340.25</ele><time>2026-04-18T14:48:53.001Z</time></trkpt><trkpt lat="45.08330470364501" lon="7.428022779291621"><ele>340.0</ele><time>2026-04-18T14:48:54.001Z</time></trkpt><trkpt lat="45.083309560084885" lon="7.428201680846107"><ele>339.75</ele><time>2026-04-18T14:48:55.001Z</time></trkpt><trkpt lat="45.08333075316581" lon="7.428376540052327"><ele>339.5</ele><time>2026-04-18T14:48:56.001Z</time></trkpt><trkpt lat="45.08331656271029" lon="7.428554074210898"><ele>339.25</ele><time>2026-04-18T14:48:57.001Z</time></trkpt><trkpt lat="45.08332389268874" lon="7.428730365348805"><ele>339.0</ele><time>2026-04-18T14:48:58.001Z</time></trkpt><trkpt lat="45.083327610316246" lon="7.428892490936819"><ele>339.0</ele><time>2026-04-18T14:48:59.001Z</time></trkpt><trkpt lat="45.083332999831605" lon="7.429054374102182"><ele>339.0</ele><time>2026-04-18T14:49:00.001Z</time></trkpt><trkpt lat="45.08333705502821" lon="7.429225520661347"><ele>339.0</ele><time>2026-04-18T14:49:01.001Z</time></trkpt><trkpt lat="45.08334339453853" lon="7.429408787990467"><ele>339.0</ele><time>2026-04-18T14:49:02.001Z</time></trkpt><trkpt lat="45.08333885677861" lon="7.429578969241372"><ele>339.0</ele><time>2026-04-18T14:49:03.001Z</time></trkpt><trkpt lat="45.08334333636742" lon="7.42974100217523"><ele>339.0</ele><time>2026-04-18T14:49:04.001Z</time></trkpt><trkpt lat="45.08334088289866" lon="7.42989782385486"><ele>339.0</ele><time>2026-04-18T14:49:05.001Z</time></trkpt><trkpt lat="45.08333897607623" lon="7.4300553623966294"><ele>339.0</ele><time>2026-04-18T14:49:06.001Z</time></trkpt><trkpt lat="45.08333983833753" lon="7.430186670033451"><ele>339.0</ele><time>2026-04-18T14:49:07.001Z</time></trkpt><trkpt lat="45.08334831520301" lon="7.430314411518989"><ele>339.0</ele><time>2026-04-18T14:49:08.001Z</time></trkpt><trkpt lat="45.083359335878555" lon="7.430421441703369"><ele>339.0</ele><time>2026-04-18T14:49:09.001Z</time></trkpt><trkpt lat="45.08335919250089" lon="7.430510649979506"><ele>339.0</ele><time>2026-04-18T14:49:10.001Z</time></trkpt><trkpt lat="45.08336260992629" lon="7.430646598977642"><ele>339.0</ele><time>2026-04-18T14:49:12.001Z</time></trkpt><trkpt lat="45.08335498028548" lon="7.430766163004122"><ele>339.0</ele><time>2026-04-18T14:49:15.001Z</time></trkpt><trkpt lat="45.083341337856716" lon="7.430873694316331"><ele>339.0</ele><time>2026-04-18T14:49:17Z</time></trkpt><trkpt lat="45.0833361907925" lon="7.431001664599333"><ele>339.0</ele><time>2026-04-18T14:49:18Z</time></trkpt><trkpt lat="45.083354873706405" lon="7.431170572126501"><ele>339.0</ele><time>2026-04-18T14:49:19Z</time></trkpt><trkpt lat="45.08338035427146" lon="7.431368463160961"><ele>339.0</ele><time>2026-04-18T14:49:20Z</time></trkpt><trkpt lat="45.08338640928803" lon="7.431672635056649"><ele>339.0</ele><time>2026-04-18T14:49:21Z</time></trkpt><trkpt lat="45.08338970438854" lon="7.431955303413564"><ele>339.0</ele><time>2026-04-18T14:49:22Z</time></trkpt><trkpt lat="45.0833955749621" lon="7.432209953819171"><ele>339.0</ele><time>2026-04-18T14:49:23Z</time></trkpt><trkpt lat="45.083396909528965" lon="7.432438577267289"><ele>339.0</ele><time>2026-04-18T14:49:24Z</time></trkpt><trkpt lat="45.08339232708052" lon="7.432642333260406"><ele>339.0</ele><time>2026-04-18T14:49:25Z</time></trkpt><trkpt lat="45.08338435396679" lon="7.432836151728616"><ele>339.0</ele><time>2026-04-18T14:49:26Z</time></trkpt><trkpt lat="45.083388516675264" lon="7.432985172765765"><ele>339.0</ele><time>2026-04-18T14:49:27Z</time></trkpt><trkpt lat="45.08340321504254" lon="7.433104203182243"><ele>339.0</ele><time>2026-04-18T14:49:28Z</time></trkpt><trkpt lat="45.08340642847167" lon="7.433251583582569"><ele>339.0</ele><time>2026-04-18T14:49:29Z</time></trkpt><trkpt lat="45.083415198123014" lon="7.433444928304477"><ele>339.0</ele><time>2026-04-18T14:49:30Z</time></trkpt><trkpt lat="45.08342085726691" lon="7.433682442902083"><ele>339.0</ele><time>2026-04-18T14:49:31Z</time></trkpt><trkpt lat="45.08345188188292" lon="7.433952171424985"><ele>339.0</ele><time>2026-04-18T14:49:32Z</time></trkpt><trkpt lat="45.08345003412746" lon="7.434246127529455"><ele>339.0</ele><time>2026-04-18T14:49:33Z</time></trkpt><trkpt lat="45.083454257972086" lon="7.434505439246013"><ele>339.0</ele><time>2026-04-18T14:49:34Z</time></trkpt><trkpt lat="45.08345623488782" lon="7.434782997830764"><ele>339.3333333333333</ele><time>2026-04-18T14:49:35Z</time></trkpt><trkpt lat="45.08347422750889" lon="7.43504735660503"><ele>339.66666666666663</ele><time>2026-04-18T14:49:36Z</time></trkpt><trkpt lat="45.08348220200061" lon="7.435329116732961"><ele>340.0</ele><time>2026-04-18T14:49:37Z</time></trkpt><trkpt lat="45.08349003571437" lon="7.435644198435419"><ele>338.0</ele><time>2026-04-18T14:49:38Z</time></trkpt><trkpt lat="45.083489166690406" lon="7.435963411417696"><ele>336.0</ele><time>2026-04-18T14:49:39Z</time></trkpt><trkpt lat="45.083491473103216" lon="7.4362945227618535"><ele>336.5</ele><time>2026-04-18T14:49:40Z</time></trkpt><trkpt lat="45.08350714839855" lon="7.436651912926056"><ele>337.0</ele><time>2026-04-18T14:49:41Z</time></trkpt><trkpt lat="45.08352042402149" lon="7.437032018461993"><ele>336.5</ele><time>2026-04-18T14:49:42Z</time></trkpt><trkpt lat="45.083522128133595" lon="7.437455601397311"><ele>336.0</ele><time>2026-04-18T14:49:43Z</time></trkpt><trkpt lat="45.08353180534322" lon="7.437903217890091"><ele>336.0</ele><time>2026-04-18T14:49:44Z</time></trkpt><trkpt lat="45.08355260712119" lon="7.438373902847963"><ele>336.0</ele><time>2026-04-18T14:49:45Z</time></trkpt><trkpt lat="45.08355772148441" lon="7.43887716091667"><ele>336.0</ele><time>2026-04-18T14:49:46Z</time></trkpt><trkpt lat="45.08356445636795" lon="7.439395590502359"><ele>336.0</ele><time>2026-04-18T14:49:47Z</time></trkpt><trkpt lat="45.08357604632861" lon="7.439925381036076"><ele>336.0</ele><time>2026-04-18T14:49:48Z</time></trkpt><trkpt lat="45.08358789096249" lon="7.440438076509832"><ele>336.0</ele><time>2026-04-18T14:49:49Z</time></trkpt><trkpt lat="45.08360486774712" lon="7.440913085612103"><ele>336.0</ele><time>2026-04-18T14:49:50Z</time></trkpt><trkpt lat="45.08361924984209" lon="7.441365622130062"><ele>336.0</ele><time>2026-04-18T14:49:51Z</time></trkpt><trkpt lat="45.08362295550194" lon="7.441821711681457"><ele>335.5</ele><time>2026-04-18T14:49:52Z</time></trkpt><trkpt lat="45.0836330244909" lon="7.442279439563901"><ele>335.0</ele><time>2026-04-18T14:49:53Z</time></trkpt><trkpt lat="45.08364323102925" lon="7.442735471574192"><ele>334.5</ele><time>2026-04-18T14:49:54Z</time></trkpt><trkpt lat="45.083656060130615" lon="7.443170290105442"><ele>334.0</ele><time>2026-04-18T14:49:55Z</time></trkpt><trkpt lat="45.0836662241749" lon="7.443588660249573"><ele>333.0</ele><time>2026-04-18T14:49:56Z</time></trkpt><trkpt lat="45.08366846968175" lon="7.443985354153951"><ele>332.0</ele><time>2026-04-18T14:49:57Z</time></trkpt><trkpt lat="45.083680469801074" lon="7.44436122456424"><ele>332.5</ele><time>2026-04-18T14:49:58Z</time></trkpt><trkpt lat="45.08368459384075" lon="7.444727479839657"><ele>333.0</ele><time>2026-04-18T14:49:59Z</time></trkpt><trkpt lat="45.08369995936036" lon="7.445076501514515"><ele>333.0</ele><time>2026-04-18T14:50:00Z</time></trkpt><trkpt lat="45.083709486606445" lon="7.4453919551737116"><ele>333.0</ele><time>2026-04-18T14:50:01Z</time></trkpt><trkpt lat="45.08372447931606" lon="7.445685168024491"><ele>333.0</ele><time>2026-04-18T14:50:02Z</time></trkpt><trkpt lat="45.08373490912355" lon="7.445969409552229"><ele>333.0</ele><time>2026-04-18T14:50:03Z</time></trkpt><trkpt lat="45.08376134635654" lon="7.446254919416669"><ele>333.0</ele><time>2026-04-18T14:50:04Z</time></trkpt><trkpt lat="45.08379999569439" lon="7.4465416686139685"><ele>333.0</ele><time>2026-04-18T14:50:05Z</time></trkpt><trkpt lat="45.083835083468735" lon="7.446838892453204"><ele>333.0</ele><time>2026-04-18T14:50:06Z</time></trkpt><trkpt lat="45.08386597119933" lon="7.44710661312103"><ele>333.0</ele><time>2026-04-18T14:50:07Z</time></trkpt><trkpt lat="45.083877876185525" lon="7.447361230800241"><ele>333.0</ele><time>2026-04-18T14:50:08Z</time></trkpt><trkpt lat="45.0838957297788" lon="7.447608947118521"><ele>333.25</ele><time>2026-04-18T14:50:09Z</time></trkpt><trkpt lat="45.08390325115989" lon="7.447840058160794"><ele>333.5</ele><time>2026-04-18T14:50:10Z</time></trkpt><trkpt lat="45.08391537608184" lon="7.448053008545946"><ele>333.75</ele><time>2026-04-18T14:50:11Z</time></trkpt><trkpt lat="45.08392827688215" lon="7.448213406037677"><ele>334.0</ele><time>2026-04-18T14:50:12Z</time></trkpt><trkpt lat="45.0839376995656" lon="7.448332843730191"><ele>334.4</ele><time>2026-04-18T14:50:13Z</time></trkpt><trkpt lat="45.08392930115008" lon="7.4484416634135595"><ele>334.79999999999995</ele><time>2026-04-18T14:50:14Z</time></trkpt><trkpt lat="45.083909421124794" lon="7.448537703816863"><ele>335.20000000000005</ele><time>2026-04-18T14:50:15Z</time></trkpt><trkpt lat="45.08389549552765" lon="7.448733031589348"><ele>335.6</ele><time>2026-04-18T14:50:17Z</time></trkpt><trkpt lat="45.08391434597133" lon="7.448855106190073"><ele>336.0</ele><time>2026-04-18T14:50:18Z</time></trkpt><trkpt lat="45.08395032067591" lon="7.4490240839525965"><ele>336.0</ele><time>2026-04-18T14:50:19Z</time></trkpt><trkpt lat="45.08399099136087" lon="7.449216340248217"><ele>336.0</ele><time>2026-04-18T14:50:20Z</time></trkpt><trkpt lat="45.08400418355998" lon="7.449444385193319"><ele>336.0</ele><time>2026-04-18T14:50:21Z</time></trkpt><trkpt lat="45.08400109569075" lon="7.449720574160915"><ele>335.5</ele><time>2026-04-18T14:50:22Z</time></trkpt><trkpt lat="45.083997574016664" lon="7.450038545131876"><ele>335.0</ele><time>2026-04-18T14:50:23Z</time></trkpt><trkpt lat="45.083974830964664" lon="7.450389124570221"><ele>334.5</ele><time>2026-04-18T14:50:24Z</time></trkpt><trkpt lat="45.083984490291854" lon="7.4507813818900175"><ele>334.0</ele><time>2026-04-18T14:50:25Z</time></trkpt><trkpt lat="45.0839909534032" lon="7.451210657756412"><ele>334.0</ele><time>2026-04-18T14:50:26Z</time></trkpt><trkpt lat="45.08398542804649" lon="7.451669266430551"><ele>334.0</ele><time>2026-04-18T14:50:27Z</time></trkpt><trkpt lat="45.083985907089804" lon="7.452149483721231"><ele>334.0</ele><time>2026-04-18T14:50:28Z</time></trkpt><trkpt lat="45.083996101444626" lon="7.452650306862814"><ele>334.0</ele><time>2026-04-18T14:50:29Z</time></trkpt><trkpt lat="45.08401016708491" lon="7.453160805348923"><ele>333.0</ele><time>2026-04-18T14:50:30Z</time></trkpt><trkpt lat="45.08402440097961" lon="7.453683682785853"><ele>332.0</ele><time>2026-04-18T14:50:31Z</time></trkpt><trkpt lat="45.08403830473062" lon="7.454200585315084"><ele>331.0</ele><time>2026-04-18T14:50:32Z</time></trkpt><trkpt lat="45.08404421318959" lon="7.454705539601295"><ele>330.0</ele><time>2026-04-18T14:50:33Z</time></trkpt><trkpt lat="45.084049417287204" lon="7.455188708788357"><ele>330.5</ele><time>2026-04-18T14:50:34Z</time></trkpt><trkpt lat="45.08406441796932" lon="7.45564221462851"><ele>331.0</ele><time>2026-04-18T14:50:35Z</time></trkpt><trkpt lat="45.08408550226019" lon="7.456087259800877"><ele>331.0</ele><time>2026-04-18T14:50:36Z</time></trkpt><trkpt lat="45.08411377813814" lon="7.456529952093728"><ele>331.0</ele><time>2026-04-18T14:50:37Z</time></trkpt><trkpt lat="45.08410811977431" lon="7.456959893081818"><ele>330.0</ele><time>2026-04-18T14:50:38Z</time></trkpt><trkpt lat="45.084114197714115" lon="7.457395534379869"><ele>329.0</ele><time>2026-04-18T14:50:39Z</time></trkpt><trkpt lat="45.08412530731717" lon="7.457814232608659"><ele>328.5</ele><time>2026-04-18T14:50:40Z</time></trkpt><trkpt lat="45.084129332455085" lon="7.4582252805549665"><ele>328.0</ele><time>2026-04-18T14:50:41Z</time></trkpt><trkpt lat="45.08413745643439" lon="7.4586131408124805"><ele>327.5</ele><time>2026-04-18T14:50:42Z</time></trkpt><trkpt lat="45.08414598564017" lon="7.458983919108843"><ele>327.0</ele><time>2026-04-18T14:50:43Z</time></trkpt><trkpt lat="45.08415461998638" lon="7.459332664805793"><ele>327.0</ele><time>2026-04-18T14:50:44Z</time></trkpt><trkpt lat="45.0841630004496" lon="7.459666399261182"><ele>327.0</ele><time>2026-04-18T14:50:45Z</time></trkpt><trkpt lat="45.084164704944115" lon="7.459972237472303"><ele>327.0</ele><time>2026-04-18T14:50:46.001Z</time></trkpt><trkpt lat="45.084167878151575" lon="7.460264587744102"><ele>327.0</ele><time>2026-04-18T14:50:47.001Z</time></trkpt><trkpt lat="45.08418461247345" lon="7.460553720941333"><ele>327.0</ele><time>2026-04-18T14:50:48.001Z</time></trkpt><trkpt lat="45.08418881284729" lon="7.460835040646526"><ele>327.0</ele><time>2026-04-18T14:50:49.001Z</time></trkpt><trkpt lat="45.08419317162459" lon="7.461095326016942"><ele>327.0</ele><time>2026-04-18T14:50:50.001Z</time></trkpt><trkpt lat="45.0841997589098" lon="7.46133823760107"><ele>327.0</ele><time>2026-04-18T14:50:51.001Z</time></trkpt><trkpt lat="45.084201458854785" lon="7.4615569485201805"><ele>327.25</ele><time>2026-04-18T14:50:52.001Z</time></trkpt><trkpt lat="45.08419738617149" lon="7.461748878721678"><ele>327.5</ele><time>2026-04-18T14:50:53.001Z</time></trkpt><trkpt lat="45.084209319348375" lon="7.4619207430251535"><ele>327.75</ele><time>2026-04-18T14:50:54.001Z</time></trkpt><trkpt lat="45.08420756552845" lon="7.462067959306204"><ele>328.0</ele><time>2026-04-18T14:50:55.001Z</time></trkpt><trkpt lat="45.084194236286145" lon="7.4622022048660455"><ele>328.2</ele><time>2026-04-18T14:50:56.001Z</time></trkpt><trkpt lat="45.08415607998156" lon="7.462319432018955"><ele>328.4</ele><time>2026-04-18T14:50:57.001Z</time></trkpt><trkpt lat="45.08412401015441" lon="7.46242083668119"><ele>328.59999999999997</ele><time>2026-04-18T14:50:58.001Z</time></trkpt><trkpt lat="45.084087771775984" lon="7.462557747598203"><ele>328.79999999999995</ele><time>2026-04-18T14:51:00.001Z</time></trkpt><trkpt lat="45.08408047050317" lon="7.462701203148007"><ele>329.0</ele><time>2026-04-18T14:51:02.001Z</time></trkpt><trkpt lat="45.08413767346115" lon="7.462889363481362"><ele>329.25</ele><time>2026-04-18T14:51:04.001Z</time></trkpt><trkpt lat="45.08418468414502" lon="7.463012219271765"><ele>329.5</ele><time>2026-04-18T14:51:05.001Z</time></trkpt><trkpt lat="45.084223671174506" lon="7.463164052055851"><ele>329.75</ele><time>2026-04-18T14:51:06.001Z</time></trkpt><trkpt lat="45.08427341936554" lon="7.4633499812751145"><ele>330.0</ele><time>2026-04-18T14:51:07.001Z</time></trkpt><trkpt lat="45.08430194029264" lon="7.4635611173201175"><ele>330.6666666666667</ele><time>2026-04-18T14:51:08.001Z</time></trkpt><trkpt lat="45.08429811249686" lon="7.4638184359405875"><ele>331.33333333333337</ele><time>2026-04-18T14:51:09.001Z</time></trkpt><trkpt lat="45.08430605918555" lon="7.464093619271729"><ele>332.0</ele><time>2026-04-18T14:51:10.001Z</time></trkpt><trkpt lat="45.08431822635515" lon="7.464378689180833"><ele>332.5</ele><time>2026-04-18T14:51:11.001Z</time></trkpt><trkpt lat="45.084329807457685" lon="7.46469089130375"><ele>333.0</ele><time>2026-04-18T14:51:12.001Z</time></trkpt><trkpt lat="45.0843463117301" lon="7.465036509691783"><ele>333.0</ele><time>2026-04-18T14:51:13.001Z</time></trkpt><trkpt lat="45.08433957229922" lon="7.465417028646216"><ele>333.0</ele><time>2026-04-18T14:51:14.001Z</time></trkpt><trkpt lat="45.08433728876397" lon="7.465796000338171"><ele>332.5</ele><time>2026-04-18T14:51:15.001Z</time></trkpt><trkpt lat="45.08434896019384" lon="7.466156523795389"><ele>332.0</ele><time>2026-04-18T14:51:16.001Z</time></trkpt><trkpt lat="45.08435983899872" lon="7.4665079547699005"><ele>332.0</ele><time>2026-04-18T14:51:17.001Z</time></trkpt><trkpt lat="45.08436613328087" lon="7.466852791941237"><ele>332.0</ele><time>2026-04-18T14:51:18.001Z</time></trkpt><trkpt lat="45.08437932949716" lon="7.46719762414743"><ele>332.0</ele><time>2026-04-18T14:51:19.001Z</time></trkpt><trkpt lat="45.084381353487" lon="7.467538391913958"><ele>332.0</ele><time>2026-04-18T14:51:20.001Z</time></trkpt><trkpt lat="45.08437965875423" lon="7.467882028973423"><ele>332.0</ele><time>2026-04-18T14:51:21.001Z</time></trkpt><trkpt lat="45.08439755454841" lon="7.468227387812332"><ele>332.0</ele><time>2026-04-18T14:51:22Z</time></trkpt><trkpt lat="45.08440776015443" lon="7.468563195458666"><ele>332.0</ele><time>2026-04-18T14:51:23Z</time></trkpt><trkpt lat="45.08440755783791" lon="7.468897738458698"><ele>332.0</ele><time>2026-04-18T14:51:24Z</time></trkpt><trkpt lat="45.08441905484456" lon="7.469228215692365"><ele>332.0</ele><time>2026-04-18T14:51:25Z</time></trkpt><trkpt lat="45.084429516170296" lon="7.469563374882784"><ele>332.0</ele><time>2026-04-18T14:51:26Z</time></trkpt><trkpt lat="45.08444532897606" lon="7.469893177549569"><ele>331.0</ele><time>2026-04-18T14:51:27Z</time></trkpt><trkpt lat="45.08446135905001" lon="7.470210626421928"><ele>330.0</ele><time>2026-04-18T14:51:28Z</time></trkpt><trkpt lat="45.0844958653993" lon="7.470519396070743"><ele>329.0</ele><time>2026-04-18T14:51:29Z</time></trkpt><trkpt lat="45.084517294649594" lon="7.470834634778459"><ele>329.0</ele><time>2026-04-18T14:51:30Z</time></trkpt><trkpt lat="45.08452046433495" lon="7.471157160794453"><ele>329.0</ele><time>2026-04-18T14:51:31Z</time></trkpt><trkpt lat="45.08452183074285" lon="7.471475475272093"><ele>329.33333333333337</ele><time>2026-04-18T14:51:32Z</time></trkpt><trkpt lat="45.0845188658489" lon="7.4717902884935485"><ele>329.6666666666667</ele><time>2026-04-18T14:51:33Z</time></trkpt><trkpt lat="45.084518822613944" lon="7.472091798196854"><ele>330.0</ele><time>2026-04-18T14:51:34Z</time></trkpt><trkpt lat="45.08452230517225" lon="7.472394401831263"><ele>330.3333333333333</ele><time>2026-04-18T14:51:35Z</time></trkpt><trkpt lat="45.08452383071173" lon="7.472687263497683"><ele>330.66666666666663</ele><time>2026-04-18T14:51:36Z</time></trkpt><trkpt lat="45.084526323154805" lon="7.472989287629292"><ele>331.0</ele><time>2026-04-18T14:51:37Z</time></trkpt><trkpt lat="45.08454078376913" lon="7.473282330922634"><ele>331.0</ele><time>2026-04-18T14:51:38Z</time></trkpt><trkpt lat="45.084550633304204" lon="7.473571449671714"><ele>331.0</ele><time>2026-04-18T14:51:39Z</time></trkpt><trkpt lat="45.08455875357182" lon="7.4738583369479334"><ele>331.0</ele><time>2026-04-18T14:51:40Z</time></trkpt><trkpt lat="45.08456053018796" lon="7.4741407707116485"><ele>331.0</ele><time>2026-04-18T14:51:41Z</time></trkpt><trkpt lat="45.084592472271055" lon="7.4744154587640965"><ele>331.0</ele><time>2026-04-18T14:51:42Z</time></trkpt><trkpt lat="45.08460764405207" lon="7.474687425354615"><ele>331.0</ele><time>2026-04-18T14:51:43Z</time></trkpt><trkpt lat="45.084602258170825" lon="7.474965460893297"><ele>331.0</ele><time>2026-04-18T14:51:44Z</time></trkpt><trkpt lat="45.084602684761364" lon="7.475234888164582"><ele>331.0</ele><time>2026-04-18T14:51:45Z</time></trkpt><trkpt lat="45.0846028483264" lon="7.475502884204946"><ele>331.0</ele><time>2026-04-18T14:51:46Z</time></trkpt><trkpt lat="45.08460901583721" lon="7.475762827714395"><ele>331.0</ele><time>2026-04-18T14:51:47Z</time></trkpt><trkpt lat="45.08461696176835" lon="7.476011051862631"><ele>331.0</ele><time>2026-04-18T14:51:48Z</time></trkpt><trkpt lat="45.0846267577203" lon="7.476263642892132"><ele>331.0</ele><time>2026-04-18T14:51:49Z</time></trkpt><trkpt lat="45.084636602234234" lon="7.476507400353135"><ele>331.3333333333333</ele><time>2026-04-18T14:51:50Z</time></trkpt><trkpt lat="45.08464360076142" lon="7.4767430723399695"><ele>331.6666666666667</ele><time>2026-04-18T14:51:51Z</time></trkpt><trkpt lat="45.084640342442555" lon="7.4769815604497625"><ele>332.0</ele><time>2026-04-18T14:51:52Z</time></trkpt><trkpt lat="45.08463473710633" lon="7.477222649823624"><ele>332.0</ele><time>2026-04-18T14:51:53Z</time></trkpt><trkpt lat="45.084630936279105" lon="7.477463312842174"><ele>332.0</ele><time>2026-04-18T14:51:54Z</time></trkpt><trkpt lat="45.08464634461965" lon="7.477698821747693"><ele>332.0</ele><time>2026-04-18T14:51:55Z</time></trkpt><trkpt lat="45.084647083285894" lon="7.477932732313645"><ele>332.33333333333337</ele><time>2026-04-18T14:51:56Z</time></trkpt><trkpt lat="45.08466032085959" lon="7.478172944314681"><ele>332.6666666666667</ele><time>2026-04-18T14:51:57Z</time></trkpt><trkpt lat="45.084670689324994" lon="7.478411749480452"><ele>333.0</ele><time>2026-04-18T14:51:58Z</time></trkpt><trkpt lat="45.08467727901621" lon="7.478655139126157"><ele>333.3333333333333</ele><time>2026-04-18T14:51:59Z</time></trkpt><trkpt lat="45.08467183559183" lon="7.478894700762001"><ele>333.66666666666663</ele><time>2026-04-18T14:52:00Z</time></trkpt><trkpt lat="45.08468146481893" lon="7.479124499906334"><ele>334.0</ele><time>2026-04-18T14:52:01Z</time></trkpt><trkpt lat="45.08469499123917" lon="7.47935986155045"><ele>333.66666666666663</ele><time>2026-04-18T14:52:02Z</time></trkpt><trkpt lat="45.08469462669976" lon="7.479601658088381"><ele>333.3333333333333</ele><time>2026-04-18T14:52:03Z</time></trkpt><trkpt lat="45.08469188869979" lon="7.479852017101663"><ele>333.0</ele><time>2026-04-18T14:52:04Z</time></trkpt><trkpt lat="45.08470178199233" lon="7.480109023835154"><ele>333.0</ele><time>2026-04-18T14:52:05Z</time></trkpt><trkpt lat="45.08471167046454" lon="7.480360397872054"><ele>333.0</ele><time>2026-04-18T14:52:06Z</time></trkpt><trkpt lat="45.084727803772516" lon="7.480595516925136"><ele>333.0</ele><time>2026-04-18T14:52:07Z</time></trkpt><trkpt lat="45.08472533292817" lon="7.480812209744951"><ele>333.0</ele><time>2026-04-18T14:52:08Z</time></trkpt><trkpt lat="45.08472879102046" lon="7.481018939495801"><ele>333.0</ele><time>2026-04-18T14:52:09Z</time></trkpt><trkpt lat="45.0847310426468" lon="7.481209794323249"><ele>333.0</ele><time>2026-04-18T14:52:10Z</time></trkpt><trkpt lat="45.08472177700003" lon="7.4813686996937925"><ele>333.0</ele><time>2026-04-18T14:52:11Z</time></trkpt><trkpt lat="45.08470640034117" lon="7.4815026720563775"><ele>332.5</ele><time>2026-04-18T14:52:12Z</time></trkpt><trkpt lat="45.08466732270533" lon="7.481628059757707"><ele>332.0</ele><time>2026-04-18T14:52:13Z</time></trkpt><trkpt lat="45.084620151350535" lon="7.4817685817892094"><ele>331.5</ele><time>2026-04-18T14:52:14Z</time></trkpt><trkpt lat="45.08459242370841" lon="7.481928774954125"><ele>331.0</ele><time>2026-04-18T14:52:15Z</time></trkpt><trkpt lat="45.08460984762477" lon="7.482107663840463"><ele>330.66666666666663</ele><time>2026-04-18T14:52:16Z</time></trkpt><trkpt lat="45.08467166573951" lon="7.482272418903638"><ele>330.3333333333333</ele><time>2026-04-18T14:52:17Z</time></trkpt><trkpt lat="45.08471189969431" lon="7.48247476438346"><ele>330.0</ele><time>2026-04-18T14:52:18Z</time></trkpt><trkpt lat="45.08473034252787" lon="7.4827258749673655"><ele>330.3333333333333</ele><time>2026-04-18T14:52:19Z</time></trkpt><trkpt lat="45.08477916427781" lon="7.483004698300775"><ele>330.66666666666663</ele><time>2026-04-18T14:52:20Z</time></trkpt><trkpt lat="45.08479517034146" lon="7.483313575439157"><ele>331.0</ele><time>2026-04-18T14:52:21Z</time></trkpt><trkpt lat="45.08479314970215" lon="7.483651390100003"><ele>332.5</ele><time>2026-04-18T14:52:22Z</time></trkpt><trkpt lat="45.08479786361635" lon="7.4840119176545565"><ele>334.0</ele><time>2026-04-18T14:52:23Z</time></trkpt><trkpt lat="45.084806194743685" lon="7.484375766008123"><ele>334.5</ele><time>2026-04-18T14:52:24Z</time></trkpt><trkpt lat="45.084820592309995" lon="7.484732010227902"><ele>335.0</ele><time>2026-04-18T14:52:25Z</time></trkpt><trkpt lat="45.08482320806189" lon="7.485088620985072"><ele>338.0</ele><time>2026-04-18T14:52:26Z</time></trkpt><trkpt lat="45.08483511632668" lon="7.485443749623045"><ele>341.0</ele><time>2026-04-18T14:52:27Z</time></trkpt><trkpt lat="45.0848450144135" lon="7.485800330024206"><ele>341.0</ele><time>2026-04-18T14:52:28Z</time></trkpt><trkpt lat="45.08486154962248" lon="7.486158949742869"><ele>341.0</ele><time>2026-04-18T14:52:29Z</time></trkpt><trkpt lat="45.08487223160399" lon="7.486509029814095"><ele>340.5</ele><time>2026-04-18T14:52:30Z</time></trkpt><trkpt lat="45.08488041336597" lon="7.486848640815646"><ele>340.0</ele><time>2026-04-18T14:52:31Z</time></trkpt><trkpt lat="45.084888775749185" lon="7.487172009513474"><ele>340.0</ele><time>2026-04-18T14:52:32Z</time></trkpt><trkpt lat="45.08490379067487" lon="7.487492109292006"><ele>340.0</ele><time>2026-04-18T14:52:33Z</time></trkpt><trkpt lat="45.08491313415021" lon="7.4878099700960705"><ele>339.66666666666663</ele><time>2026-04-18T14:52:34Z</time></trkpt><trkpt lat="45.08492111991455" lon="7.488124815763613"><ele>339.3333333333333</ele><time>2026-04-18T14:52:35Z</time></trkpt><trkpt lat="45.08490818613517" lon="7.488439607631158"><ele>339.0</ele><time>2026-04-18T14:52:36Z</time></trkpt><trkpt lat="45.08490481040949" lon="7.48874768347508"><ele>339.0</ele><time>2026-04-18T14:52:37Z</time></trkpt><trkpt lat="45.084903551915694" lon="7.489037774015976"><ele>339.0</ele><time>2026-04-18T14:52:38Z</time></trkpt><trkpt lat="45.08490359389206" lon="7.489326592264498"><ele>339.0</ele><time>2026-04-18T14:52:39Z</time></trkpt><trkpt lat="45.08488110562674" lon="7.489606959263858"><ele>339.0</ele><time>2026-04-18T14:52:40Z</time></trkpt><trkpt lat="45.08482781978518" lon="7.48990494129957"><ele>339.0</ele><time>2026-04-18T14:52:41Z</time></trkpt><trkpt lat="45.08476957507633" lon="7.490209628871793"><ele>339.0</ele><time>2026-04-18T14:52:42Z</time></trkpt><trkpt lat="45.08468837919099" lon="7.49050373024857"><ele>339.0</ele><time>2026-04-18T14:52:43Z</time></trkpt><trkpt lat="45.08458709835373" lon="7.490787522781855"><ele>339.0</ele><time>2026-04-18T14:52:44Z</time></trkpt><trkpt lat="45.08449331187881" lon="7.49106688911634"><ele>339.0</ele><time>2026-04-18T14:52:45Z</time></trkpt><trkpt lat="45.08438392796627" lon="7.491332045920498"><ele>339.3333333333333</ele><time>2026-04-18T14:52:46Z</time></trkpt><trkpt lat="45.08427684041767" lon="7.491612772679134"><ele>339.66666666666663</ele><time>2026-04-18T14:52:47Z</time></trkpt><trkpt lat="45.08418307364962" lon="7.491893165400982"><ele>340.0</ele><time>2026-04-18T14:52:48Z</time></trkpt><trkpt lat="45.084119078295295" lon="7.492178865580044"><ele>342.0</ele><time>2026-04-18T14:52:49Z</time></trkpt><trkpt lat="45.084072559600216" lon="7.492465174584932"><ele>344.0</ele><time>2026-04-18T14:52:50Z</time></trkpt><trkpt lat="45.084033599298266" lon="7.492759078783371"><ele>346.0</ele><time>2026-04-18T14:52:51Z</time></trkpt><trkpt lat="45.084017407736624" lon="7.493059706998787"><ele>346.0</ele><time>2026-04-18T14:52:52.001Z</time></trkpt><trkpt lat="45.08402324034669" lon="7.493369534609193"><ele>346.0</ele><time>2026-04-18T14:52:53.001Z</time></trkpt><trkpt lat="45.08405655778601" lon="7.493688992674225"><ele>346.0</ele><time>2026-04-18T14:52:54.001Z</time></trkpt><trkpt lat="45.084114161442706" lon="7.494028765001393"><ele>346.0</ele><time>2026-04-18T14:52:55.001Z</time></trkpt><trkpt lat="45.08418429429135" lon="7.494390300369575"><ele>346.0</ele><time>2026-04-18T14:52:56.001Z</time></trkpt><trkpt lat="45.08428858707953" lon="7.494749111215475"><ele>349.0</ele><time>2026-04-18T14:52:57.001Z</time></trkpt><trkpt lat="45.084360798026786" lon="7.49510857755998"><ele>352.0</ele><time>2026-04-18T14:52:58.001Z</time></trkpt><trkpt lat="45.084387938254345" lon="7.4954604287127164"><ele>354.5</ele><time>2026-04-18T14:52:59.001Z</time></trkpt><trkpt lat="45.08439039163279" lon="7.495818831758191"><ele>357.0</ele><time>2026-04-18T14:53:00.001Z</time></trkpt><trkpt lat="45.084355060520295" lon="7.496182472439155"><ele>358.5</ele><time>2026-04-18T14:53:01.001Z</time></trkpt><trkpt lat="45.08432214821419" lon="7.496559688908382"><ele>360.0</ele><time>2026-04-18T14:53:02.001Z</time></trkpt><trkpt lat="45.084286719644176" lon="7.496919514037096"><ele>359.0</ele><time>2026-04-18T14:53:03.001Z</time></trkpt><trkpt lat="45.08421068520633" lon="7.497227238149195"><ele>358.0</ele><time>2026-04-18T14:53:04.001Z</time></trkpt><trkpt lat="45.08412569418357" lon="7.4975263448410265"><ele>360.3333333333333</ele><time>2026-04-18T14:53:05.001Z</time></trkpt><trkpt lat="45.08401868633416" lon="7.4978208732552485"><ele>362.6666666666667</ele><time>2026-04-18T14:53:06.001Z</time></trkpt><trkpt lat="45.08392487458269" lon="7.498095626269897"><ele>365.0</ele><time>2026-04-18T14:53:07.001Z</time></trkpt><trkpt lat="45.08383861965637" lon="7.498336185522148"><ele>365.0</ele><time>2026-04-18T14:53:08.001Z</time></trkpt><trkpt lat="45.083756482708424" lon="7.498558994557901"><ele>365.0</ele><time>2026-04-18T14:53:09.001Z</time></trkpt><trkpt lat="45.083681881817085" lon="7.498753352316639"><ele>365.0</ele><time>2026-04-18T14:53:10.001Z</time></trkpt><trkpt lat="45.083635707852345" lon="7.498904498416144"><ele>363.8</ele><time>2026-04-18T14:53:11.001Z</time></trkpt><trkpt lat="45.083601071313716" lon="7.49901631931345"><ele>362.6</ele><time>2026-04-18T14:53:12.001Z</time></trkpt><trkpt lat="45.08355458201636" lon="7.4991028687672525"><ele>361.4</ele><time>2026-04-18T14:53:45Z</time></trkpt><trkpt lat="45.083520913013295" lon="7.499217496198762"><ele>360.2</ele><time>2026-04-18T14:53:46Z</time></trkpt><trkpt lat="45.08346741849761" lon="7.499350017731999"><ele>359.0</ele><time>2026-04-18T14:53:47Z</time></trkpt><trkpt lat="45.083416603657376" lon="7.4995010715546675"><ele>359.33333333333337</ele><time>2026-04-18T14:53:48Z</time></trkpt><trkpt lat="45.08334503601113" lon="7.499684810377482"><ele>359.6666666666667</ele><time>2026-04-18T14:53:49Z</time></trkpt><trkpt lat="45.083273578448164" lon="7.499879742262567"><ele>360.0</ele><time>2026-04-18T14:53:50Z</time></trkpt><trkpt lat="45.083190206749364" lon="7.500087382276784"><ele>360.0</ele><time>2026-04-18T14:53:51Z</time></trkpt><trkpt lat="45.08311392115779" lon="7.500287696658549"><ele>360.0</ele><time>2026-04-18T14:53:52Z</time></trkpt><trkpt lat="45.08303970639272" lon="7.500459577244344"><ele>360.0</ele><time>2026-04-18T14:53:53Z</time></trkpt><trkpt lat="45.08297831786044" lon="7.50061953258585"><ele>360.0</ele><time>2026-04-18T14:53:54Z</time></trkpt><trkpt lat="45.0829192942684" lon="7.500775193201003"><ele>359.8</ele><time>2026-04-18T14:53:55Z</time></trkpt><trkpt lat="45.082865123731786" lon="7.5009162950556645"><ele>359.6</ele><time>2026-04-18T14:53:56Z</time></trkpt><trkpt lat="45.082815573982245" lon="7.501041927211516"><ele>359.4</ele><time>2026-04-18T14:53:57Z</time></trkpt><trkpt lat="45.082770709071205" lon="7.50116250380064"><ele>359.2</ele><time>2026-04-18T14:53:58Z</time></trkpt><trkpt lat="45.082737210226824" lon="7.501268320971994"><ele>359.0</ele><time>2026-04-18T14:53:59Z</time></trkpt><trkpt lat="45.08271093708007" lon="7.501350763162353"><ele>359.0</ele><time>2026-04-18T14:54:00Z</time></trkpt><trkpt lat="45.08264707964828" lon="7.501374534548303"><ele>359.0</ele><time>2026-04-18T14:54:01Z</time></trkpt><trkpt lat="45.08258663709592" lon="7.501501515912313"><ele>359.0</ele><time>2026-04-18T14:54:03Z</time></trkpt><trkpt lat="45.08255478600554" lon="7.501626373435158"><ele>359.0</ele><time>2026-04-18T14:54:04Z</time></trkpt><trkpt lat="45.082514621499634" lon="7.501777635446641"><ele>359.0</ele><time>2026-04-18T14:54:05Z</time></trkpt><trkpt lat="45.08246127849119" lon="7.501956732641153"><ele>359.5</ele><time>2026-04-18T14:54:06Z</time></trkpt><trkpt lat="45.082398999644184" lon="7.502143738969556"><ele>360.0</ele><time>2026-04-18T14:54:07Z</time></trkpt><trkpt lat="45.08235188237922" lon="7.502303184389307"><ele>360.5</ele><time>2026-04-18T14:54:08Z</time></trkpt><trkpt lat="45.08228680865308" lon="7.502479252784718"><ele>361.0</ele><time>2026-04-18T14:54:09Z</time></trkpt><trkpt lat="45.08222302906684" lon="7.5026518197845276"><ele>361.0</ele><time>2026-04-18T14:54:10Z</time></trkpt><trkpt lat="45.08217258968246" lon="7.502838454773617"><ele>361.0</ele><time>2026-04-18T14:54:11Z</time></trkpt><trkpt lat="45.082101841778645" lon="7.503007095006376"><ele>361.0</ele><time>2026-04-18T14:54:12Z</time></trkpt><trkpt lat="45.08202595359813" lon="7.503175279616777"><ele>361.0</ele><time>2026-04-18T14:54:13Z</time></trkpt><trkpt lat="45.081938934777284" lon="7.503359034217151"><ele>360.75</ele><time>2026-04-18T14:54:14Z</time></trkpt><trkpt lat="45.08185242795243" lon="7.503524718637995"><ele>360.5</ele><time>2026-04-18T14:54:15Z</time></trkpt><trkpt lat="45.0817546006685" lon="7.503661588183115"><ele>360.25</ele><time>2026-04-18T14:54:16Z</time></trkpt><trkpt lat="45.08165547919224" lon="7.503776201961447"><ele>360.0</ele><time>2026-04-18T14:54:17Z</time></trkpt><trkpt lat="45.08154847151128" lon="7.503872868307334"><ele>360.0</ele><time>2026-04-18T14:54:18Z</time></trkpt><trkpt lat="45.08138330920758" lon="7.504081573646253"><ele>360.0</ele><time>2026-04-18T14:54:20Z</time></trkpt></trkseg></trk></gpx>